<?xml version='1.0' encoding='UTF-8'?><gpx version="1.1" creator="JPX - https://github.com/jenetics/jpx" xmlns="http://www.topografix.com/GPX/1/1"><trk><trkseg><trkpt lat="38.39147130786375" lon="16.075207754033222"><ele>237.99999999999997</ele><time>2026-04-12T14:47:55.999Z</time></trkpt><trkpt lat="38.39139197471535" lon="16.075212737081852"><ele>238.0</ele><time>2026-04-12T14:50:53.999Z</time></trkpt><trkpt lat="38.391328734537915" lon="16.07522626759739"><ele>238.0</ele><time>2026-04-12T14:50:57.999Z</time></trkpt><trkpt lat="38.39125302199859" lon="16.075262351909252"><ele>238.0</ele><time>2026-04-12T14:51:57.999Z</time></trkpt><trkpt lat="38.3912114887188" lon="16.07538661231754"><ele>237.99999999999997</ele><time>2026-04-12T14:51:59.998Z</time></trkpt><trkpt lat="38.391187112911624" lon="16.075485977274152"><ele>238.0</ele><time>2026-04-12T14:52:00.998Z</time></trkpt><trkpt lat="38.39118481876868" lon="16.07558188628069"><ele>238.0</ele><time>2026-04-12T14:52:01.998Z</time></trkpt><trkpt lat="38.39123155829462" lon="16.07569562912992"><ele>238.0</ele><time>2026-04-12T14:52:02.998Z</time></trkpt><trkpt lat="38.39122572306085" lon="16.0757791753709"><ele>238.0</ele><time>2026-04-12T14:52:03.998Z</time></trkpt><trkpt lat="38.39121901490066" lon="16.07588522854605"><ele>238.0</ele><time>2026-04-12T14:52:06.998Z</time></trkpt><trkpt lat="38.39130039126983" lon="16.076008644641337"><ele>238.0</ele><time>2026-04-12T14:52:10.998Z</time></trkpt><trkpt lat="38.3913900786116" lon="16.07602611699909"><ele>238.99999999999997</ele><time>2026-04-12T14:52:12.998Z</time></trkpt><trkpt lat="38.391476237922966" lon="16.076042675332197"><ele>240.0</ele><time>2026-04-12T14:52:14.998Z</time></trkpt><trkpt lat="38.39158270466986" lon="16.07604305861152"><ele>241.0</ele><time>2026-04-12T14:52:16.998Z</time></trkpt><trkpt lat="38.39164764531735" lon="16.07605511987743"><ele>242.0</ele><time>2026-04-12T14:52:17.998Z</time></trkpt><trkpt lat="38.39171621661618" lon="16.076065185708952"><ele>242.99999999999997</ele><time>2026-04-12T14:52:18.998Z</time></trkpt><trkpt lat="38.39177633587437" lon="16.076094645751112"><ele>244.0</ele><time>2026-04-12T14:52:19.998Z</time></trkpt><trkpt lat="38.391908363006735" lon="16.076115011500583"><ele>243.99999999999997</ele><time>2026-04-12T14:52:21.998Z</time></trkpt><trkpt lat="38.391978235402306" lon="16.076124899487002"><ele>244.0</ele><time>2026-04-12T14:52:22.998Z</time></trkpt><trkpt lat="38.39204804618464" lon="16.076132429744863"><ele>244.0</ele><time>2026-04-12T14:52:23.998Z</time></trkpt><trkpt lat="38.39214578912095" lon="16.076140103597808"><ele>244.0</ele><time>2026-04-12T14:52:24.998Z</time></trkpt><trkpt lat="38.392253536320844" lon="16.076149020751505"><ele>243.99999999999997</ele><time>2026-04-12T14:52:25.998Z</time></trkpt><trkpt lat="38.39232227717077" lon="16.076156022139195"><ele>244.0</ele><time>2026-04-12T14:52:26.998Z</time></trkpt><trkpt lat="38.3924187475086" lon="16.07615775126128"><ele>244.33333333333331</ele><time>2026-04-12T14:52:28.998Z</time></trkpt><trkpt lat="38.39252853435163" lon="16.076188255300707"><ele>244.66666666666666</ele><time>2026-04-12T14:52:30.998Z</time></trkpt><trkpt lat="38.39259574566249" lon="16.0762017026869"><ele>245.0</ele><time>2026-04-12T14:52:31.998Z</time></trkpt><trkpt lat="38.39266528120644" lon="16.076216715464547"><ele>245.33333333333331</ele><time>2026-04-12T14:52:32.998Z</time></trkpt><trkpt lat="38.392733314790156" lon="16.076228864799617"><ele>245.66666666666666</ele><time>2026-04-12T14:52:33.998Z</time></trkpt><trkpt lat="38.39280253394294" lon="16.076244717307834"><ele>246.0</ele><time>2026-04-12T14:52:34.998Z</time></trkpt><trkpt lat="38.392872445514485" lon="16.07626400354173"><ele>246.0</ele><time>2026-04-12T14:52:35.998Z</time></trkpt><trkpt lat="38.39294631359268" lon="16.07628074442066"><ele>246.0</ele><time>2026-04-12T14:52:36.998Z</time></trkpt><trkpt lat="38.39302698448969" lon="16.076291924888885"><ele>246.0</ele><time>2026-04-12T14:52:37.997Z</time></trkpt><trkpt lat="38.39310790235584" lon="16.076303911044747"><ele>246.0</ele><time>2026-04-12T14:52:38.997Z</time></trkpt><trkpt lat="38.39319276723248" lon="16.076305733419616"><ele>246.0</ele><time>2026-04-12T14:52:39.997Z</time></trkpt><trkpt lat="38.39327605081946" lon="16.076301975039335"><ele>246.0</ele><time>2026-04-12T14:52:40.997Z</time></trkpt><trkpt lat="38.3933549040648" lon="16.076296810944633"><ele>245.83333333333334</ele><time>2026-04-12T14:52:41.997Z</time></trkpt><trkpt lat="38.39342804756003" lon="16.076292899295332"><ele>245.66666666666669</ele><time>2026-04-12T14:52:42.997Z</time></trkpt><trkpt lat="38.39350276084795" lon="16.076286430574186"><ele>245.5</ele><time>2026-04-12T14:52:43.997Z</time></trkpt><trkpt lat="38.393578187338235" lon="16.076281275344417"><ele>245.33333333333334</ele><time>2026-04-12T14:52:44.997Z</time></trkpt><trkpt lat="38.393656625883345" lon="16.076276843688852"><ele>245.16666666666669</ele><time>2026-04-12T14:52:45.997Z</time></trkpt><trkpt lat="38.39373406353819" lon="16.076275158280076"><ele>245.0</ele><time>2026-04-12T14:52:46.997Z</time></trkpt><trkpt lat="38.393809521267755" lon="16.07627541882767"><ele>244.50000000000003</ele><time>2026-04-12T14:52:47.997Z</time></trkpt><trkpt lat="38.39388433776766" lon="16.076275607753217"><ele>244.0</ele><time>2026-04-12T14:52:48.997Z</time></trkpt><trkpt lat="38.393957136131874" lon="16.07627428446636"><ele>243.5</ele><time>2026-04-12T14:52:49.997Z</time></trkpt><trkpt lat="38.39403130637491" lon="16.076273550834923"><ele>243.0</ele><time>2026-04-12T14:52:50.997Z</time></trkpt><trkpt lat="38.394110148726575" lon="16.076272467297812"><ele>242.50000000000003</ele><time>2026-04-12T14:52:51.997Z</time></trkpt><trkpt lat="38.39418677119009" lon="16.076269688341526"><ele>242.0</ele><time>2026-04-12T14:52:52.998Z</time></trkpt><trkpt lat="38.39426456945114" lon="16.076266216394128"><ele>242.00000000000003</ele><time>2026-04-12T14:52:53.998Z</time></trkpt><trkpt lat="38.39434438813055" lon="16.07626842038267"><ele>242.0</ele><time>2026-04-12T14:52:54.998Z</time></trkpt><trkpt lat="38.39443185837981" lon="16.076265637501315"><ele>242.0</ele><time>2026-04-12T14:52:55.998Z</time></trkpt><trkpt lat="38.394510840875256" lon="16.076263041372698"><ele>242.0</ele><time>2026-04-12T14:52:56.998Z</time></trkpt><trkpt lat="38.39458731184273" lon="16.076259640873236"><ele>242.00000000000003</ele><time>2026-04-12T14:52:57.998Z</time></trkpt><trkpt lat="38.39467065721807" lon="16.076262699134425"><ele>242.0</ele><time>2026-04-12T14:52:58.998Z</time></trkpt><trkpt lat="38.39474657708381" lon="16.076258902297"><ele>242.33333333333334</ele><time>2026-04-12T14:52:59.998Z</time></trkpt><trkpt lat="38.394821772720924" lon="16.07624657639051"><ele>242.66666666666669</ele><time>2026-04-12T14:53:00.998Z</time></trkpt><trkpt lat="38.394891863405135" lon="16.076228708787042"><ele>243.0</ele><time>2026-04-12T14:53:01.998Z</time></trkpt><trkpt lat="38.39495387125779" lon="16.076206775350077"><ele>243.33333333333331</ele><time>2026-04-12T14:53:02.998Z</time></trkpt><trkpt lat="38.395054884234646" lon="16.076140670811977"><ele>243.66666666666666</ele><time>2026-04-12T14:53:04.998Z</time></trkpt><trkpt lat="38.39511842729758" lon="16.076104369405112"><ele>244.0</ele><time>2026-04-12T14:53:05.998Z</time></trkpt><trkpt lat="38.395187122035836" lon="16.076063056343177"><ele>243.99999999999997</ele><time>2026-04-12T14:53:06.998Z</time></trkpt><trkpt lat="38.39524819391008" lon="16.076010693222273"><ele>244.0</ele><time>2026-04-12T14:53:07.998Z</time></trkpt><trkpt lat="38.39531124875806" lon="16.07594634741585"><ele>244.0</ele><time>2026-04-12T14:53:08.998Z</time></trkpt><trkpt lat="38.39537696704554" lon="16.075881483338772"><ele>244.0</ele><time>2026-04-12T14:53:09.998Z</time></trkpt><trkpt lat="38.395442482657465" lon="16.075816036435853"><ele>243.99999999999997</ele><time>2026-04-12T14:53:10.998Z</time></trkpt><trkpt lat="38.39551148985049" lon="16.075747615771622"><ele>244.0</ele><time>2026-04-12T14:53:11.998Z</time></trkpt><trkpt lat="38.39557917441418" lon="16.07567505997392"><ele>243.2</ele><time>2026-04-12T14:53:12.998Z</time></trkpt><trkpt lat="38.395648695343176" lon="16.07560365443664"><ele>242.39999999999998</ele><time>2026-04-12T14:53:13.998Z</time></trkpt><trkpt lat="38.39571728852339" lon="16.075529031899748"><ele>241.6</ele><time>2026-04-12T14:53:14.998Z</time></trkpt><trkpt lat="38.39578827195414" lon="16.075453986495866"><ele>240.8</ele><time>2026-04-12T14:53:15.998Z</time></trkpt><trkpt lat="38.395858777018766" lon="16.07537660999188"><ele>240.0</ele><time>2026-04-12T14:53:16.998Z</time></trkpt><trkpt lat="38.395932463421346" lon="16.075301107439362"><ele>240.0</ele><time>2026-04-12T14:53:17.998Z</time></trkpt><trkpt lat="38.39600616239136" lon="16.075229385829104"><ele>240.0</ele><time>2026-04-12T14:53:18.998Z</time></trkpt><trkpt lat="38.39608174484849" lon="16.07515852506888"><ele>240.0</ele><time>2026-04-12T14:53:19.998Z</time></trkpt><trkpt lat="38.39615561450998" lon="16.075084190777595"><ele>240.0</ele><time>2026-04-12T14:53:20.998Z</time></trkpt><trkpt lat="38.39622942511053" lon="16.07500929327115"><ele>240.0</ele><time>2026-04-12T14:53:21.998Z</time></trkpt><trkpt lat="38.3963005391475" lon="16.074938780717673"><ele>239.6</ele><time>2026-04-12T14:53:22.998Z</time></trkpt><trkpt lat="38.3963741065836" lon="16.074868244369494"><ele>239.2</ele><time>2026-04-12T14:53:23.998Z</time></trkpt><trkpt lat="38.39644617774014" lon="16.074796757309535"><ele>238.8</ele><time>2026-04-12T14:53:24.998Z</time></trkpt><trkpt lat="38.39651373108541" lon="16.074724851536285"><ele>238.4</ele><time>2026-04-12T14:53:25.999Z</time></trkpt><trkpt lat="38.396584665485946" lon="16.0746524703215"><ele>238.0</ele><time>2026-04-12T14:53:26.999Z</time></trkpt><trkpt lat="38.39665751376834" lon="16.074580246637073"><ele>238.0</ele><time>2026-04-12T14:53:27.999Z</time></trkpt><trkpt lat="38.39673367449543" lon="16.074512031741843"><ele>238.0</ele><time>2026-04-12T14:53:28.999Z</time></trkpt><trkpt lat="38.39681375668639" lon="16.074446109231836"><ele>238.0</ele><time>2026-04-12T14:53:29.999Z</time></trkpt><trkpt lat="38.39689563632363" lon="16.07438193365683"><ele>238.0</ele><time>2026-04-12T14:53:30.999Z</time></trkpt><trkpt lat="38.39697928128209" lon="16.07431873829718"><ele>238.0</ele><time>2026-04-12T14:53:31.999Z</time></trkpt><trkpt lat="38.39707362212944" lon="16.074256308874997"><ele>237.99999999999997</ele><time>2026-04-12T14:53:32.999Z</time></trkpt><trkpt lat="38.397162163492006" lon="16.074204536762437"><ele>238.0</ele><time>2026-04-12T14:53:33.999Z</time></trkpt><trkpt lat="38.39723556148201" lon="16.074157635707603"><ele>238.0</ele><time>2026-04-12T14:53:34.999Z</time></trkpt><trkpt lat="38.39731439195822" lon="16.07410988985689"><ele>238.0</ele><time>2026-04-12T14:53:35.999Z</time></trkpt><trkpt lat="38.39738847468469" lon="16.07406598659315"><ele>237.99999999999997</ele><time>2026-04-12T14:53:36.999Z</time></trkpt><trkpt lat="38.397460741797005" lon="16.074028756444044"><ele>238.0</ele><time>2026-04-12T14:53:37.999Z</time></trkpt><trkpt lat="38.39753030500161" lon="16.07401095558498"><ele>237.16666666666666</ele><time>2026-04-12T14:53:38.999Z</time></trkpt><trkpt lat="38.39760955037732" lon="16.07400727905501"><ele>236.33333333333331</ele><time>2026-04-12T14:53:39.999Z</time></trkpt><trkpt lat="38.397685006158305" lon="16.073995494609267"><ele>235.5</ele><time>2026-04-12T14:53:40.999Z</time></trkpt><trkpt lat="38.397761470339056" lon="16.073979163034178"><ele>234.66666666666669</ele><time>2026-04-12T14:53:41.999Z</time></trkpt><trkpt lat="38.39782489490965" lon="16.0739244126259"><ele>233.83333333333334</ele><time>2026-04-12T14:53:42.999Z</time></trkpt><trkpt lat="38.397917994665" lon="16.07394577376512"><ele>233.0</ele><time>2026-04-12T14:53:43.999Z</time></trkpt><trkpt lat="38.3980002307347" lon="16.073936589578853"><ele>233.16666666666669</ele><time>2026-04-12T14:53:44.999Z</time></trkpt><trkpt lat="38.39807258533777" lon="16.073921435465593"><ele>233.33333333333334</ele><time>2026-04-12T14:53:45.999Z</time></trkpt><trkpt lat="38.39814434135236" lon="16.073909551968534"><ele>233.5</ele><time>2026-04-12T14:53:46.999Z</time></trkpt><trkpt lat="38.398224460800876" lon="16.0738991990737"><ele>233.66666666666669</ele><time>2026-04-12T14:53:47.999Z</time></trkpt><trkpt lat="38.398305861388884" lon="16.073880809262427"><ele>233.83333333333334</ele><time>2026-04-12T14:53:48.999Z</time></trkpt><trkpt lat="38.39839813505752" lon="16.07387417046002"><ele>234.0</ele><time>2026-04-12T14:53:49.999Z</time></trkpt><trkpt lat="38.3984895133006" lon="16.073875106543674"><ele>234.0</ele><time>2026-04-12T14:53:50.999Z</time></trkpt><trkpt lat="38.39858095733369" lon="16.07387262646585"><ele>233.99999999999997</ele><time>2026-04-12T14:53:51.999Z</time></trkpt><trkpt lat="38.398666751944425" lon="16.073872859383673"><ele>233.99999999999997</ele><time>2026-04-12T14:53:52.999Z</time></trkpt><trkpt lat="38.39875637425817" lon="16.073861214897033"><ele>234.0</ele><time>2026-04-12T14:53:53.999Z</time></trkpt><trkpt lat="38.39884550226005" lon="16.073848995343557"><ele>234.0</ele><time>2026-04-12T14:53:54.999Z</time></trkpt><trkpt lat="38.39893872522065" lon="16.073835194466383"><ele>233.6</ele><time>2026-04-12T14:53:55.999Z</time></trkpt><trkpt lat="38.399030637521214" lon="16.073825110568382"><ele>233.2</ele><time>2026-04-12T14:53:56.999Z</time></trkpt><trkpt lat="38.39912493421732" lon="16.073802415968142"><ele>232.79999999999998</ele><time>2026-04-12T14:53:57.999Z</time></trkpt><trkpt lat="38.399223617289216" lon="16.073776303165147"><ele>232.39999999999998</ele><time>2026-04-12T14:53:58.999Z</time></trkpt><trkpt lat="38.39931288390986" lon="16.07374369997348"><ele>232.0</ele><time>2026-04-12T14:53:59.999Z</time></trkpt><trkpt lat="38.39939426939393" lon="16.07371710024504"><ele>232.0</ele><time>2026-04-12T14:54:00.999Z</time></trkpt><trkpt lat="38.39947579544786" lon="16.073691654076615"><ele>232.0</ele><time>2026-04-12T14:54:01.999Z</time></trkpt><trkpt lat="38.39956340411061" lon="16.073664720235623"><ele>232.0</ele><time>2026-04-12T14:54:02.999Z</time></trkpt><trkpt lat="38.39965456621081" lon="16.0736383076821"><ele>232.0</ele><time>2026-04-12T14:54:03.999Z</time></trkpt><trkpt lat="38.39974911041932" lon="16.07360500154255"><ele>232.0</ele><time>2026-04-12T14:54:04.999Z</time></trkpt><trkpt lat="38.39984888837489" lon="16.073570393942884"><ele>231.8</ele><time>2026-04-12T14:54:05.999Z</time></trkpt><trkpt lat="38.399945651124696" lon="16.073525534684283"><ele>231.6</ele><time>2026-04-12T14:54:06.999Z</time></trkpt><trkpt lat="38.40004036651037" lon="16.07346634221161"><ele>231.40000000000003</ele><time>2026-04-12T14:54:07.999Z</time></trkpt><trkpt lat="38.400125137913925" lon="16.073393585106473"><ele>231.20000000000002</ele><time>2026-04-12T14:54:08.999Z</time></trkpt><trkpt lat="38.40019802620146" lon="16.07332573520831"><ele>231.0</ele><time>2026-04-12T14:54:09.999Z</time></trkpt><trkpt lat="38.40026558201818" lon="16.073273907927593"><ele>230.66666666666666</ele><time>2026-04-12T14:54:10.999Z</time></trkpt><trkpt lat="38.400321436992094" lon="16.073222600579797"><ele>230.33333333333331</ele><time>2026-04-12T14:54:11.999Z</time></trkpt><trkpt lat="38.400389182055626" lon="16.073172616694578"><ele>230.0</ele><time>2026-04-12T14:54:12.999Z</time></trkpt><trkpt lat="38.40045780686907" lon="16.073120075905376"><ele>229.66666666666666</ele><time>2026-04-12T14:54:13.999Z</time></trkpt><trkpt lat="38.400530585024356" lon="16.07306457597042"><ele>229.33333333333331</ele><time>2026-04-12T14:54:14.999Z</time></trkpt><trkpt lat="38.400606539993504" lon="16.073017969534895"><ele>229.0</ele><time>2026-04-12T14:54:15.999Z</time></trkpt><trkpt lat="38.400672228169874" lon="16.072962959642965"><ele>228.83333333333331</ele><time>2026-04-12T14:54:16.999Z</time></trkpt><trkpt lat="38.400732977485774" lon="16.07290856444893"><ele>228.66666666666666</ele><time>2026-04-12T14:54:17.999Z</time></trkpt><trkpt lat="38.40084971654935" lon="16.07297756070462"><ele>228.5</ele><time>2026-04-12T14:54:18.999Z</time></trkpt><trkpt lat="38.40092544230028" lon="16.072990064379493"><ele>228.33333333333331</ele><time>2026-04-12T14:54:19.999Z</time></trkpt><trkpt lat="38.401004536615226" lon="16.073017558782606"><ele>228.16666666666666</ele><time>2026-04-12T14:54:20.999Z</time></trkpt><trkpt lat="38.40107935433413" lon="16.073047778341138"><ele>228.0</ele><time>2026-04-12T14:54:21.999Z</time></trkpt><trkpt lat="38.40115294744713" lon="16.073076643526097"><ele>228.0</ele><time>2026-04-12T14:54:22.999Z</time></trkpt><trkpt lat="38.401217728979034" lon="16.073105254103915"><ele>228.0</ele><time>2026-04-12T14:54:23.999Z</time></trkpt><trkpt lat="38.401287845531485" lon="16.073138804778438"><ele>228.0</ele><time>2026-04-12T14:54:24.999Z</time></trkpt><trkpt lat="38.40135831320569" lon="16.073180993034846"><ele>228.0</ele><time>2026-04-12T14:54:25.999Z</time></trkpt><trkpt lat="38.401431373768354" lon="16.073225349255498"><ele>228.0</ele><time>2026-04-12T14:54:26.999Z</time></trkpt><trkpt lat="38.401501439686974" lon="16.07327266830183"><ele>228.0</ele><time>2026-04-12T14:54:27.999Z</time></trkpt><trkpt lat="38.40156965598625" lon="16.07332559685831"><ele>228.0</ele><time>2026-04-12T14:54:28.999Z</time></trkpt><trkpt lat="38.40164184289469" lon="16.073386235095473"><ele>228.0</ele><time>2026-04-12T14:54:29.999Z</time></trkpt><trkpt lat="38.40170540065714" lon="16.073446093474562"><ele>228.0</ele><time>2026-04-12T14:54:30.999Z</time></trkpt><trkpt lat="38.40177461887476" lon="16.0735079792103"><ele>228.0</ele><time>2026-04-12T14:54:31.999Z</time></trkpt><trkpt lat="38.40184377006849" lon="16.073572491426454"><ele>228.0</ele><time>2026-04-12T14:54:32.999Z</time></trkpt><trkpt lat="38.40191412401945" lon="16.07363332250003"><ele>228.0</ele><time>2026-04-12T14:54:33.999Z</time></trkpt><trkpt lat="38.401983736087836" lon="16.07369459552231"><ele>228.0</ele><time>2026-04-12T14:54:34.999Z</time></trkpt><trkpt lat="38.40205379892674" lon="16.073753673621024"><ele>228.0</ele><time>2026-04-12T14:54:35.999Z</time></trkpt><trkpt lat="38.402121663886724" lon="16.07381379614739"><ele>228.0</ele><time>2026-04-12T14:54:36.999Z</time></trkpt><trkpt lat="38.40218983616361" lon="16.07387123159968"><ele>228.0</ele><time>2026-04-12T14:54:37.999Z</time></trkpt><trkpt lat="38.402255297123325" lon="16.073928968575686"><ele>228.0</ele><time>2026-04-12T14:54:38.999Z</time></trkpt><trkpt lat="38.40231277725848" lon="16.073982986285614"><ele>228.0</ele><time>2026-04-12T14:54:39.999Z</time></trkpt><trkpt lat="38.40236440101625" lon="16.0740369285242"><ele>228.0</ele><time>2026-04-12T14:54:40.999Z</time></trkpt><trkpt lat="38.402413991875655" lon="16.074088464907312"><ele>228.0</ele><time>2026-04-12T14:54:41.999Z</time></trkpt><trkpt lat="38.402503026867684" lon="16.074178590332956"><ele>228.0</ele><time>2026-04-12T14:54:43.996Z</time></trkpt><trkpt lat="38.40256185236785" lon="16.07425837348989"><ele>228.0</ele><time>2026-04-12T14:54:46.996Z</time></trkpt><trkpt lat="38.40260783108229" lon="16.074345310401707"><ele>228.0</ele><time>2026-04-12T14:54:49.996Z</time></trkpt><trkpt lat="38.40251305060797" lon="16.074439184638813"><ele>228.83333333333334</ele><time>2026-04-12T14:54:50.996Z</time></trkpt><trkpt lat="38.40247089016924" lon="16.07450078623116"><ele>229.66666666666669</ele><time>2026-04-12T14:54:51.996Z</time></trkpt><trkpt lat="38.40243093041063" lon="16.07456397955607"><ele>230.5</ele><time>2026-04-12T14:54:52.996Z</time></trkpt><trkpt lat="38.40238864364619" lon="16.07464036126538"><ele>231.33333333333334</ele><time>2026-04-12T14:54:53.996Z</time></trkpt><trkpt lat="38.40235218150347" lon="16.07471002713967"><ele>232.16666666666669</ele><time>2026-04-12T14:54:54.997Z</time></trkpt><trkpt lat="38.40228014095444" lon="16.074854980637983"><ele>233.0</ele><time>2026-04-12T14:54:56.997Z</time></trkpt><trkpt lat="38.40223953228936" lon="16.074945046383046"><ele>232.66666666666669</ele><time>2026-04-12T14:54:57.997Z</time></trkpt><trkpt lat="38.402195063776325" lon="16.07503059200577"><ele>232.33333333333334</ele><time>2026-04-12T14:54:58.997Z</time></trkpt><trkpt lat="38.40214979860529" lon="16.07511682066978"><ele>232.0</ele><time>2026-04-12T14:54:59.997Z</time></trkpt><trkpt lat="38.40210079969436" lon="16.075202630605705"><ele>231.66666666666669</ele><time>2026-04-12T14:55:00.997Z</time></trkpt><trkpt lat="38.40205436259485" lon="16.07528626776013"><ele>231.33333333333334</ele><time>2026-04-12T14:55:01.997Z</time></trkpt><trkpt lat="38.40200852955891" lon="16.075372676798445"><ele>231.0</ele><time>2026-04-12T14:55:02.997Z</time></trkpt><trkpt lat="38.40195990888888" lon="16.075454945095895"><ele>231.0</ele><time>2026-04-12T14:55:03.997Z</time></trkpt><trkpt lat="38.40191112173663" lon="16.07553677401504"><ele>231.0</ele><time>2026-04-12T14:55:04.997Z</time></trkpt><trkpt lat="38.40186721994344" lon="16.07563053581729"><ele>231.0</ele><time>2026-04-12T14:55:05.998Z</time></trkpt><trkpt lat="38.401819252724074" lon="16.075727159509373"><ele>231.0</ele><time>2026-04-12T14:55:06.998Z</time></trkpt><trkpt lat="38.401768977508766" lon="16.075825229810857"><ele>231.0</ele><time>2026-04-12T14:55:07.998Z</time></trkpt><trkpt lat="38.40171808650334" lon="16.075921143217887"><ele>231.0</ele><time>2026-04-12T14:55:08.998Z</time></trkpt><trkpt lat="38.40166781783405" lon="16.07602526059536"><ele>231.66666666666666</ele><time>2026-04-12T14:55:09.998Z</time></trkpt><trkpt lat="38.401619052669126" lon="16.07612539017015"><ele>232.33333333333331</ele><time>2026-04-12T14:55:10.998Z</time></trkpt><trkpt lat="38.40157255669529" lon="16.076224194141815"><ele>233.0</ele><time>2026-04-12T14:55:11.998Z</time></trkpt><trkpt lat="38.4015253728442" lon="16.076322312474744"><ele>233.66666666666666</ele><time>2026-04-12T14:55:12.998Z</time></trkpt><trkpt lat="38.401476563585994" lon="16.07641297145423"><ele>234.33333333333331</ele><time>2026-04-12T14:55:13.998Z</time></trkpt><trkpt lat="38.40142995222124" lon="16.076499943354104"><ele>235.0</ele><time>2026-04-12T14:55:14.998Z</time></trkpt><trkpt lat="38.40138216871627" lon="16.076592999102218"><ele>235.8</ele><time>2026-04-12T14:55:15.998Z</time></trkpt><trkpt lat="38.40132566161126" lon="16.076697989767354"><ele>236.6</ele><time>2026-04-12T14:55:16.998Z</time></trkpt><trkpt lat="38.401257144530156" lon="16.076795871863492"><ele>237.39999999999998</ele><time>2026-04-12T14:55:17.998Z</time></trkpt><trkpt lat="38.401180855862364" lon="16.07688295336449"><ele>238.2</ele><time>2026-04-12T14:55:18.998Z</time></trkpt><trkpt lat="38.40110204983284" lon="16.07696834416531"><ele>239.0</ele><time>2026-04-12T14:55:19.998Z</time></trkpt><trkpt lat="38.4010193964662" lon="16.07704231087355"><ele>239.0</ele><time>2026-04-12T14:55:20.998Z</time></trkpt><trkpt lat="38.400947645977354" lon="16.077121476529047"><ele>238.99999999999997</ele><time>2026-04-12T14:55:21.998Z</time></trkpt><trkpt lat="38.40087058084575" lon="16.07719655245994"><ele>238.99999999999997</ele><time>2026-04-12T14:55:22.998Z</time></trkpt><trkpt lat="38.40079848157915" lon="16.077270781742108"><ele>239.0</ele><time>2026-04-12T14:55:23.998Z</time></trkpt><trkpt lat="38.4007250810094" lon="16.077344536454333"><ele>239.0</ele><time>2026-04-12T14:55:24.998Z</time></trkpt><trkpt lat="38.40065544357572" lon="16.07741300184619"><ele>239.79999999999998</ele><time>2026-04-12T14:55:25.998Z</time></trkpt><trkpt lat="38.400582184592636" lon="16.07747955915523"><ele>240.59999999999997</ele><time>2026-04-12T14:55:26.998Z</time></trkpt><trkpt lat="38.40050610422979" lon="16.077546589913045"><ele>241.4</ele><time>2026-04-12T14:55:27.998Z</time></trkpt><trkpt lat="38.400427529619726" lon="16.077615104535305"><ele>242.2</ele><time>2026-04-12T14:55:28.999Z</time></trkpt><trkpt lat="38.40034713444789" lon="16.07768718184527"><ele>243.0</ele><time>2026-04-12T14:55:29.999Z</time></trkpt><trkpt lat="38.400266041011356" lon="16.077761356704315"><ele>243.0</ele><time>2026-04-12T14:55:30.999Z</time></trkpt><trkpt lat="38.400181748867745" lon="16.077843002163956"><ele>243.0</ele><time>2026-04-12T14:55:31.999Z</time></trkpt><trkpt lat="38.40009986630788" lon="16.07793110442026"><ele>243.0</ele><time>2026-04-12T14:55:32.999Z</time></trkpt><trkpt lat="38.400017109639826" lon="16.078017423494003"><ele>243.0</ele><time>2026-04-12T14:55:33.999Z</time></trkpt><trkpt lat="38.3999341034685" lon="16.078101223227456"><ele>243.0</ele><time>2026-04-12T14:55:34.999Z</time></trkpt><trkpt lat="38.399842137924004" lon="16.078177337036486"><ele>243.0</ele><time>2026-04-12T14:55:35.999Z</time></trkpt><trkpt lat="38.39977146000848" lon="16.078249770605304"><ele>243.0</ele><time>2026-04-12T14:55:36.999Z</time></trkpt><trkpt lat="38.39969377202123" lon="16.07832869116456"><ele>243.0</ele><time>2026-04-12T14:55:37.999Z</time></trkpt><trkpt lat="38.39961419247156" lon="16.078409058644205"><ele>243.0</ele><time>2026-04-12T14:55:38.999Z</time></trkpt><trkpt lat="38.39953807624056" lon="16.078482423648175"><ele>243.0</ele><time>2026-04-12T14:55:39.999Z</time></trkpt><trkpt lat="38.399455293575485" lon="16.078552574506705"><ele>243.4</ele><time>2026-04-12T14:55:40.999Z</time></trkpt><trkpt lat="38.39937520629478" lon="16.078620596898585"><ele>243.8</ele><time>2026-04-12T14:55:41.999Z</time></trkpt><trkpt lat="38.39929931669849" lon="16.078695717490202"><ele>244.2</ele><time>2026-04-12T14:55:42.999Z</time></trkpt><trkpt lat="38.39921599203346" lon="16.078770971929984"><ele>244.6</ele><time>2026-04-12T14:55:43.999Z</time></trkpt><trkpt lat="38.3991321208915" lon="16.0788506898818"><ele>245.0</ele><time>2026-04-12T14:55:44.999Z</time></trkpt><trkpt lat="38.399043520593565" lon="16.078926768862527"><ele>245.0</ele><time>2026-04-12T14:55:45.999Z</time></trkpt><trkpt lat="38.39895484558867" lon="16.07900438659978"><ele>245.0</ele><time>2026-04-12T14:55:46.999Z</time></trkpt><trkpt lat="38.3988799194038" lon="16.0790964879095"><ele>245.0</ele><time>2026-04-12T14:55:47.999Z</time></trkpt><trkpt lat="38.398814431644" lon="16.079194360219393"><ele>245.0</ele><time>2026-04-12T14:55:48.999Z</time></trkpt><trkpt lat="38.39876349656866" lon="16.07929576455927"><ele>245.0</ele><time>2026-04-12T14:55:49.999Z</time></trkpt><trkpt lat="38.398702721503575" lon="16.07940134137227"><ele>245.50000000000003</ele><time>2026-04-12T14:55:50.999Z</time></trkpt><trkpt lat="38.39864869295539" lon="16.079490792476477"><ele>246.0</ele><time>2026-04-12T14:55:51.999Z</time></trkpt><trkpt lat="38.3985932922516" lon="16.079559209094096"><ele>246.5</ele><time>2026-04-12T14:55:52.999Z</time></trkpt><trkpt lat="38.39854542147062" lon="16.079636439573047"><ele>247.0</ele><time>2026-04-12T14:55:53.999Z</time></trkpt><trkpt lat="38.3985014694766" lon="16.079707999234742"><ele>247.50000000000003</ele><time>2026-04-12T14:55:54.999Z</time></trkpt><trkpt lat="38.398452027250855" lon="16.07978943660429"><ele>248.0</ele><time>2026-04-12T14:55:55.999Z</time></trkpt><trkpt lat="38.39840048836439" lon="16.079874741310416"><ele>249.2</ele><time>2026-04-12T14:55:56.999Z</time></trkpt><trkpt lat="38.39836106761631" lon="16.079985811407735"><ele>250.4</ele><time>2026-04-12T14:55:57.999Z</time></trkpt><trkpt lat="38.39828640046773" lon="16.0800638376115"><ele>251.59999999999997</ele><time>2026-04-12T14:55:58.999Z</time></trkpt><trkpt lat="38.39822320343295" lon="16.080166924010516"><ele>252.79999999999998</ele><time>2026-04-12T14:55:59.999Z</time></trkpt><trkpt lat="38.398177514728154" lon="16.080277241307684"><ele>254.0</ele><time>2026-04-12T14:56:00.999Z</time></trkpt><trkpt lat="38.398135637798504" lon="16.08040877270239"><ele>254.0</ele><time>2026-04-12T14:56:01.999Z</time></trkpt><trkpt lat="38.39810638508" lon="16.080534102099826"><ele>254.0</ele><time>2026-04-12T14:56:02.999Z</time></trkpt><trkpt lat="38.39807647788977" lon="16.080671542247945"><ele>254.0</ele><time>2026-04-12T14:56:03.999Z</time></trkpt><trkpt lat="38.39806609375524" lon="16.0808193660468"><ele>254.0</ele><time>2026-04-12T14:56:04.999Z</time></trkpt><trkpt lat="38.39802241812229" lon="16.080979899872098"><ele>253.83333333333334</ele><time>2026-04-12T14:56:05.999Z</time></trkpt><trkpt lat="38.39800054634761" lon="16.08107460151176"><ele>253.66666666666669</ele><time>2026-04-12T14:56:06.999Z</time></trkpt><trkpt lat="38.39797362793387" lon="16.081162036148854"><ele>253.5</ele><time>2026-04-12T14:56:07.999Z</time></trkpt><trkpt lat="38.397912703723605" lon="16.081222381844206"><ele>253.33333333333331</ele><time>2026-04-12T14:56:08.999Z</time></trkpt><trkpt lat="38.39786560103621" lon="16.08132596751112"><ele>253.16666666666666</ele><time>2026-04-12T14:56:09.999Z</time></trkpt><trkpt lat="38.397785780050285" lon="16.081362318032514"><ele>253.0</ele><time>2026-04-12T14:56:10.999Z</time></trkpt><trkpt lat="38.397713227122665" lon="16.08138823511615"><ele>253.00000000000003</ele><time>2026-04-12T14:56:11.999Z</time></trkpt><trkpt lat="38.39764649979755" lon="16.081409697386267"><ele>253.0</ele><time>2026-04-12T14:56:12.999Z</time></trkpt><trkpt lat="38.39758023316055" lon="16.081441593886307"><ele>253.00000000000003</ele><time>2026-04-12T14:56:13.999Z</time></trkpt><trkpt lat="38.39751151956034" lon="16.081446459915572"><ele>253.00000000000003</ele><time>2026-04-12T14:56:14.999Z</time></trkpt><trkpt lat="38.39744151184886" lon="16.081461963015773"><ele>253.0</ele><time>2026-04-12T14:56:15.999Z</time></trkpt><trkpt lat="38.39737206300132" lon="16.081493699541973"><ele>253.00000000000003</ele><time>2026-04-12T14:56:16.999Z</time></trkpt><trkpt lat="38.39728256736189" lon="16.081517093212522"><ele>253.00000000000003</ele><time>2026-04-12T14:56:17.999Z</time></trkpt><trkpt lat="38.397233173848655" lon="16.081589112356507"><ele>253.49999999999997</ele><time>2026-04-12T14:56:18.999Z</time></trkpt><trkpt lat="38.39717430642883" lon="16.081655245107022"><ele>254.0</ele><time>2026-04-12T14:56:19.999Z</time></trkpt><trkpt lat="38.39717559908653" lon="16.08176732964718"><ele>254.5</ele><time>2026-04-12T14:56:20.999Z</time></trkpt><trkpt lat="38.39717100854947" lon="16.081861281944963"><ele>255.0</ele><time>2026-04-12T14:56:21.999Z</time></trkpt><trkpt lat="38.39716099097076" lon="16.08196057141134"><ele>255.49999999999997</ele><time>2026-04-12T14:56:22.999Z</time></trkpt><trkpt lat="38.39716757376316" lon="16.082063174754904"><ele>256.0</ele><time>2026-04-12T14:56:23.999Z</time></trkpt><trkpt lat="38.39716472720983" lon="16.082163642819523"><ele>257.40000000000003</ele><time>2026-04-12T14:56:24.999Z</time></trkpt><trkpt lat="38.39716205505451" lon="16.082246283836447"><ele>258.8</ele><time>2026-04-12T14:56:25.999Z</time></trkpt><trkpt lat="38.397161445724954" lon="16.082387657758154"><ele>260.20000000000005</ele><time>2026-04-12T14:56:27.999Z</time></trkpt><trkpt lat="38.39713898400381" lon="16.08250260657915"><ele>261.6</ele><time>2026-04-12T14:56:29.999Z</time></trkpt><trkpt lat="38.39711076143537" lon="16.08261761213904"><ele>263.0</ele><time>2026-04-12T14:56:31.999Z</time></trkpt><trkpt lat="38.39704613645855" lon="16.082729238298555"><ele>264.0</ele><time>2026-04-12T14:56:33.999Z</time></trkpt><trkpt lat="38.39695947804926" lon="16.082843032091315"><ele>265.0</ele><time>2026-04-12T14:56:35.999Z</time></trkpt><trkpt lat="38.396908689318316" lon="16.08289575175535"><ele>266.0</ele><time>2026-04-12T14:56:36.999Z</time></trkpt><trkpt lat="38.396812132642275" lon="16.08296936608127"><ele>267.0</ele><time>2026-04-12T14:56:38.999Z</time></trkpt><trkpt lat="38.39670602866827" lon="16.083033367743454"><ele>268.0</ele><time>2026-04-12T14:56:40.999Z</time></trkpt><trkpt lat="38.39660596269392" lon="16.083070890231635"><ele>268.0</ele><time>2026-04-12T14:56:42.999Z</time></trkpt><trkpt lat="38.396505338420525" lon="16.083105702462632"><ele>268.0</ele><time>2026-04-12T14:56:44.999Z</time></trkpt><trkpt lat="38.39639113540442" lon="16.08307955571602"><ele>268.0</ele><time>2026-04-12T14:56:46.999Z</time></trkpt><trkpt lat="38.396279021116534" lon="16.083023779484254"><ele>268.0</ele><time>2026-04-12T14:56:49Z</time></trkpt><trkpt lat="38.39617896558348" lon="16.082923101966333"><ele>268.3333333333333</ele><time>2026-04-12T14:56:50.997Z</time></trkpt><trkpt lat="38.39608368528587" lon="16.082810481040617"><ele>268.66666666666663</ele><time>2026-04-12T14:56:52.997Z</time></trkpt><trkpt lat="38.396032746271246" lon="16.08274850857416"><ele>269.0</ele><time>2026-04-12T14:56:53.997Z</time></trkpt><trkpt lat="38.39598063741019" lon="16.08268379065493"><ele>269.3333333333333</ele><time>2026-04-12T14:56:54.997Z</time></trkpt><trkpt lat="38.39592191263561" lon="16.08261978242765"><ele>269.6666666666667</ele><time>2026-04-12T14:56:55.997Z</time></trkpt><trkpt lat="38.3958442999282" lon="16.082582717600292"><ele>270.0</ele><time>2026-04-12T14:56:56.998Z</time></trkpt><trkpt lat="38.395774160140846" lon="16.082549989136858"><ele>270.0</ele><time>2026-04-12T14:56:57.998Z</time></trkpt><trkpt lat="38.39569366993478" lon="16.082544192771472"><ele>270.0</ele><time>2026-04-12T14:56:58.998Z</time></trkpt><trkpt lat="38.395606329045314" lon="16.082561593906984"><ele>270.0</ele><time>2026-04-12T14:56:59.998Z</time></trkpt><trkpt lat="38.3955266399087" lon="16.08261053558723"><ele>270.0</ele><time>2026-04-12T14:57:00.998Z</time></trkpt><trkpt lat="38.395460216746415" lon="16.082680008693476"><ele>270.0</ele><time>2026-04-12T14:57:01.998Z</time></trkpt><trkpt lat="38.39540070305644" lon="16.082758496092957"><ele>270.0</ele><time>2026-04-12T14:57:02.998Z</time></trkpt><trkpt lat="38.395348036456554" lon="16.082837764772083"><ele>269.3333333333333</ele><time>2026-04-12T14:57:03.998Z</time></trkpt><trkpt lat="38.39530015194212" lon="16.082924591107595"><ele>268.6666666666667</ele><time>2026-04-12T14:57:04.998Z</time></trkpt><trkpt lat="38.395246056263865" lon="16.08301537441538"><ele>268.0</ele><time>2026-04-12T14:57:05.998Z</time></trkpt><trkpt lat="38.395190221199535" lon="16.083105535203593"><ele>267.33333333333337</ele><time>2026-04-12T14:57:06.998Z</time></trkpt><trkpt lat="38.39513527476056" lon="16.08320138192189"><ele>266.6666666666667</ele><time>2026-04-12T14:57:07.998Z</time></trkpt><trkpt lat="38.395075045723445" lon="16.083291052213898"><ele>266.0</ele><time>2026-04-12T14:57:08.998Z</time></trkpt><trkpt lat="38.39502033876302" lon="16.08338460326322"><ele>267.5</ele><time>2026-04-12T14:57:09.998Z</time></trkpt><trkpt lat="38.39496593207612" lon="16.083478305989843"><ele>269.0</ele><time>2026-04-12T14:57:10.998Z</time></trkpt><trkpt lat="38.39490656030178" lon="16.083575886334135"><ele>270.5</ele><time>2026-04-12T14:57:11.999Z</time></trkpt><trkpt lat="38.39485703261237" lon="16.08366294338342"><ele>272.0</ele><time>2026-04-12T14:57:12.999Z</time></trkpt><trkpt lat="38.394804698462046" lon="16.083752588125318"><ele>273.5</ele><time>2026-04-12T14:57:13.999Z</time></trkpt><trkpt lat="38.39475146889079" lon="16.08383997836393"><ele>275.0</ele><time>2026-04-12T14:57:14.999Z</time></trkpt><trkpt lat="38.39470757308377" lon="16.0839223618827"><ele>274.5</ele><time>2026-04-12T14:57:15.999Z</time></trkpt><trkpt lat="38.39466223914894" lon="16.083987813217803"><ele>274.0</ele><time>2026-04-12T14:57:16.999Z</time></trkpt><trkpt lat="38.39459635358796" lon="16.08411403247397"><ele>273.5</ele><time>2026-04-12T14:57:18.999Z</time></trkpt><trkpt lat="38.394554796522435" lon="16.084183847780054"><ele>273.0</ele><time>2026-04-12T14:57:19.999Z</time></trkpt><trkpt lat="38.39451585000995" lon="16.084253830481003"><ele>272.5</ele><time>2026-04-12T14:57:20.999Z</time></trkpt><trkpt lat="38.39447472660351" lon="16.08432509013221"><ele>272.0</ele><time>2026-04-12T14:57:21.999Z</time></trkpt><trkpt lat="38.39443542174858" lon="16.084395746032765"><ele>273.1666666666667</ele><time>2026-04-12T14:57:22.999Z</time></trkpt><trkpt lat="38.394395860851546" lon="16.084462511637874"><ele>274.33333333333337</ele><time>2026-04-12T14:57:23.999Z</time></trkpt><trkpt lat="38.39435213859067" lon="16.08452859647027"><ele>275.5</ele><time>2026-04-12T14:57:24.999Z</time></trkpt><trkpt lat="38.39431004878987" lon="16.084595414310428"><ele>276.6666666666667</ele><time>2026-04-12T14:57:25.999Z</time></trkpt><trkpt lat="38.39426593939145" lon="16.08466843550162"><ele>277.8333333333333</ele><time>2026-04-12T14:57:26.999Z</time></trkpt><trkpt lat="38.39422294446433" lon="16.084733498652714"><ele>279.0</ele><time>2026-04-12T14:57:27.999Z</time></trkpt><trkpt lat="38.39414228520455" lon="16.084854279398954"><ele>279.0</ele><time>2026-04-12T14:57:29.999Z</time></trkpt><trkpt lat="38.394099558378564" lon="16.084926066432168"><ele>279.0</ele><time>2026-04-12T14:57:30.999Z</time></trkpt><trkpt lat="38.39406026825395" lon="16.08500480229655"><ele>279.0</ele><time>2026-04-12T14:57:31.999Z</time></trkpt><trkpt lat="38.39401207111136" lon="16.085074785863128"><ele>279.0</ele><time>2026-04-12T14:57:32.999Z</time></trkpt><trkpt lat="38.393939076685946" lon="16.08521446513414"><ele>279.0</ele><time>2026-04-12T14:57:34.999Z</time></trkpt><trkpt lat="38.393906771271396" lon="16.08530782604492"><ele>279.0</ele><time>2026-04-12T14:57:35.999Z</time></trkpt><trkpt lat="38.39388414636455" lon="16.085401627966196"><ele>280.1428571428571</ele><time>2026-04-12T14:57:36.999Z</time></trkpt><trkpt lat="38.393870869508596" lon="16.08549505881499"><ele>281.2857142857143</ele><time>2026-04-12T14:57:38Z</time></trkpt><trkpt lat="38.39385064666503" lon="16.085581166463204"><ele>282.42857142857144</ele><time>2026-04-12T14:57:39Z</time></trkpt><trkpt lat="38.39383668558626" lon="16.085661433629664"><ele>283.57142857142856</ele><time>2026-04-12T14:57:40Z</time></trkpt><trkpt lat="38.39382166760414" lon="16.085741896992033"><ele>284.7142857142857</ele><time>2026-04-12T14:57:41Z</time></trkpt><trkpt lat="38.39380491538331" lon="16.085826454430443"><ele>285.85714285714283</ele><time>2026-04-12T14:57:42Z</time></trkpt><trkpt lat="38.39378973108121" lon="16.08591372733401"><ele>287.0</ele><time>2026-04-12T14:57:43Z</time></trkpt><trkpt lat="38.39377689121621" lon="16.0860018196585"><ele>287.57142857142856</ele><time>2026-04-12T14:57:44Z</time></trkpt><trkpt lat="38.39376450891592" lon="16.086090203172922"><ele>288.1428571428571</ele><time>2026-04-12T14:57:45Z</time></trkpt><trkpt lat="38.3937453884731" lon="16.08618163548434"><ele>288.7142857142857</ele><time>2026-04-12T14:57:46Z</time></trkpt><trkpt lat="38.393731275348394" lon="16.0862737004959"><ele>289.2857142857143</ele><time>2026-04-12T14:57:47Z</time></trkpt><trkpt lat="38.39371294091597" lon="16.086365676623537"><ele>289.85714285714283</ele><time>2026-04-12T14:57:48Z</time></trkpt><trkpt lat="38.393685849005344" lon="16.0864511153211"><ele>290.42857142857144</ele><time>2026-04-12T14:57:49Z</time></trkpt><trkpt lat="38.39365132435094" lon="16.08652921940144"><ele>291.0</ele><time>2026-04-12T14:57:50Z</time></trkpt><trkpt lat="38.393612246348" lon="16.08660109773069"><ele>291.5</ele><time>2026-04-12T14:57:51Z</time></trkpt><trkpt lat="38.39355704336941" lon="16.086662051906014"><ele>292.0</ele><time>2026-04-12T14:57:52Z</time></trkpt><trkpt lat="38.393498177852805" lon="16.086713267697835"><ele>292.5</ele><time>2026-04-12T14:57:53Z</time></trkpt><trkpt lat="38.39343060936432" lon="16.086750876522437"><ele>293.0</ele><time>2026-04-12T14:57:54Z</time></trkpt><trkpt lat="38.39335866662193" lon="16.086796336961015"><ele>293.5</ele><time>2026-04-12T14:57:55Z</time></trkpt><trkpt lat="38.39328301746091" lon="16.0868442197509"><ele>294.0</ele><time>2026-04-12T14:57:56Z</time></trkpt><trkpt lat="38.39320267116499" lon="16.086894137879614"><ele>294.0</ele><time>2026-04-12T14:57:57Z</time></trkpt><trkpt lat="38.393117530974536" lon="16.086948659481546"><ele>294.0</ele><time>2026-04-12T14:57:58Z</time></trkpt><trkpt lat="38.39302664787987" lon="16.087001435495733"><ele>294.0</ele><time>2026-04-12T14:57:59Z</time></trkpt><trkpt lat="38.39293767499968" lon="16.087058913904464"><ele>294.0</ele><time>2026-04-12T14:58:00Z</time></trkpt><trkpt lat="38.3928447528136" lon="16.08711919212037"><ele>294.0</ele><time>2026-04-12T14:58:01Z</time></trkpt><trkpt lat="38.39274961403616" lon="16.087175001449836"><ele>296.5</ele><time>2026-04-12T14:58:02Z</time></trkpt><trkpt lat="38.39265188316752" lon="16.087233849053703"><ele>299.0</ele><time>2026-04-12T14:58:03Z</time></trkpt><trkpt lat="38.39255320315246" lon="16.08730188999912"><ele>301.5</ele><time>2026-04-12T14:58:04Z</time></trkpt><trkpt lat="38.392451115667086" lon="16.087363638904158"><ele>304.0</ele><time>2026-04-12T14:58:05Z</time></trkpt><trkpt lat="38.39234472645098" lon="16.087431056936087"><ele>303.75</ele><time>2026-04-12T14:58:06Z</time></trkpt><trkpt lat="38.39223430469666" lon="16.087500656511434"><ele>303.5</ele><time>2026-04-12T14:58:07Z</time></trkpt><trkpt lat="38.3921235756744" lon="16.087574195482567"><ele>303.25</ele><time>2026-04-12T14:58:08Z</time></trkpt><trkpt lat="38.39200818741007" lon="16.087648496596824"><ele>303.0</ele><time>2026-04-12T14:58:09Z</time></trkpt><trkpt lat="38.391891663233906" lon="16.087720839029203"><ele>303.0</ele><time>2026-04-12T14:58:10Z</time></trkpt><trkpt lat="38.39177398259028" lon="16.087794875709726"><ele>303.0</ele><time>2026-04-12T14:58:11Z</time></trkpt><trkpt lat="38.391646177850525" lon="16.08787538123601"><ele>303.0</ele><time>2026-04-12T14:58:12Z</time></trkpt><trkpt lat="38.39151604016853" lon="16.087963118617616"><ele>303.0</ele><time>2026-04-12T14:58:13Z</time></trkpt><trkpt lat="38.39138512591361" lon="16.08804797974101"><ele>303.5</ele><time>2026-04-12T14:58:14Z</time></trkpt><trkpt lat="38.39125239858287" lon="16.088127856000373"><ele>304.0</ele><time>2026-04-12T14:58:15Z</time></trkpt><trkpt lat="38.39112568057106" lon="16.088207967960543"><ele>304.5</ele><time>2026-04-12T14:58:16Z</time></trkpt><trkpt lat="38.391008211159985" lon="16.088287750498356"><ele>305.0</ele><time>2026-04-12T14:58:17Z</time></trkpt><trkpt lat="38.39089717673223" lon="16.088366698555365"><ele>306.25</ele><time>2026-04-12T14:58:18Z</time></trkpt><trkpt lat="38.390788803111256" lon="16.088446396228278"><ele>307.5</ele><time>2026-04-12T14:58:19Z</time></trkpt><trkpt lat="38.3906900023914" lon="16.088532449059674"><ele>308.75</ele><time>2026-04-12T14:58:20Z</time></trkpt><trkpt lat="38.3906068011533" lon="16.088636028976588"><ele>310.0</ele><time>2026-04-12T14:58:21Z</time></trkpt><trkpt lat="38.39054555857786" lon="16.088754571685506"><ele>310.4</ele><time>2026-04-12T14:58:22Z</time></trkpt><trkpt lat="38.39050321893315" lon="16.088872626951627"><ele>310.8</ele><time>2026-04-12T14:58:23Z</time></trkpt><trkpt lat="38.39048215706498" lon="16.088995128418574"><ele>311.2</ele><time>2026-04-12T14:58:24Z</time></trkpt><trkpt lat="38.39046043195973" lon="16.08911031885217"><ele>311.6</ele><time>2026-04-12T14:58:25Z</time></trkpt><trkpt lat="38.39044630877244" lon="16.089225326466128"><ele>312.0</ele><time>2026-04-12T14:58:26Z</time></trkpt><trkpt lat="38.390440486500275" lon="16.089343325888642"><ele>312.0</ele><time>2026-04-12T14:58:27Z</time></trkpt><trkpt lat="38.390433762774606" lon="16.089466771091566"><ele>312.0</ele><time>2026-04-12T14:58:28Z</time></trkpt><trkpt lat="38.390428661324385" lon="16.089602509794368"><ele>312.0</ele><time>2026-04-12T14:58:29.001Z</time></trkpt><trkpt lat="38.39042486344258" lon="16.089743231522455"><ele>312.0</ele><time>2026-04-12T14:58:30.001Z</time></trkpt><trkpt lat="38.390429555397645" lon="16.089895225381408"><ele>312.0</ele><time>2026-04-12T14:58:31.001Z</time></trkpt><trkpt lat="38.39044833805929" lon="16.090048794820486"><ele>313.5</ele><time>2026-04-12T14:58:32.001Z</time></trkpt><trkpt lat="38.39047415503929" lon="16.090197301587096"><ele>315.0</ele><time>2026-04-12T14:58:33.001Z</time></trkpt><trkpt lat="38.390522090341555" lon="16.09034050341351"><ele>316.5</ele><time>2026-04-12T14:58:34.001Z</time></trkpt><trkpt lat="38.39054900899037" lon="16.09048838372735"><ele>318.0</ele><time>2026-04-12T14:58:35.001Z</time></trkpt><trkpt lat="38.39056925795683" lon="16.090647374305227"><ele>318.4</ele><time>2026-04-12T14:58:36.001Z</time></trkpt><trkpt lat="38.39059295724337" lon="16.090793591803617"><ele>318.8</ele><time>2026-04-12T14:58:37.001Z</time></trkpt><trkpt lat="38.39060923869276" lon="16.090929345644206"><ele>319.2</ele><time>2026-04-12T14:58:38.001Z</time></trkpt><trkpt lat="38.39062451744654" lon="16.091048701207708"><ele>319.6</ele><time>2026-04-12T14:58:39.001Z</time></trkpt><trkpt lat="38.390640856446275" lon="16.091158078944314"><ele>320.0</ele><time>2026-04-12T14:58:40.001Z</time></trkpt><trkpt lat="38.39065700534679" lon="16.09126658415612"><ele>320.0</ele><time>2026-04-12T14:58:41.001Z</time></trkpt><trkpt lat="38.39067476641544" lon="16.09137433575178"><ele>320.0</ele><time>2026-04-12T14:58:42.001Z</time></trkpt><trkpt lat="38.390692012854934" lon="16.091485004810878"><ele>320.0</ele><time>2026-04-12T14:58:43.001Z</time></trkpt><trkpt lat="38.3907113114173" lon="16.091597028799182"><ele>320.0</ele><time>2026-04-12T14:58:44.001Z</time></trkpt><trkpt lat="38.39073847936288" lon="16.0917082139368"><ele>320.0</ele><time>2026-04-12T14:58:45.001Z</time></trkpt><trkpt lat="38.39075757658986" lon="16.091828057843472"><ele>320.6666666666667</ele><time>2026-04-12T14:58:46.001Z</time></trkpt><trkpt lat="38.390778685802964" lon="16.091933454345696"><ele>321.33333333333337</ele><time>2026-04-12T14:58:47.001Z</time></trkpt><trkpt lat="38.3908053949996" lon="16.092038942972646"><ele>322.0</ele><time>2026-04-12T14:58:48.001Z</time></trkpt><trkpt lat="38.39082872030756" lon="16.092141211165824"><ele>322.6666666666667</ele><time>2026-04-12T14:58:49.001Z</time></trkpt><trkpt lat="38.39085732031565" lon="16.092240392789705"><ele>323.3333333333333</ele><time>2026-04-12T14:58:50.001Z</time></trkpt><trkpt lat="38.390882704249734" lon="16.092345577509757"><ele>324.0</ele><time>2026-04-12T14:58:51.001Z</time></trkpt><trkpt lat="38.390934855097186" lon="16.092441617406614"><ele>324.6</ele><time>2026-04-12T14:58:52.001Z</time></trkpt><trkpt lat="38.39098973098258" lon="16.09253681718348"><ele>325.2</ele><time>2026-04-12T14:58:53.001Z</time></trkpt><trkpt lat="38.39105214699955" lon="16.092633295315167"><ele>325.8</ele><time>2026-04-12T14:58:54.001Z</time></trkpt><trkpt lat="38.39112583049935" lon="16.09271897129104"><ele>326.40000000000003</ele><time>2026-04-12T14:58:55.001Z</time></trkpt><trkpt lat="38.391204855155685" lon="16.09279756183501"><ele>327.0</ele><time>2026-04-12T14:58:55.997Z</time></trkpt><trkpt lat="38.391290909081285" lon="16.092873288424837"><ele>327.20000000000005</ele><time>2026-04-12T14:58:56.997Z</time></trkpt><trkpt lat="38.39137611217995" lon="16.09295406050539"><ele>327.4</ele><time>2026-04-12T14:58:57.997Z</time></trkpt><trkpt lat="38.39146108064598" lon="16.093035045791005"><ele>327.6</ele><time>2026-04-12T14:58:58.997Z</time></trkpt><trkpt lat="38.39154775178008" lon="16.093113319277315"><ele>327.79999999999995</ele><time>2026-04-12T14:58:59.997Z</time></trkpt><trkpt lat="38.39163710946722" lon="16.093195659427618"><ele>328.0</ele><time>2026-04-12T14:59:00.997Z</time></trkpt><trkpt lat="38.39171976448658" lon="16.09328001836691"><ele>328.79999999999995</ele><time>2026-04-12T14:59:01.997Z</time></trkpt><trkpt lat="38.39180194482176" lon="16.0933602762398"><ele>329.6</ele><time>2026-04-12T14:59:02.997Z</time></trkpt><trkpt lat="38.391877741023535" lon="16.093438930071603"><ele>330.4</ele><time>2026-04-12T14:59:03.997Z</time></trkpt><trkpt lat="38.391948359074306" lon="16.093509359062395"><ele>331.20000000000005</ele><time>2026-04-12T14:59:04.997Z</time></trkpt><trkpt lat="38.392005462053504" lon="16.09359000963736"><ele>332.0</ele><time>2026-04-12T14:59:05.997Z</time></trkpt><trkpt lat="38.39205317254217" lon="16.093674286564983"><ele>332.0</ele><time>2026-04-12T14:59:06.997Z</time></trkpt><trkpt lat="38.3920864792432" lon="16.093771219884147"><ele>332.0</ele><time>2026-04-12T14:59:07.997Z</time></trkpt><trkpt lat="38.39211616990563" lon="16.093860960092144"><ele>332.0</ele><time>2026-04-12T14:59:08.997Z</time></trkpt><trkpt lat="38.39213869488591" lon="16.093956867616747"><ele>332.0</ele><time>2026-04-12T14:59:09.998Z</time></trkpt><trkpt lat="38.39215833402057" lon="16.09403554381851"><ele>332.0</ele><time>2026-04-12T14:59:10.998Z</time></trkpt><trkpt lat="38.39216649718823" lon="16.094118660809713"><ele>332.0</ele><time>2026-04-12T14:59:11.998Z</time></trkpt><trkpt lat="38.39212169309516" lon="16.094259433350796"><ele>332.6666666666667</ele><time>2026-04-12T14:59:13.998Z</time></trkpt><trkpt lat="38.39206352064482" lon="16.094325384995418"><ele>333.33333333333337</ele><time>2026-04-12T14:59:14.998Z</time></trkpt><trkpt lat="38.39200927400179" lon="16.094387036343747"><ele>334.0</ele><time>2026-04-12T14:59:15.998Z</time></trkpt><trkpt lat="38.39195889834814" lon="16.094465803889694"><ele>334.6666666666667</ele><time>2026-04-12T14:59:16.998Z</time></trkpt><trkpt lat="38.39190611716825" lon="16.09456179875508"><ele>335.3333333333333</ele><time>2026-04-12T14:59:17.998Z</time></trkpt><trkpt lat="38.39186376167412" lon="16.094672878718143"><ele>336.0</ele><time>2026-04-12T14:59:18.998Z</time></trkpt><trkpt lat="38.39183374453647" lon="16.094799470593095"><ele>336.8</ele><time>2026-04-12T14:59:19.998Z</time></trkpt><trkpt lat="38.39180151802463" lon="16.09492901246483"><ele>337.6</ele><time>2026-04-12T14:59:20.998Z</time></trkpt><trkpt lat="38.39175942446272" lon="16.095059252232485"><ele>338.4</ele><time>2026-04-12T14:59:21.998Z</time></trkpt><trkpt lat="38.39171003100641" lon="16.09519193373616"><ele>339.2</ele><time>2026-04-12T14:59:22.999Z</time></trkpt><trkpt lat="38.39165741590479" lon="16.095314023390703"><ele>340.0</ele><time>2026-04-12T14:59:23.999Z</time></trkpt><trkpt lat="38.391615502315936" lon="16.095425476368412"><ele>340.0</ele><time>2026-04-12T14:59:24.999Z</time></trkpt><trkpt lat="38.39157130286843" lon="16.095520865117674"><ele>340.0</ele><time>2026-04-12T14:59:25.999Z</time></trkpt><trkpt lat="38.39151443684822" lon="16.095593838743348"><ele>340.0</ele><time>2026-04-12T14:59:26.999Z</time></trkpt><trkpt lat="38.39144335540893" lon="16.09564208847725"><ele>340.0</ele><time>2026-04-12T14:59:27.999Z</time></trkpt><trkpt lat="38.39136399816918" lon="16.09564842611899"><ele>340.0</ele><time>2026-04-12T14:59:28.999Z</time></trkpt><trkpt lat="38.391277977421055" lon="16.09563542697039"><ele>340.0</ele><time>2026-04-12T14:59:29.999Z</time></trkpt><trkpt lat="38.39118522692227" lon="16.095610259522925"><ele>341.75</ele><time>2026-04-12T14:59:30.999Z</time></trkpt><trkpt lat="38.39108191217501" lon="16.095577070496304"><ele>343.5</ele><time>2026-04-12T14:59:31.999Z</time></trkpt><trkpt lat="38.39095855871687" lon="16.095535372189502"><ele>345.25</ele><time>2026-04-12T14:59:32.999Z</time></trkpt><trkpt lat="38.3908320004696" lon="16.095498457373065"><ele>347.0</ele><time>2026-04-12T14:59:33.999Z</time></trkpt><trkpt lat="38.39072234819184" lon="16.095477891070416"><ele>347.0</ele><time>2026-04-12T14:59:34.999Z</time></trkpt><trkpt lat="38.39062205269078" lon="16.095488217008093"><ele>347.0</ele><time>2026-04-12T14:59:35.999Z</time></trkpt><trkpt lat="38.39051728591788" lon="16.09553758497237"><ele>347.0</ele><time>2026-04-12T14:59:36.999Z</time></trkpt><trkpt lat="38.390446128345914" lon="16.095594912935145"><ele>347.0</ele><time>2026-04-12T14:59:37.999Z</time></trkpt><trkpt lat="38.39037805500913" lon="16.095676073662812"><ele>347.0</ele><time>2026-04-12T14:59:38.999Z</time></trkpt><trkpt lat="38.39031392961734" lon="16.095765331766934"><ele>347.6</ele><time>2026-04-12T14:59:39.999Z</time></trkpt><trkpt lat="38.39026076046648" lon="16.09586262460234"><ele>348.20000000000005</ele><time>2026-04-12T14:59:40.999Z</time></trkpt><trkpt lat="38.39021392038532" lon="16.09596670564472"><ele>348.8</ele><time>2026-04-12T14:59:41.999Z</time></trkpt><trkpt lat="38.390175380209435" lon="16.096072037271583"><ele>349.4</ele><time>2026-04-12T14:59:42.999Z</time></trkpt><trkpt lat="38.39014067011953" lon="16.096173980018715"><ele>350.0</ele><time>2026-04-12T14:59:43.999Z</time></trkpt><trkpt lat="38.39010582097669" lon="16.096275096326078"><ele>350.0</ele><time>2026-04-12T14:59:44.999Z</time></trkpt><trkpt lat="38.3900693362237" lon="16.09637304801685"><ele>350.0</ele><time>2026-04-12T14:59:46Z</time></trkpt><trkpt lat="38.39004320563764" lon="16.096461043492475"><ele>350.0</ele><time>2026-04-12T14:59:47Z</time></trkpt><trkpt lat="38.39001325985649" lon="16.096571502077612"><ele>350.0</ele><time>2026-04-12T14:59:49Z</time></trkpt><trkpt lat="38.38998882100179" lon="16.09666847304354"><ele>350.0</ele><time>2026-04-12T14:59:51Z</time></trkpt><trkpt lat="38.389954559985846" lon="16.096778212616304"><ele>350.0</ele><time>2026-04-12T14:59:53Z</time></trkpt><trkpt lat="38.389919215539194" lon="16.096876370071055"><ele>351.8</ele><time>2026-04-12T14:59:55Z</time></trkpt><trkpt lat="38.389880469799266" lon="16.097004856720204"><ele>353.6</ele><time>2026-04-12T14:59:57Z</time></trkpt><trkpt lat="38.389845555751066" lon="16.097135202422837"><ele>355.4</ele><time>2026-04-12T14:59:59Z</time></trkpt><trkpt lat="38.38977952804565" lon="16.097255269261165"><ele>357.2</ele><time>2026-04-12T15:00:01Z</time></trkpt><trkpt lat="38.389677708006424" lon="16.09732092859992"><ele>359.0</ele><time>2026-04-12T15:00:03Z</time></trkpt><trkpt lat="38.38961662789737" lon="16.097288006865703"><ele>359.6666666666667</ele><time>2026-04-12T15:00:04Z</time></trkpt><trkpt lat="38.38949607650015" lon="16.09730299261948"><ele>360.33333333333337</ele><time>2026-04-12T15:00:06Z</time></trkpt><trkpt lat="38.38942864335789" lon="16.09729541291257"><ele>361.0</ele><time>2026-04-12T15:00:07Z</time></trkpt><trkpt lat="38.38935939355178" lon="16.097299385643154"><ele>361.6666666666667</ele><time>2026-04-12T15:00:08Z</time></trkpt><trkpt lat="38.38929289966356" lon="16.097318946252386"><ele>362.3333333333333</ele><time>2026-04-12T15:00:09Z</time></trkpt><trkpt lat="38.38923114210223" lon="16.097359592311406"><ele>363.0</ele><time>2026-04-12T15:00:10Z</time></trkpt><trkpt lat="38.38918934863287" lon="16.09742127274296"><ele>364.5</ele><time>2026-04-12T15:00:11Z</time></trkpt><trkpt lat="38.389179710651575" lon="16.097508258446013"><ele>366.0</ele><time>2026-04-12T15:00:12Z</time></trkpt><trkpt lat="38.38917778221214" lon="16.09759897402346"><ele>367.5</ele><time>2026-04-12T15:00:13Z</time></trkpt><trkpt lat="38.389281054575186" lon="16.09773242720856"><ele>369.0</ele><time>2026-04-12T15:00:15Z</time></trkpt><trkpt lat="38.38935460415015" lon="16.09777081641211"><ele>370.5</ele><time>2026-04-12T15:00:16Z</time></trkpt><trkpt lat="38.389433514063484" lon="16.09780055831548"><ele>372.0</ele><time>2026-04-12T15:00:17Z</time></trkpt><trkpt lat="38.38951174955985" lon="16.097825168220115"><ele>372.0</ele><time>2026-04-12T15:00:18Z</time></trkpt><trkpt lat="38.38959391601137" lon="16.09784691947008"><ele>372.0</ele><time>2026-04-12T15:00:19Z</time></trkpt><trkpt lat="38.389672410438024" lon="16.09787648602404"><ele>372.0</ele><time>2026-04-12T15:00:20Z</time></trkpt><trkpt lat="38.389749822341614" lon="16.09790765609291"><ele>372.0</ele><time>2026-04-12T15:00:21.001Z</time></trkpt><trkpt lat="38.389822783634294" lon="16.097933316142786"><ele>372.0</ele><time>2026-04-12T15:00:22.001Z</time></trkpt><trkpt lat="38.389897135887225" lon="16.09797431940161"><ele>372.0</ele><time>2026-04-12T15:00:23.001Z</time></trkpt><trkpt lat="38.3899685011965" lon="16.09802544051775"><ele>372.5</ele><time>2026-04-12T15:00:24.001Z</time></trkpt><trkpt lat="38.39002581400801" lon="16.098091969580505"><ele>373.0</ele><time>2026-04-12T15:00:25.001Z</time></trkpt><trkpt lat="38.390074811108846" lon="16.098162217187017"><ele>373.5</ele><time>2026-04-12T15:00:26.001Z</time></trkpt><trkpt lat="38.39010374954459" lon="16.098253855752365"><ele>374.0</ele><time>2026-04-12T15:00:27.001Z</time></trkpt><trkpt lat="38.39009250811325" lon="16.098410292189755"><ele>374.5</ele><time>2026-04-12T15:00:29.001Z</time></trkpt><trkpt lat="38.390057883545424" lon="16.098481690781192"><ele>375.0</ele><time>2026-04-12T15:00:30.001Z</time></trkpt><trkpt lat="38.38999908596335" lon="16.098550344468013"><ele>375.0</ele><time>2026-04-12T15:00:31.001Z</time></trkpt><trkpt lat="38.389924115661834" lon="16.098588493830015"><ele>375.0</ele><time>2026-04-12T15:00:32.001Z</time></trkpt><trkpt lat="38.389873795668414" lon="16.09865209554984"><ele>375.0</ele><time>2026-04-12T15:00:33.001Z</time></trkpt><trkpt lat="38.38980099200968" lon="16.098683984263225"><ele>375.0</ele><time>2026-04-12T15:00:34.001Z</time></trkpt><trkpt lat="38.38974299971408" lon="16.098742070403034"><ele>375.0</ele><time>2026-04-12T15:00:35.001Z</time></trkpt><trkpt lat="38.389691552184196" lon="16.09883319046331"><ele>375.0</ele><time>2026-04-12T15:00:36.001Z</time></trkpt><trkpt lat="38.38964754028181" lon="16.0989282519138"><ele>375.3333333333333</ele><time>2026-04-12T15:00:37.001Z</time></trkpt><trkpt lat="38.389618375362794" lon="16.099033033254102"><ele>375.6666666666667</ele><time>2026-04-12T15:00:38.001Z</time></trkpt><trkpt lat="38.3896136747708" lon="16.099141406197116"><ele>376.0</ele><time>2026-04-12T15:00:39.001Z</time></trkpt><trkpt lat="38.38962567382725" lon="16.099252577014223"><ele>376.33333333333337</ele><time>2026-04-12T15:00:40.001Z</time></trkpt><trkpt lat="38.3896379824173" lon="16.09936511829936"><ele>376.6666666666667</ele><time>2026-04-12T15:00:41.001Z</time></trkpt><trkpt lat="38.38965352191029" lon="16.099481431428096"><ele>377.0</ele><time>2026-04-12T15:00:42.001Z</time></trkpt><trkpt lat="38.38966515263577" lon="16.099600862789618"><ele>377.1666666666667</ele><time>2026-04-12T15:00:43.001Z</time></trkpt><trkpt lat="38.38967238231432" lon="16.099716482054298"><ele>377.33333333333337</ele><time>2026-04-12T15:00:44.001Z</time></trkpt><trkpt lat="38.38968100941705" lon="16.099828686788914"><ele>377.5</ele><time>2026-04-12T15:00:45.001Z</time></trkpt><trkpt lat="38.38969622521561" lon="16.099936478150653"><ele>377.6666666666667</ele><time>2026-04-12T15:00:46.001Z</time></trkpt><trkpt lat="38.38971308910139" lon="16.10003318018925"><ele>377.8333333333333</ele><time>2026-04-12T15:00:47.001Z</time></trkpt><trkpt lat="38.38972344955197" lon="16.100114523226082"><ele>378.0</ele><time>2026-04-12T15:00:48.001Z</time></trkpt><trkpt lat="38.38970890702615" lon="16.100233753345723"><ele>379.57142857142856</ele><time>2026-04-12T15:00:50.001Z</time></trkpt><trkpt lat="38.38965574582512" lon="16.100325639083692"><ele>381.1428571428571</ele><time>2026-04-12T15:00:52.001Z</time></trkpt><trkpt lat="38.389587238664944" lon="16.10032437684387"><ele>382.7142857142857</ele><time>2026-04-12T15:00:53.001Z</time></trkpt><trkpt lat="38.38952391561474" lon="16.100314625398223"><ele>384.2857142857143</ele><time>2026-04-12T15:00:54.001Z</time></trkpt><trkpt lat="38.389471105578636" lon="16.100270293168418"><ele>385.85714285714283</ele><time>2026-04-12T15:00:55.001Z</time></trkpt><trkpt lat="38.38941555848839" lon="16.100228432364272"><ele>387.42857142857144</ele><time>2026-04-12T15:00:56.001Z</time></trkpt><trkpt lat="38.389347217558296" lon="16.100201602456124"><ele>389.0</ele><time>2026-04-12T15:00:57.001Z</time></trkpt><trkpt lat="38.389288613916484" lon="16.100153700381924"><ele>388.99999999999994</ele><time>2026-04-12T15:00:58.001Z</time></trkpt><trkpt lat="38.38922759124225" lon="16.10011252591322"><ele>389.0</ele><time>2026-04-12T15:00:59.001Z</time></trkpt><trkpt lat="38.38917269287542" lon="16.100052293477436"><ele>389.0</ele><time>2026-04-12T15:01:00.002Z</time></trkpt><trkpt lat="38.38909765277604" lon="16.1000374860498"><ele>389.0</ele><time>2026-04-12T15:01:01.002Z</time></trkpt><trkpt lat="38.38901964719357" lon="16.100013982143963"><ele>388.99999999999994</ele><time>2026-04-12T15:01:01.999Z</time></trkpt><trkpt lat="38.38893463382977" lon="16.099997678309606"><ele>389.0</ele><time>2026-04-12T15:01:02.999Z</time></trkpt><trkpt lat="38.38885265642078" lon="16.099956428461926"><ele>390.14285714285717</ele><time>2026-04-12T15:01:03.999Z</time></trkpt><trkpt lat="38.388778793495376" lon="16.099925341607886"><ele>391.2857142857143</ele><time>2026-04-12T15:01:04.999Z</time></trkpt><trkpt lat="38.388719227355715" lon="16.099875143996055"><ele>392.42857142857144</ele><time>2026-04-12T15:01:05.999Z</time></trkpt><trkpt lat="38.38867704501106" lon="16.099804477478635"><ele>393.57142857142856</ele><time>2026-04-12T15:01:06.999Z</time></trkpt><trkpt lat="38.3886486711282" lon="16.099732222063672"><ele>394.71428571428567</ele><time>2026-04-12T15:01:07.999Z</time></trkpt><trkpt lat="38.388620772260694" lon="16.09965075018963"><ele>395.85714285714283</ele><time>2026-04-12T15:01:08.999Z</time></trkpt><trkpt lat="38.38859635080548" lon="16.099572845007497"><ele>397.0</ele><time>2026-04-12T15:01:09.999Z</time></trkpt><trkpt lat="38.38857070921926" lon="16.099491594224023"><ele>397.00000000000006</ele><time>2026-04-12T15:01:10.999Z</time></trkpt><trkpt lat="38.388540872297355" lon="16.099403907688"><ele>397.0</ele><time>2026-04-12T15:01:11.999Z</time></trkpt><trkpt lat="38.3885087031686" lon="16.099315478438005"><ele>397.0</ele><time>2026-04-12T15:01:12.999Z</time></trkpt><trkpt lat="38.38847539267333" lon="16.099225243449713"><ele>397.0</ele><time>2026-04-12T15:01:13.999Z</time></trkpt><trkpt lat="38.38844308049502" lon="16.099147268686714"><ele>397.00000000000006</ele><time>2026-04-12T15:01:14.999Z</time></trkpt><trkpt lat="38.38840866936339" lon="16.0990739380284"><ele>397.0</ele><time>2026-04-12T15:01:15.999Z</time></trkpt><trkpt lat="38.38832859762061" lon="16.098979144409242"><ele>397.0</ele><time>2026-04-12T15:01:17.999Z</time></trkpt><trkpt lat="38.38823715587143" lon="16.09894447061362"><ele>397.0</ele><time>2026-04-12T15:01:19.999Z</time></trkpt><trkpt lat="38.38815896112507" lon="16.099044595953124"><ele>397.0</ele><time>2026-04-12T15:01:22Z</time></trkpt><trkpt lat="38.38818599775253" lon="16.099204300737682"><ele>397.0</ele><time>2026-04-12T15:01:24Z</time></trkpt><trkpt lat="38.38822020925032" lon="16.09927821809062"><ele>397.0</ele><time>2026-04-12T15:01:25Z</time></trkpt><trkpt lat="38.38825650661651" lon="16.099361302206226"><ele>397.00000000000006</ele><time>2026-04-12T15:01:26Z</time></trkpt><trkpt lat="38.38829901986159" lon="16.09944806296406"><ele>397.0</ele><time>2026-04-12T15:01:27Z</time></trkpt><trkpt lat="38.38833429232144" lon="16.099538919870458"><ele>397.0</ele><time>2026-04-12T15:01:28Z</time></trkpt><trkpt lat="38.38836156513412" lon="16.09963760505719"><ele>397.0</ele><time>2026-04-12T15:01:29Z</time></trkpt><trkpt lat="38.38838460318374" lon="16.099740461648988"><ele>397.00000000000006</ele><time>2026-04-12T15:01:30Z</time></trkpt><trkpt lat="38.3884004591659" lon="16.09984443628217"><ele>397.0</ele><time>2026-04-12T15:01:31Z</time></trkpt><trkpt lat="38.388400490550644" lon="16.099949504807192"><ele>398.40000000000003</ele><time>2026-04-12T15:01:32Z</time></trkpt><trkpt lat="38.38839314454986" lon="16.10005777837237"><ele>399.8</ele><time>2026-04-12T15:01:33Z</time></trkpt><trkpt lat="38.38837640077718" lon="16.10017064969585"><ele>401.2</ele><time>2026-04-12T15:01:34Z</time></trkpt><trkpt lat="38.388354675059105" lon="16.10028776902574"><ele>402.6</ele><time>2026-04-12T15:01:35Z</time></trkpt><trkpt lat="38.388334591029405" lon="16.100408101764966"><ele>404.0</ele><time>2026-04-12T15:01:36Z</time></trkpt><trkpt lat="38.388328386058696" lon="16.100527808774935"><ele>404.0</ele><time>2026-04-12T15:01:37Z</time></trkpt><trkpt lat="38.38831177313498" lon="16.1006549661724"><ele>404.0</ele><time>2026-04-12T15:01:38Z</time></trkpt><trkpt lat="38.38829253684825" lon="16.100775038686926"><ele>404.0</ele><time>2026-04-12T15:01:39Z</time></trkpt><trkpt lat="38.38827542921094" lon="16.10089848176544"><ele>404.0</ele><time>2026-04-12T15:01:40Z</time></trkpt><trkpt lat="38.388263411527234" lon="16.101019855409664"><ele>404.0</ele><time>2026-04-12T15:01:41Z</time></trkpt><trkpt lat="38.388251365150836" lon="16.101140811009188"><ele>405.6</ele><time>2026-04-12T15:01:42Z</time></trkpt><trkpt lat="38.38823498749291" lon="16.101265621009738"><ele>407.2</ele><time>2026-04-12T15:01:43Z</time></trkpt><trkpt lat="38.388219351186414" lon="16.101389557909123"><ele>408.8</ele><time>2026-04-12T15:01:44Z</time></trkpt><trkpt lat="38.388203422222865" lon="16.1015136931534"><ele>410.40000000000003</ele><time>2026-04-12T15:01:45Z</time></trkpt><trkpt lat="38.38818838636993" lon="16.101645448358937"><ele>412.0</ele><time>2026-04-12T15:01:46Z</time></trkpt><trkpt lat="38.38817144723847" lon="16.101774977948068"><ele>413.0</ele><time>2026-04-12T15:01:47Z</time></trkpt><trkpt lat="38.3881553224616" lon="16.101903913404634"><ele>414.0</ele><time>2026-04-12T15:01:48Z</time></trkpt><trkpt lat="38.388143552673185" lon="16.102032962558845"><ele>415.0</ele><time>2026-04-12T15:01:49.001Z</time></trkpt><trkpt lat="38.38812705231649" lon="16.102155402378365"><ele>416.0</ele><time>2026-04-12T15:01:50.001Z</time></trkpt><trkpt lat="38.38811528709208" lon="16.10228172204637"><ele>417.0</ele><time>2026-04-12T15:01:51.001Z</time></trkpt><trkpt lat="38.388101987385475" lon="16.102404463875335"><ele>417.3333333333333</ele><time>2026-04-12T15:01:52.001Z</time></trkpt><trkpt lat="38.38809478128925" lon="16.102525360754875"><ele>417.66666666666663</ele><time>2026-04-12T15:01:53.001Z</time></trkpt><trkpt lat="38.388083035556285" lon="16.102639012716878"><ele>418.0</ele><time>2026-04-12T15:01:54.001Z</time></trkpt><trkpt lat="38.38807084059663" lon="16.10274238263962"><ele>418.3333333333333</ele><time>2026-04-12T15:01:55.001Z</time></trkpt><trkpt lat="38.388061257106976" lon="16.102823296743733"><ele>418.66666666666663</ele><time>2026-04-12T15:01:56.001Z</time></trkpt><trkpt lat="38.38805238151914" lon="16.102947290463636"><ele>419.0</ele><time>2026-04-12T15:01:58.001Z</time></trkpt><trkpt lat="38.38804933227126" lon="16.10303701295641"><ele>419.0</ele><time>2026-04-12T15:02:00.001Z</time></trkpt><trkpt lat="38.388019212429334" lon="16.103132828883172"><ele>419.0</ele><time>2026-04-12T15:02:02.001Z</time></trkpt><trkpt lat="38.38793789675683" lon="16.10318478117765"><ele>419.0</ele><time>2026-04-12T15:02:04.001Z</time></trkpt><trkpt lat="38.38787353445224" lon="16.10311280824127"><ele>419.0</ele><time>2026-04-12T15:02:05.001Z</time></trkpt><trkpt lat="38.3878550580024" lon="16.103035066750564"><ele>419.0</ele><time>2026-04-12T15:02:06.001Z</time></trkpt><trkpt lat="38.38791808975516" lon="16.102871064332422"><ele>419.2</ele><time>2026-04-12T15:02:08.001Z</time></trkpt><trkpt lat="38.38793785475538" lon="16.10275810593303"><ele>419.4</ele><time>2026-04-12T15:02:09.001Z</time></trkpt><trkpt lat="38.38795418225065" lon="16.10263092179078"><ele>419.6</ele><time>2026-04-12T15:02:10.001Z</time></trkpt><trkpt lat="38.38798030120261" lon="16.102507177766178"><ele>419.8</ele><time>2026-04-12T15:02:11.001Z</time></trkpt><trkpt lat="38.387990805416116" lon="16.102378608513842"><ele>420.0</ele><time>2026-04-12T15:02:12.001Z</time></trkpt><trkpt lat="38.38798976513106" lon="16.10225591985927"><ele>420.0</ele><time>2026-04-12T15:02:13.001Z</time></trkpt><trkpt lat="38.38798022756607" lon="16.102158937515785"><ele>420.0</ele><time>2026-04-12T15:02:14.001Z</time></trkpt><trkpt lat="38.38790297117878" lon="16.10204928201054"><ele>420.0</ele><time>2026-04-12T15:02:16.001Z</time></trkpt><trkpt lat="38.387784096655366" lon="16.10206248047818"><ele>420.0</ele><time>2026-04-12T15:02:18.001Z</time></trkpt><trkpt lat="38.3877336849641" lon="16.102119089848397"><ele>420.0</ele><time>2026-04-12T15:02:19.001Z</time></trkpt><trkpt lat="38.38769639546457" lon="16.102201213988003"><ele>420.0</ele><time>2026-04-12T15:02:20.001Z</time></trkpt><trkpt lat="38.387669557793295" lon="16.102296185182137"><ele>420.0</ele><time>2026-04-12T15:02:21.001Z</time></trkpt><trkpt lat="38.387636754453325" lon="16.102399529521946"><ele>420.0</ele><time>2026-04-12T15:02:22.001Z</time></trkpt><trkpt lat="38.3875985883438" lon="16.102499337549677"><ele>420.0</ele><time>2026-04-12T15:02:23.002Z</time></trkpt><trkpt lat="38.38755809838393" lon="16.10260513609479"><ele>420.0</ele><time>2026-04-12T15:02:24.002Z</time></trkpt><trkpt lat="38.387515417948855" lon="16.102710582696407"><ele>420.0</ele><time>2026-04-12T15:02:25.002Z</time></trkpt><trkpt lat="38.387471891578436" lon="16.102815280069485"><ele>421.6666666666667</ele><time>2026-04-12T15:02:26.002Z</time></trkpt><trkpt lat="38.387428835883206" lon="16.102916672227195"><ele>423.33333333333337</ele><time>2026-04-12T15:02:27.002Z</time></trkpt><trkpt lat="38.38738752204838" lon="16.10301545198175"><ele>425.0</ele><time>2026-04-12T15:02:28.002Z</time></trkpt><trkpt lat="38.38735536244408" lon="16.103122757797745"><ele>426.6666666666667</ele><time>2026-04-12T15:02:29.002Z</time></trkpt><trkpt lat="38.38732475051143" lon="16.10323227748119"><ele>428.33333333333337</ele><time>2026-04-12T15:02:30.002Z</time></trkpt><trkpt lat="38.387291989370574" lon="16.103330802471174"><ele>430.0</ele><time>2026-04-12T15:02:31.002Z</time></trkpt><trkpt lat="38.38725859094196" lon="16.10341195508215"><ele>429.83333333333337</ele><time>2026-04-12T15:02:32.002Z</time></trkpt><trkpt lat="38.387219419295874" lon="16.103489492133395"><ele>429.6666666666667</ele><time>2026-04-12T15:02:33.002Z</time></trkpt><trkpt lat="38.387192217168455" lon="16.10357367042585"><ele>429.5</ele><time>2026-04-12T15:02:34.002Z</time></trkpt><trkpt lat="38.3871694660042" lon="16.103666409140082"><ele>429.33333333333337</ele><time>2026-04-12T15:02:35.002Z</time></trkpt><trkpt lat="38.38714035019985" lon="16.103762309345104"><ele>429.1666666666667</ele><time>2026-04-12T15:02:36.002Z</time></trkpt><trkpt lat="38.38711226845734" lon="16.10385610555987"><ele>429.0</ele><time>2026-04-12T15:02:37.002Z</time></trkpt><trkpt lat="38.38708787885738" lon="16.1039496436031"><ele>429.0</ele><time>2026-04-12T15:02:38.002Z</time></trkpt><trkpt lat="38.387064824651766" lon="16.10404363346544"><ele>429.0</ele><time>2026-04-12T15:02:39.002Z</time></trkpt><trkpt lat="38.38703670701247" lon="16.104135357487188"><ele>429.0</ele><time>2026-04-12T15:02:40.002Z</time></trkpt><trkpt lat="38.38698819893039" lon="16.104214278552625"><ele>429.0</ele><time>2026-04-12T15:02:41.002Z</time></trkpt><trkpt lat="38.386933577530925" lon="16.104300654440777"><ele>429.0</ele><time>2026-04-12T15:02:42.002Z</time></trkpt><trkpt lat="38.3868826535872" lon="16.104391293059788"><ele>429.0</ele><time>2026-04-12T15:02:43.002Z</time></trkpt><trkpt lat="38.386831538315015" lon="16.104486198778723"><ele>430.6666666666667</ele><time>2026-04-12T15:02:44.002Z</time></trkpt><trkpt lat="38.38678392472888" lon="16.104580023085475"><ele>432.33333333333337</ele><time>2026-04-12T15:02:45.002Z</time></trkpt><trkpt lat="38.38673175327673" lon="16.10467353290512"><ele>434.0</ele><time>2026-04-12T15:02:46.002Z</time></trkpt><trkpt lat="38.3866738874464" lon="16.10474930453422"><ele>435.6666666666667</ele><time>2026-04-12T15:02:47.002Z</time></trkpt><trkpt lat="38.38659725401081" lon="16.104794324547502"><ele>437.33333333333337</ele><time>2026-04-12T15:02:48.002Z</time></trkpt><trkpt lat="38.386507778561885" lon="16.10477578243852"><ele>439.0</ele><time>2026-04-12T15:02:49.002Z</time></trkpt><trkpt lat="38.38642153344721" lon="16.10478798747442"><ele>437.6</ele><time>2026-04-12T15:02:50.002Z</time></trkpt><trkpt lat="38.38633699701173" lon="16.104755832941606"><ele>436.2</ele><time>2026-04-12T15:02:51.002Z</time></trkpt><trkpt lat="38.38624710079916" lon="16.10474086508895"><ele>434.80000000000007</ele><time>2026-04-12T15:02:52.002Z</time></trkpt><trkpt lat="38.386160419333386" lon="16.10475337287095"><ele>433.40000000000003</ele><time>2026-04-12T15:02:53.002Z</time></trkpt><trkpt lat="38.38607525911396" lon="16.10479166278906"><ele>432.0</ele><time>2026-04-12T15:02:54.002Z</time></trkpt><trkpt lat="38.38599422785604" lon="16.104858733551843"><ele>435.6666666666667</ele><time>2026-04-12T15:02:55.002Z</time></trkpt><trkpt lat="38.385926036627495" lon="16.104943745803993"><ele>439.33333333333337</ele><time>2026-04-12T15:02:56.002Z</time></trkpt><trkpt lat="38.38585907761256" lon="16.105021458201033"><ele>443.0</ele><time>2026-04-12T15:02:57.002Z</time></trkpt><trkpt lat="38.38580766131216" lon="16.105121556746795"><ele>446.6666666666667</ele><time>2026-04-12T15:02:58.003Z</time></trkpt><trkpt lat="38.385758888569256" lon="16.10521897619139"><ele>450.33333333333337</ele><time>2026-04-12T15:02:59.003Z</time></trkpt><trkpt lat="38.385707121880955" lon="16.105291402429508"><ele>454.0</ele><time>2026-04-12T15:03:00.003Z</time></trkpt><trkpt lat="38.3856570641555" lon="16.105347458416627"><ele>454.00000000000006</ele><time>2026-04-12T15:03:01.003Z</time></trkpt><trkpt lat="38.385615614920326" lon="16.105409090843324"><ele>454.0</ele><time>2026-04-12T15:03:02.003Z</time></trkpt><trkpt lat="38.38558839210151" lon="16.105492598822217"><ele>454.0</ele><time>2026-04-12T15:03:03.003Z</time></trkpt><trkpt lat="38.38557838610843" lon="16.105593233906355"><ele>454.0</ele><time>2026-04-12T15:03:04.003Z</time></trkpt><trkpt lat="38.385571753986206" lon="16.105697536912352"><ele>454.00000000000006</ele><time>2026-04-12T15:03:05.003Z</time></trkpt><trkpt lat="38.385561559627234" lon="16.10580568987967"><ele>454.0</ele><time>2026-04-12T15:03:06.003Z</time></trkpt><trkpt lat="38.385550564169506" lon="16.105912865145143"><ele>455.1666666666667</ele><time>2026-04-12T15:03:07.003Z</time></trkpt><trkpt lat="38.38554683288498" lon="16.106015073380142"><ele>456.33333333333337</ele><time>2026-04-12T15:03:08Z</time></trkpt><trkpt lat="38.385553633423655" lon="16.10609727472297"><ele>457.5</ele><time>2026-04-12T15:03:09Z</time></trkpt><trkpt lat="38.38553697891105" lon="16.106196328878795"><ele>458.66666666666663</ele><time>2026-04-12T15:03:10Z</time></trkpt><trkpt lat="38.38550857690614" lon="16.10627525303935"><ele>459.8333333333333</ele><time>2026-04-12T15:03:11Z</time></trkpt><trkpt lat="38.385457538621836" lon="16.106415247991208"><ele>461.0</ele><time>2026-04-12T15:03:13Z</time></trkpt><trkpt lat="38.38543852401919" lon="16.106493113463266"><ele>461.0</ele><time>2026-04-12T15:03:14Z</time></trkpt><trkpt lat="38.38536665561051" lon="16.10660287616083"><ele>461.0</ele><time>2026-04-12T15:03:16Z</time></trkpt><trkpt lat="38.38524988736122" lon="16.106628921142715"><ele>461.0</ele><time>2026-04-12T15:03:18Z</time></trkpt><trkpt lat="38.38517992024319" lon="16.106601001751983"><ele>461.0</ele><time>2026-04-12T15:03:19Z</time></trkpt><trkpt lat="38.38512766361097" lon="16.10654468333304"><ele>461.0</ele><time>2026-04-12T15:03:20Z</time></trkpt><trkpt lat="38.38511135575623" lon="16.10643872220247"><ele>460.99999999999994</ele><time>2026-04-12T15:03:21Z</time></trkpt><trkpt lat="38.385110149952155" lon="16.10633550007005"><ele>461.0</ele><time>2026-04-12T15:03:22Z</time></trkpt><trkpt lat="38.38513132379694" lon="16.106242633564253"><ele>461.0</ele><time>2026-04-12T15:03:23Z</time></trkpt><trkpt lat="38.38514800114744" lon="16.106143588364887"><ele>461.0</ele><time>2026-04-12T15:03:24Z</time></trkpt><trkpt lat="38.38516455389623" lon="16.106021231844288"><ele>460.99999999999994</ele><time>2026-04-12T15:03:25.001Z</time></trkpt><trkpt lat="38.38516776984963" lon="16.10591115703896"><ele>461.0</ele><time>2026-04-12T15:03:26.001Z</time></trkpt><trkpt lat="38.385167244799085" lon="16.105799626283336"><ele>459.99999999999994</ele><time>2026-04-12T15:03:27.001Z</time></trkpt><trkpt lat="38.38514701011699" lon="16.10568653512982"><ele>459.0</ele><time>2026-04-12T15:03:28.001Z</time></trkpt><trkpt lat="38.385125306171666" lon="16.105588802871416"><ele>458.0</ele><time>2026-04-12T15:03:29.001Z</time></trkpt><trkpt lat="38.38507002080208" lon="16.10551606643078"><ele>457.0</ele><time>2026-04-12T15:03:30.001Z</time></trkpt><trkpt lat="38.38498825559013" lon="16.10552514204055"><ele>455.99999999999994</ele><time>2026-04-12T15:03:31.001Z</time></trkpt><trkpt lat="38.384922135078085" lon="16.10556758637317"><ele>455.0</ele><time>2026-04-12T15:03:32.001Z</time></trkpt><trkpt lat="38.38487317522126" lon="16.105660634081804"><ele>455.99999999999994</ele><time>2026-04-12T15:03:33.001Z</time></trkpt><trkpt lat="38.38484168541269" lon="16.10576075353871"><ele>457.0</ele><time>2026-04-12T15:03:34.001Z</time></trkpt><trkpt lat="38.38480866495315" lon="16.10587086968469"><ele>458.0</ele><time>2026-04-12T15:03:35.001Z</time></trkpt><trkpt lat="38.384789577182225" lon="16.105976359723257"><ele>459.0</ele><time>2026-04-12T15:03:36.001Z</time></trkpt><trkpt lat="38.38478428194797" lon="16.106067885004776"><ele>459.99999999999994</ele><time>2026-04-12T15:03:37.001Z</time></trkpt><trkpt lat="38.38480583074466" lon="16.10618150838355"><ele>461.0</ele><time>2026-04-12T15:03:39.001Z</time></trkpt><trkpt lat="38.38485135030955" lon="16.106274268745427"><ele>461.0</ele><time>2026-04-12T15:03:42.001Z</time></trkpt><trkpt lat="38.38488847068349" lon="16.10634632131022"><ele>461.0</ele><time>2026-04-12T15:03:44.001Z</time></trkpt><trkpt lat="38.38494565903181" lon="16.10647178056572"><ele>461.0</ele><time>2026-04-12T15:03:46.001Z</time></trkpt><trkpt lat="38.38495627820454" lon="16.10656064956053"><ele>461.0</ele><time>2026-04-12T15:03:47.001Z</time></trkpt><trkpt lat="38.38495181894857" lon="16.106690641506944"><ele>461.0</ele><time>2026-04-12T15:03:49.001Z</time></trkpt><trkpt lat="38.384898709800716" lon="16.106828825453142"><ele>461.8333333333333</ele><time>2026-04-12T15:03:51.001Z</time></trkpt><trkpt lat="38.38485661738961" lon="16.10689647763279"><ele>462.66666666666663</ele><time>2026-04-12T15:03:52.001Z</time></trkpt><trkpt lat="38.38481051874257" lon="16.10696852495948"><ele>463.5</ele><time>2026-04-12T15:03:53.001Z</time></trkpt><trkpt lat="38.38476726285204" lon="16.107039739093196"><ele>464.33333333333337</ele><time>2026-04-12T15:03:54.001Z</time></trkpt><trkpt lat="38.38472781164866" lon="16.107113480301127"><ele>465.1666666666667</ele><time>2026-04-12T15:03:55.001Z</time></trkpt><trkpt lat="38.38465083712875" lon="16.10723497459769"><ele>466.0</ele><time>2026-04-12T15:03:57.001Z</time></trkpt><trkpt lat="38.38460998155423" lon="16.107372847356658"><ele>467.6666666666667</ele><time>2026-04-12T15:03:59.001Z</time></trkpt><trkpt lat="38.38464767364588" lon="16.107518595016646"><ele>469.33333333333337</ele><time>2026-04-12T15:04:01.001Z</time></trkpt><trkpt lat="38.38470369991084" lon="16.10757139883629"><ele>471.0</ele><time>2026-04-12T15:04:02.001Z</time></trkpt><trkpt lat="38.38476630668589" lon="16.107608104742148"><ele>472.66666666666663</ele><time>2026-04-12T15:04:03.001Z</time></trkpt><trkpt lat="38.38483263805185" lon="16.10762812316849"><ele>474.3333333333333</ele><time>2026-04-12T15:04:04.001Z</time></trkpt><trkpt lat="38.38489753816274" lon="16.10764542459727"><ele>476.0</ele><time>2026-04-12T15:04:05.001Z</time></trkpt><trkpt lat="38.38496368987691" lon="16.107660670114125"><ele>476.4</ele><time>2026-04-12T15:04:06.001Z</time></trkpt><trkpt lat="38.38502995773424" lon="16.10767932079388"><ele>476.8</ele><time>2026-04-12T15:04:07.002Z</time></trkpt><trkpt lat="38.38515754068442" lon="16.107712505780363"><ele>477.19999999999993</ele><time>2026-04-12T15:04:09.002Z</time></trkpt><trkpt lat="38.385235522541166" lon="16.107714576076763"><ele>477.59999999999997</ele><time>2026-04-12T15:04:10.002Z</time></trkpt><trkpt lat="38.38534878272042" lon="16.107674213386407"><ele>478.0</ele><time>2026-04-12T15:04:12.002Z</time></trkpt><trkpt lat="38.385473274305745" lon="16.107494989616185"><ele>479.83333333333337</ele><time>2026-04-12T15:04:14.002Z</time></trkpt><trkpt lat="38.385507305810535" lon="16.107404226332225"><ele>481.6666666666667</ele><time>2026-04-12T15:04:15.002Z</time></trkpt><trkpt lat="38.385534341032304" lon="16.10730509524621"><ele>483.5</ele><time>2026-04-12T15:04:16.002Z</time></trkpt><trkpt lat="38.3855760114057" lon="16.107206852849696"><ele>485.33333333333337</ele><time>2026-04-12T15:04:17.002Z</time></trkpt><trkpt lat="38.38563800430666" lon="16.107084634385025"><ele>487.1666666666667</ele><time>2026-04-12T15:04:18.002Z</time></trkpt><trkpt lat="38.38565522927247" lon="16.106988782565093"><ele>489.0</ele><time>2026-04-12T15:04:19.002Z</time></trkpt><trkpt lat="38.385681654099386" lon="16.10690770624488"><ele>489.0</ele><time>2026-04-12T15:04:20.002Z</time></trkpt><trkpt lat="38.38571541303597" lon="16.10676236996905"><ele>489.0</ele><time>2026-04-12T15:04:22.002Z</time></trkpt><trkpt lat="38.38573453905313" lon="16.106662274368407"><ele>489.0</ele><time>2026-04-12T15:04:24.002Z</time></trkpt><trkpt lat="38.38575718882312" lon="16.106576506237577"><ele>489.0</ele><time>2026-04-12T15:04:28.002Z</time></trkpt><trkpt lat="38.385778872304186" lon="16.106496927087626"><ele>489.0</ele><time>2026-04-12T15:04:30.002Z</time></trkpt><trkpt lat="38.385819771473436" lon="16.10643005250367"><ele>489.0</ele><time>2026-04-12T15:04:34.002Z</time></trkpt><trkpt lat="38.38584406684199" lon="16.1063354228054"><ele>487.1666666666667</ele><time>2026-04-12T15:04:38.002Z</time></trkpt><trkpt lat="38.38587244744013" lon="16.106218481864243"><ele>485.33333333333337</ele><time>2026-04-12T15:04:40.002Z</time></trkpt><trkpt lat="38.38589374656196" lon="16.10608029495529"><ele>483.5</ele><time>2026-04-12T15:04:42.002Z</time></trkpt><trkpt lat="38.3859091039135" lon="16.105986552532137"><ele>481.6666666666667</ele><time>2026-04-12T15:04:44.003Z</time></trkpt><trkpt lat="38.38594709260891" lon="16.105896474357046"><ele>479.83333333333337</ele><time>2026-04-12T15:04:46.003Z</time></trkpt><trkpt lat="38.385978680399575" lon="16.10580297942324"><ele>478.0</ele><time>2026-04-12T15:04:48.003Z</time></trkpt><trkpt lat="38.38606752822591" lon="16.105764305059314"><ele>478.0</ele><time>2026-04-12T15:04:51.003Z</time></trkpt><trkpt lat="38.3861162899824" lon="16.10584108669936"><ele>477.99999999999994</ele><time>2026-04-12T15:04:53.003Z</time></trkpt><trkpt lat="38.386052954255376" lon="16.105886580868003"><ele>477.99999999999994</ele><time>2026-04-12T15:04:54.003Z</time></trkpt><trkpt lat="38.38603153268506" lon="16.106004886368506"><ele>478.0</ele><time>2026-04-12T15:04:56.003Z</time></trkpt><trkpt lat="38.38600476322237" lon="16.10614827280458"><ele>478.0</ele><time>2026-04-12T15:04:58.003Z</time></trkpt><trkpt lat="38.385980413262054" lon="16.10628026661646"><ele>478.0</ele><time>2026-04-12T15:05:00.003Z</time></trkpt><trkpt lat="38.38595726794312" lon="16.106409172151775"><ele>477.99999999999994</ele><time>2026-04-12T15:05:02.003Z</time></trkpt><trkpt lat="38.38593795581459" lon="16.10654081260705"><ele>477.99999999999994</ele><time>2026-04-12T15:05:04.003Z</time></trkpt><trkpt lat="38.385926166954675" lon="16.10666032672068"><ele>478.0</ele><time>2026-04-12T15:05:06.003Z</time></trkpt><trkpt lat="38.38589861374503" lon="16.10677943157047"><ele>478.0</ele><time>2026-04-12T15:05:08.003Z</time></trkpt><trkpt lat="38.38587988893973" lon="16.106880846552485"><ele>480.2</ele><time>2026-04-12T15:05:11.003Z</time></trkpt><trkpt lat="38.38586377908253" lon="16.106967989305748"><ele>482.4</ele><time>2026-04-12T15:05:13.998Z</time></trkpt><trkpt lat="38.38583081655186" lon="16.10704492990039"><ele>484.59999999999997</ele><time>2026-04-12T15:05:15.998Z</time></trkpt><trkpt lat="38.385780942854424" lon="16.107165101107437"><ele>486.79999999999995</ele><time>2026-04-12T15:05:17.998Z</time></trkpt><trkpt lat="38.385734058907104" lon="16.10729542440243"><ele>489.0</ele><time>2026-04-12T15:05:19.998Z</time></trkpt><trkpt lat="38.38568797120022" lon="16.10741025763182"><ele>487.1666666666667</ele><time>2026-04-12T15:05:21.998Z</time></trkpt><trkpt lat="38.38565751702504" lon="16.107517974642906"><ele>485.33333333333337</ele><time>2026-04-12T15:05:24.998Z</time></trkpt><trkpt lat="38.38563314238416" lon="16.10759892672427"><ele>483.5</ele><time>2026-04-12T15:05:26.998Z</time></trkpt><trkpt lat="38.38560643082599" lon="16.107683039822714"><ele>481.6666666666667</ele><time>2026-04-12T15:05:29.999Z</time></trkpt><trkpt lat="38.385539439137915" lon="16.1077622821949"><ele>479.83333333333337</ele><time>2026-04-12T15:05:32.999Z</time></trkpt><trkpt lat="38.385503165423835" lon="16.107844264276277"><ele>478.0</ele><time>2026-04-12T15:05:35.999Z</time></trkpt><trkpt lat="38.385482978711316" lon="16.10794909410462"><ele>482.83333333333337</ele><time>2026-04-12T15:05:38.999Z</time></trkpt><trkpt lat="38.3855815682219" lon="16.108028782941854"><ele>487.6666666666667</ele><time>2026-04-12T15:05:44Z</time></trkpt><trkpt lat="38.3856321416902" lon="16.10797358033869"><ele>492.5</ele><time>2026-04-12T15:06:13.001Z</time></trkpt><trkpt lat="38.3856343915436" lon="16.107869882103735"><ele>497.33333333333337</ele><time>2026-04-12T15:06:33.001Z</time></trkpt><trkpt lat="38.385600929010096" lon="16.107785850275512"><ele>502.1666666666667</ele><time>2026-04-12T15:06:35.001Z</time></trkpt><trkpt lat="38.385609463668054" lon="16.107704527079278"><ele>507.0</ele><time>2026-04-12T15:06:38.001Z</time></trkpt><trkpt lat="38.38567778553612" lon="16.107613291116834"><ele>507.0</ele><time>2026-04-12T15:06:43.002Z</time></trkpt><trkpt lat="38.385703735937184" lon="16.107490286149364"><ele>507.00000000000006</ele><time>2026-04-12T15:06:46.002Z</time></trkpt><trkpt lat="38.38572851799366" lon="16.107396934494616"><ele>507.00000000000006</ele><time>2026-04-12T15:06:48.002Z</time></trkpt><trkpt lat="38.38576157845804" lon="16.10730089812035"><ele>507.0</ele><time>2026-04-12T15:06:51.002Z</time></trkpt><trkpt lat="38.385796080978025" lon="16.10721318456696"><ele>507.0</ele><time>2026-04-12T15:06:54.002Z</time></trkpt><trkpt lat="38.3858430810078" lon="16.10707226031972"><ele>503.40000000000003</ele><time>2026-04-12T15:06:57.002Z</time></trkpt><trkpt lat="38.3858900540286" lon="16.10696372090954"><ele>499.80000000000007</ele><time>2026-04-12T15:06:59.002Z</time></trkpt><trkpt lat="38.38592185459678" lon="16.10686509214564"><ele>496.2</ele><time>2026-04-12T15:07:01.002Z</time></trkpt><trkpt lat="38.38594659139971" lon="16.106733084279032"><ele>492.6</ele><time>2026-04-12T15:07:03.002Z</time></trkpt><trkpt lat="38.385967204750926" lon="16.106598976130215"><ele>489.0</ele><time>2026-04-12T15:07:05.002Z</time></trkpt><trkpt lat="38.38598656676999" lon="16.106476353962382"><ele>486.79999999999995</ele><time>2026-04-12T15:07:07.002Z</time></trkpt><trkpt lat="38.386010911403" lon="16.106346830105423"><ele>484.59999999999997</ele><time>2026-04-12T15:07:09.002Z</time></trkpt><trkpt lat="38.386036000664866" lon="16.106205209252128"><ele>482.4</ele><time>2026-04-12T15:07:11.002Z</time></trkpt><trkpt lat="38.386070029637104" lon="16.106054063221976"><ele>480.2</ele><time>2026-04-12T15:07:13.002Z</time></trkpt><trkpt lat="38.386082318335404" lon="16.105972582885613"><ele>478.0</ele><time>2026-04-12T15:07:14.003Z</time></trkpt><trkpt lat="38.38609577190253" lon="16.10581834626866"><ele>478.0</ele><time>2026-04-12T15:07:16.003Z</time></trkpt><trkpt lat="38.386050688526865" lon="16.105683868050278"><ele>477.99999999999994</ele><time>2026-04-12T15:07:18.003Z</time></trkpt><trkpt lat="38.38597719874729" lon="16.105672902213104"><ele>477.99999999999994</ele><time>2026-04-12T15:07:19.999Z</time></trkpt><trkpt lat="38.385933469990164" lon="16.105828145895888"><ele>478.0</ele><time>2026-04-12T15:07:20.999Z</time></trkpt><trkpt lat="38.38589725564157" lon="16.105949434343252"><ele>478.0</ele><time>2026-04-12T15:07:22.999Z</time></trkpt><trkpt lat="38.38586421308842" lon="16.10607382968573"><ele>478.0</ele><time>2026-04-12T15:07:25Z</time></trkpt><trkpt lat="38.385831559241744" lon="16.10621154621731"><ele>477.99999999999994</ele><time>2026-04-12T15:07:27Z</time></trkpt><trkpt lat="38.38579407155193" lon="16.10636737934813"><ele>477.99999999999994</ele><time>2026-04-12T15:07:29Z</time></trkpt><trkpt lat="38.38577484110018" lon="16.10645412062528"><ele>478.0</ele><time>2026-04-12T15:07:30Z</time></trkpt><trkpt lat="38.38574875787914" lon="16.10655046593918"><ele>478.0</ele><time>2026-04-12T15:07:31Z</time></trkpt><trkpt lat="38.38572716670202" lon="16.106634311711396"><ele>479.83333333333337</ele><time>2026-04-12T15:07:32Z</time></trkpt><trkpt lat="38.385686554867945" lon="16.106776728306322"><ele>481.6666666666667</ele><time>2026-04-12T15:07:34Z</time></trkpt><trkpt lat="38.38566893165268" lon="16.10685684836642"><ele>483.5</ele><time>2026-04-12T15:07:35Z</time></trkpt><trkpt lat="38.385641878521355" lon="16.106944476330565"><ele>485.33333333333337</ele><time>2026-04-12T15:07:36Z</time></trkpt><trkpt lat="38.38561615414182" lon="16.10703837911444"><ele>487.1666666666667</ele><time>2026-04-12T15:07:37Z</time></trkpt><trkpt lat="38.385588654766565" lon="16.107137456593453"><ele>489.0</ele><time>2026-04-12T15:07:38Z</time></trkpt><trkpt lat="38.385550562090486" lon="16.10724015190061"><ele>487.1666666666667</ele><time>2026-04-12T15:07:39Z</time></trkpt><trkpt lat="38.38550832901059" lon="16.10734495033035"><ele>485.33333333333337</ele><time>2026-04-12T15:07:40Z</time></trkpt><trkpt lat="38.38545595014266" lon="16.107441519058135"><ele>483.5</ele><time>2026-04-12T15:07:41Z</time></trkpt><trkpt lat="38.385428646400484" lon="16.107552315797726"><ele>481.6666666666667</ele><time>2026-04-12T15:07:42Z</time></trkpt><trkpt lat="38.38537560935583" lon="16.107628393630442"><ele>479.83333333333337</ele><time>2026-04-12T15:07:43Z</time></trkpt><trkpt lat="38.38532159636769" lon="16.10768228895952"><ele>478.0</ele><time>2026-04-12T15:07:44Z</time></trkpt><trkpt lat="38.38525214445787" lon="16.10770535190706"><ele>478.00000000000006</ele><time>2026-04-12T15:07:45Z</time></trkpt><trkpt lat="38.38516652067112" lon="16.10764979516523"><ele>478.0</ele><time>2026-04-12T15:07:46Z</time></trkpt><trkpt lat="38.38509819844176" lon="16.10762985158597"><ele>478.0</ele><time>2026-04-12T15:07:47Z</time></trkpt><trkpt lat="38.38501825545119" lon="16.107606735546504"><ele>478.0</ele><time>2026-04-12T15:07:48Z</time></trkpt><trkpt lat="38.38492773400458" lon="16.1075867488072"><ele>478.00000000000006</ele><time>2026-04-12T15:07:49Z</time></trkpt><trkpt lat="38.38484945522482" lon="16.107570757076502"><ele>478.0</ele><time>2026-04-12T15:07:50Z</time></trkpt><trkpt lat="38.38478435370696" lon="16.107531884469584"><ele>477.59999999999997</ele><time>2026-04-12T15:07:51.001Z</time></trkpt><trkpt lat="38.38467843288135" lon="16.107476952831767"><ele>477.19999999999993</ele><time>2026-04-12T15:07:53.001Z</time></trkpt><trkpt lat="38.38464598604293" lon="16.10734243816632"><ele>476.8</ele><time>2026-04-12T15:07:55.001Z</time></trkpt><trkpt lat="38.38469771688374" lon="16.107217659015344"><ele>476.4</ele><time>2026-04-12T15:07:57.001Z</time></trkpt><trkpt lat="38.384737112174655" lon="16.10715315780273"><ele>476.0</ele><time>2026-04-12T15:07:58.001Z</time></trkpt><trkpt lat="38.38478592362573" lon="16.10708228395535"><ele>474.0</ele><time>2026-04-12T15:07:59.001Z</time></trkpt><trkpt lat="38.38484059937038" lon="16.107001533673788"><ele>472.0</ele><time>2026-04-12T15:08:00.001Z</time></trkpt><trkpt lat="38.38489624948842" lon="16.10691283713883"><ele>470.0</ele><time>2026-04-12T15:08:01.001Z</time></trkpt><trkpt lat="38.384946839481636" lon="16.10681326596912"><ele>468.0</ele><time>2026-04-12T15:08:02.001Z</time></trkpt><trkpt lat="38.384989090166805" lon="16.106695171034048"><ele>466.0</ele><time>2026-04-12T15:08:03.001Z</time></trkpt><trkpt lat="38.38501575710549" lon="16.106574542834363"><ele>465.0</ele><time>2026-04-12T15:08:04.001Z</time></trkpt><trkpt lat="38.384981336975024" lon="16.10643853291427"><ele>464.0</ele><time>2026-04-12T15:08:05.001Z</time></trkpt><trkpt lat="38.38494139146085" lon="16.106337674902687"><ele>463.0</ele><time>2026-04-12T15:08:06.001Z</time></trkpt><trkpt lat="38.384887555847165" lon="16.106255214622163"><ele>462.0</ele><time>2026-04-12T15:08:07.001Z</time></trkpt><trkpt lat="38.38486411382327" lon="16.106163832656502"><ele>461.0</ele><time>2026-04-12T15:08:08.001Z</time></trkpt><trkpt lat="38.38484057864251" lon="16.10598602690561"><ele>460.99999999999994</ele><time>2026-04-12T15:08:10.001Z</time></trkpt><trkpt lat="38.38485405957341" lon="16.105881058341133"><ele>461.0</ele><time>2026-04-12T15:08:11.001Z</time></trkpt><trkpt lat="38.38486810121624" lon="16.105779959385572"><ele>461.0</ele><time>2026-04-12T15:08:12.001Z</time></trkpt><trkpt lat="38.384910906417865" lon="16.10569422048533"><ele>461.0</ele><time>2026-04-12T15:08:13.001Z</time></trkpt><trkpt lat="38.38495217033149" lon="16.105618843359807"><ele>460.99999999999994</ele><time>2026-04-12T15:08:14.001Z</time></trkpt><trkpt lat="38.38500933013031" lon="16.10557206520384"><ele>461.0</ele><time>2026-04-12T15:08:15.001Z</time></trkpt><trkpt lat="38.385076899542554" lon="16.105577107683047"><ele>460.99999999999994</ele><time>2026-04-12T15:08:16.001Z</time></trkpt><trkpt lat="38.3851359441094" lon="16.1057210343666"><ele>461.0</ele><time>2026-04-12T15:08:18.001Z</time></trkpt><trkpt lat="38.38513788499026" lon="16.105811323606396"><ele>461.0</ele><time>2026-04-12T15:08:19.001Z</time></trkpt><trkpt lat="38.385138994114385" lon="16.105891869827474"><ele>461.0</ele><time>2026-04-12T15:08:20.001Z</time></trkpt><trkpt lat="38.38513556934259" lon="16.105983091317647"><ele>460.99999999999994</ele><time>2026-04-12T15:08:21.001Z</time></trkpt><trkpt lat="38.38511910944851" lon="16.106076027824823"><ele>461.0</ele><time>2026-04-12T15:08:22.002Z</time></trkpt><trkpt lat="38.38509992714655" lon="16.10616980409211"><ele>461.0</ele><time>2026-04-12T15:08:23.002Z</time></trkpt><trkpt lat="38.38508437322293" lon="16.106255565018714"><ele>461.0</ele><time>2026-04-12T15:08:24.002Z</time></trkpt><trkpt lat="38.38505329527518" lon="16.106399564230184"><ele>461.0</ele><time>2026-04-12T15:08:26.002Z</time></trkpt><trkpt lat="38.3850853093471" lon="16.10652601671225"><ele>461.0</ele><time>2026-04-12T15:08:28.002Z</time></trkpt><trkpt lat="38.38516373009363" lon="16.10662486739258"><ele>461.0</ele><time>2026-04-12T15:08:30.002Z</time></trkpt><trkpt lat="38.385284541564666" lon="16.10664770160485"><ele>460.99999999999994</ele><time>2026-04-12T15:08:32.002Z</time></trkpt><trkpt lat="38.38535761005878" lon="16.106647051109434"><ele>461.0</ele><time>2026-04-12T15:08:33.002Z</time></trkpt><trkpt lat="38.38542410745198" lon="16.10658989805621"><ele>461.0</ele><time>2026-04-12T15:08:34.002Z</time></trkpt><trkpt lat="38.38546246790847" lon="16.106502482349576"><ele>461.0</ele><time>2026-04-12T15:08:35.002Z</time></trkpt><trkpt lat="38.385495888011576" lon="16.10641127656153"><ele>460.99999999999994</ele><time>2026-04-12T15:08:36.002Z</time></trkpt><trkpt lat="38.3855315073968" lon="16.10630212968636"><ele>461.0</ele><time>2026-04-12T15:08:37.002Z</time></trkpt><trkpt lat="38.385554670400374" lon="16.10622323893786"><ele>459.8333333333333</ele><time>2026-04-12T15:08:38.002Z</time></trkpt><trkpt lat="38.38558303338982" lon="16.106117922041488"><ele>458.66666666666663</ele><time>2026-04-12T15:08:39.002Z</time></trkpt><trkpt lat="38.385597139086705" lon="16.106014167716197"><ele>457.5</ele><time>2026-04-12T15:08:40.002Z</time></trkpt><trkpt lat="38.38559552744652" lon="16.105902393249025"><ele>456.33333333333337</ele><time>2026-04-12T15:08:41.002Z</time></trkpt><trkpt lat="38.38560453969536" lon="16.105795480361216"><ele>455.1666666666667</ele><time>2026-04-12T15:08:42.002Z</time></trkpt><trkpt lat="38.38561719266769" lon="16.10568238121834"><ele>454.0</ele><time>2026-04-12T15:08:43.002Z</time></trkpt><trkpt lat="38.38561851724714" lon="16.10555709761452"><ele>454.00000000000006</ele><time>2026-04-12T15:08:44.002Z</time></trkpt><trkpt lat="38.38565513590222" lon="16.105460909290997"><ele>454.0</ele><time>2026-04-12T15:08:45.002Z</time></trkpt><trkpt lat="38.38570854176935" lon="16.10537261682175"><ele>454.0</ele><time>2026-04-12T15:08:46.002Z</time></trkpt><trkpt lat="38.385745518873826" lon="16.10528637005615"><ele>454.0</ele><time>2026-04-12T15:08:47.002Z</time></trkpt><trkpt lat="38.38580465517439" lon="16.10521068523889"><ele>454.00000000000006</ele><time>2026-04-12T15:08:48.002Z</time></trkpt><trkpt lat="38.38585622791106" lon="16.105122654759533"><ele>454.0</ele><time>2026-04-12T15:08:49.002Z</time></trkpt><trkpt lat="38.38590048471126" lon="16.10502778388439"><ele>454.00000000000006</ele><time>2026-04-12T15:08:50.002Z</time></trkpt><trkpt lat="38.38595283499377" lon="16.104950591988352"><ele>454.0</ele><time>2026-04-12T15:08:51.002Z</time></trkpt><trkpt lat="38.386014706485724" lon="16.1048861223467"><ele>454.0</ele><time>2026-04-12T15:08:52.002Z</time></trkpt><trkpt lat="38.386090411874896" lon="16.10484251461028"><ele>454.0</ele><time>2026-04-12T15:08:53.002Z</time></trkpt><trkpt lat="38.38617603556307" lon="16.104816486352494"><ele>454.00000000000006</ele><time>2026-04-12T15:08:54.002Z</time></trkpt><trkpt lat="38.386263105663936" lon="16.104798578981402"><ele>454.0</ele><time>2026-04-12T15:08:55.002Z</time></trkpt><trkpt lat="38.386345520252235" lon="16.10480201606888"><ele>451.50000000000006</ele><time>2026-04-12T15:08:56.003Z</time></trkpt><trkpt lat="38.386406982208385" lon="16.104827422345696"><ele>449.0</ele><time>2026-04-12T15:08:57.003Z</time></trkpt><trkpt lat="38.38649346643592" lon="16.104835743979123"><ele>446.5</ele><time>2026-04-12T15:08:58.003Z</time></trkpt><trkpt lat="38.3865701264826" lon="16.104828773231215"><ele>444.0</ele><time>2026-04-12T15:08:59.003Z</time></trkpt><trkpt lat="38.38664781471445" lon="16.104798346655283"><ele>441.50000000000006</ele><time>2026-04-12T15:09:00.003Z</time></trkpt><trkpt lat="38.38672427727418" lon="16.104749714370325"><ele>439.0</ele><time>2026-04-12T15:09:01.003Z</time></trkpt><trkpt lat="38.38678777257173" lon="16.104678682520696"><ele>439.00000000000006</ele><time>2026-04-12T15:09:02.003Z</time></trkpt><trkpt lat="38.3868398686884" lon="16.104606974044756"><ele>439.0</ele><time>2026-04-12T15:09:03.003Z</time></trkpt><trkpt lat="38.38688222422223" lon="16.104513456074717"><ele>439.0</ele><time>2026-04-12T15:09:04.003Z</time></trkpt><trkpt lat="38.38692502493386" lon="16.10441020292801"><ele>439.0</ele><time>2026-04-12T15:09:05.003Z</time></trkpt><trkpt lat="38.38696773884869" lon="16.104312093734656"><ele>439.00000000000006</ele><time>2026-04-12T15:09:06.003Z</time></trkpt><trkpt lat="38.387014315807725" lon="16.10422148762782"><ele>439.0</ele><time>2026-04-12T15:09:07.003Z</time></trkpt><trkpt lat="38.38706103827674" lon="16.10413557315363"><ele>438.4</ele><time>2026-04-12T15:09:08.003Z</time></trkpt><trkpt lat="38.38710634799154" lon="16.104046081430557"><ele>437.79999999999995</ele><time>2026-04-12T15:09:09.003Z</time></trkpt><trkpt lat="38.387153804653494" lon="16.103940896460326"><ele>437.20000000000005</ele><time>2026-04-12T15:09:10.003Z</time></trkpt><trkpt lat="38.3871807435467" lon="16.10384136063854"><ele>436.6</ele><time>2026-04-12T15:09:11.003Z</time></trkpt><trkpt lat="38.38720603124819" lon="16.10372783195178"><ele>436.0</ele><time>2026-04-12T15:09:12.003Z</time></trkpt><trkpt lat="38.387228098839195" lon="16.1036067676855"><ele>436.0</ele><time>2026-04-12T15:09:13.003Z</time></trkpt><trkpt lat="38.38725294706436" lon="16.10349358826543"><ele>436.0</ele><time>2026-04-12T15:09:14.003Z</time></trkpt><trkpt lat="38.38728824432243" lon="16.103388700690388"><ele>436.0</ele><time>2026-04-12T15:09:15.003Z</time></trkpt><trkpt lat="38.38732120758392" lon="16.103285096795588"><ele>436.0</ele><time>2026-04-12T15:09:16.003Z</time></trkpt><trkpt lat="38.38737463888608" lon="16.10318174834409"><ele>436.0</ele><time>2026-04-12T15:09:17.003Z</time></trkpt><trkpt lat="38.387414761153046" lon="16.103079038325433"><ele>434.8</ele><time>2026-04-12T15:09:18.003Z</time></trkpt><trkpt lat="38.38743959598354" lon="16.102961501541547"><ele>433.6</ele><time>2026-04-12T15:09:19.003Z</time></trkpt><trkpt lat="38.3874774278275" lon="16.102865550642825"><ele>432.4</ele><time>2026-04-12T15:09:20.003Z</time></trkpt><trkpt lat="38.387509269158585" lon="16.102773335006596"><ele>431.2</ele><time>2026-04-12T15:09:21.003Z</time></trkpt><trkpt lat="38.38754910383066" lon="16.102662350196084"><ele>430.0</ele><time>2026-04-12T15:09:22.003Z</time></trkpt><trkpt lat="38.38760037813125" lon="16.102558633090375"><ele>430.00000000000006</ele><time>2026-04-12T15:09:23.003Z</time></trkpt><trkpt lat="38.387637253891434" lon="16.102461052207957"><ele>430.0</ele><time>2026-04-12T15:09:24.003Z</time></trkpt><trkpt lat="38.387666590313465" lon="16.10236361266507"><ele>430.0</ele><time>2026-04-12T15:09:25.003Z</time></trkpt><trkpt lat="38.387702458697696" lon="16.102271361475182"><ele>430.0</ele><time>2026-04-12T15:09:26Z</time></trkpt><trkpt lat="38.38773607955987" lon="16.10219435303669"><ele>430.00000000000006</ele><time>2026-04-12T15:09:27Z</time></trkpt><trkpt lat="38.387791558828624" lon="16.10210240435095"><ele>430.0</ele><time>2026-04-12T15:09:29Z</time></trkpt><trkpt lat="38.38788465008632" lon="16.10209559379615"><ele>430.00000000000006</ele><time>2026-04-12T15:09:31Z</time></trkpt><trkpt lat="38.3879358708711" lon="16.10214408189495"><ele>430.0</ele><time>2026-04-12T15:09:32Z</time></trkpt><trkpt lat="38.38796763625027" lon="16.102234748420763"><ele>430.0</ele><time>2026-04-12T15:09:33Z</time></trkpt><trkpt lat="38.38797281420098" lon="16.10232024899634"><ele>430.0</ele><time>2026-04-12T15:09:34Z</time></trkpt><trkpt lat="38.387968212571344" lon="16.102403896195895"><ele>430.00000000000006</ele><time>2026-04-12T15:09:35Z</time></trkpt><trkpt lat="38.387941557983446" lon="16.102553826820177"><ele>430.0</ele><time>2026-04-12T15:09:37Z</time></trkpt><trkpt lat="38.38792108622049" lon="16.10263676151131"><ele>430.00000000000006</ele><time>2026-04-12T15:09:38Z</time></trkpt><trkpt lat="38.387898132072536" lon="16.102724386831962"><ele>430.0</ele><time>2026-04-12T15:09:39Z</time></trkpt><trkpt lat="38.38787596488711" lon="16.102818186326033"><ele>430.0</ele><time>2026-04-12T15:09:40Z</time></trkpt><trkpt lat="38.38785833383938" lon="16.10290521562523"><ele>430.0</ele><time>2026-04-12T15:09:41Z</time></trkpt><trkpt lat="38.387834419070174" lon="16.103052250331416"><ele>430.00000000000006</ele><time>2026-04-12T15:09:43Z</time></trkpt><trkpt lat="38.38787033581864" lon="16.103183956148435"><ele>430.0</ele><time>2026-04-12T15:09:45Z</time></trkpt><trkpt lat="38.387926217272394" lon="16.103223256978634"><ele>427.8</ele><time>2026-04-12T15:09:46Z</time></trkpt><trkpt lat="38.38803383365388" lon="16.103170656745785"><ele>425.6</ele><time>2026-04-12T15:09:48Z</time></trkpt><trkpt lat="38.38810152275244" lon="16.103040490993735"><ele>423.4</ele><time>2026-04-12T15:09:50Z</time></trkpt><trkpt lat="38.388105403308664" lon="16.102949292062597"><ele>421.2</ele><time>2026-04-12T15:09:51Z</time></trkpt><trkpt lat="38.38810612910039" lon="16.10284496321933"><ele>419.0</ele><time>2026-04-12T15:09:52Z</time></trkpt><trkpt lat="38.38811169241262" lon="16.10272130463341"><ele>419.0</ele><time>2026-04-12T15:09:53Z</time></trkpt><trkpt lat="38.388122108845195" lon="16.10259522197208"><ele>419.0</ele><time>2026-04-12T15:09:54Z</time></trkpt><trkpt lat="38.388139507905684" lon="16.102461099649865"><ele>419.0</ele><time>2026-04-12T15:09:55Z</time></trkpt><trkpt lat="38.38815873753676" lon="16.10231400267293"><ele>419.0</ele><time>2026-04-12T15:09:56Z</time></trkpt><trkpt lat="38.38817928625245" lon="16.10216103799181"><ele>419.0</ele><time>2026-04-12T15:09:57.001Z</time></trkpt><trkpt lat="38.38819132718141" lon="16.10201156554219"><ele>418.6</ele><time>2026-04-12T15:09:58.001Z</time></trkpt><trkpt lat="38.388203914708114" lon="16.10186520823106"><ele>418.2</ele><time>2026-04-12T15:09:59.001Z</time></trkpt><trkpt lat="38.38821081758677" lon="16.101730215906876"><ele>417.8</ele><time>2026-04-12T15:10:00.001Z</time></trkpt><trkpt lat="38.38822638418012" lon="16.101591184690022"><ele>417.40000000000003</ele><time>2026-04-12T15:10:01.001Z</time></trkpt><trkpt lat="38.38824229858348" lon="16.10145036804801"><ele>417.0</ele><time>2026-04-12T15:10:02.001Z</time></trkpt><trkpt lat="38.38825843825391" lon="16.101314968805045"><ele>416.0</ele><time>2026-04-12T15:10:03.001Z</time></trkpt><trkpt lat="38.388277616452015" lon="16.101209988864614"><ele>415.0</ele><time>2026-04-12T15:10:04.001Z</time></trkpt><trkpt lat="38.38829361001509" lon="16.101091705112147"><ele>414.0</ele><time>2026-04-12T15:10:05.001Z</time></trkpt><trkpt lat="38.3883015321477" lon="16.100959691395506"><ele>413.0</ele><time>2026-04-12T15:10:06.001Z</time></trkpt><trkpt lat="38.38831154237765" lon="16.100842296923048"><ele>412.0</ele><time>2026-04-12T15:10:07.001Z</time></trkpt><trkpt lat="38.38832706209161" lon="16.10074172802664"><ele>410.6666666666667</ele><time>2026-04-12T15:10:08.001Z</time></trkpt><trkpt lat="38.38833900623829" lon="16.1006402106652"><ele>409.33333333333337</ele><time>2026-04-12T15:10:09.001Z</time></trkpt><trkpt lat="38.38834719313742" lon="16.10053281849528"><ele>408.0</ele><time>2026-04-12T15:10:10.001Z</time></trkpt><trkpt lat="38.3883566917979" lon="16.100430128629007"><ele>406.66666666666663</ele><time>2026-04-12T15:10:11.001Z</time></trkpt><trkpt lat="38.38837273974785" lon="16.100328099503074"><ele>405.3333333333333</ele><time>2026-04-12T15:10:12.001Z</time></trkpt><trkpt lat="38.38838493130357" lon="16.10022316107137"><ele>404.0</ele><time>2026-04-12T15:10:13.001Z</time></trkpt><trkpt lat="38.3884015065981" lon="16.100119854405843"><ele>403.99999999999994</ele><time>2026-04-12T15:10:14.001Z</time></trkpt><trkpt lat="38.38841585441634" lon="16.10000824042948"><ele>404.0</ele><time>2026-04-12T15:10:15.001Z</time></trkpt><trkpt lat="38.38842099104666" lon="16.099924283877762"><ele>404.0</ele><time>2026-04-12T15:10:16.001Z</time></trkpt><trkpt lat="38.388426744718174" lon="16.09982789531794"><ele>404.0</ele><time>2026-04-12T15:10:17.001Z</time></trkpt><trkpt lat="38.38841670617118" lon="16.09973677199481"><ele>403.99999999999994</ele><time>2026-04-12T15:10:18.001Z</time></trkpt><trkpt lat="38.38839953706505" lon="16.09965048356414"><ele>404.0</ele><time>2026-04-12T15:10:19.001Z</time></trkpt><trkpt lat="38.388353136750524" lon="16.099502867967207"><ele>402.8333333333333</ele><time>2026-04-12T15:10:21.001Z</time></trkpt><trkpt lat="38.38829256826159" lon="16.099362635662143"><ele>401.66666666666663</ele><time>2026-04-12T15:10:23.001Z</time></trkpt><trkpt lat="38.38827817825682" lon="16.099279933414536"><ele>400.5</ele><time>2026-04-12T15:10:24.001Z</time></trkpt><trkpt lat="38.388232356143945" lon="16.099160995885637"><ele>399.33333333333337</ele><time>2026-04-12T15:10:26.001Z</time></trkpt><trkpt lat="38.38819969192235" lon="16.099084856991247"><ele>398.1666666666667</ele><time>2026-04-12T15:10:28.001Z</time></trkpt><trkpt lat="38.38823180564367" lon="16.09901310490549"><ele>397.0</ele><time>2026-04-12T15:10:30.001Z</time></trkpt><trkpt lat="38.38832454197172" lon="16.09900779795012"><ele>397.0</ele><time>2026-04-12T15:10:32.001Z</time></trkpt><trkpt lat="38.38836435032543" lon="16.099083376116567"><ele>397.0</ele><time>2026-04-12T15:10:33.001Z</time></trkpt><trkpt lat="38.38839939979867" lon="16.099151081006628"><ele>397.0</ele><time>2026-04-12T15:10:34.001Z</time></trkpt><trkpt lat="38.388431036821" lon="16.099225407349422"><ele>397.0</ele><time>2026-04-12T15:10:35.002Z</time></trkpt><trkpt lat="38.38846058823137" lon="16.09931239743986"><ele>397.0</ele><time>2026-04-12T15:10:36.002Z</time></trkpt><trkpt lat="38.388488612327265" lon="16.09940519327923"><ele>397.0</ele><time>2026-04-12T15:10:37.002Z</time></trkpt><trkpt lat="38.38851626711768" lon="16.09948880471827"><ele>397.0</ele><time>2026-04-12T15:10:38.002Z</time></trkpt><trkpt lat="38.38853739641092" lon="16.0995736428799"><ele>397.00000000000006</ele><time>2026-04-12T15:10:39.002Z</time></trkpt><trkpt lat="38.388559106530195" lon="16.099657799609314"><ele>397.0</ele><time>2026-04-12T15:10:40.002Z</time></trkpt><trkpt lat="38.38858710850307" lon="16.099742101476643"><ele>397.0</ele><time>2026-04-12T15:10:41.002Z</time></trkpt><trkpt lat="38.38862288609409" lon="16.099827053252987"><ele>397.0</ele><time>2026-04-12T15:10:42.002Z</time></trkpt><trkpt lat="38.388672894761655" lon="16.099902589399512"><ele>397.00000000000006</ele><time>2026-04-12T15:10:43.002Z</time></trkpt><trkpt lat="38.388740224006455" lon="16.099963917118966"><ele>397.0</ele><time>2026-04-12T15:10:44.002Z</time></trkpt><trkpt lat="38.38882147503667" lon="16.100005886407413"><ele>395.40000000000003</ele><time>2026-04-12T15:10:45.002Z</time></trkpt><trkpt lat="38.388912067759335" lon="16.100034639977757"><ele>393.8</ele><time>2026-04-12T15:10:46.002Z</time></trkpt><trkpt lat="38.38900324036631" lon="16.100059449115378"><ele>392.2</ele><time>2026-04-12T15:10:47.002Z</time></trkpt><trkpt lat="38.38909129121259" lon="16.10008905615577"><ele>390.6</ele><time>2026-04-12T15:10:48.002Z</time></trkpt><trkpt lat="38.3891753554602" lon="16.10012377944652"><ele>389.0</ele><time>2026-04-12T15:10:49.002Z</time></trkpt><trkpt lat="38.38925548192052" lon="16.100168109663542"><ele>389.0</ele><time>2026-04-12T15:10:50.002Z</time></trkpt><trkpt lat="38.38932758165545" lon="16.10022502634938"><ele>389.0</ele><time>2026-04-12T15:10:51.002Z</time></trkpt><trkpt lat="38.38939164557646" lon="16.10027871841869"><ele>389.0</ele><time>2026-04-12T15:10:52.002Z</time></trkpt><trkpt lat="38.38945228346143" lon="16.100324052722762"><ele>389.0</ele><time>2026-04-12T15:10:53.002Z</time></trkpt><trkpt lat="38.38951784264011" lon="16.100358292661276"><ele>389.0</ele><time>2026-04-12T15:10:54.002Z</time></trkpt><trkpt lat="38.38958337347628" lon="16.10037618735771"><ele>389.0</ele><time>2026-04-12T15:10:55.002Z</time></trkpt><trkpt lat="38.38964745561334" lon="16.10037794394939"><ele>389.0</ele><time>2026-04-12T15:10:56.002Z</time></trkpt><trkpt lat="38.38970566745335" lon="16.100334406721203"><ele>387.16666666666663</ele><time>2026-04-12T15:10:57.002Z</time></trkpt><trkpt lat="38.389745568544434" lon="16.100253557498487"><ele>385.3333333333333</ele><time>2026-04-12T15:10:58.002Z</time></trkpt><trkpt lat="38.389761254996614" lon="16.100161017656852"><ele>383.5</ele><time>2026-04-12T15:10:59.002Z</time></trkpt><trkpt lat="38.3897537478475" lon="16.100062318174604"><ele>381.66666666666663</ele><time>2026-04-12T15:11:00.002Z</time></trkpt><trkpt lat="38.38972736731095" lon="16.099957951975256"><ele>379.8333333333333</ele><time>2026-04-12T15:11:01.002Z</time></trkpt><trkpt lat="38.3897187243733" lon="16.099844706959477"><ele>378.0</ele><time>2026-04-12T15:11:02.002Z</time></trkpt><trkpt lat="38.38971040963447" lon="16.09972664715181"><ele>378.0</ele><time>2026-04-12T15:11:03.002Z</time></trkpt><trkpt lat="38.38969844539158" lon="16.099607755523188"><ele>378.0</ele><time>2026-04-12T15:11:04.002Z</time></trkpt><trkpt lat="38.38968727404546" lon="16.09948293128154"><ele>378.0</ele><time>2026-04-12T15:11:05.002Z</time></trkpt><trkpt lat="38.38967629466484" lon="16.09935912309333"><ele>378.0</ele><time>2026-04-12T15:11:06.002Z</time></trkpt><trkpt lat="38.389663851704185" lon="16.099234549971968"><ele>378.0</ele><time>2026-04-12T15:11:07.002Z</time></trkpt><trkpt lat="38.38966856740693" lon="16.09911333392581"><ele>377.4</ele><time>2026-04-12T15:11:08.002Z</time></trkpt><trkpt lat="38.389691787494385" lon="16.09899197491193"><ele>376.79999999999995</ele><time>2026-04-12T15:11:09.002Z</time></trkpt><trkpt lat="38.38973383108037" lon="16.098880392650422"><ele>376.2</ele><time>2026-04-12T15:11:10.002Z</time></trkpt><trkpt lat="38.38979700374928" lon="16.098783813774816"><ele>375.6</ele><time>2026-04-12T15:11:11.003Z</time></trkpt><trkpt lat="38.389866309841274" lon="16.098707973509736"><ele>375.0</ele><time>2026-04-12T15:11:12.003Z</time></trkpt><trkpt lat="38.389937335520926" lon="16.09864174209903"><ele>375.0</ele><time>2026-04-12T15:11:13.003Z</time></trkpt><trkpt lat="38.39000850759226" lon="16.09857931194138"><ele>375.0</ele><time>2026-04-12T15:11:14.003Z</time></trkpt><trkpt lat="38.390067000616035" lon="16.098489657030495"><ele>375.0</ele><time>2026-04-12T15:11:15.003Z</time></trkpt><trkpt lat="38.39011418355123" lon="16.098401958190124"><ele>375.0</ele><time>2026-04-12T15:11:16.003Z</time></trkpt><trkpt lat="38.39013867762265" lon="16.098296618959722"><ele>375.0</ele><time>2026-04-12T15:11:17.003Z</time></trkpt><trkpt lat="38.39012191626379" lon="16.09818299373921"><ele>375.0</ele><time>2026-04-12T15:11:18.003Z</time></trkpt><trkpt lat="38.39006511666854" lon="16.09809093969904"><ele>374.5</ele><time>2026-04-12T15:11:19.003Z</time></trkpt><trkpt lat="38.39000459904686" lon="16.098012531049655"><ele>374.0</ele><time>2026-04-12T15:11:20.003Z</time></trkpt><trkpt lat="38.389935513825804" lon="16.097944796116163"><ele>373.5</ele><time>2026-04-12T15:11:21.003Z</time></trkpt><trkpt lat="38.38985429243362" lon="16.09790158178739"><ele>373.0</ele><time>2026-04-12T15:11:22.003Z</time></trkpt><trkpt lat="38.3897666289986" lon="16.097866130560842"><ele>372.5</ele><time>2026-04-12T15:11:23.003Z</time></trkpt><trkpt lat="38.38967850202599" lon="16.097830854168823"><ele>372.0</ele><time>2026-04-12T15:11:24.003Z</time></trkpt><trkpt lat="38.38959185436419" lon="16.09779433826549"><ele>372.0</ele><time>2026-04-12T15:11:25.003Z</time></trkpt><trkpt lat="38.38951158635491" lon="16.097764947750107"><ele>372.0</ele><time>2026-04-12T15:11:26.003Z</time></trkpt><trkpt lat="38.38944162007415" lon="16.097741174135525"><ele>372.0</ele><time>2026-04-12T15:11:27.003Z</time></trkpt><trkpt lat="38.38938293088952" lon="16.09769609930641"><ele>372.0</ele><time>2026-04-12T15:11:28.003Z</time></trkpt><trkpt lat="38.389286912595836" lon="16.097646187431017"><ele>372.0</ele><time>2026-04-12T15:11:30.003Z</time></trkpt><trkpt lat="38.389240999326425" lon="16.097563863642012"><ele>372.0</ele><time>2026-04-12T15:11:31.999Z</time></trkpt><trkpt lat="38.38924973319223" lon="16.097422101734463"><ele>370.20000000000005</ele><time>2026-04-12T15:11:33.999Z</time></trkpt><trkpt lat="38.389353229975136" lon="16.097336418968904"><ele>368.4</ele><time>2026-04-12T15:11:35.999Z</time></trkpt><trkpt lat="38.389424975986934" lon="16.097330315804506"><ele>366.6</ele><time>2026-04-12T15:11:36.999Z</time></trkpt><trkpt lat="38.38950898540727" lon="16.09734152733269"><ele>364.79999999999995</ele><time>2026-04-12T15:11:37.999Z</time></trkpt><trkpt lat="38.389601106995165" lon="16.097351531389688"><ele>363.0</ele><time>2026-04-12T15:11:38.999Z</time></trkpt><trkpt lat="38.3896826591248" lon="16.09734164113125"><ele>362.2</ele><time>2026-04-12T15:11:40Z</time></trkpt><trkpt lat="38.38975297274749" lon="16.097313948506745"><ele>361.4</ele><time>2026-04-12T15:11:41Z</time></trkpt><trkpt lat="38.38981268363185" lon="16.09726071639887"><ele>360.59999999999997</ele><time>2026-04-12T15:11:42Z</time></trkpt><trkpt lat="38.38985680809003" lon="16.097187338980056"><ele>359.79999999999995</ele><time>2026-04-12T15:11:43Z</time></trkpt><trkpt lat="38.38991020820636" lon="16.097055024701653"><ele>359.0</ele><time>2026-04-12T15:11:45Z</time></trkpt><trkpt lat="38.38994330124117" lon="16.096912500177847"><ele>359.0</ele><time>2026-04-12T15:11:47Z</time></trkpt><trkpt lat="38.389988917003905" lon="16.09676766640194"><ele>359.0</ele><time>2026-04-12T15:11:49Z</time></trkpt><trkpt lat="38.390031431199844" lon="16.096612258292414"><ele>359.0</ele><time>2026-04-12T15:11:51Z</time></trkpt><trkpt lat="38.39006901098606" lon="16.096501152200016"><ele>359.0</ele><time>2026-04-12T15:11:53Z</time></trkpt><trkpt lat="38.39011617985877" lon="16.09636811721496"><ele>357.2</ele><time>2026-04-12T15:11:55Z</time></trkpt><trkpt lat="38.390165413946804" lon="16.096224673212316"><ele>355.4</ele><time>2026-04-12T15:11:57Z</time></trkpt><trkpt lat="38.39020854171383" lon="16.096094357527967"><ele>353.6</ele><time>2026-04-12T15:11:59Z</time></trkpt><trkpt lat="38.3902408703742" lon="16.096004493777148"><ele>351.8</ele><time>2026-04-12T15:12:00Z</time></trkpt><trkpt lat="38.39029135606643" lon="16.095891016320554"><ele>350.0</ele><time>2026-04-12T15:12:02Z</time></trkpt><trkpt lat="38.39035848642254" lon="16.095777274687727"><ele>349.4</ele><time>2026-04-12T15:12:04Z</time></trkpt><trkpt lat="38.39043935046954" lon="16.09567893844172"><ele>348.8</ele><time>2026-04-12T15:12:06Z</time></trkpt><trkpt lat="38.39053621646965" lon="16.095592384697255"><ele>348.20000000000005</ele><time>2026-04-12T15:12:08Z</time></trkpt><trkpt lat="38.390628310442466" lon="16.095540004742382"><ele>347.6</ele><time>2026-04-12T15:12:10.001Z</time></trkpt><trkpt lat="38.390725301560956" lon="16.095516282957337"><ele>347.0</ele><time>2026-04-12T15:12:12.001Z</time></trkpt><trkpt lat="38.390827654933986" lon="16.09554326886864"><ele>347.0</ele><time>2026-04-12T15:12:14.001Z</time></trkpt><trkpt lat="38.390930737592804" lon="16.09557932080715"><ele>347.0</ele><time>2026-04-12T15:12:16.001Z</time></trkpt><trkpt lat="38.39103156283611" lon="16.095616190843657"><ele>347.0</ele><time>2026-04-12T15:12:18.001Z</time></trkpt><trkpt lat="38.39111958891172" lon="16.095654718977244"><ele>347.0</ele><time>2026-04-12T15:12:20.001Z</time></trkpt><trkpt lat="38.391193826437906" lon="16.095680051874695"><ele>347.0</ele><time>2026-04-12T15:12:22.001Z</time></trkpt><trkpt lat="38.391274119389315" lon="16.095706446001138"><ele>345.6</ele><time>2026-04-12T15:12:24.001Z</time></trkpt><trkpt lat="38.39136190529536" lon="16.095715609504246"><ele>344.20000000000005</ele><time>2026-04-12T15:12:26.001Z</time></trkpt><trkpt lat="38.391463717164356" lon="16.095688323505996"><ele>342.8</ele><time>2026-04-12T15:12:28.001Z</time></trkpt><trkpt lat="38.39155357480611" lon="16.09560986173086"><ele>341.4</ele><time>2026-04-12T15:12:30.001Z</time></trkpt><trkpt lat="38.391589176580034" lon="16.09554237973378"><ele>340.0</ele><time>2026-04-12T15:12:31.001Z</time></trkpt><trkpt lat="38.39165570058334" lon="16.095415322943627"><ele>340.0</ele><time>2026-04-12T15:12:33.001Z</time></trkpt><trkpt lat="38.39170372658797" lon="16.095283468050788"><ele>340.0</ele><time>2026-04-12T15:12:35.001Z</time></trkpt><trkpt lat="38.39175270718429" lon="16.09513271961852"><ele>340.0</ele><time>2026-04-12T15:12:37.001Z</time></trkpt><trkpt lat="38.39177726214607" lon="16.095056592818775"><ele>340.0</ele><time>2026-04-12T15:12:38.001Z</time></trkpt><trkpt lat="38.391824235743954" lon="16.094913306836215"><ele>340.0</ele><time>2026-04-12T15:12:40.001Z</time></trkpt><trkpt lat="38.39186904211694" lon="16.094768674026053"><ele>339.42857142857144</ele><time>2026-04-12T15:12:42.002Z</time></trkpt><trkpt lat="38.39190025134653" lon="16.09469671111938"><ele>338.85714285714283</ele><time>2026-04-12T15:12:43.002Z</time></trkpt><trkpt lat="38.39192724655259" lon="16.094618896954223"><ele>338.2857142857143</ele><time>2026-04-12T15:12:44.002Z</time></trkpt><trkpt lat="38.39195398184953" lon="16.09454090831314"><ele>337.7142857142857</ele><time>2026-04-12T15:12:45.002Z</time></trkpt><trkpt lat="38.39198429865271" lon="16.09446900806844"><ele>337.1428571428571</ele><time>2026-04-12T15:12:46.002Z</time></trkpt><trkpt lat="38.39203743882424" lon="16.0944135262276"><ele>336.57142857142856</ele><time>2026-04-12T15:12:47.002Z</time></trkpt><trkpt lat="38.39208238009786" lon="16.094342973338804"><ele>336.0</ele><time>2026-04-12T15:12:48.002Z</time></trkpt><trkpt lat="38.392119514601994" lon="16.094261409039518"><ele>336.0</ele><time>2026-04-12T15:12:49.002Z</time></trkpt><trkpt lat="38.392167043547055" lon="16.094189567271606"><ele>336.0</ele><time>2026-04-12T15:12:50.002Z</time></trkpt><trkpt lat="38.3921903623642" lon="16.094103651951368"><ele>336.0</ele><time>2026-04-12T15:12:51.002Z</time></trkpt><trkpt lat="38.39218301226936" lon="16.094015598633728"><ele>336.0</ele><time>2026-04-12T15:12:52.002Z</time></trkpt><trkpt lat="38.392160197833284" lon="16.093929523395627"><ele>336.0</ele><time>2026-04-12T15:12:53.002Z</time></trkpt><trkpt lat="38.392132574921774" lon="16.093844180372745"><ele>336.0</ele><time>2026-04-12T15:12:54.002Z</time></trkpt><trkpt lat="38.3920960551173" lon="16.093761329476155"><ele>336.0</ele><time>2026-04-12T15:12:55.002Z</time></trkpt><trkpt lat="38.39207301378172" lon="16.09366253600941"><ele>335.20000000000005</ele><time>2026-04-12T15:12:56.002Z</time></trkpt><trkpt lat="38.39202679264688" lon="16.093567648821953"><ele>334.40000000000003</ele><time>2026-04-12T15:12:57.002Z</time></trkpt><trkpt lat="38.39196009910064" lon="16.09346454537585"><ele>333.6</ele><time>2026-04-12T15:12:58.002Z</time></trkpt><trkpt lat="38.39186322471546" lon="16.093383501328923"><ele>332.8</ele><time>2026-04-12T15:12:59.002Z</time></trkpt><trkpt lat="38.391770889331156" lon="16.093288770719415"><ele>332.0</ele><time>2026-04-12T15:13:00.002Z</time></trkpt><trkpt lat="38.391693065356364" lon="16.093195020607677"><ele>331.0</ele><time>2026-04-12T15:13:01.002Z</time></trkpt><trkpt lat="38.391584101506226" lon="16.09309855243336"><ele>330.0</ele><time>2026-04-12T15:13:02.002Z</time></trkpt><trkpt lat="38.3914830389553" lon="16.093002613911846"><ele>329.0</ele><time>2026-04-12T15:13:03.002Z</time></trkpt><trkpt lat="38.3913897696337" lon="16.0929145452176"><ele>328.0</ele><time>2026-04-12T15:13:04.002Z</time></trkpt><trkpt lat="38.39131280371395" lon="16.09282627202905"><ele>327.79999999999995</ele><time>2026-04-12T15:13:05.002Z</time></trkpt><trkpt lat="38.391230679860165" lon="16.092748919968834"><ele>327.6</ele><time>2026-04-12T15:13:06.002Z</time></trkpt><trkpt lat="38.39115255395176" lon="16.092676226318265"><ele>327.4</ele><time>2026-04-12T15:13:07.002Z</time></trkpt><trkpt lat="38.391078354988736" lon="16.092590411078124"><ele>327.20000000000005</ele><time>2026-04-12T15:13:08.002Z</time></trkpt><trkpt lat="38.39102265869668" lon="16.09248119159263"><ele>327.0</ele><time>2026-04-12T15:13:09.002Z</time></trkpt><trkpt lat="38.39096042145736" lon="16.092377170821695"><ele>326.40000000000003</ele><time>2026-04-12T15:13:10.002Z</time></trkpt><trkpt lat="38.390894225960096" lon="16.092273756459075"><ele>325.8</ele><time>2026-04-12T15:13:11.002Z</time></trkpt><trkpt lat="38.39085354289107" lon="16.092147212370957"><ele>325.2</ele><time>2026-04-12T15:13:12.002Z</time></trkpt><trkpt lat="38.39082323697957" lon="16.092016240414708"><ele>324.6</ele><time>2026-04-12T15:13:13.002Z</time></trkpt><trkpt lat="38.390793594836936" lon="16.09188409259471"><ele>324.0</ele><time>2026-04-12T15:13:14.003Z</time></trkpt><trkpt lat="38.39076266669058" lon="16.091745059666284"><ele>324.0</ele><time>2026-04-12T15:13:15.003Z</time></trkpt><trkpt lat="38.39074083575831" lon="16.091611446397575"><ele>324.0</ele><time>2026-04-12T15:13:16.003Z</time></trkpt><trkpt lat="38.39072090729991" lon="16.091486846690422"><ele>324.0</ele><time>2026-04-12T15:13:17.003Z</time></trkpt><trkpt lat="38.39070362512595" lon="16.09137397062823"><ele>324.0</ele><time>2026-04-12T15:13:18.003Z</time></trkpt><trkpt lat="38.39068750961976" lon="16.091258359119433"><ele>324.0</ele><time>2026-04-12T15:13:19.003Z</time></trkpt><trkpt lat="38.39066932380814" lon="16.09113720427079"><ele>323.2</ele><time>2026-04-12T15:13:20.003Z</time></trkpt><trkpt lat="38.39066276178871" lon="16.09101223954995"><ele>322.4</ele><time>2026-04-12T15:13:21.003Z</time></trkpt><trkpt lat="38.39064833126759" lon="16.090884750808836"><ele>321.6</ele><time>2026-04-12T15:13:22.003Z</time></trkpt><trkpt lat="38.390629384875176" lon="16.090757877862693"><ele>320.8</ele><time>2026-04-12T15:13:23.003Z</time></trkpt><trkpt lat="38.390609611250504" lon="16.0906378591171"><ele>320.0</ele><time>2026-04-12T15:13:24.003Z</time></trkpt><trkpt lat="38.390584912862984" lon="16.09051343232276"><ele>319.8</ele><time>2026-04-12T15:13:25.003Z</time></trkpt><trkpt lat="38.39055729939329" lon="16.09039452048133"><ele>319.6</ele><time>2026-04-12T15:13:26.003Z</time></trkpt><trkpt lat="38.39053568940866" lon="16.090273984029906"><ele>319.4</ele><time>2026-04-12T15:13:27.003Z</time></trkpt><trkpt lat="38.39052139246673" lon="16.090151022821303"><ele>319.2</ele><time>2026-04-12T15:13:28.003Z</time></trkpt><trkpt lat="38.390506289163206" lon="16.09002568686878"><ele>319.0</ele><time>2026-04-12T15:13:29.003Z</time></trkpt><trkpt lat="38.39048777430254" lon="16.089900668531815"><ele>317.59999999999997</ele><time>2026-04-12T15:13:30.003Z</time></trkpt><trkpt lat="38.39046873580113" lon="16.08977100824875"><ele>316.2</ele><time>2026-04-12T15:13:31.003Z</time></trkpt><trkpt lat="38.39045491747462" lon="16.089639359895653"><ele>314.79999999999995</ele><time>2026-04-12T15:13:32.003Z</time></trkpt><trkpt lat="38.39045760037346" lon="16.08950434399009"><ele>313.4</ele><time>2026-04-12T15:13:33.003Z</time></trkpt><trkpt lat="38.39046898289885" lon="16.089368303693785"><ele>312.0</ele><time>2026-04-12T15:13:34.003Z</time></trkpt><trkpt lat="38.39048778787993" lon="16.089230871639344"><ele>311.6</ele><time>2026-04-12T15:13:35.003Z</time></trkpt><trkpt lat="38.39051179837556" lon="16.08910582469898"><ele>311.2</ele><time>2026-04-12T15:13:36.003Z</time></trkpt><trkpt lat="38.39052638509627" lon="16.088983923613217"><ele>310.8</ele><time>2026-04-12T15:13:37.003Z</time></trkpt><trkpt lat="38.39055407222103" lon="16.08886761805624"><ele>310.4</ele><time>2026-04-12T15:13:38Z</time></trkpt><trkpt lat="38.39059226034877" lon="16.088759887209733"><ele>310.0</ele><time>2026-04-12T15:13:39Z</time></trkpt><trkpt lat="38.390647102344104" lon="16.088658241071787"><ele>310.0</ele><time>2026-04-12T15:13:40Z</time></trkpt><trkpt lat="38.39071937605942" lon="16.088557766505925"><ele>310.0</ele><time>2026-04-12T15:13:41Z</time></trkpt><trkpt lat="38.39080689071849" lon="16.088479719262605"><ele>310.0</ele><time>2026-04-12T15:13:42Z</time></trkpt><trkpt lat="38.390899604626156" lon="16.088401065894022"><ele>310.0</ele><time>2026-04-12T15:13:43Z</time></trkpt><trkpt lat="38.3910020458032" lon="16.08832876565433"><ele>310.0</ele><time>2026-04-12T15:13:44Z</time></trkpt><trkpt lat="38.39111319964462" lon="16.08826028236344"><ele>308.75</ele><time>2026-04-12T15:13:45Z</time></trkpt><trkpt lat="38.39122866976009" lon="16.08819258426311"><ele>307.5</ele><time>2026-04-12T15:13:46Z</time></trkpt><trkpt lat="38.391343662091735" lon="16.08811834629617"><ele>306.25</ele><time>2026-04-12T15:13:47Z</time></trkpt><trkpt lat="38.39145084400055" lon="16.08804582954143"><ele>305.0</ele><time>2026-04-12T15:13:48Z</time></trkpt><trkpt lat="38.39155537850874" lon="16.087981035598602"><ele>304.6</ele><time>2026-04-12T15:13:49Z</time></trkpt><trkpt lat="38.39165308933263" lon="16.087920711818363"><ele>304.2</ele><time>2026-04-12T15:13:50Z</time></trkpt><trkpt lat="38.391749710415496" lon="16.087860882079397"><ele>303.8</ele><time>2026-04-12T15:13:51Z</time></trkpt><trkpt lat="38.391844999496925" lon="16.087799713283715"><ele>303.4</ele><time>2026-04-12T15:13:52Z</time></trkpt><trkpt lat="38.391942067604255" lon="16.087738027169912"><ele>303.0</ele><time>2026-04-12T15:13:53Z</time></trkpt><trkpt lat="38.392042700907105" lon="16.087673490343683"><ele>303.0</ele><time>2026-04-12T15:13:54Z</time></trkpt><trkpt lat="38.39214706792485" lon="16.087609150274098"><ele>303.0</ele><time>2026-04-12T15:13:55Z</time></trkpt><trkpt lat="38.392249918202886" lon="16.087543871584515"><ele>303.0</ele><time>2026-04-12T15:13:56Z</time></trkpt><trkpt lat="38.3923487217919" lon="16.087482091547596"><ele>303.0</ele><time>2026-04-12T15:13:57Z</time></trkpt><trkpt lat="38.39244832529897" lon="16.087417132746577"><ele>303.2</ele><time>2026-04-12T15:13:58Z</time></trkpt><trkpt lat="38.392551545636934" lon="16.087354259257957"><ele>303.4</ele><time>2026-04-12T15:13:59Z</time></trkpt><trkpt lat="38.39265182386377" lon="16.087296634698813"><ele>303.59999999999997</ele><time>2026-04-12T15:14:00Z</time></trkpt><trkpt lat="38.392750002416236" lon="16.08723318603479"><ele>303.8</ele><time>2026-04-12T15:14:01Z</time></trkpt><trkpt lat="38.39284754173937" lon="16.087168515032797"><ele>304.0</ele><time>2026-04-12T15:14:02Z</time></trkpt><trkpt lat="38.39294426662703" lon="16.08711181223225"><ele>302.0</ele><time>2026-04-12T15:14:03Z</time></trkpt><trkpt lat="38.39304066907531" lon="16.087058080412337"><ele>300.0</ele><time>2026-04-12T15:14:04Z</time></trkpt><trkpt lat="38.393127869354586" lon="16.087004065955238"><ele>298.0</ele><time>2026-04-12T15:14:05Z</time></trkpt><trkpt lat="38.39321482109459" lon="16.08694865127934"><ele>296.0</ele><time>2026-04-12T15:14:06Z</time></trkpt><trkpt lat="38.393302903350424" lon="16.086888533059415"><ele>294.0</ele><time>2026-04-12T15:14:07Z</time></trkpt><trkpt lat="38.393397437531505" lon="16.086834239394385"><ele>294.0</ele><time>2026-04-12T15:14:08Z</time></trkpt><trkpt lat="38.39348673214797" lon="16.086771207319224"><ele>294.0</ele><time>2026-04-12T15:14:09Z</time></trkpt><trkpt lat="38.39357148447168" lon="16.086710067062274"><ele>294.0</ele><time>2026-04-12T15:14:10Z</time></trkpt><trkpt lat="38.39364371610564" lon="16.08663322526105"><ele>294.0</ele><time>2026-04-12T15:14:11Z</time></trkpt><trkpt lat="38.39370827579892" lon="16.086540876570943"><ele>294.0</ele><time>2026-04-12T15:14:12.001Z</time></trkpt><trkpt lat="38.393752383363555" lon="16.086425950339923"><ele>294.0</ele><time>2026-04-12T15:14:13.001Z</time></trkpt><trkpt lat="38.39378630571898" lon="16.086301172589653"><ele>294.0</ele><time>2026-04-12T15:14:14.001Z</time></trkpt><trkpt lat="38.39380049482538" lon="16.08616998186336"><ele>294.0</ele><time>2026-04-12T15:14:15.001Z</time></trkpt><trkpt lat="38.39381802860094" lon="16.08603657094299"><ele>294.0</ele><time>2026-04-12T15:14:16.001Z</time></trkpt><trkpt lat="38.39383809065276" lon="16.08590726377023"><ele>294.0</ele><time>2026-04-12T15:14:17.001Z</time></trkpt><trkpt lat="38.39386019818532" lon="16.085775569874702"><ele>292.59999999999997</ele><time>2026-04-12T15:14:18.001Z</time></trkpt><trkpt lat="38.393880368534404" lon="16.085643746474044"><ele>291.2</ele><time>2026-04-12T15:14:19.001Z</time></trkpt><trkpt lat="38.39390393946357" lon="16.08551014356983"><ele>289.79999999999995</ele><time>2026-04-12T15:14:20.001Z</time></trkpt><trkpt lat="38.39392936296488" lon="16.08537497945104"><ele>288.4</ele><time>2026-04-12T15:14:21.001Z</time></trkpt><trkpt lat="38.3939680204405" lon="16.08524794247157"><ele>287.0</ele><time>2026-04-12T15:14:22.001Z</time></trkpt><trkpt lat="38.39403680642162" lon="16.085138890483623"><ele>287.0</ele><time>2026-04-12T15:14:23.001Z</time></trkpt><trkpt lat="38.39409175432144" lon="16.085016907209376"><ele>287.0</ele><time>2026-04-12T15:14:24.001Z</time></trkpt><trkpt lat="38.39416407851337" lon="16.084903763156184"><ele>287.0</ele><time>2026-04-12T15:14:25.001Z</time></trkpt><trkpt lat="38.394229239710015" lon="16.084789836492593"><ele>287.0</ele><time>2026-04-12T15:14:26.001Z</time></trkpt><trkpt lat="38.3943150391168" lon="16.084667287736977"><ele>285.0</ele><time>2026-04-12T15:14:27.001Z</time></trkpt><trkpt lat="38.39439300014358" lon="16.08456076240169"><ele>283.0</ele><time>2026-04-12T15:14:28.001Z</time></trkpt><trkpt lat="38.394456913924856" lon="16.084439980477853"><ele>281.0</ele><time>2026-04-12T15:14:29.001Z</time></trkpt><trkpt lat="38.39451768150058" lon="16.084312338015295"><ele>279.0</ele><time>2026-04-12T15:14:30.001Z</time></trkpt><trkpt lat="38.39458475488171" lon="16.084194826579328"><ele>278.0</ele><time>2026-04-12T15:14:31.001Z</time></trkpt><trkpt lat="38.394656021832674" lon="16.084076050636043"><ele>277.0</ele><time>2026-04-12T15:14:32.001Z</time></trkpt><trkpt lat="38.39473120746286" lon="16.083955059952277"><ele>276.0</ele><time>2026-04-12T15:14:33.001Z</time></trkpt><trkpt lat="38.39480612440248" lon="16.08383359528872"><ele>275.0</ele><time>2026-04-12T15:14:34.001Z</time></trkpt><trkpt lat="38.39488140041552" lon="16.08371195605994"><ele>275.0</ele><time>2026-04-12T15:14:35.001Z</time></trkpt><trkpt lat="38.39495602633925" lon="16.083583345393375"><ele>275.0</ele><time>2026-04-12T15:14:36.001Z</time></trkpt><trkpt lat="38.395027760206325" lon="16.08345607447634"><ele>275.0</ele><time>2026-04-12T15:14:37.001Z</time></trkpt><trkpt lat="38.39509394763206" lon="16.083325741963865"><ele>275.0</ele><time>2026-04-12T15:14:38.001Z</time></trkpt><trkpt lat="38.3951679579408" lon="16.083208153514665"><ele>272.75</ele><time>2026-04-12T15:14:39.001Z</time></trkpt><trkpt lat="38.39524612410541" lon="16.083092619565182"><ele>270.5</ele><time>2026-04-12T15:14:40.001Z</time></trkpt><trkpt lat="38.39531726628094" lon="16.082973554171694"><ele>268.25</ele><time>2026-04-12T15:14:41.001Z</time></trkpt><trkpt lat="38.39538856238103" lon="16.08285636894552"><ele>266.0</ele><time>2026-04-12T15:14:42.001Z</time></trkpt><trkpt lat="38.3954568762173" lon="16.082743014176156"><ele>266.8</ele><time>2026-04-12T15:14:43.001Z</time></trkpt><trkpt lat="38.39553107229571" lon="16.082653801280046"><ele>267.6</ele><time>2026-04-12T15:14:44.001Z</time></trkpt><trkpt lat="38.39561792446664" lon="16.082590175837105"><ele>268.4</ele><time>2026-04-12T15:14:45.001Z</time></trkpt><trkpt lat="38.395710247740766" lon="16.082568055038454"><ele>269.2</ele><time>2026-04-12T15:14:46.002Z</time></trkpt><trkpt lat="38.395799889205456" lon="16.082572366872434"><ele>270.0</ele><time>2026-04-12T15:14:47.002Z</time></trkpt><trkpt lat="38.39588080783534" lon="16.082619405970103"><ele>270.0</ele><time>2026-04-12T15:14:48.002Z</time></trkpt><trkpt lat="38.39595339824867" lon="16.082694292835807"><ele>270.0</ele><time>2026-04-12T15:14:49.002Z</time></trkpt><trkpt lat="38.39601967435714" lon="16.082786732672773"><ele>270.0</ele><time>2026-04-12T15:14:50.002Z</time></trkpt><trkpt lat="38.396092214711366" lon="16.08288333829984"><ele>270.0</ele><time>2026-04-12T15:14:51.002Z</time></trkpt><trkpt lat="38.39616954526198" lon="16.082980650232496"><ele>270.0</ele><time>2026-04-12T15:14:52.002Z</time></trkpt><trkpt lat="38.39625981457087" lon="16.08307318166785"><ele>269.6</ele><time>2026-04-12T15:14:53.002Z</time></trkpt><trkpt lat="38.396356480264025" lon="16.08313146302686"><ele>269.2</ele><time>2026-04-12T15:14:54.002Z</time></trkpt><trkpt lat="38.396454667468475" lon="16.083158859175157"><ele>268.8</ele><time>2026-04-12T15:14:55.002Z</time></trkpt><trkpt lat="38.39655960817795" lon="16.083144913259098"><ele>268.4</ele><time>2026-04-12T15:14:56.002Z</time></trkpt><trkpt lat="38.39666870197125" lon="16.083105522262645"><ele>268.0</ele><time>2026-04-12T15:14:57.002Z</time></trkpt><trkpt lat="38.39678231778993" lon="16.083040649477354"><ele>268.0</ele><time>2026-04-12T15:14:58.002Z</time></trkpt><trkpt lat="38.39689192554131" lon="16.08296294662044"><ele>268.0</ele><time>2026-04-12T15:14:59.002Z</time></trkpt><trkpt lat="38.39699336873547" lon="16.08286704746156"><ele>268.0</ele><time>2026-04-12T15:15:00.002Z</time></trkpt><trkpt lat="38.39706888862526" lon="16.082741619478934"><ele>268.0</ele><time>2026-04-12T15:15:01.002Z</time></trkpt><trkpt lat="38.397131710127674" lon="16.082609897553525"><ele>266.0</ele><time>2026-04-12T15:15:02.002Z</time></trkpt><trkpt lat="38.39717481665738" lon="16.082467014355263"><ele>264.0</ele><time>2026-04-12T15:15:03.002Z</time></trkpt><trkpt lat="38.39720289603629" lon="16.082317845741436"><ele>262.0</ele><time>2026-04-12T15:15:04.002Z</time></trkpt><trkpt lat="38.39720628007913" lon="16.082170437581574"><ele>260.0</ele><time>2026-04-12T15:15:05.002Z</time></trkpt><trkpt lat="38.39720189088051" lon="16.082018991946118"><ele>259.2</ele><time>2026-04-12T15:15:06.002Z</time></trkpt><trkpt lat="38.39722116682687" lon="16.081882613006904"><ele>258.4</ele><time>2026-04-12T15:15:07.002Z</time></trkpt><trkpt lat="38.39723202556072" lon="16.08174499549965"><ele>257.6</ele><time>2026-04-12T15:15:08.002Z</time></trkpt><trkpt lat="38.39726575172573" lon="16.081633345980286"><ele>256.8</ele><time>2026-04-12T15:15:09.002Z</time></trkpt><trkpt lat="38.39734216897942" lon="16.08155828272515"><ele>256.0</ele><time>2026-04-12T15:15:10.002Z</time></trkpt><trkpt lat="38.39742721842617" lon="16.081508133592056"><ele>255.4</ele><time>2026-04-12T15:15:11.002Z</time></trkpt><trkpt lat="38.39752476064637" lon="16.081482830875125"><ele>254.8</ele><time>2026-04-12T15:15:12.002Z</time></trkpt><trkpt lat="38.397622805045096" lon="16.081458514910093"><ele>254.20000000000002</ele><time>2026-04-12T15:15:13.002Z</time></trkpt><trkpt lat="38.397715248436306" lon="16.081428076595945"><ele>253.60000000000002</ele><time>2026-04-12T15:15:14.002Z</time></trkpt><trkpt lat="38.39779695349754" lon="16.081400113710334"><ele>253.0</ele><time>2026-04-12T15:15:15.002Z</time></trkpt><trkpt lat="38.3978751520049" lon="16.081362650998038"><ele>253.0</ele><time>2026-04-12T15:15:16.002Z</time></trkpt><trkpt lat="38.397947329608684" lon="16.081298427848676"><ele>253.0</ele><time>2026-04-12T15:15:17.002Z</time></trkpt><trkpt lat="38.39800668752204" lon="16.081213417400726"><ele>253.0</ele><time>2026-04-12T15:15:18.002Z</time></trkpt><trkpt lat="38.398050350081384" lon="16.081109924768533"><ele>253.0</ele><time>2026-04-12T15:15:19.002Z</time></trkpt><trkpt lat="38.398086324613416" lon="16.080987677730654"><ele>253.0</ele><time>2026-04-12T15:15:20.003Z</time></trkpt><trkpt lat="38.39810503731648" lon="16.08085616334308"><ele>253.2</ele><time>2026-04-12T15:15:21.003Z</time></trkpt><trkpt lat="38.39811994660564" lon="16.080718768916157"><ele>253.4</ele><time>2026-04-12T15:15:22.003Z</time></trkpt><trkpt lat="38.39813827087149" lon="16.080585184729006"><ele>253.59999999999997</ele><time>2026-04-12T15:15:23.003Z</time></trkpt><trkpt lat="38.39817132487923" lon="16.0804464257865"><ele>253.79999999999998</ele><time>2026-04-12T15:15:24.003Z</time></trkpt><trkpt lat="38.39820915361284" lon="16.08031035514464"><ele>254.0</ele><time>2026-04-12T15:15:25.003Z</time></trkpt><trkpt lat="38.3982568493745" lon="16.080186020622218"><ele>254.0</ele><time>2026-04-12T15:15:26.003Z</time></trkpt><trkpt lat="38.39831623843985" lon="16.080065824531232"><ele>253.99999999999997</ele><time>2026-04-12T15:15:27.003Z</time></trkpt><trkpt lat="38.39838578132279" lon="16.079954127316523"><ele>253.99999999999997</ele><time>2026-04-12T15:15:28.003Z</time></trkpt><trkpt lat="38.39845564151883" lon="16.079844192657788"><ele>254.0</ele><time>2026-04-12T15:15:29.003Z</time></trkpt><trkpt lat="38.39851940733465" lon="16.079738695779476"><ele>254.0</ele><time>2026-04-12T15:15:30.003Z</time></trkpt><trkpt lat="38.39858481416148" lon="16.07963325149967"><ele>253.2</ele><time>2026-04-12T15:15:31.003Z</time></trkpt><trkpt lat="38.39864952222521" lon="16.07952204931818"><ele>252.39999999999998</ele><time>2026-04-12T15:15:32.003Z</time></trkpt><trkpt lat="38.39871307210325" lon="16.07941907623274"><ele>251.6</ele><time>2026-04-12T15:15:33.003Z</time></trkpt><trkpt lat="38.39878246941379" lon="16.07931420207148"><ele>250.8</ele><time>2026-04-12T15:15:34.003Z</time></trkpt><trkpt lat="38.39885360377511" lon="16.07921113405518"><ele>250.0</ele><time>2026-04-12T15:15:35.003Z</time></trkpt><trkpt lat="38.39892826826222" lon="16.079117267868604"><ele>249.0</ele><time>2026-04-12T15:15:36.003Z</time></trkpt><trkpt lat="38.399003751107536" lon="16.079033972906032"><ele>248.0</ele><time>2026-04-12T15:15:37.003Z</time></trkpt><trkpt lat="38.39907747216356" lon="16.078960095227803"><ele>247.0</ele><time>2026-04-12T15:15:38.003Z</time></trkpt><trkpt lat="38.399151841836726" lon="16.078891714530776"><ele>246.0</ele><time>2026-04-12T15:15:39.003Z</time></trkpt><trkpt lat="38.39923186377137" lon="16.078815227668397"><ele>245.0</ele><time>2026-04-12T15:15:40.003Z</time></trkpt><trkpt lat="38.3993101779523" lon="16.07873544718659"><ele>245.0</ele><time>2026-04-12T15:15:41.003Z</time></trkpt><trkpt lat="38.39939549487543" lon="16.078659042252298"><ele>245.0</ele><time>2026-04-12T15:15:42.003Z</time></trkpt><trkpt lat="38.399482717057126" lon="16.078581737640803"><ele>245.0</ele><time>2026-04-12T15:15:43.003Z</time></trkpt><trkpt lat="38.399568280802754" lon="16.0784992247243"><ele>245.0</ele><time>2026-04-12T15:15:44Z</time></trkpt><trkpt lat="38.399652871762775" lon="16.078414776551313"><ele>245.0</ele><time>2026-04-12T15:15:45Z</time></trkpt><trkpt lat="38.39973948653105" lon="16.078338848281085"><ele>244.6</ele><time>2026-04-12T15:15:46Z</time></trkpt><trkpt lat="38.39982200154046" lon="16.078263697688655"><ele>244.2</ele><time>2026-04-12T15:15:47Z</time></trkpt><trkpt lat="38.39990050684298" lon="16.0781947067282"><ele>243.8</ele><time>2026-04-12T15:15:48Z</time></trkpt><trkpt lat="38.39996781532454" lon="16.078123099979415"><ele>243.4</ele><time>2026-04-12T15:15:49Z</time></trkpt><trkpt lat="38.40003868806506" lon="16.07805948920437"><ele>243.0</ele><time>2026-04-12T15:15:50Z</time></trkpt><trkpt lat="38.40010932640773" lon="16.07799571737229"><ele>243.0</ele><time>2026-04-12T15:15:51Z</time></trkpt><trkpt lat="38.400185345539136" lon="16.077926338045568"><ele>243.0</ele><time>2026-04-12T15:15:52Z</time></trkpt><trkpt lat="38.400257300835314" lon="16.0778535359115"><ele>243.0</ele><time>2026-04-12T15:15:53Z</time></trkpt><trkpt lat="38.40032523677214" lon="16.077778084928237"><ele>243.0</ele><time>2026-04-12T15:15:54Z</time></trkpt><trkpt lat="38.40040005614696" lon="16.077713106202033"><ele>243.0</ele><time>2026-04-12T15:15:55Z</time></trkpt><trkpt lat="38.40047199986015" lon="16.077645995147535"><ele>243.4</ele><time>2026-04-12T15:15:56Z</time></trkpt><trkpt lat="38.400547504787944" lon="16.07757610622999"><ele>243.8</ele><time>2026-04-12T15:15:57Z</time></trkpt><trkpt lat="38.4006248995903" lon="16.07750976725981"><ele>244.2</ele><time>2026-04-12T15:15:58Z</time></trkpt><trkpt lat="38.400698695534686" lon="16.077439338305066"><ele>244.6</ele><time>2026-04-12T15:15:59Z</time></trkpt><trkpt lat="38.40077110483725" lon="16.077370092823124"><ele>245.0</ele><time>2026-04-12T15:16:00Z</time></trkpt><trkpt lat="38.40084302746497" lon="16.077296458998948"><ele>243.8</ele><time>2026-04-12T15:16:01Z</time></trkpt><trkpt lat="38.4009135608839" lon="16.077225352393402"><ele>242.6</ele><time>2026-04-12T15:16:02Z</time></trkpt><trkpt lat="38.40098496298516" lon="16.077152104070652"><ele>241.39999999999998</ele><time>2026-04-12T15:16:03Z</time></trkpt><trkpt lat="38.40105778048232" lon="16.077078383468162"><ele>240.2</ele><time>2026-04-12T15:16:04Z</time></trkpt><trkpt lat="38.40112720381083" lon="16.077006410416534"><ele>239.0</ele><time>2026-04-12T15:16:05Z</time></trkpt><trkpt lat="38.401202268995036" lon="16.076937603248652"><ele>239.0</ele><time>2026-04-12T15:16:06Z</time></trkpt><trkpt lat="38.401269122955014" lon="16.076845327066074"><ele>238.99999999999997</ele><time>2026-04-12T15:16:07Z</time></trkpt><trkpt lat="38.40133913967025" lon="16.076755557360663"><ele>238.99999999999997</ele><time>2026-04-12T15:16:08Z</time></trkpt><trkpt lat="38.40140563879887" lon="16.076653648662262"><ele>239.0</ele><time>2026-04-12T15:16:09Z</time></trkpt><trkpt lat="38.40146951125899" lon="16.07653637616595"><ele>239.0</ele><time>2026-04-12T15:16:10Z</time></trkpt><trkpt lat="38.401529086950966" lon="16.07641705549139"><ele>238.2</ele><time>2026-04-12T15:16:11Z</time></trkpt><trkpt lat="38.40158790821076" lon="16.076302050541656"><ele>237.39999999999998</ele><time>2026-04-12T15:16:12Z</time></trkpt><trkpt lat="38.40164086061946" lon="16.076193242332298"><ele>236.6</ele><time>2026-04-12T15:16:13Z</time></trkpt><trkpt lat="38.40169781069126" lon="16.076081288685927"><ele>235.8</ele><time>2026-04-12T15:16:14Z</time></trkpt><trkpt lat="38.40175499901205" lon="16.07597107226084"><ele>235.0</ele><time>2026-04-12T15:16:15.001Z</time></trkpt><trkpt lat="38.40181267799572" lon="16.0758626973859"><ele>234.2</ele><time>2026-04-12T15:16:16.001Z</time></trkpt><trkpt lat="38.40187077007978" lon="16.075759283309218"><ele>233.4</ele><time>2026-04-12T15:16:17.001Z</time></trkpt><trkpt lat="38.401922759564364" lon="16.075646870461593"><ele>232.60000000000002</ele><time>2026-04-12T15:16:18.001Z</time></trkpt><trkpt lat="38.40198733106031" lon="16.07553993129006"><ele>231.8</ele><time>2026-04-12T15:16:19.001Z</time></trkpt><trkpt lat="38.40204474274209" lon="16.0754273419399"><ele>231.0</ele><time>2026-04-12T15:16:20.001Z</time></trkpt><trkpt lat="38.40209670444707" lon="16.075323207360242"><ele>231.0</ele><time>2026-04-12T15:16:21.001Z</time></trkpt><trkpt lat="38.40214855298781" lon="16.075216270314645"><ele>231.00000000000003</ele><time>2026-04-12T15:16:22.001Z</time></trkpt><trkpt lat="38.4022032819808" lon="16.07511542110741"><ele>231.00000000000003</ele><time>2026-04-12T15:16:23.001Z</time></trkpt><trkpt lat="38.40225740305483" lon="16.07501096418413"><ele>231.0</ele><time>2026-04-12T15:16:24.001Z</time></trkpt><trkpt lat="38.402311822419904" lon="16.074910286882535"><ele>231.0</ele><time>2026-04-12T15:16:25.001Z</time></trkpt><trkpt lat="38.40236287378087" lon="16.07480278756926"><ele>231.4</ele><time>2026-04-12T15:16:26.001Z</time></trkpt><trkpt lat="38.402415551331615" lon="16.074691676056496"><ele>231.8</ele><time>2026-04-12T15:16:27.001Z</time></trkpt><trkpt lat="38.40247077489232" lon="16.074583660352364"><ele>232.20000000000002</ele><time>2026-04-12T15:16:28.001Z</time></trkpt><trkpt lat="38.40252834028422" lon="16.074477748314646"><ele>232.60000000000002</ele><time>2026-04-12T15:16:29.001Z</time></trkpt><trkpt lat="38.402582504203636" lon="16.074360747567905"><ele>233.0</ele><time>2026-04-12T15:16:30.001Z</time></trkpt><trkpt lat="38.40264033972362" lon="16.074253077587354"><ele>233.0</ele><time>2026-04-12T15:16:31.001Z</time></trkpt><trkpt lat="38.40269837130729" lon="16.074141920595803"><ele>233.0</ele><time>2026-04-12T15:16:32.001Z</time></trkpt><trkpt lat="38.402755047693525" lon="16.07404880687016"><ele>233.0</ele><time>2026-04-12T15:16:33.001Z</time></trkpt><trkpt lat="38.40280482226895" lon="16.07395398978795"><ele>233.0</ele><time>2026-04-12T15:16:34.001Z</time></trkpt><trkpt lat="38.40285688595305" lon="16.073852975324183"><ele>233.0</ele><time>2026-04-12T15:16:35.001Z</time></trkpt><trkpt lat="38.40290941606199" lon="16.073750223836957"><ele>232.2</ele><time>2026-04-12T15:16:36.001Z</time></trkpt><trkpt lat="38.40296503067945" lon="16.073650320881303"><ele>231.4</ele><time>2026-04-12T15:16:37.001Z</time></trkpt><trkpt lat="38.40302059038918" lon="16.073545918830337"><ele>230.59999999999997</ele><time>2026-04-12T15:16:38.001Z</time></trkpt><trkpt lat="38.40307609484604" lon="16.07344388842398"><ele>229.79999999999998</ele><time>2026-04-12T15:16:39.001Z</time></trkpt><trkpt lat="38.40312598289054" lon="16.073337971927234"><ele>229.0</ele><time>2026-04-12T15:16:40.001Z</time></trkpt><trkpt lat="38.403173265944226" lon="16.073245418521335"><ele>228.66666666666666</ele><time>2026-04-12T15:16:41.001Z</time></trkpt><trkpt lat="38.40322625973197" lon="16.0731621954645"><ele>228.33333333333331</ele><time>2026-04-12T15:16:42.001Z</time></trkpt><trkpt lat="38.40328098181788" lon="16.07308507526361"><ele>228.0</ele><time>2026-04-12T15:16:43.001Z</time></trkpt><trkpt lat="38.403341662919445" lon="16.073020630710197"><ele>227.66666666666669</ele><time>2026-04-12T15:16:44.001Z</time></trkpt><trkpt lat="38.403415332482666" lon="16.072965866379608"><ele>227.33333333333334</ele><time>2026-04-12T15:16:45.001Z</time></trkpt><trkpt lat="38.40349569218855" lon="16.0729195878148"><ele>227.0</ele><time>2026-04-12T15:16:46.001Z</time></trkpt><trkpt lat="38.40357665252954" lon="16.072895675284755"><ele>227.00000000000003</ele><time>2026-04-12T15:16:47.001Z</time></trkpt><trkpt lat="38.403662495991945" lon="16.072886841620566"><ele>227.0</ele><time>2026-04-12T15:16:48.001Z</time></trkpt><trkpt lat="38.40374963910457" lon="16.07288486523669"><ele>227.0</ele><time>2026-04-12T15:16:49.002Z</time></trkpt><trkpt lat="38.40383171532463" lon="16.07286067777369"><ele>227.0</ele><time>2026-04-12T15:16:50.002Z</time></trkpt><trkpt lat="38.40391046003638" lon="16.072843118721323"><ele>227.00000000000003</ele><time>2026-04-12T15:16:51.002Z</time></trkpt><trkpt lat="38.403990473804434" lon="16.072840890848195"><ele>227.0</ele><time>2026-04-12T15:16:52.002Z</time></trkpt><trkpt lat="38.40407941046374" lon="16.07283662706831"><ele>226.83333333333334</ele><time>2026-04-12T15:16:53.002Z</time></trkpt><trkpt lat="38.40416225537289" lon="16.072817998626423"><ele>226.66666666666669</ele><time>2026-04-12T15:16:54.002Z</time></trkpt><trkpt lat="38.4042463962336" lon="16.07280346256619"><ele>226.5</ele><time>2026-04-12T15:16:55.002Z</time></trkpt><trkpt lat="38.40432655434044" lon="16.072789075160273"><ele>226.33333333333331</ele><time>2026-04-12T15:16:56.002Z</time></trkpt><trkpt lat="38.404412162338545" lon="16.07277733403479"><ele>226.16666666666666</ele><time>2026-04-12T15:16:57.002Z</time></trkpt><trkpt lat="38.404498069900924" lon="16.072785235661836"><ele>226.0</ele><time>2026-04-12T15:16:58.002Z</time></trkpt><trkpt lat="38.40457214688882" lon="16.072778325711354"><ele>225.99999999999997</ele><time>2026-04-12T15:16:59.002Z</time></trkpt><trkpt lat="38.40463427745102" lon="16.072793068372373"><ele>226.0</ele><time>2026-04-12T15:17:00.002Z</time></trkpt><trkpt lat="38.40470451249485" lon="16.072779828016618"><ele>226.0</ele><time>2026-04-12T15:17:01.002Z</time></trkpt><trkpt lat="38.40477363451025" lon="16.072793575778174"><ele>226.0</ele><time>2026-04-12T15:17:02.002Z</time></trkpt><trkpt lat="38.40484012698412" lon="16.07278251006514"><ele>225.99999999999997</ele><time>2026-04-12T15:17:03.002Z</time></trkpt><trkpt lat="38.40490377960791" lon="16.072808738725055"><ele>226.0</ele><time>2026-04-12T15:17:04.002Z</time></trkpt><trkpt lat="38.40500884200638" lon="16.072874723704835"><ele>225.66666666666666</ele><time>2026-04-12T15:17:06.002Z</time></trkpt><trkpt lat="38.40513271595656" lon="16.072941621484595"><ele>225.33333333333331</ele><time>2026-04-12T15:17:08.002Z</time></trkpt><trkpt lat="38.40519790946737" lon="16.072977023478966"><ele>225.0</ele><time>2026-04-12T15:17:09.002Z</time></trkpt><trkpt lat="38.405263664863774" lon="16.073009483654406"><ele>224.66666666666669</ele><time>2026-04-12T15:17:10.002Z</time></trkpt><trkpt lat="38.40532849716504" lon="16.073049284548496"><ele>224.33333333333334</ele><time>2026-04-12T15:17:11.002Z</time></trkpt><trkpt lat="38.405396215845" lon="16.073094588832376"><ele>224.0</ele><time>2026-04-12T15:17:12.002Z</time></trkpt><trkpt lat="38.405463778097136" lon="16.073124877243725"><ele>224.2</ele><time>2026-04-12T15:17:13.002Z</time></trkpt><trkpt lat="38.40553194101911" lon="16.073133850865847"><ele>224.39999999999998</ele><time>2026-04-12T15:17:14.002Z</time></trkpt><trkpt lat="38.405638515110915" lon="16.073197937613436"><ele>224.6</ele><time>2026-04-12T15:17:16.002Z</time></trkpt><trkpt lat="38.405704220340176" lon="16.073338680826303"><ele>224.8</ele><time>2026-04-12T15:17:18.002Z</time></trkpt><trkpt lat="38.405737248630395" lon="16.07343092299191"><ele>225.0</ele><time>2026-04-12T15:17:19.002Z</time></trkpt><trkpt lat="38.4057897896683" lon="16.073518142983602"><ele>225.0</ele><time>2026-04-12T15:17:20.002Z</time></trkpt><trkpt lat="38.405822754086365" lon="16.073615322501695"><ele>225.0</ele><time>2026-04-12T15:17:21.002Z</time></trkpt><trkpt lat="38.40585570697543" lon="16.073716266815765"><ele>225.0</ele><time>2026-04-12T15:17:22.002Z</time></trkpt><trkpt lat="38.4058957410024" lon="16.073807114750668"><ele>225.0</ele><time>2026-04-12T15:17:23.003Z</time></trkpt><trkpt lat="38.405923282149864" lon="16.07390045673491"><ele>225.0</ele><time>2026-04-12T15:17:24.003Z</time></trkpt><trkpt lat="38.4059947129945" lon="16.07396177691799"><ele>225.0</ele><time>2026-04-12T15:17:25.003Z</time></trkpt><trkpt lat="38.406089615020015" lon="16.07406331391663"><ele>225.0</ele><time>2026-04-12T15:17:27.003Z</time></trkpt><trkpt lat="38.40615627148224" lon="16.074102073249826"><ele>225.0</ele><time>2026-04-12T15:17:28.003Z</time></trkpt><trkpt lat="38.40621122954737" lon="16.07415824149358"><ele>225.0</ele><time>2026-04-12T15:17:29.003Z</time></trkpt><trkpt lat="38.406273576029086" lon="16.074218365186244"><ele>225.0</ele><time>2026-04-12T15:17:30.003Z</time></trkpt><trkpt lat="38.406343505449684" lon="16.07426883452078"><ele>225.0</ele><time>2026-04-12T15:17:31.003Z</time></trkpt><trkpt lat="38.406413321057926" lon="16.074313822539413"><ele>225.0</ele><time>2026-04-12T15:17:32.003Z</time></trkpt><trkpt lat="38.40647945439151" lon="16.07435179842073"><ele>225.83333333333334</ele><time>2026-04-12T15:17:33.003Z</time></trkpt><trkpt lat="38.40654452378143" lon="16.07439424001791"><ele>226.66666666666669</ele><time>2026-04-12T15:17:34.003Z</time></trkpt><trkpt lat="38.40660123709463" lon="16.074454930503443"><ele>227.5</ele><time>2026-04-12T15:17:35.003Z</time></trkpt><trkpt lat="38.40666503875934" lon="16.07449557279139"><ele>228.33333333333334</ele><time>2026-04-12T15:17:36.003Z</time></trkpt><trkpt lat="38.40673663003047" lon="16.07449614692682"><ele>229.16666666666669</ele><time>2026-04-12T15:17:37.003Z</time></trkpt><trkpt lat="38.40680111534444" lon="16.074514950210737"><ele>230.0</ele><time>2026-04-12T15:17:38.003Z</time></trkpt><trkpt lat="38.40692804496047" lon="16.07451880363347"><ele>230.00000000000003</ele><time>2026-04-12T15:17:40.003Z</time></trkpt><trkpt lat="38.4069906099118" lon="16.074508121693878"><ele>230.0</ele><time>2026-04-12T15:17:41.003Z</time></trkpt><trkpt lat="38.40712149870669" lon="16.07448819796527"><ele>230.0</ele><time>2026-04-12T15:17:43.003Z</time></trkpt><trkpt lat="38.407192364200625" lon="16.074472437992192"><ele>230.0</ele><time>2026-04-12T15:17:44.003Z</time></trkpt><trkpt lat="38.407265323617835" lon="16.074451331772785"><ele>230.00000000000003</ele><time>2026-04-12T15:17:45.003Z</time></trkpt><trkpt lat="38.40733715056168" lon="16.074440214429405"><ele>230.0</ele><time>2026-04-12T15:17:46.003Z</time></trkpt><trkpt lat="38.40741225846363" lon="16.074432077502905"><ele>230.50000000000003</ele><time>2026-04-12T15:17:47.003Z</time></trkpt><trkpt lat="38.40748990717032" lon="16.07441741462428"><ele>231.0</ele><time>2026-04-12T15:17:48.003Z</time></trkpt><trkpt lat="38.40756029900958" lon="16.074410696840754"><ele>231.5</ele><time>2026-04-12T15:17:49.003Z</time></trkpt><trkpt lat="38.40762999918429" lon="16.07440731715292"><ele>232.0</ele><time>2026-04-12T15:17:50Z</time></trkpt><trkpt lat="38.407699033311864" lon="16.074400631862446"><ele>232.50000000000003</ele><time>2026-04-12T15:17:51Z</time></trkpt><trkpt lat="38.40781693102509" lon="16.074381109096002"><ele>233.0</ele><time>2026-04-12T15:17:53Z</time></trkpt><trkpt lat="38.40790269982262" lon="16.074381126590225"><ele>234.2</ele><time>2026-04-12T15:17:55Z</time></trkpt><trkpt lat="38.408018890126804" lon="16.074409291983184"><ele>235.4</ele><time>2026-04-12T15:17:57Z</time></trkpt><trkpt lat="38.40811450294662" lon="16.074463121529448"><ele>236.59999999999997</ele><time>2026-04-12T15:17:59Z</time></trkpt><trkpt lat="38.408123475776954" lon="16.074552815430096"><ele>237.79999999999998</ele><time>2026-04-12T15:18:00Z</time></trkpt><trkpt lat="38.4081793681212" lon="16.074623594631063"><ele>239.0</ele><time>2026-04-12T15:18:03Z</time></trkpt><trkpt lat="38.40827729475613" lon="16.074605136129097"><ele>239.0</ele><time>2026-04-12T15:18:05Z</time></trkpt><trkpt lat="38.40834323203417" lon="16.074578905023362"><ele>238.99999999999997</ele><time>2026-04-12T15:18:06Z</time></trkpt><trkpt lat="38.40842467841759" lon="16.07456482976949"><ele>238.99999999999997</ele><time>2026-04-12T15:18:07Z</time></trkpt><trkpt lat="38.40850529682586" lon="16.074542552688214"><ele>239.0</ele><time>2026-04-12T15:18:08Z</time></trkpt><trkpt lat="38.408611871813406" lon="16.0745100548675"><ele>239.0</ele><time>2026-04-12T15:18:09Z</time></trkpt><trkpt lat="38.408717740878075" lon="16.074477547216595"><ele>237.25</ele><time>2026-04-12T15:18:10Z</time></trkpt><trkpt lat="38.408826846609564" lon="16.074436278418425"><ele>235.5</ele><time>2026-04-12T15:18:11Z</time></trkpt><trkpt lat="38.40893940004195" lon="16.07439732672418"><ele>233.75</ele><time>2026-04-12T15:18:12Z</time></trkpt><trkpt lat="38.409055265842674" lon="16.074369576209236"><ele>232.0</ele><time>2026-04-12T15:18:13Z</time></trkpt><trkpt lat="38.40917450716774" lon="16.074362195553007"><ele>232.0</ele><time>2026-04-12T15:18:14Z</time></trkpt><trkpt lat="38.40929474817525" lon="16.074379950286087"><ele>232.0</ele><time>2026-04-12T15:18:15Z</time></trkpt><trkpt lat="38.40940264519739" lon="16.0744072466484"><ele>232.0</ele><time>2026-04-12T15:18:16Z</time></trkpt><trkpt lat="38.40950117836384" lon="16.074451183508614"><ele>232.0</ele><time>2026-04-12T15:18:17.001Z</time></trkpt><trkpt lat="38.40958361865083" lon="16.074536422330482"><ele>232.0</ele><time>2026-04-12T15:18:18.001Z</time></trkpt><trkpt lat="38.40965600245896" lon="16.07462832768755"><ele>231.6</ele><time>2026-04-12T15:18:19.001Z</time></trkpt><trkpt lat="38.40972454990863" lon="16.074712230030787"><ele>231.2</ele><time>2026-04-12T15:18:20.001Z</time></trkpt><trkpt lat="38.409805628071084" lon="16.0747910124635"><ele>230.8</ele><time>2026-04-12T15:18:21.001Z</time></trkpt><trkpt lat="38.40987970277694" lon="16.074866859980087"><ele>230.4</ele><time>2026-04-12T15:18:22.001Z</time></trkpt><trkpt lat="38.40995011561844" lon="16.074943123941843"><ele>230.0</ele><time>2026-04-12T15:18:23.001Z</time></trkpt><trkpt lat="38.410033900569715" lon="16.075013358220968"><ele>230.0</ele><time>2026-04-12T15:18:24.001Z</time></trkpt><trkpt lat="38.41011568681487" lon="16.07509176528904"><ele>230.0</ele><time>2026-04-12T15:18:25.001Z</time></trkpt><trkpt lat="38.41019534273524" lon="16.07517633568994"><ele>230.0</ele><time>2026-04-12T15:18:26.001Z</time></trkpt><trkpt lat="38.41027057990007" lon="16.075255494873822"><ele>230.0</ele><time>2026-04-12T15:18:27.001Z</time></trkpt><trkpt lat="38.41033667404172" lon="16.075321372045313"><ele>230.0</ele><time>2026-04-12T15:18:28.001Z</time></trkpt><trkpt lat="38.41039829413986" lon="16.075384794765537"><ele>230.00000000000003</ele><time>2026-04-12T15:18:29.001Z</time></trkpt><trkpt lat="38.410458037184625" lon="16.07544102016105"><ele>230.0</ele><time>2026-04-12T15:18:30.001Z</time></trkpt><trkpt lat="38.41051176692455" lon="16.075505477137053"><ele>230.0</ele><time>2026-04-12T15:18:31.001Z</time></trkpt><trkpt lat="38.410571529777215" lon="16.075566577690278"><ele>230.0</ele><time>2026-04-12T15:18:32.001Z</time></trkpt><trkpt lat="38.41062342223161" lon="16.075622357519407"><ele>230.00000000000003</ele><time>2026-04-12T15:18:33.001Z</time></trkpt><trkpt lat="38.41071245350843" lon="16.075728157016208"><ele>230.0</ele><time>2026-04-12T15:18:35.001Z</time></trkpt><trkpt lat="38.41080630450568" lon="16.075841186061986"><ele>229.00000000000003</ele><time>2026-04-12T15:18:37.001Z</time></trkpt><trkpt lat="38.41085923860102" lon="16.07590074879107"><ele>228.0</ele><time>2026-04-12T15:18:38.001Z</time></trkpt><trkpt lat="38.410912651411316" lon="16.075962572114115"><ele>227.0</ele><time>2026-04-12T15:18:39.001Z</time></trkpt><trkpt lat="38.41096291826292" lon="16.076029077063566"><ele>226.0</ele><time>2026-04-12T15:18:40.001Z</time></trkpt><trkpt lat="38.41101621663492" lon="16.076093894581867"><ele>225.00000000000003</ele><time>2026-04-12T15:18:41.001Z</time></trkpt><trkpt lat="38.411080486518394" lon="16.0761712537195"><ele>224.0</ele><time>2026-04-12T15:18:42.001Z</time></trkpt><trkpt lat="38.41114851978533" lon="16.076248444202406"><ele>224.0</ele><time>2026-04-12T15:18:43.001Z</time></trkpt><trkpt lat="38.411222059218375" lon="16.07633160531334"><ele>223.99999999999997</ele><time>2026-04-12T15:18:44.001Z</time></trkpt><trkpt lat="38.41129034373563" lon="16.076415348094447"><ele>223.99999999999997</ele><time>2026-04-12T15:18:45.001Z</time></trkpt><trkpt lat="38.41136639988332" lon="16.076501131539082"><ele>224.0</ele><time>2026-04-12T15:18:46.001Z</time></trkpt><trkpt lat="38.4114374456056" lon="16.07659053880006"><ele>224.0</ele><time>2026-04-12T15:18:47.001Z</time></trkpt><trkpt lat="38.41149708750085" lon="16.076668717390508"><ele>223.50000000000003</ele><time>2026-04-12T15:18:48.001Z</time></trkpt><trkpt lat="38.411561127044564" lon="16.07674786104921"><ele>223.0</ele><time>2026-04-12T15:18:49.001Z</time></trkpt><trkpt lat="38.41160173755671" lon="16.076837022270563"><ele>222.5</ele><time>2026-04-12T15:18:50.001Z</time></trkpt><trkpt lat="38.41165716785888" lon="16.076912846726838"><ele>222.0</ele><time>2026-04-12T15:18:51.001Z</time></trkpt><trkpt lat="38.411721445771626" lon="16.07698253150967"><ele>221.50000000000003</ele><time>2026-04-12T15:18:52.001Z</time></trkpt><trkpt lat="38.41175085893527" lon="16.07710183238342"><ele>221.0</ele><time>2026-04-12T15:18:53.002Z</time></trkpt><trkpt lat="38.41179463943654" lon="16.077214181623148"><ele>221.0</ele><time>2026-04-12T15:18:54.002Z</time></trkpt><trkpt lat="38.41183334957702" lon="16.077314163400704"><ele>221.00000000000003</ele><time>2026-04-12T15:18:55.002Z</time></trkpt><trkpt lat="38.41187578337574" lon="16.07741970227403"><ele>221.00000000000003</ele><time>2026-04-12T15:18:56.002Z</time></trkpt><trkpt lat="38.41192042782986" lon="16.07753410587691"><ele>221.0</ele><time>2026-04-12T15:18:57.002Z</time></trkpt><trkpt lat="38.411967051313724" lon="16.077658649717872"><ele>221.0</ele><time>2026-04-12T15:18:58.002Z</time></trkpt><trkpt lat="38.41202010365406" lon="16.07778869466917"><ele>221.20000000000002</ele><time>2026-04-12T15:18:59.002Z</time></trkpt><trkpt lat="38.41207331020418" lon="16.07790932417251"><ele>221.40000000000003</ele><time>2026-04-12T15:19:00.002Z</time></trkpt><trkpt lat="38.41212499331747" lon="16.078030845755407"><ele>221.6</ele><time>2026-04-12T15:19:01.002Z</time></trkpt><trkpt lat="38.412179110176965" lon="16.078143277169808"><ele>221.8</ele><time>2026-04-12T15:19:02.002Z</time></trkpt><trkpt lat="38.412235291459965" lon="16.078252462294657"><ele>222.0</ele><time>2026-04-12T15:19:03.002Z</time></trkpt><trkpt lat="38.41229503083969" lon="16.07835684197939"><ele>222.0</ele><time>2026-04-12T15:19:04.002Z</time></trkpt><trkpt lat="38.412362342634154" lon="16.078463593102615"><ele>222.0</ele><time>2026-04-12T15:19:05.002Z</time></trkpt><trkpt lat="38.41242610718943" lon="16.078560744914864"><ele>222.0</ele><time>2026-04-12T15:19:06.002Z</time></trkpt><trkpt lat="38.412489908474555" lon="16.078659793393445"><ele>222.0</ele><time>2026-04-12T15:19:07.002Z</time></trkpt><trkpt lat="38.41254309410406" lon="16.078759674261573"><ele>222.0</ele><time>2026-04-12T15:19:08.002Z</time></trkpt><trkpt lat="38.412608229023704" lon="16.078860310405368"><ele>222.0</ele><time>2026-04-12T15:19:09.002Z</time></trkpt><trkpt lat="38.41266810271876" lon="16.078958741315628"><ele>222.0</ele><time>2026-04-12T15:19:10.002Z</time></trkpt><trkpt lat="38.412728729197894" lon="16.07905795805216"><ele>222.0</ele><time>2026-04-12T15:19:11.002Z</time></trkpt><trkpt lat="38.41279056433903" lon="16.079153236814214"><ele>222.0</ele><time>2026-04-12T15:19:12.002Z</time></trkpt><trkpt lat="38.41285397517071" lon="16.079247760563742"><ele>222.0</ele><time>2026-04-12T15:19:13.002Z</time></trkpt><trkpt lat="38.412915495169955" lon="16.079344670532674"><ele>221.8</ele><time>2026-04-12T15:19:14.002Z</time></trkpt><trkpt lat="38.41297488459296" lon="16.07944718029499"><ele>221.6</ele><time>2026-04-12T15:19:15.002Z</time></trkpt><trkpt lat="38.41303932849925" lon="16.079547432730685"><ele>221.40000000000003</ele><time>2026-04-12T15:19:16.002Z</time></trkpt><trkpt lat="38.41309937603876" lon="16.07964539484858"><ele>221.20000000000002</ele><time>2026-04-12T15:19:17.002Z</time></trkpt><trkpt lat="38.41315872879655" lon="16.079744319026755"><ele>221.0</ele><time>2026-04-12T15:19:18.002Z</time></trkpt><trkpt lat="38.413225639198274" lon="16.079841525047346"><ele>222.25</ele><time>2026-04-12T15:19:19.002Z</time></trkpt><trkpt lat="38.41328694081268" lon="16.0799425547821"><ele>223.5</ele><time>2026-04-12T15:19:20.002Z</time></trkpt><trkpt lat="38.41335336352711" lon="16.080057260933668"><ele>224.75</ele><time>2026-04-12T15:19:21.002Z</time></trkpt><trkpt lat="38.413426502943075" lon="16.080183909397416"><ele>226.0</ele><time>2026-04-12T15:19:22.002Z</time></trkpt><trkpt lat="38.4134950141578" lon="16.080315080175435"><ele>226.0</ele><time>2026-04-12T15:19:23.002Z</time></trkpt><trkpt lat="38.413562275365535" lon="16.080439124052553"><ele>226.0</ele><time>2026-04-12T15:19:24.002Z</time></trkpt><trkpt lat="38.413628961307396" lon="16.080560017946336"><ele>226.0</ele><time>2026-04-12T15:19:25.002Z</time></trkpt><trkpt lat="38.413684144752786" lon="16.080686277105585"><ele>226.0</ele><time>2026-04-12T15:19:26.002Z</time></trkpt><trkpt lat="38.41373882094894" lon="16.080812908320638"><ele>225.75</ele><time>2026-04-12T15:19:27.002Z</time></trkpt><trkpt lat="38.41379404056279" lon="16.080939084622777"><ele>225.5</ele><time>2026-04-12T15:19:28.002Z</time></trkpt><trkpt lat="38.41385126684655" lon="16.08106860796254"><ele>225.25</ele><time>2026-04-12T15:19:29.003Z</time></trkpt><trkpt lat="38.41390950530236" lon="16.081192709544002"><ele>225.0</ele><time>2026-04-12T15:19:30.003Z</time></trkpt><trkpt lat="38.41396410517559" lon="16.081311597161463"><ele>225.0</ele><time>2026-04-12T15:19:31.003Z</time></trkpt><trkpt lat="38.414023876495264" lon="16.08143296937918"><ele>225.0</ele><time>2026-04-12T15:19:32.003Z</time></trkpt><trkpt lat="38.41408026952535" lon="16.081556602532952"><ele>225.0</ele><time>2026-04-12T15:19:33.003Z</time></trkpt><trkpt lat="38.414134705638965" lon="16.081677418496145"><ele>225.0</ele><time>2026-04-12T15:19:34.003Z</time></trkpt><trkpt lat="38.414194661495685" lon="16.081792774212342"><ele>225.0</ele><time>2026-04-12T15:19:35.003Z</time></trkpt><trkpt lat="38.41425004041743" lon="16.08191655117447"><ele>225.8</ele><time>2026-04-12T15:19:36.003Z</time></trkpt><trkpt lat="38.414303360359185" lon="16.08203464132894"><ele>226.6</ele><time>2026-04-12T15:19:37.003Z</time></trkpt><trkpt lat="38.41435297230341" lon="16.082153460443305"><ele>227.39999999999998</ele><time>2026-04-12T15:19:38.003Z</time></trkpt><trkpt lat="38.4144116951315" lon="16.082268730735766"><ele>228.2</ele><time>2026-04-12T15:19:39.003Z</time></trkpt><trkpt lat="38.41447527614559" lon="16.08238581774518"><ele>229.0</ele><time>2026-04-12T15:19:40.003Z</time></trkpt><trkpt lat="38.414543798495046" lon="16.082502153084665"><ele>229.75</ele><time>2026-04-12T15:19:41.003Z</time></trkpt><trkpt lat="38.4146189970798" lon="16.082612946975857"><ele>230.5</ele><time>2026-04-12T15:19:42.003Z</time></trkpt><trkpt lat="38.41470433465637" lon="16.082712269583254"><ele>231.25</ele><time>2026-04-12T15:19:43.003Z</time></trkpt><trkpt lat="38.41479582274384" lon="16.082803023540958"><ele>232.0</ele><time>2026-04-12T15:19:44.003Z</time></trkpt><trkpt lat="38.4148894807862" lon="16.082886094994603"><ele>232.0</ele><time>2026-04-12T15:19:45.003Z</time></trkpt><trkpt lat="38.41498023885903" lon="16.082966888549542"><ele>232.0</ele><time>2026-04-12T15:19:46.003Z</time></trkpt><trkpt lat="38.41507312284837" lon="16.083042970496145"><ele>232.0</ele><time>2026-04-12T15:19:47.003Z</time></trkpt><trkpt lat="38.41515276537983" lon="16.083107499669655"><ele>232.0</ele><time>2026-04-12T15:19:48.003Z</time></trkpt><trkpt lat="38.415226913530184" lon="16.083166613030915"><ele>232.0</ele><time>2026-04-12T15:19:49.003Z</time></trkpt><trkpt lat="38.415307083043345" lon="16.083206164729802"><ele>232.0</ele><time>2026-04-12T15:19:50.003Z</time></trkpt><trkpt lat="38.4153978132199" lon="16.083297352450597"><ele>232.0</ele><time>2026-04-12T15:19:52.003Z</time></trkpt><trkpt lat="38.41547045211352" lon="16.083395850844564"><ele>232.0</ele><time>2026-04-12T15:19:54.003Z</time></trkpt><trkpt lat="38.415542309040646" lon="16.083478552552492"><ele>232.0</ele><time>2026-04-12T15:19:56Z</time></trkpt><trkpt lat="38.4156638161622" lon="16.08352757451968"><ele>232.0</ele><time>2026-04-12T15:19:58Z</time></trkpt><trkpt lat="38.415727799100424" lon="16.083529980605213"><ele>231.99999999999997</ele><time>2026-04-12T15:19:59Z</time></trkpt><trkpt lat="38.41579900694627" lon="16.083499447719245"><ele>232.0</ele><time>2026-04-12T15:20:00Z</time></trkpt><trkpt lat="38.415867845471766" lon="16.083446495879752"><ele>232.0</ele><time>2026-04-12T15:20:01Z</time></trkpt><trkpt lat="38.41593755122709" lon="16.08339873845489"><ele>232.0</ele><time>2026-04-12T15:20:02Z</time></trkpt><trkpt lat="38.415992960582045" lon="16.083345401138633"><ele>231.99999999999997</ele><time>2026-04-12T15:20:03Z</time></trkpt><trkpt lat="38.416063478055726" lon="16.083372775134457"><ele>232.0</ele><time>2026-04-12T15:20:04Z</time></trkpt><trkpt lat="38.41619094082378" lon="16.083367812735485"><ele>231.99999999999997</ele><time>2026-04-12T15:20:06Z</time></trkpt><trkpt lat="38.41626288266843" lon="16.083354473468955"><ele>232.0</ele><time>2026-04-12T15:20:07Z</time></trkpt><trkpt lat="38.416339475845376" lon="16.083339957666766"><ele>232.0</ele><time>2026-04-12T15:20:08Z</time></trkpt><trkpt lat="38.41641626432175" lon="16.08331835466153"><ele>232.0</ele><time>2026-04-12T15:20:09Z</time></trkpt><trkpt lat="38.41649814862059" lon="16.083297500573266"><ele>231.99999999999997</ele><time>2026-04-12T15:20:10Z</time></trkpt><trkpt lat="38.416588408627504" lon="16.08327807292254"><ele>232.0</ele><time>2026-04-12T15:20:11Z</time></trkpt><trkpt lat="38.41667170228813" lon="16.083254672973194"><ele>232.16666666666666</ele><time>2026-04-12T15:20:12Z</time></trkpt><trkpt lat="38.4167541696779" lon="16.083227358066168"><ele>232.33333333333331</ele><time>2026-04-12T15:20:13Z</time></trkpt><trkpt lat="38.41682642929909" lon="16.083194309921865"><ele>232.5</ele><time>2026-04-12T15:20:14Z</time></trkpt><trkpt lat="38.41690105729168" lon="16.08316526306896"><ele>232.66666666666669</ele><time>2026-04-12T15:20:15Z</time></trkpt><trkpt lat="38.41698016537363" lon="16.0831340487513"><ele>232.83333333333334</ele><time>2026-04-12T15:20:16Z</time></trkpt><trkpt lat="38.41706058079338" lon="16.083107628363614"><ele>233.0</ele><time>2026-04-12T15:20:17Z</time></trkpt><trkpt lat="38.41714347978041" lon="16.08308676068908"><ele>232.83333333333334</ele><time>2026-04-12T15:20:18.001Z</time></trkpt><trkpt lat="38.41722445530792" lon="16.08306747814327"><ele>232.66666666666669</ele><time>2026-04-12T15:20:19.001Z</time></trkpt><trkpt lat="38.417308284944724" lon="16.083047557900688"><ele>232.5</ele><time>2026-04-12T15:20:20.001Z</time></trkpt><trkpt lat="38.41738816918688" lon="16.08304276148246"><ele>232.33333333333331</ele><time>2026-04-12T15:20:21.001Z</time></trkpt><trkpt lat="38.417474149372104" lon="16.083037227175154"><ele>232.16666666666666</ele><time>2026-04-12T15:20:22.001Z</time></trkpt><trkpt lat="38.41755520600799" lon="16.083033676496594"><ele>232.0</ele><time>2026-04-12T15:20:23.001Z</time></trkpt><trkpt lat="38.41763033889344" lon="16.08302835257705"><ele>231.99999999999997</ele><time>2026-04-12T15:20:24.001Z</time></trkpt><trkpt lat="38.41769974443103" lon="16.083038218852206"><ele>232.0</ele><time>2026-04-12T15:20:25.001Z</time></trkpt><trkpt lat="38.417820998080444" lon="16.083027839126643"><ele>232.0</ele><time>2026-04-12T15:20:27.001Z</time></trkpt><trkpt lat="38.41788817723329" lon="16.083021561793114"><ele>232.0</ele><time>2026-04-12T15:20:28.001Z</time></trkpt><trkpt lat="38.41795852356657" lon="16.08299324892662"><ele>231.99999999999997</ele><time>2026-04-12T15:20:29.001Z</time></trkpt><trkpt lat="38.41802301154089" lon="16.082987027177392"><ele>232.0</ele><time>2026-04-12T15:20:30.001Z</time></trkpt><trkpt lat="38.418115293738936" lon="16.082989374133007"><ele>231.6</ele><time>2026-04-12T15:20:32.001Z</time></trkpt><trkpt lat="38.41819527746955" lon="16.08297203633217"><ele>231.2</ele><time>2026-04-12T15:20:35.001Z</time></trkpt><trkpt lat="38.418285330969766" lon="16.082934210741374"><ele>230.8</ele><time>2026-04-12T15:20:38.001Z</time></trkpt><trkpt lat="38.41836401469069" lon="16.08294383916366"><ele>230.4</ele><time>2026-04-12T15:20:40.001Z</time></trkpt><trkpt lat="38.41843301007246" lon="16.082934839767894"><ele>230.0</ele><time>2026-04-12T15:20:42.001Z</time></trkpt><trkpt lat="38.41842761281628" lon="16.082681620948353"><ele>230.0</ele><time>2026-04-12T15:20:45.001Z</time></trkpt><trkpt lat="38.41838476885451" lon="16.08252789477903"><ele>230.0</ele><time>2026-04-12T15:20:47.001Z</time></trkpt><trkpt lat="38.41836888606599" lon="16.082426937712203"><ele>230.0</ele><time>2026-04-12T15:20:48.001Z</time></trkpt><trkpt lat="38.41834952028563" lon="16.082315222088774"><ele>230.0</ele><time>2026-04-12T15:20:49.001Z</time></trkpt><trkpt lat="38.418329512986595" lon="16.082199234522346"><ele>230.0</ele><time>2026-04-12T15:20:50.001Z</time></trkpt><trkpt lat="38.4183117081984" lon="16.082080126081802"><ele>230.0</ele><time>2026-04-12T15:20:51.001Z</time></trkpt><trkpt lat="38.41829047656686" lon="16.081952678670053"><ele>230.0</ele><time>2026-04-12T15:20:52.001Z</time></trkpt><trkpt lat="38.41826506762515" lon="16.08181590865024"><ele>230.0</ele><time>2026-04-12T15:20:53.001Z</time></trkpt><trkpt lat="38.41823761978027" lon="16.08167519504393"><ele>230.0</ele><time>2026-04-12T15:20:54.001Z</time></trkpt><trkpt lat="38.41820987405015" lon="16.08153381770095"><ele>230.0</ele><time>2026-04-12T15:20:55.001Z</time></trkpt><trkpt lat="38.4181821856749" lon="16.081394256116734"><ele>230.0</ele><time>2026-04-12T15:20:56.001Z</time></trkpt><trkpt lat="38.41816033490483" lon="16.081260555024983"><ele>230.0</ele><time>2026-04-12T15:20:57.001Z</time></trkpt><trkpt lat="38.418138287909436" lon="16.0811293677485"><ele>230.0</ele><time>2026-04-12T15:20:58.001Z</time></trkpt><trkpt lat="38.418113638261836" lon="16.080997153898835"><ele>230.0</ele><time>2026-04-12T15:20:59.001Z</time></trkpt><trkpt lat="38.41808645089555" lon="16.080859296301913"><ele>230.0</ele><time>2026-04-12T15:21:00.002Z</time></trkpt><trkpt lat="38.41806115098095" lon="16.080714803041484"><ele>230.0</ele><time>2026-04-12T15:21:01.002Z</time></trkpt><trkpt lat="38.41803709600624" lon="16.08056055772599"><ele>230.0</ele><time>2026-04-12T15:21:02.002Z</time></trkpt><trkpt lat="38.41801089401839" lon="16.080400818155134"><ele>230.0</ele><time>2026-04-12T15:21:03.002Z</time></trkpt><trkpt lat="38.417948817796095" lon="16.080261981153495"><ele>230.0</ele><time>2026-04-12T15:21:04.002Z</time></trkpt><trkpt lat="38.41795829663378" lon="16.0800784541475"><ele>229.25</ele><time>2026-04-12T15:21:05.002Z</time></trkpt><trkpt lat="38.41793255671149" lon="16.079921088601658"><ele>228.5</ele><time>2026-04-12T15:21:06.002Z</time></trkpt><trkpt lat="38.41790800687335" lon="16.079764700893634"><ele>227.75</ele><time>2026-04-12T15:21:07.002Z</time></trkpt><trkpt lat="38.41788389063069" lon="16.079608426075893"><ele>227.0</ele><time>2026-04-12T15:21:08.002Z</time></trkpt><trkpt lat="38.41785872512531" lon="16.079446404999302"><ele>227.0</ele><time>2026-04-12T15:21:09.002Z</time></trkpt><trkpt lat="38.417831539024014" lon="16.079279320180593"><ele>227.0</ele><time>2026-04-12T15:21:10.002Z</time></trkpt><trkpt lat="38.41780790026419" lon="16.079110591527456"><ele>227.0</ele><time>2026-04-12T15:21:11.002Z</time></trkpt><trkpt lat="38.41778383217716" lon="16.0789334301282"><ele>227.0</ele><time>2026-04-12T15:21:12.002Z</time></trkpt><trkpt lat="38.417759663352264" lon="16.07875410857541"><ele>225.5</ele><time>2026-04-12T15:21:13.002Z</time></trkpt><trkpt lat="38.41773087227219" lon="16.0785724714954"><ele>224.0</ele><time>2026-04-12T15:21:14.002Z</time></trkpt><trkpt lat="38.4176999413529" lon="16.078386218232993"><ele>222.5</ele><time>2026-04-12T15:21:15.002Z</time></trkpt><trkpt lat="38.41767265700308" lon="16.078196525464637"><ele>221.0</ele><time>2026-04-12T15:21:16.002Z</time></trkpt><trkpt lat="38.41764873724642" lon="16.078004047086203"><ele>221.0</ele><time>2026-04-12T15:21:17.002Z</time></trkpt><trkpt lat="38.41763907079314" lon="16.077799862282287"><ele>221.0</ele><time>2026-04-12T15:21:18.002Z</time></trkpt><trkpt lat="38.41759827146664" lon="16.07760061559436"><ele>221.0</ele><time>2026-04-12T15:21:19.002Z</time></trkpt><trkpt lat="38.41758969888054" lon="16.07738778206136"><ele>220.33333333333334</ele><time>2026-04-12T15:21:20.002Z</time></trkpt><trkpt lat="38.417548967241565" lon="16.077177757856084"><ele>219.66666666666669</ele><time>2026-04-12T15:21:21.002Z</time></trkpt><trkpt lat="38.417526543531906" lon="16.076958141238396"><ele>219.0</ele><time>2026-04-12T15:21:22.002Z</time></trkpt><trkpt lat="38.41750646229296" lon="16.076742544919853"><ele>218.33333333333331</ele><time>2026-04-12T15:21:23.002Z</time></trkpt><trkpt lat="38.41748589428559" lon="16.076526984161397"><ele>217.66666666666666</ele><time>2026-04-12T15:21:24.002Z</time></trkpt><trkpt lat="38.41746944693956" lon="16.07631409632773"><ele>217.0</ele><time>2026-04-12T15:21:25.002Z</time></trkpt><trkpt lat="38.41745518995251" lon="16.076101899601916"><ele>217.0</ele><time>2026-04-12T15:21:26.002Z</time></trkpt><trkpt lat="38.41744146848585" lon="16.0758863899236"><ele>217.0</ele><time>2026-04-12T15:21:27.002Z</time></trkpt><trkpt lat="38.4174299836473" lon="16.0756761440079"><ele>217.0</ele><time>2026-04-12T15:21:28.002Z</time></trkpt><trkpt lat="38.417434321916076" lon="16.075475951626615"><ele>216.0</ele><time>2026-04-12T15:21:29.002Z</time></trkpt><trkpt lat="38.41743037171889" lon="16.07529303084379"><ele>215.0</ele><time>2026-04-12T15:21:30.002Z</time></trkpt><trkpt lat="38.41742715163614" lon="16.0751333044898"><ele>214.0</ele><time>2026-04-12T15:21:31.002Z</time></trkpt><trkpt lat="38.4174253452132" lon="16.0749799154575"><ele>213.0</ele><time>2026-04-12T15:21:32.002Z</time></trkpt><trkpt lat="38.417423865435595" lon="16.07483074169039"><ele>213.0</ele><time>2026-04-12T15:21:33.002Z</time></trkpt><trkpt lat="38.41740830207331" lon="16.074684218944963"><ele>213.0</ele><time>2026-04-12T15:21:34.002Z</time></trkpt><trkpt lat="38.417414807150934" lon="16.074536490967994"><ele>213.0</ele><time>2026-04-12T15:21:35.002Z</time></trkpt><trkpt lat="38.41741954161767" lon="16.074375908271474"><ele>213.0</ele><time>2026-04-12T15:21:36.002Z</time></trkpt><trkpt lat="38.41742438587885" lon="16.07420820300517"><ele>213.0</ele><time>2026-04-12T15:21:37.003Z</time></trkpt><trkpt lat="38.41743242773289" lon="16.074032094807666"><ele>213.0</ele><time>2026-04-12T15:21:38.003Z</time></trkpt><trkpt lat="38.41744635190461" lon="16.0738608087916"><ele>213.0</ele><time>2026-04-12T15:21:39.003Z</time></trkpt><trkpt lat="38.41745969566368" lon="16.07369430043832"><ele>213.0</ele><time>2026-04-12T15:21:40.003Z</time></trkpt><trkpt lat="38.4174724614247" lon="16.073528304967674"><ele>213.0</ele><time>2026-04-12T15:21:41.003Z</time></trkpt><trkpt lat="38.4174850621038" lon="16.073362733935824"><ele>213.0</ele><time>2026-04-12T15:21:42.003Z</time></trkpt><trkpt lat="38.41750354845638" lon="16.07320149118013"><ele>213.0</ele><time>2026-04-12T15:21:43.003Z</time></trkpt><trkpt lat="38.41752196452507" lon="16.07303628194789"><ele>213.0</ele><time>2026-04-12T15:21:44.003Z</time></trkpt><trkpt lat="38.41754478219171" lon="16.07287015857483"><ele>212.75</ele><time>2026-04-12T15:21:45.003Z</time></trkpt><trkpt lat="38.41756905184623" lon="16.072700711703643"><ele>212.5</ele><time>2026-04-12T15:21:46.003Z</time></trkpt><trkpt lat="38.41759439431311" lon="16.072531802947548"><ele>212.25</ele><time>2026-04-12T15:21:47.003Z</time></trkpt><trkpt lat="38.417622152794074" lon="16.072361837322365"><ele>212.0</ele><time>2026-04-12T15:21:48.003Z</time></trkpt><trkpt lat="38.417651469526795" lon="16.072188932572708"><ele>211.5</ele><time>2026-04-12T15:21:49.003Z</time></trkpt><trkpt lat="38.41768456333836" lon="16.072009162986173"><ele>211.0</ele><time>2026-04-12T15:21:50.003Z</time></trkpt><trkpt lat="38.41771952698523" lon="16.071823707995367"><ele>210.5</ele><time>2026-04-12T15:21:51.003Z</time></trkpt><trkpt lat="38.41775554072239" lon="16.07163830098196"><ele>210.0</ele><time>2026-04-12T15:21:52.003Z</time></trkpt><trkpt lat="38.41779838076114" lon="16.071449041296077"><ele>208.33333333333331</ele><time>2026-04-12T15:21:53.003Z</time></trkpt><trkpt lat="38.417844634307045" lon="16.071256656170238"><ele>206.66666666666666</ele><time>2026-04-12T15:21:54.003Z</time></trkpt><trkpt lat="38.41789413479097" lon="16.07106845179104"><ele>205.0</ele><time>2026-04-12T15:21:55.003Z</time></trkpt><trkpt lat="38.417944208034" lon="16.07087693120306"><ele>204.66666666666666</ele><time>2026-04-12T15:21:56.003Z</time></trkpt><trkpt lat="38.417992783968316" lon="16.070688416849432"><ele>204.33333333333331</ele><time>2026-04-12T15:21:57.003Z</time></trkpt><trkpt lat="38.41804493128738" lon="16.07050788165061"><ele>204.0</ele><time>2026-04-12T15:21:58.003Z</time></trkpt><trkpt lat="38.41809819680792" lon="16.07032481935877"><ele>204.0</ele><time>2026-04-12T15:21:59.003Z</time></trkpt><trkpt lat="38.41815416426689" lon="16.070148113254287"><ele>204.0</ele><time>2026-04-12T15:22:00.003Z</time></trkpt><trkpt lat="38.41821231126014" lon="16.069974885412034"><ele>204.0</ele><time>2026-04-12T15:22:01.003Z</time></trkpt><trkpt lat="38.41826930325008" lon="16.069810762939497"><ele>204.0</ele><time>2026-04-12T15:22:02Z</time></trkpt><trkpt lat="38.418327082621566" lon="16.06964940587497"><ele>203.75</ele><time>2026-04-12T15:22:03Z</time></trkpt><trkpt lat="38.418383498166754" lon="16.069483011188485"><ele>203.5</ele><time>2026-04-12T15:22:04Z</time></trkpt><trkpt lat="38.41844665627368" lon="16.069329566973693"><ele>203.25</ele><time>2026-04-12T15:22:05Z</time></trkpt><trkpt lat="38.41851169865131" lon="16.06917057483284"><ele>203.0</ele><time>2026-04-12T15:22:06Z</time></trkpt><trkpt lat="38.41857644299692" lon="16.069005997392562"><ele>203.25</ele><time>2026-04-12T15:22:07Z</time></trkpt><trkpt lat="38.418647894312166" lon="16.068842146270946"><ele>203.5</ele><time>2026-04-12T15:22:08Z</time></trkpt><trkpt lat="38.4187210494683" lon="16.068675735439633"><ele>203.75</ele><time>2026-04-12T15:22:09Z</time></trkpt><trkpt lat="38.41879866349579" lon="16.068512273826908"><ele>204.0</ele><time>2026-04-12T15:22:10Z</time></trkpt><trkpt lat="38.418876974731575" lon="16.06834237375795"><ele>203.0</ele><time>2026-04-12T15:22:11Z</time></trkpt><trkpt lat="38.41895831869445" lon="16.06816913635823"><ele>202.0</ele><time>2026-04-12T15:22:12Z</time></trkpt><trkpt lat="38.419041685191196" lon="16.067995206692856"><ele>201.0</ele><time>2026-04-12T15:22:13Z</time></trkpt><trkpt lat="38.41912400635886" lon="16.06783543996118"><ele>201.0</ele><time>2026-04-12T15:22:14Z</time></trkpt><trkpt lat="38.4192039922069" lon="16.067675338926275"><ele>201.0</ele><time>2026-04-12T15:22:15Z</time></trkpt><trkpt lat="38.41928630773263" lon="16.067522620473596"><ele>201.0</ele><time>2026-04-12T15:22:16Z</time></trkpt><trkpt lat="38.41937242632988" lon="16.067370703879657"><ele>201.0</ele><time>2026-04-12T15:22:17Z</time></trkpt><trkpt lat="38.41945799788118" lon="16.06721739148745"><ele>201.25</ele><time>2026-04-12T15:22:18Z</time></trkpt><trkpt lat="38.41954479192422" lon="16.067064292496692"><ele>201.5</ele><time>2026-04-12T15:22:19Z</time></trkpt><trkpt lat="38.41963280115322" lon="16.066911974412687"><ele>201.75</ele><time>2026-04-12T15:22:20Z</time></trkpt><trkpt lat="38.419723383550135" lon="16.06675892130591"><ele>202.0</ele><time>2026-04-12T15:22:21Z</time></trkpt><trkpt lat="38.41981669999472" lon="16.066603510016183"><ele>200.75</ele><time>2026-04-12T15:22:22Z</time></trkpt><trkpt lat="38.41990746218566" lon="16.06645085183115"><ele>199.5</ele><time>2026-04-12T15:22:23Z</time></trkpt><trkpt lat="38.41999651930337" lon="16.066310442446778"><ele>198.25</ele><time>2026-04-12T15:22:24Z</time></trkpt><trkpt lat="38.42008072439804" lon="16.066180305488192"><ele>197.0</ele><time>2026-04-12T15:22:25Z</time></trkpt><trkpt lat="38.42015798166744" lon="16.06605324109866"><ele>197.0</ele><time>2026-04-12T15:22:26Z</time></trkpt><trkpt lat="38.42024402510032" lon="16.06593610300215"><ele>197.0</ele><time>2026-04-12T15:22:27Z</time></trkpt><trkpt lat="38.42032116407164" lon="16.065829685631"><ele>197.0</ele><time>2026-04-12T15:22:28Z</time></trkpt><trkpt lat="38.42039352658272" lon="16.065724334951188"><ele>197.0</ele><time>2026-04-12T15:22:29Z</time></trkpt><trkpt lat="38.42046979121617" lon="16.065621654143193"><ele>196.6</ele><time>2026-04-12T15:22:30Z</time></trkpt><trkpt lat="38.420541319241416" lon="16.065522598566993"><ele>196.2</ele><time>2026-04-12T15:22:31Z</time></trkpt><trkpt lat="38.420611455042454" lon="16.065427487600076"><ele>195.8</ele><time>2026-04-12T15:22:32Z</time></trkpt><trkpt lat="38.420679835519735" lon="16.065336990584303"><ele>195.4</ele><time>2026-04-12T15:22:33Z</time></trkpt><trkpt lat="38.42074931734447" lon="16.065249533734647"><ele>195.0</ele><time>2026-04-12T15:22:34Z</time></trkpt><trkpt lat="38.4208172909206" lon="16.065166146291727"><ele>195.0</ele><time>2026-04-12T15:22:35Z</time></trkpt><trkpt lat="38.4208846820951" lon="16.065086311676563"><ele>195.0</ele><time>2026-04-12T15:22:36Z</time></trkpt><trkpt lat="38.42095326462702" lon="16.065007366356667"><ele>195.0</ele><time>2026-04-12T15:22:37Z</time></trkpt><trkpt lat="38.42101747891749" lon="16.06493561621195"><ele>195.0</ele><time>2026-04-12T15:22:38Z</time></trkpt><trkpt lat="38.42107214849995" lon="16.06487838050967"><ele>195.0</ele><time>2026-04-12T15:22:39Z</time></trkpt><trkpt lat="38.42116830738787" lon="16.06479556780211"><ele>195.0</ele><time>2026-04-12T15:22:41.001Z</time></trkpt><trkpt lat="38.421260584374615" lon="16.06477146129313"><ele>195.0</ele><time>2026-04-12T15:22:43.001Z</time></trkpt><trkpt lat="38.42128850136348" lon="16.06467828825944"><ele>195.0</ele><time>2026-04-12T15:22:44.001Z</time></trkpt><trkpt lat="38.42135777827378" lon="16.064595634802718"><ele>195.0</ele><time>2026-04-12T15:22:46.001Z</time></trkpt><trkpt lat="38.421413127274846" lon="16.06454487199316"><ele>195.0</ele><time>2026-04-12T15:22:49.001Z</time></trkpt><trkpt lat="38.421449803420664" lon="16.064474835244475"><ele>195.0</ele><time>2026-04-12T15:36:54.001Z</time></trkpt><trkpt lat="38.42152816075714" lon="16.06437530795446"><ele>195.0</ele><time>2026-04-12T15:36:56.001Z</time></trkpt><trkpt lat="38.421586098722024" lon="16.064279134450565"><ele>195.0</ele><time>2026-04-12T15:36:58.001Z</time></trkpt><trkpt lat="38.42163272315026" lon="16.06417124008708"><ele>195.0</ele><time>2026-04-12T15:37:00.001Z</time></trkpt><trkpt lat="38.42166858494165" lon="16.06410457821168"><ele>195.0</ele><time>2026-04-12T15:37:01.001Z</time></trkpt><trkpt lat="38.421718619084245" lon="16.064030918748013"><ele>195.0</ele><time>2026-04-12T15:37:02.001Z</time></trkpt><trkpt lat="38.42177537047311" lon="16.063952370149774"><ele>195.0</ele><time>2026-04-12T15:37:03.001Z</time></trkpt><trkpt lat="38.42183455855366" lon="16.06387240647908"><ele>194.4</ele><time>2026-04-12T15:37:04.001Z</time></trkpt><trkpt lat="38.42190203803636" lon="16.063779185814536"><ele>193.8</ele><time>2026-04-12T15:37:05.001Z</time></trkpt><trkpt lat="38.42197362053593" lon="16.063683008097602"><ele>193.2</ele><time>2026-04-12T15:37:06.001Z</time></trkpt><trkpt lat="38.42205006662278" lon="16.0635786415584"><ele>192.6</ele><time>2026-04-12T15:37:07.001Z</time></trkpt><trkpt lat="38.42212946201122" lon="16.063475232129875"><ele>192.0</ele><time>2026-04-12T15:37:08.001Z</time></trkpt><trkpt lat="38.42221200188264" lon="16.063372579808696"><ele>191.5</ele><time>2026-04-12T15:37:09.001Z</time></trkpt><trkpt lat="38.42229814257654" lon="16.06327099573917"><ele>191.0</ele><time>2026-04-12T15:37:10.001Z</time></trkpt><trkpt lat="38.42238341474779" lon="16.06316710110498"><ele>190.5</ele><time>2026-04-12T15:37:11.001Z</time></trkpt><trkpt lat="38.42246396625739" lon="16.06306851825081"><ele>190.0</ele><time>2026-04-12T15:37:12.001Z</time></trkpt><trkpt lat="38.422545214328345" lon="16.06296820321024"><ele>190.0</ele><time>2026-04-12T15:37:13.001Z</time></trkpt><trkpt lat="38.42261901874346" lon="16.06287890171122"><ele>190.0</ele><time>2026-04-12T15:37:14.001Z</time></trkpt><trkpt lat="38.422687108887416" lon="16.062794153932984"><ele>190.0</ele><time>2026-04-12T15:37:15.001Z</time></trkpt><trkpt lat="38.42275384382146" lon="16.062707728636596"><ele>190.0</ele><time>2026-04-12T15:37:16.001Z</time></trkpt><trkpt lat="38.42282111696132" lon="16.062621331394205"><ele>190.0</ele><time>2026-04-12T15:37:17.001Z</time></trkpt><trkpt lat="38.422888722547754" lon="16.062539821093928"><ele>190.0</ele><time>2026-04-12T15:37:18.001Z</time></trkpt><trkpt lat="38.422960334567854" lon="16.06245753069383"><ele>190.0</ele><time>2026-04-12T15:37:19.001Z</time></trkpt><trkpt lat="38.4230345964446" lon="16.062375332459645"><ele>190.0</ele><time>2026-04-12T15:37:20.001Z</time></trkpt><trkpt lat="38.42310927461781" lon="16.062288564412732"><ele>190.0</ele><time>2026-04-12T15:37:21.001Z</time></trkpt><trkpt lat="38.42318092854296" lon="16.062199314829627"><ele>190.0</ele><time>2026-04-12T15:37:22.001Z</time></trkpt><trkpt lat="38.42325090976428" lon="16.062119382288454"><ele>189.6</ele><time>2026-04-12T15:37:23Z</time></trkpt><trkpt lat="38.423320626347525" lon="16.062036356500162"><ele>189.2</ele><time>2026-04-12T15:37:24Z</time></trkpt><trkpt lat="38.423392757682606" lon="16.061945045870353"><ele>188.8</ele><time>2026-04-12T15:37:25Z</time></trkpt><trkpt lat="38.42347323287033" lon="16.06186037651431"><ele>188.4</ele><time>2026-04-12T15:37:26Z</time></trkpt><trkpt lat="38.42355585868634" lon="16.061766318722967"><ele>188.0</ele><time>2026-04-12T15:37:27Z</time></trkpt><trkpt lat="38.4236449492224" lon="16.061664131365802"><ele>187.75</ele><time>2026-04-12T15:37:28Z</time></trkpt><trkpt lat="38.42373145663078" lon="16.06155806212841"><ele>187.5</ele><time>2026-04-12T15:37:29Z</time></trkpt><trkpt lat="38.42382133170074" lon="16.061451676186707"><ele>187.25</ele><time>2026-04-12T15:37:30Z</time></trkpt><trkpt lat="38.423915832119555" lon="16.061342510582506"><ele>187.0</ele><time>2026-04-12T15:37:31Z</time></trkpt><trkpt lat="38.424013140198184" lon="16.06122689312608"><ele>185.75</ele><time>2026-04-12T15:37:32Z</time></trkpt><trkpt lat="38.42411597345822" lon="16.061111705539478"><ele>184.5</ele><time>2026-04-12T15:37:33Z</time></trkpt><trkpt lat="38.424215583259716" lon="16.061000554871445"><ele>183.25</ele><time>2026-04-12T15:37:34Z</time></trkpt><trkpt lat="38.424317167843725" lon="16.060873639481354"><ele>182.0</ele><time>2026-04-12T15:37:35Z</time></trkpt><trkpt lat="38.42442761337918" lon="16.060757186087013"><ele>182.0</ele><time>2026-04-12T15:37:36Z</time></trkpt><trkpt lat="38.42452691886267" lon="16.060638690176784"><ele>182.0</ele><time>2026-04-12T15:37:37Z</time></trkpt><trkpt lat="38.424635173786044" lon="16.060519257127844"><ele>182.0</ele><time>2026-04-12T15:37:38Z</time></trkpt><trkpt lat="38.424747351211494" lon="16.060390922521556"><ele>182.0</ele><time>2026-04-12T15:37:39Z</time></trkpt><trkpt lat="38.424863239699505" lon="16.060262949826022"><ele>182.0</ele><time>2026-04-12T15:37:40Z</time></trkpt><trkpt lat="38.424980083930244" lon="16.060131346203534"><ele>182.0</ele><time>2026-04-12T15:37:41Z</time></trkpt><trkpt lat="38.42509144426713" lon="16.060000794095007"><ele>182.0</ele><time>2026-04-12T15:37:42Z</time></trkpt><trkpt lat="38.42519643707058" lon="16.059872256225734"><ele>182.0</ele><time>2026-04-12T15:37:43Z</time></trkpt><trkpt lat="38.425301386051856" lon="16.05975101540623"><ele>182.0</ele><time>2026-04-12T15:37:44Z</time></trkpt><trkpt lat="38.42540815251697" lon="16.05963315931886"><ele>182.0</ele><time>2026-04-12T15:37:45Z</time></trkpt><trkpt lat="38.42551330966628" lon="16.059515710072095"><ele>182.0</ele><time>2026-04-12T15:37:46Z</time></trkpt><trkpt lat="38.42561549337099" lon="16.059401234637754"><ele>181.75</ele><time>2026-04-12T15:37:47Z</time></trkpt><trkpt lat="38.42571370701193" lon="16.05928973860869"><ele>181.5</ele><time>2026-04-12T15:37:48Z</time></trkpt><trkpt lat="38.4258085965228" lon="16.05917230814038"><ele>181.25</ele><time>2026-04-12T15:37:49Z</time></trkpt><trkpt lat="38.4259007064106" lon="16.05905801617876"><ele>181.0</ele><time>2026-04-12T15:37:50Z</time></trkpt><trkpt lat="38.42599646031498" lon="16.058938455289397"><ele>181.0</ele><time>2026-04-12T15:37:51Z</time></trkpt><trkpt lat="38.42610318347395" lon="16.05882893243066"><ele>181.0</ele><time>2026-04-12T15:37:52Z</time></trkpt><trkpt lat="38.42620231872768" lon="16.05871850435896"><ele>181.0</ele><time>2026-04-12T15:37:53Z</time></trkpt><trkpt lat="38.426299919172855" lon="16.058613750740843"><ele>181.0</ele><time>2026-04-12T15:37:54Z</time></trkpt><trkpt lat="38.42640138207616" lon="16.058491819521265"><ele>179.66666666666669</ele><time>2026-04-12T15:37:55Z</time></trkpt><trkpt lat="38.426508883847184" lon="16.058366717072328"><ele>178.33333333333334</ele><time>2026-04-12T15:37:56Z</time></trkpt><trkpt lat="38.42661350369669" lon="16.05824763730984"><ele>177.0</ele><time>2026-04-12T15:37:57Z</time></trkpt><trkpt lat="38.42674637062398" lon="16.058106885777114"><ele>176.66666666666666</ele><time>2026-04-12T15:37:58Z</time></trkpt><trkpt lat="38.42687447080417" lon="16.057951136487347"><ele>176.33333333333331</ele><time>2026-04-12T15:37:59Z</time></trkpt><trkpt lat="38.42701901881874" lon="16.057787090814323"><ele>176.0</ele><time>2026-04-12T15:38:00Z</time></trkpt><trkpt lat="38.427156731913705" lon="16.057628471098486"><ele>174.66666666666666</ele><time>2026-04-12T15:38:01Z</time></trkpt><trkpt lat="38.427292687811374" lon="16.057472545011013"><ele>173.33333333333334</ele><time>2026-04-12T15:38:02Z</time></trkpt><trkpt lat="38.427429954634974" lon="16.05731451023148"><ele>172.0</ele><time>2026-04-12T15:38:03Z</time></trkpt><trkpt lat="38.427562047578746" lon="16.057155660492004"><ele>171.0</ele><time>2026-04-12T15:38:04Z</time></trkpt><trkpt lat="38.42770383683946" lon="16.056999223011285"><ele>170.0</ele><time>2026-04-12T15:38:05Z</time></trkpt><trkpt lat="38.42784554414955" lon="16.056834536877034"><ele>169.0</ele><time>2026-04-12T15:38:06Z</time></trkpt><trkpt lat="38.427986888798124" lon="16.056670093611423"><ele>168.0</ele><time>2026-04-12T15:38:07Z</time></trkpt><trkpt lat="38.42813062170298" lon="16.05650226527627"><ele>167.0</ele><time>2026-04-12T15:38:08Z</time></trkpt><trkpt lat="38.42826644631025" lon="16.056339624630514"><ele>166.0</ele><time>2026-04-12T15:38:09Z</time></trkpt><trkpt lat="38.42840802486003" lon="16.05616888475904"><ele>166.0</ele><time>2026-04-12T15:38:10Z</time></trkpt><trkpt lat="38.428552337912954" lon="16.055993397927946"><ele>166.0</ele><time>2026-04-12T15:38:11Z</time></trkpt><trkpt lat="38.42869847466241" lon="16.055829083000244"><ele>166.0</ele><time>2026-04-12T15:38:12Z</time></trkpt><trkpt lat="38.428840182401686" lon="16.055663494084033"><ele>164.33333333333334</ele><time>2026-04-12T15:38:13Z</time></trkpt><trkpt lat="38.428979493435286" lon="16.05550012222002"><ele>162.66666666666666</ele><time>2026-04-12T15:38:14Z</time></trkpt><trkpt lat="38.429118829558064" lon="16.055340004693857"><ele>161.0</ele><time>2026-04-12T15:38:15Z</time></trkpt><trkpt lat="38.42925533466669" lon="16.055184688562562"><ele>161.0</ele><time>2026-04-12T15:38:16Z</time></trkpt><trkpt lat="38.42939041871126" lon="16.055030610980072"><ele>161.0</ele><time>2026-04-12T15:38:17Z</time></trkpt><trkpt lat="38.42952397153808" lon="16.054876676577106"><ele>161.0</ele><time>2026-04-12T15:38:18Z</time></trkpt><trkpt lat="38.42965311383128" lon="16.054724273123163"><ele>160.66666666666666</ele><time>2026-04-12T15:38:19Z</time></trkpt><trkpt lat="38.429784238110685" lon="16.05457439760276"><ele>160.33333333333334</ele><time>2026-04-12T15:38:20Z</time></trkpt><trkpt lat="38.4299045346282" lon="16.054431317197437"><ele>160.0</ele><time>2026-04-12T15:38:21Z</time></trkpt><trkpt lat="38.430021524587254" lon="16.054292220738255"><ele>160.0</ele><time>2026-04-12T15:38:22Z</time></trkpt><trkpt lat="38.430130283048115" lon="16.054166755445582"><ele>160.0</ele><time>2026-04-12T15:38:23Z</time></trkpt><trkpt lat="38.430240203137245" lon="16.054040222252386"><ele>160.0</ele><time>2026-04-12T15:38:24Z</time></trkpt><trkpt lat="38.43035083783491" lon="16.05391275073463"><ele>160.0</ele><time>2026-04-12T15:38:25Z</time></trkpt><trkpt lat="38.43046624926658" lon="16.053784407698057"><ele>159.66666666666669</ele><time>2026-04-12T15:38:26Z</time></trkpt><trkpt lat="38.4305798285921" lon="16.053653748146328"><ele>159.33333333333334</ele><time>2026-04-12T15:38:27Z</time></trkpt><trkpt lat="38.43069318204217" lon="16.053522382687177"><ele>159.0</ele><time>2026-04-12T15:38:28Z</time></trkpt><trkpt lat="38.43080456089688" lon="16.05339054755593"><ele>158.75</ele><time>2026-04-12T15:38:29Z</time></trkpt><trkpt lat="38.430912592543685" lon="16.05326786336934"><ele>158.5</ele><time>2026-04-12T15:38:30Z</time></trkpt><trkpt lat="38.43101321363365" lon="16.05315201437428"><ele>158.25</ele><time>2026-04-12T15:38:31Z</time></trkpt><trkpt lat="38.43110807586923" lon="16.05303567759144"><ele>158.0</ele><time>2026-04-12T15:38:32Z</time></trkpt><trkpt lat="38.43120639992767" lon="16.052922753310522"><ele>158.0</ele><time>2026-04-12T15:38:33Z</time></trkpt><trkpt lat="38.43130424386087" lon="16.052809658527572"><ele>158.0</ele><time>2026-04-12T15:38:34Z</time></trkpt><trkpt lat="38.43140226702448" lon="16.05269670292847"><ele>158.0</ele><time>2026-04-12T15:38:35Z</time></trkpt><trkpt lat="38.43150280831271" lon="16.05258126204626"><ele>158.0</ele><time>2026-04-12T15:38:36Z</time></trkpt><trkpt lat="38.43160724204596" lon="16.052462429398208"><ele>156.25</ele><time>2026-04-12T15:38:37Z</time></trkpt><trkpt lat="38.43171232786047" lon="16.052341064189267"><ele>154.5</ele><time>2026-04-12T15:38:38Z</time></trkpt><trkpt lat="38.431817790271175" lon="16.052217478436983"><ele>152.75</ele><time>2026-04-12T15:38:39Z</time></trkpt><trkpt lat="38.43192370495566" lon="16.052094124559922"><ele>151.0</ele><time>2026-04-12T15:38:40Z</time></trkpt><trkpt lat="38.43203124082902" lon="16.05196950593575"><ele>151.0</ele><time>2026-04-12T15:38:41Z</time></trkpt><trkpt lat="38.432138035834754" lon="16.05184159731131"><ele>151.0</ele><time>2026-04-12T15:38:42Z</time></trkpt><trkpt lat="38.43224938484859" lon="16.051712238302674"><ele>151.0</ele><time>2026-04-12T15:38:43Z</time></trkpt><trkpt lat="38.432358043422774" lon="16.051582039485435"><ele>151.0</ele><time>2026-04-12T15:38:44Z</time></trkpt><trkpt lat="38.432471721520514" lon="16.051451531802265"><ele>150.66666666666669</ele><time>2026-04-12T15:38:45Z</time></trkpt><trkpt lat="38.43258616379441" lon="16.05132248881185"><ele>150.33333333333334</ele><time>2026-04-12T15:38:46Z</time></trkpt><trkpt lat="38.43270209610122" lon="16.051187728381407"><ele>150.0</ele><time>2026-04-12T15:38:47Z</time></trkpt><trkpt lat="38.43281983279526" lon="16.051051812851025"><ele>150.0</ele><time>2026-04-12T15:38:47.998Z</time></trkpt><trkpt lat="38.43293143824172" lon="16.050921173553448"><ele>150.0</ele><time>2026-04-12T15:38:48.998Z</time></trkpt><trkpt lat="38.4330464355686" lon="16.050790238918818"><ele>150.0</ele><time>2026-04-12T15:38:49.998Z</time></trkpt><trkpt lat="38.433160868763046" lon="16.05066603385913"><ele>149.5</ele><time>2026-04-12T15:38:50.998Z</time></trkpt><trkpt lat="38.43327472196109" lon="16.050539643272266"><ele>149.0</ele><time>2026-04-12T15:38:51.998Z</time></trkpt><trkpt lat="38.433386258391785" lon="16.05041441633751"><ele>148.5</ele><time>2026-04-12T15:38:52.998Z</time></trkpt><trkpt lat="38.43349792616901" lon="16.050291677987133"><ele>148.0</ele><time>2026-04-12T15:38:53.998Z</time></trkpt><trkpt lat="38.4336099380947" lon="16.050168761915245"><ele>148.0</ele><time>2026-04-12T15:38:54.998Z</time></trkpt><trkpt lat="38.433722580674676" lon="16.05004830915305"><ele>148.0</ele><time>2026-04-12T15:38:55.998Z</time></trkpt><trkpt lat="38.433835937799486" lon="16.049928973136225"><ele>148.0</ele><time>2026-04-12T15:38:56.998Z</time></trkpt><trkpt lat="38.43394615879876" lon="16.049813505581174"><ele>148.0</ele><time>2026-04-12T15:38:57.998Z</time></trkpt><trkpt lat="38.43406321119758" lon="16.04968928603423"><ele>146.66666666666669</ele><time>2026-04-12T15:38:58.998Z</time></trkpt><trkpt lat="38.43418311010802" lon="16.049565257197962"><ele>145.33333333333334</ele><time>2026-04-12T15:38:59.998Z</time></trkpt><trkpt lat="38.4343086974319" lon="16.049438412305584"><ele>144.0</ele><time>2026-04-12T15:39:00.998Z</time></trkpt><trkpt lat="38.434436862465034" lon="16.049308823765553"><ele>144.0</ele><time>2026-04-12T15:39:01.998Z</time></trkpt><trkpt lat="38.43457690240933" lon="16.049172384738156"><ele>144.0</ele><time>2026-04-12T15:39:02.998Z</time></trkpt><trkpt lat="38.434708386791314" lon="16.0490472660904"><ele>144.0</ele><time>2026-04-12T15:39:03.998Z</time></trkpt><trkpt lat="38.434846403977595" lon="16.048913618616822"><ele>143.0</ele><time>2026-04-12T15:39:04.998Z</time></trkpt><trkpt lat="38.43498577061251" lon="16.04878543268431"><ele>142.0</ele><time>2026-04-12T15:39:05.998Z</time></trkpt><trkpt lat="38.4351256025966" lon="16.048656827571048"><ele>141.0</ele><time>2026-04-12T15:39:06.998Z</time></trkpt><trkpt lat="38.43527011595633" lon="16.048526013203208"><ele>141.0</ele><time>2026-04-12T15:39:07.999Z</time></trkpt><trkpt lat="38.43541438651265" lon="16.048394540287283"><ele>141.0</ele><time>2026-04-12T15:39:08.999Z</time></trkpt><trkpt lat="38.43556460430904" lon="16.0482577031568"><ele>141.0</ele><time>2026-04-12T15:39:09.999Z</time></trkpt><trkpt lat="38.43571228316547" lon="16.048123207018392"><ele>137.33333333333334</ele><time>2026-04-12T15:39:10.999Z</time></trkpt><trkpt lat="38.43584612188307" lon="16.04799713818295"><ele>133.66666666666669</ele><time>2026-04-12T15:39:11.999Z</time></trkpt><trkpt lat="38.43597503468986" lon="16.04787282840171"><ele>130.0</ele><time>2026-04-12T15:39:12.999Z</time></trkpt><trkpt lat="38.43610370490167" lon="16.047752091906254"><ele>130.0</ele><time>2026-04-12T15:39:13.999Z</time></trkpt><trkpt lat="38.436238689699884" lon="16.04762984072181"><ele>130.0</ele><time>2026-04-12T15:39:14.999Z</time></trkpt><trkpt lat="38.43638006805642" lon="16.04749583721029"><ele>130.0</ele><time>2026-04-12T15:39:15.999Z</time></trkpt><trkpt lat="38.436531888003124" lon="16.04734603349754"><ele>130.33333333333334</ele><time>2026-04-12T15:39:16.999Z</time></trkpt><trkpt lat="38.436696630812335" lon="16.047190146732966"><ele>130.66666666666666</ele><time>2026-04-12T15:39:17.999Z</time></trkpt><trkpt lat="38.43685771781869" lon="16.047035695160083"><ele>131.0</ele><time>2026-04-12T15:39:18.999Z</time></trkpt><trkpt lat="38.437013273061844" lon="16.046881018402484"><ele>132.33333333333331</ele><time>2026-04-12T15:39:19.999Z</time></trkpt><trkpt lat="38.43716492758199" lon="16.04672961433422"><ele>133.66666666666666</ele><time>2026-04-12T15:39:20.999Z</time></trkpt><trkpt lat="38.43731174149886" lon="16.046582133423275"><ele>135.0</ele><time>2026-04-12T15:39:21.999Z</time></trkpt><trkpt lat="38.43745184256823" lon="16.046437603008286"><ele>132.33333333333334</ele><time>2026-04-12T15:39:22.999Z</time></trkpt><trkpt lat="38.43759209671052" lon="16.04629926406961"><ele>129.66666666666669</ele><time>2026-04-12T15:39:23.999Z</time></trkpt><trkpt lat="38.43773040430271" lon="16.046160095052393"><ele>127.0</ele><time>2026-04-12T15:39:24.999Z</time></trkpt><trkpt lat="38.437865969635055" lon="16.046020208537605"><ele>127.66666666666667</ele><time>2026-04-12T15:39:25.999Z</time></trkpt><trkpt lat="38.438002782429876" lon="16.0458742694239"><ele>128.33333333333334</ele><time>2026-04-12T15:39:26.999Z</time></trkpt><trkpt lat="38.43813730381447" lon="16.04573437029842"><ele>129.0</ele><time>2026-04-12T15:39:27.999Z</time></trkpt><trkpt lat="38.43826963786214" lon="16.045595674045423"><ele>129.0</ele><time>2026-04-12T15:39:28.999Z</time></trkpt><trkpt lat="38.43840176465458" lon="16.045461132982766"><ele>129.0</ele><time>2026-04-12T15:39:29.999Z</time></trkpt><trkpt lat="38.438529260518315" lon="16.045325486319374"><ele>129.0</ele><time>2026-04-12T15:39:30.999Z</time></trkpt><trkpt lat="38.43864866442241" lon="16.04519388943645"><ele>129.0</ele><time>2026-04-12T15:39:31.999Z</time></trkpt><trkpt lat="38.43876491540327" lon="16.04506863985876"><ele>129.0</ele><time>2026-04-12T15:39:32.999Z</time></trkpt><trkpt lat="38.438876015349805" lon="16.044943863701953"><ele>129.0</ele><time>2026-04-12T15:39:33.999Z</time></trkpt><trkpt lat="38.438985976772564" lon="16.044824750065132"><ele>129.0</ele><time>2026-04-12T15:39:34.999Z</time></trkpt><trkpt lat="38.43909116818055" lon="16.04471106257765"><ele>126.25</ele><time>2026-04-12T15:39:35.999Z</time></trkpt><trkpt lat="38.43919981816967" lon="16.04459909666503"><ele>123.5</ele><time>2026-04-12T15:39:36.999Z</time></trkpt><trkpt lat="38.43930650536716" lon="16.04448223682049"><ele>120.75</ele><time>2026-04-12T15:39:37.999Z</time></trkpt><trkpt lat="38.439424113836644" lon="16.04436011551813"><ele>118.0</ele><time>2026-04-12T15:39:38.999Z</time></trkpt><trkpt lat="38.43954004394363" lon="16.04423323412518"><ele>115.0</ele><time>2026-04-12T15:39:39.999Z</time></trkpt><trkpt lat="38.4396561682992" lon="16.044105895130404"><ele>112.0</ele><time>2026-04-12T15:39:40.999Z</time></trkpt><trkpt lat="38.439773736661905" lon="16.043972387732495"><ele>109.0</ele><time>2026-04-12T15:39:41.999Z</time></trkpt><trkpt lat="38.43989561383539" lon="16.043840772859113"><ele>109.0</ele><time>2026-04-12T15:39:42.999Z</time></trkpt><trkpt lat="38.44002311311926" lon="16.043710644057782"><ele>109.0</ele><time>2026-04-12T15:39:43.999Z</time></trkpt><trkpt lat="38.44013954408727" lon="16.043577315432675"><ele>109.0</ele><time>2026-04-12T15:39:44.999Z</time></trkpt><trkpt lat="38.4402654181737" lon="16.043444196316514"><ele>109.0</ele><time>2026-04-12T15:39:45.999Z</time></trkpt><trkpt lat="38.44038754670245" lon="16.043303708511452"><ele>109.0</ele><time>2026-04-12T15:39:46.999Z</time></trkpt><trkpt lat="38.440511935839794" lon="16.043170132306553"><ele>109.0</ele><time>2026-04-12T15:39:47.999Z</time></trkpt><trkpt lat="38.44063761150206" lon="16.043033095659265"><ele>108.0</ele><time>2026-04-12T15:39:48.999Z</time></trkpt><trkpt lat="38.440766029166724" lon="16.0428923854358"><ele>107.0</ele><time>2026-04-12T15:39:49.999Z</time></trkpt><trkpt lat="38.44089604417306" lon="16.042754896773403"><ele>106.0</ele><time>2026-04-12T15:39:50.999Z</time></trkpt><trkpt lat="38.44102882860041" lon="16.042622607068843"><ele>106.0</ele><time>2026-04-12T15:39:51.999Z</time></trkpt><trkpt lat="38.44116832006804" lon="16.04248237033717"><ele>106.0</ele><time>2026-04-12T15:39:52.999Z</time></trkpt><trkpt lat="38.441307275540375" lon="16.04234586028791"><ele>106.0</ele><time>2026-04-12T15:39:53.999Z</time></trkpt><trkpt lat="38.44144693978664" lon="16.042208348364365"><ele>104.33333333333334</ele><time>2026-04-12T15:39:54.999Z</time></trkpt><trkpt lat="38.44159116812135" lon="16.042070358139178"><ele>102.66666666666666</ele><time>2026-04-12T15:39:55.999Z</time></trkpt><trkpt lat="38.44173403437442" lon="16.041937947537566"><ele>101.0</ele><time>2026-04-12T15:39:56.999Z</time></trkpt><trkpt lat="38.4418848310374" lon="16.041801650465157"><ele>101.0</ele><time>2026-04-12T15:39:57.999Z</time></trkpt><trkpt lat="38.442044456232495" lon="16.0416613407358"><ele>101.0</ele><time>2026-04-12T15:39:58.999Z</time></trkpt><trkpt lat="38.442204855095476" lon="16.041518436802466"><ele>101.0</ele><time>2026-04-12T15:39:59.999Z</time></trkpt><trkpt lat="38.44236945786604" lon="16.04137555401345"><ele>100.33333333333333</ele><time>2026-04-12T15:40:00.999Z</time></trkpt><trkpt lat="38.44253267441453" lon="16.041238669293158"><ele>99.66666666666666</ele><time>2026-04-12T15:40:01.999Z</time></trkpt><trkpt lat="38.442707099770416" lon="16.041088693406376"><ele>99.0</ele><time>2026-04-12T15:40:02.999Z</time></trkpt><trkpt lat="38.4428668382308" lon="16.04096910916872"><ele>98.0</ele><time>2026-04-12T15:40:03.999Z</time></trkpt><trkpt lat="38.44303527549427" lon="16.04083740514378"><ele>97.0</ele><time>2026-04-12T15:40:04.999Z</time></trkpt><trkpt lat="38.44320454780646" lon="16.04070615033362"><ele>96.0</ele><time>2026-04-12T15:40:05.999Z</time></trkpt><trkpt lat="38.44337319670316" lon="16.040574946944297"><ele>96.0</ele><time>2026-04-12T15:40:06.999Z</time></trkpt><trkpt lat="38.44354124978982" lon="16.04044762321341"><ele>96.0</ele><time>2026-04-12T15:40:07.999Z</time></trkpt><trkpt lat="38.443714812484075" lon="16.040316332155182"><ele>96.0</ele><time>2026-04-12T15:40:08.999Z</time></trkpt><trkpt lat="38.4438896099889" lon="16.040184171212193"><ele>96.0</ele><time>2026-04-12T15:40:09.999Z</time></trkpt><trkpt lat="38.44406736953906" lon="16.04005010007839"><ele>96.0</ele><time>2026-04-12T15:40:10.999Z</time></trkpt><trkpt lat="38.44424864234482" lon="16.03991769473812"><ele>96.0</ele><time>2026-04-12T15:40:11.999Z</time></trkpt><trkpt lat="38.44442871920371" lon="16.03978101241742"><ele>94.66666666666667</ele><time>2026-04-12T15:40:12.999Z</time></trkpt><trkpt lat="38.444610357622686" lon="16.03964552451996"><ele>93.33333333333334</ele><time>2026-04-12T15:40:13.999Z</time></trkpt><trkpt lat="38.44479161905671" lon="16.039510876638825"><ele>92.0</ele><time>2026-04-12T15:40:14.999Z</time></trkpt><trkpt lat="38.44497203763195" lon="16.0393791903667"><ele>92.0</ele><time>2026-04-12T15:40:15.999Z</time></trkpt><trkpt lat="38.445154608478326" lon="16.03924491097797"><ele>92.0</ele><time>2026-04-12T15:40:16.999Z</time></trkpt><trkpt lat="38.445332874452625" lon="16.039109867991424"><ele>92.0</ele><time>2026-04-12T15:40:17.999Z</time></trkpt><trkpt lat="38.445511001743505" lon="16.038976739488785"><ele>92.0</ele><time>2026-04-12T15:40:18.999Z</time></trkpt><trkpt lat="38.445687469278504" lon="16.038845793665917"><ele>92.0</ele><time>2026-04-12T15:40:19.999Z</time></trkpt><trkpt lat="38.44586554149818" lon="16.03871274421629"><ele>92.0</ele><time>2026-04-12T15:40:20.999Z</time></trkpt><trkpt lat="38.44604057291436" lon="16.038578199951832"><ele>92.0</ele><time>2026-04-12T15:40:21.999Z</time></trkpt><trkpt lat="38.44621808216519" lon="16.03844338868477"><ele>92.0</ele><time>2026-04-12T15:40:22.999Z</time></trkpt><trkpt lat="38.44639568923091" lon="16.038312134619808"><ele>92.0</ele><time>2026-04-12T15:40:23.999Z</time></trkpt><trkpt lat="38.446575576851785" lon="16.038180415211784"><ele>91.66666666666667</ele><time>2026-04-12T15:40:24.999Z</time></trkpt><trkpt lat="38.446751161609185" lon="16.038044299600116"><ele>91.33333333333333</ele><time>2026-04-12T15:40:25.999Z</time></trkpt><trkpt lat="38.44692604574491" lon="16.037900102131594"><ele>91.0</ele><time>2026-04-12T15:40:26.999Z</time></trkpt><trkpt lat="38.447097636767225" lon="16.037752523591156"><ele>89.66666666666666</ele><time>2026-04-12T15:40:27.999Z</time></trkpt><trkpt lat="38.44726947928189" lon="16.037605408988316"><ele>88.33333333333333</ele><time>2026-04-12T15:40:28.999Z</time></trkpt><trkpt lat="38.44744549040943" lon="16.03745260465909"><ele>87.0</ele><time>2026-04-12T15:40:29.999Z</time></trkpt><trkpt lat="38.44761776753835" lon="16.03730124211898"><ele>87.0</ele><time>2026-04-12T15:40:30.999Z</time></trkpt><trkpt lat="38.447787101677285" lon="16.037143852209656"><ele>87.0</ele><time>2026-04-12T15:40:31.999Z</time></trkpt><trkpt lat="38.44795560331519" lon="16.036983481178115"><ele>87.0</ele><time>2026-04-12T15:40:32.999Z</time></trkpt><trkpt lat="38.44812153529473" lon="16.03681565483719"><ele>87.0</ele><time>2026-04-12T15:40:33.999Z</time></trkpt><trkpt lat="38.44828443555937" lon="16.036643326892527"><ele>87.0</ele><time>2026-04-12T15:40:34.999Z</time></trkpt><trkpt lat="38.44844448211764" lon="16.036468922312647"><ele>87.0</ele><time>2026-04-12T15:40:35.999Z</time></trkpt><trkpt lat="38.448598776905015" lon="16.036292036147476"><ele>87.0</ele><time>2026-04-12T15:40:36.999Z</time></trkpt><trkpt lat="38.44874987451104" lon="16.03611698302616"><ele>87.0</ele><time>2026-04-12T15:40:37.999Z</time></trkpt><trkpt lat="38.44889670783218" lon="16.035939373870207"><ele>87.0</ele><time>2026-04-12T15:40:38.999Z</time></trkpt><trkpt lat="38.449023651530595" lon="16.035757284555974"><ele>85.66666666666667</ele><time>2026-04-12T15:40:39.999Z</time></trkpt><trkpt lat="38.44916688946626" lon="16.035574193838738"><ele>84.33333333333334</ele><time>2026-04-12T15:40:40.999Z</time></trkpt><trkpt lat="38.44929924979049" lon="16.0353958947001"><ele>83.0</ele><time>2026-04-12T15:40:41.999Z</time></trkpt><trkpt lat="38.44942464810825" lon="16.035218860382418"><ele>83.0</ele><time>2026-04-12T15:40:42.999Z</time></trkpt><trkpt lat="38.44954782479527" lon="16.03504289685429"><ele>83.0</ele><time>2026-04-12T15:40:43.999Z</time></trkpt><trkpt lat="38.4496706837871" lon="16.03486473996599"><ele>83.0</ele><time>2026-04-12T15:40:44.999Z</time></trkpt><trkpt lat="38.44979296355811" lon="16.034684065847454"><ele>82.66666666666667</ele><time>2026-04-12T15:40:45.999Z</time></trkpt><trkpt lat="38.4499100291752" lon="16.0344999449491"><ele>82.33333333333333</ele><time>2026-04-12T15:40:46.999Z</time></trkpt><trkpt lat="38.45002779321017" lon="16.034314168563355"><ele>82.0</ele><time>2026-04-12T15:40:47.999Z</time></trkpt><trkpt lat="38.45014496171331" lon="16.034126076567066"><ele>82.66666666666666</ele><time>2026-04-12T15:40:48.999Z</time></trkpt><trkpt lat="38.450266281248645" lon="16.03394195069792"><ele>83.33333333333333</ele><time>2026-04-12T15:40:49.999Z</time></trkpt><trkpt lat="38.45038197756613" lon="16.033755800995863"><ele>84.0</ele><time>2026-04-12T15:40:50.999Z</time></trkpt><trkpt lat="38.450499098129136" lon="16.033570623711903"><ele>83.0</ele><time>2026-04-12T15:40:51.999Z</time></trkpt><trkpt lat="38.45061239609177" lon="16.033390395898742"><ele>82.0</ele><time>2026-04-12T15:40:52.999Z</time></trkpt><trkpt lat="38.45072337008787" lon="16.03321372844908"><ele>81.0</ele><time>2026-04-12T15:40:53.997Z</time></trkpt><trkpt lat="38.45083257463795" lon="16.033031937320978"><ele>81.0</ele><time>2026-04-12T15:40:54.997Z</time></trkpt><trkpt lat="38.45093756802285" lon="16.03284863884051"><ele>81.0</ele><time>2026-04-12T15:40:55.997Z</time></trkpt><trkpt lat="38.45104367015301" lon="16.032657694190984"><ele>81.0</ele><time>2026-04-12T15:40:56.997Z</time></trkpt><trkpt lat="38.45114982910927" lon="16.032456824968868"><ele>81.0</ele><time>2026-04-12T15:40:57.997Z</time></trkpt><trkpt lat="38.451249196477704" lon="16.032254614572196"><ele>81.0</ele><time>2026-04-12T15:40:58.997Z</time></trkpt><trkpt lat="38.451345706273024" lon="16.03204197526975"><ele>81.0</ele><time>2026-04-12T15:40:59.997Z</time></trkpt><trkpt lat="38.45143498423945" lon="16.03183236076645"><ele>80.0</ele><time>2026-04-12T15:41:00.997Z</time></trkpt><trkpt lat="38.45151766908077" lon="16.03162539989285"><ele>79.0</ele><time>2026-04-12T15:41:01.998Z</time></trkpt><trkpt lat="38.451596608661205" lon="16.031422214438848"><ele>78.0</ele><time>2026-04-12T15:41:02.998Z</time></trkpt><trkpt lat="38.45166934871579" lon="16.031228091592897"><ele>78.0</ele><time>2026-04-12T15:41:03.998Z</time></trkpt><trkpt lat="38.451733135602126" lon="16.03104857721094"><ele>78.0</ele><time>2026-04-12T15:41:04.998Z</time></trkpt><trkpt lat="38.451792784100874" lon="16.030879478007552"><ele>78.0</ele><time>2026-04-12T15:41:05.998Z</time></trkpt><trkpt lat="38.451849906816804" lon="16.030723059403073"><ele>78.0</ele><time>2026-04-12T15:41:06.998Z</time></trkpt><trkpt lat="38.451896185734185" lon="16.030557653530078"><ele>77.75</ele><time>2026-04-12T15:41:07.998Z</time></trkpt><trkpt lat="38.451963986210814" lon="16.030421922190204"><ele>77.5</ele><time>2026-04-12T15:41:08.998Z</time></trkpt><trkpt lat="38.45202386389352" lon="16.030281517113934"><ele>77.25</ele><time>2026-04-12T15:41:09.998Z</time></trkpt><trkpt lat="38.452086892509215" lon="16.030140173173304"><ele>77.0</ele><time>2026-04-12T15:41:10.998Z</time></trkpt><trkpt lat="38.45215374182525" lon="16.029995895566618"><ele>77.0</ele><time>2026-04-12T15:41:11.998Z</time></trkpt><trkpt lat="38.452220530301666" lon="16.02984708621983"><ele>77.0</ele><time>2026-04-12T15:41:12.998Z</time></trkpt><trkpt lat="38.45229102939692" lon="16.02969544084402"><ele>77.0</ele><time>2026-04-12T15:41:13.998Z</time></trkpt><trkpt lat="38.452361930894824" lon="16.02954695889227"><ele>77.0</ele><time>2026-04-12T15:41:14.998Z</time></trkpt><trkpt lat="38.45243468036347" lon="16.029413250286478"><ele>77.0</ele><time>2026-04-12T15:41:15.998Z</time></trkpt><trkpt lat="38.45250936253405" lon="16.029293034665805"><ele>77.0</ele><time>2026-04-12T15:41:16.998Z</time></trkpt><trkpt lat="38.45258995120526" lon="16.029204165552816"><ele>77.0</ele><time>2026-04-12T15:41:17.998Z</time></trkpt><trkpt lat="38.45267634973744" lon="16.029135058440424"><ele>77.0</ele><time>2026-04-12T15:41:18.999Z</time></trkpt><trkpt lat="38.45277033391" lon="16.029109017573965"><ele>77.0</ele><time>2026-04-12T15:41:19.999Z</time></trkpt><trkpt lat="38.452855706121674" lon="16.029086058404943"><ele>76.8</ele><time>2026-04-12T15:41:20.999Z</time></trkpt><trkpt lat="38.452932759416704" lon="16.02901914971853"><ele>76.6</ele><time>2026-04-12T15:41:21.999Z</time></trkpt><trkpt lat="38.45299017515292" lon="16.028916848279465"><ele>76.39999999999999</ele><time>2026-04-12T15:41:22.999Z</time></trkpt><trkpt lat="38.45301332345478" lon="16.028790445610284"><ele>76.2</ele><time>2026-04-12T15:41:23.999Z</time></trkpt><trkpt lat="38.45301380003868" lon="16.028659749979255"><ele>76.0</ele><time>2026-04-12T15:41:24.999Z</time></trkpt><trkpt lat="38.45300651267555" lon="16.028518967385494"><ele>76.0</ele><time>2026-04-12T15:41:25.999Z</time></trkpt><trkpt lat="38.45301986246188" lon="16.028370664832696"><ele>76.0</ele><time>2026-04-12T15:41:26.999Z</time></trkpt><trkpt lat="38.453076154186085" lon="16.028232223463334"><ele>76.0</ele><time>2026-04-12T15:41:27.999Z</time></trkpt><trkpt lat="38.453162867281094" lon="16.028103331698887"><ele>76.0</ele><time>2026-04-12T15:41:28.999Z</time></trkpt><trkpt lat="38.45326172459032" lon="16.0279607355762"><ele>75.66666666666666</ele><time>2026-04-12T15:41:29.999Z</time></trkpt><trkpt lat="38.45336739803941" lon="16.0277967377077"><ele>75.33333333333333</ele><time>2026-04-12T15:41:30.999Z</time></trkpt><trkpt lat="38.45348148722672" lon="16.027618922562663"><ele>75.0</ele><time>2026-04-12T15:41:31.999Z</time></trkpt><trkpt lat="38.45359593972214" lon="16.02744654220722"><ele>75.0</ele><time>2026-04-12T15:41:32.999Z</time></trkpt><trkpt lat="38.453711185118614" lon="16.027273268050227"><ele>75.0</ele><time>2026-04-12T15:41:33.999Z</time></trkpt><trkpt lat="38.4538282059501" lon="16.027104141330387"><ele>75.0</ele><time>2026-04-12T15:41:34.999Z</time></trkpt><trkpt lat="38.453948167139906" lon="16.026937054026966"><ele>75.0</ele><time>2026-04-12T15:41:35.999Z</time></trkpt><trkpt lat="38.454067073244005" lon="16.02677117142012"><ele>75.0</ele><time>2026-04-12T15:41:36.999Z</time></trkpt><trkpt lat="38.45418115084598" lon="16.026614572967215"><ele>75.0</ele><time>2026-04-12T15:41:37.999Z</time></trkpt><trkpt lat="38.454293992696044" lon="16.026458468058955"><ele>74.66666666666667</ele><time>2026-04-12T15:41:38.999Z</time></trkpt><trkpt lat="38.45440810536711" lon="16.02629868658269"><ele>74.33333333333334</ele><time>2026-04-12T15:41:39.999Z</time></trkpt><trkpt lat="38.454526969332775" lon="16.02613464930038"><ele>74.0</ele><time>2026-04-12T15:41:40.999Z</time></trkpt><trkpt lat="38.45464757413593" lon="16.02596797904427"><ele>72.66666666666667</ele><time>2026-04-12T15:41:41.999Z</time></trkpt><trkpt lat="38.454765931087685" lon="16.025805696429938"><ele>71.33333333333333</ele><time>2026-04-12T15:41:42.999Z</time></trkpt><trkpt lat="38.4548828912301" lon="16.025643829975632"><ele>70.0</ele><time>2026-04-12T15:41:43.999Z</time></trkpt><trkpt lat="38.45499630288656" lon="16.02548400179199"><ele>70.0</ele><time>2026-04-12T15:41:44.999Z</time></trkpt><trkpt lat="38.455112876195734" lon="16.02532422397356"><ele>70.0</ele><time>2026-04-12T15:41:45.999Z</time></trkpt><trkpt lat="38.45523661473802" lon="16.025148544778517"><ele>70.0</ele><time>2026-04-12T15:41:46.999Z</time></trkpt><trkpt lat="38.45536467320426" lon="16.024966212135144"><ele>69.66666666666666</ele><time>2026-04-12T15:41:47.999Z</time></trkpt><trkpt lat="38.45550276675516" lon="16.024784137877546"><ele>69.33333333333333</ele><time>2026-04-12T15:41:48.999Z</time></trkpt><trkpt lat="38.45563612071042" lon="16.02459579674023"><ele>69.0</ele><time>2026-04-12T15:41:49.999Z</time></trkpt><trkpt lat="38.455773238934654" lon="16.024406172993157"><ele>69.0</ele><time>2026-04-12T15:41:50.999Z</time></trkpt><trkpt lat="38.455908822173086" lon="16.02421198868913"><ele>69.0</ele><time>2026-04-12T15:41:51.999Z</time></trkpt><trkpt lat="38.456042090871144" lon="16.024018205204797"><ele>69.0</ele><time>2026-04-12T15:41:52.999Z</time></trkpt><trkpt lat="38.45617762243213" lon="16.02383116729335"><ele>68.66666666666667</ele><time>2026-04-12T15:41:53.999Z</time></trkpt><trkpt lat="38.45630935865285" lon="16.023643991360405"><ele>68.33333333333334</ele><time>2026-04-12T15:41:54.999Z</time></trkpt><trkpt lat="38.4564391608886" lon="16.02345664704058"><ele>68.0</ele><time>2026-04-12T15:41:55.999Z</time></trkpt><trkpt lat="38.45656684765755" lon="16.023267966516965"><ele>68.0</ele><time>2026-04-12T15:41:56.999Z</time></trkpt><trkpt lat="38.45669541681996" lon="16.023081882597097"><ele>68.0</ele><time>2026-04-12T15:41:57.999Z</time></trkpt><trkpt lat="38.45682154036613" lon="16.0229001228984"><ele>68.0</ele><time>2026-04-12T15:41:58.999Z</time></trkpt><trkpt lat="38.456945349187826" lon="16.022730950934513"><ele>68.0</ele><time>2026-04-12T15:41:59.999Z</time></trkpt><trkpt lat="38.45707002912885" lon="16.022552961995462"><ele>68.0</ele><time>2026-04-12T15:42:00.999Z</time></trkpt><trkpt lat="38.45719269455126" lon="16.02237762565019"><ele>68.0</ele><time>2026-04-12T15:42:01.999Z</time></trkpt><trkpt lat="38.45731989795706" lon="16.02219808302143"><ele>67.33333333333334</ele><time>2026-04-12T15:42:02.999Z</time></trkpt><trkpt lat="38.45746404046758" lon="16.021988747171623"><ele>66.66666666666667</ele><time>2026-04-12T15:42:03.999Z</time></trkpt><trkpt lat="38.457602006975726" lon="16.021784680672305"><ele>66.0</ele><time>2026-04-12T15:42:04.999Z</time></trkpt><trkpt lat="38.457739817892396" lon="16.021588321906936"><ele>66.0</ele><time>2026-04-12T15:42:05.999Z</time></trkpt><trkpt lat="38.45787269113065" lon="16.021391250490364"><ele>66.0</ele><time>2026-04-12T15:42:06.999Z</time></trkpt><trkpt lat="38.458005131088186" lon="16.021201079473304"><ele>66.0</ele><time>2026-04-12T15:42:07.999Z</time></trkpt><trkpt lat="38.458137327461955" lon="16.021010577849847"><ele>65.33333333333333</ele><time>2026-04-12T15:42:08.999Z</time></trkpt><trkpt lat="38.45826891744628" lon="16.02082823614153"><ele>64.66666666666666</ele><time>2026-04-12T15:42:09.999Z</time></trkpt><trkpt lat="38.45839746729245" lon="16.020649407339853"><ele>64.0</ele><time>2026-04-12T15:42:10.999Z</time></trkpt><trkpt lat="38.45852587113085" lon="16.02047240254604"><ele>63.666666666666664</ele><time>2026-04-12T15:42:11.999Z</time></trkpt><trkpt lat="38.45865786203034" lon="16.020296638802"><ele>63.33333333333333</ele><time>2026-04-12T15:42:12.999Z</time></trkpt><trkpt lat="38.458791176473106" lon="16.020116549772236"><ele>63.0</ele><time>2026-04-12T15:42:13.999Z</time></trkpt><trkpt lat="38.458923606260285" lon="16.01993342817055"><ele>62.66666666666667</ele><time>2026-04-12T15:42:14.999Z</time></trkpt><trkpt lat="38.459061421238694" lon="16.01974824945895"><ele>62.333333333333336</ele><time>2026-04-12T15:42:15.999Z</time></trkpt><trkpt lat="38.45920185640079" lon="16.019561917103783"><ele>62.0</ele><time>2026-04-12T15:42:16.999Z</time></trkpt><trkpt lat="38.45933794747801" lon="16.019373059154074"><ele>62.0</ele><time>2026-04-12T15:42:17.999Z</time></trkpt><trkpt lat="38.45947340064099" lon="16.019187905388723"><ele>62.0</ele><time>2026-04-12T15:42:18.999Z</time></trkpt><trkpt lat="38.4596037754909" lon="16.019002677463778"><ele>62.0</ele><time>2026-04-12T15:42:19.999Z</time></trkpt><trkpt lat="38.45973184638955" lon="16.018825258884185"><ele>61.66666666666667</ele><time>2026-04-12T15:42:20.999Z</time></trkpt><trkpt lat="38.459859680936496" lon="16.018648805710153"><ele>61.33333333333333</ele><time>2026-04-12T15:42:21.999Z</time></trkpt><trkpt lat="38.45998697409038" lon="16.018474284952227"><ele>61.0</ele><time>2026-04-12T15:42:22.999Z</time></trkpt><trkpt lat="38.46011479236552" lon="16.01829622048682"><ele>61.0</ele><time>2026-04-12T15:42:23.999Z</time></trkpt><trkpt lat="38.4602443258303" lon="16.018116710221282"><ele>61.0</ele><time>2026-04-12T15:42:24.999Z</time></trkpt><trkpt lat="38.460376733192" lon="16.01793448447074"><ele>61.0</ele><time>2026-04-12T15:42:25.999Z</time></trkpt><trkpt lat="38.46051160229198" lon="16.01774817502646"><ele>61.0</ele><time>2026-04-12T15:42:26.999Z</time></trkpt><trkpt lat="38.4606565717919" lon="16.017571815181363"><ele>61.0</ele><time>2026-04-12T15:42:27.999Z</time></trkpt><trkpt lat="38.46079400654963" lon="16.0173824188893"><ele>61.0</ele><time>2026-04-12T15:42:28.999Z</time></trkpt><trkpt lat="38.46093161608584" lon="16.017194058464362"><ele>61.0</ele><time>2026-04-12T15:42:29.999Z</time></trkpt><trkpt lat="38.4610724197979" lon="16.017002995413325"><ele>61.0</ele><time>2026-04-12T15:42:30.999Z</time></trkpt><trkpt lat="38.461210450815095" lon="16.016818622358556"><ele>61.0</ele><time>2026-04-12T15:42:32Z</time></trkpt><trkpt lat="38.461336388057646" lon="16.016624236153685"><ele>64.66666666666666</ele><time>2026-04-12T15:42:33Z</time></trkpt><trkpt lat="38.46147510325876" lon="16.0164509528487"><ele>68.33333333333333</ele><time>2026-04-12T15:42:34Z</time></trkpt><trkpt lat="38.4616106602304" lon="16.016280519363946"><ele>72.0</ele><time>2026-04-12T15:42:35Z</time></trkpt><trkpt lat="38.46174457288916" lon="16.01611542103043"><ele>72.0</ele><time>2026-04-12T15:42:36Z</time></trkpt><trkpt lat="38.46187654218446" lon="16.01595112028605"><ele>72.0</ele><time>2026-04-12T15:42:37Z</time></trkpt><trkpt lat="38.462009392519896" lon="16.015787064730855"><ele>72.0</ele><time>2026-04-12T15:42:38Z</time></trkpt><trkpt lat="38.46214284849267" lon="16.015622779433613"><ele>74.66666666666667</ele><time>2026-04-12T15:42:39Z</time></trkpt><trkpt lat="38.46227325832612" lon="16.015460345813135"><ele>77.33333333333334</ele><time>2026-04-12T15:42:40Z</time></trkpt><trkpt lat="38.462401293570785" lon="16.015299594314243"><ele>80.0</ele><time>2026-04-12T15:42:41Z</time></trkpt><trkpt lat="38.462541045028914" lon="16.015154661949758"><ele>80.0</ele><time>2026-04-12T15:42:42Z</time></trkpt><trkpt lat="38.46266410953933" lon="16.015003619421762"><ele>80.0</ele><time>2026-04-12T15:42:43Z</time></trkpt><trkpt lat="38.462778868423335" lon="16.014862770475215"><ele>80.0</ele><time>2026-04-12T15:42:44Z</time></trkpt><trkpt lat="38.462892021604674" lon="16.01472389272061"><ele>76.33333333333334</ele><time>2026-04-12T15:42:45Z</time></trkpt><trkpt lat="38.46300409802311" lon="16.014586187795288"><ele>72.66666666666667</ele><time>2026-04-12T15:42:46Z</time></trkpt><trkpt lat="38.46311702658923" lon="16.014447171580226"><ele>69.0</ele><time>2026-04-12T15:42:47Z</time></trkpt><trkpt lat="38.46323044484895" lon="16.014307552318435"><ele>69.0</ele><time>2026-04-12T15:42:48Z</time></trkpt><trkpt lat="38.463344206609015" lon="16.014167837692643"><ele>69.0</ele><time>2026-04-12T15:42:49Z</time></trkpt><trkpt lat="38.46345702925883" lon="16.014030073864443"><ele>69.0</ele><time>2026-04-12T15:42:50Z</time></trkpt><trkpt lat="38.46356846214" lon="16.01389400700828"><ele>70.0</ele><time>2026-04-12T15:42:51Z</time></trkpt><trkpt lat="38.46367658589637" lon="16.0137612002455"><ele>71.0</ele><time>2026-04-12T15:42:52Z</time></trkpt><trkpt lat="38.46378185577617" lon="16.013629843401656"><ele>72.0</ele><time>2026-04-12T15:42:53Z</time></trkpt><trkpt lat="38.46388705019403" lon="16.013496315771178"><ele>73.0</ele><time>2026-04-12T15:42:54Z</time></trkpt><trkpt lat="38.46399215146527" lon="16.01336252914593"><ele>69.25</ele><time>2026-04-12T15:42:55Z</time></trkpt><trkpt lat="38.46409661761287" lon="16.013227691827566"><ele>65.5</ele><time>2026-04-12T15:42:56Z</time></trkpt><trkpt lat="38.46419950072914" lon="16.01309427984014"><ele>61.75</ele><time>2026-04-12T15:42:57Z</time></trkpt><trkpt lat="38.46430184150094" lon="16.01295937147599"><ele>58.0</ele><time>2026-04-12T15:42:58Z</time></trkpt><trkpt lat="38.46440397885277" lon="16.012823612830097"><ele>58.0</ele><time>2026-04-12T15:42:59Z</time></trkpt><trkpt lat="38.46450502857466" lon="16.012686689830502"><ele>58.0</ele><time>2026-04-12T15:42:59.997Z</time></trkpt><trkpt lat="38.464607889524956" lon="16.01254731268455"><ele>58.0</ele><time>2026-04-12T15:43:00.997Z</time></trkpt><trkpt lat="38.4647108013327" lon="16.012407866317268"><ele>58.0</ele><time>2026-04-12T15:43:01.997Z</time></trkpt><trkpt lat="38.464812904461596" lon="16.012270432989467"><ele>55.33333333333333</ele><time>2026-04-12T15:43:02.997Z</time></trkpt><trkpt lat="38.46491644144437" lon="16.012130989701078"><ele>52.66666666666667</ele><time>2026-04-12T15:43:03.997Z</time></trkpt><trkpt lat="38.465021629889506" lon="16.011989322275905"><ele>50.0</ele><time>2026-04-12T15:43:04.997Z</time></trkpt><trkpt lat="38.46512797924947" lon="16.01184609134039"><ele>50.0</ele><time>2026-04-12T15:43:05.997Z</time></trkpt><trkpt lat="38.46523648329796" lon="16.011699958462174"><ele>50.0</ele><time>2026-04-12T15:43:06.997Z</time></trkpt><trkpt lat="38.465344575346776" lon="16.011554338441876"><ele>50.0</ele><time>2026-04-12T15:43:07.998Z</time></trkpt><trkpt lat="38.46544820507888" lon="16.011414608051293"><ele>50.0</ele><time>2026-04-12T15:43:08.998Z</time></trkpt><trkpt lat="38.46554644967754" lon="16.01128213880969"><ele>50.0</ele><time>2026-04-12T15:43:09.998Z</time></trkpt><trkpt lat="38.46563754720559" lon="16.011159306427952"><ele>50.0</ele><time>2026-04-12T15:43:10.998Z</time></trkpt><trkpt lat="38.46572285652209" lon="16.01104325148157"><ele>50.0</ele><time>2026-04-12T15:43:11.998Z</time></trkpt><trkpt lat="38.46580290474004" lon="16.010933604252234"><ele>50.2</ele><time>2026-04-12T15:43:12.998Z</time></trkpt><trkpt lat="38.46586853809433" lon="16.010812695845047"><ele>50.4</ele><time>2026-04-12T15:43:13.998Z</time></trkpt><trkpt lat="38.4659456952398" lon="16.010722685729966"><ele>50.599999999999994</ele><time>2026-04-12T15:43:14.998Z</time></trkpt><trkpt lat="38.4660111925296" lon="16.01064275314574"><ele>50.8</ele><time>2026-04-12T15:43:15.998Z</time></trkpt><trkpt lat="38.46607509574186" lon="16.010576037656154"><ele>51.0</ele><time>2026-04-12T15:43:16.998Z</time></trkpt><trkpt lat="38.466149253992704" lon="16.010540072852304"><ele>51.0</ele><time>2026-04-12T15:43:17.998Z</time></trkpt><trkpt lat="38.466233547874694" lon="16.01051683321981"><ele>51.0</ele><time>2026-04-12T15:43:18.998Z</time></trkpt><trkpt lat="38.46632325803018" lon="16.01050709698166"><ele>51.0</ele><time>2026-04-12T15:43:19.998Z</time></trkpt><trkpt lat="38.46640305437416" lon="16.010517821405013"><ele>51.0</ele><time>2026-04-12T15:43:20.998Z</time></trkpt><trkpt lat="38.46647970047126" lon="16.01049898084314"><ele>51.0</ele><time>2026-04-12T15:43:21.998Z</time></trkpt><trkpt lat="38.46654783381784" lon="16.01049393386118"><ele>51.0</ele><time>2026-04-12T15:43:22.999Z</time></trkpt><trkpt lat="38.46660708518137" lon="16.010643447615436"><ele>50.8</ele><time>2026-04-12T15:43:23.999Z</time></trkpt><trkpt lat="38.46665249618701" lon="16.010725848354088"><ele>50.599999999999994</ele><time>2026-04-12T15:43:24.999Z</time></trkpt><trkpt lat="38.46670338104506" lon="16.010817598216125"><ele>50.4</ele><time>2026-04-12T15:43:25.999Z</time></trkpt><trkpt lat="38.466757368702616" lon="16.01091618953677"><ele>50.2</ele><time>2026-04-12T15:43:26.999Z</time></trkpt><trkpt lat="38.4668188953192" lon="16.011021273900283"><ele>50.0</ele><time>2026-04-12T15:43:27.999Z</time></trkpt><trkpt lat="38.46689243540595" lon="16.011130030106706"><ele>50.0</ele><time>2026-04-12T15:43:28.999Z</time></trkpt><trkpt lat="38.46697737162208" lon="16.011247658236307"><ele>50.0</ele><time>2026-04-12T15:43:29.999Z</time></trkpt><trkpt lat="38.467068789510485" lon="16.011371026347526"><ele>50.0</ele><time>2026-04-12T15:43:30.999Z</time></trkpt><trkpt lat="38.46716282876471" lon="16.011496772271105"><ele>50.0</ele><time>2026-04-12T15:43:31.999Z</time></trkpt><trkpt lat="38.46726396640586" lon="16.01163097515535"><ele>49.66666666666667</ele><time>2026-04-12T15:43:32.999Z</time></trkpt><trkpt lat="38.46737352271148" lon="16.01177834647445"><ele>49.33333333333333</ele><time>2026-04-12T15:43:33.999Z</time></trkpt><trkpt lat="38.46748787438612" lon="16.011931005817804"><ele>49.0</ele><time>2026-04-12T15:43:34.999Z</time></trkpt><trkpt lat="38.46760521158709" lon="16.01208312100185"><ele>49.0</ele><time>2026-04-12T15:43:35.999Z</time></trkpt><trkpt lat="38.46772515510625" lon="16.01223465889326"><ele>49.0</ele><time>2026-04-12T15:43:36.999Z</time></trkpt><trkpt lat="38.467844288899926" lon="16.012387476990813"><ele>49.0</ele><time>2026-04-12T15:43:37.999Z</time></trkpt><trkpt lat="38.46795541848395" lon="16.01253308207959"><ele>49.0</ele><time>2026-04-12T15:43:38.999Z</time></trkpt><trkpt lat="38.46806815208193" lon="16.01268010752658"><ele>49.0</ele><time>2026-04-12T15:43:39.999Z</time></trkpt><trkpt lat="38.46818401354812" lon="16.012830875412746"><ele>49.0</ele><time>2026-04-12T15:43:40.999Z</time></trkpt><trkpt lat="38.468303028900245" lon="16.012984542128695"><ele>49.0</ele><time>2026-04-12T15:43:41.999Z</time></trkpt><trkpt lat="38.468425378556" lon="16.01314274519634"><ele>49.0</ele><time>2026-04-12T15:43:42.999Z</time></trkpt><trkpt lat="38.468546139940685" lon="16.013302433652516"><ele>49.0</ele><time>2026-04-12T15:43:43.999Z</time></trkpt><trkpt lat="38.46867345083984" lon="16.013458575679866"><ele>48.33333333333333</ele><time>2026-04-12T15:43:44.999Z</time></trkpt><trkpt lat="38.46879845794705" lon="16.01361676999333"><ele>47.666666666666664</ele><time>2026-04-12T15:43:45.999Z</time></trkpt><trkpt lat="38.468920307352825" lon="16.01377330743497"><ele>47.0</ele><time>2026-04-12T15:43:46.999Z</time></trkpt><trkpt lat="38.46904013048398" lon="16.013933499229392"><ele>47.0</ele><time>2026-04-12T15:43:47.999Z</time></trkpt><trkpt lat="38.46916024974368" lon="16.014090628356172"><ele>47.0</ele><time>2026-04-12T15:43:48.999Z</time></trkpt><trkpt lat="38.46928492614209" lon="16.014246676947486"><ele>47.0</ele><time>2026-04-12T15:43:49.999Z</time></trkpt><trkpt lat="38.46940545619357" lon="16.01439500676124"><ele>47.33333333333333</ele><time>2026-04-12T15:43:50.999Z</time></trkpt><trkpt lat="38.46952451391669" lon="16.01455445997088"><ele>47.666666666666664</ele><time>2026-04-12T15:43:51.999Z</time></trkpt><trkpt lat="38.46964080427591" lon="16.014709433180794"><ele>48.0</ele><time>2026-04-12T15:43:52.999Z</time></trkpt><trkpt lat="38.46976132892247" lon="16.014864880806353"><ele>48.33333333333333</ele><time>2026-04-12T15:43:53.999Z</time></trkpt><trkpt lat="38.46988505118986" lon="16.015026218187316"><ele>48.666666666666664</ele><time>2026-04-12T15:43:54.999Z</time></trkpt><trkpt lat="38.470009122547616" lon="16.01518491293134"><ele>49.0</ele><time>2026-04-12T15:43:55.999Z</time></trkpt><trkpt lat="38.47013239561691" lon="16.01534370688802"><ele>49.0</ele><time>2026-04-12T15:43:57Z</time></trkpt><trkpt lat="38.47025804173268" lon="16.015502973766857"><ele>49.0</ele><time>2026-04-12T15:43:58Z</time></trkpt><trkpt lat="38.470381915501704" lon="16.01566540751116"><ele>49.0</ele><time>2026-04-12T15:43:59Z</time></trkpt><trkpt lat="38.47050607472031" lon="16.01582495636623"><ele>48.666666666666664</ele><time>2026-04-12T15:44:00Z</time></trkpt><trkpt lat="38.470629519133226" lon="16.015987420612344"><ele>48.33333333333333</ele><time>2026-04-12T15:44:01Z</time></trkpt><trkpt lat="38.47074886374607" lon="16.01614470076426"><ele>48.0</ele><time>2026-04-12T15:44:02Z</time></trkpt><trkpt lat="38.470870948706214" lon="16.016304389884944"><ele>48.0</ele><time>2026-04-12T15:44:03Z</time></trkpt><trkpt lat="38.470995413393794" lon="16.01647293433663"><ele>48.0</ele><time>2026-04-12T15:44:04Z</time></trkpt><trkpt lat="38.471113896209935" lon="16.01662874722151"><ele>48.0</ele><time>2026-04-12T15:44:05Z</time></trkpt><trkpt lat="38.471238254652455" lon="16.016783099325952"><ele>48.0</ele><time>2026-04-12T15:44:06Z</time></trkpt><trkpt lat="38.47136572404242" lon="16.01694061733672"><ele>48.0</ele><time>2026-04-12T15:44:07Z</time></trkpt><trkpt lat="38.471491882723406" lon="16.017098476364062"><ele>48.0</ele><time>2026-04-12T15:44:08Z</time></trkpt><trkpt lat="38.47161389112728" lon="16.017258012370903"><ele>48.0</ele><time>2026-04-12T15:44:09Z</time></trkpt><trkpt lat="38.47173708355518" lon="16.017419633325726"><ele>48.0</ele><time>2026-04-12T15:44:10Z</time></trkpt><trkpt lat="38.47186209835033" lon="16.01758393906215"><ele>48.0</ele><time>2026-04-12T15:44:11Z</time></trkpt><trkpt lat="38.471991990084376" lon="16.017748473447757"><ele>47.333333333333336</ele><time>2026-04-12T15:44:12Z</time></trkpt><trkpt lat="38.47212088835331" lon="16.01791426359982"><ele>46.66666666666667</ele><time>2026-04-12T15:44:13Z</time></trkpt><trkpt lat="38.47225398820336" lon="16.018080018736914"><ele>46.0</ele><time>2026-04-12T15:44:14Z</time></trkpt><trkpt lat="38.47238517725828" lon="16.01824849476436"><ele>46.333333333333336</ele><time>2026-04-12T15:44:15Z</time></trkpt><trkpt lat="38.472519538156625" lon="16.018418607761095"><ele>46.666666666666664</ele><time>2026-04-12T15:44:16Z</time></trkpt><trkpt lat="38.47265222142859" lon="16.018588971852846"><ele>47.0</ele><time>2026-04-12T15:44:17Z</time></trkpt><trkpt lat="38.47278519374029" lon="16.018764768391193"><ele>47.0</ele><time>2026-04-12T15:44:18Z</time></trkpt><trkpt lat="38.47291951824927" lon="16.01894037723314"><ele>47.0</ele><time>2026-04-12T15:44:19Z</time></trkpt><trkpt lat="38.47305266482499" lon="16.019113861980536"><ele>47.0</ele><time>2026-04-12T15:44:20Z</time></trkpt><trkpt lat="38.47318705247835" lon="16.019286845553474"><ele>46.666666666666664</ele><time>2026-04-12T15:44:21Z</time></trkpt><trkpt lat="38.47332106746688" lon="16.019460850029798"><ele>46.333333333333336</ele><time>2026-04-12T15:44:22Z</time></trkpt><trkpt lat="38.47345640778854" lon="16.019632339815633"><ele>46.0</ele><time>2026-04-12T15:44:23Z</time></trkpt><trkpt lat="38.47358830669334" lon="16.019801282890846"><ele>46.0</ele><time>2026-04-12T15:44:24Z</time></trkpt><trkpt lat="38.47372251462218" lon="16.019973041971607"><ele>46.0</ele><time>2026-04-12T15:44:25Z</time></trkpt><trkpt lat="38.4738538759758" lon="16.02014582186147"><ele>46.0</ele><time>2026-04-12T15:44:26Z</time></trkpt><trkpt lat="38.47398355352763" lon="16.020313843501246"><ele>45.66666666666667</ele><time>2026-04-12T15:44:27Z</time></trkpt><trkpt lat="38.47410522335489" lon="16.020476937861126"><ele>45.333333333333336</ele><time>2026-04-12T15:44:28Z</time></trkpt><trkpt lat="38.47422087873083" lon="16.020627075627658"><ele>45.0</ele><time>2026-04-12T15:44:29Z</time></trkpt><trkpt lat="38.474321646989466" lon="16.020766527196564"><ele>45.0</ele><time>2026-04-12T15:44:30Z</time></trkpt><trkpt lat="38.47441383445216" lon="16.0208887864213"><ele>45.0</ele><time>2026-04-12T15:44:31Z</time></trkpt><trkpt lat="38.47449486979859" lon="16.02100277159709"><ele>45.0</ele><time>2026-04-12T15:44:32Z</time></trkpt><trkpt lat="38.474569912742176" lon="16.021108603675152"><ele>45.0</ele><time>2026-04-12T15:44:33Z</time></trkpt><trkpt lat="38.47463848505736" lon="16.02120688662718"><ele>45.0</ele><time>2026-04-12T15:44:34Z</time></trkpt><trkpt lat="38.47470046882489" lon="16.02129466234153"><ele>45.0</ele><time>2026-04-12T15:44:35Z</time></trkpt><trkpt lat="38.47474953018715" lon="16.021374666777106"><ele>45.0</ele><time>2026-04-12T15:44:36Z</time></trkpt><trkpt lat="38.474783350789686" lon="16.02144562970448"><ele>45.0</ele><time>2026-04-12T15:44:37Z</time></trkpt><trkpt lat="38.4748473779328" lon="16.021565033886198"><ele>45.0</ele><time>2026-04-12T15:44:39Z</time></trkpt><trkpt lat="38.474902178330964" lon="16.021660658176398"><ele>45.0</ele><time>2026-04-12T15:44:41Z</time></trkpt><trkpt lat="38.47504114737714" lon="16.02162293198731"><ele>45.0</ele><time>2026-04-12T15:44:43Z</time></trkpt><trkpt lat="38.47511611620017" lon="16.021549636824837"><ele>45.0</ele><time>2026-04-12T15:44:44Z</time></trkpt><trkpt lat="38.475202946907245" lon="16.021459686990074"><ele>45.0</ele><time>2026-04-12T15:44:45Z</time></trkpt><trkpt lat="38.4753024499563" lon="16.021370443071017"><ele>45.0</ele><time>2026-04-12T15:44:46Z</time></trkpt><trkpt lat="38.47540087362832" lon="16.021290796071845"><ele>45.0</ele><time>2026-04-12T15:44:47Z</time></trkpt><trkpt lat="38.47549611122411" lon="16.021215300759877"><ele>45.0</ele><time>2026-04-12T15:44:48Z</time></trkpt><trkpt lat="38.47558496725527" lon="16.02114236886582"><ele>45.0</ele><time>2026-04-12T15:44:49Z</time></trkpt><trkpt lat="38.475676881580895" lon="16.02106741398539"><ele>45.0</ele><time>2026-04-12T15:44:50Z</time></trkpt><trkpt lat="38.47578260702463" lon="16.02099981948137"><ele>45.0</ele><time>2026-04-12T15:44:51Z</time></trkpt><trkpt lat="38.475881078752174" lon="16.020918860023325"><ele>45.0</ele><time>2026-04-12T15:44:52Z</time></trkpt><trkpt lat="38.47600983803593" lon="16.020833338300008"><ele>45.0</ele><time>2026-04-12T15:44:53Z</time></trkpt><trkpt lat="38.47614663848778" lon="16.020729242764187"><ele>45.0</ele><time>2026-04-12T15:44:54Z</time></trkpt><trkpt lat="38.47628433607069" lon="16.0206108969978"><ele>44.333333333333336</ele><time>2026-04-12T15:44:55Z</time></trkpt><trkpt lat="38.476436507308385" lon="16.020495288590656"><ele>43.66666666666667</ele><time>2026-04-12T15:44:56Z</time></trkpt><trkpt lat="38.47659390364119" lon="16.020378907453132"><ele>43.0</ele><time>2026-04-12T15:44:57Z</time></trkpt><trkpt lat="38.476756232604444" lon="16.020258667732353"><ele>43.0</ele><time>2026-04-12T15:44:58Z</time></trkpt><trkpt lat="38.4769035740241" lon="16.020139511879485"><ele>43.0</ele><time>2026-04-12T15:44:59Z</time></trkpt><trkpt lat="38.47705656742552" lon="16.020021773427665"><ele>43.0</ele><time>2026-04-12T15:45:00Z</time></trkpt><trkpt lat="38.47720740668248" lon="16.019904674531848"><ele>42.0</ele><time>2026-04-12T15:45:01Z</time></trkpt><trkpt lat="38.47736203664622" lon="16.01979746766159"><ele>41.0</ele><time>2026-04-12T15:45:02Z</time></trkpt><trkpt lat="38.47751007384708" lon="16.019682097304376"><ele>40.0</ele><time>2026-04-12T15:45:03Z</time></trkpt><trkpt lat="38.477661779021574" lon="16.019573698617613"><ele>40.0</ele><time>2026-04-12T15:45:04Z</time></trkpt><trkpt lat="38.477806881726146" lon="16.019463688051832"><ele>40.0</ele><time>2026-04-12T15:45:05Z</time></trkpt><trkpt lat="38.47794592273799" lon="16.019350483255323"><ele>40.0</ele><time>2026-04-12T15:45:05.998Z</time></trkpt><trkpt lat="38.478083171313486" lon="16.019237415551142"><ele>40.333333333333336</ele><time>2026-04-12T15:45:06.998Z</time></trkpt><trkpt lat="38.47821833387871" lon="16.01912945039161"><ele>40.666666666666664</ele><time>2026-04-12T15:45:07.998Z</time></trkpt><trkpt lat="38.47834911246247" lon="16.019026536763803"><ele>41.0</ele><time>2026-04-12T15:45:08.998Z</time></trkpt><trkpt lat="38.47847684504936" lon="16.018926327003392"><ele>41.0</ele><time>2026-04-12T15:45:09.998Z</time></trkpt><trkpt lat="38.47860127275735" lon="16.018825851563548"><ele>41.0</ele><time>2026-04-12T15:45:10.998Z</time></trkpt><trkpt lat="38.47872542920725" lon="16.01873028170387"><ele>41.0</ele><time>2026-04-12T15:45:11.998Z</time></trkpt><trkpt lat="38.47885349514744" lon="16.018642928256547"><ele>41.0</ele><time>2026-04-12T15:45:12.999Z</time></trkpt><trkpt lat="38.47898436075899" lon="16.01854492840367"><ele>40.666666666666664</ele><time>2026-04-12T15:45:13.999Z</time></trkpt><trkpt lat="38.4791214265895" lon="16.01844005183002"><ele>40.333333333333336</ele><time>2026-04-12T15:45:14.999Z</time></trkpt><trkpt lat="38.47926498087186" lon="16.018331949687827"><ele>40.0</ele><time>2026-04-12T15:45:15.999Z</time></trkpt><trkpt lat="38.47941328664446" lon="16.01821885957012"><ele>39.66666666666667</ele><time>2026-04-12T15:45:16.999Z</time></trkpt><trkpt lat="38.479563005447744" lon="16.018101765829172"><ele>39.333333333333336</ele><time>2026-04-12T15:45:17.999Z</time></trkpt><trkpt lat="38.47971958937025" lon="16.01798155555522"><ele>39.0</ele><time>2026-04-12T15:45:18.999Z</time></trkpt><trkpt lat="38.47987634388138" lon="16.017859898606282"><ele>39.0</ele><time>2026-04-12T15:45:19.999Z</time></trkpt><trkpt lat="38.48002876728416" lon="16.017742025736215"><ele>39.0</ele><time>2026-04-12T15:45:20.999Z</time></trkpt><trkpt lat="38.480182318205536" lon="16.017626103884176"><ele>39.0</ele><time>2026-04-12T15:45:21.999Z</time></trkpt><trkpt lat="38.48033606842059" lon="16.01750709506638"><ele>38.666666666666664</ele><time>2026-04-12T15:45:22.999Z</time></trkpt><trkpt lat="38.48048645164829" lon="16.017388261042708"><ele>38.33333333333333</ele><time>2026-04-12T15:45:23.999Z</time></trkpt><trkpt lat="38.48063693041615" lon="16.01726819155462"><ele>38.0</ele><time>2026-04-12T15:45:24.999Z</time></trkpt><trkpt lat="38.48078884495674" lon="16.01714581286209"><ele>38.0</ele><time>2026-04-12T15:45:25.999Z</time></trkpt><trkpt lat="38.48094396614182" lon="16.017026481808838"><ele>38.0</ele><time>2026-04-12T15:45:26.999Z</time></trkpt><trkpt lat="38.48110355222083" lon="16.016905251467858"><ele>38.0</ele><time>2026-04-12T15:45:27.999Z</time></trkpt><trkpt lat="38.48127404338328" lon="16.016776935022683"><ele>37.666666666666664</ele><time>2026-04-12T15:45:28.999Z</time></trkpt><trkpt lat="38.481447917502024" lon="16.01664100298527"><ele>37.333333333333336</ele><time>2026-04-12T15:45:29.999Z</time></trkpt><trkpt lat="38.48161939907449" lon="16.016509062157795"><ele>37.0</ele><time>2026-04-12T15:45:30.999Z</time></trkpt><trkpt lat="38.481786153418184" lon="16.01638491724888"><ele>37.0</ele><time>2026-04-12T15:45:31.999Z</time></trkpt><trkpt lat="38.48194613049158" lon="16.01626419013161"><ele>37.0</ele><time>2026-04-12T15:45:32.999Z</time></trkpt><trkpt lat="38.48210416579353" lon="16.01614720647684"><ele>37.0</ele><time>2026-04-12T15:45:33.999Z</time></trkpt><trkpt lat="38.4822609318872" lon="16.016027008081764"><ele>36.66666666666667</ele><time>2026-04-12T15:45:34.999Z</time></trkpt><trkpt lat="38.48242932582227" lon="16.015901899847112"><ele>36.333333333333336</ele><time>2026-04-12T15:45:35.999Z</time></trkpt><trkpt lat="38.48260075231228" lon="16.015772944737726"><ele>36.0</ele><time>2026-04-12T15:45:37Z</time></trkpt><trkpt lat="38.48277780834724" lon="16.01564063194691"><ele>36.333333333333336</ele><time>2026-04-12T15:45:38Z</time></trkpt><trkpt lat="38.48295111570125" lon="16.01550023856792"><ele>36.66666666666667</ele><time>2026-04-12T15:45:39Z</time></trkpt><trkpt lat="38.48312470797237" lon="16.015369421846202"><ele>37.0</ele><time>2026-04-12T15:45:40Z</time></trkpt><trkpt lat="38.48329247983429" lon="16.015234907517204"><ele>37.0</ele><time>2026-04-12T15:45:41Z</time></trkpt><trkpt lat="38.48346026271796" lon="16.015101435798375"><ele>37.0</ele><time>2026-04-12T15:45:42Z</time></trkpt><trkpt lat="38.483630369153786" lon="16.014970449280334"><ele>37.0</ele><time>2026-04-12T15:45:43Z</time></trkpt><trkpt lat="38.483805633993285" lon="16.0148333021675"><ele>36.333333333333336</ele><time>2026-04-12T15:45:44Z</time></trkpt><trkpt lat="38.483987608780666" lon="16.014691688389206"><ele>35.666666666666664</ele><time>2026-04-12T15:45:45Z</time></trkpt><trkpt lat="38.48417582785117" lon="16.01455069284003"><ele>35.0</ele><time>2026-04-12T15:45:46Z</time></trkpt><trkpt lat="38.48436291805059" lon="16.014405290772768"><ele>35.0</ele><time>2026-04-12T15:45:47Z</time></trkpt><trkpt lat="38.484550406292705" lon="16.01426042430553"><ele>35.0</ele><time>2026-04-12T15:45:48Z</time></trkpt><trkpt lat="38.484739235578076" lon="16.014115189176785"><ele>35.0</ele><time>2026-04-12T15:45:49Z</time></trkpt><trkpt lat="38.48492259270558" lon="16.013972661405745"><ele>34.666666666666664</ele><time>2026-04-12T15:45:50Z</time></trkpt><trkpt lat="38.48510060617457" lon="16.013833340933832"><ele>34.333333333333336</ele><time>2026-04-12T15:45:51Z</time></trkpt><trkpt lat="38.48526973506687" lon="16.01370485289691"><ele>34.0</ele><time>2026-04-12T15:45:52Z</time></trkpt><trkpt lat="38.48542929923157" lon="16.01358601647585"><ele>33.66666666666667</ele><time>2026-04-12T15:45:53Z</time></trkpt><trkpt lat="38.48557942052208" lon="16.013475045838028"><ele>33.333333333333336</ele><time>2026-04-12T15:45:54Z</time></trkpt><trkpt lat="38.485717705191355" lon="16.013369456464435"><ele>33.0</ele><time>2026-04-12T15:45:55Z</time></trkpt><trkpt lat="38.48585324284709" lon="16.013260828364842"><ele>33.0</ele><time>2026-04-12T15:45:56Z</time></trkpt><trkpt lat="38.48598993134183" lon="16.013150323777243"><ele>33.0</ele><time>2026-04-12T15:45:57Z</time></trkpt><trkpt lat="38.48613361712335" lon="16.013038707618612"><ele>33.0</ele><time>2026-04-12T15:45:58Z</time></trkpt><trkpt lat="38.486280520412635" lon="16.012925223676056"><ele>33.0</ele><time>2026-04-12T15:45:59Z</time></trkpt><trkpt lat="38.48642938611291" lon="16.012813623719293"><ele>33.0</ele><time>2026-04-12T15:46:00Z</time></trkpt><trkpt lat="38.486572976138206" lon="16.012694916441472"><ele>33.0</ele><time>2026-04-12T15:46:01Z</time></trkpt><trkpt lat="38.48670976642285" lon="16.012560812087088"><ele>32.666666666666664</ele><time>2026-04-12T15:46:02Z</time></trkpt><trkpt lat="38.486840888835964" lon="16.01242081713145"><ele>32.33333333333333</ele><time>2026-04-12T15:46:03Z</time></trkpt><trkpt lat="38.486966528200206" lon="16.012271277807383"><ele>32.0</ele><time>2026-04-12T15:46:04Z</time></trkpt><trkpt lat="38.48708492559317" lon="16.012116605935116"><ele>32.0</ele><time>2026-04-12T15:46:05Z</time></trkpt><trkpt lat="38.487203953128116" lon="16.011958423851784"><ele>32.0</ele><time>2026-04-12T15:46:06Z</time></trkpt><trkpt lat="38.487321757188816" lon="16.011801708606654"><ele>32.0</ele><time>2026-04-12T15:46:07Z</time></trkpt><trkpt lat="38.48743552416571" lon="16.0116367031349"><ele>32.33333333333333</ele><time>2026-04-12T15:46:08Z</time></trkpt><trkpt lat="38.487552973916884" lon="16.011469449892154"><ele>32.666666666666664</ele><time>2026-04-12T15:46:09Z</time></trkpt><trkpt lat="38.48767578551977" lon="16.01129649946958"><ele>33.0</ele><time>2026-04-12T15:46:10Z</time></trkpt><trkpt lat="38.48780583733122" lon="16.011125622858152"><ele>33.0</ele><time>2026-04-12T15:46:11Z</time></trkpt><trkpt lat="38.48792343684874" lon="16.010953473323195"><ele>33.0</ele><time>2026-04-12T15:46:12Z</time></trkpt><trkpt lat="38.4880231751611" lon="16.010784686024344"><ele>33.0</ele><time>2026-04-12T15:46:13Z</time></trkpt><trkpt lat="38.48812698436214" lon="16.01064317094287"><ele>33.0</ele><time>2026-04-12T15:46:14Z</time></trkpt><trkpt lat="38.48822275728664" lon="16.010500835592072"><ele>33.0</ele><time>2026-04-12T15:46:15Z</time></trkpt><trkpt lat="38.488319951586355" lon="16.01036216394989"><ele>33.0</ele><time>2026-04-12T15:46:16Z</time></trkpt><trkpt lat="38.48841960192425" lon="16.010229262608153"><ele>33.0</ele><time>2026-04-12T15:46:17Z</time></trkpt><trkpt lat="38.48852280926319" lon="16.01009083969264"><ele>32.75</ele><time>2026-04-12T15:46:18Z</time></trkpt><trkpt lat="38.488632122475984" lon="16.009972702616352"><ele>32.5</ele><time>2026-04-12T15:46:19Z</time></trkpt><trkpt lat="38.48875181514343" lon="16.009881005665893"><ele>32.25</ele><time>2026-04-12T15:46:20Z</time></trkpt><trkpt lat="38.488882451368156" lon="16.009818726144022"><ele>32.0</ele><time>2026-04-12T15:46:21Z</time></trkpt><trkpt lat="38.489022259063475" lon="16.00976636702557"><ele>33.0</ele><time>2026-04-12T15:46:22.001Z</time></trkpt><trkpt lat="38.48917417077754" lon="16.00971729252078"><ele>34.0</ele><time>2026-04-12T15:46:23.001Z</time></trkpt><trkpt lat="38.48932603618963" lon="16.009657457371723"><ele>35.0</ele><time>2026-04-12T15:46:24.001Z</time></trkpt><trkpt lat="38.48946851837248" lon="16.00960595533625"><ele>35.0</ele><time>2026-04-12T15:46:25.001Z</time></trkpt><trkpt lat="38.48958848959496" lon="16.009549030689303"><ele>35.0</ele><time>2026-04-12T15:46:26.001Z</time></trkpt><trkpt lat="38.489702045787155" lon="16.009472251411754"><ele>35.0</ele><time>2026-04-12T15:46:27.001Z</time></trkpt><trkpt lat="38.48978928626007" lon="16.009357080535118"><ele>35.0</ele><time>2026-04-12T15:46:28.001Z</time></trkpt><trkpt lat="38.48986659724555" lon="16.009220155969675"><ele>34.33333333333333</ele><time>2026-04-12T15:46:29.001Z</time></trkpt><trkpt lat="38.48993014752917" lon="16.009056951719995"><ele>33.666666666666664</ele><time>2026-04-12T15:46:30.001Z</time></trkpt><trkpt lat="38.49003179378875" lon="16.008853179609165"><ele>33.0</ele><time>2026-04-12T15:46:31.001Z</time></trkpt><trkpt lat="38.4901586457021" lon="16.008598792574855"><ele>33.0</ele><time>2026-04-12T15:46:32.001Z</time></trkpt><trkpt lat="38.49027233239876" lon="16.0083625264805"><ele>33.0</ele><time>2026-04-12T15:46:33.001Z</time></trkpt><trkpt lat="38.490388111199735" lon="16.008136142844705"><ele>33.0</ele><time>2026-04-12T15:46:34.001Z</time></trkpt><trkpt lat="38.49050384421814" lon="16.007919656928944"><ele>33.0</ele><time>2026-04-12T15:46:35.001Z</time></trkpt><trkpt lat="38.49061649792595" lon="16.00770896298048"><ele>33.0</ele><time>2026-04-12T15:46:36.001Z</time></trkpt><trkpt lat="38.49072566854262" lon="16.007504789815485"><ele>33.0</ele><time>2026-04-12T15:46:37.001Z</time></trkpt><trkpt lat="38.490837630704135" lon="16.007309208360525"><ele>32.666666666666664</ele><time>2026-04-12T15:46:38.001Z</time></trkpt><trkpt lat="38.49094748034509" lon="16.007115682126607"><ele>32.33333333333333</ele><time>2026-04-12T15:46:39.001Z</time></trkpt><trkpt lat="38.49105793566121" lon="16.006930086869026"><ele>32.0</ele><time>2026-04-12T15:46:40.001Z</time></trkpt><trkpt lat="38.491164192059166" lon="16.00675709344075"><ele>31.333333333333332</ele><time>2026-04-12T15:46:41.001Z</time></trkpt><trkpt lat="38.491267348122825" lon="16.006596389503752"><ele>30.666666666666664</ele><time>2026-04-12T15:46:42.001Z</time></trkpt><trkpt lat="38.491373454858376" lon="16.00645353757847"><ele>30.0</ele><time>2026-04-12T15:46:43.001Z</time></trkpt><trkpt lat="38.491481362381194" lon="16.006333098323644"><ele>30.0</ele><time>2026-04-12T15:46:44.001Z</time></trkpt><trkpt lat="38.49159131570287" lon="16.006243027906077"><ele>30.0</ele><time>2026-04-12T15:46:45.001Z</time></trkpt><trkpt lat="38.491703576196265" lon="16.00617673769836"><ele>30.0</ele><time>2026-04-12T15:46:46.001Z</time></trkpt><trkpt lat="38.49181680288527" lon="16.006130164762446"><ele>30.0</ele><time>2026-04-12T15:46:47.001Z</time></trkpt><trkpt lat="38.49193823782609" lon="16.00608536719618"><ele>30.0</ele><time>2026-04-12T15:46:48.001Z</time></trkpt><trkpt lat="38.49205963832415" lon="16.00604081960462"><ele>30.0</ele><time>2026-04-12T15:46:49.001Z</time></trkpt><trkpt lat="38.49217795379163" lon="16.005990801774345"><ele>30.0</ele><time>2026-04-12T15:46:50.001Z</time></trkpt><trkpt lat="38.49230288602483" lon="16.005942874734004"><ele>30.0</ele><time>2026-04-12T15:46:51.001Z</time></trkpt><trkpt lat="38.49242623181675" lon="16.005897790417222"><ele>29.75</ele><time>2026-04-12T15:46:52.001Z</time></trkpt><trkpt lat="38.492546765343924" lon="16.005854910916256"><ele>29.5</ele><time>2026-04-12T15:46:53.001Z</time></trkpt><trkpt lat="38.49266472886615" lon="16.00581836236875"><ele>29.25</ele><time>2026-04-12T15:46:54.001Z</time></trkpt><trkpt lat="38.49277975273106" lon="16.00578696620254"><ele>29.0</ele><time>2026-04-12T15:46:55.001Z</time></trkpt><trkpt lat="38.49288983149031" lon="16.005779467049965"><ele>28.75</ele><time>2026-04-12T15:46:56.001Z</time></trkpt><trkpt lat="38.492983526886626" lon="16.005811965887457"><ele>28.5</ele><time>2026-04-12T15:46:57.001Z</time></trkpt><trkpt lat="38.49305193967533" lon="16.005781189417256"><ele>28.25</ele><time>2026-04-12T15:46:58.001Z</time></trkpt><trkpt lat="38.49319911666501" lon="16.006071229049454"><ele>28.0</ele><time>2026-04-12T15:47:00.001Z</time></trkpt><trkpt lat="38.49327716159045" lon="16.006186287090575"><ele>28.25</ele><time>2026-04-12T15:47:01.001Z</time></trkpt><trkpt lat="38.49336905017258" lon="16.006304191704082"><ele>28.5</ele><time>2026-04-12T15:47:02.001Z</time></trkpt><trkpt lat="38.49346380827967" lon="16.0064215248033"><ele>28.75</ele><time>2026-04-12T15:47:03.001Z</time></trkpt><trkpt lat="38.4935653085777" lon="16.006547431410066"><ele>29.0</ele><time>2026-04-12T15:47:04.001Z</time></trkpt><trkpt lat="38.49366841977726" lon="16.006676316011568"><ele>29.4</ele><time>2026-04-12T15:47:05.001Z</time></trkpt><trkpt lat="38.49376672704581" lon="16.00680193440538"><ele>29.799999999999997</ele><time>2026-04-12T15:47:06.001Z</time></trkpt><trkpt lat="38.49385342100089" lon="16.006912480031502"><ele>30.200000000000003</ele><time>2026-04-12T15:47:07.001Z</time></trkpt><trkpt lat="38.4939270821458" lon="16.007000818185624"><ele>30.6</ele><time>2026-04-12T15:47:08.001Z</time></trkpt><trkpt lat="38.49398951313274" lon="16.007068486375083"><ele>31.0</ele><time>2026-04-12T15:47:09.001Z</time></trkpt><trkpt lat="38.49404373374753" lon="16.007196949989627"><ele>31.0</ele><time>2026-04-12T15:47:11.001Z</time></trkpt><trkpt lat="38.49408915615966" lon="16.00728567104006"><ele>31.0</ele><time>2026-04-12T15:47:12.999Z</time></trkpt><trkpt lat="38.49428230537603" lon="16.007155864055807"><ele>31.0</ele><time>2026-04-12T15:47:13.999Z</time></trkpt><trkpt lat="38.49434683039949" lon="16.00711314831229"><ele>31.0</ele><time>2026-04-12T15:47:14.999Z</time></trkpt><trkpt lat="38.49442193689021" lon="16.007044126279194"><ele>31.0</ele><time>2026-04-12T15:47:15.999Z</time></trkpt><trkpt lat="38.49450319860565" lon="16.006956402952994"><ele>31.0</ele><time>2026-04-12T15:47:16.999Z</time></trkpt><trkpt lat="38.49459287285865" lon="16.006857688374797"><ele>31.0</ele><time>2026-04-12T15:47:17.999Z</time></trkpt><trkpt lat="38.494695480437244" lon="16.006766376544974"><ele>31.0</ele><time>2026-04-12T15:47:18.999Z</time></trkpt><trkpt lat="38.49481257920491" lon="16.00668938049867"><ele>31.25</ele><time>2026-04-12T15:47:19.999Z</time></trkpt><trkpt lat="38.49493436296935" lon="16.006618149798896"><ele>31.5</ele><time>2026-04-12T15:47:20.999Z</time></trkpt><trkpt lat="38.49505754030944" lon="16.006554534895848"><ele>31.75</ele><time>2026-04-12T15:47:21.999Z</time></trkpt><trkpt lat="38.4951798692613" lon="16.00649577565027"><ele>32.0</ele><time>2026-04-12T15:47:22.999Z</time></trkpt><trkpt lat="38.4952978916831" lon="16.006439091874533"><ele>32.0</ele><time>2026-04-12T15:47:23.999Z</time></trkpt><trkpt lat="38.49541198715711" lon="16.00638766438383"><ele>32.0</ele><time>2026-04-12T15:47:24.999Z</time></trkpt><trkpt lat="38.49552266262971" lon="16.00633976236223"><ele>32.0</ele><time>2026-04-12T15:47:25.999Z</time></trkpt><trkpt lat="38.495626704081324" lon="16.006290748391066"><ele>32.0</ele><time>2026-04-12T15:47:27Z</time></trkpt><trkpt lat="38.495721897381294" lon="16.006256202462463"><ele>32.0</ele><time>2026-04-12T15:47:28Z</time></trkpt><trkpt lat="38.49581022232135" lon="16.006250398894093"><ele>33.0</ele><time>2026-04-12T15:47:29Z</time></trkpt><trkpt lat="38.49589063882388" lon="16.00627771089845"><ele>34.0</ele><time>2026-04-12T15:47:30Z</time></trkpt><trkpt lat="38.49595949341129" lon="16.006336807143388"><ele>35.0</ele><time>2026-04-12T15:47:31Z</time></trkpt><trkpt lat="38.49603568406236" lon="16.006442613766303"><ele>36.0</ele><time>2026-04-12T15:47:32Z</time></trkpt><trkpt lat="38.49609716271845" lon="16.006553425632184"><ele>37.0</ele><time>2026-04-12T15:47:33Z</time></trkpt><trkpt lat="38.49616320663015" lon="16.00669542923326"><ele>36.0</ele><time>2026-04-12T15:47:34Z</time></trkpt><trkpt lat="38.49623296516355" lon="16.006850030756148"><ele>35.0</ele><time>2026-04-12T15:47:35Z</time></trkpt><trkpt lat="38.49630354293384" lon="16.007013085184084"><ele>34.0</ele><time>2026-04-12T15:47:36Z</time></trkpt><trkpt lat="38.49635163771877" lon="16.007191852153436"><ele>33.0</ele><time>2026-04-12T15:47:37Z</time></trkpt><trkpt lat="38.496357588294146" lon="16.00737397269921"><ele>32.5</ele><time>2026-04-12T15:47:38Z</time></trkpt><trkpt lat="38.496348086464764" lon="16.00754240523875"><ele>32.0</ele><time>2026-04-12T15:47:39Z</time></trkpt><trkpt lat="38.496331957971876" lon="16.007707850753096"><ele>31.5</ele><time>2026-04-12T15:47:40Z</time></trkpt><trkpt lat="38.49631992042511" lon="16.007879969699832"><ele>31.0</ele><time>2026-04-12T15:47:41Z</time></trkpt><trkpt lat="38.49629829079037" lon="16.00804461205083"><ele>31.0</ele><time>2026-04-12T15:47:42Z</time></trkpt><trkpt lat="38.49628071876861" lon="16.008197575934325"><ele>31.0</ele><time>2026-04-12T15:47:43Z</time></trkpt><trkpt lat="38.49626880586161" lon="16.008346201715597"><ele>31.0</ele><time>2026-04-12T15:47:44Z</time></trkpt><trkpt lat="38.49626569785007" lon="16.008485225585023"><ele>31.0</ele><time>2026-04-12T15:47:45Z</time></trkpt><trkpt lat="38.49628424281416" lon="16.008618171772383"><ele>31.0</ele><time>2026-04-12T15:47:46Z</time></trkpt><trkpt lat="38.496330222356185" lon="16.008738268290138"><ele>31.0</ele><time>2026-04-12T15:47:47Z</time></trkpt><trkpt lat="38.49640058119558" lon="16.00883573746457"><ele>31.0</ele><time>2026-04-12T15:47:48Z</time></trkpt><trkpt lat="38.496495990975355" lon="16.008908138942484"><ele>31.0</ele><time>2026-04-12T15:47:49Z</time></trkpt><trkpt lat="38.49661137697112" lon="16.008958609137032"><ele>31.0</ele><time>2026-04-12T15:47:50Z</time></trkpt><trkpt lat="38.49674818312328" lon="16.008992744933213"><ele>31.0</ele><time>2026-04-12T15:47:51Z</time></trkpt><trkpt lat="38.49688296415308" lon="16.00903115906742"><ele>31.0</ele><time>2026-04-12T15:47:52Z</time></trkpt><trkpt lat="38.49701705093912" lon="16.009072121697944"><ele>31.0</ele><time>2026-04-12T15:47:53Z</time></trkpt><trkpt lat="38.497148085086465" lon="16.009117070393643"><ele>31.0</ele><time>2026-04-12T15:47:54Z</time></trkpt><trkpt lat="38.49729016930178" lon="16.00917366519884"><ele>30.75</ele><time>2026-04-12T15:47:55Z</time></trkpt><trkpt lat="38.49739995936932" lon="16.00920388197575"><ele>30.5</ele><time>2026-04-12T15:47:56Z</time></trkpt><trkpt lat="38.497511816654594" lon="16.009236551258603"><ele>30.25</ele><time>2026-04-12T15:47:57Z</time></trkpt><trkpt lat="38.49763505049777" lon="16.009237692698242"><ele>30.0</ele><time>2026-04-12T15:47:58Z</time></trkpt><trkpt lat="38.49777596569077" lon="16.009208639542386"><ele>29.333333333333336</ele><time>2026-04-12T15:47:59Z</time></trkpt><trkpt lat="38.497944710190765" lon="16.009143063201922"><ele>28.666666666666668</ele><time>2026-04-12T15:48:00Z</time></trkpt><trkpt lat="38.49812869785642" lon="16.00906422546917"><ele>28.0</ele><time>2026-04-12T15:48:01Z</time></trkpt><trkpt lat="38.49831426625205" lon="16.00899410488803"><ele>28.0</ele><time>2026-04-12T15:48:02Z</time></trkpt><trkpt lat="38.498493322429184" lon="16.008923358416155"><ele>28.0</ele><time>2026-04-12T15:48:03Z</time></trkpt><trkpt lat="38.49867456704546" lon="16.008847091889507"><ele>28.0</ele><time>2026-04-12T15:48:04Z</time></trkpt><trkpt lat="38.49887099786394" lon="16.008769840567332"><ele>27.5</ele><time>2026-04-12T15:48:05Z</time></trkpt><trkpt lat="38.49908643252676" lon="16.008697331045735"><ele>27.0</ele><time>2026-04-12T15:48:06Z</time></trkpt><trkpt lat="38.499327296668426" lon="16.0086062237926"><ele>28.5</ele><time>2026-04-12T15:48:07.001Z</time></trkpt><trkpt lat="38.49960093298418" lon="16.008509740127717"><ele>30.0</ele><time>2026-04-12T15:48:08.001Z</time></trkpt><trkpt lat="38.4998935451295" lon="16.008401501293356"><ele>30.0</ele><time>2026-04-12T15:48:09.001Z</time></trkpt><trkpt lat="38.50021762975435" lon="16.008259336578977"><ele>30.0</ele><time>2026-04-12T15:48:10.001Z</time></trkpt><trkpt lat="38.500526122763354" lon="16.008160797388445"><ele>30.0</ele><time>2026-04-12T15:48:11.001Z</time></trkpt><trkpt lat="38.50077802779842" lon="16.008073227296972"><ele>30.0</ele><time>2026-04-12T15:48:12.001Z</time></trkpt><trkpt lat="38.50099807768975" lon="16.00798905996722"><ele>30.0</ele><time>2026-04-12T15:48:13.001Z</time></trkpt><trkpt lat="38.5012020760038" lon="16.007905089894358"><ele>30.0</ele><time>2026-04-12T15:48:14.001Z</time></trkpt><trkpt lat="38.50139508004646" lon="16.007825282102637"><ele>30.0</ele><time>2026-04-12T15:48:15.001Z</time></trkpt><trkpt lat="38.50158303007771" lon="16.00775097096946"><ele>30.0</ele><time>2026-04-12T15:48:16.001Z</time></trkpt><trkpt lat="38.50176360415514" lon="16.007680744666207"><ele>30.0</ele><time>2026-04-12T15:48:17.001Z</time></trkpt><trkpt lat="38.50194205855688" lon="16.00761362366482"><ele>30.0</ele><time>2026-04-12T15:48:18.001Z</time></trkpt><trkpt lat="38.502122058215264" lon="16.00754831869527"><ele>30.333333333333336</ele><time>2026-04-12T15:48:19.001Z</time></trkpt><trkpt lat="38.50229300194629" lon="16.007483438769874"><ele>30.666666666666668</ele><time>2026-04-12T15:48:20.001Z</time></trkpt><trkpt lat="38.502458844221024" lon="16.00742117433012"><ele>31.0</ele><time>2026-04-12T15:48:21.001Z</time></trkpt><trkpt lat="38.50262394661459" lon="16.007356950026793"><ele>31.0</ele><time>2026-04-12T15:48:22.001Z</time></trkpt><trkpt lat="38.50278766784335" lon="16.007295188535902"><ele>31.0</ele><time>2026-04-12T15:48:23.001Z</time></trkpt><trkpt lat="38.5029453660405" lon="16.00723319542918"><ele>31.0</ele><time>2026-04-12T15:48:24.001Z</time></trkpt><trkpt lat="38.503098810927604" lon="16.007173281584976"><ele>29.666666666666668</ele><time>2026-04-12T15:48:25.001Z</time></trkpt><trkpt lat="38.50324784837092" lon="16.00711407890717"><ele>28.333333333333336</ele><time>2026-04-12T15:48:26.001Z</time></trkpt><trkpt lat="38.50339527419078" lon="16.00705838530355"><ele>27.0</ele><time>2026-04-12T15:48:27.001Z</time></trkpt><trkpt lat="38.503539863362306" lon="16.007008235913645"><ele>27.0</ele><time>2026-04-12T15:48:28.001Z</time></trkpt><trkpt lat="38.50367912188258" lon="16.006959699712304"><ele>27.0</ele><time>2026-04-12T15:48:29.001Z</time></trkpt><trkpt lat="38.50381839842615" lon="16.006903758557034"><ele>27.0</ele><time>2026-04-12T15:48:30.001Z</time></trkpt><trkpt lat="38.50396149573071" lon="16.006848497377522"><ele>27.0</ele><time>2026-04-12T15:48:31.001Z</time></trkpt><trkpt lat="38.50410554318748" lon="16.00679116364717"><ele>28.0</ele><time>2026-04-12T15:48:32.001Z</time></trkpt><trkpt lat="38.50424772946191" lon="16.00673669590928"><ele>29.0</ele><time>2026-04-12T15:48:33.001Z</time></trkpt><trkpt lat="38.504392574301086" lon="16.006680537654358"><ele>30.0</ele><time>2026-04-12T15:48:34.001Z</time></trkpt><trkpt lat="38.5045438863968" lon="16.006624956703558"><ele>30.666666666666664</ele><time>2026-04-12T15:48:35.001Z</time></trkpt><trkpt lat="38.504699649921086" lon="16.006570977962845"><ele>31.333333333333332</ele><time>2026-04-12T15:48:36.001Z</time></trkpt><trkpt lat="38.50485726397541" lon="16.006518511799488"><ele>32.0</ele><time>2026-04-12T15:48:37.001Z</time></trkpt><trkpt lat="38.50501750925672" lon="16.006460604181992"><ele>32.0</ele><time>2026-04-12T15:48:38.001Z</time></trkpt><trkpt lat="38.50517441150988" lon="16.006401770820837"><ele>32.0</ele><time>2026-04-12T15:48:39.001Z</time></trkpt><trkpt lat="38.50532445522136" lon="16.00634287249979"><ele>32.0</ele><time>2026-04-12T15:48:40.001Z</time></trkpt><trkpt lat="38.505459629449" lon="16.00629102513291"><ele>33.0</ele><time>2026-04-12T15:48:41.001Z</time></trkpt><trkpt lat="38.505580146259" lon="16.006254129421034"><ele>34.0</ele><time>2026-04-12T15:48:42.001Z</time></trkpt><trkpt lat="38.505695186188994" lon="16.006213690635416"><ele>35.0</ele><time>2026-04-12T15:48:43.001Z</time></trkpt><trkpt lat="38.505804666115985" lon="16.00616804453544"><ele>36.0</ele><time>2026-04-12T15:48:44.001Z</time></trkpt><trkpt lat="38.505919012122526" lon="16.006096711740906"><ele>36.0</ele><time>2026-04-12T15:48:45.001Z</time></trkpt><trkpt lat="38.50602922632239" lon="16.005992854530003"><ele>36.0</ele><time>2026-04-12T15:48:46.001Z</time></trkpt><trkpt lat="38.506130430251716" lon="16.00585241202334"><ele>36.0</ele><time>2026-04-12T15:48:47.001Z</time></trkpt><trkpt lat="38.50623710003467" lon="16.00570968312817"><ele>36.0</ele><time>2026-04-12T15:48:48.001Z</time></trkpt><trkpt lat="38.50633562087113" lon="16.005551697866274"><ele>37.75</ele><time>2026-04-12T15:48:49.001Z</time></trkpt><trkpt lat="38.50642928293927" lon="16.005400874413528"><ele>39.5</ele><time>2026-04-12T15:48:50.001Z</time></trkpt><trkpt lat="38.506503674714466" lon="16.00524597660094"><ele>41.25</ele><time>2026-04-12T15:48:51.001Z</time></trkpt><trkpt lat="38.506587466615585" lon="16.005113839631036"><ele>43.0</ele><time>2026-04-12T15:48:52.001Z</time></trkpt><trkpt lat="38.506692461071744" lon="16.00501023628653"><ele>40.75</ele><time>2026-04-12T15:48:53.001Z</time></trkpt><trkpt lat="38.50680526499757" lon="16.004918761312965"><ele>38.5</ele><time>2026-04-12T15:48:54.001Z</time></trkpt><trkpt lat="38.50693014198888" lon="16.00484723304772"><ele>36.25</ele><time>2026-04-12T15:48:55.001Z</time></trkpt><trkpt lat="38.50706269949206" lon="16.004748465355288"><ele>34.0</ele><time>2026-04-12T15:48:56.001Z</time></trkpt><trkpt lat="38.50720917721816" lon="16.004653842299856"><ele>34.0</ele><time>2026-04-12T15:48:57.002Z</time></trkpt><trkpt lat="38.507352194538825" lon="16.004535172021246"><ele>34.0</ele><time>2026-04-12T15:48:58.002Z</time></trkpt><trkpt lat="38.507487002863606" lon="16.004422313535986"><ele>34.0</ele><time>2026-04-12T15:48:59.002Z</time></trkpt><trkpt lat="38.50762053946257" lon="16.004329948175318"><ele>34.0</ele><time>2026-04-12T15:49:00.002Z</time></trkpt><trkpt lat="38.507756395702856" lon="16.00423142928403"><ele>34.0</ele><time>2026-04-12T15:49:01.002Z</time></trkpt><trkpt lat="38.507887128609326" lon="16.004136022150547"><ele>34.0</ele><time>2026-04-12T15:49:02.002Z</time></trkpt><trkpt lat="38.5080242555263" lon="16.00403112688936"><ele>32.66666666666667</ele><time>2026-04-12T15:49:03.002Z</time></trkpt><trkpt lat="38.50815963109689" lon="16.003932423986864"><ele>31.333333333333336</ele><time>2026-04-12T15:49:04.002Z</time></trkpt><trkpt lat="38.50829409320074" lon="16.003819250827895"><ele>30.0</ele><time>2026-04-12T15:49:05.002Z</time></trkpt><trkpt lat="38.508435029264355" lon="16.003728261523293"><ele>30.0</ele><time>2026-04-12T15:49:06.002Z</time></trkpt><trkpt lat="38.50857552271239" lon="16.00362499763011"><ele>30.0</ele><time>2026-04-12T15:49:07.002Z</time></trkpt><trkpt lat="38.50871541595164" lon="16.003513617327716"><ele>30.0</ele><time>2026-04-12T15:49:08.002Z</time></trkpt><trkpt lat="38.50885657794934" lon="16.003409415251202"><ele>29.0</ele><time>2026-04-12T15:49:09.002Z</time></trkpt><trkpt lat="38.50899514663431" lon="16.00329743185502"><ele>28.0</ele><time>2026-04-12T15:49:10.002Z</time></trkpt><trkpt lat="38.50913795921025" lon="16.003197108071692"><ele>27.0</ele><time>2026-04-12T15:49:11.002Z</time></trkpt><trkpt lat="38.50927958335343" lon="16.00309264455381"><ele>27.0</ele><time>2026-04-12T15:49:12.002Z</time></trkpt><trkpt lat="38.509429879669945" lon="16.002986605968008"><ele>27.0</ele><time>2026-04-12T15:49:13.002Z</time></trkpt><trkpt lat="38.50958265327524" lon="16.002875539490887"><ele>27.0</ele><time>2026-04-12T15:49:14.002Z</time></trkpt><trkpt lat="38.5097379840324" lon="16.00276203027923"><ele>26.666666666666664</ele><time>2026-04-12T15:49:15.002Z</time></trkpt><trkpt lat="38.50989173386797" lon="16.002640754437188"><ele>26.333333333333332</ele><time>2026-04-12T15:49:16.002Z</time></trkpt><trkpt lat="38.510050309624695" lon="16.002523977236237"><ele>26.0</ele><time>2026-04-12T15:49:17.002Z</time></trkpt><trkpt lat="38.51020751464026" lon="16.0024061656219"><ele>26.0</ele><time>2026-04-12T15:49:18Z</time></trkpt><trkpt lat="38.51036295052658" lon="16.00228962156145"><ele>26.0</ele><time>2026-04-12T15:49:19Z</time></trkpt><trkpt lat="38.51051395162002" lon="16.002179224044113"><ele>26.0</ele><time>2026-04-12T15:49:20Z</time></trkpt><trkpt lat="38.510657074710124" lon="16.002073809729687"><ele>26.25</ele><time>2026-04-12T15:49:21Z</time></trkpt><trkpt lat="38.51078578061437" lon="16.001981111625234"><ele>26.5</ele><time>2026-04-12T15:49:22Z</time></trkpt><trkpt lat="38.51090301963765" lon="16.001892963989572"><ele>26.75</ele><time>2026-04-12T15:49:23Z</time></trkpt><trkpt lat="38.51102254951908" lon="16.001814980637445"><ele>27.0</ele><time>2026-04-12T15:49:24Z</time></trkpt><trkpt lat="38.51113824507416" lon="16.001727492126506"><ele>28.75</ele><time>2026-04-12T15:49:25Z</time></trkpt><trkpt lat="38.511247280444" lon="16.001639901881855"><ele>30.5</ele><time>2026-04-12T15:49:26Z</time></trkpt><trkpt lat="38.5113561665224" lon="16.00155890130304"><ele>32.25</ele><time>2026-04-12T15:49:27Z</time></trkpt><trkpt lat="38.51146438243657" lon="16.0014835167343"><ele>34.0</ele><time>2026-04-12T15:49:28Z</time></trkpt><trkpt lat="38.51157676279802" lon="16.00140379292837"><ele>34.0</ele><time>2026-04-12T15:49:29Z</time></trkpt><trkpt lat="38.51168780842219" lon="16.0013293355728"><ele>34.0</ele><time>2026-04-12T15:49:30Z</time></trkpt><trkpt lat="38.51178453301302" lon="16.001262194286834"><ele>34.0</ele><time>2026-04-12T15:49:31Z</time></trkpt><trkpt lat="38.511873122156075" lon="16.00121053245818"><ele>34.0</ele><time>2026-04-12T15:49:32Z</time></trkpt><trkpt lat="38.51195605513336" lon="16.001182058739438"><ele>34.0</ele><time>2026-04-12T15:49:33Z</time></trkpt><trkpt lat="38.51201671291887" lon="16.001155799900854"><ele>36.0</ele><time>2026-04-12T15:49:34Z</time></trkpt><trkpt lat="38.51214310679579" lon="16.001230867415835"><ele>38.0</ele><time>2026-04-12T15:49:36Z</time></trkpt><trkpt lat="38.51221184871242" lon="16.001298040742995"><ele>40.0</ele><time>2026-04-12T15:49:37Z</time></trkpt><trkpt lat="38.51231549041032" lon="16.001390115780488"><ele>42.0</ele><time>2026-04-12T15:49:38Z</time></trkpt><trkpt lat="38.51244730291916" lon="16.001501767589577"><ele>42.0</ele><time>2026-04-12T15:49:39Z</time></trkpt><trkpt lat="38.5125957388075" lon="16.001634193915102"><ele>42.0</ele><time>2026-04-12T15:49:40Z</time></trkpt><trkpt lat="38.51275907337954" lon="16.00178520558246"><ele>42.0</ele><time>2026-04-12T15:49:41Z</time></trkpt><trkpt lat="38.51294284396911" lon="16.001946465913154"><ele>39.0</ele><time>2026-04-12T15:49:42Z</time></trkpt><trkpt lat="38.513136669218696" lon="16.002109461889365"><ele>36.0</ele><time>2026-04-12T15:49:43Z</time></trkpt><trkpt lat="38.513329573080306" lon="16.00228550527596"><ele>36.0</ele><time>2026-04-12T15:49:44Z</time></trkpt><trkpt lat="38.51352393367397" lon="16.00246234756182"><ele>36.0</ele><time>2026-04-12T15:49:45Z</time></trkpt><trkpt lat="38.51372505811061" lon="16.002632940550775"><ele>38.0</ele><time>2026-04-12T15:49:46Z</time></trkpt><trkpt lat="38.513926218177915" lon="16.002823942967414"><ele>40.0</ele><time>2026-04-12T15:49:47Z</time></trkpt><trkpt lat="38.51413393121445" lon="16.00300079397836"><ele>40.0</ele><time>2026-04-12T15:49:48Z</time></trkpt><trkpt lat="38.51434086331133" lon="16.003184652588374"><ele>40.0</ele><time>2026-04-12T15:49:49Z</time></trkpt><trkpt lat="38.51453766902834" lon="16.003361078038814"><ele>39.0</ele><time>2026-04-12T15:49:50Z</time></trkpt><trkpt lat="38.51472223262996" lon="16.0035273169442"><ele>38.0</ele><time>2026-04-12T15:49:51Z</time></trkpt><trkpt lat="38.514897138011186" lon="16.00368655631728"><ele>37.0</ele><time>2026-04-12T15:49:52Z</time></trkpt><trkpt lat="38.51505929280841" lon="16.003837798229203"><ele>37.0</ele><time>2026-04-12T15:49:53Z</time></trkpt><trkpt lat="38.515213230316114" lon="16.003975969036983"><ele>37.0</ele><time>2026-04-12T15:49:54Z</time></trkpt><trkpt lat="38.515360462797666" lon="16.004112399731326"><ele>37.0</ele><time>2026-04-12T15:49:55Z</time></trkpt><trkpt lat="38.51550099309425" lon="16.0042437318955"><ele>38.333333333333336</ele><time>2026-04-12T15:49:56Z</time></trkpt><trkpt lat="38.51563809344615" lon="16.00437497182065"><ele>39.666666666666664</ele><time>2026-04-12T15:49:57.001Z</time></trkpt><trkpt lat="38.51576753999217" lon="16.004515171469805"><ele>41.0</ele><time>2026-04-12T15:49:58.001Z</time></trkpt><trkpt lat="38.5158923275772" lon="16.00466615115087"><ele>41.0</ele><time>2026-04-12T15:49:59.001Z</time></trkpt><trkpt lat="38.51600848469282" lon="16.004843168768158"><ele>41.0</ele><time>2026-04-12T15:50:00.001Z</time></trkpt><trkpt lat="38.516128219022626" lon="16.005019066359278"><ele>41.0</ele><time>2026-04-12T15:50:01.001Z</time></trkpt><trkpt lat="38.51624722013818" lon="16.00521003776595"><ele>38.33333333333333</ele><time>2026-04-12T15:50:02.001Z</time></trkpt><trkpt lat="38.516372101166304" lon="16.00540268221216"><ele>35.666666666666664</ele><time>2026-04-12T15:50:03.001Z</time></trkpt><trkpt lat="38.516493626251446" lon="16.005599700713432"><ele>33.0</ele><time>2026-04-12T15:50:04.001Z</time></trkpt><trkpt lat="38.516618790744964" lon="16.00580501365123"><ele>32.333333333333336</ele><time>2026-04-12T15:50:05.001Z</time></trkpt><trkpt lat="38.516745562038224" lon="16.006009833983672"><ele>31.666666666666668</ele><time>2026-04-12T15:50:06.001Z</time></trkpt><trkpt lat="38.51687304673281" lon="16.00622296654522"><ele>31.0</ele><time>2026-04-12T15:50:07.001Z</time></trkpt><trkpt lat="38.5170022727555" lon="16.00643633578158"><ele>31.0</ele><time>2026-04-12T15:50:08.001Z</time></trkpt><trkpt lat="38.51713141722618" lon="16.006648297952374"><ele>31.0</ele><time>2026-04-12T15:50:09.001Z</time></trkpt><trkpt lat="38.517260297810566" lon="16.006855467996356"><ele>31.0</ele><time>2026-04-12T15:50:10.001Z</time></trkpt><trkpt lat="38.51738563685867" lon="16.007055099306836"><ele>31.0</ele><time>2026-04-12T15:50:11.001Z</time></trkpt><trkpt lat="38.517503626756735" lon="16.007252873780192"><ele>31.0</ele><time>2026-04-12T15:50:12.001Z</time></trkpt><trkpt lat="38.51761590752911" lon="16.007436596301847"><ele>31.0</ele><time>2026-04-12T15:50:13.001Z</time></trkpt><trkpt lat="38.517724824810934" lon="16.0076156120269"><ele>31.0</ele><time>2026-04-12T15:50:14.001Z</time></trkpt><trkpt lat="38.517840111603014" lon="16.007803103796167"><ele>31.0</ele><time>2026-04-12T15:50:15.001Z</time></trkpt><trkpt lat="38.51795699948545" lon="16.007995301307528"><ele>31.0</ele><time>2026-04-12T15:50:16.001Z</time></trkpt><trkpt lat="38.518076130443916" lon="16.008189585916735"><ele>31.333333333333336</ele><time>2026-04-12T15:50:17.001Z</time></trkpt><trkpt lat="38.518195420414074" lon="16.00838464478944"><ele>31.666666666666664</ele><time>2026-04-12T15:50:18.001Z</time></trkpt><trkpt lat="38.51831949843179" lon="16.008580520436357"><ele>32.0</ele><time>2026-04-12T15:50:19.001Z</time></trkpt><trkpt lat="38.51844411868443" lon="16.008781831852126"><ele>32.0</ele><time>2026-04-12T15:50:20.001Z</time></trkpt><trkpt lat="38.51856813358949" lon="16.0089823360446"><ele>32.0</ele><time>2026-04-12T15:50:21.001Z</time></trkpt><trkpt lat="38.51869469364793" lon="16.009187757483634"><ele>32.0</ele><time>2026-04-12T15:50:22.001Z</time></trkpt><trkpt lat="38.51881918761763" lon="16.009393723602024"><ele>32.666666666666664</ele><time>2026-04-12T15:50:23.001Z</time></trkpt><trkpt lat="38.51894362656445" lon="16.00960362173763"><ele>33.333333333333336</ele><time>2026-04-12T15:50:24.001Z</time></trkpt><trkpt lat="38.51907053656563" lon="16.00981096708098"><ele>34.0</ele><time>2026-04-12T15:50:25.001Z</time></trkpt><trkpt lat="38.51919876995318" lon="16.010019598292967"><ele>34.0</ele><time>2026-04-12T15:50:26.001Z</time></trkpt><trkpt lat="38.519327083823605" lon="16.01022708646718"><ele>34.0</ele><time>2026-04-12T15:50:27.001Z</time></trkpt><trkpt lat="38.51945844525319" lon="16.010439035216425"><ele>34.0</ele><time>2026-04-12T15:50:28.001Z</time></trkpt><trkpt lat="38.51959342015296" lon="16.01065271555983"><ele>35.0</ele><time>2026-04-12T15:50:29.001Z</time></trkpt><trkpt lat="38.51972901460983" lon="16.01086734549228"><ele>36.0</ele><time>2026-04-12T15:50:30.001Z</time></trkpt><trkpt lat="38.519862487889796" lon="16.01108295757173"><ele>37.0</ele><time>2026-04-12T15:50:31.001Z</time></trkpt><trkpt lat="38.5199982907373" lon="16.011305829707513"><ele>37.0</ele><time>2026-04-12T15:50:32.001Z</time></trkpt><trkpt lat="38.52014183336604" lon="16.01154312996416"><ele>37.0</ele><time>2026-04-12T15:50:33.001Z</time></trkpt><trkpt lat="38.52028851453494" lon="16.011784930392775"><ele>38.5</ele><time>2026-04-12T15:50:34.001Z</time></trkpt><trkpt lat="38.52043827194944" lon="16.012024804124465"><ele>40.0</ele><time>2026-04-12T15:50:35.001Z</time></trkpt><trkpt lat="38.520587867401325" lon="16.012261314257284"><ele>40.5</ele><time>2026-04-12T15:50:36.001Z</time></trkpt><trkpt lat="38.520732419340106" lon="16.012495739116243"><ele>41.0</ele><time>2026-04-12T15:50:37.001Z</time></trkpt><trkpt lat="38.52087252719533" lon="16.012725213148094"><ele>41.0</ele><time>2026-04-12T15:50:38.001Z</time></trkpt><trkpt lat="38.52100804578246" lon="16.012947829180522"><ele>41.0</ele><time>2026-04-12T15:50:39.001Z</time></trkpt><trkpt lat="38.521140207551774" lon="16.013160560623195"><ele>41.0</ele><time>2026-04-12T15:50:40.001Z</time></trkpt><trkpt lat="38.521269092939896" lon="16.013369034400732"><ele>43.666666666666664</ele><time>2026-04-12T15:50:41.001Z</time></trkpt><trkpt lat="38.52139171069644" lon="16.013566181616188"><ele>46.33333333333333</ele><time>2026-04-12T15:50:42.001Z</time></trkpt><trkpt lat="38.52150728124661" lon="16.013758426429995"><ele>49.0</ele><time>2026-04-12T15:50:43.001Z</time></trkpt><trkpt lat="38.521618292658445" lon="16.01394102984996"><ele>49.0</ele><time>2026-04-12T15:50:44.001Z</time></trkpt><trkpt lat="38.521729467690534" lon="16.014123204058954"><ele>49.0</ele><time>2026-04-12T15:50:45.001Z</time></trkpt><trkpt lat="38.52183886276744" lon="16.0142918344395"><ele>49.0</ele><time>2026-04-12T15:50:46.001Z</time></trkpt><trkpt lat="38.52195488142039" lon="16.014436668388992"><ele>50.0</ele><time>2026-04-12T15:50:47.001Z</time></trkpt><trkpt lat="38.52208954703788" lon="16.01452511110089"><ele>51.0</ele><time>2026-04-12T15:50:48.002Z</time></trkpt><trkpt lat="38.52223279301419" lon="16.01455594244887"><ele>52.0</ele><time>2026-04-12T15:50:49.002Z</time></trkpt><trkpt lat="38.52237364516997" lon="16.01453045743865"><ele>53.0</ele><time>2026-04-12T15:50:50.002Z</time></trkpt><trkpt lat="38.52252875327117" lon="16.014478774549225"><ele>53.0</ele><time>2026-04-12T15:50:51.002Z</time></trkpt><trkpt lat="38.52269698386136" lon="16.01442966789186"><ele>53.0</ele><time>2026-04-12T15:50:52.002Z</time></trkpt><trkpt lat="38.52286925292559" lon="16.01439501515924"><ele>53.0</ele><time>2026-04-12T15:50:53.002Z</time></trkpt><trkpt lat="38.523028517219366" lon="16.014362513595316"><ele>54.25</ele><time>2026-04-12T15:50:54.002Z</time></trkpt><trkpt lat="38.523178393485956" lon="16.014334247293615"><ele>55.5</ele><time>2026-04-12T15:50:55.002Z</time></trkpt><trkpt lat="38.523322797405" lon="16.01431906710699"><ele>56.75</ele><time>2026-04-12T15:50:56.002Z</time></trkpt><trkpt lat="38.52346939439712" lon="16.01431943272674"><ele>58.0</ele><time>2026-04-12T15:50:57.002Z</time></trkpt><trkpt lat="38.52361422311343" lon="16.014353639887574"><ele>60.666666666666664</ele><time>2026-04-12T15:50:58.002Z</time></trkpt><trkpt lat="38.523763664228774" lon="16.01439045992748"><ele>63.33333333333333</ele><time>2026-04-12T15:50:59.002Z</time></trkpt><trkpt lat="38.52391144743447" lon="16.0144466050047"><ele>66.0</ele><time>2026-04-12T15:51:00.002Z</time></trkpt><trkpt lat="38.52405669891523" lon="16.0145186372682"><ele>66.0</ele><time>2026-04-12T15:51:01.002Z</time></trkpt><trkpt lat="38.52420015522565" lon="16.014597337557074"><ele>66.0</ele><time>2026-04-12T15:51:02.002Z</time></trkpt><trkpt lat="38.524338048058944" lon="16.01469412334038"><ele>66.0</ele><time>2026-04-12T15:51:03.002Z</time></trkpt><trkpt lat="38.5244682196895" lon="16.01479556769014"><ele>66.25</ele><time>2026-04-12T15:51:04.002Z</time></trkpt><trkpt lat="38.524591081627825" lon="16.01490345073319"><ele>66.5</ele><time>2026-04-12T15:51:05.002Z</time></trkpt><trkpt lat="38.524708156351146" lon="16.01500986326755"><ele>66.75</ele><time>2026-04-12T15:51:06.002Z</time></trkpt><trkpt lat="38.52481673932264" lon="16.01511855670485"><ele>67.0</ele><time>2026-04-12T15:51:07.002Z</time></trkpt><trkpt lat="38.52491660986932" lon="16.015231708734913"><ele>67.0</ele><time>2026-04-12T15:51:08.002Z</time></trkpt><trkpt lat="38.52499422054453" lon="16.015347319797378"><ele>67.0</ele><time>2026-04-12T15:51:09.002Z</time></trkpt><trkpt lat="38.52505090771751" lon="16.015467976337703"><ele>67.0</ele><time>2026-04-12T15:51:10.002Z</time></trkpt><trkpt lat="38.52510918319595" lon="16.015585880498424"><ele>67.0</ele><time>2026-04-12T15:51:11.002Z</time></trkpt><trkpt lat="38.525180195824866" lon="16.015687812454303"><ele>67.0</ele><time>2026-04-12T15:51:12.002Z</time></trkpt><trkpt lat="38.52529057282523" lon="16.015783371283767"><ele>67.33333333333333</ele><time>2026-04-12T15:51:13.002Z</time></trkpt><trkpt lat="38.525454954607724" lon="16.015854008647388"><ele>67.66666666666667</ele><time>2026-04-12T15:51:14.002Z</time></trkpt><trkpt lat="38.52564280009102" lon="16.015902911533693"><ele>68.0</ele><time>2026-04-12T15:51:15.002Z</time></trkpt><trkpt lat="38.52581484741399" lon="16.015955796044242"><ele>68.0</ele><time>2026-04-12T15:51:16.002Z</time></trkpt><trkpt lat="38.52597778453799" lon="16.01600958597983"><ele>68.0</ele><time>2026-04-12T15:51:17.002Z</time></trkpt><trkpt lat="38.52614008881407" lon="16.01607928310962"><ele>68.0</ele><time>2026-04-12T15:51:18.002Z</time></trkpt><trkpt lat="38.52630067882494" lon="16.01614635399655"><ele>72.0</ele><time>2026-04-12T15:51:19.002Z</time></trkpt><trkpt lat="38.526445040086784" lon="16.01622164421895"><ele>76.0</ele><time>2026-04-12T15:51:20.002Z</time></trkpt><trkpt lat="38.52656956579152" lon="16.016320921428335"><ele>80.0</ele><time>2026-04-12T15:51:21.002Z</time></trkpt><trkpt lat="38.526681906351634" lon="16.01645648761733"><ele>80.0</ele><time>2026-04-12T15:51:22.002Z</time></trkpt><trkpt lat="38.52680326450353" lon="16.016562744105443"><ele>80.0</ele><time>2026-04-12T15:51:23.002Z</time></trkpt><trkpt lat="38.52694340234057" lon="16.01664030283029"><ele>80.0</ele><time>2026-04-12T15:51:24.001Z</time></trkpt><trkpt lat="38.52710265572745" lon="16.016661173346428"><ele>80.66666666666667</ele><time>2026-04-12T15:51:25.001Z</time></trkpt><trkpt lat="38.52727287345874" lon="16.01662914976753"><ele>81.33333333333333</ele><time>2026-04-12T15:51:26.001Z</time></trkpt><trkpt lat="38.52743149431084" lon="16.016594946190892"><ele>82.0</ele><time>2026-04-12T15:51:27.001Z</time></trkpt><trkpt lat="38.52758820374205" lon="16.016614309175427"><ele>82.33333333333333</ele><time>2026-04-12T15:51:28.001Z</time></trkpt><trkpt lat="38.52774614492195" lon="16.016681762921333"><ele>82.66666666666667</ele><time>2026-04-12T15:51:29.001Z</time></trkpt><trkpt lat="38.52789682004557" lon="16.016763098733385"><ele>83.0</ele><time>2026-04-12T15:51:30.001Z</time></trkpt><trkpt lat="38.52804748924925" lon="16.01684688480041"><ele>83.0</ele><time>2026-04-12T15:51:31.001Z</time></trkpt><trkpt lat="38.52821085034762" lon="16.016927457805757"><ele>83.0</ele><time>2026-04-12T15:51:32.001Z</time></trkpt><trkpt lat="38.52837719996346" lon="16.017004425130075"><ele>83.0</ele><time>2026-04-12T15:51:33.001Z</time></trkpt><trkpt lat="38.528540938677274" lon="16.017086468655037"><ele>83.0</ele><time>2026-04-12T15:51:34Z</time></trkpt><trkpt lat="38.528702799466814" lon="16.017167648244914"><ele>83.0</ele><time>2026-04-12T15:51:35Z</time></trkpt><trkpt lat="38.5288651526845" lon="16.01725053403252"><ele>83.0</ele><time>2026-04-12T15:51:36Z</time></trkpt><trkpt lat="38.529026845638725" lon="16.017333887089627"><ele>83.33333333333334</ele><time>2026-04-12T15:51:37Z</time></trkpt><trkpt lat="38.52918612426183" lon="16.01743212181755"><ele>83.66666666666667</ele><time>2026-04-12T15:51:38Z</time></trkpt><trkpt lat="38.5293488934194" lon="16.017542892269436"><ele>84.0</ele><time>2026-04-12T15:51:39Z</time></trkpt><trkpt lat="38.52951872716619" lon="16.017665541920238"><ele>84.0</ele><time>2026-04-12T15:51:40Z</time></trkpt><trkpt lat="38.52969678928988" lon="16.01778958908285"><ele>84.0</ele><time>2026-04-12T15:51:41Z</time></trkpt><trkpt lat="38.529870630140024" lon="16.017915850797223"><ele>84.0</ele><time>2026-04-12T15:51:42.001Z</time></trkpt><trkpt lat="38.53004202390366" lon="16.01803897002247"><ele>84.0</ele><time>2026-04-12T15:51:43.001Z</time></trkpt><trkpt lat="38.530210966970316" lon="16.018159418177675"><ele>84.0</ele><time>2026-04-12T15:51:44.001Z</time></trkpt><trkpt lat="38.530376830396094" lon="16.018280681798903"><ele>84.0</ele><time>2026-04-12T15:51:45.001Z</time></trkpt><trkpt lat="38.53054190566733" lon="16.018401224237554"><ele>83.33333333333333</ele><time>2026-04-12T15:51:46.001Z</time></trkpt><trkpt lat="38.53070698157699" lon="16.01851635042946"><ele>82.66666666666666</ele><time>2026-04-12T15:51:47.001Z</time></trkpt><trkpt lat="38.53086849830711" lon="16.018634898875998"><ele>82.0</ele><time>2026-04-12T15:51:48.001Z</time></trkpt><trkpt lat="38.53102758570166" lon="16.018753490599284"><ele>82.0</ele><time>2026-04-12T15:51:49.001Z</time></trkpt><trkpt lat="38.53118271304389" lon="16.01886956596507"><ele>82.0</ele><time>2026-04-12T15:51:50.001Z</time></trkpt><trkpt lat="38.53133358586818" lon="16.0189844006967"><ele>82.0</ele><time>2026-04-12T15:51:51.001Z</time></trkpt><trkpt lat="38.531483696447" lon="16.019092195299027"><ele>82.66666666666666</ele><time>2026-04-12T15:51:52.001Z</time></trkpt><trkpt lat="38.53163827688465" lon="16.01920555643984"><ele>83.33333333333333</ele><time>2026-04-12T15:51:53.001Z</time></trkpt><trkpt lat="38.531792220288146" lon="16.019313721735724"><ele>84.0</ele><time>2026-04-12T15:51:54.001Z</time></trkpt><trkpt lat="38.531948833034555" lon="16.019430596832503"><ele>83.66666666666667</ele><time>2026-04-12T15:51:55.001Z</time></trkpt><trkpt lat="38.532101835839995" lon="16.019548362222107"><ele>83.33333333333334</ele><time>2026-04-12T15:51:56.001Z</time></trkpt><trkpt lat="38.53225163923539" lon="16.01965918164828"><ele>83.0</ele><time>2026-04-12T15:51:57.001Z</time></trkpt><trkpt lat="38.53239534240949" lon="16.01977575615748"><ele>83.0</ele><time>2026-04-12T15:51:58.001Z</time></trkpt><trkpt lat="38.53252480967647" lon="16.019893975354925"><ele>83.0</ele><time>2026-04-12T15:51:59.001Z</time></trkpt><trkpt lat="38.53263510546223" lon="16.020019698632204"><ele>83.0</ele><time>2026-04-12T15:52:00.001Z</time></trkpt><trkpt lat="38.53273527022612" lon="16.020154940236093"><ele>83.66666666666667</ele><time>2026-04-12T15:52:01.001Z</time></trkpt><trkpt lat="38.53282365738269" lon="16.020307273948575"><ele>84.33333333333333</ele><time>2026-04-12T15:52:02.001Z</time></trkpt><trkpt lat="38.53289818142098" lon="16.020473226636565"><ele>85.0</ele><time>2026-04-12T15:52:03.001Z</time></trkpt><trkpt lat="38.53295961205763" lon="16.020650789719525"><ele>83.0</ele><time>2026-04-12T15:52:04.001Z</time></trkpt><trkpt lat="38.53300759316938" lon="16.020846926406037"><ele>81.0</ele><time>2026-04-12T15:52:05.001Z</time></trkpt><trkpt lat="38.53304458113151" lon="16.021055453834638"><ele>79.0</ele><time>2026-04-12T15:52:06.001Z</time></trkpt><trkpt lat="38.53307688878409" lon="16.021229535576136"><ele>79.0</ele><time>2026-04-12T15:52:07.001Z</time></trkpt><trkpt lat="38.53313431784901" lon="16.02147298362344"><ele>79.0</ele><time>2026-04-12T15:52:08.001Z</time></trkpt><trkpt lat="38.53316825628592" lon="16.02167793829741"><ele>79.0</ele><time>2026-04-12T15:52:09.001Z</time></trkpt><trkpt lat="38.53320050109716" lon="16.021899214961195"><ele>79.66666666666666</ele><time>2026-04-12T15:52:10.001Z</time></trkpt><trkpt lat="38.53324086334502" lon="16.022112698801372"><ele>80.33333333333333</ele><time>2026-04-12T15:52:11.001Z</time></trkpt><trkpt lat="38.53327844767237" lon="16.02231721055634"><ele>81.0</ele><time>2026-04-12T15:52:12.001Z</time></trkpt><trkpt lat="38.53332066002864" lon="16.02252365935317"><ele>81.0</ele><time>2026-04-12T15:52:13.001Z</time></trkpt><trkpt lat="38.53336235584022" lon="16.022736503450396"><ele>81.0</ele><time>2026-04-12T15:52:14.001Z</time></trkpt><trkpt lat="38.53340706922796" lon="16.022940657064154"><ele>81.0</ele><time>2026-04-12T15:52:15.001Z</time></trkpt><trkpt lat="38.53345625375065" lon="16.023136000047526"><ele>79.0</ele><time>2026-04-12T15:52:16.001Z</time></trkpt><trkpt lat="38.53352151966698" lon="16.02332325374132"><ele>77.0</ele><time>2026-04-12T15:52:17.001Z</time></trkpt><trkpt lat="38.5336074928321" lon="16.023523873972245"><ele>75.0</ele><time>2026-04-12T15:52:18.001Z</time></trkpt><trkpt lat="38.53369083987863" lon="16.023753553904633"><ele>76.66666666666667</ele><time>2026-04-12T15:52:19.001Z</time></trkpt><trkpt lat="38.53378044764124" lon="16.02399098201914"><ele>78.33333333333334</ele><time>2026-04-12T15:52:20.001Z</time></trkpt><trkpt lat="38.533880643183075" lon="16.024225991745258"><ele>80.0</ele><time>2026-04-12T15:52:21.001Z</time></trkpt><trkpt lat="38.533981247109836" lon="16.024448874183562"><ele>80.0</ele><time>2026-04-12T15:52:22.001Z</time></trkpt><trkpt lat="38.53409990084493" lon="16.024678940856415"><ele>80.0</ele><time>2026-04-12T15:52:23.001Z</time></trkpt><trkpt lat="38.5342409738578" lon="16.024914601857148"><ele>80.0</ele><time>2026-04-12T15:52:24.001Z</time></trkpt><trkpt lat="38.53438112718005" lon="16.025149671321415"><ele>80.5</ele><time>2026-04-12T15:52:25.001Z</time></trkpt><trkpt lat="38.53452033663895" lon="16.025389374808753"><ele>81.0</ele><time>2026-04-12T15:52:26.001Z</time></trkpt><trkpt lat="38.53466231284589" lon="16.025620651143168"><ele>84.33333333333333</ele><time>2026-04-12T15:52:27.001Z</time></trkpt><trkpt lat="38.53480393117841" lon="16.025841938335162"><ele>87.66666666666666</ele><time>2026-04-12T15:52:28.001Z</time></trkpt><trkpt lat="38.53494924130848" lon="16.026048178726917"><ele>91.0</ele><time>2026-04-12T15:52:29.001Z</time></trkpt><trkpt lat="38.53509233952124" lon="16.026248184519346"><ele>91.0</ele><time>2026-04-12T15:52:30.001Z</time></trkpt><trkpt lat="38.53523139393999" lon="16.02644636199279"><ele>91.0</ele><time>2026-04-12T15:52:31.001Z</time></trkpt><trkpt lat="38.53537294260434" lon="16.02664020089392"><ele>91.0</ele><time>2026-04-12T15:52:32.001Z</time></trkpt><trkpt lat="38.53551260429167" lon="16.026820723145978"><ele>93.0</ele><time>2026-04-12T15:52:33.001Z</time></trkpt><trkpt lat="38.535658381550085" lon="16.026976740942498"><ele>95.0</ele><time>2026-04-12T15:52:34.001Z</time></trkpt><trkpt lat="38.535810714234714" lon="16.027101253834328"><ele>97.0</ele><time>2026-04-12T15:52:35.001Z</time></trkpt><trkpt lat="38.53597151259013" lon="16.027196184306913"><ele>97.0</ele><time>2026-04-12T15:52:36.001Z</time></trkpt><trkpt lat="38.53613417173239" lon="16.02727926031795"><ele>97.0</ele><time>2026-04-12T15:52:37.001Z</time></trkpt><trkpt lat="38.536289744272345" lon="16.027365411365512"><ele>97.0</ele><time>2026-04-12T15:52:38.001Z</time></trkpt><trkpt lat="38.536431724314404" lon="16.027448000393015"><ele>99.0</ele><time>2026-04-12T15:52:39.001Z</time></trkpt><trkpt lat="38.5365546669835" lon="16.02753561423055"><ele>101.0</ele><time>2026-04-12T15:52:40.001Z</time></trkpt><trkpt lat="38.53666429874567" lon="16.027634905860012"><ele>103.0</ele><time>2026-04-12T15:52:41.001Z</time></trkpt><trkpt lat="38.536758059897615" lon="16.027761028359688"><ele>105.0</ele><time>2026-04-12T15:52:42.001Z</time></trkpt><trkpt lat="38.536843174699364" lon="16.027921220726444"><ele>105.0</ele><time>2026-04-12T15:52:43.002Z</time></trkpt><trkpt lat="38.53693067651011" lon="16.02809720597717"><ele>105.0</ele><time>2026-04-12T15:52:44.002Z</time></trkpt><trkpt lat="38.53703616378389" lon="16.028243219885734"><ele>105.0</ele><time>2026-04-12T15:52:45.002Z</time></trkpt><trkpt lat="38.537166755500124" lon="16.02836854450895"><ele>107.0</ele><time>2026-04-12T15:52:46.002Z</time></trkpt><trkpt lat="38.53731277613049" lon="16.028475493576707"><ele>109.0</ele><time>2026-04-12T15:52:47.002Z</time></trkpt><trkpt lat="38.53745490252493" lon="16.028583775883874"><ele>111.0</ele><time>2026-04-12T15:52:48.002Z</time></trkpt><trkpt lat="38.537595504807015" lon="16.028715001917618"><ele>111.0</ele><time>2026-04-12T15:52:49.002Z</time></trkpt><trkpt lat="38.537731641779104" lon="16.02885813384307"><ele>111.0</ele><time>2026-04-12T15:52:50.002Z</time></trkpt><trkpt lat="38.53786066682315" lon="16.029024070970806"><ele>111.0</ele><time>2026-04-12T15:52:51.002Z</time></trkpt><trkpt lat="38.53799071668703" lon="16.02920613516274"><ele>113.33333333333334</ele><time>2026-04-12T15:52:52.002Z</time></trkpt><trkpt lat="38.538105831797154" lon="16.029406135103184"><ele>115.66666666666667</ele><time>2026-04-12T15:52:53.002Z</time></trkpt><trkpt lat="38.538227963834075" lon="16.029605838995003"><ele>118.0</ele><time>2026-04-12T15:52:54.002Z</time></trkpt><trkpt lat="38.538355958435886" lon="16.02981260654042"><ele>118.0</ele><time>2026-04-12T15:52:55.002Z</time></trkpt><trkpt lat="38.538490396813444" lon="16.03002196342846"><ele>118.0</ele><time>2026-04-12T15:52:56.002Z</time></trkpt><trkpt lat="38.53862279612483" lon="16.030237181964853"><ele>118.0</ele><time>2026-04-12T15:52:57.002Z</time></trkpt><trkpt lat="38.53876240763838" lon="16.03045605690924"><ele>118.0</ele><time>2026-04-12T15:52:58.002Z</time></trkpt><trkpt lat="38.538898744309414" lon="16.03067584991783"><ele>118.0</ele><time>2026-04-12T15:52:59.002Z</time></trkpt><trkpt lat="38.53903861061762" lon="16.030903974249398"><ele>118.0</ele><time>2026-04-12T15:53:00.002Z</time></trkpt><trkpt lat="38.539179058034364" lon="16.031124261094313"><ele>119.0</ele><time>2026-04-12T15:53:01.002Z</time></trkpt><trkpt lat="38.53931618483641" lon="16.031341309383624"><ele>120.0</ele><time>2026-04-12T15:53:02.002Z</time></trkpt><trkpt lat="38.53944664152012" lon="16.031552832552432"><ele>121.0</ele><time>2026-04-12T15:53:03.002Z</time></trkpt><trkpt lat="38.53957292934902" lon="16.031755297327955"><ele>121.33333333333334</ele><time>2026-04-12T15:53:04.002Z</time></trkpt><trkpt lat="38.539690872307986" lon="16.031951298034073"><ele>121.66666666666666</ele><time>2026-04-12T15:53:05.002Z</time></trkpt><trkpt lat="38.5398082569539" lon="16.03214881254913"><ele>122.0</ele><time>2026-04-12T15:53:06.002Z</time></trkpt><trkpt lat="38.53993351389555" lon="16.032349433827576"><ele>122.33333333333333</ele><time>2026-04-12T15:53:07.002Z</time></trkpt><trkpt lat="38.54005986484651" lon="16.03255217908494"><ele>122.66666666666666</ele><time>2026-04-12T15:53:08.002Z</time></trkpt><trkpt lat="38.54019030837373" lon="16.03275929047934"><ele>123.0</ele><time>2026-04-12T15:53:09.002Z</time></trkpt><trkpt lat="38.540324534204196" lon="16.0329625229989"><ele>123.33333333333334</ele><time>2026-04-12T15:53:10.002Z</time></trkpt><trkpt lat="38.540459157368296" lon="16.033170502463776"><ele>123.66666666666667</ele><time>2026-04-12T15:53:11.002Z</time></trkpt><trkpt lat="38.540592525389265" lon="16.033384379817925"><ele>124.0</ele><time>2026-04-12T15:53:12.002Z</time></trkpt><trkpt lat="38.54073169143736" lon="16.03360237272861"><ele>124.0</ele><time>2026-04-12T15:53:13.002Z</time></trkpt><trkpt lat="38.540873456214605" lon="16.033823839021025"><ele>124.0</ele><time>2026-04-12T15:53:14.002Z</time></trkpt><trkpt lat="38.541008978193126" lon="16.034040236573198"><ele>124.0</ele><time>2026-04-12T15:53:15.002Z</time></trkpt><trkpt lat="38.54114662546755" lon="16.034262571879818"><ele>125.5</ele><time>2026-04-12T15:53:16.002Z</time></trkpt><trkpt lat="38.541289819287506" lon="16.034487999221344"><ele>127.0</ele><time>2026-04-12T15:53:17.002Z</time></trkpt><trkpt lat="38.54143426772974" lon="16.034708998024517"><ele>127.0</ele><time>2026-04-12T15:53:18.002Z</time></trkpt><trkpt lat="38.541579522323886" lon="16.034933354176584"><ele>127.0</ele><time>2026-04-12T15:53:19.002Z</time></trkpt><trkpt lat="38.54171947150114" lon="16.035153484867966"><ele>126.0</ele><time>2026-04-12T15:53:20.002Z</time></trkpt><trkpt lat="38.54185589754495" lon="16.035367610671855"><ele>125.0</ele><time>2026-04-12T15:53:21.002Z</time></trkpt><trkpt lat="38.54199143200433" lon="16.035582884168008"><ele>124.0</ele><time>2026-04-12T15:53:22.002Z</time></trkpt><trkpt lat="38.54212304239398" lon="16.035790146747495"><ele>125.0</ele><time>2026-04-12T15:53:23.002Z</time></trkpt><trkpt lat="38.5422694857043" lon="16.03599605019414"><ele>126.0</ele><time>2026-04-12T15:53:24.002Z</time></trkpt><trkpt lat="38.54239101883458" lon="16.03620320454714"><ele>127.0</ele><time>2026-04-12T15:53:25.002Z</time></trkpt><trkpt lat="38.54251889142884" lon="16.036418798740364"><ele>127.5</ele><time>2026-04-12T15:53:26.002Z</time></trkpt><trkpt lat="38.542656129291444" lon="16.03664247130206"><ele>128.0</ele><time>2026-04-12T15:53:27.002Z</time></trkpt><trkpt lat="38.54279726447141" lon="16.03687079647294"><ele>127.66666666666666</ele><time>2026-04-12T15:53:28.002Z</time></trkpt><trkpt lat="38.54293688035249" lon="16.03709622322925"><ele>127.33333333333334</ele><time>2026-04-12T15:53:29.002Z</time></trkpt><trkpt lat="38.54306345577702" lon="16.03729799059557"><ele>127.0</ele><time>2026-04-12T15:53:30.001Z</time></trkpt><trkpt lat="38.54318415697386" lon="16.037500366129528"><ele>128.0</ele><time>2026-04-12T15:53:31.001Z</time></trkpt><trkpt lat="38.54329610305228" lon="16.03768553286258"><ele>129.0</ele><time>2026-04-12T15:53:32.001Z</time></trkpt><trkpt lat="38.54340412183997" lon="16.037862523242982"><ele>130.0</ele><time>2026-04-12T15:53:33.001Z</time></trkpt><trkpt lat="38.54350485336996" lon="16.038031999737477"><ele>130.0</ele><time>2026-04-12T15:53:34.001Z</time></trkpt><trkpt lat="38.54360747557609" lon="16.03819720321778"><ele>130.0</ele><time>2026-04-12T15:53:35.001Z</time></trkpt><trkpt lat="38.543713311325625" lon="16.038338724439825"><ele>130.0</ele><time>2026-04-12T15:53:36.001Z</time></trkpt><trkpt lat="38.543837030480596" lon="16.03844508678185"><ele>131.0</ele><time>2026-04-12T15:53:37.001Z</time></trkpt><trkpt lat="38.54398525065213" lon="16.038506655591952"><ele>132.0</ele><time>2026-04-12T15:53:38.001Z</time></trkpt><trkpt lat="38.54415029239644" lon="16.038513672469968"><ele>133.0</ele><time>2026-04-12T15:53:39.001Z</time></trkpt><trkpt lat="38.54432584388745" lon="16.038512926292164"><ele>133.0</ele><time>2026-04-12T15:53:40Z</time></trkpt><trkpt lat="38.544502652247814" lon="16.03853553354585"><ele>133.0</ele><time>2026-04-12T15:53:41Z</time></trkpt><trkpt lat="38.54468868604114" lon="16.038551389006333"><ele>133.0</ele><time>2026-04-12T15:53:42Z</time></trkpt><trkpt lat="38.54489036446713" lon="16.038400391018346"><ele>133.66666666666669</ele><time>2026-04-12T15:53:43Z</time></trkpt><trkpt lat="38.54508732339166" lon="16.038414359185094"><ele>134.33333333333334</ele><time>2026-04-12T15:53:44Z</time></trkpt><trkpt lat="38.54527803629319" lon="16.038441372832306"><ele>135.0</ele><time>2026-04-12T15:53:45Z</time></trkpt><trkpt lat="38.54546468320666" lon="16.038468461467165"><ele>137.33333333333334</ele><time>2026-04-12T15:53:46Z</time></trkpt><trkpt lat="38.545649340299214" lon="16.038490378137507"><ele>139.66666666666669</ele><time>2026-04-12T15:53:47Z</time></trkpt><trkpt lat="38.54583104858589" lon="16.038507108370847"><ele>142.0</ele><time>2026-04-12T15:53:48Z</time></trkpt><trkpt lat="38.546012382009025" lon="16.038505169015007"><ele>142.0</ele><time>2026-04-12T15:53:49Z</time></trkpt><trkpt lat="38.5461887886196" lon="16.038468237383018"><ele>142.0</ele><time>2026-04-12T15:53:50Z</time></trkpt><trkpt lat="38.54635968475883" lon="16.03838871828402"><ele>142.0</ele><time>2026-04-12T15:53:51.001Z</time></trkpt><trkpt lat="38.546524127527796" lon="16.038280080562703"><ele>142.66666666666669</ele><time>2026-04-12T15:53:52.001Z</time></trkpt><trkpt lat="38.546691493119354" lon="16.038173237499254"><ele>143.33333333333334</ele><time>2026-04-12T15:53:53.001Z</time></trkpt><trkpt lat="38.54686060567709" lon="16.038081055553306"><ele>144.0</ele><time>2026-04-12T15:53:54.001Z</time></trkpt><trkpt lat="38.547030234437024" lon="16.038009483154468"><ele>146.66666666666666</ele><time>2026-04-12T15:53:55.001Z</time></trkpt><trkpt lat="38.54719858052392" lon="16.037954773561623"><ele>149.33333333333331</ele><time>2026-04-12T15:53:56.001Z</time></trkpt><trkpt lat="38.547364504291174" lon="16.037915520885846"><ele>152.0</ele><time>2026-04-12T15:53:57.001Z</time></trkpt><trkpt lat="38.547523057215884" lon="16.037878526922622"><ele>152.0</ele><time>2026-04-12T15:53:58.001Z</time></trkpt><trkpt lat="38.54768192999292" lon="16.03786228103235"><ele>152.0</ele><time>2026-04-12T15:53:59.001Z</time></trkpt><trkpt lat="38.54784514551586" lon="16.03783181101512"><ele>152.0</ele><time>2026-04-12T15:54:00.001Z</time></trkpt><trkpt lat="38.548015324097754" lon="16.037798825509743"><ele>153.0</ele><time>2026-04-12T15:54:01.001Z</time></trkpt><trkpt lat="38.548192716906186" lon="16.037764991840373"><ele>154.0</ele><time>2026-04-12T15:54:02.001Z</time></trkpt><trkpt lat="38.54836815147135" lon="16.037729986335908"><ele>155.0</ele><time>2026-04-12T15:54:03.001Z</time></trkpt><trkpt lat="38.548547809880596" lon="16.037698907322287"><ele>157.0</ele><time>2026-04-12T15:54:04.001Z</time></trkpt><trkpt lat="38.5487280980052" lon="16.037667631366247"><ele>159.0</ele><time>2026-04-12T15:54:05.001Z</time></trkpt><trkpt lat="38.54890028064888" lon="16.03763576904663"><ele>161.0</ele><time>2026-04-12T15:54:06.001Z</time></trkpt><trkpt lat="38.54907121474467" lon="16.037606028661283"><ele>161.0</ele><time>2026-04-12T15:54:07.001Z</time></trkpt><trkpt lat="38.54923725735104" lon="16.037574108986096"><ele>161.0</ele><time>2026-04-12T15:54:08.001Z</time></trkpt><trkpt lat="38.549395922224804" lon="16.0375490811241"><ele>161.0</ele><time>2026-04-12T15:54:09.001Z</time></trkpt><trkpt lat="38.5495442418178" lon="16.03751459805532"><ele>160.66666666666666</ele><time>2026-04-12T15:54:10.001Z</time></trkpt><trkpt lat="38.54970314021219" lon="16.03747735177863"><ele>160.33333333333334</ele><time>2026-04-12T15:54:11.001Z</time></trkpt><trkpt lat="38.54987820805683" lon="16.03742785686977"><ele>160.0</ele><time>2026-04-12T15:54:12.001Z</time></trkpt><trkpt lat="38.55006216898398" lon="16.037361009343453"><ele>160.0</ele><time>2026-04-12T15:54:13.001Z</time></trkpt><trkpt lat="38.55024612614397" lon="16.037292849817568"><ele>160.0</ele><time>2026-04-12T15:54:14.001Z</time></trkpt><trkpt lat="38.550431942266535" lon="16.037218299132377"><ele>160.0</ele><time>2026-04-12T15:54:15.001Z</time></trkpt><trkpt lat="38.550614088629146" lon="16.037147525053992"><ele>161.33333333333334</ele><time>2026-04-12T15:54:16.001Z</time></trkpt><trkpt lat="38.5507899951082" lon="16.03708284984774"><ele>162.66666666666666</ele><time>2026-04-12T15:54:17.001Z</time></trkpt><trkpt lat="38.55094798803249" lon="16.037028264002135"><ele>164.0</ele><time>2026-04-12T15:54:18.001Z</time></trkpt><trkpt lat="38.55110206785085" lon="16.036969065360744"><ele>164.66666666666666</ele><time>2026-04-12T15:54:19.001Z</time></trkpt><trkpt lat="38.55125466612999" lon="16.036908802759772"><ele>165.33333333333334</ele><time>2026-04-12T15:54:20.001Z</time></trkpt><trkpt lat="38.551409541026985" lon="16.03684874906533"><ele>166.0</ele><time>2026-04-12T15:54:21.001Z</time></trkpt><trkpt lat="38.55157423856132" lon="16.036789272177476"><ele>166.0</ele><time>2026-04-12T15:54:22.001Z</time></trkpt><trkpt lat="38.5517411303964" lon="16.03672956343255"><ele>166.0</ele><time>2026-04-12T15:54:23.001Z</time></trkpt><trkpt lat="38.55190423561557" lon="16.03666694562786"><ele>166.0</ele><time>2026-04-12T15:54:24.001Z</time></trkpt><trkpt lat="38.552065488386525" lon="16.036608180426498"><ele>166.66666666666669</ele><time>2026-04-12T15:54:25.001Z</time></trkpt><trkpt lat="38.55222426763126" lon="16.03655359775594"><ele>167.33333333333334</ele><time>2026-04-12T15:54:26.001Z</time></trkpt><trkpt lat="38.55238981911228" lon="16.036493406629162"><ele>168.0</ele><time>2026-04-12T15:54:27.001Z</time></trkpt><trkpt lat="38.5525540800115" lon="16.036433313605738"><ele>168.0</ele><time>2026-04-12T15:54:28.001Z</time></trkpt><trkpt lat="38.55271849219494" lon="16.036374388435192"><ele>168.0</ele><time>2026-04-12T15:54:29.001Z</time></trkpt><trkpt lat="38.55288288170225" lon="16.036310154180388"><ele>168.0</ele><time>2026-04-12T15:54:30.001Z</time></trkpt><trkpt lat="38.55305431228919" lon="16.036244700265566"><ele>169.0</ele><time>2026-04-12T15:54:31.001Z</time></trkpt><trkpt lat="38.55325041197932" lon="16.03616021175122"><ele>170.0</ele><time>2026-04-12T15:54:32.001Z</time></trkpt><trkpt lat="38.55349617071615" lon="16.036058691515997"><ele>169.0</ele><time>2026-04-12T15:54:33.001Z</time></trkpt><trkpt lat="38.553779767116275" lon="16.035963670349553"><ele>168.0</ele><time>2026-04-12T15:54:34.001Z</time></trkpt><trkpt lat="38.554038964216325" lon="16.035879235158017"><ele>168.66666666666666</ele><time>2026-04-12T15:54:35.001Z</time></trkpt><trkpt lat="38.55425975675437" lon="16.035792302592306"><ele>169.33333333333331</ele><time>2026-04-12T15:54:36.001Z</time></trkpt><trkpt lat="38.554450945131684" lon="16.03572621350728"><ele>170.0</ele><time>2026-04-12T15:54:37.001Z</time></trkpt><trkpt lat="38.55463176313116" lon="16.035693525899713"><ele>170.0</ele><time>2026-04-12T15:54:38.001Z</time></trkpt><trkpt lat="38.554803835266924" lon="16.035705881975563"><ele>170.0</ele><time>2026-04-12T15:54:39.001Z</time></trkpt><trkpt lat="38.55498094475764" lon="16.035750892324327"><ele>170.0</ele><time>2026-04-12T15:54:40.001Z</time></trkpt><trkpt lat="38.55516777314866" lon="16.035824316155118"><ele>170.0</ele><time>2026-04-12T15:54:41.001Z</time></trkpt><trkpt lat="38.55535366647962" lon="16.03591513374397"><ele>170.0</ele><time>2026-04-12T15:54:42.001Z</time></trkpt><trkpt lat="38.55555382171758" lon="16.03599946822636"><ele>170.0</ele><time>2026-04-12T15:54:43.001Z</time></trkpt><trkpt lat="38.555746703937686" lon="16.036085178552696"><ele>170.33333333333331</ele><time>2026-04-12T15:54:44.001Z</time></trkpt><trkpt lat="38.55594358605189" lon="16.03617018256343"><ele>170.66666666666666</ele><time>2026-04-12T15:54:45.001Z</time></trkpt><trkpt lat="38.55614392048681" lon="16.03625335950855"><ele>171.0</ele><time>2026-04-12T15:54:46.001Z</time></trkpt><trkpt lat="38.556344550105386" lon="16.036339355682927"><ele>170.33333333333334</ele><time>2026-04-12T15:54:47.001Z</time></trkpt><trkpt lat="38.55653654889719" lon="16.036425761796853"><ele>169.66666666666669</ele><time>2026-04-12T15:54:48.001Z</time></trkpt><trkpt lat="38.556727112596135" lon="16.036493025640564"><ele>169.0</ele><time>2026-04-12T15:54:49.001Z</time></trkpt><trkpt lat="38.556917124088955" lon="16.036578963632365"><ele>170.66666666666669</ele><time>2026-04-12T15:54:50.001Z</time></trkpt><trkpt lat="38.55710955243211" lon="16.036665337111206"><ele>172.33333333333334</ele><time>2026-04-12T15:54:51.001Z</time></trkpt><trkpt lat="38.5573129596278" lon="16.036753002804865"><ele>174.0</ele><time>2026-04-12T15:54:52.001Z</time></trkpt><trkpt lat="38.557519204588324" lon="16.036838978843143"><ele>174.0</ele><time>2026-04-12T15:54:53.001Z</time></trkpt><trkpt lat="38.55772544042336" lon="16.03692357296618"><ele>174.0</ele><time>2026-04-12T15:54:54.001Z</time></trkpt><trkpt lat="38.5579378846167" lon="16.037015556369518"><ele>174.0</ele><time>2026-04-12T15:54:55.001Z</time></trkpt><trkpt lat="38.55815333044764" lon="16.037108963069294"><ele>174.5</ele><time>2026-04-12T15:54:56.001Z</time></trkpt><trkpt lat="38.558374996315536" lon="16.037203090505166"><ele>175.0</ele><time>2026-04-12T15:54:57.002Z</time></trkpt><trkpt lat="38.558595974008625" lon="16.03729697809194"><ele>177.0</ele><time>2026-04-12T15:54:58.002Z</time></trkpt><trkpt lat="38.55881850553795" lon="16.037395434232046"><ele>179.0</ele><time>2026-04-12T15:54:59.002Z</time></trkpt><trkpt lat="38.55904469835753" lon="16.037485528451448"><ele>180.5</ele><time>2026-04-12T15:55:00.002Z</time></trkpt><trkpt lat="38.55926433811437" lon="16.03758163113223"><ele>182.0</ele><time>2026-04-12T15:55:01.002Z</time></trkpt><trkpt lat="38.559480808598465" lon="16.037672122976776"><ele>183.33333333333331</ele><time>2026-04-12T15:55:02.002Z</time></trkpt><trkpt lat="38.559689018409976" lon="16.03775939398629"><ele>184.66666666666666</ele><time>2026-04-12T15:55:03.002Z</time></trkpt><trkpt lat="38.55989635736698" lon="16.037833680060796"><ele>186.0</ele><time>2026-04-12T15:55:04.002Z</time></trkpt><trkpt lat="38.56009969548801" lon="16.037908520148104"><ele>186.0</ele><time>2026-04-12T15:55:05.002Z</time></trkpt><trkpt lat="38.56029995972983" lon="16.03797093117323"><ele>186.0</ele><time>2026-04-12T15:55:06.002Z</time></trkpt><trkpt lat="38.560493070860026" lon="16.038041152099126"><ele>186.0</ele><time>2026-04-12T15:55:07.002Z</time></trkpt><trkpt lat="38.56068175825339" lon="16.03810007078533"><ele>184.66666666666666</ele><time>2026-04-12T15:55:08.002Z</time></trkpt><trkpt lat="38.560874082781716" lon="16.038141659579974"><ele>183.33333333333331</ele><time>2026-04-12T15:55:09.002Z</time></trkpt><trkpt lat="38.56106308841254" lon="16.038203777039122"><ele>182.0</ele><time>2026-04-12T15:55:10.002Z</time></trkpt><trkpt lat="38.561260307205714" lon="16.03825611084497"><ele>184.0</ele><time>2026-04-12T15:55:11.002Z</time></trkpt><trkpt lat="38.561463216962146" lon="16.03831307120412"><ele>186.0</ele><time>2026-04-12T15:55:12.002Z</time></trkpt><trkpt lat="38.561672643953656" lon="16.038371721091117"><ele>188.0</ele><time>2026-04-12T15:55:13.002Z</time></trkpt><trkpt lat="38.56188846858916" lon="16.038431432870244"><ele>188.66666666666666</ele><time>2026-04-12T15:55:14.002Z</time></trkpt><trkpt lat="38.562100985191485" lon="16.038486492155116"><ele>189.33333333333334</ele><time>2026-04-12T15:55:15.002Z</time></trkpt><trkpt lat="38.56231733298059" lon="16.038546543631227"><ele>190.0</ele><time>2026-04-12T15:55:16.002Z</time></trkpt><trkpt lat="38.562531097375654" lon="16.03860505974442"><ele>190.0</ele><time>2026-04-12T15:55:17.002Z</time></trkpt><trkpt lat="38.562745776550535" lon="16.038661790728263"><ele>190.0</ele><time>2026-04-12T15:55:18.002Z</time></trkpt><trkpt lat="38.56295896923676" lon="16.03872138093014"><ele>190.0</ele><time>2026-04-12T15:55:19.002Z</time></trkpt><trkpt lat="38.563173039568426" lon="16.03878616747396"><ele>189.66666666666669</ele><time>2026-04-12T15:55:20.002Z</time></trkpt><trkpt lat="38.563387891935434" lon="16.03884022468558"><ele>189.33333333333334</ele><time>2026-04-12T15:55:21.002Z</time></trkpt><trkpt lat="38.56360461635088" lon="16.038901086391462"><ele>189.0</ele><time>2026-04-12T15:55:22.002Z</time></trkpt><trkpt lat="38.56382038774233" lon="16.038960012298965"><ele>189.0</ele><time>2026-04-12T15:55:23.002Z</time></trkpt><trkpt lat="38.56403698200515" lon="16.03901918463697"><ele>189.0</ele><time>2026-04-12T15:55:24.002Z</time></trkpt><trkpt lat="38.56425087048742" lon="16.03907226787822"><ele>189.0</ele><time>2026-04-12T15:55:25.002Z</time></trkpt><trkpt lat="38.56446019113881" lon="16.03913177385564"><ele>189.33333333333334</ele><time>2026-04-12T15:55:26.002Z</time></trkpt><trkpt lat="38.56465859712935" lon="16.03918570648781"><ele>189.66666666666669</ele><time>2026-04-12T15:55:27.002Z</time></trkpt><trkpt lat="38.564838021733785" lon="16.039243141026734"><ele>190.0</ele><time>2026-04-12T15:55:28.002Z</time></trkpt><trkpt lat="38.56500794055284" lon="16.0392894446989"><ele>190.0</ele><time>2026-04-12T15:55:29.002Z</time></trkpt><trkpt lat="38.56517588616355" lon="16.03932790162654"><ele>190.0</ele><time>2026-04-12T15:55:30.002Z</time></trkpt><trkpt lat="38.5653484129509" lon="16.039346070661704"><ele>190.0</ele><time>2026-04-12T15:55:31.002Z</time></trkpt><trkpt lat="38.56552871702407" lon="16.039326416531775"><ele>191.0</ele><time>2026-04-12T15:55:32.002Z</time></trkpt><trkpt lat="38.56571722018423" lon="16.03931452484416"><ele>192.0</ele><time>2026-04-12T15:55:33.002Z</time></trkpt><trkpt lat="38.565913795445866" lon="16.039314526313934"><ele>193.0</ele><time>2026-04-12T15:55:34.002Z</time></trkpt><trkpt lat="38.566111941112005" lon="16.039145018660705"><ele>190.0</ele><time>2026-04-12T15:55:35.002Z</time></trkpt><trkpt lat="38.56630204911324" lon="16.039088830641763"><ele>187.0</ele><time>2026-04-12T15:55:36.001Z</time></trkpt><trkpt lat="38.56648806157837" lon="16.039038499369486"><ele>184.0</ele><time>2026-04-12T15:55:37.001Z</time></trkpt><trkpt lat="38.56666131490048" lon="16.039020267490596"><ele>184.0</ele><time>2026-04-12T15:55:38.001Z</time></trkpt><trkpt lat="38.5668302183479" lon="16.03901505474371"><ele>184.0</ele><time>2026-04-12T15:55:39.001Z</time></trkpt><trkpt lat="38.56701518356111" lon="16.038997451416392"><ele>184.0</ele><time>2026-04-12T15:55:40.001Z</time></trkpt><trkpt lat="38.56719909107724" lon="16.03899251422483"><ele>186.66666666666669</ele><time>2026-04-12T15:55:41.001Z</time></trkpt><trkpt lat="38.56738321915535" lon="16.038986875059262"><ele>189.33333333333334</ele><time>2026-04-12T15:55:42.001Z</time></trkpt><trkpt lat="38.56756365856244" lon="16.038981626348978"><ele>192.0</ele><time>2026-04-12T15:55:43Z</time></trkpt><trkpt lat="38.567743867337654" lon="16.03897225073891"><ele>195.33333333333331</ele><time>2026-04-12T15:55:44Z</time></trkpt><trkpt lat="38.56792411221473" lon="16.038967955761642"><ele>198.66666666666666</ele><time>2026-04-12T15:55:45Z</time></trkpt><trkpt lat="38.56810283012234" lon="16.038970065002015"><ele>202.0</ele><time>2026-04-12T15:55:46Z</time></trkpt><trkpt lat="38.56828007432443" lon="16.038967797968084"><ele>202.0</ele><time>2026-04-12T15:55:47Z</time></trkpt><trkpt lat="38.568461065370585" lon="16.038965160654357"><ele>202.0</ele><time>2026-04-12T15:55:48Z</time></trkpt><trkpt lat="38.56864377210123" lon="16.038963444391126"><ele>202.0</ele><time>2026-04-12T15:55:49Z</time></trkpt><trkpt lat="38.568827222695354" lon="16.038953231866785"><ele>203.0</ele><time>2026-04-12T15:55:50Z</time></trkpt><trkpt lat="38.56901708117361" lon="16.038948310824996"><ele>204.0</ele><time>2026-04-12T15:55:51Z</time></trkpt><trkpt lat="38.56921409935688" lon="16.038940868898784"><ele>205.0</ele><time>2026-04-12T15:55:52Z</time></trkpt><trkpt lat="38.56941215681614" lon="16.038933036400458"><ele>204.66666666666666</ele><time>2026-04-12T15:55:53Z</time></trkpt><trkpt lat="38.56960832390489" lon="16.03892875334618"><ele>204.33333333333331</ele><time>2026-04-12T15:55:54Z</time></trkpt><trkpt lat="38.56980670699147" lon="16.038915833905758"><ele>204.0</ele><time>2026-04-12T15:55:55Z</time></trkpt><trkpt lat="38.57001138119277" lon="16.038904881729138"><ele>204.0</ele><time>2026-04-12T15:55:56Z</time></trkpt><trkpt lat="38.57021254565056" lon="16.03889125344121"><ele>204.0</ele><time>2026-04-12T15:55:57Z</time></trkpt><trkpt lat="38.570408775052684" lon="16.03888518210554"><ele>204.0</ele><time>2026-04-12T15:55:58Z</time></trkpt><trkpt lat="38.57060313522779" lon="16.038878728173295"><ele>204.66666666666669</ele><time>2026-04-12T15:55:59Z</time></trkpt><trkpt lat="38.57078258671471" lon="16.03888501616925"><ele>205.33333333333334</ele><time>2026-04-12T15:56:00.001Z</time></trkpt><trkpt lat="38.57095369510425" lon="16.038923471696318"><ele>206.0</ele><time>2026-04-12T15:56:01.001Z</time></trkpt><trkpt lat="38.571102641741476" lon="16.038972508346394"><ele>208.0</ele><time>2026-04-12T15:56:02.001Z</time></trkpt><trkpt lat="38.571243302466975" lon="16.039045630013494"><ele>210.0</ele><time>2026-04-12T15:56:03.001Z</time></trkpt><trkpt lat="38.571380798958145" lon="16.039145940697683"><ele>212.0</ele><time>2026-04-12T15:56:04.001Z</time></trkpt><trkpt lat="38.57151245561081" lon="16.039266514507283"><ele>212.33333333333334</ele><time>2026-04-12T15:56:05.001Z</time></trkpt><trkpt lat="38.571638235071276" lon="16.039394425630388"><ele>212.66666666666669</ele><time>2026-04-12T15:56:06.001Z</time></trkpt><trkpt lat="38.57173825725525" lon="16.03956105204143"><ele>213.0</ele><time>2026-04-12T15:56:07.001Z</time></trkpt><trkpt lat="38.57183753028443" lon="16.03972939081652"><ele>213.0</ele><time>2026-04-12T15:56:08.001Z</time></trkpt><trkpt lat="38.57192800986564" lon="16.039909233968988"><ele>213.0</ele><time>2026-04-12T15:56:09.001Z</time></trkpt><trkpt lat="38.57201766813676" lon="16.040092349144373"><ele>213.0</ele><time>2026-04-12T15:56:10.001Z</time></trkpt><trkpt lat="38.5721121304408" lon="16.040306917280553"><ele>213.0</ele><time>2026-04-12T15:56:11.001Z</time></trkpt><trkpt lat="38.57221087888934" lon="16.040482577563075"><ele>213.0</ele><time>2026-04-12T15:56:12.001Z</time></trkpt><trkpt lat="38.57231051152835" lon="16.040667855458548"><ele>213.0</ele><time>2026-04-12T15:56:13.001Z</time></trkpt><trkpt lat="38.57240935007462" lon="16.040842880674433"><ele>213.0</ele><time>2026-04-12T15:56:14.001Z</time></trkpt><trkpt lat="38.57250779599228" lon="16.041004115869566"><ele>213.0</ele><time>2026-04-12T15:56:15.001Z</time></trkpt><trkpt lat="38.572616744199394" lon="16.041140798098656"><ele>213.0</ele><time>2026-04-12T15:56:16.001Z</time></trkpt><trkpt lat="38.57273664468081" lon="16.041259021418895"><ele>211.0</ele><time>2026-04-12T15:56:17.001Z</time></trkpt><trkpt lat="38.57286841686675" lon="16.041362453276943"><ele>209.0</ele><time>2026-04-12T15:56:18.001Z</time></trkpt><trkpt lat="38.573009299298626" lon="16.0414522641954"><ele>207.0</ele><time>2026-04-12T15:56:19.001Z</time></trkpt><trkpt lat="38.573161484087024" lon="16.041530686886695"><ele>207.0</ele><time>2026-04-12T15:56:20.001Z</time></trkpt><trkpt lat="38.57331837163609" lon="16.041613069490282"><ele>207.0</ele><time>2026-04-12T15:56:21.001Z</time></trkpt><trkpt lat="38.57347982616773" lon="16.04168942962646"><ele>207.0</ele><time>2026-04-12T15:56:22.001Z</time></trkpt><trkpt lat="38.57363934971055" lon="16.041763754910033"><ele>210.66666666666669</ele><time>2026-04-12T15:56:23.001Z</time></trkpt><trkpt lat="38.573801174035914" lon="16.041839321048542"><ele>214.33333333333334</ele><time>2026-04-12T15:56:24.001Z</time></trkpt><trkpt lat="38.57395588634308" lon="16.041906910743304"><ele>218.0</ele><time>2026-04-12T15:56:25.001Z</time></trkpt><trkpt lat="38.574096039399464" lon="16.041960593528163"><ele>218.0</ele><time>2026-04-12T15:56:26.001Z</time></trkpt><trkpt lat="38.57422431099539" lon="16.042021903759757"><ele>218.0</ele><time>2026-04-12T15:56:27.001Z</time></trkpt><trkpt lat="38.57434493096269" lon="16.04208561216101"><ele>218.0</ele><time>2026-04-12T15:56:28.001Z</time></trkpt><trkpt lat="38.57445625308837" lon="16.042158094148053"><ele>218.0</ele><time>2026-04-12T15:56:29.001Z</time></trkpt><trkpt lat="38.574560104072404" lon="16.042243678173815"><ele>216.75</ele><time>2026-04-12T15:56:30.001Z</time></trkpt><trkpt lat="38.574654681376735" lon="16.04235663636221"><ele>215.5</ele><time>2026-04-12T15:56:31.001Z</time></trkpt><trkpt lat="38.574745331047026" lon="16.04249840089957"><ele>214.25</ele><time>2026-04-12T15:56:32.001Z</time></trkpt><trkpt lat="38.57483629393602" lon="16.042660840645798"><ele>213.0</ele><time>2026-04-12T15:56:33.001Z</time></trkpt><trkpt lat="38.5749208339226" lon="16.042822132972322"><ele>213.0</ele><time>2026-04-12T15:56:34.001Z</time></trkpt><trkpt lat="38.57500655574423" lon="16.04298273287245"><ele>213.0</ele><time>2026-04-12T15:56:35.001Z</time></trkpt><trkpt lat="38.575103518823894" lon="16.043134765981755"><ele>213.0</ele><time>2026-04-12T15:56:36.001Z</time></trkpt><trkpt lat="38.57522558936035" lon="16.04328032382239"><ele>214.0</ele><time>2026-04-12T15:56:37.001Z</time></trkpt><trkpt lat="38.575361336600956" lon="16.043405963369548"><ele>215.0</ele><time>2026-04-12T15:56:38.001Z</time></trkpt><trkpt lat="38.57554245339774" lon="16.043498161023606"><ele>216.0</ele><time>2026-04-12T15:56:39.001Z</time></trkpt><trkpt lat="38.57576687793138" lon="16.043637257408136"><ele>216.0</ele><time>2026-04-12T15:56:40.001Z</time></trkpt><trkpt lat="38.57600509875274" lon="16.043769854013778"><ele>216.0</ele><time>2026-04-12T15:56:41.001Z</time></trkpt><trkpt lat="38.57620194847467" lon="16.043879448364628"><ele>214.66666666666669</ele><time>2026-04-12T15:56:42.001Z</time></trkpt><trkpt lat="38.576377868757206" lon="16.04398997625717"><ele>213.33333333333334</ele><time>2026-04-12T15:56:43.001Z</time></trkpt><trkpt lat="38.57652312104193" lon="16.044083985903868"><ele>212.0</ele><time>2026-04-12T15:56:44.001Z</time></trkpt><trkpt lat="38.57663936506109" lon="16.044207480848524"><ele>213.0</ele><time>2026-04-12T15:56:45.001Z</time></trkpt><trkpt lat="38.576758463653555" lon="16.044315511156793"><ele>214.0</ele><time>2026-04-12T15:56:46.001Z</time></trkpt><trkpt lat="38.576859864416676" lon="16.044453943639404"><ele>215.0</ele><time>2026-04-12T15:56:47.001Z</time></trkpt><trkpt lat="38.57695796201138" lon="16.044600779641947"><ele>216.0</ele><time>2026-04-12T15:56:48.001Z</time></trkpt><trkpt lat="38.57706103526089" lon="16.044756461212113"><ele>216.0</ele><time>2026-04-12T15:56:49.001Z</time></trkpt><trkpt lat="38.57716063323116" lon="16.04491777089983"><ele>216.0</ele><time>2026-04-12T15:56:50.001Z</time></trkpt><trkpt lat="38.57726409907191" lon="16.045077465580864"><ele>216.0</ele><time>2026-04-12T15:56:51.001Z</time></trkpt><trkpt lat="38.5773688060325" lon="16.045234629790652"><ele>217.33333333333331</ele><time>2026-04-12T15:56:52.001Z</time></trkpt><trkpt lat="38.57746460340267" lon="16.04539651613865"><ele>218.66666666666666</ele><time>2026-04-12T15:56:53.001Z</time></trkpt><trkpt lat="38.5775512132559" lon="16.045560765667556"><ele>220.0</ele><time>2026-04-12T15:56:54.001Z</time></trkpt><trkpt lat="38.57762153690299" lon="16.045741896037537"><ele>219.66666666666666</ele><time>2026-04-12T15:56:55.001Z</time></trkpt><trkpt lat="38.57768177330693" lon="16.045943413184393"><ele>219.33333333333331</ele><time>2026-04-12T15:56:56.001Z</time></trkpt><trkpt lat="38.577728365678205" lon="16.04615725134625"><ele>219.0</ele><time>2026-04-12T15:56:57.001Z</time></trkpt><trkpt lat="38.577765036260466" lon="16.04637988141786"><ele>219.0</ele><time>2026-04-12T15:56:58.001Z</time></trkpt><trkpt lat="38.577796965784025" lon="16.04659475153622"><ele>219.0</ele><time>2026-04-12T15:56:59.001Z</time></trkpt><trkpt lat="38.57783228950158" lon="16.04680378065756"><ele>219.0</ele><time>2026-04-12T15:57:00.001Z</time></trkpt><trkpt lat="38.57786661969722" lon="16.046999840256728"><ele>218.5</ele><time>2026-04-12T15:57:01.001Z</time></trkpt><trkpt lat="38.57789219116613" lon="16.04718188203034"><ele>218.0</ele><time>2026-04-12T15:57:02.001Z</time></trkpt><trkpt lat="38.57791591299588" lon="16.047348231632785"><ele>217.5</ele><time>2026-04-12T15:57:03.001Z</time></trkpt><trkpt lat="38.57794390810122" lon="16.047516587359116"><ele>217.0</ele><time>2026-04-12T15:57:04.001Z</time></trkpt><trkpt lat="38.577971224468435" lon="16.0476777644545"><ele>219.75</ele><time>2026-04-12T15:57:05.001Z</time></trkpt><trkpt lat="38.57799247343893" lon="16.047845429254593"><ele>222.5</ele><time>2026-04-12T15:57:06.001Z</time></trkpt><trkpt lat="38.57802310795546" lon="16.04801258320111"><ele>225.25</ele><time>2026-04-12T15:57:07.001Z</time></trkpt><trkpt lat="38.57805103682527" lon="16.04818007469591"><ele>228.0</ele><time>2026-04-12T15:57:08.001Z</time></trkpt><trkpt lat="38.57811476993143" lon="16.048359982396477"><ele>231.0</ele><time>2026-04-12T15:57:09.001Z</time></trkpt><trkpt lat="38.578191988840715" lon="16.048540024711652"><ele>234.0</ele><time>2026-04-12T15:57:10.001Z</time></trkpt><trkpt lat="38.57828717653195" lon="16.04871167872562"><ele>237.0</ele><time>2026-04-12T15:57:11.002Z</time></trkpt><trkpt lat="38.578396879909036" lon="16.048874661481435"><ele>237.0</ele><time>2026-04-12T15:57:12.002Z</time></trkpt><trkpt lat="38.57850548466549" lon="16.049034852392285"><ele>237.0</ele><time>2026-04-12T15:57:13.002Z</time></trkpt><trkpt lat="38.57861748898848" lon="16.04920307913922"><ele>237.0</ele><time>2026-04-12T15:57:14.002Z</time></trkpt><trkpt lat="38.578734283671956" lon="16.0493683270684"><ele>240.0</ele><time>2026-04-12T15:57:15.002Z</time></trkpt><trkpt lat="38.57885086937852" lon="16.049540896222148"><ele>243.0</ele><time>2026-04-12T15:57:16.002Z</time></trkpt><trkpt lat="38.57895991722607" lon="16.049703067532715"><ele>246.0</ele><time>2026-04-12T15:57:17.002Z</time></trkpt><trkpt lat="38.579072941372" lon="16.049864565904006"><ele>246.66666666666669</ele><time>2026-04-12T15:57:18.002Z</time></trkpt><trkpt lat="38.579187066055844" lon="16.050027916730453"><ele>247.33333333333334</ele><time>2026-04-12T15:57:19.002Z</time></trkpt><trkpt lat="38.57929548754707" lon="16.05018148739895"><ele>248.0</ele><time>2026-04-12T15:57:20.002Z</time></trkpt><trkpt lat="38.57939674507939" lon="16.050319845457153"><ele>248.0</ele><time>2026-04-12T15:57:21.002Z</time></trkpt><trkpt lat="38.5795012868872" lon="16.05044322807637"><ele>248.0</ele><time>2026-04-12T15:57:22.002Z</time></trkpt><trkpt lat="38.57961225222385" lon="16.050555488958132"><ele>248.0</ele><time>2026-04-12T15:57:23.002Z</time></trkpt><trkpt lat="38.57971784048551" lon="16.05066569523485"><ele>248.0</ele><time>2026-04-12T15:57:24.002Z</time></trkpt><trkpt lat="38.57981712226491" lon="16.050769032076023"><ele>247.8</ele><time>2026-04-12T15:57:25.002Z</time></trkpt><trkpt lat="38.57990662544971" lon="16.050867636488626"><ele>247.60000000000002</ele><time>2026-04-12T15:57:26.002Z</time></trkpt><trkpt lat="38.57999001621391" lon="16.050958812218393"><ele>247.39999999999998</ele><time>2026-04-12T15:57:27.002Z</time></trkpt><trkpt lat="38.58006275177584" lon="16.05104040174597"><ele>247.2</ele><time>2026-04-12T15:57:28.002Z</time></trkpt><trkpt lat="38.580127849564455" lon="16.05110718259605"><ele>247.0</ele><time>2026-04-12T15:57:29.002Z</time></trkpt><trkpt lat="38.58019068369646" lon="16.051175557378315"><ele>246.99999999999997</ele><time>2026-04-12T15:57:30.002Z</time></trkpt><trkpt lat="38.58025251349849" lon="16.051240642413372"><ele>247.0</ele><time>2026-04-12T15:57:31.002Z</time></trkpt><trkpt lat="38.58030943088758" lon="16.05129854327523"><ele>247.0</ele><time>2026-04-12T15:57:32.002Z</time></trkpt><trkpt lat="38.580365876520595" lon="16.051356953699564"><ele>247.0</ele><time>2026-04-12T15:57:33.002Z</time></trkpt><trkpt lat="38.58042004226448" lon="16.05141657638298"><ele>246.99999999999997</ele><time>2026-04-12T15:57:34.002Z</time></trkpt><trkpt lat="38.580518451066915" lon="16.05151284690244"><ele>247.0</ele><time>2026-04-12T15:57:36.002Z</time></trkpt><trkpt lat="38.58061155408424" lon="16.051616288767697"><ele>246.33333333333331</ele><time>2026-04-12T15:57:38.002Z</time></trkpt><trkpt lat="38.580698365776236" lon="16.05170097538582"><ele>245.66666666666666</ele><time>2026-04-12T15:57:40.002Z</time></trkpt><trkpt lat="38.58076679775275" lon="16.051766911409285"><ele>245.0</ele><time>2026-04-12T15:57:42Z</time></trkpt><trkpt lat="38.58081797002457" lon="16.051823453115603"><ele>244.33333333333331</ele><time>2026-04-12T15:57:44Z</time></trkpt><trkpt lat="38.58088139497077" lon="16.051893909939523"><ele>243.66666666666666</ele><time>2026-04-12T15:57:47Z</time></trkpt><trkpt lat="38.58094617780393" lon="16.05196115306518"><ele>243.0</ele><time>2026-04-12T15:58:16.001Z</time></trkpt><trkpt lat="38.58101534221432" lon="16.05203196067947"><ele>243.0</ele><time>2026-04-12T15:58:18.001Z</time></trkpt><trkpt lat="38.581116685688016" lon="16.052136395748366"><ele>243.0</ele><time>2026-04-12T15:58:20.001Z</time></trkpt><trkpt lat="38.58116974890298" lon="16.052191813980038"><ele>243.0</ele><time>2026-04-12T15:58:21.001Z</time></trkpt><trkpt lat="38.58122839361249" lon="16.052250305292244"><ele>243.0</ele><time>2026-04-12T15:58:22.001Z</time></trkpt><trkpt lat="38.58129202578173" lon="16.052314286980714"><ele>243.0</ele><time>2026-04-12T15:58:23.001Z</time></trkpt><trkpt lat="38.58136103806419" lon="16.052383807206574"><ele>243.0</ele><time>2026-04-12T15:58:24.001Z</time></trkpt><trkpt lat="38.581432133644455" lon="16.05245568210898"><ele>242.60000000000002</ele><time>2026-04-12T15:58:25.001Z</time></trkpt><trkpt lat="38.58150574289308" lon="16.05253258254145"><ele>242.20000000000002</ele><time>2026-04-12T15:58:26.001Z</time></trkpt><trkpt lat="38.58158376397697" lon="16.052615125403847"><ele>241.8</ele><time>2026-04-12T15:58:27.001Z</time></trkpt><trkpt lat="38.58166761442648" lon="16.052703536127726"><ele>241.4</ele><time>2026-04-12T15:58:28.001Z</time></trkpt><trkpt lat="38.581754017185496" lon="16.05279703105318"><ele>241.0</ele><time>2026-04-12T15:58:29.001Z</time></trkpt><trkpt lat="38.5818438586673" lon="16.052896383124864"><ele>241.0</ele><time>2026-04-12T15:58:30.001Z</time></trkpt><trkpt lat="38.581939926089" lon="16.05299655447974"><ele>241.0</ele><time>2026-04-12T15:58:31.001Z</time></trkpt><trkpt lat="38.58204326111785" lon="16.053098396367012"><ele>241.0</ele><time>2026-04-12T15:58:32.001Z</time></trkpt><trkpt lat="38.582161502391905" lon="16.05321851333274"><ele>241.0</ele><time>2026-04-12T15:58:33.001Z</time></trkpt><trkpt lat="38.58227981160353" lon="16.05334011595016"><ele>241.33333333333331</ele><time>2026-04-12T15:58:34.001Z</time></trkpt><trkpt lat="38.58240123332054" lon="16.053459701890038"><ele>241.66666666666669</ele><time>2026-04-12T15:58:35.001Z</time></trkpt><trkpt lat="38.58252488393244" lon="16.05358004672886"><ele>242.0</ele><time>2026-04-12T15:58:36.001Z</time></trkpt><trkpt lat="38.58265108178146" lon="16.05370071955932"><ele>242.0</ele><time>2026-04-12T15:58:37.001Z</time></trkpt><trkpt lat="38.58278170445148" lon="16.053816276675175"><ele>242.0</ele><time>2026-04-12T15:58:38.001Z</time></trkpt><trkpt lat="38.58292065430677" lon="16.053921094673235"><ele>242.0</ele><time>2026-04-12T15:58:39.001Z</time></trkpt><trkpt lat="38.58306645794891" lon="16.054019957018923"><ele>240.0</ele><time>2026-04-12T15:58:40.001Z</time></trkpt><trkpt lat="38.583220695856006" lon="16.05411830821983"><ele>238.0</ele><time>2026-04-12T15:58:41.001Z</time></trkpt><trkpt lat="38.583385887314364" lon="16.05421144876026"><ele>236.0</ele><time>2026-04-12T15:58:42.001Z</time></trkpt><trkpt lat="38.58355958003339" lon="16.054295878630427"><ele>239.33333333333334</ele><time>2026-04-12T15:58:43.001Z</time></trkpt><trkpt lat="38.58374366415589" lon="16.054373065317428"><ele>242.66666666666669</ele><time>2026-04-12T15:58:44.001Z</time></trkpt><trkpt lat="38.58393868504575" lon="16.05444148009485"><ele>246.0</ele><time>2026-04-12T15:58:45.001Z</time></trkpt><trkpt lat="38.584161742307785" lon="16.05450888710238"><ele>246.0</ele><time>2026-04-12T15:58:46.001Z</time></trkpt><trkpt lat="38.58443890811527" lon="16.05458201406123"><ele>246.0</ele><time>2026-04-12T15:58:47.001Z</time></trkpt><trkpt lat="38.58475685607137" lon="16.05466597448322"><ele>245.5</ele><time>2026-04-12T15:58:48.001Z</time></trkpt><trkpt lat="38.58511204394255" lon="16.05476656303491"><ele>245.0</ele><time>2026-04-12T15:58:49.001Z</time></trkpt><trkpt lat="38.58545570322381" lon="16.054879850141152"><ele>250.5</ele><time>2026-04-12T15:58:50.001Z</time></trkpt><trkpt lat="38.585755538050336" lon="16.05497833268411"><ele>256.0</ele><time>2026-04-12T15:58:51.001Z</time></trkpt><trkpt lat="38.586013591242555" lon="16.055059621467777"><ele>259.5</ele><time>2026-04-12T15:58:52.001Z</time></trkpt><trkpt lat="38.58624734257901" lon="16.05511782079333"><ele>263.0</ele><time>2026-04-12T15:58:53.001Z</time></trkpt><trkpt lat="38.58646150492934" lon="16.055152475885034"><ele>263.0</ele><time>2026-04-12T15:58:54.001Z</time></trkpt><trkpt lat="38.58665140857997" lon="16.055122038510103"><ele>263.0</ele><time>2026-04-12T15:58:55.001Z</time></trkpt><trkpt lat="38.58682404231302" lon="16.05504085646551"><ele>263.0</ele><time>2026-04-12T15:58:56.001Z</time></trkpt><trkpt lat="38.58697065959476" lon="16.054915704462314"><ele>265.0</ele><time>2026-04-12T15:58:57.001Z</time></trkpt><trkpt lat="38.58710575844636" lon="16.05473449340407"><ele>267.0</ele><time>2026-04-12T15:58:58.001Z</time></trkpt><trkpt lat="38.58723167561856" lon="16.054498107510167"><ele>269.0</ele><time>2026-04-12T15:58:59.001Z</time></trkpt><trkpt lat="38.587340195075924" lon="16.05422938054435"><ele>272.0</ele><time>2026-04-12T15:59:00.001Z</time></trkpt><trkpt lat="38.58745165145234" lon="16.053998159779077"><ele>275.0</ele><time>2026-04-12T15:59:01.001Z</time></trkpt><trkpt lat="38.58757588905323" lon="16.053830840220268"><ele>278.0</ele><time>2026-04-12T15:59:02.001Z</time></trkpt><trkpt lat="38.5877200438276" lon="16.053732432271996"><ele>279.6666666666667</ele><time>2026-04-12T15:59:03.001Z</time></trkpt><trkpt lat="38.587884382364315" lon="16.053689299925818"><ele>281.3333333333333</ele><time>2026-04-12T15:59:04.001Z</time></trkpt><trkpt lat="38.58808129844047" lon="16.05366830106323"><ele>283.0</ele><time>2026-04-12T15:59:05.001Z</time></trkpt><trkpt lat="38.588315850123074" lon="16.053649616686034"><ele>283.0</ele><time>2026-04-12T15:59:06.001Z</time></trkpt><trkpt lat="38.58858259631053" lon="16.053626011834712"><ele>283.0</ele><time>2026-04-12T15:59:07.001Z</time></trkpt><trkpt lat="38.58888299885079" lon="16.053596543708306"><ele>283.5</ele><time>2026-04-12T15:59:08.001Z</time></trkpt><trkpt lat="38.58920953965337" lon="16.0535537443231"><ele>284.0</ele><time>2026-04-12T15:59:09.001Z</time></trkpt><trkpt lat="38.58952122996358" lon="16.053519585379977"><ele>284.0</ele><time>2026-04-12T15:59:10.001Z</time></trkpt><trkpt lat="38.58979083686473" lon="16.053509236823448"><ele>284.0</ele><time>2026-04-12T15:59:11.001Z</time></trkpt><trkpt lat="38.59002293217794" lon="16.053493073533804"><ele>284.0</ele><time>2026-04-12T15:59:12.001Z</time></trkpt><trkpt lat="38.590238157325004" lon="16.05347545407087"><ele>284.0</ele><time>2026-04-12T15:59:13.001Z</time></trkpt><trkpt lat="38.590445134870436" lon="16.05346020715284"><ele>284.0</ele><time>2026-04-12T15:59:14.001Z</time></trkpt><trkpt lat="38.590648328794344" lon="16.053439013399068"><ele>284.33333333333337</ele><time>2026-04-12T15:59:15.001Z</time></trkpt><trkpt lat="38.590876928507164" lon="16.053417711137133"><ele>284.6666666666667</ele><time>2026-04-12T15:59:16.001Z</time></trkpt><trkpt lat="38.59107170436829" lon="16.053391037777466"><ele>285.0</ele><time>2026-04-12T15:59:17.001Z</time></trkpt><trkpt lat="38.59128547084894" lon="16.053367049193213"><ele>286.3333333333333</ele><time>2026-04-12T15:59:18.001Z</time></trkpt><trkpt lat="38.591497498269874" lon="16.053342705951568"><ele>287.66666666666663</ele><time>2026-04-12T15:59:19.001Z</time></trkpt><trkpt lat="38.59170400206677" lon="16.053320142110863"><ele>289.0</ele><time>2026-04-12T15:59:20.001Z</time></trkpt><trkpt lat="38.5919074735619" lon="16.053294627569674"><ele>289.66666666666663</ele><time>2026-04-12T15:59:21.001Z</time></trkpt><trkpt lat="38.592088291744034" lon="16.053279914690098"><ele>290.3333333333333</ele><time>2026-04-12T15:59:22.001Z</time></trkpt><trkpt lat="38.592246579448066" lon="16.05327986455745"><ele>291.0</ele><time>2026-04-12T15:59:23.001Z</time></trkpt><trkpt lat="38.592394641593025" lon="16.05330029197072"><ele>291.0</ele><time>2026-04-12T15:59:24.001Z</time></trkpt><trkpt lat="38.5925351537374" lon="16.053362227588966"><ele>291.0</ele><time>2026-04-12T15:59:25.002Z</time></trkpt><trkpt lat="38.592668905250115" lon="16.0534552928514"><ele>291.0</ele><time>2026-04-12T15:59:26.002Z</time></trkpt><trkpt lat="38.59278733783602" lon="16.05357426285212"><ele>293.3333333333333</ele><time>2026-04-12T15:59:27.002Z</time></trkpt><trkpt lat="38.59289323613519" lon="16.053713653146694"><ele>295.66666666666663</ele><time>2026-04-12T15:59:28.002Z</time></trkpt><trkpt lat="38.59296185600762" lon="16.053884827279425"><ele>298.0</ele><time>2026-04-12T15:59:29.002Z</time></trkpt><trkpt lat="38.59299688036137" lon="16.054077319391777"><ele>298.3333333333333</ele><time>2026-04-12T15:59:30.002Z</time></trkpt><trkpt lat="38.59301276357522" lon="16.05428001838855"><ele>298.6666666666667</ele><time>2026-04-12T15:59:31.002Z</time></trkpt><trkpt lat="38.593010336026026" lon="16.054490166954885"><ele>299.0</ele><time>2026-04-12T15:59:32.002Z</time></trkpt><trkpt lat="38.59301363408546" lon="16.05468502268447"><ele>299.0</ele><time>2026-04-12T15:59:33.002Z</time></trkpt><trkpt lat="38.59301975164513" lon="16.054864698074475"><ele>299.0</ele><time>2026-04-12T15:59:34.002Z</time></trkpt><trkpt lat="38.59302340545593" lon="16.055035791964624"><ele>299.0</ele><time>2026-04-12T15:59:35.002Z</time></trkpt><trkpt lat="38.593018398098955" lon="16.055200986849783"><ele>299.0</ele><time>2026-04-12T15:59:36.002Z</time></trkpt><trkpt lat="38.59302125741826" lon="16.05536320790783"><ele>300.25</ele><time>2026-04-12T15:59:37.002Z</time></trkpt><trkpt lat="38.593030146031666" lon="16.05551481057151"><ele>301.5</ele><time>2026-04-12T15:59:38.002Z</time></trkpt><trkpt lat="38.593033121303755" lon="16.055671523224802"><ele>302.75</ele><time>2026-04-12T15:59:39.002Z</time></trkpt><trkpt lat="38.59304122255673" lon="16.05582685513104"><ele>304.0</ele><time>2026-04-12T15:59:40.002Z</time></trkpt><trkpt lat="38.59304828740786" lon="16.055979811222247"><ele>305.5</ele><time>2026-04-12T15:59:41.002Z</time></trkpt><trkpt lat="38.593058242441245" lon="16.056119935855886"><ele>307.0</ele><time>2026-04-12T15:59:42.002Z</time></trkpt><trkpt lat="38.59307625968646" lon="16.05625594034877"><ele>308.5</ele><time>2026-04-12T15:59:43.002Z</time></trkpt><trkpt lat="38.593112652604574" lon="16.05639819645576"><ele>310.0</ele><time>2026-04-12T15:59:44.002Z</time></trkpt><trkpt lat="38.5931787262912" lon="16.056519780949426"><ele>310.0</ele><time>2026-04-12T15:59:45.002Z</time></trkpt><trkpt lat="38.59328611523471" lon="16.056594629341582"><ele>310.0</ele><time>2026-04-12T15:59:46.002Z</time></trkpt><trkpt lat="38.593407047913196" lon="16.05661827790101"><ele>310.0</ele><time>2026-04-12T15:59:47.002Z</time></trkpt><trkpt lat="38.59355928507731" lon="16.056600954699178"><ele>310.0</ele><time>2026-04-12T15:59:48.001Z</time></trkpt><trkpt lat="38.59375376578173" lon="16.056547492094417"><ele>312.0</ele><time>2026-04-12T15:59:49.001Z</time></trkpt><trkpt lat="38.59389832100204" lon="16.05656707926211"><ele>314.0</ele><time>2026-04-12T15:59:50.001Z</time></trkpt><trkpt lat="38.59404399217688" lon="16.05658301638457"><ele>316.0</ele><time>2026-04-12T15:59:51.001Z</time></trkpt><trkpt lat="38.594203131607706" lon="16.05657558674858"><ele>316.0</ele><time>2026-04-12T15:59:52.001Z</time></trkpt><trkpt lat="38.59434395843328" lon="16.05656417205567"><ele>316.0</ele><time>2026-04-12T15:59:53.001Z</time></trkpt><trkpt lat="38.59446962733512" lon="16.056455189441337"><ele>316.0</ele><time>2026-04-12T15:59:54.001Z</time></trkpt><trkpt lat="38.594571300322464" lon="16.056322037288083"><ele>316.0</ele><time>2026-04-12T15:59:55.001Z</time></trkpt><trkpt lat="38.59466390100399" lon="16.056170041517184"><ele>316.5</ele><time>2026-04-12T15:59:56.001Z</time></trkpt><trkpt lat="38.594759651439105" lon="16.056033920236175"><ele>317.0</ele><time>2026-04-12T15:59:57.001Z</time></trkpt><trkpt lat="38.594878308260164" lon="16.055906881854767"><ele>317.5</ele><time>2026-04-12T15:59:58Z</time></trkpt><trkpt lat="38.59501473453929" lon="16.055822499444382"><ele>318.0</ele><time>2026-04-12T15:59:59Z</time></trkpt><trkpt lat="38.59515931274414" lon="16.0557700955358"><ele>318.0</ele><time>2026-04-12T16:00:00Z</time></trkpt><trkpt lat="38.59530596847614" lon="16.055707958300797"><ele>318.0</ele><time>2026-04-12T16:00:01Z</time></trkpt><trkpt lat="38.59545728633696" lon="16.055635070965035"><ele>318.0</ele><time>2026-04-12T16:00:02Z</time></trkpt><trkpt lat="38.59561055643112" lon="16.05556346695775"><ele>320.6666666666667</ele><time>2026-04-12T16:00:03Z</time></trkpt><trkpt lat="38.59577400024626" lon="16.05548823208602"><ele>323.33333333333337</ele><time>2026-04-12T16:00:04Z</time></trkpt><trkpt lat="38.595921339941704" lon="16.055417400804476"><ele>326.0</ele><time>2026-04-12T16:00:05Z</time></trkpt><trkpt lat="38.596080462402035" lon="16.055385409912844"><ele>329.33333333333337</ele><time>2026-04-12T16:00:06Z</time></trkpt><trkpt lat="38.59622567679389" lon="16.055389955637825"><ele>332.6666666666667</ele><time>2026-04-12T16:00:07Z</time></trkpt><trkpt lat="38.59637430339653" lon="16.055433620861322"><ele>336.0</ele><time>2026-04-12T16:00:08Z</time></trkpt><trkpt lat="38.596545258114446" lon="16.055513123325607"><ele>336.0</ele><time>2026-04-12T16:00:09Z</time></trkpt><trkpt lat="38.596727388539804" lon="16.05558649772283"><ele>336.0</ele><time>2026-04-12T16:00:10Z</time></trkpt><trkpt lat="38.59692017628481" lon="16.05564689058962"><ele>336.0</ele><time>2026-04-12T16:00:11Z</time></trkpt><trkpt lat="38.59712828432851" lon="16.055692069772736"><ele>337.0</ele><time>2026-04-12T16:00:12Z</time></trkpt><trkpt lat="38.597336841604196" lon="16.05573042327128"><ele>338.0</ele><time>2026-04-12T16:00:13Z</time></trkpt><trkpt lat="38.597546541277836" lon="16.055778891835374"><ele>339.0</ele><time>2026-04-12T16:00:14Z</time></trkpt><trkpt lat="38.597749393915606" lon="16.055836452579932"><ele>341.6666666666667</ele><time>2026-04-12T16:00:15Z</time></trkpt><trkpt lat="38.59795879443706" lon="16.055891537800353"><ele>344.33333333333337</ele><time>2026-04-12T16:00:16Z</time></trkpt><trkpt lat="38.59816322310627" lon="16.05593853718322"><ele>347.0</ele><time>2026-04-12T16:00:17Z</time></trkpt><trkpt lat="38.598361536119235" lon="16.055997576182072"><ele>347.0</ele><time>2026-04-12T16:00:18Z</time></trkpt><trkpt lat="38.598551584777084" lon="16.056070317285464"><ele>347.0</ele><time>2026-04-12T16:00:19.001Z</time></trkpt><trkpt lat="38.59873035076256" lon="16.056169589168444"><ele>347.0</ele><time>2026-04-12T16:00:20.001Z</time></trkpt><trkpt lat="38.59890701225781" lon="16.056287654759412"><ele>349.0</ele><time>2026-04-12T16:00:21.001Z</time></trkpt><trkpt lat="38.599088406955474" lon="16.056423464080975"><ele>351.0</ele><time>2026-04-12T16:00:22.001Z</time></trkpt><trkpt lat="38.59927606452066" lon="16.05657553254437"><ele>353.0</ele><time>2026-04-12T16:00:23.001Z</time></trkpt><trkpt lat="38.59946475933009" lon="16.05672418311536"><ele>356.33333333333337</ele><time>2026-04-12T16:00:24.001Z</time></trkpt><trkpt lat="38.59965653341748" lon="16.056866798862675"><ele>359.6666666666667</ele><time>2026-04-12T16:00:25.001Z</time></trkpt><trkpt lat="38.59984205396614" lon="16.057009786198783"><ele>363.0</ele><time>2026-04-12T16:00:26.001Z</time></trkpt><trkpt lat="38.600019527380766" lon="16.057139996732744"><ele>363.0</ele><time>2026-04-12T16:00:27.001Z</time></trkpt><trkpt lat="38.60018160395735" lon="16.05726042098242"><ele>363.0</ele><time>2026-04-12T16:00:28.001Z</time></trkpt><trkpt lat="38.60032884043941" lon="16.057383608346676"><ele>363.0</ele><time>2026-04-12T16:00:29.001Z</time></trkpt><trkpt lat="38.60048015574482" lon="16.05749855147035"><ele>363.0</ele><time>2026-04-12T16:00:30.001Z</time></trkpt><trkpt lat="38.60063234729507" lon="16.05761431865052"><ele>363.0</ele><time>2026-04-12T16:00:31.001Z</time></trkpt><trkpt lat="38.6007794342531" lon="16.057723514870375"><ele>363.0</ele><time>2026-04-12T16:00:32.001Z</time></trkpt><trkpt lat="38.60092178145671" lon="16.057830927453544"><ele>363.0</ele><time>2026-04-12T16:00:33.001Z</time></trkpt><trkpt lat="38.60106150029209" lon="16.0579392036737"><ele>363.0</ele><time>2026-04-12T16:00:34.001Z</time></trkpt><trkpt lat="38.601190217830144" lon="16.058049292237754"><ele>363.0</ele><time>2026-04-12T16:00:35.001Z</time></trkpt><trkpt lat="38.60131031194629" lon="16.05815426029246"><ele>363.0</ele><time>2026-04-12T16:00:36.001Z</time></trkpt><trkpt lat="38.601405044141046" lon="16.058254076478498"><ele>363.0</ele><time>2026-04-12T16:00:37.001Z</time></trkpt><trkpt lat="38.601495194689065" lon="16.058343056090106"><ele>363.0</ele><time>2026-04-12T16:00:38.001Z</time></trkpt><trkpt lat="38.60158139762453" lon="16.058429262735224"><ele>363.0</ele><time>2026-04-12T16:00:39.001Z</time></trkpt><trkpt lat="38.60166619516516" lon="16.058524535339323"><ele>363.0</ele><time>2026-04-12T16:00:40.001Z</time></trkpt><trkpt lat="38.60174882409943" lon="16.05861419809472"><ele>363.0</ele><time>2026-04-12T16:00:41.001Z</time></trkpt><trkpt lat="38.60183184264417" lon="16.058705579427254"><ele>363.0</ele><time>2026-04-12T16:00:42.001Z</time></trkpt><trkpt lat="38.601912933739946" lon="16.05878843318153"><ele>363.0</ele><time>2026-04-12T16:00:43.001Z</time></trkpt><trkpt lat="38.601979601500446" lon="16.058865809286438"><ele>363.0</ele><time>2026-04-12T16:00:44.001Z</time></trkpt><trkpt lat="38.60204070543945" lon="16.058931842931788"><ele>364.0</ele><time>2026-04-12T16:00:45.001Z</time></trkpt><trkpt lat="38.60210699618959" lon="16.05898336990087"><ele>365.0</ele><time>2026-04-12T16:00:46.001Z</time></trkpt><trkpt lat="38.60216615112998" lon="16.05906054048657"><ele>366.0</ele><time>2026-04-12T16:00:47.001Z</time></trkpt><trkpt lat="38.60222947586278" lon="16.05913248708935"><ele>367.0</ele><time>2026-04-12T16:00:48.001Z</time></trkpt><trkpt lat="38.60229235123576" lon="16.059202572699895"><ele>368.0</ele><time>2026-04-12T16:00:49.001Z</time></trkpt><trkpt lat="38.602351998264105" lon="16.059273040266117"><ele>369.0</ele><time>2026-04-12T16:00:50.001Z</time></trkpt><trkpt lat="38.602411158328714" lon="16.059342718069136"><ele>369.0</ele><time>2026-04-12T16:00:51.001Z</time></trkpt><trkpt lat="38.60247299326713" lon="16.059416792694186"><ele>369.0</ele><time>2026-04-12T16:00:52.001Z</time></trkpt><trkpt lat="38.6025383586377" lon="16.059491200114888"><ele>369.0</ele><time>2026-04-12T16:00:53.001Z</time></trkpt><trkpt lat="38.60260490002268" lon="16.059568610928267"><ele>369.0</ele><time>2026-04-12T16:00:54.001Z</time></trkpt><trkpt lat="38.60267748978587" lon="16.059654810665418"><ele>369.0</ele><time>2026-04-12T16:00:55.001Z</time></trkpt><trkpt lat="38.60275369535496" lon="16.05974563017745"><ele>369.25</ele><time>2026-04-12T16:00:56.001Z</time></trkpt><trkpt lat="38.60283660061331" lon="16.059844382491562"><ele>369.5</ele><time>2026-04-12T16:00:57.001Z</time></trkpt><trkpt lat="38.602922711314505" lon="16.059955007453922"><ele>369.75</ele><time>2026-04-12T16:00:58.001Z</time></trkpt><trkpt lat="38.60300827291542" lon="16.060066794700873"><ele>370.0</ele><time>2026-04-12T16:00:59.001Z</time></trkpt><trkpt lat="38.603097454323795" lon="16.060178165285638"><ele>370.0</ele><time>2026-04-12T16:01:00.001Z</time></trkpt><trkpt lat="38.60318050511519" lon="16.0602918015582"><ele>370.0</ele><time>2026-04-12T16:01:01.001Z</time></trkpt><trkpt lat="38.6032626797103" lon="16.060396355252266"><ele>370.0</ele><time>2026-04-12T16:01:02.001Z</time></trkpt><trkpt lat="38.603343632396594" lon="16.060502100032963"><ele>370.0</ele><time>2026-04-12T16:01:03.001Z</time></trkpt><trkpt lat="38.60341748383484" lon="16.060600904024554"><ele>370.0</ele><time>2026-04-12T16:01:04.001Z</time></trkpt><trkpt lat="38.60348715100305" lon="16.060687815273333"><ele>370.0</ele><time>2026-04-12T16:01:05.001Z</time></trkpt><trkpt lat="38.60355330605397" lon="16.060772322439117"><ele>370.0</ele><time>2026-04-12T16:01:06.001Z</time></trkpt><trkpt lat="38.60361906612528" lon="16.060850608234418"><ele>370.0</ele><time>2026-04-12T16:01:07.001Z</time></trkpt><trkpt lat="38.60367961519604" lon="16.06092223379869"><ele>370.0</ele><time>2026-04-12T16:01:08.001Z</time></trkpt><trkpt lat="38.60373662050278" lon="16.060985085774206"><ele>370.0</ele><time>2026-04-12T16:01:09.001Z</time></trkpt><trkpt lat="38.60379234668292" lon="16.061054242007195"><ele>369.8333333333333</ele><time>2026-04-12T16:01:10.001Z</time></trkpt><trkpt lat="38.60385296584602" lon="16.061128704499936"><ele>369.66666666666663</ele><time>2026-04-12T16:01:11.001Z</time></trkpt><trkpt lat="38.603912513067996" lon="16.06120279103235"><ele>369.5</ele><time>2026-04-12T16:01:12.001Z</time></trkpt><trkpt lat="38.603971829214615" lon="16.06127669612303"><ele>369.3333333333333</ele><time>2026-04-12T16:01:13.001Z</time></trkpt><trkpt lat="38.60403001057662" lon="16.061349694957382"><ele>369.1666666666667</ele><time>2026-04-12T16:01:14.001Z</time></trkpt><trkpt lat="38.604086862765044" lon="16.061415838006045"><ele>369.0</ele><time>2026-04-12T16:01:15.001Z</time></trkpt><trkpt lat="38.604138979320325" lon="16.061476735741586"><ele>369.0</ele><time>2026-04-12T16:01:16.001Z</time></trkpt><trkpt lat="38.604182042318634" lon="16.061555918098424"><ele>369.0</ele><time>2026-04-12T16:01:17.001Z</time></trkpt><trkpt lat="38.60423254133323" lon="16.06162037819844"><ele>369.0</ele><time>2026-04-12T16:01:18.001Z</time></trkpt><trkpt lat="38.604290649852736" lon="16.06169473940826"><ele>369.0</ele><time>2026-04-12T16:01:19.001Z</time></trkpt><trkpt lat="38.604366224351736" lon="16.061768810561905"><ele>369.0</ele><time>2026-04-12T16:01:20.001Z</time></trkpt><trkpt lat="38.604428158179275" lon="16.061889347766098"><ele>369.0</ele><time>2026-04-12T16:01:21.001Z</time></trkpt><trkpt lat="38.60449975299958" lon="16.061971369200723"><ele>368.4</ele><time>2026-04-12T16:01:22.001Z</time></trkpt><trkpt lat="38.60457696027393" lon="16.062060198615622"><ele>367.79999999999995</ele><time>2026-04-12T16:01:23.001Z</time></trkpt><trkpt lat="38.60465466175186" lon="16.062159828058476"><ele>367.20000000000005</ele><time>2026-04-12T16:01:24.001Z</time></trkpt><trkpt lat="38.60473244062257" lon="16.062260530502073"><ele>366.6</ele><time>2026-04-12T16:01:25.001Z</time></trkpt><trkpt lat="38.60481084953928" lon="16.062355315661723"><ele>366.0</ele><time>2026-04-12T16:01:26.001Z</time></trkpt><trkpt lat="38.604886738129935" lon="16.06244835127471"><ele>366.0</ele><time>2026-04-12T16:01:27.001Z</time></trkpt><trkpt lat="38.60495587002521" lon="16.062531085399335"><ele>366.0</ele><time>2026-04-12T16:01:28.001Z</time></trkpt><trkpt lat="38.60501933822686" lon="16.062606318859903"><ele>366.0</ele><time>2026-04-12T16:01:29.001Z</time></trkpt><trkpt lat="38.60507888978886" lon="16.062689087289233"><ele>366.0</ele><time>2026-04-12T16:01:30.001Z</time></trkpt><trkpt lat="38.60514302715099" lon="16.06277594218138"><ele>366.0</ele><time>2026-04-12T16:01:31.001Z</time></trkpt><trkpt lat="38.60520747007913" lon="16.062859443242207"><ele>366.0</ele><time>2026-04-12T16:01:32.001Z</time></trkpt><trkpt lat="38.605276753860345" lon="16.062945725829067"><ele>366.0</ele><time>2026-04-12T16:01:33.001Z</time></trkpt><trkpt lat="38.60534445964505" lon="16.06303331885675"><ele>366.0</ele><time>2026-04-12T16:01:34.001Z</time></trkpt><trkpt lat="38.60541625709024" lon="16.063117814060405"><ele>366.0</ele><time>2026-04-12T16:01:35.001Z</time></trkpt><trkpt lat="38.605481315189614" lon="16.063212200232396"><ele>366.0</ele><time>2026-04-12T16:01:36.001Z</time></trkpt><trkpt lat="38.605541568694235" lon="16.0633050573925"><ele>366.0</ele><time>2026-04-12T16:01:37.001Z</time></trkpt><trkpt lat="38.60559873247074" lon="16.063402570406094"><ele>366.0</ele><time>2026-04-12T16:01:38.001Z</time></trkpt><trkpt lat="38.60565502730719" lon="16.063496086837482"><ele>366.0</ele><time>2026-04-12T16:01:39.001Z</time></trkpt><trkpt lat="38.60571373608555" lon="16.063583798451564"><ele>366.0</ele><time>2026-04-12T16:01:40.001Z</time></trkpt><trkpt lat="38.60578067612812" lon="16.063659234611595"><ele>366.0</ele><time>2026-04-12T16:01:41.002Z</time></trkpt><trkpt lat="38.605840739459616" lon="16.063739826317615"><ele>366.0</ele><time>2026-04-12T16:01:42.002Z</time></trkpt><trkpt lat="38.60588495457364" lon="16.0638114331304"><ele>366.0</ele><time>2026-04-12T16:01:43.002Z</time></trkpt><trkpt lat="38.60593797277958" lon="16.063894245923432"><ele>366.0</ele><time>2026-04-12T16:01:45.002Z</time></trkpt><trkpt lat="38.605980824507675" lon="16.063969725557957"><ele>366.0</ele><time>2026-04-12T16:01:47.002Z</time></trkpt><trkpt lat="38.60602427763326" lon="16.064030512161118"><ele>366.0</ele><time>2026-04-12T16:01:49.002Z</time></trkpt><trkpt lat="38.606065763114444" lon="16.064097906129486"><ele>366.0</ele><time>2026-04-12T16:01:51.002Z</time></trkpt><trkpt lat="38.606110012511685" lon="16.064170956265624"><ele>366.0</ele><time>2026-04-12T16:01:53.002Z</time></trkpt><trkpt lat="38.60615464706276" lon="16.064241541459943"><ele>366.4</ele><time>2026-04-12T16:01:55Z</time></trkpt><trkpt lat="38.60621800810304" lon="16.06434485581894"><ele>366.8</ele><time>2026-04-12T16:01:57Z</time></trkpt><trkpt lat="38.60628111675197" lon="16.064449674220878"><ele>367.2</ele><time>2026-04-12T16:01:59Z</time></trkpt><trkpt lat="38.60634752240158" lon="16.064569185494967"><ele>367.59999999999997</ele><time>2026-04-12T16:02:01Z</time></trkpt><trkpt lat="38.60639230477193" lon="16.064634660825018"><ele>368.0</ele><time>2026-04-12T16:02:02Z</time></trkpt><trkpt lat="38.606438015266235" lon="16.06471003989063"><ele>368.0</ele><time>2026-04-12T16:02:03Z</time></trkpt><trkpt lat="38.60648493331118" lon="16.064780444906347"><ele>368.0</ele><time>2026-04-12T16:02:04Z</time></trkpt><trkpt lat="38.6065329000199" lon="16.064859489358795"><ele>368.0</ele><time>2026-04-12T16:02:05Z</time></trkpt><trkpt lat="38.60658678530257" lon="16.064932708078544"><ele>368.0</ele><time>2026-04-12T16:02:06Z</time></trkpt><trkpt lat="38.60663152477734" lon="16.065024423362463"><ele>368.0</ele><time>2026-04-12T16:02:07Z</time></trkpt><trkpt lat="38.60667692679432" lon="16.065099512101746"><ele>368.0</ele><time>2026-04-12T16:02:08Z</time></trkpt><trkpt lat="38.60674443614598" lon="16.065224904632753"><ele>368.0</ele><time>2026-04-12T16:02:10Z</time></trkpt><trkpt lat="38.60682380888336" lon="16.065318445534384"><ele>368.0</ele><time>2026-04-12T16:02:12Z</time></trkpt><trkpt lat="38.606854854114246" lon="16.065390486410752"><ele>368.0</ele><time>2026-04-12T16:02:13Z</time></trkpt><trkpt lat="38.60689834940095" lon="16.065470310897034"><ele>368.0</ele><time>2026-04-12T16:02:15Z</time></trkpt><trkpt lat="38.60695812000405" lon="16.065573336438526"><ele>368.0</ele><time>2026-04-12T16:02:17Z</time></trkpt><trkpt lat="38.60702647755007" lon="16.065676027854366"><ele>367.83333333333337</ele><time>2026-04-12T16:02:19Z</time></trkpt><trkpt lat="38.60709685157729" lon="16.06574807022837"><ele>367.6666666666667</ele><time>2026-04-12T16:02:21Z</time></trkpt><trkpt lat="38.6071485304186" lon="16.06586200881102"><ele>367.5</ele><time>2026-04-12T16:02:23Z</time></trkpt><trkpt lat="38.607216322797946" lon="16.065968570503436"><ele>367.3333333333333</ele><time>2026-04-12T16:02:25Z</time></trkpt><trkpt lat="38.607259111792814" lon="16.066028835476278"><ele>367.16666666666663</ele><time>2026-04-12T16:02:26Z</time></trkpt><trkpt lat="38.607298253808985" lon="16.066097067534887"><ele>367.0</ele><time>2026-04-12T16:02:27Z</time></trkpt><trkpt lat="38.607370068563924" lon="16.066216300411288"><ele>367.0</ele><time>2026-04-12T16:02:29Z</time></trkpt><trkpt lat="38.607420296769995" lon="16.06630070738359"><ele>367.0</ele><time>2026-04-12T16:02:31Z</time></trkpt><trkpt lat="38.607461773000736" lon="16.066373531311744"><ele>367.0</ele><time>2026-04-12T16:02:34Z</time></trkpt><trkpt lat="38.607512012754185" lon="16.066434856062642"><ele>367.0</ele><time>2026-04-12T16:02:39.001Z</time></trkpt><trkpt lat="38.607569408143384" lon="16.066520388199397"><ele>367.0</ele><time>2026-04-12T16:02:41.001Z</time></trkpt><trkpt lat="38.60762789293067" lon="16.066608530456456"><ele>367.0</ele><time>2026-04-12T16:02:43.001Z</time></trkpt><trkpt lat="38.60770392546671" lon="16.066727328897716"><ele>367.0</ele><time>2026-04-12T16:02:45.001Z</time></trkpt><trkpt lat="38.60774937912343" lon="16.06679414528602"><ele>367.0</ele><time>2026-04-12T16:02:46.001Z</time></trkpt><trkpt lat="38.60778218770649" lon="16.066869938841837"><ele>367.0</ele><time>2026-04-12T16:02:47.001Z</time></trkpt><trkpt lat="38.607844136058326" lon="16.066941777020517"><ele>367.0</ele><time>2026-04-12T16:02:48.001Z</time></trkpt><trkpt lat="38.6078832500759" lon="16.06703325742891"><ele>367.0</ele><time>2026-04-12T16:02:49.001Z</time></trkpt><trkpt lat="38.60793706935538" lon="16.067101347063435"><ele>367.0</ele><time>2026-04-12T16:02:50.001Z</time></trkpt><trkpt lat="38.607985169168444" lon="16.06718418265573"><ele>366.85714285714283</ele><time>2026-04-12T16:02:51.001Z</time></trkpt><trkpt lat="38.608029027572634" lon="16.067258990553597"><ele>366.7142857142857</ele><time>2026-04-12T16:02:52.001Z</time></trkpt><trkpt lat="38.60806713915455" lon="16.06732905503779"><ele>366.57142857142856</ele><time>2026-04-12T16:02:53.001Z</time></trkpt><trkpt lat="38.60811317572377" lon="16.067390148557173"><ele>366.42857142857144</ele><time>2026-04-12T16:02:54.001Z</time></trkpt><trkpt lat="38.6081606612331" lon="16.067457433344046"><ele>366.28571428571433</ele><time>2026-04-12T16:02:55.001Z</time></trkpt><trkpt lat="38.60820326166474" lon="16.06753229452185"><ele>366.14285714285717</ele><time>2026-04-12T16:02:56.001Z</time></trkpt><trkpt lat="38.60824735339142" lon="16.06760727209422"><ele>366.0</ele><time>2026-04-12T16:02:57.001Z</time></trkpt><trkpt lat="38.608302743312805" lon="16.06768240578619"><ele>366.0</ele><time>2026-04-12T16:02:58.001Z</time></trkpt><trkpt lat="38.608344179595356" lon="16.06777621704558"><ele>366.0</ele><time>2026-04-12T16:02:59.001Z</time></trkpt><trkpt lat="38.608400251903184" lon="16.067866861629113"><ele>366.0</ele><time>2026-04-12T16:03:00.001Z</time></trkpt><trkpt lat="38.60846844251138" lon="16.06794910074297"><ele>366.0</ele><time>2026-04-12T16:03:01.001Z</time></trkpt><trkpt lat="38.608526540590255" lon="16.068041014386814"><ele>366.0</ele><time>2026-04-12T16:03:02.001Z</time></trkpt><trkpt lat="38.60857798190452" lon="16.06815564872963"><ele>366.0</ele><time>2026-04-12T16:03:03.001Z</time></trkpt><trkpt lat="38.608654109999115" lon="16.06824606273934"><ele>366.0</ele><time>2026-04-12T16:03:04.001Z</time></trkpt><trkpt lat="38.60871755473684" lon="16.068351536270107"><ele>366.0</ele><time>2026-04-12T16:03:05.001Z</time></trkpt><trkpt lat="38.608767023084326" lon="16.068464333989525"><ele>366.0</ele><time>2026-04-12T16:03:06.001Z</time></trkpt><trkpt lat="38.60882901996292" lon="16.068564959821277"><ele>366.0</ele><time>2026-04-12T16:03:07.001Z</time></trkpt><trkpt lat="38.60888626745176" lon="16.06865655581205"><ele>366.0</ele><time>2026-04-12T16:03:08.001Z</time></trkpt><trkpt lat="38.60894521365334" lon="16.06874203596633"><ele>366.0</ele><time>2026-04-12T16:03:09.001Z</time></trkpt><trkpt lat="38.60899931980876" lon="16.068822427077414"><ele>366.0</ele><time>2026-04-12T16:03:10.001Z</time></trkpt><trkpt lat="38.60903923053414" lon="16.068889055049254"><ele>366.0</ele><time>2026-04-12T16:03:11.001Z</time></trkpt><trkpt lat="38.60912641650046" lon="16.068988496476727"><ele>366.0</ele><time>2026-04-12T16:03:13.001Z</time></trkpt><trkpt lat="38.60920263836975" lon="16.069051387837284"><ele>366.0</ele><time>2026-04-12T16:03:14.001Z</time></trkpt><trkpt lat="38.60926850270594" lon="16.069067872920687"><ele>366.0</ele><time>2026-04-12T16:03:15.001Z</time></trkpt><trkpt lat="38.60934778126764" lon="16.069064494687183"><ele>366.0</ele><time>2026-04-12T16:03:16.001Z</time></trkpt><trkpt lat="38.60942626803906" lon="16.069058899352"><ele>366.0</ele><time>2026-04-12T16:03:17.001Z</time></trkpt><trkpt lat="38.60950817559722" lon="16.06905883539976"><ele>366.0</ele><time>2026-04-12T16:03:18.001Z</time></trkpt><trkpt lat="38.6096028875141" lon="16.069053580299528"><ele>366.0</ele><time>2026-04-12T16:03:19.001Z</time></trkpt><trkpt lat="38.60970166869785" lon="16.069053072481292"><ele>366.0</ele><time>2026-04-12T16:03:20.001Z</time></trkpt><trkpt lat="38.60981003880604" lon="16.069061126435304"><ele>366.75</ele><time>2026-04-12T16:03:21.001Z</time></trkpt><trkpt lat="38.60991889077045" lon="16.06906141976063"><ele>367.5</ele><time>2026-04-12T16:03:22.001Z</time></trkpt><trkpt lat="38.61003688661659" lon="16.06906183439429"><ele>368.25</ele><time>2026-04-12T16:03:23.001Z</time></trkpt><trkpt lat="38.61015041718352" lon="16.069065008538843"><ele>369.0</ele><time>2026-04-12T16:03:24.001Z</time></trkpt><trkpt lat="38.61027182535497" lon="16.069067174603656"><ele>369.25</ele><time>2026-04-12T16:03:25.001Z</time></trkpt><trkpt lat="38.61039347322596" lon="16.069062421272278"><ele>369.5</ele><time>2026-04-12T16:03:26.001Z</time></trkpt><trkpt lat="38.61051535598222" lon="16.06906217991569"><ele>369.75</ele><time>2026-04-12T16:03:27.001Z</time></trkpt><trkpt lat="38.61063720964587" lon="16.069063592988226"><ele>370.0</ele><time>2026-04-12T16:03:28.001Z</time></trkpt><trkpt lat="38.61076089643193" lon="16.069074011919664"><ele>370.0</ele><time>2026-04-12T16:03:29.001Z</time></trkpt><trkpt lat="38.610878658191716" lon="16.069102808294303"><ele>370.0</ele><time>2026-04-12T16:03:30.001Z</time></trkpt><trkpt lat="38.61098852285934" lon="16.069140506015398"><ele>370.0</ele><time>2026-04-12T16:03:31.001Z</time></trkpt><trkpt lat="38.61108591516372" lon="16.06918906357917"><ele>370.0</ele><time>2026-04-12T16:03:32.001Z</time></trkpt><trkpt lat="38.61118572307917" lon="16.06924427611881"><ele>370.0</ele><time>2026-04-12T16:03:33.001Z</time></trkpt><trkpt lat="38.611278934369686" lon="16.069298677592396"><ele>369.6</ele><time>2026-04-12T16:03:34.001Z</time></trkpt><trkpt lat="38.61136430532917" lon="16.069351106257482"><ele>369.2</ele><time>2026-04-12T16:03:35.001Z</time></trkpt><trkpt lat="38.61144370761608" lon="16.06940110043875"><ele>368.79999999999995</ele><time>2026-04-12T16:03:36.001Z</time></trkpt><trkpt lat="38.611529550669744" lon="16.06944293078692"><ele>368.4</ele><time>2026-04-12T16:03:37.001Z</time></trkpt><trkpt lat="38.61162537096994" lon="16.069489457724746"><ele>368.0</ele><time>2026-04-12T16:03:38.001Z</time></trkpt><trkpt lat="38.61172658572864" lon="16.069543350941558"><ele>368.0</ele><time>2026-04-12T16:03:39.001Z</time></trkpt><trkpt lat="38.611834323513165" lon="16.06959732929697"><ele>368.0</ele><time>2026-04-12T16:03:40.001Z</time></trkpt><trkpt lat="38.6119402883746" lon="16.06965702024275"><ele>368.0</ele><time>2026-04-12T16:03:41.001Z</time></trkpt><trkpt lat="38.6120470093753" lon="16.069714637248044"><ele>368.0</ele><time>2026-04-12T16:03:42.001Z</time></trkpt><trkpt lat="38.61215387120134" lon="16.069774558958482"><ele>367.5</ele><time>2026-04-12T16:03:43.001Z</time></trkpt><trkpt lat="38.61226432849603" lon="16.069840954938844"><ele>367.0</ele><time>2026-04-12T16:03:44.001Z</time></trkpt><trkpt lat="38.6123823218431" lon="16.069899303031015"><ele>366.5</ele><time>2026-04-12T16:03:45.001Z</time></trkpt><trkpt lat="38.61251620529709" lon="16.06995146387395"><ele>366.0</ele><time>2026-04-12T16:03:46.001Z</time></trkpt><trkpt lat="38.61264893545123" lon="16.07001553514357"><ele>366.0</ele><time>2026-04-12T16:03:47.001Z</time></trkpt><trkpt lat="38.61278388311812" lon="16.070084642270597"><ele>366.0</ele><time>2026-04-12T16:03:48.001Z</time></trkpt><trkpt lat="38.61291784560141" lon="16.070156527552324"><ele>366.0</ele><time>2026-04-12T16:03:49.001Z</time></trkpt><trkpt lat="38.613047283392746" lon="16.070226058027494"><ele>366.0</ele><time>2026-04-12T16:03:50.001Z</time></trkpt><trkpt lat="38.61317299281462" lon="16.070288407360543"><ele>364.5</ele><time>2026-04-12T16:03:51.001Z</time></trkpt><trkpt lat="38.613289021033424" lon="16.07034445307872"><ele>363.0</ele><time>2026-04-12T16:03:52.001Z</time></trkpt><trkpt lat="38.61339072561465" lon="16.0703995366428"><ele>361.5</ele><time>2026-04-12T16:03:53.001Z</time></trkpt><trkpt lat="38.61348932399029" lon="16.070459599991047"><ele>360.0</ele><time>2026-04-12T16:03:54.001Z</time></trkpt><trkpt lat="38.61359593614355" lon="16.070515591454175"><ele>359.75</ele><time>2026-04-12T16:03:55.001Z</time></trkpt><trkpt lat="38.613716394335" lon="16.070577875713816"><ele>359.5</ele><time>2026-04-12T16:03:56.001Z</time></trkpt><trkpt lat="38.6138378902291" lon="16.070642040009965"><ele>359.25</ele><time>2026-04-12T16:03:57.001Z</time></trkpt><trkpt lat="38.61396337788595" lon="16.070708705002858"><ele>359.0</ele><time>2026-04-12T16:03:58.001Z</time></trkpt><trkpt lat="38.61408767389172" lon="16.070775598284943"><ele>359.33333333333337</ele><time>2026-04-12T16:03:59.002Z</time></trkpt><trkpt lat="38.61422186928689" lon="16.070840839732735"><ele>359.6666666666667</ele><time>2026-04-12T16:04:00Z</time></trkpt><trkpt lat="38.61436805669188" lon="16.070913984062788"><ele>360.0</ele><time>2026-04-12T16:04:01Z</time></trkpt><trkpt lat="38.61452434172285" lon="16.070979099698715"><ele>360.0</ele><time>2026-04-12T16:04:02Z</time></trkpt><trkpt lat="38.614695049370965" lon="16.071086889866088"><ele>360.0</ele><time>2026-04-12T16:04:03Z</time></trkpt><trkpt lat="38.61487515832458" lon="16.071190637752245"><ele>360.0</ele><time>2026-04-12T16:04:04Z</time></trkpt><trkpt lat="38.61505817395632" lon="16.071310129670486"><ele>360.0</ele><time>2026-04-12T16:04:05Z</time></trkpt><trkpt lat="38.61525542409353" lon="16.07141617813875"><ele>360.0</ele><time>2026-04-12T16:04:06Z</time></trkpt><trkpt lat="38.615453313682764" lon="16.071515686937758"><ele>360.0</ele><time>2026-04-12T16:04:07Z</time></trkpt><trkpt lat="38.61564175707309" lon="16.07160751792508"><ele>360.6666666666667</ele><time>2026-04-12T16:04:08Z</time></trkpt><trkpt lat="38.61582352041431" lon="16.071697887260584"><ele>361.33333333333337</ele><time>2026-04-12T16:04:09Z</time></trkpt><trkpt lat="38.61599669784022" lon="16.071794261424273"><ele>362.0</ele><time>2026-04-12T16:04:10Z</time></trkpt><trkpt lat="38.616156285290884" lon="16.071883437081926"><ele>362.0</ele><time>2026-04-12T16:04:11Z</time></trkpt><trkpt lat="38.6163095429644" lon="16.071968721443564"><ele>362.0</ele><time>2026-04-12T16:04:12Z</time></trkpt><trkpt lat="38.61645329192186" lon="16.07204130053814"><ele>362.0</ele><time>2026-04-12T16:04:13Z</time></trkpt><trkpt lat="38.616590538447014" lon="16.07211599415843"><ele>362.0</ele><time>2026-04-12T16:04:14Z</time></trkpt><trkpt lat="38.61671646438312" lon="16.072190605716465"><ele>362.0</ele><time>2026-04-12T16:04:15Z</time></trkpt><trkpt lat="38.61683299209729" lon="16.072248351160592"><ele>362.0</ele><time>2026-04-12T16:04:16Z</time></trkpt><trkpt lat="38.616941131711734" lon="16.072303152373824"><ele>362.0</ele><time>2026-04-12T16:04:17Z</time></trkpt><trkpt lat="38.61704848423119" lon="16.07235679702498"><ele>361.5</ele><time>2026-04-12T16:04:18Z</time></trkpt><trkpt lat="38.617161148800236" lon="16.072417166370382"><ele>361.0</ele><time>2026-04-12T16:04:19Z</time></trkpt><trkpt lat="38.617280720756405" lon="16.0724775361064"><ele>360.5</ele><time>2026-04-12T16:04:20Z</time></trkpt><trkpt lat="38.61739962041489" lon="16.072537225557035"><ele>360.0</ele><time>2026-04-12T16:04:21Z</time></trkpt><trkpt lat="38.6175270358662" lon="16.072601451851106"><ele>359.75</ele><time>2026-04-12T16:04:22Z</time></trkpt><trkpt lat="38.61766077084886" lon="16.072667773948346"><ele>359.5</ele><time>2026-04-12T16:04:23Z</time></trkpt><trkpt lat="38.617796049136324" lon="16.072741178514182"><ele>359.25</ele><time>2026-04-12T16:04:24Z</time></trkpt><trkpt lat="38.61792937061908" lon="16.072809129783703"><ele>359.0</ele><time>2026-04-12T16:04:25Z</time></trkpt><trkpt lat="38.618074066400645" lon="16.072887225779724"><ele>359.0</ele><time>2026-04-12T16:04:26Z</time></trkpt><trkpt lat="38.61821990179517" lon="16.072942055934206"><ele>359.0</ele><time>2026-04-12T16:04:27Z</time></trkpt><trkpt lat="38.61837089228713" lon="16.07299697757724"><ele>359.0</ele><time>2026-04-12T16:04:28Z</time></trkpt><trkpt lat="38.61852093280934" lon="16.07304850765758"><ele>358.5</ele><time>2026-04-12T16:04:29Z</time></trkpt><trkpt lat="38.61867223880569" lon="16.073088870251578"><ele>358.0</ele><time>2026-04-12T16:04:30Z</time></trkpt><trkpt lat="38.618821492413915" lon="16.073121656122307"><ele>357.5</ele><time>2026-04-12T16:04:31Z</time></trkpt><trkpt lat="38.61896265565874" lon="16.07313163332167"><ele>357.0</ele><time>2026-04-12T16:04:32Z</time></trkpt><trkpt lat="38.6191069099806" lon="16.073121700071862"><ele>357.0</ele><time>2026-04-12T16:04:33Z</time></trkpt><trkpt lat="38.61925455607156" lon="16.07307538134297"><ele>357.0</ele><time>2026-04-12T16:04:34Z</time></trkpt><trkpt lat="38.6194007577448" lon="16.07302622993661"><ele>357.0</ele><time>2026-04-12T16:04:35Z</time></trkpt><trkpt lat="38.61954586034573" lon="16.072962231198343"><ele>358.0</ele><time>2026-04-12T16:04:36Z</time></trkpt><trkpt lat="38.61968916292666" lon="16.072887853647707"><ele>359.0</ele><time>2026-04-12T16:04:37Z</time></trkpt><trkpt lat="38.61982521046351" lon="16.072799614538578"><ele>360.0</ele><time>2026-04-12T16:04:38Z</time></trkpt><trkpt lat="38.61995715424546" lon="16.07269443954093"><ele>360.0</ele><time>2026-04-12T16:04:39Z</time></trkpt><trkpt lat="38.620087677833475" lon="16.07257316891048"><ele>360.0</ele><time>2026-04-12T16:04:40Z</time></trkpt><trkpt lat="38.62022149042814" lon="16.072440512624095"><ele>360.0</ele><time>2026-04-12T16:04:41Z</time></trkpt><trkpt lat="38.62035747336627" lon="16.072293108823853"><ele>361.3333333333333</ele><time>2026-04-12T16:04:42Z</time></trkpt><trkpt lat="38.62050184620507" lon="16.072143550830578"><ele>362.66666666666663</ele><time>2026-04-12T16:04:43Z</time></trkpt><trkpt lat="38.620650185674265" lon="16.071992471802385"><ele>364.0</ele><time>2026-04-12T16:04:44Z</time></trkpt><trkpt lat="38.62080269474275" lon="16.071833518278826"><ele>364.0</ele><time>2026-04-12T16:04:45Z</time></trkpt><trkpt lat="38.62095813129447" lon="16.07167160100405"><ele>364.0</ele><time>2026-04-12T16:04:46Z</time></trkpt><trkpt lat="38.62111759927292" lon="16.07150498232426"><ele>364.0</ele><time>2026-04-12T16:04:47Z</time></trkpt><trkpt lat="38.621277480650974" lon="16.07133567377285"><ele>366.0</ele><time>2026-04-12T16:04:48Z</time></trkpt><trkpt lat="38.6214366114969" lon="16.071164689683773"><ele>368.0</ele><time>2026-04-12T16:04:49Z</time></trkpt><trkpt lat="38.62159066753904" lon="16.07099412376033"><ele>370.0</ele><time>2026-04-12T16:04:50.001Z</time></trkpt><trkpt lat="38.62173648975264" lon="16.070834348562478"><ele>370.0</ele><time>2026-04-12T16:04:51.001Z</time></trkpt><trkpt lat="38.62187167805513" lon="16.070688290398166"><ele>370.0</ele><time>2026-04-12T16:04:52.001Z</time></trkpt><trkpt lat="38.62200344980715" lon="16.07055150006037"><ele>370.0</ele><time>2026-04-12T16:04:53.001Z</time></trkpt><trkpt lat="38.62213348753204" lon="16.070405967644998"><ele>371.0</ele><time>2026-04-12T16:04:54.001Z</time></trkpt><trkpt lat="38.6222722049036" lon="16.07025190454743"><ele>372.0</ele><time>2026-04-12T16:04:55.001Z</time></trkpt><trkpt lat="38.6224371493679" lon="16.070070259030064"><ele>373.0</ele><time>2026-04-12T16:04:56.001Z</time></trkpt><trkpt lat="38.62260633935491" lon="16.069902694232933"><ele>373.0</ele><time>2026-04-12T16:04:57.001Z</time></trkpt><trkpt lat="38.622764005258546" lon="16.06975551394017"><ele>373.0</ele><time>2026-04-12T16:04:58.001Z</time></trkpt><trkpt lat="38.62292074835442" lon="16.069645593072877"><ele>373.0</ele><time>2026-04-12T16:04:59.001Z</time></trkpt><trkpt lat="38.62306814052454" lon="16.069561333139447"><ele>374.66666666666663</ele><time>2026-04-12T16:05:00.001Z</time></trkpt><trkpt lat="38.62321712162153" lon="16.069475800582364"><ele>376.3333333333333</ele><time>2026-04-12T16:05:01.001Z</time></trkpt><trkpt lat="38.62336828892174" lon="16.069388718665092"><ele>378.0</ele><time>2026-04-12T16:05:02.001Z</time></trkpt><trkpt lat="38.62352733339064" lon="16.069299528022935"><ele>379.3333333333333</ele><time>2026-04-12T16:05:03.001Z</time></trkpt><trkpt lat="38.623697745026696" lon="16.06920515297258"><ele>380.66666666666663</ele><time>2026-04-12T16:05:04.001Z</time></trkpt><trkpt lat="38.62386973040502" lon="16.069103309986332"><ele>382.0</ele><time>2026-04-12T16:05:05.001Z</time></trkpt><trkpt lat="38.62404027159112" lon="16.069023223516208"><ele>382.66666666666663</ele><time>2026-04-12T16:05:06.001Z</time></trkpt><trkpt lat="38.62421321483317" lon="16.068924712600314"><ele>383.3333333333333</ele><time>2026-04-12T16:05:07.001Z</time></trkpt><trkpt lat="38.6243969151606" lon="16.068820301317945"><ele>384.0</ele><time>2026-04-12T16:05:08.001Z</time></trkpt><trkpt lat="38.62458509709713" lon="16.068722921379127"><ele>385.66666666666663</ele><time>2026-04-12T16:05:09.001Z</time></trkpt><trkpt lat="38.624777093779535" lon="16.068619668549285"><ele>387.3333333333333</ele><time>2026-04-12T16:05:10.001Z</time></trkpt><trkpt lat="38.624955572141545" lon="16.068524504513334"><ele>389.0</ele><time>2026-04-12T16:05:11.001Z</time></trkpt><trkpt lat="38.62512878672644" lon="16.068433490096265"><ele>389.0</ele><time>2026-04-12T16:05:12.001Z</time></trkpt><trkpt lat="38.62529299396838" lon="16.06834521846344"><ele>389.0</ele><time>2026-04-12T16:05:13.001Z</time></trkpt><trkpt lat="38.625456885185876" lon="16.068257769928593"><ele>389.0</ele><time>2026-04-12T16:05:14.001Z</time></trkpt><trkpt lat="38.62562068908373" lon="16.068169063322888"><ele>389.66666666666663</ele><time>2026-04-12T16:05:15.001Z</time></trkpt><trkpt lat="38.62578573656179" lon="16.068080927396313"><ele>390.33333333333337</ele><time>2026-04-12T16:05:16.001Z</time></trkpt><trkpt lat="38.62595047656342" lon="16.067995333445765"><ele>391.0</ele><time>2026-04-12T16:05:17.001Z</time></trkpt><trkpt lat="38.62611987037474" lon="16.067904103433857"><ele>393.0</ele><time>2026-04-12T16:05:18.001Z</time></trkpt><trkpt lat="38.6262878829378" lon="16.067814044336604"><ele>395.0</ele><time>2026-04-12T16:05:19.001Z</time></trkpt><trkpt lat="38.62645415266251" lon="16.067730643406033"><ele>397.0</ele><time>2026-04-12T16:05:20.001Z</time></trkpt><trkpt lat="38.62661469492811" lon="16.06764755486868"><ele>397.0</ele><time>2026-04-12T16:05:21.001Z</time></trkpt><trkpt lat="38.62676578601762" lon="16.06756966378459"><ele>397.0</ele><time>2026-04-12T16:05:22.001Z</time></trkpt><trkpt lat="38.626895324966775" lon="16.06749941682031"><ele>397.0</ele><time>2026-04-12T16:05:23.001Z</time></trkpt><trkpt lat="38.62700533611886" lon="16.06744108229535"><ele>397.0</ele><time>2026-04-12T16:05:24.001Z</time></trkpt><trkpt lat="38.62711269762587" lon="16.067400678591568"><ele>398.75</ele><time>2026-04-12T16:05:25.001Z</time></trkpt><trkpt lat="38.62722709732392" lon="16.067403192820574"><ele>400.5</ele><time>2026-04-12T16:05:26.001Z</time></trkpt><trkpt lat="38.627347128728616" lon="16.067444659297127"><ele>402.25</ele><time>2026-04-12T16:05:27.001Z</time></trkpt><trkpt lat="38.62746669985818" lon="16.06749486929691"><ele>404.0</ele><time>2026-04-12T16:05:28.001Z</time></trkpt><trkpt lat="38.6275895083971" lon="16.06759516672684"><ele>404.0</ele><time>2026-04-12T16:05:29.001Z</time></trkpt><trkpt lat="38.6277030116579" lon="16.067677806497173"><ele>404.0</ele><time>2026-04-12T16:05:30.001Z</time></trkpt><trkpt lat="38.62780147318616" lon="16.0677652025642"><ele>404.0</ele><time>2026-04-12T16:05:31.001Z</time></trkpt><trkpt lat="38.62787976261472" lon="16.067863750018773"><ele>404.0</ele><time>2026-04-12T16:05:32.001Z</time></trkpt><trkpt lat="38.62793572257473" lon="16.06794382878463"><ele>404.0</ele><time>2026-04-12T16:05:33.001Z</time></trkpt><trkpt lat="38.62798651692855" lon="16.067996792118212"><ele>407.4</ele><time>2026-04-12T16:05:34.001Z</time></trkpt><trkpt lat="38.62809555086905" lon="16.06795042776198"><ele>410.79999999999995</ele><time>2026-04-12T16:05:36.001Z</time></trkpt><trkpt lat="38.628116145297874" lon="16.0678589785934"><ele>414.20000000000005</ele><time>2026-04-12T16:05:37.001Z</time></trkpt><trkpt lat="38.628104632925066" lon="16.067757720916543"><ele>417.6</ele><time>2026-04-12T16:05:38.001Z</time></trkpt><trkpt lat="38.62805192229514" lon="16.067638580222603"><ele>421.0</ele><time>2026-04-12T16:05:39.001Z</time></trkpt><trkpt lat="38.62796139370896" lon="16.067483019775036"><ele>422.6666666666667</ele><time>2026-04-12T16:05:40.001Z</time></trkpt><trkpt lat="38.62788391578604" lon="16.06726850356445"><ele>424.33333333333337</ele><time>2026-04-12T16:05:41.001Z</time></trkpt><trkpt lat="38.627803206659706" lon="16.067062434428394"><ele>426.0</ele><time>2026-04-12T16:05:42.001Z</time></trkpt><trkpt lat="38.62771820009236" lon="16.066888717858596"><ele>426.0</ele><time>2026-04-12T16:05:43.001Z</time></trkpt><trkpt lat="38.62768778910926" lon="16.066743252130493"><ele>426.0</ele><time>2026-04-12T16:05:44.001Z</time></trkpt><trkpt lat="38.62767908155453" lon="16.066646479328806"><ele>426.0</ele><time>2026-04-12T16:05:45.001Z</time></trkpt><trkpt lat="38.62777286210826" lon="16.066607287945946"><ele>426.0</ele><time>2026-04-12T16:05:47.001Z</time></trkpt><trkpt lat="38.627858989961865" lon="16.06676247008309"><ele>426.0</ele><time>2026-04-12T16:05:49.001Z</time></trkpt><trkpt lat="38.62793400103438" lon="16.066853977298983"><ele>426.0</ele><time>2026-04-12T16:05:50.001Z</time></trkpt><trkpt lat="38.62803018366505" lon="16.066972565387136"><ele>426.0</ele><time>2026-04-12T16:05:51.001Z</time></trkpt><trkpt lat="38.6281626805593" lon="16.067081705719687"><ele>426.0</ele><time>2026-04-12T16:05:52.001Z</time></trkpt><trkpt lat="38.62830727308231" lon="16.067198516062938"><ele>426.0</ele><time>2026-04-12T16:05:53.001Z</time></trkpt><trkpt lat="38.62845606414246" lon="16.067319680188273"><ele>426.0</ele><time>2026-04-12T16:05:54.001Z</time></trkpt><trkpt lat="38.62859354705472" lon="16.06745119229337"><ele>426.0</ele><time>2026-04-12T16:05:55.001Z</time></trkpt><trkpt lat="38.62874609788424" lon="16.067578071835225"><ele>429.25</ele><time>2026-04-12T16:05:56.001Z</time></trkpt><trkpt lat="38.62888259420871" lon="16.067698539767996"><ele>432.5</ele><time>2026-04-12T16:05:57.001Z</time></trkpt><trkpt lat="38.62899880054345" lon="16.067801005147572"><ele>435.75</ele><time>2026-04-12T16:05:58.001Z</time></trkpt><trkpt lat="38.62909773998929" lon="16.067888415917423"><ele>439.0</ele><time>2026-04-12T16:05:59.001Z</time></trkpt><trkpt lat="38.62918390279349" lon="16.067966062677343"><ele>439.00000000000006</ele><time>2026-04-12T16:06:00.001Z</time></trkpt><trkpt lat="38.629245771711744" lon="16.06802760742168"><ele>439.0</ele><time>2026-04-12T16:06:01.001Z</time></trkpt><trkpt lat="38.62933902108874" lon="16.068101767021037"><ele>439.0</ele><time>2026-04-12T16:06:03.001Z</time></trkpt><trkpt lat="38.629437833649284" lon="16.068067309592674"><ele>439.0</ele><time>2026-04-12T16:06:05.001Z</time></trkpt><trkpt lat="38.629461743421125" lon="16.067989261940955"><ele>439.00000000000006</ele><time>2026-04-12T16:06:06Z</time></trkpt><trkpt lat="38.62944806879364" lon="16.067897359704123"><ele>439.0</ele><time>2026-04-12T16:06:07Z</time></trkpt><trkpt lat="38.62940164565428" lon="16.067793983656397"><ele>439.0</ele><time>2026-04-12T16:06:08Z</time></trkpt><trkpt lat="38.62932741569081" lon="16.067682973954348"><ele>439.0</ele><time>2026-04-12T16:06:09Z</time></trkpt><trkpt lat="38.62924007978547" lon="16.06755484858735"><ele>439.0</ele><time>2026-04-12T16:06:10Z</time></trkpt><trkpt lat="38.62915614752784" lon="16.06739970057713"><ele>439.0</ele><time>2026-04-12T16:06:11Z</time></trkpt><trkpt lat="38.629073752151015" lon="16.067236533216686"><ele>441.25</ele><time>2026-04-12T16:06:12Z</time></trkpt><trkpt lat="38.629003226192744" lon="16.067079193523792"><ele>443.5</ele><time>2026-04-12T16:06:13Z</time></trkpt><trkpt lat="38.62893862648954" lon="16.06694021193079"><ele>445.75</ele><time>2026-04-12T16:06:14Z</time></trkpt><trkpt lat="38.628879240924256" lon="16.066810875331132"><ele>448.0</ele><time>2026-04-12T16:06:15Z</time></trkpt><trkpt lat="38.6288311677375" lon="16.06668013546438"><ele>446.4</ele><time>2026-04-12T16:06:16Z</time></trkpt><trkpt lat="38.628794165291076" lon="16.066547455599967"><ele>444.79999999999995</ele><time>2026-04-12T16:06:17Z</time></trkpt><trkpt lat="38.628782122554085" lon="16.06641393963255"><ele>443.2</ele><time>2026-04-12T16:06:18Z</time></trkpt><trkpt lat="38.62878638001141" lon="16.06628332484563"><ele>441.6</ele><time>2026-04-12T16:06:19Z</time></trkpt><trkpt lat="38.62881771456966" lon="16.06616381644362"><ele>440.0</ele><time>2026-04-12T16:06:20Z</time></trkpt><trkpt lat="38.62888996746014" lon="16.06605520592775"><ele>440.0</ele><time>2026-04-12T16:06:21Z</time></trkpt><trkpt lat="38.62898059211708" lon="16.065984996194874"><ele>440.0</ele><time>2026-04-12T16:06:22Z</time></trkpt><trkpt lat="38.6290915065306" lon="16.065930538448274"><ele>440.0</ele><time>2026-04-12T16:06:23Z</time></trkpt><trkpt lat="38.629218660185735" lon="16.065871767853302"><ele>440.0</ele><time>2026-04-12T16:06:24Z</time></trkpt><trkpt lat="38.62934568383291" lon="16.065808693081514"><ele>442.5</ele><time>2026-04-12T16:06:25Z</time></trkpt><trkpt lat="38.62947405116473" lon="16.065738043505235"><ele>445.0</ele><time>2026-04-12T16:06:26Z</time></trkpt><trkpt lat="38.629602180430766" lon="16.065666831289246"><ele>447.5</ele><time>2026-04-12T16:06:27Z</time></trkpt><trkpt lat="38.62972970213512" lon="16.06559784215347"><ele>450.0</ele><time>2026-04-12T16:06:28Z</time></trkpt><trkpt lat="38.62983998500276" lon="16.065535241450952"><ele>450.0</ele><time>2026-04-12T16:06:29Z</time></trkpt><trkpt lat="38.629940111163975" lon="16.065480297394036"><ele>450.0</ele><time>2026-04-12T16:06:30Z</time></trkpt><trkpt lat="38.63003701878326" lon="16.06543328138064"><ele>450.0</ele><time>2026-04-12T16:06:31Z</time></trkpt><trkpt lat="38.63012394111482" lon="16.06537906338492"><ele>450.0</ele><time>2026-04-12T16:06:32Z</time></trkpt><trkpt lat="38.63021211742862" lon="16.06533638319363"><ele>450.0</ele><time>2026-04-12T16:06:33Z</time></trkpt><trkpt lat="38.63029492762368" lon="16.065300798809528"><ele>452.1666666666667</ele><time>2026-04-12T16:06:34Z</time></trkpt><trkpt lat="38.63038078331954" lon="16.06526966730469"><ele>454.33333333333337</ele><time>2026-04-12T16:06:35Z</time></trkpt><trkpt lat="38.630468555258155" lon="16.06525347348383"><ele>456.5</ele><time>2026-04-12T16:06:36Z</time></trkpt><trkpt lat="38.630561653428565" lon="16.065249867029866"><ele>458.6666666666667</ele><time>2026-04-12T16:06:37Z</time></trkpt><trkpt lat="38.6306461425779" lon="16.065249007075206"><ele>460.83333333333337</ele><time>2026-04-12T16:06:38Z</time></trkpt><trkpt lat="38.63072052247332" lon="16.065248976060783"><ele>463.0</ele><time>2026-04-12T16:06:39Z</time></trkpt><trkpt lat="38.630790250408204" lon="16.065242970680938"><ele>463.0</ele><time>2026-04-12T16:06:40Z</time></trkpt><trkpt lat="38.630865342687486" lon="16.065235503791218"><ele>462.99999999999994</ele><time>2026-04-12T16:06:41Z</time></trkpt><trkpt lat="38.63094886839497" lon="16.06522951553105"><ele>462.99999999999994</ele><time>2026-04-12T16:06:42Z</time></trkpt><trkpt lat="38.631041684735955" lon="16.065221433559753"><ele>463.0</ele><time>2026-04-12T16:06:43Z</time></trkpt><trkpt lat="38.63113843002349" lon="16.065209991039886"><ele>463.0</ele><time>2026-04-12T16:06:44Z</time></trkpt><trkpt lat="38.63124237328216" lon="16.06519539040583"><ele>464.25</ele><time>2026-04-12T16:06:45Z</time></trkpt><trkpt lat="38.63135796926614" lon="16.065174415532145"><ele>465.5</ele><time>2026-04-12T16:06:46Z</time></trkpt><trkpt lat="38.631486155614134" lon="16.06514288611159"><ele>466.75</ele><time>2026-04-12T16:06:47Z</time></trkpt><trkpt lat="38.6316186439719" lon="16.065099765475235"><ele>468.0</ele><time>2026-04-12T16:06:48Z</time></trkpt><trkpt lat="38.63175512192082" lon="16.0650382191862"><ele>468.0</ele><time>2026-04-12T16:06:49Z</time></trkpt><trkpt lat="38.631892872280304" lon="16.064964812316873"><ele>468.0</ele><time>2026-04-12T16:06:50Z</time></trkpt><trkpt lat="38.632023232136824" lon="16.06489357507098"><ele>468.0</ele><time>2026-04-12T16:06:51Z</time></trkpt><trkpt lat="38.632160850329676" lon="16.064817261868466"><ele>468.0</ele><time>2026-04-12T16:06:52Z</time></trkpt><trkpt lat="38.632295110722296" lon="16.064740424869886"><ele>469.75</ele><time>2026-04-12T16:06:53Z</time></trkpt><trkpt lat="38.632427238636076" lon="16.0646606245053"><ele>471.5</ele><time>2026-04-12T16:06:54Z</time></trkpt><trkpt lat="38.63256173532767" lon="16.064577932718997"><ele>473.25</ele><time>2026-04-12T16:06:55Z</time></trkpt><trkpt lat="38.63269660235726" lon="16.06449710197313"><ele>475.0</ele><time>2026-04-12T16:06:56Z</time></trkpt><trkpt lat="38.632838441143534" lon="16.064418541083718"><ele>476.6666666666667</ele><time>2026-04-12T16:06:57Z</time></trkpt><trkpt lat="38.63299020366653" lon="16.06433470545693"><ele>478.33333333333337</ele><time>2026-04-12T16:06:58Z</time></trkpt><trkpt lat="38.63314931447109" lon="16.064239317907205"><ele>480.0</ele><time>2026-04-12T16:06:59Z</time></trkpt><trkpt lat="38.63330238506341" lon="16.064141843751656"><ele>481.0</ele><time>2026-04-12T16:07:00Z</time></trkpt><trkpt lat="38.63345597732256" lon="16.064039271792428"><ele>482.0</ele><time>2026-04-12T16:07:01Z</time></trkpt><trkpt lat="38.633609364144036" lon="16.063929476340334"><ele>483.0</ele><time>2026-04-12T16:07:02Z</time></trkpt><trkpt lat="38.63376527455434" lon="16.063820854612022"><ele>483.0</ele><time>2026-04-12T16:07:03.001Z</time></trkpt><trkpt lat="38.63393155495166" lon="16.063716970611605"><ele>483.0</ele><time>2026-04-12T16:07:04.001Z</time></trkpt><trkpt lat="38.6341014123679" lon="16.063617574813623"><ele>483.0</ele><time>2026-04-12T16:07:05.001Z</time></trkpt><trkpt lat="38.63427332215289" lon="16.063517281509775"><ele>483.0</ele><time>2026-04-12T16:07:06.001Z</time></trkpt><trkpt lat="38.63444913519157" lon="16.063416503912897"><ele>483.0</ele><time>2026-04-12T16:07:07.001Z</time></trkpt><trkpt lat="38.634615100789475" lon="16.063299702659933"><ele>483.0</ele><time>2026-04-12T16:07:08.001Z</time></trkpt><trkpt lat="38.63476224582281" lon="16.063168558890492"><ele>485.66666666666663</ele><time>2026-04-12T16:07:09.001Z</time></trkpt><trkpt lat="38.63488979269832" lon="16.06300346433397"><ele>488.3333333333333</ele><time>2026-04-12T16:07:10.001Z</time></trkpt><trkpt lat="38.63499978669237" lon="16.062805634242665"><ele>491.0</ele><time>2026-04-12T16:07:11.001Z</time></trkpt><trkpt lat="38.63510724795849" lon="16.062587534625283"><ele>492.66666666666663</ele><time>2026-04-12T16:07:12.001Z</time></trkpt><trkpt lat="38.63521251059722" lon="16.062376654844318"><ele>494.33333333333337</ele><time>2026-04-12T16:07:13.001Z</time></trkpt><trkpt lat="38.63532413645868" lon="16.062204440934867"><ele>496.0</ele><time>2026-04-12T16:07:14.001Z</time></trkpt><trkpt lat="38.63545449048795" lon="16.062040388073047"><ele>496.0</ele><time>2026-04-12T16:07:15.001Z</time></trkpt><trkpt lat="38.63558563390418" lon="16.061883445659976"><ele>496.0</ele><time>2026-04-12T16:07:16.001Z</time></trkpt><trkpt lat="38.63570152689949" lon="16.06172256406921"><ele>496.0</ele><time>2026-04-12T16:07:17.001Z</time></trkpt><trkpt lat="38.63581334759871" lon="16.061550545389153"><ele>496.6666666666667</ele><time>2026-04-12T16:07:18.001Z</time></trkpt><trkpt lat="38.63591017985478" lon="16.061368860365288"><ele>497.33333333333337</ele><time>2026-04-12T16:07:19.001Z</time></trkpt><trkpt lat="38.63600194422549" lon="16.06119029969721"><ele>498.0</ele><time>2026-04-12T16:07:20.001Z</time></trkpt><trkpt lat="38.63607842992915" lon="16.061022739750506"><ele>499.66666666666663</ele><time>2026-04-12T16:07:21.001Z</time></trkpt><trkpt lat="38.636174604576134" lon="16.06085149517332"><ele>501.3333333333333</ele><time>2026-04-12T16:07:22.001Z</time></trkpt><trkpt lat="38.636264164976936" lon="16.060682221319656"><ele>503.0</ele><time>2026-04-12T16:07:23.001Z</time></trkpt><trkpt lat="38.636350874796236" lon="16.060511044839554"><ele>503.0</ele><time>2026-04-12T16:07:24.001Z</time></trkpt><trkpt lat="38.63643668690949" lon="16.060345400402273"><ele>503.0</ele><time>2026-04-12T16:07:25.001Z</time></trkpt><trkpt lat="38.63651722442642" lon="16.060187617222855"><ele>503.0</ele><time>2026-04-12T16:07:26.001Z</time></trkpt><trkpt lat="38.636594581120285" lon="16.060038764017857"><ele>503.0</ele><time>2026-04-12T16:07:27.001Z</time></trkpt><trkpt lat="38.63666846244776" lon="16.059895394930813"><ele>503.25</ele><time>2026-04-12T16:07:28.001Z</time></trkpt><trkpt lat="38.63673591694667" lon="16.05975072333215"><ele>503.5</ele><time>2026-04-12T16:07:29.001Z</time></trkpt><trkpt lat="38.63680070614307" lon="16.059606518880887"><ele>503.75</ele><time>2026-04-12T16:07:30.001Z</time></trkpt><trkpt lat="38.63686073554078" lon="16.0594524049098"><ele>504.0</ele><time>2026-04-12T16:07:31.001Z</time></trkpt><trkpt lat="38.63690568456924" lon="16.059273099007005"><ele>504.75</ele><time>2026-04-12T16:07:32.001Z</time></trkpt><trkpt lat="38.63693252922337" lon="16.05908942049619"><ele>505.5</ele><time>2026-04-12T16:07:33.001Z</time></trkpt><trkpt lat="38.636947626433155" lon="16.058902470168334"><ele>506.25</ele><time>2026-04-12T16:07:34.001Z</time></trkpt><trkpt lat="38.63696233879601" lon="16.05871653375121"><ele>507.0</ele><time>2026-04-12T16:07:35.001Z</time></trkpt><trkpt lat="38.63697978971243" lon="16.058537844122426"><ele>507.20000000000005</ele><time>2026-04-12T16:07:36.001Z</time></trkpt><trkpt lat="38.63700035928779" lon="16.05836735094888"><ele>507.40000000000003</ele><time>2026-04-12T16:07:37.001Z</time></trkpt><trkpt lat="38.637011516328656" lon="16.058231688126863"><ele>507.59999999999997</ele><time>2026-04-12T16:07:38.001Z</time></trkpt><trkpt lat="38.63702425750274" lon="16.058123366930495"><ele>507.79999999999995</ele><time>2026-04-12T16:07:39.001Z</time></trkpt><trkpt lat="38.63703448310987" lon="16.058020975389066"><ele>508.0</ele><time>2026-04-12T16:07:40.001Z</time></trkpt><trkpt lat="38.63704724430637" lon="16.05791487796483"><ele>508.00000000000006</ele><time>2026-04-12T16:07:41.001Z</time></trkpt><trkpt lat="38.6370587429652" lon="16.05782090533218"><ele>508.0</ele><time>2026-04-12T16:07:42.001Z</time></trkpt><trkpt lat="38.637067554621915" lon="16.057739511078132"><ele>508.0</ele><time>2026-04-12T16:07:43.001Z</time></trkpt><trkpt lat="38.63708010061572" lon="16.05764458469805"><ele>508.0</ele><time>2026-04-12T16:07:44.001Z</time></trkpt><trkpt lat="38.637092275152895" lon="16.057550238450872"><ele>508.00000000000006</ele><time>2026-04-12T16:07:45.001Z</time></trkpt><trkpt lat="38.63710821270957" lon="16.057448103796133"><ele>508.0</ele><time>2026-04-12T16:07:46.001Z</time></trkpt><trkpt lat="38.63712469420081" lon="16.05733154803131"><ele>507.5</ele><time>2026-04-12T16:07:47.001Z</time></trkpt><trkpt lat="38.6371421530557" lon="16.057202137744138"><ele>507.0</ele><time>2026-04-12T16:07:48.001Z</time></trkpt><trkpt lat="38.637164030477216" lon="16.057064285462033"><ele>506.5</ele><time>2026-04-12T16:07:49.001Z</time></trkpt><trkpt lat="38.63719257757244" lon="16.05691353475297"><ele>506.0</ele><time>2026-04-12T16:07:50.001Z</time></trkpt><trkpt lat="38.63723025665744" lon="16.05675294318194"><ele>507.5</ele><time>2026-04-12T16:07:51.001Z</time></trkpt><trkpt lat="38.637280908755095" lon="16.056598665365325"><ele>509.0</ele><time>2026-04-12T16:07:52.001Z</time></trkpt><trkpt lat="38.63734598753747" lon="16.05644111669854"><ele>510.5</ele><time>2026-04-12T16:07:53.001Z</time></trkpt><trkpt lat="38.63742611858248" lon="16.05628869425831"><ele>512.0</ele><time>2026-04-12T16:07:54.001Z</time></trkpt><trkpt lat="38.63751151534404" lon="16.05613740919036"><ele>512.0</ele><time>2026-04-12T16:07:55.001Z</time></trkpt><trkpt lat="38.6375941914902" lon="16.055992502159324"><ele>512.0</ele><time>2026-04-12T16:07:56.001Z</time></trkpt><trkpt lat="38.63767210557026" lon="16.055856005124564"><ele>512.0</ele><time>2026-04-12T16:07:57.001Z</time></trkpt><trkpt lat="38.63775688799849" lon="16.05573060600957"><ele>512.0</ele><time>2026-04-12T16:07:58.001Z</time></trkpt><trkpt lat="38.63786231631635" lon="16.055626180167586"><ele>511.25</ele><time>2026-04-12T16:07:59.001Z</time></trkpt><trkpt lat="38.63797492123323" lon="16.05553052850868"><ele>510.5</ele><time>2026-04-12T16:08:00.001Z</time></trkpt><trkpt lat="38.63808702519614" lon="16.055437292362488"><ele>509.75</ele><time>2026-04-12T16:08:01.001Z</time></trkpt><trkpt lat="38.63819651312799" lon="16.055339268999987"><ele>509.0</ele><time>2026-04-12T16:08:02.001Z</time></trkpt><trkpt lat="38.63829229360328" lon="16.055217950074262"><ele>509.0</ele><time>2026-04-12T16:08:03.001Z</time></trkpt><trkpt lat="38.63835366670087" lon="16.0550664294818"><ele>509.0</ele><time>2026-04-12T16:08:04.001Z</time></trkpt><trkpt lat="38.638390825994584" lon="16.05490173535422"><ele>509.0</ele><time>2026-04-12T16:08:05.001Z</time></trkpt><trkpt lat="38.638426733184424" lon="16.05474646789098"><ele>509.0</ele><time>2026-04-12T16:08:06.001Z</time></trkpt><trkpt lat="38.63850369673026" lon="16.054620526111947"><ele>510.0</ele><time>2026-04-12T16:08:07.001Z</time></trkpt><trkpt lat="38.638613023899275" lon="16.054531979942663"><ele>511.0</ele><time>2026-04-12T16:08:08.001Z</time></trkpt><trkpt lat="38.63873190634193" lon="16.054456290118836"><ele>512.0</ele><time>2026-04-12T16:08:09.001Z</time></trkpt><trkpt lat="38.63883529991988" lon="16.054367411128656"><ele>513.0</ele><time>2026-04-12T16:08:10.001Z</time></trkpt><trkpt lat="38.638918858161176" lon="16.054269751151697"><ele>511.4</ele><time>2026-04-12T16:08:11.001Z</time></trkpt><trkpt lat="38.638984995830874" lon="16.054173535038927"><ele>509.79999999999995</ele><time>2026-04-12T16:08:12Z</time></trkpt><trkpt lat="38.63904449024264" lon="16.054080546073532"><ele>508.2</ele><time>2026-04-12T16:08:13Z</time></trkpt><trkpt lat="38.6391041743084" lon="16.053988093133235"><ele>506.6</ele><time>2026-04-12T16:08:14Z</time></trkpt><trkpt lat="38.63916383778378" lon="16.053886168649253"><ele>505.0</ele><time>2026-04-12T16:08:15Z</time></trkpt><trkpt lat="38.63921157814343" lon="16.05377727581831"><ele>505.0</ele><time>2026-04-12T16:08:16Z</time></trkpt><trkpt lat="38.63923542249981" lon="16.053671122007497"><ele>505.0</ele><time>2026-04-12T16:08:17Z</time></trkpt><trkpt lat="38.63923694165569" lon="16.053561201520537"><ele>505.0</ele><time>2026-04-12T16:08:18Z</time></trkpt><trkpt lat="38.63921528337971" lon="16.053445317298056"><ele>505.0</ele><time>2026-04-12T16:08:19Z</time></trkpt><trkpt lat="38.639174496365946" lon="16.053323144449738"><ele>505.0</ele><time>2026-04-12T16:08:20Z</time></trkpt><trkpt lat="38.63912362161803" lon="16.05321148696623"><ele>503.4</ele><time>2026-04-12T16:08:21Z</time></trkpt><trkpt lat="38.63904798985701" lon="16.053108279177202"><ele>501.8</ele><time>2026-04-12T16:08:22Z</time></trkpt><trkpt lat="38.638981084801" lon="16.052998420512704"><ele>500.20000000000005</ele><time>2026-04-12T16:08:23Z</time></trkpt><trkpt lat="38.63891929015826" lon="16.05289646980693"><ele>498.6</ele><time>2026-04-12T16:08:24Z</time></trkpt><trkpt lat="38.638855746906444" lon="16.052809120800056"><ele>497.0</ele><time>2026-04-12T16:08:25Z</time></trkpt><trkpt lat="38.63878888046987" lon="16.052738636327707"><ele>496.99999999999994</ele><time>2026-04-12T16:08:26Z</time></trkpt><trkpt lat="38.63872303611334" lon="16.052673394049204"><ele>497.0</ele><time>2026-04-12T16:08:27Z</time></trkpt><trkpt lat="38.63865885516722" lon="16.052611656007855"><ele>497.0</ele><time>2026-04-12T16:08:28Z</time></trkpt><trkpt lat="38.63859163441957" lon="16.052551829345866"><ele>497.0</ele><time>2026-04-12T16:08:29Z</time></trkpt><trkpt lat="38.638532002081504" lon="16.052471458833388"><ele>496.99999999999994</ele><time>2026-04-12T16:08:30Z</time></trkpt><trkpt lat="38.63847817921922" lon="16.052416526768518"><ele>497.0</ele><time>2026-04-12T16:08:31Z</time></trkpt><trkpt lat="38.63842672270363" lon="16.052359037069095"><ele>497.6</ele><time>2026-04-12T16:08:32Z</time></trkpt><trkpt lat="38.638350861113324" lon="16.05225295263253"><ele>498.20000000000005</ele><time>2026-04-12T16:08:34Z</time></trkpt><trkpt lat="38.638318059468226" lon="16.05212250649544"><ele>498.8</ele><time>2026-04-12T16:08:36Z</time></trkpt><trkpt lat="38.638360929185595" lon="16.05203965861655"><ele>499.4</ele><time>2026-04-12T16:08:37Z</time></trkpt><trkpt lat="38.63837865329875" lon="16.0519429190796"><ele>500.0</ele><time>2026-04-12T16:08:38Z</time></trkpt><trkpt lat="38.638418381828764" lon="16.05185479515796"><ele>500.0</ele><time>2026-04-12T16:08:39Z</time></trkpt><trkpt lat="38.63848424353202" lon="16.05178841028837"><ele>500.0</ele><time>2026-04-12T16:08:40Z</time></trkpt><trkpt lat="38.63856830094391" lon="16.051769304079905"><ele>500.0</ele><time>2026-04-12T16:08:41Z</time></trkpt><trkpt lat="38.63865774957006" lon="16.051776487458923"><ele>500.0</ele><time>2026-04-12T16:08:42Z</time></trkpt><trkpt lat="38.638758380188136" lon="16.05178671950755"><ele>500.0</ele><time>2026-04-12T16:08:43Z</time></trkpt><trkpt lat="38.63886920711606" lon="16.05179158107906"><ele>500.75</ele><time>2026-04-12T16:08:44Z</time></trkpt><trkpt lat="38.63899837055634" lon="16.051793518610488"><ele>501.5</ele><time>2026-04-12T16:08:45Z</time></trkpt><trkpt lat="38.639124028006" lon="16.05179151926868"><ele>502.25</ele><time>2026-04-12T16:08:46Z</time></trkpt><trkpt lat="38.639244685306444" lon="16.051786875065517"><ele>503.0</ele><time>2026-04-12T16:08:47Z</time></trkpt><trkpt lat="38.6393565966" lon="16.05177948802162"><ele>502.5</ele><time>2026-04-12T16:08:48Z</time></trkpt><trkpt lat="38.63946820664242" lon="16.051765645152088"><ele>502.0</ele><time>2026-04-12T16:08:49Z</time></trkpt><trkpt lat="38.63957927969183" lon="16.0517201338771"><ele>501.5</ele><time>2026-04-12T16:08:50Z</time></trkpt><trkpt lat="38.639677841838854" lon="16.05163233940535"><ele>501.0</ele><time>2026-04-12T16:08:51Z</time></trkpt><trkpt lat="38.639759007292035" lon="16.051512770679523"><ele>503.0</ele><time>2026-04-12T16:08:52Z</time></trkpt><trkpt lat="38.639818350848955" lon="16.05137988597115"><ele>505.0</ele><time>2026-04-12T16:08:53Z</time></trkpt><trkpt lat="38.63986852945447" lon="16.051244382052346"><ele>507.0</ele><time>2026-04-12T16:08:54Z</time></trkpt><trkpt lat="38.63991782527368" lon="16.0511105516424"><ele>509.0</ele><time>2026-04-12T16:08:55Z</time></trkpt><trkpt lat="38.63997584811137" lon="16.05099113268798"><ele>509.0</ele><time>2026-04-12T16:08:56Z</time></trkpt><trkpt lat="38.64005778906389" lon="16.05089681666641"><ele>509.0</ele><time>2026-04-12T16:08:57Z</time></trkpt><trkpt lat="38.64016068079737" lon="16.050855852523785"><ele>509.0</ele><time>2026-04-12T16:08:58Z</time></trkpt><trkpt lat="38.64026948398086" lon="16.05086238049917"><ele>509.0</ele><time>2026-04-12T16:08:59Z</time></trkpt><trkpt lat="38.640383866774144" lon="16.050899216749844"><ele>509.0</ele><time>2026-04-12T16:09:00Z</time></trkpt><trkpt lat="38.640505913659595" lon="16.050956004772043"><ele>510.0</ele><time>2026-04-12T16:09:01Z</time></trkpt><trkpt lat="38.64063158688756" lon="16.051026644440604"><ele>511.0</ele><time>2026-04-12T16:09:02Z</time></trkpt><trkpt lat="38.64074873280493" lon="16.051119890141166"><ele>512.0</ele><time>2026-04-12T16:09:03Z</time></trkpt><trkpt lat="38.64084897181745" lon="16.05123782452644"><ele>513.0</ele><time>2026-04-12T16:09:04.001Z</time></trkpt><trkpt lat="38.64094554300297" lon="16.05136585232019"><ele>513.0</ele><time>2026-04-12T16:09:05.001Z</time></trkpt><trkpt lat="38.641045297233624" lon="16.051480372522892"><ele>513.0</ele><time>2026-04-12T16:09:06.001Z</time></trkpt><trkpt lat="38.64115859414119" lon="16.05156663448031"><ele>513.0</ele><time>2026-04-12T16:09:07.001Z</time></trkpt><trkpt lat="38.64128776356224" lon="16.05161964887803"><ele>513.0</ele><time>2026-04-12T16:09:08.001Z</time></trkpt><trkpt lat="38.641424554129664" lon="16.0516500525824"><ele>512.5</ele><time>2026-04-12T16:09:09.001Z</time></trkpt><trkpt lat="38.64156190660635" lon="16.051673311674257"><ele>512.0</ele><time>2026-04-12T16:09:10.001Z</time></trkpt><trkpt lat="38.64169343461187" lon="16.051709717209185"><ele>511.5</ele><time>2026-04-12T16:09:11.001Z</time></trkpt><trkpt lat="38.64180564073341" lon="16.051764930236736"><ele>511.0</ele><time>2026-04-12T16:09:12.001Z</time></trkpt><trkpt lat="38.641901161976676" lon="16.05183169612272"><ele>512.5</ele><time>2026-04-12T16:09:13.001Z</time></trkpt><trkpt lat="38.64199102114089" lon="16.051919672222713"><ele>514.0</ele><time>2026-04-12T16:09:14.001Z</time></trkpt><trkpt lat="38.642072249876435" lon="16.052033218404702"><ele>515.5</ele><time>2026-04-12T16:09:15.001Z</time></trkpt><trkpt lat="38.64215196940394" lon="16.052157670865643"><ele>517.0</ele><time>2026-04-12T16:09:16.001Z</time></trkpt><trkpt lat="38.64222231651427" lon="16.052273354171504"><ele>517.0</ele><time>2026-04-12T16:09:17.001Z</time></trkpt><trkpt lat="38.64228546129128" lon="16.052369524927453"><ele>517.0</ele><time>2026-04-12T16:09:18.001Z</time></trkpt><trkpt lat="38.642344765232934" lon="16.05246030564195"><ele>517.0</ele><time>2026-04-12T16:09:19.001Z</time></trkpt><trkpt lat="38.64240399789889" lon="16.0525405317268"><ele>517.0</ele><time>2026-04-12T16:09:20.001Z</time></trkpt><trkpt lat="38.6424577112952" lon="16.05261980357962"><ele>517.0</ele><time>2026-04-12T16:09:21.001Z</time></trkpt><trkpt lat="38.642518123631966" lon="16.052683888637763"><ele>517.0</ele><time>2026-04-12T16:09:22.001Z</time></trkpt><trkpt lat="38.64257262248861" lon="16.052740059842563"><ele>517.0</ele><time>2026-04-12T16:09:23.001Z</time></trkpt><trkpt lat="38.642620368043914" lon="16.0527948132342"><ele>517.0</ele><time>2026-04-12T16:09:24.001Z</time></trkpt><trkpt lat="38.64271982470433" lon="16.052886696530916"><ele>517.0</ele><time>2026-04-12T16:09:26.001Z</time></trkpt><trkpt lat="38.64278289567275" lon="16.0529251522919"><ele>517.0</ele><time>2026-04-12T16:09:27.001Z</time></trkpt><trkpt lat="38.64285696031251" lon="16.05296653035188"><ele>517.0</ele><time>2026-04-12T16:09:28.001Z</time></trkpt><trkpt lat="38.64291732443348" lon="16.05300515097418"><ele>517.0</ele><time>2026-04-12T16:09:29.001Z</time></trkpt><trkpt lat="38.6430198980976" lon="16.05305617637327"><ele>517.0</ele><time>2026-04-12T16:09:31.001Z</time></trkpt><trkpt lat="38.64311765204671" lon="16.053103960390125"><ele>517.0</ele><time>2026-04-12T16:09:33.001Z</time></trkpt><trkpt lat="38.64323608157565" lon="16.053160947469234"><ele>517.0</ele><time>2026-04-12T16:09:35.001Z</time></trkpt><trkpt lat="38.64331525580072" lon="16.05319365337451"><ele>517.0</ele><time>2026-04-12T16:09:36.001Z</time></trkpt><trkpt lat="38.64339804042576" lon="16.05322860967747"><ele>517.0</ele><time>2026-04-12T16:09:37.001Z</time></trkpt><trkpt lat="38.64347903729542" lon="16.053266923818974"><ele>517.0</ele><time>2026-04-12T16:09:38.001Z</time></trkpt><trkpt lat="38.64355534446357" lon="16.0533040981838"><ele>517.0</ele><time>2026-04-12T16:09:39.001Z</time></trkpt><trkpt lat="38.64362979868127" lon="16.05334013985029"><ele>517.0</ele><time>2026-04-12T16:09:40.001Z</time></trkpt><trkpt lat="38.64370138415155" lon="16.053371142092214"><ele>517.0</ele><time>2026-04-12T16:09:41.001Z</time></trkpt><trkpt lat="38.643783028710956" lon="16.053408941526737"><ele>517.0</ele><time>2026-04-12T16:09:42.001Z</time></trkpt><trkpt lat="38.643869466152545" lon="16.05344114608179"><ele>517.0</ele><time>2026-04-12T16:09:43.001Z</time></trkpt><trkpt lat="38.643974769550184" lon="16.0534856932555"><ele>516.75</ele><time>2026-04-12T16:09:44.001Z</time></trkpt><trkpt lat="38.644078165339174" lon="16.053534493959635"><ele>516.5</ele><time>2026-04-12T16:09:45.001Z</time></trkpt><trkpt lat="38.644191115897335" lon="16.053594551584453"><ele>516.25</ele><time>2026-04-12T16:09:46.001Z</time></trkpt><trkpt lat="38.64430593041748" lon="16.053662765703038"><ele>516.0</ele><time>2026-04-12T16:09:47.001Z</time></trkpt><trkpt lat="38.64441939522231" lon="16.053705350594914"><ele>516.5</ele><time>2026-04-12T16:09:48.001Z</time></trkpt><trkpt lat="38.644534266541534" lon="16.05374548185633"><ele>517.0</ele><time>2026-04-12T16:09:49.001Z</time></trkpt><trkpt lat="38.64464707490977" lon="16.053795494069426"><ele>517.5</ele><time>2026-04-12T16:09:50.001Z</time></trkpt><trkpt lat="38.64476024911017" lon="16.053845790860734"><ele>518.0</ele><time>2026-04-12T16:09:51.001Z</time></trkpt><trkpt lat="38.64487239405641" lon="16.053896114425424"><ele>518.0</ele><time>2026-04-12T16:09:52.001Z</time></trkpt><trkpt lat="38.644984688262646" lon="16.05395056552232"><ele>518.0</ele><time>2026-04-12T16:09:53.001Z</time></trkpt><trkpt lat="38.64509472395549" lon="16.05399548510874"><ele>518.0</ele><time>2026-04-12T16:09:54.001Z</time></trkpt><trkpt lat="38.64520035908557" lon="16.054039388232198"><ele>518.0</ele><time>2026-04-12T16:09:55.001Z</time></trkpt><trkpt lat="38.64529972334729" lon="16.05408367698784"><ele>517.8</ele><time>2026-04-12T16:09:56.001Z</time></trkpt><trkpt lat="38.64540030603975" lon="16.054119432877908"><ele>517.5999999999999</ele><time>2026-04-12T16:09:57.001Z</time></trkpt><trkpt lat="38.64550120177202" lon="16.054156824200856"><ele>517.4000000000001</ele><time>2026-04-12T16:09:58.001Z</time></trkpt><trkpt lat="38.645598822096304" lon="16.05419004534736"><ele>517.2</ele><time>2026-04-12T16:09:59.001Z</time></trkpt><trkpt lat="38.645692957373136" lon="16.054232248316918"><ele>517.0</ele><time>2026-04-12T16:10:00.001Z</time></trkpt><trkpt lat="38.64579061333614" lon="16.054273281049987"><ele>517.0</ele><time>2026-04-12T16:10:01.001Z</time></trkpt><trkpt lat="38.64588859250778" lon="16.054314695454345"><ele>517.0</ele><time>2026-04-12T16:10:02.001Z</time></trkpt><trkpt lat="38.645986941839354" lon="16.054359485200127"><ele>517.0</ele><time>2026-04-12T16:10:03.001Z</time></trkpt><trkpt lat="38.646086739312466" lon="16.054400156982684"><ele>517.0</ele><time>2026-04-12T16:10:04.001Z</time></trkpt><trkpt lat="38.64618668180216" lon="16.054442158439752"><ele>517.0</ele><time>2026-04-12T16:10:05.001Z</time></trkpt><trkpt lat="38.646283525384945" lon="16.054484667314107"><ele>516.6</ele><time>2026-04-12T16:10:06.001Z</time></trkpt><trkpt lat="38.64637527602002" lon="16.05452464259413"><ele>516.2</ele><time>2026-04-12T16:10:07.001Z</time></trkpt><trkpt lat="38.64646857592473" lon="16.05456512409378"><ele>515.8</ele><time>2026-04-12T16:10:08.001Z</time></trkpt><trkpt lat="38.64655625953085" lon="16.054608665497284"><ele>515.4</ele><time>2026-04-12T16:10:09.001Z</time></trkpt><trkpt lat="38.646644173507504" lon="16.054649111472447"><ele>515.0</ele><time>2026-04-12T16:10:10.001Z</time></trkpt><trkpt lat="38.64673435394604" lon="16.05469170954815"><ele>515.0</ele><time>2026-04-12T16:10:11.001Z</time></trkpt><trkpt lat="38.64683008960808" lon="16.05473417084254"><ele>515.0</ele><time>2026-04-12T16:10:12.001Z</time></trkpt><trkpt lat="38.6469319032694" lon="16.054777734650322"><ele>515.0</ele><time>2026-04-12T16:10:13.001Z</time></trkpt><trkpt lat="38.647036122369215" lon="16.05482369878519"><ele>515.0</ele><time>2026-04-12T16:10:14.001Z</time></trkpt><trkpt lat="38.64714329317075" lon="16.054872102558637"><ele>515.0</ele><time>2026-04-12T16:10:15.002Z</time></trkpt><trkpt lat="38.64725316452793" lon="16.05491652858151"><ele>514.75</ele><time>2026-04-12T16:10:16.002Z</time></trkpt><trkpt lat="38.6473641253462" lon="16.054961567472827"><ele>514.5</ele><time>2026-04-12T16:10:17.002Z</time></trkpt><trkpt lat="38.64748047053812" lon="16.05501086649885"><ele>514.25</ele><time>2026-04-12T16:10:18Z</time></trkpt><trkpt lat="38.64761156264571" lon="16.055068545737154"><ele>514.0</ele><time>2026-04-12T16:10:19Z</time></trkpt><trkpt lat="38.647758115881025" lon="16.05512838620365"><ele>514.3333333333334</ele><time>2026-04-12T16:10:20Z</time></trkpt><trkpt lat="38.647904212437254" lon="16.0551857640352"><ele>514.6666666666666</ele><time>2026-04-12T16:10:21Z</time></trkpt><trkpt lat="38.64805189179777" lon="16.055243336165038"><ele>515.0</ele><time>2026-04-12T16:10:22Z</time></trkpt><trkpt lat="38.64819574729448" lon="16.05530860636769"><ele>515.0</ele><time>2026-04-12T16:10:23Z</time></trkpt><trkpt lat="38.648335799872655" lon="16.055364362455897"><ele>515.0</ele><time>2026-04-12T16:10:24Z</time></trkpt><trkpt lat="38.64847305472515" lon="16.05542360026816"><ele>515.0</ele><time>2026-04-12T16:10:25Z</time></trkpt><trkpt lat="38.64861153086208" lon="16.055480161798823"><ele>515.0</ele><time>2026-04-12T16:10:26Z</time></trkpt><trkpt lat="38.64875599408503" lon="16.05552255690036"><ele>514.5</ele><time>2026-04-12T16:10:27Z</time></trkpt><trkpt lat="38.648903546878756" lon="16.05555140814804"><ele>514.0</ele><time>2026-04-12T16:10:28Z</time></trkpt><trkpt lat="38.649040506896846" lon="16.055553507803154"><ele>513.5</ele><time>2026-04-12T16:10:29Z</time></trkpt><trkpt lat="38.649173814801486" lon="16.05556082317091"><ele>513.0</ele><time>2026-04-12T16:10:30Z</time></trkpt><trkpt lat="38.649315028651465" lon="16.055562508681216"><ele>513.0</ele><time>2026-04-12T16:10:31Z</time></trkpt><trkpt lat="38.649450742764245" lon="16.05556122214509"><ele>513.0</ele><time>2026-04-12T16:10:32Z</time></trkpt><trkpt lat="38.64957928635816" lon="16.055561906332894"><ele>513.0</ele><time>2026-04-12T16:10:33Z</time></trkpt><trkpt lat="38.649699946500554" lon="16.055555397741735"><ele>513.0</ele><time>2026-04-12T16:10:34Z</time></trkpt><trkpt lat="38.649810619852595" lon="16.055546120313362"><ele>513.0</ele><time>2026-04-12T16:10:35Z</time></trkpt><trkpt lat="38.64992381712401" lon="16.055531529571816"><ele>513.0</ele><time>2026-04-12T16:10:36Z</time></trkpt><trkpt lat="38.6500362093373" lon="16.05552882990383"><ele>513.0</ele><time>2026-04-12T16:10:37Z</time></trkpt><trkpt lat="38.65015717386181" lon="16.055526071122483"><ele>513.0</ele><time>2026-04-12T16:10:38Z</time></trkpt><trkpt lat="38.65027478841707" lon="16.055523268638105"><ele>512.6</ele><time>2026-04-12T16:10:39Z</time></trkpt><trkpt lat="38.650393865285636" lon="16.055515001547477"><ele>512.1999999999999</ele><time>2026-04-12T16:10:40Z</time></trkpt><trkpt lat="38.65050838640765" lon="16.05550306365666"><ele>511.8</ele><time>2026-04-12T16:10:41Z</time></trkpt><trkpt lat="38.65060509756363" lon="16.055502926578377"><ele>511.4</ele><time>2026-04-12T16:10:42Z</time></trkpt><trkpt lat="38.65070239565342" lon="16.05549219935269"><ele>511.0</ele><time>2026-04-12T16:10:43Z</time></trkpt><trkpt lat="38.65079281772324" lon="16.055486057047133"><ele>511.0</ele><time>2026-04-12T16:10:44Z</time></trkpt><trkpt lat="38.65088710621561" lon="16.055484193592132"><ele>511.0</ele><time>2026-04-12T16:10:45Z</time></trkpt><trkpt lat="38.650985014363194" lon="16.05548218403866"><ele>511.0</ele><time>2026-04-12T16:10:46Z</time></trkpt><trkpt lat="38.65108077791145" lon="16.055477080448362"><ele>511.0</ele><time>2026-04-12T16:10:47Z</time></trkpt><trkpt lat="38.651180220817004" lon="16.055474399858458"><ele>511.0</ele><time>2026-04-12T16:10:48Z</time></trkpt><trkpt lat="38.65128336238808" lon="16.055482238860556"><ele>511.20000000000005</ele><time>2026-04-12T16:10:49Z</time></trkpt><trkpt lat="38.65138708413044" lon="16.055492114631356"><ele>511.40000000000003</ele><time>2026-04-12T16:10:50Z</time></trkpt><trkpt lat="38.65149139661786" lon="16.05550804796211"><ele>511.6</ele><time>2026-04-12T16:10:51Z</time></trkpt><trkpt lat="38.65159746392164" lon="16.055523398495982"><ele>511.8</ele><time>2026-04-12T16:10:52Z</time></trkpt><trkpt lat="38.65169865509704" lon="16.05554145704857"><ele>512.0</ele><time>2026-04-12T16:10:53Z</time></trkpt><trkpt lat="38.65179424281149" lon="16.05556927331687"><ele>512.0</ele><time>2026-04-12T16:10:54Z</time></trkpt><trkpt lat="38.65188314477946" lon="16.055611976584498"><ele>512.0</ele><time>2026-04-12T16:10:55Z</time></trkpt><trkpt lat="38.65197397758798" lon="16.055674279054447"><ele>512.0</ele><time>2026-04-12T16:10:56Z</time></trkpt><trkpt lat="38.652056749250825" lon="16.055748662446142"><ele>512.0</ele><time>2026-04-12T16:10:57Z</time></trkpt><trkpt lat="38.65213880989205" lon="16.055829289946963"><ele>512.0</ele><time>2026-04-12T16:10:58Z</time></trkpt><trkpt lat="38.65222833365358" lon="16.05591090165058"><ele>511.8</ele><time>2026-04-12T16:10:59Z</time></trkpt><trkpt lat="38.65232368168673" lon="16.055987029460116"><ele>511.6</ele><time>2026-04-12T16:11:00Z</time></trkpt><trkpt lat="38.65242277429533" lon="16.05605409514893"><ele>511.40000000000003</ele><time>2026-04-12T16:11:01Z</time></trkpt><trkpt lat="38.65251111247749" lon="16.05611401624866"><ele>511.20000000000005</ele><time>2026-04-12T16:11:02Z</time></trkpt><trkpt lat="38.652588605506395" lon="16.056171867064297"><ele>511.0</ele><time>2026-04-12T16:11:03Z</time></trkpt><trkpt lat="38.652668552387" lon="16.056210996525923"><ele>511.00000000000006</ele><time>2026-04-12T16:11:04Z</time></trkpt><trkpt lat="38.65274915373027" lon="16.056254225895376"><ele>511.0</ele><time>2026-04-12T16:11:05Z</time></trkpt><trkpt lat="38.65282552117073" lon="16.056334003341302"><ele>511.0</ele><time>2026-04-12T16:11:07Z</time></trkpt><trkpt lat="38.65288342387896" lon="16.05639251712689"><ele>511.0</ele><time>2026-04-12T16:11:09.001Z</time></trkpt><trkpt lat="38.6529556314114" lon="16.05646197802503"><ele>511.00000000000006</ele><time>2026-04-12T16:11:11.001Z</time></trkpt><trkpt lat="38.65300234473513" lon="16.056526148903878"><ele>511.0</ele><time>2026-04-12T16:11:12.001Z</time></trkpt><trkpt lat="38.65308360840659" lon="16.056580669728223"><ele>511.0</ele><time>2026-04-12T16:11:13.001Z</time></trkpt><trkpt lat="38.653170611124374" lon="16.056592512033145"><ele>511.0</ele><time>2026-04-12T16:11:14.001Z</time></trkpt><trkpt lat="38.653247750859876" lon="16.05669077444347"><ele>511.0</ele><time>2026-04-12T16:11:15.001Z</time></trkpt><trkpt lat="38.65334007913169" lon="16.05675486828749"><ele>511.0</ele><time>2026-04-12T16:11:16.001Z</time></trkpt><trkpt lat="38.653445697784406" lon="16.056829727271953"><ele>511.0</ele><time>2026-04-12T16:11:17.001Z</time></trkpt><trkpt lat="38.653559033300446" lon="16.056906194469054"><ele>512.0</ele><time>2026-04-12T16:11:18.001Z</time></trkpt><trkpt lat="38.6536846425124" lon="16.056995787149322"><ele>513.0</ele><time>2026-04-12T16:11:19.001Z</time></trkpt><trkpt lat="38.65382162702535" lon="16.05710422892029"><ele>514.0</ele><time>2026-04-12T16:11:20.001Z</time></trkpt><trkpt lat="38.65397307571464" lon="16.057226226210616"><ele>514.0</ele><time>2026-04-12T16:11:21.001Z</time></trkpt><trkpt lat="38.654132499911874" lon="16.057352984138962"><ele>514.0</ele><time>2026-04-12T16:11:22.001Z</time></trkpt><trkpt lat="38.654296080462466" lon="16.05748260843698"><ele>514.0</ele><time>2026-04-12T16:11:23.001Z</time></trkpt><trkpt lat="38.65446783328534" lon="16.057622534355396"><ele>514.6666666666667</ele><time>2026-04-12T16:11:24.001Z</time></trkpt><trkpt lat="38.65464897677244" lon="16.057778483095557"><ele>515.3333333333334</ele><time>2026-04-12T16:11:25.001Z</time></trkpt><trkpt lat="38.654831095389746" lon="16.057936005196723"><ele>516.0</ele><time>2026-04-12T16:11:26.001Z</time></trkpt><trkpt lat="38.655002014515674" lon="16.05809470682929"><ele>516.0</ele><time>2026-04-12T16:11:27.001Z</time></trkpt><trkpt lat="38.655168221538645" lon="16.058229640076565"><ele>516.0</ele><time>2026-04-12T16:11:28.001Z</time></trkpt><trkpt lat="38.65532177848617" lon="16.05835402911912"><ele>516.0</ele><time>2026-04-12T16:11:29.001Z</time></trkpt><trkpt lat="38.65546218143013" lon="16.058468710830024"><ele>516.75</ele><time>2026-04-12T16:11:30.001Z</time></trkpt><trkpt lat="38.65559058367552" lon="16.058574875585272"><ele>517.5</ele><time>2026-04-12T16:11:31.001Z</time></trkpt><trkpt lat="38.655707050492026" lon="16.05866455326625"><ele>518.25</ele><time>2026-04-12T16:11:32.001Z</time></trkpt><trkpt lat="38.65581965560422" lon="16.058733507655607"><ele>519.0</ele><time>2026-04-12T16:11:33.001Z</time></trkpt><trkpt lat="38.65593831854469" lon="16.05880158900825"><ele>519.0</ele><time>2026-04-12T16:11:34.001Z</time></trkpt><trkpt lat="38.656056396014485" lon="16.058867341440056"><ele>519.0</ele><time>2026-04-12T16:11:35.001Z</time></trkpt><trkpt lat="38.656176855553696" lon="16.05892476578229"><ele>519.0</ele><time>2026-04-12T16:11:36.001Z</time></trkpt><trkpt lat="38.656305668894284" lon="16.058978845395792"><ele>519.0</ele><time>2026-04-12T16:11:37.001Z</time></trkpt><trkpt lat="38.656431394488244" lon="16.05902980109582"><ele>518.25</ele><time>2026-04-12T16:11:38.001Z</time></trkpt><trkpt lat="38.65655520570385" lon="16.05908210261409"><ele>517.5</ele><time>2026-04-12T16:11:39.001Z</time></trkpt><trkpt lat="38.65667371896135" lon="16.059147382634055"><ele>516.75</ele><time>2026-04-12T16:11:40.001Z</time></trkpt><trkpt lat="38.656787121341885" lon="16.059214472841628"><ele>516.0</ele><time>2026-04-12T16:11:41.001Z</time></trkpt><trkpt lat="38.656896414215076" lon="16.059293656495583"><ele>514.75</ele><time>2026-04-12T16:11:42.001Z</time></trkpt><trkpt lat="38.65699953828907" lon="16.05938890042414"><ele>513.5</ele><time>2026-04-12T16:11:43.001Z</time></trkpt><trkpt lat="38.65709809938677" lon="16.05949541300947"><ele>512.25</ele><time>2026-04-12T16:11:44.001Z</time></trkpt><trkpt lat="38.65718929615518" lon="16.05961214427597"><ele>511.0</ele><time>2026-04-12T16:11:45.001Z</time></trkpt><trkpt lat="38.65727895032742" lon="16.05974049847648"><ele>511.0</ele><time>2026-04-12T16:11:46.001Z</time></trkpt><trkpt lat="38.65736764900466" lon="16.059874341401645"><ele>511.0</ele><time>2026-04-12T16:11:47.001Z</time></trkpt><trkpt lat="38.65745598056753" lon="16.060012861888925"><ele>511.0</ele><time>2026-04-12T16:11:48.001Z</time></trkpt><trkpt lat="38.65754859325572" lon="16.06015280998159"><ele>511.0</ele><time>2026-04-12T16:11:49.001Z</time></trkpt><trkpt lat="38.65764172333583" lon="16.06029619741754"><ele>510.0</ele><time>2026-04-12T16:11:50.001Z</time></trkpt><trkpt lat="38.65773837792464" lon="16.060438204863832"><ele>509.0</ele><time>2026-04-12T16:11:51.001Z</time></trkpt><trkpt lat="38.657833822240285" lon="16.060575432113904"><ele>508.0</ele><time>2026-04-12T16:11:52.001Z</time></trkpt><trkpt lat="38.657918856120524" lon="16.060708219180977"><ele>507.0</ele><time>2026-04-12T16:11:53.001Z</time></trkpt><trkpt lat="38.65800116353034" lon="16.060835351448702"><ele>507.0</ele><time>2026-04-12T16:11:54.001Z</time></trkpt><trkpt lat="38.658084909695084" lon="16.0609554221367"><ele>507.0</ele><time>2026-04-12T16:11:55.001Z</time></trkpt><trkpt lat="38.65816921528176" lon="16.06108121045176"><ele>507.0</ele><time>2026-04-12T16:11:56.001Z</time></trkpt><trkpt lat="38.658245042226554" lon="16.061199746059998"><ele>507.0</ele><time>2026-04-12T16:11:57.001Z</time></trkpt><trkpt lat="38.658317347446925" lon="16.06131737626426"><ele>507.0</ele><time>2026-04-12T16:11:58.001Z</time></trkpt><trkpt lat="38.65838706812255" lon="16.061436787078318"><ele>507.0</ele><time>2026-04-12T16:11:59.001Z</time></trkpt><trkpt lat="38.65844946835653" lon="16.061565356425962"><ele>507.0</ele><time>2026-04-12T16:12:00.001Z</time></trkpt><trkpt lat="38.658505892436445" lon="16.061693178192716"><ele>507.0</ele><time>2026-04-12T16:12:01.001Z</time></trkpt><trkpt lat="38.65855604765674" lon="16.06181801348973"><ele>508.20000000000005</ele><time>2026-04-12T16:12:02.001Z</time></trkpt><trkpt lat="38.65860033526154" lon="16.061935563432527"><ele>509.40000000000003</ele><time>2026-04-12T16:12:03.001Z</time></trkpt><trkpt lat="38.65864399839969" lon="16.062048103763022"><ele>510.59999999999997</ele><time>2026-04-12T16:12:04.001Z</time></trkpt><trkpt lat="38.658685389219414" lon="16.06215777530867"><ele>511.79999999999995</ele><time>2026-04-12T16:12:05.001Z</time></trkpt><trkpt lat="38.65872244099646" lon="16.06226438456755"><ele>513.0</ele><time>2026-04-12T16:12:06.001Z</time></trkpt><trkpt lat="38.65875697733418" lon="16.06236420006548"><ele>511.5</ele><time>2026-04-12T16:12:07.001Z</time></trkpt><trkpt lat="38.658796626549325" lon="16.06246219033836"><ele>510.0</ele><time>2026-04-12T16:12:08.001Z</time></trkpt><trkpt lat="38.65883302765164" lon="16.062561968283095"><ele>508.5</ele><time>2026-04-12T16:12:09.001Z</time></trkpt><trkpt lat="38.65886634904506" lon="16.06266656004964"><ele>507.0</ele><time>2026-04-12T16:12:10.001Z</time></trkpt><trkpt lat="38.658898467450385" lon="16.062763359546366"><ele>505.5</ele><time>2026-04-12T16:12:11.001Z</time></trkpt><trkpt lat="38.658930223381965" lon="16.062852016403383"><ele>504.0</ele><time>2026-04-12T16:12:12.001Z</time></trkpt><trkpt lat="38.6589630567688" lon="16.062934755645866"><ele>504.0</ele><time>2026-04-12T16:12:13.001Z</time></trkpt><trkpt lat="38.658995637067385" lon="16.0630227218632"><ele>504.0</ele><time>2026-04-12T16:12:14.001Z</time></trkpt><trkpt lat="38.65902676669613" lon="16.063111186483862"><ele>504.0</ele><time>2026-04-12T16:12:15.001Z</time></trkpt><trkpt lat="38.659056409353916" lon="16.06319822944877"><ele>504.0</ele><time>2026-04-12T16:12:16.001Z</time></trkpt><trkpt lat="38.65909054824439" lon="16.06329477509876"><ele>504.0</ele><time>2026-04-12T16:12:17.001Z</time></trkpt><trkpt lat="38.65912019325096" lon="16.06339030296716"><ele>504.0</ele><time>2026-04-12T16:12:18.001Z</time></trkpt><trkpt lat="38.65915506293605" lon="16.063490477298764"><ele>504.79999999999995</ele><time>2026-04-12T16:12:19.001Z</time></trkpt><trkpt lat="38.659193361954166" lon="16.063595441340226"><ele>505.59999999999997</ele><time>2026-04-12T16:12:20.001Z</time></trkpt><trkpt lat="38.65923125560994" lon="16.063703773139522"><ele>506.4</ele><time>2026-04-12T16:12:21.001Z</time></trkpt><trkpt lat="38.659270009371404" lon="16.063811034921553"><ele>507.2</ele><time>2026-04-12T16:12:22.001Z</time></trkpt><trkpt lat="38.65930585727458" lon="16.063917106929622"><ele>508.0</ele><time>2026-04-12T16:12:23.001Z</time></trkpt><trkpt lat="38.659347022695336" lon="16.064023660567095"><ele>508.0</ele><time>2026-04-12T16:12:24Z</time></trkpt><trkpt lat="38.659386940630675" lon="16.064135390974823"><ele>507.99999999999994</ele><time>2026-04-12T16:12:25Z</time></trkpt><trkpt lat="38.65942665761916" lon="16.064254442114088"><ele>507.99999999999994</ele><time>2026-04-12T16:12:26Z</time></trkpt><trkpt lat="38.65946697837465" lon="16.064373206851407"><ele>508.0</ele><time>2026-04-12T16:12:27Z</time></trkpt><trkpt lat="38.659511169801085" lon="16.06449606603114"><ele>508.0</ele><time>2026-04-12T16:12:28Z</time></trkpt><trkpt lat="38.65955467127411" lon="16.06462405874363"><ele>506.59999999999997</ele><time>2026-04-12T16:12:29Z</time></trkpt><trkpt lat="38.65960078132601" lon="16.064747641948838"><ele>505.19999999999993</ele><time>2026-04-12T16:12:30Z</time></trkpt><trkpt lat="38.65964490709032" lon="16.064872759928665"><ele>503.8</ele><time>2026-04-12T16:12:31Z</time></trkpt><trkpt lat="38.659687649627664" lon="16.064990055148623"><ele>502.4</ele><time>2026-04-12T16:12:32Z</time></trkpt><trkpt lat="38.65972281234752" lon="16.06509818287512"><ele>501.0</ele><time>2026-04-12T16:12:33Z</time></trkpt><trkpt lat="38.65975865547855" lon="16.065195287419183"><ele>501.0</ele><time>2026-04-12T16:12:34Z</time></trkpt><trkpt lat="38.659789630863294" lon="16.065291202642175"><ele>501.0</ele><time>2026-04-12T16:12:35Z</time></trkpt><trkpt lat="38.659822475103134" lon="16.065381209913337"><ele>501.0</ele><time>2026-04-12T16:12:36Z</time></trkpt><trkpt lat="38.65985374327563" lon="16.065468969721906"><ele>501.0</ele><time>2026-04-12T16:12:37Z</time></trkpt><trkpt lat="38.65988341139731" lon="16.065562692013923"><ele>501.0</ele><time>2026-04-12T16:12:38Z</time></trkpt><trkpt lat="38.659914704012586" lon="16.065662469688288"><ele>501.0</ele><time>2026-04-12T16:12:39Z</time></trkpt><trkpt lat="38.65994449252357" lon="16.06576953315314"><ele>501.5</ele><time>2026-04-12T16:12:40Z</time></trkpt><trkpt lat="38.65997586711088" lon="16.065871545189236"><ele>502.0</ele><time>2026-04-12T16:12:41Z</time></trkpt><trkpt lat="38.66000672410055" lon="16.065964862321273"><ele>502.5</ele><time>2026-04-12T16:12:42Z</time></trkpt><trkpt lat="38.66003763497212" lon="16.066059747490307"><ele>503.0</ele><time>2026-04-12T16:12:43Z</time></trkpt><trkpt lat="38.660070496923424" lon="16.066155411394007"><ele>503.5</ele><time>2026-04-12T16:12:44Z</time></trkpt><trkpt lat="38.66010315849253" lon="16.066236377793107"><ele>504.0</ele><time>2026-04-12T16:12:45Z</time></trkpt><trkpt lat="38.660130575023466" lon="16.06632509656514"><ele>504.0</ele><time>2026-04-12T16:12:46Z</time></trkpt><trkpt lat="38.66016082810623" lon="16.066415584691523"><ele>504.0</ele><time>2026-04-12T16:12:47Z</time></trkpt><trkpt lat="38.66018957684035" lon="16.06649743911823"><ele>504.0</ele><time>2026-04-12T16:12:48Z</time></trkpt><trkpt lat="38.660220892750495" lon="16.066581569715517"><ele>504.0</ele><time>2026-04-12T16:12:49Z</time></trkpt><trkpt lat="38.6602533512939" lon="16.06666789585779"><ele>504.0</ele><time>2026-04-12T16:12:50Z</time></trkpt><trkpt lat="38.66028724604753" lon="16.06675463597845"><ele>504.0</ele><time>2026-04-12T16:12:51Z</time></trkpt><trkpt lat="38.660322310695186" lon="16.066850347979575"><ele>503.1666666666667</ele><time>2026-04-12T16:12:52Z</time></trkpt><trkpt lat="38.66035812483923" lon="16.066945296072504"><ele>502.33333333333337</ele><time>2026-04-12T16:12:53Z</time></trkpt><trkpt lat="38.660392178829056" lon="16.06704391595347"><ele>501.5</ele><time>2026-04-12T16:12:54Z</time></trkpt><trkpt lat="38.66042762418328" lon="16.067145160994595"><ele>500.6666666666667</ele><time>2026-04-12T16:12:55Z</time></trkpt><trkpt lat="38.660463815424166" lon="16.06724867225716"><ele>499.83333333333337</ele><time>2026-04-12T16:12:56Z</time></trkpt><trkpt lat="38.66049960462945" lon="16.06735555942595"><ele>499.0</ele><time>2026-04-12T16:12:57Z</time></trkpt><trkpt lat="38.660536644210744" lon="16.067458275273804"><ele>499.00000000000006</ele><time>2026-04-12T16:12:58Z</time></trkpt><trkpt lat="38.66057000176336" lon="16.067562317174467"><ele>499.0</ele><time>2026-04-12T16:12:59Z</time></trkpt><trkpt lat="38.66059962661433" lon="16.067658927773618"><ele>499.0</ele><time>2026-04-12T16:13:00Z</time></trkpt><trkpt lat="38.66063066986936" lon="16.06775597620326"><ele>499.0</ele><time>2026-04-12T16:13:01Z</time></trkpt><trkpt lat="38.66066215236324" lon="16.06785576609646"><ele>499.00000000000006</ele><time>2026-04-12T16:13:02Z</time></trkpt><trkpt lat="38.66069548242714" lon="16.067955775463634"><ele>499.0</ele><time>2026-04-12T16:13:03Z</time></trkpt><trkpt lat="38.66072461710464" lon="16.068059140488284"><ele>499.0</ele><time>2026-04-12T16:13:04Z</time></trkpt><trkpt lat="38.66075728936664" lon="16.068155562346607"><ele>499.0</ele><time>2026-04-12T16:13:05Z</time></trkpt><trkpt lat="38.66079084176422" lon="16.068259868997533"><ele>499.0</ele><time>2026-04-12T16:13:06Z</time></trkpt><trkpt lat="38.66082946462806" lon="16.068361748474338"><ele>499.0</ele><time>2026-04-12T16:13:07Z</time></trkpt><trkpt lat="38.66087102188014" lon="16.068479435957617"><ele>499.0</ele><time>2026-04-12T16:13:08Z</time></trkpt><trkpt lat="38.66091732057596" lon="16.068609827694438"><ele>499.0</ele><time>2026-04-12T16:13:09.001Z</time></trkpt><trkpt lat="38.66097171511524" lon="16.06874981647782"><ele>499.0</ele><time>2026-04-12T16:13:10.001Z</time></trkpt><trkpt lat="38.66102919015419" lon="16.0689088440681"><ele>499.0</ele><time>2026-04-12T16:13:11.001Z</time></trkpt><trkpt lat="38.661093095834445" lon="16.06907633675667"><ele>499.0</ele><time>2026-04-12T16:13:12.001Z</time></trkpt><trkpt lat="38.66115929827867" lon="16.069252886485902"><ele>498.0</ele><time>2026-04-12T16:13:13.001Z</time></trkpt><trkpt lat="38.661224897676476" lon="16.06943197491435"><ele>497.0</ele><time>2026-04-12T16:13:14.001Z</time></trkpt><trkpt lat="38.66128957301433" lon="16.0696122071084"><ele>496.0</ele><time>2026-04-12T16:13:15.001Z</time></trkpt><trkpt lat="38.661356246588035" lon="16.069790660419304"><ele>495.6666666666667</ele><time>2026-04-12T16:13:16.001Z</time></trkpt><trkpt lat="38.66142331097778" lon="16.069969316120577"><ele>495.33333333333337</ele><time>2026-04-12T16:13:17.001Z</time></trkpt><trkpt lat="38.66149023150735" lon="16.070153249646644"><ele>495.0</ele><time>2026-04-12T16:13:18.001Z</time></trkpt><trkpt lat="38.66155691136074" lon="16.07033440402826"><ele>495.0</ele><time>2026-04-12T16:13:19.001Z</time></trkpt><trkpt lat="38.66162284965975" lon="16.07051439445214"><ele>495.0</ele><time>2026-04-12T16:13:20.001Z</time></trkpt><trkpt lat="38.66168722776238" lon="16.070697064904007"><ele>495.0</ele><time>2026-04-12T16:13:21.001Z</time></trkpt><trkpt lat="38.6617472679551" lon="16.070880737390592"><ele>495.25</ele><time>2026-04-12T16:13:22.001Z</time></trkpt><trkpt lat="38.661805815574255" lon="16.07105052852722"><ele>495.5</ele><time>2026-04-12T16:13:23.001Z</time></trkpt><trkpt lat="38.661859216672504" lon="16.071229106700297"><ele>495.75</ele><time>2026-04-12T16:13:24.001Z</time></trkpt><trkpt lat="38.66191315872716" lon="16.07140977180772"><ele>496.0</ele><time>2026-04-12T16:13:25.001Z</time></trkpt><trkpt lat="38.66196773172852" lon="16.071590120938687"><ele>496.6666666666667</ele><time>2026-04-12T16:13:26.001Z</time></trkpt><trkpt lat="38.662022283927634" lon="16.071777842580094"><ele>497.33333333333337</ele><time>2026-04-12T16:13:27.001Z</time></trkpt><trkpt lat="38.66207751274432" lon="16.071973866695227"><ele>498.0</ele><time>2026-04-12T16:13:28.001Z</time></trkpt><trkpt lat="38.66213694455501" lon="16.072166891877234"><ele>498.0</ele><time>2026-04-12T16:13:29.001Z</time></trkpt><trkpt lat="38.66219717668918" lon="16.07236177538042"><ele>498.0</ele><time>2026-04-12T16:13:30.001Z</time></trkpt><trkpt lat="38.66225437708448" lon="16.07255456769315"><ele>498.0</ele><time>2026-04-12T16:13:31.001Z</time></trkpt><trkpt lat="38.662315492938916" lon="16.072745538558884"><ele>498.33333333333337</ele><time>2026-04-12T16:13:32.001Z</time></trkpt><trkpt lat="38.66237683306268" lon="16.072934613682797"><ele>498.6666666666667</ele><time>2026-04-12T16:13:33.001Z</time></trkpt><trkpt lat="38.66242428807885" lon="16.07311913268448"><ele>499.0</ele><time>2026-04-12T16:13:34.001Z</time></trkpt><trkpt lat="38.662473554130955" lon="16.073301782608464"><ele>499.0</ele><time>2026-04-12T16:13:35.001Z</time></trkpt><trkpt lat="38.66252133896417" lon="16.073486692535134"><ele>499.0</ele><time>2026-04-12T16:13:36.001Z</time></trkpt><trkpt lat="38.66257256698106" lon="16.073664062637466"><ele>499.0</ele><time>2026-04-12T16:13:37.001Z</time></trkpt><trkpt lat="38.66263019418527" lon="16.073837075046075"><ele>499.0</ele><time>2026-04-12T16:13:38.001Z</time></trkpt><trkpt lat="38.662685386494786" lon="16.074007539721677"><ele>498.75</ele><time>2026-04-12T16:13:39.001Z</time></trkpt><trkpt lat="38.662735360094004" lon="16.074173625722914"><ele>498.5</ele><time>2026-04-12T16:13:40.001Z</time></trkpt><trkpt lat="38.66278342046628" lon="16.074333213693084"><ele>498.25</ele><time>2026-04-12T16:13:41.001Z</time></trkpt><trkpt lat="38.66282873667208" lon="16.07449200163737"><ele>498.0</ele><time>2026-04-12T16:13:42.001Z</time></trkpt><trkpt lat="38.66287699235738" lon="16.074644541818497"><ele>498.75</ele><time>2026-04-12T16:13:43.001Z</time></trkpt><trkpt lat="38.66292729827986" lon="16.07479051186543"><ele>499.5</ele><time>2026-04-12T16:13:44.001Z</time></trkpt><trkpt lat="38.662978456369345" lon="16.074923347345283"><ele>500.25</ele><time>2026-04-12T16:13:45.001Z</time></trkpt><trkpt lat="38.66303050162282" lon="16.075045574894418"><ele>501.0</ele><time>2026-04-12T16:13:46.001Z</time></trkpt><trkpt lat="38.66308664053172" lon="16.075162585185346"><ele>501.0</ele><time>2026-04-12T16:13:47.001Z</time></trkpt><trkpt lat="38.6631497702983" lon="16.07526489669396"><ele>501.0</ele><time>2026-04-12T16:13:48.001Z</time></trkpt><trkpt lat="38.66321734706144" lon="16.07536700885595"><ele>501.0</ele><time>2026-04-12T16:13:49.001Z</time></trkpt><trkpt lat="38.66329114047422" lon="16.075469553893598"><ele>501.0</ele><time>2026-04-12T16:13:50.001Z</time></trkpt><trkpt lat="38.663370571765135" lon="16.075567571606307"><ele>501.0</ele><time>2026-04-12T16:13:51.001Z</time></trkpt><trkpt lat="38.66345757157009" lon="16.075663302517523"><ele>501.0</ele><time>2026-04-12T16:13:52.001Z</time></trkpt><trkpt lat="38.66355341488019" lon="16.07576793994583"><ele>501.0</ele><time>2026-04-12T16:13:53.001Z</time></trkpt><trkpt lat="38.66365425672718" lon="16.075877311404376"><ele>501.0</ele><time>2026-04-12T16:13:54.001Z</time></trkpt><trkpt lat="38.66375394468829" lon="16.07597724160341"><ele>501.0</ele><time>2026-04-12T16:13:55.001Z</time></trkpt><trkpt lat="38.663845866496345" lon="16.07607176506827"><ele>501.20000000000005</ele><time>2026-04-12T16:13:56.001Z</time></trkpt><trkpt lat="38.66393387066555" lon="16.076155443985666"><ele>501.40000000000003</ele><time>2026-04-12T16:13:57.001Z</time></trkpt><trkpt lat="38.66401379528697" lon="16.07623915785673"><ele>501.6</ele><time>2026-04-12T16:13:58.001Z</time></trkpt><trkpt lat="38.66409453801122" lon="16.07632329748063"><ele>501.8</ele><time>2026-04-12T16:13:59.001Z</time></trkpt><trkpt lat="38.66417853132433" lon="16.076403586664526"><ele>502.0</ele><time>2026-04-12T16:14:00.001Z</time></trkpt><trkpt lat="38.66426696537451" lon="16.07648611442961"><ele>502.0</ele><time>2026-04-12T16:14:01.001Z</time></trkpt><trkpt lat="38.664354516584744" lon="16.076564724117706"><ele>502.00000000000006</ele><time>2026-04-12T16:14:02.001Z</time></trkpt><trkpt lat="38.66444559257711" lon="16.076650669129474"><ele>502.00000000000006</ele><time>2026-04-12T16:14:03.001Z</time></trkpt><trkpt lat="38.66453007435298" lon="16.076729910784064"><ele>502.0</ele><time>2026-04-12T16:14:04.001Z</time></trkpt><trkpt lat="38.664612711730214" lon="16.0768123150964"><ele>502.0</ele><time>2026-04-12T16:14:05.001Z</time></trkpt><trkpt lat="38.66469462788301" lon="16.07689272431245"><ele>501.0</ele><time>2026-04-12T16:14:06.001Z</time></trkpt><trkpt lat="38.664780539324674" lon="16.076974454940633"><ele>500.00000000000006</ele><time>2026-04-12T16:14:07.001Z</time></trkpt><trkpt lat="38.6648643093913" lon="16.07706136023443"><ele>499.00000000000006</ele><time>2026-04-12T16:14:08.001Z</time></trkpt><trkpt lat="38.66494776969345" lon="16.07714649525764"><ele>498.0</ele><time>2026-04-12T16:14:09.001Z</time></trkpt><trkpt lat="38.66503694702692" lon="16.077231425468508"><ele>497.0</ele><time>2026-04-12T16:14:10.001Z</time></trkpt><trkpt lat="38.665129999052354" lon="16.07731525016225"><ele>497.0</ele><time>2026-04-12T16:14:11.001Z</time></trkpt><trkpt lat="38.665222039222726" lon="16.077405854442667"><ele>497.0</ele><time>2026-04-12T16:14:12.001Z</time></trkpt><trkpt lat="38.66531524854246" lon="16.077497845888637"><ele>497.0</ele><time>2026-04-12T16:14:13.001Z</time></trkpt><trkpt lat="38.665413896402406" lon="16.07759317770423"><ele>497.0</ele><time>2026-04-12T16:14:14.001Z</time></trkpt><trkpt lat="38.665515178879666" lon="16.077690740352306"><ele>496.75</ele><time>2026-04-12T16:14:15.001Z</time></trkpt><trkpt lat="38.66561784016461" lon="16.077791757548695"><ele>496.5</ele><time>2026-04-12T16:14:16.001Z</time></trkpt><trkpt lat="38.66572370165956" lon="16.07789298580925"><ele>496.25</ele><time>2026-04-12T16:14:17.001Z</time></trkpt><trkpt lat="38.66582796507784" lon="16.077993335417133"><ele>496.0</ele><time>2026-04-12T16:14:18.001Z</time></trkpt><trkpt lat="38.66592325584717" lon="16.07808584789361"><ele>496.0</ele><time>2026-04-12T16:14:19.001Z</time></trkpt><trkpt lat="38.666007007379896" lon="16.078171842957317"><ele>496.0</ele><time>2026-04-12T16:14:20.001Z</time></trkpt><trkpt lat="38.666084070341064" lon="16.07825102982426"><ele>496.0</ele><time>2026-04-12T16:14:21.001Z</time></trkpt><trkpt lat="38.666159152265536" lon="16.078328588457673"><ele>496.0</ele><time>2026-04-12T16:14:22.001Z</time></trkpt><trkpt lat="38.6662399522031" lon="16.078404674481742"><ele>496.0</ele><time>2026-04-12T16:14:23.001Z</time></trkpt><trkpt lat="38.66632123192732" lon="16.07848336750275"><ele>496.20000000000005</ele><time>2026-04-12T16:14:24.001Z</time></trkpt><trkpt lat="38.666405439597234" lon="16.078559834369386"><ele>496.40000000000003</ele><time>2026-04-12T16:14:25.001Z</time></trkpt><trkpt lat="38.66649248783053" lon="16.07864251105697"><ele>496.6</ele><time>2026-04-12T16:14:26.001Z</time></trkpt><trkpt lat="38.666581569883924" lon="16.078729235114476"><ele>496.8</ele><time>2026-04-12T16:14:27.002Z</time></trkpt><trkpt lat="38.666673700191865" lon="16.078819554903163"><ele>497.0</ele><time>2026-04-12T16:14:28.002Z</time></trkpt><trkpt lat="38.666767529082705" lon="16.07891262534288"><ele>497.0</ele><time>2026-04-12T16:14:29.002Z</time></trkpt><trkpt lat="38.666864337104464" lon="16.079005643353288"><ele>497.0</ele><time>2026-04-12T16:14:30Z</time></trkpt><trkpt lat="38.666965600793766" lon="16.079105575875975"><ele>497.0</ele><time>2026-04-12T16:14:31Z</time></trkpt><trkpt lat="38.667067552924465" lon="16.079207140693246"><ele>497.0</ele><time>2026-04-12T16:14:32Z</time></trkpt><trkpt lat="38.6671695644335" lon="16.07930673252394"><ele>495.75</ele><time>2026-04-12T16:14:33Z</time></trkpt><trkpt lat="38.667274726374394" lon="16.079406105566502"><ele>494.5</ele><time>2026-04-12T16:14:34Z</time></trkpt><trkpt lat="38.667378960561166" lon="16.079503160199717"><ele>493.25</ele><time>2026-04-12T16:14:35Z</time></trkpt><trkpt lat="38.66745776525686" lon="16.07958458212361"><ele>492.0</ele><time>2026-04-12T16:14:36Z</time></trkpt><trkpt lat="38.667537449951006" lon="16.07966683704071"><ele>492.0</ele><time>2026-04-12T16:14:37Z</time></trkpt><trkpt lat="38.66761743307744" lon="16.07974274551275"><ele>492.00000000000006</ele><time>2026-04-12T16:14:38Z</time></trkpt><trkpt lat="38.66768970930328" lon="16.079809790762695"><ele>492.00000000000006</ele><time>2026-04-12T16:14:39Z</time></trkpt><trkpt lat="38.66774046818478" lon="16.079861326941646"><ele>492.0</ele><time>2026-04-12T16:14:40Z</time></trkpt><trkpt lat="38.66782764026679" lon="16.079942603370643"><ele>492.0</ele><time>2026-04-12T16:14:42Z</time></trkpt><trkpt lat="38.66790332165142" lon="16.08001686849219"><ele>492.0</ele><time>2026-04-12T16:14:44Z</time></trkpt><trkpt lat="38.6679682151459" lon="16.080081676091815"><ele>492.00000000000006</ele><time>2026-04-12T16:14:46Z</time></trkpt><trkpt lat="38.66805925194518" lon="16.080169738015"><ele>492.00000000000006</ele><time>2026-04-12T16:14:48Z</time></trkpt><trkpt lat="38.66812137955471" lon="16.08023175034895"><ele>492.0</ele><time>2026-04-12T16:14:49Z</time></trkpt><trkpt lat="38.668190717770585" lon="16.080296563768137"><ele>492.0</ele><time>2026-04-12T16:14:50Z</time></trkpt><trkpt lat="38.66827190275718" lon="16.080374473171286"><ele>492.0</ele><time>2026-04-12T16:14:51Z</time></trkpt><trkpt lat="38.66836620231875" lon="16.080467438615276"><ele>492.0</ele><time>2026-04-12T16:14:52Z</time></trkpt><trkpt lat="38.668463972169995" lon="16.080573899451515"><ele>492.0</ele><time>2026-04-12T16:14:53Z</time></trkpt><trkpt lat="38.66856150530905" lon="16.08068305193385"><ele>492.0</ele><time>2026-04-12T16:14:54Z</time></trkpt><trkpt lat="38.66866319340192" lon="16.080794112037182"><ele>491.25</ele><time>2026-04-12T16:14:55Z</time></trkpt><trkpt lat="38.66876284746731" lon="16.080909143581284"><ele>490.5</ele><time>2026-04-12T16:14:56Z</time></trkpt><trkpt lat="38.6688574647706" lon="16.081026464316192"><ele>489.75</ele><time>2026-04-12T16:14:57Z</time></trkpt><trkpt lat="38.66894327832924" lon="16.08114968211378"><ele>489.0</ele><time>2026-04-12T16:14:58Z</time></trkpt><trkpt lat="38.66901950339112" lon="16.08126287108809"><ele>489.0</ele><time>2026-04-12T16:14:59Z</time></trkpt><trkpt lat="38.66909061202448" lon="16.08137263885833"><ele>489.0</ele><time>2026-04-12T16:15:00Z</time></trkpt><trkpt lat="38.66916255238609" lon="16.081480055464844"><ele>489.0</ele><time>2026-04-12T16:15:01.001Z</time></trkpt><trkpt lat="38.669236970504656" lon="16.081589676399837"><ele>489.0</ele><time>2026-04-12T16:15:02.001Z</time></trkpt><trkpt lat="38.66931110754379" lon="16.081700086546135"><ele>489.0</ele><time>2026-04-12T16:15:03.001Z</time></trkpt><trkpt lat="38.669385985570344" lon="16.08181507021127"><ele>488.0</ele><time>2026-04-12T16:15:04.001Z</time></trkpt><trkpt lat="38.66946082516873" lon="16.081931438235653"><ele>487.0</ele><time>2026-04-12T16:15:05.001Z</time></trkpt><trkpt lat="38.66953880960232" lon="16.08204727257311"><ele>486.0</ele><time>2026-04-12T16:15:06.001Z</time></trkpt><trkpt lat="38.66962567330929" lon="16.082169793493858"><ele>485.0</ele><time>2026-04-12T16:15:07.001Z</time></trkpt><trkpt lat="38.669714591183755" lon="16.082302498660354"><ele>484.75</ele><time>2026-04-12T16:15:08.001Z</time></trkpt><trkpt lat="38.66980155244177" lon="16.082435223400736"><ele>484.5</ele><time>2026-04-12T16:15:09.001Z</time></trkpt><trkpt lat="38.669891023451875" lon="16.082563124361617"><ele>484.25</ele><time>2026-04-12T16:15:10.001Z</time></trkpt><trkpt lat="38.66997804802363" lon="16.082686694812136"><ele>484.0</ele><time>2026-04-12T16:15:11.001Z</time></trkpt><trkpt lat="38.67005907566444" lon="16.082813578635335"><ele>484.0</ele><time>2026-04-12T16:15:12.001Z</time></trkpt><trkpt lat="38.67014101733265" lon="16.082935788394305"><ele>484.0</ele><time>2026-04-12T16:15:13.001Z</time></trkpt><trkpt lat="38.67022386169475" lon="16.083056671884023"><ele>484.0</ele><time>2026-04-12T16:15:14.001Z</time></trkpt><trkpt lat="38.670302350525816" lon="16.083180376616028"><ele>484.0</ele><time>2026-04-12T16:15:15.001Z</time></trkpt><trkpt lat="38.67038326937403" lon="16.083306520680342"><ele>483.75</ele><time>2026-04-12T16:15:16.001Z</time></trkpt><trkpt lat="38.67046540251877" lon="16.08343153663775"><ele>483.5</ele><time>2026-04-12T16:15:17.001Z</time></trkpt><trkpt lat="38.670544229021374" lon="16.08354836829095"><ele>483.25</ele><time>2026-04-12T16:15:18.001Z</time></trkpt><trkpt lat="38.67061632877866" lon="16.083654718218614"><ele>483.0</ele><time>2026-04-12T16:15:19.001Z</time></trkpt><trkpt lat="38.67068097581655" lon="16.083752021714304"><ele>483.0</ele><time>2026-04-12T16:15:20.001Z</time></trkpt><trkpt lat="38.67073999764626" lon="16.083841710668157"><ele>482.99999999999994</ele><time>2026-04-12T16:15:21.001Z</time></trkpt><trkpt lat="38.67080060710315" lon="16.083933157654588"><ele>482.99999999999994</ele><time>2026-04-12T16:15:22.001Z</time></trkpt><trkpt lat="38.670862223557464" lon="16.08402569683921"><ele>483.0</ele><time>2026-04-12T16:15:23.001Z</time></trkpt><trkpt lat="38.67092141627561" lon="16.084115782091835"><ele>483.0</ele><time>2026-04-12T16:15:24.001Z</time></trkpt><trkpt lat="38.670982426635184" lon="16.08420726285518"><ele>483.2</ele><time>2026-04-12T16:15:25.001Z</time></trkpt><trkpt lat="38.67104651849388" lon="16.084299287376947"><ele>483.4</ele><time>2026-04-12T16:15:26.001Z</time></trkpt><trkpt lat="38.67111235912986" lon="16.084394363517486"><ele>483.59999999999997</ele><time>2026-04-12T16:15:27.001Z</time></trkpt><trkpt lat="38.67117760174303" lon="16.084490210922407"><ele>483.79999999999995</ele><time>2026-04-12T16:15:28.001Z</time></trkpt><trkpt lat="38.671245536088676" lon="16.084587152288265"><ele>484.0</ele><time>2026-04-12T16:15:29.001Z</time></trkpt><trkpt lat="38.671314243330286" lon="16.08468785622354"><ele>484.0</ele><time>2026-04-12T16:15:30.001Z</time></trkpt><trkpt lat="38.67138195105689" lon="16.084787620782382"><ele>484.0</ele><time>2026-04-12T16:15:31.001Z</time></trkpt><trkpt lat="38.67145085865537" lon="16.084886930582517"><ele>484.0</ele><time>2026-04-12T16:15:32.001Z</time></trkpt><trkpt lat="38.67151614681495" lon="16.084988142866003"><ele>484.0</ele><time>2026-04-12T16:15:33.001Z</time></trkpt><trkpt lat="38.67158133316894" lon="16.08508823837041"><ele>484.0</ele><time>2026-04-12T16:15:34.001Z</time></trkpt><trkpt lat="38.671646934351195" lon="16.08518543890166"><ele>484.2</ele><time>2026-04-12T16:15:35.001Z</time></trkpt><trkpt lat="38.67170940480611" lon="16.08528142690906"><ele>484.4</ele><time>2026-04-12T16:15:36.001Z</time></trkpt><trkpt lat="38.6717777998087" lon="16.085375740450544"><ele>484.6</ele><time>2026-04-12T16:15:37.001Z</time></trkpt><trkpt lat="38.67184653155076" lon="16.085470855171586"><ele>484.8</ele><time>2026-04-12T16:15:38.001Z</time></trkpt><trkpt lat="38.671914691317305" lon="16.08556817806956"><ele>485.0</ele><time>2026-04-12T16:15:39.001Z</time></trkpt><trkpt lat="38.671982201755085" lon="16.08567099022047"><ele>484.8</ele><time>2026-04-12T16:15:40.001Z</time></trkpt><trkpt lat="38.672049285589516" lon="16.085769893877412"><ele>484.6</ele><time>2026-04-12T16:15:41.001Z</time></trkpt><trkpt lat="38.67211597691095" lon="16.08587202742415"><ele>484.4</ele><time>2026-04-12T16:15:42.001Z</time></trkpt><trkpt lat="38.67218106180118" lon="16.085970389341522"><ele>484.2</ele><time>2026-04-12T16:15:43.001Z</time></trkpt><trkpt lat="38.672244768824434" lon="16.086072351347674"><ele>484.0</ele><time>2026-04-12T16:15:44.001Z</time></trkpt><trkpt lat="38.6723106665888" lon="16.08617271674611"><ele>484.0</ele><time>2026-04-12T16:15:45.001Z</time></trkpt><trkpt lat="38.6723786204193" lon="16.086272370373553"><ele>484.0</ele><time>2026-04-12T16:15:46.001Z</time></trkpt><trkpt lat="38.672443417601556" lon="16.086372488066385"><ele>484.0</ele><time>2026-04-12T16:15:47.001Z</time></trkpt><trkpt lat="38.67250637610208" lon="16.08646759295033"><ele>484.0</ele><time>2026-04-12T16:15:48.001Z</time></trkpt><trkpt lat="38.6725673621421" lon="16.086560092828083"><ele>484.0</ele><time>2026-04-12T16:15:49.001Z</time></trkpt><trkpt lat="38.672628499827894" lon="16.086651494710985"><ele>483.4</ele><time>2026-04-12T16:15:50.001Z</time></trkpt><trkpt lat="38.67269050423386" lon="16.086740939983773"><ele>482.79999999999995</ele><time>2026-04-12T16:15:51.001Z</time></trkpt><trkpt lat="38.67275479659624" lon="16.086831460271686"><ele>482.20000000000005</ele><time>2026-04-12T16:15:52.001Z</time></trkpt><trkpt lat="38.67281935740502" lon="16.086921434030785"><ele>481.6</ele><time>2026-04-12T16:15:53.001Z</time></trkpt><trkpt lat="38.67287849333652" lon="16.087004572412035"><ele>481.0</ele><time>2026-04-12T16:15:54.001Z</time></trkpt><trkpt lat="38.672936359002755" lon="16.087091344875773"><ele>481.0</ele><time>2026-04-12T16:15:55.001Z</time></trkpt><trkpt lat="38.67299351025197" lon="16.087179309807787"><ele>481.0</ele><time>2026-04-12T16:15:56.001Z</time></trkpt><trkpt lat="38.67305347259379" lon="16.087269831596533"><ele>481.0</ele><time>2026-04-12T16:15:57.001Z</time></trkpt><trkpt lat="38.67311807792686" lon="16.08736383444351"><ele>481.0</ele><time>2026-04-12T16:15:58.001Z</time></trkpt><trkpt lat="38.67318462484931" lon="16.087461288078043"><ele>481.0</ele><time>2026-04-12T16:15:59.001Z</time></trkpt><trkpt lat="38.67325290225021" lon="16.08756008493115"><ele>480.4</ele><time>2026-04-12T16:16:00.001Z</time></trkpt><trkpt lat="38.67332487140392" lon="16.08766669273916"><ele>479.8</ele><time>2026-04-12T16:16:01.001Z</time></trkpt><trkpt lat="38.67339399977486" lon="16.08777643485635"><ele>479.19999999999993</ele><time>2026-04-12T16:16:02.001Z</time></trkpt><trkpt lat="38.67346539109071" lon="16.087883951705663"><ele>478.59999999999997</ele><time>2026-04-12T16:16:03.001Z</time></trkpt><trkpt lat="38.6735335172146" lon="16.087991408310046"><ele>478.0</ele><time>2026-04-12T16:16:04.001Z</time></trkpt><trkpt lat="38.67359737001791" lon="16.088087907205946"><ele>478.59999999999997</ele><time>2026-04-12T16:16:05.001Z</time></trkpt><trkpt lat="38.6736607306365" lon="16.0881816281403"><ele>479.19999999999993</ele><time>2026-04-12T16:16:06.001Z</time></trkpt><trkpt lat="38.67372606891457" lon="16.088273813377416"><ele>479.8</ele><time>2026-04-12T16:16:07.001Z</time></trkpt><trkpt lat="38.673790993682154" lon="16.08837335385584"><ele>480.4</ele><time>2026-04-12T16:16:08.001Z</time></trkpt><trkpt lat="38.67386163497809" lon="16.088475893236826"><ele>481.0</ele><time>2026-04-12T16:16:09.001Z</time></trkpt><trkpt lat="38.67393698836111" lon="16.088580888498488"><ele>481.0</ele><time>2026-04-12T16:16:10.001Z</time></trkpt><trkpt lat="38.67401128268547" lon="16.088690171699355"><ele>481.0</ele><time>2026-04-12T16:16:11.001Z</time></trkpt><trkpt lat="38.67408357434842" lon="16.088796580020805"><ele>481.0</ele><time>2026-04-12T16:16:12.001Z</time></trkpt><trkpt lat="38.67415249795837" lon="16.0889002839751"><ele>481.0</ele><time>2026-04-12T16:16:13.001Z</time></trkpt><trkpt lat="38.674221365759855" lon="16.08901031286595"><ele>481.0</ele><time>2026-04-12T16:16:14.001Z</time></trkpt><trkpt lat="38.67429031881017" lon="16.089112851093677"><ele>481.20000000000005</ele><time>2026-04-12T16:16:15.001Z</time></trkpt><trkpt lat="38.67436366639495" lon="16.08922920050827"><ele>481.40000000000003</ele><time>2026-04-12T16:16:16.001Z</time></trkpt><trkpt lat="38.674431153851096" lon="16.089338662696345"><ele>481.6</ele><time>2026-04-12T16:16:17.001Z</time></trkpt><trkpt lat="38.67450584999128" lon="16.089441001294116"><ele>481.8</ele><time>2026-04-12T16:16:18.001Z</time></trkpt><trkpt lat="38.674582037402445" lon="16.089542369299394"><ele>482.0</ele><time>2026-04-12T16:16:19.001Z</time></trkpt><trkpt lat="38.67465061350991" lon="16.089642116003215"><ele>482.0</ele><time>2026-04-12T16:16:20.001Z</time></trkpt><trkpt lat="38.67471859079389" lon="16.089738518443152"><ele>482.00000000000006</ele><time>2026-04-12T16:16:21.001Z</time></trkpt><trkpt lat="38.67478605350725" lon="16.089837449160925"><ele>482.00000000000006</ele><time>2026-04-12T16:16:22.001Z</time></trkpt><trkpt lat="38.674851056386764" lon="16.089941607696655"><ele>482.0</ele><time>2026-04-12T16:16:23.001Z</time></trkpt><trkpt lat="38.6749134197998" lon="16.09003542488552"><ele>482.0</ele><time>2026-04-12T16:16:24.001Z</time></trkpt><trkpt lat="38.674964094909946" lon="16.09012532038245"><ele>481.8333333333333</ele><time>2026-04-12T16:16:25.001Z</time></trkpt><trkpt lat="38.6750172450995" lon="16.09020796174934"><ele>481.66666666666663</ele><time>2026-04-12T16:16:26.001Z</time></trkpt><trkpt lat="38.6750749283813" lon="16.09028280105409"><ele>481.5</ele><time>2026-04-12T16:16:27.001Z</time></trkpt><trkpt lat="38.67512919740231" lon="16.090370378014857"><ele>481.33333333333337</ele><time>2026-04-12T16:16:28.001Z</time></trkpt><trkpt lat="38.67518603031498" lon="16.090446759649357"><ele>481.1666666666667</ele><time>2026-04-12T16:16:29.002Z</time></trkpt><trkpt lat="38.67524045534162" lon="16.090523844985483"><ele>481.0</ele><time>2026-04-12T16:16:30.002Z</time></trkpt><trkpt lat="38.67529268920495" lon="16.09059305891578"><ele>480.8</ele><time>2026-04-12T16:16:31.002Z</time></trkpt><trkpt lat="38.67533505702437" lon="16.090663983457322"><ele>480.6</ele><time>2026-04-12T16:16:32.002Z</time></trkpt><trkpt lat="38.675385869721495" lon="16.090745303470623"><ele>480.4</ele><time>2026-04-12T16:16:33.002Z</time></trkpt><trkpt lat="38.67545286516748" lon="16.090844480888226"><ele>480.2</ele><time>2026-04-12T16:16:34.002Z</time></trkpt><trkpt lat="38.67552186181096" lon="16.09094627890761"><ele>480.0</ele><time>2026-04-12T16:16:35.002Z</time></trkpt><trkpt lat="38.67560097081151" lon="16.091057148303463"><ele>480.8</ele><time>2026-04-12T16:16:36Z</time></trkpt><trkpt lat="38.6756790678511" lon="16.091171189755347"><ele>481.6</ele><time>2026-04-12T16:16:37Z</time></trkpt><trkpt lat="38.675753118191224" lon="16.09129426868136"><ele>482.4</ele><time>2026-04-12T16:16:38Z</time></trkpt><trkpt lat="38.67581086800978" lon="16.091388079095108"><ele>483.2</ele><time>2026-04-12T16:16:39Z</time></trkpt><trkpt lat="38.67587543957364" lon="16.09149018731587"><ele>484.0</ele><time>2026-04-12T16:16:40Z</time></trkpt><trkpt lat="38.6759415684563" lon="16.091582501532713"><ele>483.6</ele><time>2026-04-12T16:16:41Z</time></trkpt><trkpt lat="38.67600877863696" lon="16.091672714461918"><ele>483.2</ele><time>2026-04-12T16:16:42Z</time></trkpt><trkpt lat="38.67607285818063" lon="16.091767198615692"><ele>482.80000000000007</ele><time>2026-04-12T16:16:43Z</time></trkpt><trkpt lat="38.67613544293901" lon="16.091865379852248"><ele>482.40000000000003</ele><time>2026-04-12T16:16:44Z</time></trkpt><trkpt lat="38.67619599258441" lon="16.09195648926397"><ele>482.0</ele><time>2026-04-12T16:16:45Z</time></trkpt><trkpt lat="38.67625418710695" lon="16.092039870537175"><ele>481.16666666666663</ele><time>2026-04-12T16:16:46Z</time></trkpt><trkpt lat="38.67630714480075" lon="16.092121752825594"><ele>480.3333333333333</ele><time>2026-04-12T16:16:47Z</time></trkpt><trkpt lat="38.676354884912215" lon="16.092201635274424"><ele>479.5</ele><time>2026-04-12T16:16:48Z</time></trkpt><trkpt lat="38.67640342648037" lon="16.09228195655958"><ele>478.66666666666663</ele><time>2026-04-12T16:16:49Z</time></trkpt><trkpt lat="38.67645960399559" lon="16.092365619189817"><ele>477.8333333333333</ele><time>2026-04-12T16:16:50Z</time></trkpt><trkpt lat="38.67650195163414" lon="16.09245508619346"><ele>477.0</ele><time>2026-04-12T16:16:51Z</time></trkpt><trkpt lat="38.676543097566196" lon="16.092552789270346"><ele>476.8333333333333</ele><time>2026-04-12T16:16:52Z</time></trkpt><trkpt lat="38.67657206200096" lon="16.09265372458566"><ele>476.66666666666663</ele><time>2026-04-12T16:16:53Z</time></trkpt><trkpt lat="38.67659561804863" lon="16.092754302266457"><ele>476.5</ele><time>2026-04-12T16:16:54Z</time></trkpt><trkpt lat="38.676610080013184" lon="16.092854694141806"><ele>476.3333333333333</ele><time>2026-04-12T16:16:55Z</time></trkpt><trkpt lat="38.67661309366321" lon="16.092954899139457"><ele>476.16666666666663</ele><time>2026-04-12T16:16:56Z</time></trkpt><trkpt lat="38.67660383973781" lon="16.09305268276333"><ele>476.0</ele><time>2026-04-12T16:16:57Z</time></trkpt><trkpt lat="38.676571351415916" lon="16.09313515789839"><ele>477.20000000000005</ele><time>2026-04-12T16:16:58Z</time></trkpt><trkpt lat="38.67652911008949" lon="16.093276048389665"><ele>478.40000000000003</ele><time>2026-04-12T16:17:00Z</time></trkpt><trkpt lat="38.67649390243583" lon="16.093378846845635"><ele>479.6</ele><time>2026-04-12T16:17:02Z</time></trkpt><trkpt lat="38.67646917201447" lon="16.0934860286911"><ele>480.8</ele><time>2026-04-12T16:17:04Z</time></trkpt><trkpt lat="38.67642785378933" lon="16.093578401894245"><ele>482.0</ele><time>2026-04-12T16:17:06Z</time></trkpt><trkpt lat="38.67638200537218" lon="16.093691218219647"><ele>481.99999999999994</ele><time>2026-04-12T16:17:08Z</time></trkpt><trkpt lat="38.67633065456426" lon="16.09383686112937"><ele>482.0</ele><time>2026-04-12T16:17:10Z</time></trkpt><trkpt lat="38.67629495540526" lon="16.093905248454824"><ele>482.0</ele><time>2026-04-12T16:17:11Z</time></trkpt><trkpt lat="38.67626781623306" lon="16.0939811860281"><ele>482.0</ele><time>2026-04-12T16:17:12Z</time></trkpt><trkpt lat="38.67622727200921" lon="16.09405780963743"><ele>481.99999999999994</ele><time>2026-04-12T16:17:13Z</time></trkpt><trkpt lat="38.676201774827945" lon="16.094149402274187"><ele>482.0</ele><time>2026-04-12T16:17:14Z</time></trkpt><trkpt lat="38.67617069870443" lon="16.09423994270352"><ele>481.99999999999994</ele><time>2026-04-12T16:17:15Z</time></trkpt><trkpt lat="38.67614756924147" lon="16.094318443797015"><ele>482.0</ele><time>2026-04-12T16:17:16Z</time></trkpt><trkpt lat="38.676130093242854" lon="16.094403120924067"><ele>482.0</ele><time>2026-04-12T16:17:17Z</time></trkpt><trkpt lat="38.67607084898364" lon="16.094538143594708"><ele>482.0</ele><time>2026-04-12T16:17:19Z</time></trkpt><trkpt lat="38.67604943786397" lon="16.094618713434034"><ele>481.99999999999994</ele><time>2026-04-12T16:17:20.001Z</time></trkpt><trkpt lat="38.67602081279301" lon="16.094707239758037"><ele>482.0</ele><time>2026-04-12T16:17:21.001Z</time></trkpt><trkpt lat="38.675987277248794" lon="16.09480219603461"><ele>481.99999999999994</ele><time>2026-04-12T16:17:22.001Z</time></trkpt><trkpt lat="38.675944434163355" lon="16.09488683793034"><ele>482.0</ele><time>2026-04-12T16:17:23.001Z</time></trkpt><trkpt lat="38.675909793495556" lon="16.094985261806595"><ele>482.0</ele><time>2026-04-12T16:17:24.001Z</time></trkpt><trkpt lat="38.67587611824785" lon="16.095086984551877"><ele>482.0</ele><time>2026-04-12T16:17:25.001Z</time></trkpt><trkpt lat="38.67584011942056" lon="16.09519257867948"><ele>481.99999999999994</ele><time>2026-04-12T16:17:26.001Z</time></trkpt><trkpt lat="38.67580213264012" lon="16.095296125163877"><ele>482.0</ele><time>2026-04-12T16:17:27.001Z</time></trkpt><trkpt lat="38.675771251778905" lon="16.095398059876857"><ele>482.0</ele><time>2026-04-12T16:17:28.001Z</time></trkpt><trkpt lat="38.67573882067849" lon="16.095494961036124"><ele>482.00000000000006</ele><time>2026-04-12T16:17:29.001Z</time></trkpt><trkpt lat="38.675712427813544" lon="16.09558313862237"><ele>482.0</ele><time>2026-04-12T16:17:30.001Z</time></trkpt><trkpt lat="38.67568707001487" lon="16.095665219584642"><ele>482.0</ele><time>2026-04-12T16:17:31.001Z</time></trkpt><trkpt lat="38.67565352830428" lon="16.09573737300627"><ele>482.00000000000006</ele><time>2026-04-12T16:17:32.001Z</time></trkpt><trkpt lat="38.675625910501566" lon="16.095816844040225"><ele>482.0</ele><time>2026-04-12T16:17:33.001Z</time></trkpt><trkpt lat="38.675600416884826" lon="16.095903897421984"><ele>482.0</ele><time>2026-04-12T16:17:34.001Z</time></trkpt><trkpt lat="38.675565956272656" lon="16.095987179891683"><ele>481.6</ele><time>2026-04-12T16:17:35.001Z</time></trkpt><trkpt lat="38.675536263626405" lon="16.09607875219894"><ele>481.20000000000005</ele><time>2026-04-12T16:17:36.001Z</time></trkpt><trkpt lat="38.675506383816206" lon="16.096167947114356"><ele>480.8</ele><time>2026-04-12T16:17:37.001Z</time></trkpt><trkpt lat="38.675468954215724" lon="16.096243444826467"><ele>480.4</ele><time>2026-04-12T16:17:38.001Z</time></trkpt><trkpt lat="38.675430488335564" lon="16.096390177645695"><ele>480.0</ele><time>2026-04-12T16:17:40.001Z</time></trkpt><trkpt lat="38.67537759674366" lon="16.09651878456097"><ele>480.0</ele><time>2026-04-12T16:17:42.001Z</time></trkpt><trkpt lat="38.67532928221503" lon="16.09666475937317"><ele>480.0</ele><time>2026-04-12T16:17:44.001Z</time></trkpt><trkpt lat="38.675278828746976" lon="16.09679888754836"><ele>480.0</ele><time>2026-04-12T16:17:46.001Z</time></trkpt><trkpt lat="38.6752454352668" lon="16.096871159427728"><ele>480.0</ele><time>2026-04-12T16:17:47.001Z</time></trkpt><trkpt lat="38.675228142883604" lon="16.09695032388993"><ele>480.0</ele><time>2026-04-12T16:17:48.001Z</time></trkpt><trkpt lat="38.67520556080683" lon="16.09709539459124"><ele>480.0</ele><time>2026-04-12T16:17:50.001Z</time></trkpt><trkpt lat="38.67521561908466" lon="16.097203960036044"><ele>480.0</ele><time>2026-04-12T16:17:52.001Z</time></trkpt><trkpt lat="38.675297798129684" lon="16.097260114208062"><ele>480.0</ele><time>2026-04-12T16:17:53.001Z</time></trkpt><trkpt lat="38.67539502645522" lon="16.097319719841135"><ele>480.0</ele><time>2026-04-12T16:17:55.001Z</time></trkpt><trkpt lat="38.67550321869913" lon="16.09738099526349"><ele>480.0</ele><time>2026-04-12T16:17:57.001Z</time></trkpt><trkpt lat="38.67556810552885" lon="16.097416855468687"><ele>479.6666666666667</ele><time>2026-04-12T16:17:58.001Z</time></trkpt><trkpt lat="38.67563455227679" lon="16.097462324648014"><ele>479.33333333333337</ele><time>2026-04-12T16:17:59.001Z</time></trkpt><trkpt lat="38.67569921505081" lon="16.097513857692856"><ele>479.0</ele><time>2026-04-12T16:18:00.001Z</time></trkpt><trkpt lat="38.675757957367786" lon="16.097557318374356"><ele>478.6666666666667</ele><time>2026-04-12T16:18:01.001Z</time></trkpt><trkpt lat="38.675843503149316" lon="16.09762437717392"><ele>478.33333333333337</ele><time>2026-04-12T16:18:03.001Z</time></trkpt><trkpt lat="38.675913704113036" lon="16.097670072727144"><ele>478.0</ele><time>2026-04-12T16:18:06.001Z</time></trkpt><trkpt lat="38.67599053821325" lon="16.097737527139763"><ele>478.0</ele><time>2026-04-12T16:18:09.001Z</time></trkpt><trkpt lat="38.676033932256395" lon="16.09784281871693"><ele>477.99999999999994</ele><time>2026-04-12T16:18:11.001Z</time></trkpt><trkpt lat="38.6760323235332" lon="16.097934133249648"><ele>477.99999999999994</ele><time>2026-04-12T16:18:12.001Z</time></trkpt><trkpt lat="38.67599112232692" lon="16.098066043590617"><ele>478.0</ele><time>2026-04-12T16:18:14.001Z</time></trkpt><trkpt lat="38.67596357344263" lon="16.098204426335737"><ele>478.0</ele><time>2026-04-12T16:18:16.001Z</time></trkpt><trkpt lat="38.675939730773806" lon="16.09827954837583"><ele>477.50000000000006</ele><time>2026-04-12T16:18:17.001Z</time></trkpt><trkpt lat="38.67588819784659" lon="16.09842473009231"><ele>477.0</ele><time>2026-04-12T16:18:19.001Z</time></trkpt><trkpt lat="38.675859509219045" lon="16.0985027591651"><ele>476.5</ele><time>2026-04-12T16:18:20.001Z</time></trkpt><trkpt lat="38.67583012562721" lon="16.098575663566507"><ele>476.0</ele><time>2026-04-12T16:18:21.001Z</time></trkpt><trkpt lat="38.6758064472695" lon="16.098652092471916"><ele>475.50000000000006</ele><time>2026-04-12T16:18:22.001Z</time></trkpt><trkpt lat="38.675781741608276" lon="16.09872743661798"><ele>475.0</ele><time>2026-04-12T16:18:23.001Z</time></trkpt><trkpt lat="38.67575707592864" lon="16.098809798026384"><ele>475.0</ele><time>2026-04-12T16:18:24.001Z</time></trkpt><trkpt lat="38.67573143556771" lon="16.09890416994664"><ele>475.00000000000006</ele><time>2026-04-12T16:18:25.001Z</time></trkpt><trkpt lat="38.675706366522405" lon="16.098986921281526"><ele>475.0</ele><time>2026-04-12T16:18:26.001Z</time></trkpt><trkpt lat="38.67568400127959" lon="16.09907297931989"><ele>475.0</ele><time>2026-04-12T16:18:27.001Z</time></trkpt><trkpt lat="38.67565983185171" lon="16.099152045860126"><ele>475.00000000000006</ele><time>2026-04-12T16:18:28.001Z</time></trkpt><trkpt lat="38.675630237517474" lon="16.099234435119048"><ele>475.0</ele><time>2026-04-12T16:18:29.001Z</time></trkpt><trkpt lat="38.67560430579522" lon="16.09931361929851"><ele>475.0</ele><time>2026-04-12T16:18:30.001Z</time></trkpt><trkpt lat="38.67557912855317" lon="16.099403309956184"><ele>474.7142857142857</ele><time>2026-04-12T16:18:31.001Z</time></trkpt><trkpt lat="38.67555207845813" lon="16.099491589485815"><ele>474.42857142857144</ele><time>2026-04-12T16:18:32.001Z</time></trkpt><trkpt lat="38.67552112128747" lon="16.099572193991808"><ele>474.14285714285717</ele><time>2026-04-12T16:18:33.001Z</time></trkpt><trkpt lat="38.675488123238296" lon="16.0996525125082"><ele>473.8571428571429</ele><time>2026-04-12T16:18:34.001Z</time></trkpt><trkpt lat="38.6754592910798" lon="16.0997360537849"><ele>473.57142857142856</ele><time>2026-04-12T16:18:35.001Z</time></trkpt><trkpt lat="38.67543408215109" lon="16.099824762809483"><ele>473.28571428571433</ele><time>2026-04-12T16:18:36.001Z</time></trkpt><trkpt lat="38.67540771410013" lon="16.099909739275486"><ele>473.0</ele><time>2026-04-12T16:18:37.001Z</time></trkpt><trkpt lat="38.67537813812487" lon="16.099990936897463"><ele>472.79999999999995</ele><time>2026-04-12T16:18:38.001Z</time></trkpt><trkpt lat="38.67534734561704" lon="16.100068622983304"><ele>472.59999999999997</ele><time>2026-04-12T16:18:39.001Z</time></trkpt><trkpt lat="38.67529637410219" lon="16.10020443808413"><ele>472.40000000000003</ele><time>2026-04-12T16:18:41.001Z</time></trkpt><trkpt lat="38.67524970356531" lon="16.100333325897555"><ele>472.20000000000005</ele><time>2026-04-12T16:18:43Z</time></trkpt><trkpt lat="38.67521195090453" lon="16.100455199394805"><ele>472.0</ele><time>2026-04-12T16:18:45Z</time></trkpt><trkpt lat="38.675194125441415" lon="16.10054251863663"><ele>471.6</ele><time>2026-04-12T16:18:47Z</time></trkpt><trkpt lat="38.67515154303504" lon="16.100642606201802"><ele>471.20000000000005</ele><time>2026-04-12T16:18:50Z</time></trkpt><trkpt lat="38.67529915704164" lon="16.10078203627948"><ele>470.8</ele><time>2026-04-12T16:18:52Z</time></trkpt><trkpt lat="38.67534575267135" lon="16.100836831993014"><ele>470.4</ele><time>2026-04-12T16:18:53Z</time></trkpt><trkpt lat="38.675405193770665" lon="16.10086851816767"><ele>470.0</ele><time>2026-04-12T16:18:54Z</time></trkpt><trkpt lat="38.675462208244525" lon="16.100909556456745"><ele>469.99999999999994</ele><time>2026-04-12T16:18:55Z</time></trkpt><trkpt lat="38.67552374166721" lon="16.10095380537938"><ele>470.0</ele><time>2026-04-12T16:18:56Z</time></trkpt><trkpt lat="38.675586097405095" lon="16.101000679075593"><ele>470.0</ele><time>2026-04-12T16:18:57Z</time></trkpt><trkpt lat="38.67565197036835" lon="16.101043868266622"><ele>470.0</ele><time>2026-04-12T16:18:58Z</time></trkpt><trkpt lat="38.67571979941703" lon="16.101084117536132"><ele>469.99999999999994</ele><time>2026-04-12T16:18:59Z</time></trkpt><trkpt lat="38.67578363886794" lon="16.101124793439514"><ele>470.0</ele><time>2026-04-12T16:19:00Z</time></trkpt><trkpt lat="38.675889511182994" lon="16.101203278625007"><ele>470.0</ele><time>2026-04-12T16:19:02Z</time></trkpt><trkpt lat="38.675982849371096" lon="16.10126554717442"><ele>470.0</ele><time>2026-04-12T16:19:04Z</time></trkpt><trkpt lat="38.67606576784824" lon="16.101326783906153"><ele>470.0</ele><time>2026-04-12T16:19:07Z</time></trkpt><trkpt lat="38.6761437575882" lon="16.101385116874237"><ele>470.0</ele><time>2026-04-12T16:19:09Z</time></trkpt><trkpt lat="38.67628471900678" lon="16.10147949195662"><ele>469.5</ele><time>2026-04-12T16:19:11Z</time></trkpt><trkpt lat="38.67639411736816" lon="16.101541417154188"><ele>469.0</ele><time>2026-04-12T16:19:12Z</time></trkpt><trkpt lat="38.67651814664245" lon="16.101626263586084"><ele>468.5</ele><time>2026-04-12T16:19:13Z</time></trkpt><trkpt lat="38.67665899001782" lon="16.101738712539394"><ele>468.0</ele><time>2026-04-12T16:19:14Z</time></trkpt><trkpt lat="38.67680638979025" lon="16.10184752179976"><ele>469.0</ele><time>2026-04-12T16:19:15Z</time></trkpt><trkpt lat="38.676933580810655" lon="16.101941705311337"><ele>470.0</ele><time>2026-04-12T16:19:16Z</time></trkpt><trkpt lat="38.67705393187754" lon="16.10202495089884"><ele>471.0</ele><time>2026-04-12T16:19:17Z</time></trkpt><trkpt lat="38.677162503644155" lon="16.102098708511445"><ele>472.0</ele><time>2026-04-12T16:19:18Z</time></trkpt><trkpt lat="38.67725656004464" lon="16.10215584937537"><ele>472.1666666666667</ele><time>2026-04-12T16:19:19Z</time></trkpt><trkpt lat="38.67732669202569" lon="16.102202388331794"><ele>472.33333333333337</ele><time>2026-04-12T16:19:20Z</time></trkpt><trkpt lat="38.67741684588339" lon="16.10226685329134"><ele>472.5</ele><time>2026-04-12T16:19:22Z</time></trkpt><trkpt lat="38.67749010299635" lon="16.10229829001585"><ele>472.66666666666663</ele><time>2026-04-12T16:19:25Z</time></trkpt><trkpt lat="38.67755202209542" lon="16.10233806993442"><ele>472.8333333333333</ele><time>2026-04-12T16:19:28Z</time></trkpt><trkpt lat="38.67762671571008" lon="16.102382147879954"><ele>473.0</ele><time>2026-04-12T16:19:31Z</time></trkpt><trkpt lat="38.67769746814078" lon="16.10244054844527"><ele>473.59999999999997</ele><time>2026-04-12T16:19:34Z</time></trkpt><trkpt lat="38.677776068060595" lon="16.102504905313424"><ele>474.19999999999993</ele><time>2026-04-12T16:19:39Z</time></trkpt><trkpt lat="38.67783871571478" lon="16.102542693352586"><ele>474.8</ele><time>2026-04-12T16:19:41.001Z</time></trkpt><trkpt lat="38.677896778539626" lon="16.10258180286781"><ele>475.4</ele><time>2026-04-12T16:19:43.001Z</time></trkpt><trkpt lat="38.67802782138851" lon="16.10267943921503"><ele>476.0</ele><time>2026-04-12T16:19:45.001Z</time></trkpt><trkpt lat="38.67811520051421" lon="16.10274114525937"><ele>475.99999999999994</ele><time>2026-04-12T16:19:46.001Z</time></trkpt><trkpt lat="38.67819121793969" lon="16.10279482904687"><ele>476.0</ele><time>2026-04-12T16:19:47.001Z</time></trkpt><trkpt lat="38.67826106157396" lon="16.10282697938164"><ele>476.0</ele><time>2026-04-12T16:19:48.001Z</time></trkpt><trkpt lat="38.67833881582886" lon="16.102885782691246"><ele>476.0</ele><time>2026-04-12T16:19:50.001Z</time></trkpt><trkpt lat="38.67841554880978" lon="16.10293205046872"><ele>475.99999999999994</ele><time>2026-04-12T16:19:52.001Z</time></trkpt><trkpt lat="38.67850399025673" lon="16.102901289620142"><ele>476.0</ele><time>2026-04-12T16:19:54.001Z</time></trkpt><trkpt lat="38.67855718578771" lon="16.102837680729674"><ele>475.99999999999994</ele><time>2026-04-12T16:19:55.001Z</time></trkpt><trkpt lat="38.678595351583056" lon="16.102756922623662"><ele>476.0</ele><time>2026-04-12T16:19:56.001Z</time></trkpt><trkpt lat="38.678630766398655" lon="16.102665987138565"><ele>476.0</ele><time>2026-04-12T16:19:57.001Z</time></trkpt><trkpt lat="38.67866628821024" lon="16.102572311706858"><ele>476.0</ele><time>2026-04-12T16:19:58.001Z</time></trkpt><trkpt lat="38.678702669462126" lon="16.102485980157994"><ele>475.99999999999994</ele><time>2026-04-12T16:19:59.001Z</time></trkpt><trkpt lat="38.67873733879868" lon="16.102413154131042"><ele>476.0</ele><time>2026-04-12T16:20:00.001Z</time></trkpt><trkpt lat="38.678785856278644" lon="16.102313467331616"><ele>474.99999999999994</ele><time>2026-04-12T16:20:02.001Z</time></trkpt><trkpt lat="38.67883995793536" lon="16.102244572707207"><ele>474.0</ele><time>2026-04-12T16:20:04.001Z</time></trkpt><trkpt lat="38.67891152303702" lon="16.1022319808779"><ele>473.0</ele><time>2026-04-12T16:20:06.001Z</time></trkpt><trkpt lat="38.67897655114271" lon="16.10225349984953"><ele>472.0</ele><time>2026-04-12T16:20:08.001Z</time></trkpt><trkpt lat="38.679036654296695" lon="16.102302301459"><ele>470.99999999999994</ele><time>2026-04-12T16:20:10.001Z</time></trkpt><trkpt lat="38.67912737591441" lon="16.10240574295544"><ele>470.0</ele><time>2026-04-12T16:20:12.001Z</time></trkpt><trkpt lat="38.679186916370924" lon="16.102470528385567"><ele>470.0</ele><time>2026-04-12T16:20:13.001Z</time></trkpt><trkpt lat="38.679253065825215" lon="16.10254693553209"><ele>470.0</ele><time>2026-04-12T16:20:14.001Z</time></trkpt><trkpt lat="38.679326183294705" lon="16.102634216289115"><ele>470.0</ele><time>2026-04-12T16:20:15.001Z</time></trkpt><trkpt lat="38.67941405086529" lon="16.102733418925578"><ele>470.0</ele><time>2026-04-12T16:20:16.001Z</time></trkpt><trkpt lat="38.679507116811585" lon="16.102837694526812"><ele>470.0</ele><time>2026-04-12T16:20:17.001Z</time></trkpt><trkpt lat="38.67961197962769" lon="16.102947061413218"><ele>469.25</ele><time>2026-04-12T16:20:18.001Z</time></trkpt><trkpt lat="38.679724172499135" lon="16.10306033182616"><ele>468.5</ele><time>2026-04-12T16:20:19.001Z</time></trkpt><trkpt lat="38.679838734707836" lon="16.103175078828496"><ele>467.75</ele><time>2026-04-12T16:20:20.001Z</time></trkpt><trkpt lat="38.67995352857747" lon="16.10329129198459"><ele>467.0</ele><time>2026-04-12T16:20:21.001Z</time></trkpt><trkpt lat="38.68006638702595" lon="16.103406617760605"><ele>467.0</ele><time>2026-04-12T16:20:22.001Z</time></trkpt><trkpt lat="38.680171649346384" lon="16.10352454382324"><ele>467.0</ele><time>2026-04-12T16:20:23.001Z</time></trkpt><trkpt lat="38.68027570715791" lon="16.10363966779624"><ele>467.0</ele><time>2026-04-12T16:20:24.001Z</time></trkpt><trkpt lat="38.680366511762465" lon="16.10375382098289"><ele>467.0</ele><time>2026-04-12T16:20:25.001Z</time></trkpt><trkpt lat="38.680453052624166" lon="16.103865716714548"><ele>467.20000000000005</ele><time>2026-04-12T16:20:26.001Z</time></trkpt><trkpt lat="38.680530692616024" lon="16.10397887898407"><ele>467.40000000000003</ele><time>2026-04-12T16:20:27.001Z</time></trkpt><trkpt lat="38.68060081084008" lon="16.104083921825247"><ele>467.59999999999997</ele><time>2026-04-12T16:20:28.001Z</time></trkpt><trkpt lat="38.68066268442581" lon="16.10418382519797"><ele>467.79999999999995</ele><time>2026-04-12T16:20:29.001Z</time></trkpt><trkpt lat="38.68071780135837" lon="16.104282973335426"><ele>468.0</ele><time>2026-04-12T16:20:30.001Z</time></trkpt><trkpt lat="38.68076896565251" lon="16.10438201717725"><ele>468.0</ele><time>2026-04-12T16:20:31.001Z</time></trkpt><trkpt lat="38.68082065180193" lon="16.104486370782222"><ele>467.99999999999994</ele><time>2026-04-12T16:20:32.001Z</time></trkpt><trkpt lat="38.68087075339663" lon="16.104583814211512"><ele>467.99999999999994</ele><time>2026-04-12T16:20:33.001Z</time></trkpt><trkpt lat="38.680921555243195" lon="16.104683183347422"><ele>468.0</ele><time>2026-04-12T16:20:34.001Z</time></trkpt><trkpt lat="38.68097195655609" lon="16.104780869787103"><ele>468.0</ele><time>2026-04-12T16:20:35.001Z</time></trkpt><trkpt lat="38.68102791176427" lon="16.104876373675303"><ele>468.0</ele><time>2026-04-12T16:20:36.001Z</time></trkpt><trkpt lat="38.68108167598979" lon="16.10497216424896"><ele>468.0</ele><time>2026-04-12T16:20:37.001Z</time></trkpt><trkpt lat="38.681147503295264" lon="16.10506068401419"><ele>468.0</ele><time>2026-04-12T16:20:38.001Z</time></trkpt><trkpt lat="38.68120655521889" lon="16.105142449841196"><ele>468.0</ele><time>2026-04-12T16:20:39.001Z</time></trkpt><trkpt lat="38.68126817532332" lon="16.1052197086196"><ele>468.0</ele><time>2026-04-12T16:20:40.001Z</time></trkpt><trkpt lat="38.68132163187557" lon="16.10527845198603"><ele>468.0</ele><time>2026-04-12T16:20:41.001Z</time></trkpt><trkpt lat="38.681375967437255" lon="16.105335340400238"><ele>468.4</ele><time>2026-04-12T16:20:42.001Z</time></trkpt><trkpt lat="38.68142343713628" lon="16.1054192033977"><ele>468.79999999999995</ele><time>2026-04-12T16:20:44.001Z</time></trkpt><trkpt lat="38.681475214241246" lon="16.10547735359588"><ele>469.2</ele><time>2026-04-12T16:20:46.001Z</time></trkpt><trkpt lat="38.68158051796795" lon="16.105557347093367"><ele>469.6</ele><time>2026-04-12T16:21:20Z</time></trkpt><trkpt lat="38.681664993467855" lon="16.105630973199702"><ele>470.0</ele><time>2026-04-12T16:21:21Z</time></trkpt><trkpt lat="38.681765277903146" lon="16.105700786621366"><ele>470.0</ele><time>2026-04-12T16:21:22Z</time></trkpt><trkpt lat="38.68186335328534" lon="16.105777212506975"><ele>470.0</ele><time>2026-04-12T16:21:23Z</time></trkpt><trkpt lat="38.681963166159505" lon="16.105846681835086"><ele>470.0</ele><time>2026-04-12T16:21:24Z</time></trkpt><trkpt lat="38.68205971711775" lon="16.105910530185806"><ele>470.0</ele><time>2026-04-12T16:21:25Z</time></trkpt><trkpt lat="38.6821577144088" lon="16.105974345857824"><ele>470.0</ele><time>2026-04-12T16:21:26Z</time></trkpt><trkpt lat="38.682261459578235" lon="16.106036732513516"><ele>470.8</ele><time>2026-04-12T16:21:27Z</time></trkpt><trkpt lat="38.682360442827836" lon="16.10609715615039"><ele>471.6</ele><time>2026-04-12T16:21:28Z</time></trkpt><trkpt lat="38.68245835101782" lon="16.106153496682516"><ele>472.4</ele><time>2026-04-12T16:21:29Z</time></trkpt><trkpt lat="38.68255080441252" lon="16.10621594503763"><ele>473.2</ele><time>2026-04-12T16:21:30Z</time></trkpt><trkpt lat="38.68264970031994" lon="16.106274108356615"><ele>474.0</ele><time>2026-04-12T16:21:31Z</time></trkpt><trkpt lat="38.6827500560715" lon="16.106330855515598"><ele>473.75</ele><time>2026-04-12T16:21:32Z</time></trkpt><trkpt lat="38.68285633320456" lon="16.10640065568497"><ele>473.5</ele><time>2026-04-12T16:21:33Z</time></trkpt><trkpt lat="38.682966817846825" lon="16.106474685313014"><ele>473.25</ele><time>2026-04-12T16:21:34Z</time></trkpt><trkpt lat="38.68307875451858" lon="16.106547219756774"><ele>473.0</ele><time>2026-04-12T16:21:35Z</time></trkpt><trkpt lat="38.68318253673053" lon="16.10661211170613"><ele>473.79999999999995</ele><time>2026-04-12T16:21:36Z</time></trkpt><trkpt lat="38.68326796603182" lon="16.106666750387603"><ele>474.59999999999997</ele><time>2026-04-12T16:21:37Z</time></trkpt><trkpt lat="38.68334906949326" lon="16.10672101682236"><ele>475.40000000000003</ele><time>2026-04-12T16:21:38Z</time></trkpt><trkpt lat="38.68344352712624" lon="16.106780780754917"><ele>476.20000000000005</ele><time>2026-04-12T16:21:39Z</time></trkpt><trkpt lat="38.68355748966659" lon="16.106851253494458"><ele>477.0</ele><time>2026-04-12T16:21:40Z</time></trkpt><trkpt lat="38.68367919642041" lon="16.10693380558932"><ele>477.0</ele><time>2026-04-12T16:21:41Z</time></trkpt><trkpt lat="38.683798128780985" lon="16.107013633230167"><ele>477.0</ele><time>2026-04-12T16:21:42Z</time></trkpt><trkpt lat="38.68392075056627" lon="16.107087524196256"><ele>477.0</ele><time>2026-04-12T16:21:43Z</time></trkpt><trkpt lat="38.68403830539299" lon="16.10715965421474"><ele>477.0</ele><time>2026-04-12T16:21:44Z</time></trkpt><trkpt lat="38.68415337316183" lon="16.107229548211386"><ele>477.0</ele><time>2026-04-12T16:21:45Z</time></trkpt><trkpt lat="38.684270226223" lon="16.107303450154568"><ele>477.0</ele><time>2026-04-12T16:21:46Z</time></trkpt><trkpt lat="38.68438512458064" lon="16.107380497278108"><ele>477.0</ele><time>2026-04-12T16:21:47Z</time></trkpt><trkpt lat="38.68449859870297" lon="16.107452376808016"><ele>477.0</ele><time>2026-04-12T16:21:48Z</time></trkpt><trkpt lat="38.6846084341936" lon="16.107514709755325"><ele>478.20000000000005</ele><time>2026-04-12T16:21:49Z</time></trkpt><trkpt lat="38.68471073753126" lon="16.107581061378884"><ele>479.40000000000003</ele><time>2026-04-12T16:21:50Z</time></trkpt><trkpt lat="38.6847979155308" lon="16.107638499156696"><ele>480.59999999999997</ele><time>2026-04-12T16:21:51Z</time></trkpt><trkpt lat="38.68487406391391" lon="16.107691297891275"><ele>481.79999999999995</ele><time>2026-04-12T16:21:52Z</time></trkpt><trkpt lat="38.68494985312279" lon="16.10773830790056"><ele>483.0</ele><time>2026-04-12T16:21:53.001Z</time></trkpt><trkpt lat="38.685025128697575" lon="16.107786860352807"><ele>483.0</ele><time>2026-04-12T16:21:54.001Z</time></trkpt><trkpt lat="38.68510349092764" lon="16.107840319606794"><ele>482.99999999999994</ele><time>2026-04-12T16:21:55.001Z</time></trkpt><trkpt lat="38.68518565525963" lon="16.10790571504032"><ele>482.99999999999994</ele><time>2026-04-12T16:21:56.001Z</time></trkpt><trkpt lat="38.68527746130423" lon="16.107959132823453"><ele>483.0</ele><time>2026-04-12T16:21:57.001Z</time></trkpt><trkpt lat="38.68537599190664" lon="16.108016014515282"><ele>483.0</ele><time>2026-04-12T16:21:58.001Z</time></trkpt><trkpt lat="38.68548614308968" lon="16.10807762932377"><ele>483.75</ele><time>2026-04-12T16:21:59.001Z</time></trkpt><trkpt lat="38.685595566947235" lon="16.10816455420613"><ele>484.5</ele><time>2026-04-12T16:22:00.001Z</time></trkpt><trkpt lat="38.68570266743102" lon="16.10826737875067"><ele>485.25</ele><time>2026-04-12T16:22:01.001Z</time></trkpt><trkpt lat="38.68580451578237" lon="16.10837635402416"><ele>486.0</ele><time>2026-04-12T16:22:02.001Z</time></trkpt><trkpt lat="38.68589939500706" lon="16.108491263656166"><ele>486.0</ele><time>2026-04-12T16:22:03.001Z</time></trkpt><trkpt lat="38.68599291684442" lon="16.108615664957938"><ele>486.0</ele><time>2026-04-12T16:22:04.001Z</time></trkpt><trkpt lat="38.686062430535095" lon="16.10876867824191"><ele>486.0</ele><time>2026-04-12T16:22:05.001Z</time></trkpt><trkpt lat="38.68612708802945" lon="16.108919254680814"><ele>486.0</ele><time>2026-04-12T16:22:06.001Z</time></trkpt><trkpt lat="38.686173966356016" lon="16.109079364511935"><ele>483.5</ele><time>2026-04-12T16:22:07.001Z</time></trkpt><trkpt lat="38.686204794588846" lon="16.109242566359505"><ele>481.0</ele><time>2026-04-12T16:22:08.001Z</time></trkpt><trkpt lat="38.68622757165283" lon="16.10940293007149"><ele>478.5</ele><time>2026-04-12T16:22:09.001Z</time></trkpt><trkpt lat="38.68624592435853" lon="16.10955687169014"><ele>476.0</ele><time>2026-04-12T16:22:10.001Z</time></trkpt><trkpt lat="38.68625287360985" lon="16.1097160793661"><ele>476.0</ele><time>2026-04-12T16:22:11.001Z</time></trkpt><trkpt lat="38.6862490465132" lon="16.10987209308439"><ele>476.0</ele><time>2026-04-12T16:22:12.001Z</time></trkpt><trkpt lat="38.686220405768935" lon="16.110037300068594"><ele>476.0</ele><time>2026-04-12T16:22:13.001Z</time></trkpt><trkpt lat="38.68620462269751" lon="16.11017876856024"><ele>476.0</ele><time>2026-04-12T16:22:14.001Z</time></trkpt><trkpt lat="38.686175046711696" lon="16.110316851651614"><ele>477.0</ele><time>2026-04-12T16:22:15.001Z</time></trkpt><trkpt lat="38.68613427757257" lon="16.110429828277645"><ele>478.0</ele><time>2026-04-12T16:22:16.001Z</time></trkpt><trkpt lat="38.686088964900286" lon="16.11055250925121"><ele>479.0</ele><time>2026-04-12T16:22:17.001Z</time></trkpt><trkpt lat="38.68602804775789" lon="16.110656824553747"><ele>480.0</ele><time>2026-04-12T16:22:18.001Z</time></trkpt><trkpt lat="38.685965377087655" lon="16.11079050104597"><ele>481.0</ele><time>2026-04-12T16:22:19.001Z</time></trkpt><trkpt lat="38.685897541986" lon="16.110898152999766"><ele>484.4</ele><time>2026-04-12T16:22:20.001Z</time></trkpt><trkpt lat="38.685826457578905" lon="16.110997714643467"><ele>487.8</ele><time>2026-04-12T16:22:21.001Z</time></trkpt><trkpt lat="38.68574896244639" lon="16.111084745537124"><ele>491.19999999999993</ele><time>2026-04-12T16:22:22.001Z</time></trkpt><trkpt lat="38.685673845395776" lon="16.111161058392643"><ele>494.59999999999997</ele><time>2026-04-12T16:22:23.001Z</time></trkpt><trkpt lat="38.68557996646551" lon="16.11124423506545"><ele>498.0</ele><time>2026-04-12T16:22:24.001Z</time></trkpt><trkpt lat="38.685472963367054" lon="16.11129979892591"><ele>498.0</ele><time>2026-04-12T16:22:25.001Z</time></trkpt><trkpt lat="38.68538129904751" lon="16.111380144569083"><ele>497.99999999999994</ele><time>2026-04-12T16:22:26.001Z</time></trkpt><trkpt lat="38.685283928064294" lon="16.111434460051903"><ele>497.99999999999994</ele><time>2026-04-12T16:22:27.001Z</time></trkpt><trkpt lat="38.68519698100751" lon="16.111492983573868"><ele>498.0</ele><time>2026-04-12T16:22:28.001Z</time></trkpt><trkpt lat="38.68509016472892" lon="16.111552662233606"><ele>498.0</ele><time>2026-04-12T16:22:29.001Z</time></trkpt><trkpt lat="38.684985693660295" lon="16.111624033208564"><ele>497.8333333333333</ele><time>2026-04-12T16:22:30.001Z</time></trkpt><trkpt lat="38.68488584155081" lon="16.11168242924874"><ele>497.66666666666663</ele><time>2026-04-12T16:22:31.001Z</time></trkpt><trkpt lat="38.68480213555421" lon="16.111731052283766"><ele>497.5</ele><time>2026-04-12T16:22:32.001Z</time></trkpt><trkpt lat="38.68473609829317" lon="16.111776030265272"><ele>497.3333333333333</ele><time>2026-04-12T16:22:33.001Z</time></trkpt><trkpt lat="38.684679683444415" lon="16.111814901112723"><ele>497.16666666666663</ele><time>2026-04-12T16:22:34.001Z</time></trkpt><trkpt lat="38.684622811938475" lon="16.11185208498099"><ele>497.0</ele><time>2026-04-12T16:22:35.001Z</time></trkpt><trkpt lat="38.684557272279875" lon="16.11189898757964"><ele>497.0</ele><time>2026-04-12T16:22:36.001Z</time></trkpt><trkpt lat="38.6844683818399" lon="16.111931525376317"><ele>497.0</ele><time>2026-04-12T16:22:37.001Z</time></trkpt><trkpt lat="38.68435940661994" lon="16.111999957973328"><ele>497.0</ele><time>2026-04-12T16:22:38.001Z</time></trkpt><trkpt lat="38.684229327021384" lon="16.112081643404558"><ele>497.0</ele><time>2026-04-12T16:22:39.001Z</time></trkpt><trkpt lat="38.68410679785053" lon="16.11215858748626"><ele>497.6</ele><time>2026-04-12T16:22:40.001Z</time></trkpt><trkpt lat="38.68397360953142" lon="16.11224783063258"><ele>498.20000000000005</ele><time>2026-04-12T16:22:41.001Z</time></trkpt><trkpt lat="38.6838757717237" lon="16.112319253931634"><ele>498.8</ele><time>2026-04-12T16:22:42.001Z</time></trkpt><trkpt lat="38.68380494646445" lon="16.11239681768636"><ele>499.4</ele><time>2026-04-12T16:22:43.001Z</time></trkpt><trkpt lat="38.68374647879629" lon="16.112439301358183"><ele>500.0</ele><time>2026-04-12T16:22:44.001Z</time></trkpt><trkpt lat="38.683692772527046" lon="16.112485059685323"><ele>499.3333333333333</ele><time>2026-04-12T16:22:45.001Z</time></trkpt><trkpt lat="38.68363437486853" lon="16.112561921714487"><ele>498.66666666666663</ele><time>2026-04-12T16:22:47.001Z</time></trkpt><trkpt lat="38.68358028897927" lon="16.11262060762958"><ele>498.0</ele><time>2026-04-12T16:22:49.001Z</time></trkpt><trkpt lat="38.6835183647228" lon="16.11266705784379"><ele>497.33333333333337</ele><time>2026-04-12T16:23:41Z</time></trkpt><trkpt lat="38.68345147846381" lon="16.112747404406505"><ele>496.6666666666667</ele><time>2026-04-12T16:23:42Z</time></trkpt><trkpt lat="38.68339556152353" lon="16.11287506190449"><ele>496.0</ele><time>2026-04-12T16:23:43Z</time></trkpt><trkpt lat="38.68334258599446" lon="16.11302569684451"><ele>496.0</ele><time>2026-04-12T16:23:44Z</time></trkpt><trkpt lat="38.68330030124354" lon="16.11320248229814"><ele>496.0</ele><time>2026-04-12T16:23:45Z</time></trkpt><trkpt lat="38.68326678500682" lon="16.113398391499803"><ele>496.0</ele><time>2026-04-12T16:23:46Z</time></trkpt><trkpt lat="38.68324476986587" lon="16.113609320709905"><ele>496.0</ele><time>2026-04-12T16:23:47Z</time></trkpt><trkpt lat="38.683238906036024" lon="16.113832164239355"><ele>496.0</ele><time>2026-04-12T16:23:48Z</time></trkpt><trkpt lat="38.68325342181944" lon="16.11406679143873"><ele>496.0</ele><time>2026-04-12T16:23:49Z</time></trkpt><trkpt lat="38.6832904969782" lon="16.114303973991582"><ele>496.0</ele><time>2026-04-12T16:23:50.001Z</time></trkpt><trkpt lat="38.68335023758474" lon="16.1145371769197"><ele>496.0</ele><time>2026-04-12T16:23:51.001Z</time></trkpt><trkpt lat="38.68343282988855" lon="16.114769889872704"><ele>496.0</ele><time>2026-04-12T16:23:52.001Z</time></trkpt><trkpt lat="38.68351607854296" lon="16.114991878712978"><ele>494.33333333333337</ele><time>2026-04-12T16:23:53.001Z</time></trkpt><trkpt lat="38.683608147261914" lon="16.115205643227277"><ele>492.66666666666663</ele><time>2026-04-12T16:23:54.001Z</time></trkpt><trkpt lat="38.68369231063655" lon="16.115410698580998"><ele>491.0</ele><time>2026-04-12T16:23:55.001Z</time></trkpt><trkpt lat="38.68376820401959" lon="16.115604113232383"><ele>493.75</ele><time>2026-04-12T16:23:56.001Z</time></trkpt><trkpt lat="38.683841703149795" lon="16.115779309420986"><ele>496.5</ele><time>2026-04-12T16:23:57.001Z</time></trkpt><trkpt lat="38.68390956111429" lon="16.115945521731618"><ele>499.25</ele><time>2026-04-12T16:23:58.001Z</time></trkpt><trkpt lat="38.683972858200065" lon="16.116109149370676"><ele>502.0</ele><time>2026-04-12T16:23:59.001Z</time></trkpt><trkpt lat="38.68403120849852" lon="16.116268300823993"><ele>502.0</ele><time>2026-04-12T16:24:00.001Z</time></trkpt><trkpt lat="38.68409219325765" lon="16.11641387876838"><ele>502.0</ele><time>2026-04-12T16:24:01.001Z</time></trkpt><trkpt lat="38.68415175950824" lon="16.116552449510788"><ele>502.0</ele><time>2026-04-12T16:24:02.001Z</time></trkpt><trkpt lat="38.68420720672028" lon="16.116683614137553"><ele>502.0</ele><time>2026-04-12T16:24:03.001Z</time></trkpt><trkpt lat="38.68425843254724" lon="16.116804883490577"><ele>502.20000000000005</ele><time>2026-04-12T16:24:04.001Z</time></trkpt><trkpt lat="38.68429950561949" lon="16.11691585452026"><ele>502.40000000000003</ele><time>2026-04-12T16:24:05.001Z</time></trkpt><trkpt lat="38.684340253639526" lon="16.11702212262335"><ele>502.59999999999997</ele><time>2026-04-12T16:24:06.001Z</time></trkpt><trkpt lat="38.6843852988921" lon="16.1171319530371"><ele>502.79999999999995</ele><time>2026-04-12T16:24:07.001Z</time></trkpt><trkpt lat="38.68445514141369" lon="16.1172645443959"><ele>503.0</ele><time>2026-04-12T16:24:08.001Z</time></trkpt><trkpt lat="38.684528037745324" lon="16.117440485540726"><ele>499.0</ele><time>2026-04-12T16:24:09.001Z</time></trkpt><trkpt lat="38.684601106022335" lon="16.117633819659954"><ele>495.0</ele><time>2026-04-12T16:24:10.001Z</time></trkpt><trkpt lat="38.68468061965608" lon="16.117839864080004"><ele>491.0</ele><time>2026-04-12T16:24:11.001Z</time></trkpt><trkpt lat="38.68476757498993" lon="16.11805742147478"><ele>492.66666666666663</ele><time>2026-04-12T16:24:12.001Z</time></trkpt><trkpt lat="38.68486982286794" lon="16.11828752456982"><ele>494.33333333333337</ele><time>2026-04-12T16:24:13.001Z</time></trkpt><trkpt lat="38.68496758887056" lon="16.118533240457456"><ele>496.0</ele><time>2026-04-12T16:24:14.001Z</time></trkpt><trkpt lat="38.685068488167076" lon="16.118790286441588"><ele>496.0</ele><time>2026-04-12T16:24:15.001Z</time></trkpt><trkpt lat="38.68517665572669" lon="16.119054173676613"><ele>496.0</ele><time>2026-04-12T16:24:16.001Z</time></trkpt><trkpt lat="38.685285916063386" lon="16.119321782117133"><ele>495.33333333333337</ele><time>2026-04-12T16:24:17.001Z</time></trkpt><trkpt lat="38.685386451872304" lon="16.119574106954037"><ele>494.66666666666663</ele><time>2026-04-12T16:24:18.001Z</time></trkpt><trkpt lat="38.68547767520012" lon="16.119806484708484"><ele>494.0</ele><time>2026-04-12T16:24:19.001Z</time></trkpt><trkpt lat="38.685560357064645" lon="16.120025476802358"><ele>494.0</ele><time>2026-04-12T16:24:20.001Z</time></trkpt><trkpt lat="38.68563990785053" lon="16.120238460775404"><ele>494.0</ele><time>2026-04-12T16:24:21.001Z</time></trkpt><trkpt lat="38.68571670931979" lon="16.12043869466995"><ele>494.0</ele><time>2026-04-12T16:24:22.001Z</time></trkpt><trkpt lat="38.68579035184015" lon="16.120633598627737"><ele>494.3333333333333</ele><time>2026-04-12T16:24:23.001Z</time></trkpt><trkpt lat="38.68586389347027" lon="16.12082152735586"><ele>494.66666666666663</ele><time>2026-04-12T16:24:24.001Z</time></trkpt><trkpt lat="38.685935362458025" lon="16.1210068551157"><ele>495.0</ele><time>2026-04-12T16:24:25.001Z</time></trkpt><trkpt lat="38.686003939412224" lon="16.121181823693963"><ele>495.0</ele><time>2026-04-12T16:24:26.001Z</time></trkpt><trkpt lat="38.68606354035886" lon="16.12134567333733"><ele>495.0</ele><time>2026-04-12T16:24:27.001Z</time></trkpt><trkpt lat="38.686110147600544" lon="16.121498808130514"><ele>495.0</ele><time>2026-04-12T16:24:28.001Z</time></trkpt><trkpt lat="38.68613970795343" lon="16.12164891903522"><ele>495.0</ele><time>2026-04-12T16:24:29.001Z</time></trkpt><trkpt lat="38.68615047713982" lon="16.121796529411206"><ele>492.0</ele><time>2026-04-12T16:24:30.001Z</time></trkpt><trkpt lat="38.68618522258543" lon="16.121918795315462"><ele>489.0</ele><time>2026-04-12T16:24:31.001Z</time></trkpt><trkpt lat="38.686263061232296" lon="16.122010600817266"><ele>486.0</ele><time>2026-04-12T16:24:32.001Z</time></trkpt><trkpt lat="38.68635992998513" lon="16.122092024881514"><ele>483.0</ele><time>2026-04-12T16:24:33.001Z</time></trkpt><trkpt lat="38.68644424340582" lon="16.12221261778091"><ele>483.0</ele><time>2026-04-12T16:24:34.001Z</time></trkpt><trkpt lat="38.68650718761562" lon="16.122366075715863"><ele>483.0</ele><time>2026-04-12T16:24:35.001Z</time></trkpt><trkpt lat="38.68657763670191" lon="16.122537481449"><ele>483.0</ele><time>2026-04-12T16:24:36.001Z</time></trkpt><trkpt lat="38.686659387185095" lon="16.122723748227884"><ele>483.66666666666663</ele><time>2026-04-12T16:24:37.001Z</time></trkpt><trkpt lat="38.68674132039005" lon="16.12292546252997"><ele>484.3333333333333</ele><time>2026-04-12T16:24:38.001Z</time></trkpt><trkpt lat="38.6868208753267" lon="16.123122505276147"><ele>485.0</ele><time>2026-04-12T16:24:39.001Z</time></trkpt><trkpt lat="38.68690613071525" lon="16.123322983462096"><ele>482.66666666666663</ele><time>2026-04-12T16:24:40.001Z</time></trkpt><trkpt lat="38.68698660421591" lon="16.123529803920125"><ele>480.33333333333337</ele><time>2026-04-12T16:24:41.001Z</time></trkpt><trkpt lat="38.68707079110739" lon="16.123738422820068"><ele>478.0</ele><time>2026-04-12T16:24:42.001Z</time></trkpt><trkpt lat="38.687154355548884" lon="16.12394175692173"><ele>479.0</ele><time>2026-04-12T16:24:43.001Z</time></trkpt><trkpt lat="38.687236761756196" lon="16.12414937848828"><ele>480.0</ele><time>2026-04-12T16:24:44.001Z</time></trkpt><trkpt lat="38.687322533876305" lon="16.124361232323718"><ele>481.0</ele><time>2026-04-12T16:24:45.001Z</time></trkpt><trkpt lat="38.68740996466788" lon="16.124577796993588"><ele>481.0</ele><time>2026-04-12T16:24:46.001Z</time></trkpt><trkpt lat="38.68749746595906" lon="16.124800734060344"><ele>481.0</ele><time>2026-04-12T16:24:47.001Z</time></trkpt><trkpt lat="38.68758223811569" lon="16.125020266046352"><ele>481.0</ele><time>2026-04-12T16:24:48.001Z</time></trkpt><trkpt lat="38.687663474101456" lon="16.125235986809226"><ele>481.6666666666667</ele><time>2026-04-12T16:24:49.001Z</time></trkpt><trkpt lat="38.68774780787522" lon="16.12544824296321"><ele>482.33333333333337</ele><time>2026-04-12T16:24:50.001Z</time></trkpt><trkpt lat="38.687833880547004" lon="16.12565079238973"><ele>483.0</ele><time>2026-04-12T16:24:51.001Z</time></trkpt><trkpt lat="38.68791372504532" lon="16.125839301556272"><ele>481.66666666666663</ele><time>2026-04-12T16:24:52.001Z</time></trkpt><trkpt lat="38.68798684304899" lon="16.126029874096876"><ele>480.3333333333333</ele><time>2026-04-12T16:24:53.001Z</time></trkpt><trkpt lat="38.688062204490194" lon="16.126209813963705"><ele>479.0</ele><time>2026-04-12T16:24:54.001Z</time></trkpt><trkpt lat="38.68813996097103" lon="16.126385807292035"><ele>479.0</ele><time>2026-04-12T16:24:55.001Z</time></trkpt><trkpt lat="38.6882248856515" lon="16.126549786609967"><ele>479.0</ele><time>2026-04-12T16:24:56.001Z</time></trkpt><trkpt lat="38.688317436646955" lon="16.12670339740862"><ele>479.0</ele><time>2026-04-12T16:24:57.001Z</time></trkpt><trkpt lat="38.68841773243832" lon="16.1268318232174"><ele>479.0</ele><time>2026-04-12T16:24:58.001Z</time></trkpt><trkpt lat="38.68852430095028" lon="16.126962121071447"><ele>479.5</ele><time>2026-04-12T16:24:59.001Z</time></trkpt><trkpt lat="38.68862656324992" lon="16.127066126945937"><ele>480.0</ele><time>2026-04-12T16:25:00.001Z</time></trkpt><trkpt lat="38.688728085270796" lon="16.127150269521994"><ele>480.5</ele><time>2026-04-12T16:25:01.001Z</time></trkpt><trkpt lat="38.68882842863107" lon="16.127221167018288"><ele>481.0</ele><time>2026-04-12T16:25:02.001Z</time></trkpt><trkpt lat="38.688928865069094" lon="16.127288190856532"><ele>481.0</ele><time>2026-04-12T16:25:03.001Z</time></trkpt><trkpt lat="38.68902451059915" lon="16.127357678259546"><ele>481.0</ele><time>2026-04-12T16:25:04.001Z</time></trkpt><trkpt lat="38.68912812379068" lon="16.12743194276842"><ele>481.0</ele><time>2026-04-12T16:25:05.001Z</time></trkpt><trkpt lat="38.68924347857059" lon="16.12749861485842"><ele>481.0</ele><time>2026-04-12T16:25:06Z</time></trkpt><trkpt lat="38.68936890864313" lon="16.12756520064398"><ele>479.75</ele><time>2026-04-12T16:25:07Z</time></trkpt><trkpt lat="38.689493702831584" lon="16.127644682600877"><ele>478.5</ele><time>2026-04-12T16:25:08Z</time></trkpt><trkpt lat="38.68961890872517" lon="16.127715548531885"><ele>477.25</ele><time>2026-04-12T16:25:09Z</time></trkpt><trkpt lat="38.68973548349008" lon="16.127786673748382"><ele>476.0</ele><time>2026-04-12T16:25:10Z</time></trkpt><trkpt lat="38.68984093190798" lon="16.12783862222028"><ele>475.99999999999994</ele><time>2026-04-12T16:25:11Z</time></trkpt><trkpt lat="38.689937778560505" lon="16.127892165088227"><ele>476.0</ele><time>2026-04-12T16:25:12Z</time></trkpt><trkpt lat="38.690028187146524" lon="16.127947032561053"><ele>476.0</ele><time>2026-04-12T16:25:13Z</time></trkpt><trkpt lat="38.6901041436601" lon="16.127997030727705"><ele>476.0</ele><time>2026-04-12T16:25:14Z</time></trkpt><trkpt lat="38.690171476333404" lon="16.128050512036214"><ele>475.99999999999994</ele><time>2026-04-12T16:25:15Z</time></trkpt><trkpt lat="38.69023123476978" lon="16.128115310219844"><ele>476.0</ele><time>2026-04-12T16:25:16Z</time></trkpt><trkpt lat="38.69027577029354" lon="16.128185888219683"><ele>474.66666666666663</ele><time>2026-04-12T16:25:17Z</time></trkpt><trkpt lat="38.690309827081244" lon="16.12831516781279"><ele>473.3333333333333</ele><time>2026-04-12T16:25:19Z</time></trkpt><trkpt lat="38.69031009845864" lon="16.128398720694914"><ele>472.0</ele><time>2026-04-12T16:25:20Z</time></trkpt><trkpt lat="38.690301180917395" lon="16.12849369022209"><ele>470.66666666666663</ele><time>2026-04-12T16:25:21Z</time></trkpt><trkpt lat="38.690309802499954" lon="16.128600983534294"><ele>469.3333333333333</ele><time>2026-04-12T16:25:22Z</time></trkpt><trkpt lat="38.69035529982354" lon="16.128693570225252"><ele>468.0</ele><time>2026-04-12T16:25:23Z</time></trkpt><trkpt lat="38.69041664070595" lon="16.12875949354005"><ele>468.0</ele><time>2026-04-12T16:25:24Z</time></trkpt><trkpt lat="38.69048818177946" lon="16.12879079567576"><ele>468.0</ele><time>2026-04-12T16:25:25Z</time></trkpt><trkpt lat="38.69056744227083" lon="16.128791218824137"><ele>468.0</ele><time>2026-04-12T16:25:26Z</time></trkpt><trkpt lat="38.69064277482582" lon="16.128755375707634"><ele>468.0</ele><time>2026-04-12T16:25:27Z</time></trkpt><trkpt lat="38.690700464762166" lon="16.12868932206587"><ele>468.0</ele><time>2026-04-12T16:25:28Z</time></trkpt><trkpt lat="38.690742655421175" lon="16.128602909718136"><ele>468.0</ele><time>2026-04-12T16:25:29Z</time></trkpt><trkpt lat="38.69077569897971" lon="16.12851291080232"><ele>468.0</ele><time>2026-04-12T16:25:30Z</time></trkpt><trkpt lat="38.69081856741309" lon="16.128428647606096"><ele>467.99999999999994</ele><time>2026-04-12T16:25:31Z</time></trkpt><trkpt lat="38.690886834696144" lon="16.128346619772472"><ele>467.99999999999994</ele><time>2026-04-12T16:25:32Z</time></trkpt><trkpt lat="38.690976521265256" lon="16.128277892189846"><ele>468.0</ele><time>2026-04-12T16:25:33Z</time></trkpt><trkpt lat="38.69108936862856" lon="16.128226533805652"><ele>468.0</ele><time>2026-04-12T16:25:34Z</time></trkpt><trkpt lat="38.69121346740827" lon="16.128205946096493"><ele>467.66666666666663</ele><time>2026-04-12T16:25:35Z</time></trkpt><trkpt lat="38.69137404138745" lon="16.128209142276283"><ele>467.3333333333333</ele><time>2026-04-12T16:25:36Z</time></trkpt><trkpt lat="38.691579233508826" lon="16.12823201434573"><ele>467.0</ele><time>2026-04-12T16:25:37Z</time></trkpt><trkpt lat="38.69182435392574" lon="16.128261977965437"><ele>469.0</ele><time>2026-04-12T16:25:38Z</time></trkpt><trkpt lat="38.692113607193356" lon="16.128295564674293"><ele>471.0</ele><time>2026-04-12T16:25:39.001Z</time></trkpt><trkpt lat="38.69244456444445" lon="16.128330732217243"><ele>472.0</ele><time>2026-04-12T16:25:40.001Z</time></trkpt><trkpt lat="38.692777530508216" lon="16.1283694153175"><ele>473.0</ele><time>2026-04-12T16:25:41.001Z</time></trkpt><trkpt lat="38.69308617739718" lon="16.12840672297569"><ele>473.0</ele><time>2026-04-12T16:25:42.001Z</time></trkpt><trkpt lat="38.69336948323195" lon="16.12843853447417"><ele>473.0</ele><time>2026-04-12T16:25:43.001Z</time></trkpt><trkpt lat="38.69363160261661" lon="16.12846102341778"><ele>474.5</ele><time>2026-04-12T16:25:44.001Z</time></trkpt><trkpt lat="38.6938836060044" lon="16.12849041448696"><ele>476.0</ele><time>2026-04-12T16:25:45.001Z</time></trkpt><trkpt lat="38.69412463970727" lon="16.128512948960914"><ele>476.0</ele><time>2026-04-12T16:25:46.001Z</time></trkpt><trkpt lat="38.694352046665124" lon="16.128540618012025"><ele>476.0</ele><time>2026-04-12T16:25:47.001Z</time></trkpt><trkpt lat="38.69457922889943" lon="16.1285808570526"><ele>475.0</ele><time>2026-04-12T16:25:48.001Z</time></trkpt><trkpt lat="38.69478976440986" lon="16.128651556043163"><ele>474.0</ele><time>2026-04-12T16:25:49.001Z</time></trkpt><trkpt lat="38.69500196963589" lon="16.12873583379619"><ele>473.0</ele><time>2026-04-12T16:25:50.001Z</time></trkpt><trkpt lat="38.695208351152154" lon="16.128835299367495"><ele>472.3333333333333</ele><time>2026-04-12T16:25:51.001Z</time></trkpt><trkpt lat="38.695414443417505" lon="16.128943377478464"><ele>471.66666666666663</ele><time>2026-04-12T16:25:52.001Z</time></trkpt><trkpt lat="38.69561509467182" lon="16.129066285071094"><ele>471.0</ele><time>2026-04-12T16:25:53.001Z</time></trkpt><trkpt lat="38.69580750649855" lon="16.129209121233362"><ele>471.0</ele><time>2026-04-12T16:25:54.001Z</time></trkpt><trkpt lat="38.695995384648526" lon="16.129363750799204"><ele>471.0</ele><time>2026-04-12T16:25:55.001Z</time></trkpt><trkpt lat="38.696170081970564" lon="16.129548439715794"><ele>470.5</ele><time>2026-04-12T16:25:56.001Z</time></trkpt><trkpt lat="38.69634401952339" lon="16.129745901704815"><ele>470.0</ele><time>2026-04-12T16:25:57.001Z</time></trkpt><trkpt lat="38.696514183424625" lon="16.129974391961202"><ele>470.0</ele><time>2026-04-12T16:25:58.001Z</time></trkpt><trkpt lat="38.69668752109452" lon="16.130209118338527"><ele>470.0</ele><time>2026-04-12T16:25:59.001Z</time></trkpt><trkpt lat="38.696850915132835" lon="16.13042599182746"><ele>469.0</ele><time>2026-04-12T16:26:00.001Z</time></trkpt><trkpt lat="38.69700633492005" lon="16.130616085676397"><ele>468.0</ele><time>2026-04-12T16:26:01.001Z</time></trkpt><trkpt lat="38.69716607012201" lon="16.130818943599824"><ele>467.0</ele><time>2026-04-12T16:26:02.001Z</time></trkpt><trkpt lat="38.69732643627041" lon="16.131030063903268"><ele>467.0</ele><time>2026-04-12T16:26:03.001Z</time></trkpt><trkpt lat="38.697493890095046" lon="16.13125981306359"><ele>467.0</ele><time>2026-04-12T16:26:04.001Z</time></trkpt><trkpt lat="38.69766389660084" lon="16.13149504158473"><ele>465.5</ele><time>2026-04-12T16:26:05.001Z</time></trkpt><trkpt lat="38.697838334987395" lon="16.131728781761826"><ele>464.0</ele><time>2026-04-12T16:26:06.001Z</time></trkpt><trkpt lat="38.6980197648905" lon="16.131967546207854"><ele>464.0</ele><time>2026-04-12T16:26:07.001Z</time></trkpt><trkpt lat="38.69820959523457" lon="16.132212500643085"><ele>464.0</ele><time>2026-04-12T16:26:08.001Z</time></trkpt><trkpt lat="38.698403841224994" lon="16.132463132738657"><ele>462.5</ele><time>2026-04-12T16:26:09.001Z</time></trkpt><trkpt lat="38.69860241420449" lon="16.13272155349666"><ele>461.0</ele><time>2026-04-12T16:26:10.001Z</time></trkpt><trkpt lat="38.69880214433728" lon="16.132983696651927"><ele>463.5</ele><time>2026-04-12T16:26:11.001Z</time></trkpt><trkpt lat="38.69899917322992" lon="16.13324393902689"><ele>466.0</ele><time>2026-04-12T16:26:12.001Z</time></trkpt><trkpt lat="38.699195142783466" lon="16.13349946119521"><ele>466.0</ele><time>2026-04-12T16:26:13.001Z</time></trkpt><trkpt lat="38.699392428713054" lon="16.133754698997127"><ele>466.0</ele><time>2026-04-12T16:26:14.001Z</time></trkpt><trkpt lat="38.699586443130684" lon="16.1340070490886"><ele>461.5</ele><time>2026-04-12T16:26:15.001Z</time></trkpt><trkpt lat="38.69978484079257" lon="16.13425351840295"><ele>457.0</ele><time>2026-04-12T16:26:16.001Z</time></trkpt><trkpt lat="38.69997978616825" lon="16.134494621207978"><ele>457.0</ele><time>2026-04-12T16:26:17.001Z</time></trkpt><trkpt lat="38.70017015342271" lon="16.134744273868826"><ele>457.0</ele><time>2026-04-12T16:26:18.001Z</time></trkpt><trkpt lat="38.70035931464197" lon="16.1349916027669"><ele>453.0</ele><time>2026-04-12T16:26:19.001Z</time></trkpt><trkpt lat="38.70054924109934" lon="16.135234279515767"><ele>449.0</ele><time>2026-04-12T16:26:20.001Z</time></trkpt><trkpt lat="38.70073910495927" lon="16.13547787325559"><ele>449.0</ele><time>2026-04-12T16:26:21.001Z</time></trkpt><trkpt lat="38.70092646267123" lon="16.135729748283573"><ele>449.0</ele><time>2026-04-12T16:26:22.001Z</time></trkpt><trkpt lat="38.701113977474165" lon="16.135980885249072"><ele>449.0</ele><time>2026-04-12T16:26:23.001Z</time></trkpt><trkpt lat="38.70130509971555" lon="16.13622663172395"><ele>449.0</ele><time>2026-04-12T16:26:24.001Z</time></trkpt><trkpt lat="38.70149276125686" lon="16.1364786166102"><ele>450.5</ele><time>2026-04-12T16:26:25.001Z</time></trkpt><trkpt lat="38.70168056535494" lon="16.13673233182124"><ele>452.0</ele><time>2026-04-12T16:26:26.001Z</time></trkpt><trkpt lat="38.70187477682113" lon="16.136979480108348"><ele>450.0</ele><time>2026-04-12T16:26:27.001Z</time></trkpt><trkpt lat="38.70206902472026" lon="16.137223839013064"><ele>448.0</ele><time>2026-04-12T16:26:28.001Z</time></trkpt><trkpt lat="38.702258274041476" lon="16.13747032356674"><ele>448.0</ele><time>2026-04-12T16:26:29.001Z</time></trkpt><trkpt lat="38.702449340322765" lon="16.137718513778303"><ele>448.0</ele><time>2026-04-12T16:26:30.001Z</time></trkpt><trkpt lat="38.702637369605185" lon="16.13796451113747"><ele>447.5</ele><time>2026-04-12T16:26:31.001Z</time></trkpt><trkpt lat="38.70283068420006" lon="16.13821248419321"><ele>447.0</ele><time>2026-04-12T16:26:32.001Z</time></trkpt><trkpt lat="38.7030187536315" lon="16.138461606190315"><ele>447.0</ele><time>2026-04-12T16:26:33.001Z</time></trkpt><trkpt lat="38.7032086098326" lon="16.13871214841623"><ele>447.0</ele><time>2026-04-12T16:26:34.001Z</time></trkpt><trkpt lat="38.703399043394086" lon="16.1389630280307"><ele>446.0</ele><time>2026-04-12T16:26:35.001Z</time></trkpt><trkpt lat="38.703588765928636" lon="16.139204320035034"><ele>445.0</ele><time>2026-04-12T16:26:36.001Z</time></trkpt><trkpt lat="38.703777690875036" lon="16.139452953119065"><ele>445.0</ele><time>2026-04-12T16:26:37.001Z</time></trkpt><trkpt lat="38.70396479691693" lon="16.139702351075307"><ele>445.0</ele><time>2026-04-12T16:26:38.001Z</time></trkpt><trkpt lat="38.7041350444392" lon="16.139953018029765"><ele>445.0</ele><time>2026-04-12T16:26:39.001Z</time></trkpt><trkpt lat="38.704283714449275" lon="16.140218952107283"><ele>445.0</ele><time>2026-04-12T16:26:40.001Z</time></trkpt><trkpt lat="38.7044171200353" lon="16.140510894978338"><ele>443.5</ele><time>2026-04-12T16:26:41.001Z</time></trkpt><trkpt lat="38.70452653976338" lon="16.14080870004187"><ele>442.0</ele><time>2026-04-12T16:26:42.001Z</time></trkpt><trkpt lat="38.704622794073856" lon="16.141122624664202"><ele>442.0</ele><time>2026-04-12T16:26:43.001Z</time></trkpt><trkpt lat="38.70469466451933" lon="16.14144174320436"><ele>442.0</ele><time>2026-04-12T16:26:44.001Z</time></trkpt><trkpt lat="38.704758859878176" lon="16.14176926711992"><ele>439.5</ele><time>2026-04-12T16:26:45.001Z</time></trkpt><trkpt lat="38.70481005216174" lon="16.142099353062225"><ele>437.0</ele><time>2026-04-12T16:26:46.001Z</time></trkpt><trkpt lat="38.70486790391294" lon="16.14243266790505"><ele>432.5</ele><time>2026-04-12T16:26:47.001Z</time></trkpt><trkpt lat="38.70493277226095" lon="16.142766397243516"><ele>428.0</ele><time>2026-04-12T16:26:48.001Z</time></trkpt><trkpt lat="38.705000483567" lon="16.143101785696654"><ele>423.0</ele><time>2026-04-12T16:26:49.001Z</time></trkpt><trkpt lat="38.70506641241791" lon="16.14343865010608"><ele>418.0</ele><time>2026-04-12T16:26:50.001Z</time></trkpt><trkpt lat="38.7051297882381" lon="16.14377932188292"><ele>419.5</ele><time>2026-04-12T16:26:51.001Z</time></trkpt><trkpt lat="38.705193964994955" lon="16.144113603823577"><ele>421.0</ele><time>2026-04-12T16:26:52.001Z</time></trkpt><trkpt lat="38.705261489187464" lon="16.144450403719016"><ele>421.0</ele><time>2026-04-12T16:26:53.001Z</time></trkpt><trkpt lat="38.705334029918816" lon="16.1447956781306"><ele>421.0</ele><time>2026-04-12T16:26:54.001Z</time></trkpt><trkpt lat="38.705400423032295" lon="16.1451293252058"><ele>417.5</ele><time>2026-04-12T16:26:55.001Z</time></trkpt><trkpt lat="38.70546149725575" lon="16.145463206599686"><ele>414.0</ele><time>2026-04-12T16:26:56.001Z</time></trkpt><trkpt lat="38.70552558686637" lon="16.145799729563812"><ele>410.5</ele><time>2026-04-12T16:26:57.001Z</time></trkpt><trkpt lat="38.70558795219193" lon="16.146130480419618"><ele>407.0</ele><time>2026-04-12T16:26:58.001Z</time></trkpt><trkpt lat="38.7056512540629" lon="16.146460769430707"><ele>405.0</ele><time>2026-04-12T16:26:59.001Z</time></trkpt><trkpt lat="38.7057150446676" lon="16.14678724176724"><ele>403.0</ele><time>2026-04-12T16:27:00.001Z</time></trkpt><trkpt lat="38.70578275022775" lon="16.147114362070546"><ele>400.0</ele><time>2026-04-12T16:27:01.001Z</time></trkpt><trkpt lat="38.7058524243142" lon="16.14744405070733"><ele>397.0</ele><time>2026-04-12T16:27:02.001Z</time></trkpt><trkpt lat="38.70591814277144" lon="16.14777235435056"><ele>397.0</ele><time>2026-04-12T16:27:03.001Z</time></trkpt><trkpt lat="38.70598502350504" lon="16.148100384393988"><ele>397.0</ele><time>2026-04-12T16:27:04.001Z</time></trkpt><trkpt lat="38.70604938129719" lon="16.1484283282978"><ele>396.0</ele><time>2026-04-12T16:27:05.001Z</time></trkpt><trkpt lat="38.706113198739004" lon="16.148754830043544"><ele>395.0</ele><time>2026-04-12T16:27:05.999Z</time></trkpt><trkpt lat="38.706175368605436" lon="16.14907938733415"><ele>393.5</ele><time>2026-04-12T16:27:06.999Z</time></trkpt><trkpt lat="38.70622964403421" lon="16.149400427223046"><ele>392.0</ele><time>2026-04-12T16:27:07.999Z</time></trkpt><trkpt lat="38.7062690048951" lon="16.149714026117135"><ele>389.0</ele><time>2026-04-12T16:27:08.999Z</time></trkpt><trkpt lat="38.706293361546166" lon="16.150021270643613"><ele>386.0</ele><time>2026-04-12T16:27:09.999Z</time></trkpt><trkpt lat="38.706289725042154" lon="16.15031564393838"><ele>386.0</ele><time>2026-04-12T16:27:10.999Z</time></trkpt><trkpt lat="38.70626102076485" lon="16.150595201431113"><ele>386.0</ele><time>2026-04-12T16:27:11.999Z</time></trkpt><trkpt lat="38.70621360265262" lon="16.150859031778445"><ele>386.0</ele><time>2026-04-12T16:27:12.999Z</time></trkpt><trkpt lat="38.70615746100711" lon="16.151102708363936"><ele>385.0</ele><time>2026-04-12T16:27:13.999Z</time></trkpt><trkpt lat="38.70609905098108" lon="16.15131594091337"><ele>384.0</ele><time>2026-04-12T16:27:14.999Z</time></trkpt><trkpt lat="38.70603581665017" lon="16.151502920549856"><ele>383.0</ele><time>2026-04-12T16:27:15.999Z</time></trkpt><trkpt lat="38.70597783282517" lon="16.151661811435606"><ele>380.75</ele><time>2026-04-12T16:27:16.999Z</time></trkpt><trkpt lat="38.70592106018166" lon="16.151782080405496"><ele>378.5</ele><time>2026-04-12T16:27:17.999Z</time></trkpt><trkpt lat="38.70585114794929" lon="16.15189306637213"><ele>376.25</ele><time>2026-04-12T16:27:18.999Z</time></trkpt><trkpt lat="38.70575909097249" lon="16.152018128068054"><ele>374.0</ele><time>2026-04-12T16:27:20Z</time></trkpt><trkpt lat="38.70565611368608" lon="16.152153888988284"><ele>374.0</ele><time>2026-04-12T16:27:21Z</time></trkpt><trkpt lat="38.705534842986026" lon="16.15229246533981"><ele>374.0</ele><time>2026-04-12T16:27:22Z</time></trkpt><trkpt lat="38.70539439466137" lon="16.1524216826125"><ele>374.0</ele><time>2026-04-12T16:27:23Z</time></trkpt><trkpt lat="38.70524299110611" lon="16.1525566143399"><ele>374.33333333333337</ele><time>2026-04-12T16:27:24Z</time></trkpt><trkpt lat="38.70509700521454" lon="16.15269098533677"><ele>374.6666666666667</ele><time>2026-04-12T16:27:25Z</time></trkpt><trkpt lat="38.70496378721276" lon="16.15282096592465"><ele>375.0</ele><time>2026-04-12T16:27:26Z</time></trkpt><trkpt lat="38.704837940194935" lon="16.152939156576938"><ele>375.0</ele><time>2026-04-12T16:27:27Z</time></trkpt><trkpt lat="38.70471356159574" lon="16.153045672045312"><ele>375.0</ele><time>2026-04-12T16:27:28Z</time></trkpt><trkpt lat="38.704592850924286" lon="16.15314458283043"><ele>375.0</ele><time>2026-04-12T16:27:29Z</time></trkpt><trkpt lat="38.704463881662726" lon="16.153223949572197"><ele>375.0</ele><time>2026-04-12T16:27:30Z</time></trkpt><trkpt lat="38.70432341389421" lon="16.15327221646693"><ele>373.5</ele><time>2026-04-12T16:27:31Z</time></trkpt><trkpt lat="38.70417852091012" lon="16.15329529121875"><ele>372.0</ele><time>2026-04-12T16:27:32Z</time></trkpt><trkpt lat="38.704031376546325" lon="16.153302549528117"><ele>370.5</ele><time>2026-04-12T16:27:33Z</time></trkpt><trkpt lat="38.70388029824604" lon="16.15330666950307"><ele>369.0</ele><time>2026-04-12T16:27:34Z</time></trkpt><trkpt lat="38.70373051078851" lon="16.15331050183595"><ele>369.0</ele><time>2026-04-12T16:27:35Z</time></trkpt><trkpt lat="38.70358078649982" lon="16.15331544084557"><ele>369.0</ele><time>2026-04-12T16:27:36Z</time></trkpt><trkpt lat="38.703427525863084" lon="16.153321295180124"><ele>369.0</ele><time>2026-04-12T16:27:37Z</time></trkpt><trkpt lat="38.70327565612802" lon="16.153326847242095"><ele>368.3333333333333</ele><time>2026-04-12T16:27:38Z</time></trkpt><trkpt lat="38.70312342125134" lon="16.1533262977584"><ele>367.66666666666663</ele><time>2026-04-12T16:27:39Z</time></trkpt><trkpt lat="38.702973328182885" lon="16.153315270849298"><ele>367.0</ele><time>2026-04-12T16:27:40Z</time></trkpt><trkpt lat="38.70282681955328" lon="16.153281335750695"><ele>366.0</ele><time>2026-04-12T16:27:41Z</time></trkpt><trkpt lat="38.70268390366409" lon="16.15321741840759"><ele>365.0</ele><time>2026-04-12T16:27:42Z</time></trkpt><trkpt lat="38.70253703715723" lon="16.153139783820826"><ele>364.0</ele><time>2026-04-12T16:27:43Z</time></trkpt><trkpt lat="38.702392680309345" lon="16.15303135343448"><ele>366.0</ele><time>2026-04-12T16:27:44Z</time></trkpt><trkpt lat="38.702236133051535" lon="16.152921968875226"><ele>368.0</ele><time>2026-04-12T16:27:45Z</time></trkpt><trkpt lat="38.702077761823226" lon="16.152817549546675"><ele>370.0</ele><time>2026-04-12T16:27:46Z</time></trkpt><trkpt lat="38.701928529696296" lon="16.152720965881446"><ele>367.66666666666663</ele><time>2026-04-12T16:27:47Z</time></trkpt><trkpt lat="38.70177868657119" lon="16.152634813134483"><ele>365.3333333333333</ele><time>2026-04-12T16:27:48Z</time></trkpt><trkpt lat="38.701635648613575" lon="16.152557259012866"><ele>363.0</ele><time>2026-04-12T16:27:49Z</time></trkpt><trkpt lat="38.7014929121746" lon="16.15246963825805"><ele>363.0</ele><time>2026-04-12T16:27:50Z</time></trkpt><trkpt lat="38.70134942661448" lon="16.15238433185967"><ele>363.0</ele><time>2026-04-12T16:27:51Z</time></trkpt><trkpt lat="38.701217674321825" lon="16.152290822620767"><ele>363.0</ele><time>2026-04-12T16:27:52Z</time></trkpt><trkpt lat="38.7010994139405" lon="16.15220384593848"><ele>363.0</ele><time>2026-04-12T16:27:53Z</time></trkpt><trkpt lat="38.70099295102977" lon="16.15210797608321"><ele>361.79999999999995</ele><time>2026-04-12T16:27:54Z</time></trkpt><trkpt lat="38.70090447660714" lon="16.151998163750978"><ele>360.6</ele><time>2026-04-12T16:27:55Z</time></trkpt><trkpt lat="38.700820271079934" lon="16.15189448727878"><ele>359.4</ele><time>2026-04-12T16:27:56Z</time></trkpt><trkpt lat="38.70075100278351" lon="16.151796551101818"><ele>358.20000000000005</ele><time>2026-04-12T16:27:57Z</time></trkpt><trkpt lat="38.7006999332205" lon="16.151704980485082"><ele>357.0</ele><time>2026-04-12T16:27:58Z</time></trkpt><trkpt lat="38.700652973781956" lon="16.151633697395262"><ele>357.0</ele><time>2026-04-12T16:27:59Z</time></trkpt><trkpt lat="38.700504395124476" lon="16.151868025676677"><ele>357.0</ele><time>2026-04-12T16:28:02Z</time></trkpt><trkpt lat="38.700507035989034" lon="16.152051896738502"><ele>357.0</ele><time>2026-04-12T16:28:04Z</time></trkpt><trkpt lat="38.70052851007712" lon="16.152173078553947"><ele>357.0</ele><time>2026-04-12T16:28:05Z</time></trkpt><trkpt lat="38.700540112399885" lon="16.152314672454054"><ele>357.0</ele><time>2026-04-12T16:28:06Z</time></trkpt><trkpt lat="38.70054930828258" lon="16.152470249876064"><ele>357.0</ele><time>2026-04-12T16:28:07Z</time></trkpt><trkpt lat="38.70056285787727" lon="16.152631801987653"><ele>357.0</ele><time>2026-04-12T16:28:08Z</time></trkpt><trkpt lat="38.70058383512489" lon="16.152797275823815"><ele>356.25</ele><time>2026-04-12T16:28:09Z</time></trkpt><trkpt lat="38.70062092941269" lon="16.152959244108178"><ele>355.5</ele><time>2026-04-12T16:28:10Z</time></trkpt><trkpt lat="38.700666330407024" lon="16.15313583694152"><ele>354.75</ele><time>2026-04-12T16:28:11Z</time></trkpt><trkpt lat="38.70073028110372" lon="16.153300370146415"><ele>354.0</ele><time>2026-04-12T16:28:12Z</time></trkpt><trkpt lat="38.70081597859747" lon="16.15345317157884"><ele>353.75</ele><time>2026-04-12T16:28:13Z</time></trkpt><trkpt lat="38.70090913912091" lon="16.15359482507116"><ele>353.5</ele><time>2026-04-12T16:28:14Z</time></trkpt><trkpt lat="38.70101751351528" lon="16.15370849649181"><ele>353.25</ele><time>2026-04-12T16:28:15Z</time></trkpt><trkpt lat="38.70113926093751" lon="16.15381966472174"><ele>353.0</ele><time>2026-04-12T16:28:16Z</time></trkpt><trkpt lat="38.701269391083756" lon="16.153932518781737"><ele>354.0</ele><time>2026-04-12T16:28:17.001Z</time></trkpt><trkpt lat="38.701388923314106" lon="16.154028651740923"><ele>355.0</ele><time>2026-04-12T16:28:18.001Z</time></trkpt><trkpt lat="38.70151865723783" lon="16.154124759208788"><ele>356.0</ele><time>2026-04-12T16:28:19.001Z</time></trkpt><trkpt lat="38.70163823111179" lon="16.154240166471837"><ele>357.0</ele><time>2026-04-12T16:28:20.001Z</time></trkpt><trkpt lat="38.70175294504463" lon="16.15436624626244"><ele>356.0</ele><time>2026-04-12T16:28:21.001Z</time></trkpt><trkpt lat="38.70185511427187" lon="16.154521949835825"><ele>355.0</ele><time>2026-04-12T16:28:22.001Z</time></trkpt><trkpt lat="38.701944047694084" lon="16.154698518826816"><ele>354.0</ele><time>2026-04-12T16:28:23.001Z</time></trkpt><trkpt lat="38.70202501299673" lon="16.154884365042008"><ele>351.0</ele><time>2026-04-12T16:28:24.001Z</time></trkpt><trkpt lat="38.702097856642105" lon="16.155076270209978"><ele>348.0</ele><time>2026-04-12T16:28:25.001Z</time></trkpt><trkpt lat="38.70216469280621" lon="16.155263376575494"><ele>345.0</ele><time>2026-04-12T16:28:26.001Z</time></trkpt><trkpt lat="38.70222587479521" lon="16.155437157466718"><ele>345.0</ele><time>2026-04-12T16:28:27.001Z</time></trkpt><trkpt lat="38.70228417090511" lon="16.155587849254076"><ele>345.0</ele><time>2026-04-12T16:28:28.001Z</time></trkpt><trkpt lat="38.70232635101296" lon="16.15574784686999"><ele>345.0</ele><time>2026-04-12T16:28:29.001Z</time></trkpt><trkpt lat="38.70230322919894" lon="16.1559113211545"><ele>345.0</ele><time>2026-04-12T16:28:30.001Z</time></trkpt><trkpt lat="38.70222196234341" lon="16.156025783420407"><ele>344.6</ele><time>2026-04-12T16:28:31.001Z</time></trkpt><trkpt lat="38.70216354681233" lon="16.156133797458025"><ele>344.2</ele><time>2026-04-12T16:28:32.001Z</time></trkpt><trkpt lat="38.70206101910645" lon="16.156176800931423"><ele>343.79999999999995</ele><time>2026-04-12T16:28:33.001Z</time></trkpt><trkpt lat="38.70195122562982" lon="16.156209979609702"><ele>343.4</ele><time>2026-04-12T16:28:34.001Z</time></trkpt><trkpt lat="38.701828708319425" lon="16.156178997460984"><ele>343.0</ele><time>2026-04-12T16:28:35.001Z</time></trkpt><trkpt lat="38.701734601688926" lon="16.156091705560844"><ele>342.75</ele><time>2026-04-12T16:28:36.001Z</time></trkpt><trkpt lat="38.70164081824754" lon="16.156009940961987"><ele>342.5</ele><time>2026-04-12T16:28:37.001Z</time></trkpt><trkpt lat="38.701597016208765" lon="16.155864526739084"><ele>342.25</ele><time>2026-04-12T16:28:38.001Z</time></trkpt><trkpt lat="38.701583656728246" lon="16.155730237574005"><ele>342.0</ele><time>2026-04-12T16:28:39.001Z</time></trkpt><trkpt lat="38.70161504702103" lon="16.155595602273877"><ele>342.0</ele><time>2026-04-12T16:28:40.001Z</time></trkpt><trkpt lat="38.70169499045086" lon="16.155454891123366"><ele>342.0</ele><time>2026-04-12T16:28:41.001Z</time></trkpt><trkpt lat="38.7017563379943" lon="16.15536471135779"><ele>342.0</ele><time>2026-04-12T16:28:42.001Z</time></trkpt><trkpt lat="38.70184554432242" lon="16.15530160747496"><ele>342.0</ele><time>2026-04-12T16:28:43.001Z</time></trkpt><trkpt lat="38.701954211370655" lon="16.155258539070235"><ele>342.0</ele><time>2026-04-12T16:28:44.001Z</time></trkpt><trkpt lat="38.7020752217198" lon="16.155200628654693"><ele>342.75</ele><time>2026-04-12T16:28:45.001Z</time></trkpt><trkpt lat="38.70220087668588" lon="16.155128387926965"><ele>343.5</ele><time>2026-04-12T16:28:46.001Z</time></trkpt><trkpt lat="38.7023196340741" lon="16.155050962427424"><ele>344.25</ele><time>2026-04-12T16:28:47.001Z</time></trkpt><trkpt lat="38.70242915645784" lon="16.154961026214757"><ele>345.0</ele><time>2026-04-12T16:28:48.001Z</time></trkpt><trkpt lat="38.70253683311769" lon="16.15486257286507"><ele>348.0</ele><time>2026-04-12T16:28:49.001Z</time></trkpt><trkpt lat="38.70265289399221" lon="16.15475994949288"><ele>351.0</ele><time>2026-04-12T16:28:50.001Z</time></trkpt><trkpt lat="38.70278872559259" lon="16.15466407168643"><ele>354.0</ele><time>2026-04-12T16:28:51.001Z</time></trkpt><trkpt lat="38.70293554022402" lon="16.15457829609115"><ele>355.3333333333333</ele><time>2026-04-12T16:28:52.001Z</time></trkpt><trkpt lat="38.70309259154144" lon="16.154491324907323"><ele>356.66666666666663</ele><time>2026-04-12T16:28:53.001Z</time></trkpt><trkpt lat="38.70327046610064" lon="16.154406826743354"><ele>358.0</ele><time>2026-04-12T16:28:54.001Z</time></trkpt><trkpt lat="38.703425343274894" lon="16.154330086904203"><ele>359.3333333333333</ele><time>2026-04-12T16:28:55.001Z</time></trkpt><trkpt lat="38.70359745393167" lon="16.154259508213226"><ele>360.6666666666667</ele><time>2026-04-12T16:28:56.001Z</time></trkpt><trkpt lat="38.703774113857484" lon="16.154188429004048"><ele>362.0</ele><time>2026-04-12T16:28:57.001Z</time></trkpt><trkpt lat="38.70396883165931" lon="16.154111986040625"><ele>362.0</ele><time>2026-04-12T16:28:58.001Z</time></trkpt><trkpt lat="38.70417842647948" lon="16.154052616196715"><ele>362.0</ele><time>2026-04-12T16:28:59.001Z</time></trkpt><trkpt lat="38.70441804000336" lon="16.153992006767933"><ele>364.5</ele><time>2026-04-12T16:29:00.001Z</time></trkpt><trkpt lat="38.70470869082894" lon="16.153932502314685"><ele>367.0</ele><time>2026-04-12T16:29:01.001Z</time></trkpt><trkpt lat="38.70503115625547" lon="16.153889544518133"><ele>369.5</ele><time>2026-04-12T16:29:02.001Z</time></trkpt><trkpt lat="38.70535758693116" lon="16.153864219991146"><ele>372.0</ele><time>2026-04-12T16:29:03.001Z</time></trkpt><trkpt lat="38.70566844140467" lon="16.153865520313367"><ele>372.0</ele><time>2026-04-12T16:29:04.001Z</time></trkpt><trkpt lat="38.70596076910578" lon="16.153865074828538"><ele>372.0</ele><time>2026-04-12T16:29:05.001Z</time></trkpt><trkpt lat="38.70625847637481" lon="16.153875993223327"><ele>374.0</ele><time>2026-04-12T16:29:06.001Z</time></trkpt><trkpt lat="38.706534385117735" lon="16.153881738610878"><ele>376.0</ele><time>2026-04-12T16:29:07.001Z</time></trkpt><trkpt lat="38.70680151966053" lon="16.153884088677348"><ele>376.0</ele><time>2026-04-12T16:29:08.001Z</time></trkpt><trkpt lat="38.70705077356863" lon="16.153877373242384"><ele>376.0</ele><time>2026-04-12T16:29:09.001Z</time></trkpt><trkpt lat="38.70729698490215" lon="16.153872780856688"><ele>376.0</ele><time>2026-04-12T16:29:10.001Z</time></trkpt><trkpt lat="38.70755446026386" lon="16.15385649922967"><ele>376.0</ele><time>2026-04-12T16:29:11.001Z</time></trkpt><trkpt lat="38.70777949354061" lon="16.15387357025689"><ele>371.0</ele><time>2026-04-12T16:29:12Z</time></trkpt><trkpt lat="38.70802506725931" lon="16.153868527264944"><ele>366.0</ele><time>2026-04-12T16:29:13Z</time></trkpt><trkpt lat="38.708275225680715" lon="16.153865091157297"><ele>366.0</ele><time>2026-04-12T16:29:14Z</time></trkpt><trkpt lat="38.70852811401981" lon="16.15386328783037"><ele>366.0</ele><time>2026-04-12T16:29:15Z</time></trkpt><trkpt lat="38.70878489882449" lon="16.153860570717246"><ele>364.5</ele><time>2026-04-12T16:29:16Z</time></trkpt><trkpt lat="38.70904219442772" lon="16.153863477578245"><ele>363.0</ele><time>2026-04-12T16:29:17Z</time></trkpt><trkpt lat="38.709301806916486" lon="16.153863609604507"><ele>362.5</ele><time>2026-04-12T16:29:18Z</time></trkpt><trkpt lat="38.70955725853407" lon="16.15386340793158"><ele>362.0</ele><time>2026-04-12T16:29:19Z</time></trkpt><trkpt lat="38.709824651967594" lon="16.153854738431"><ele>362.0</ele><time>2026-04-12T16:29:20Z</time></trkpt><trkpt lat="38.71007598416184" lon="16.153852924526422"><ele>362.0</ele><time>2026-04-12T16:29:21Z</time></trkpt><trkpt lat="38.71032130876316" lon="16.15385224496587"><ele>364.0</ele><time>2026-04-12T16:29:22Z</time></trkpt><trkpt lat="38.71056360261625" lon="16.153848565625715"><ele>366.0</ele><time>2026-04-12T16:29:23Z</time></trkpt><trkpt lat="38.71080320564697" lon="16.153842730478676"><ele>366.0</ele><time>2026-04-12T16:29:24Z</time></trkpt><trkpt lat="38.71103638940893" lon="16.153836415246825"><ele>366.0</ele><time>2026-04-12T16:29:25Z</time></trkpt><trkpt lat="38.711267742592334" lon="16.153837706344103"><ele>363.5</ele><time>2026-04-12T16:29:26Z</time></trkpt><trkpt lat="38.711501408592326" lon="16.153840955934484"><ele>361.0</ele><time>2026-04-12T16:29:27Z</time></trkpt><trkpt lat="38.711733758740074" lon="16.153840763273127"><ele>351.5</ele><time>2026-04-12T16:29:28Z</time></trkpt><trkpt lat="38.71196797898035" lon="16.153842627101245"><ele>342.0</ele><time>2026-04-12T16:29:29Z</time></trkpt><trkpt lat="38.712197126979824" lon="16.153852623129996"><ele>342.0</ele><time>2026-04-12T16:29:30Z</time></trkpt><trkpt lat="38.71242102582036" lon="16.153867612447492"><ele>342.0</ele><time>2026-04-12T16:29:31Z</time></trkpt><trkpt lat="38.7126330981225" lon="16.15389024114626"><ele>342.0</ele><time>2026-04-12T16:29:32Z</time></trkpt><trkpt lat="38.71283883334821" lon="16.153911270384413"><ele>338.6666666666667</ele><time>2026-04-12T16:29:33Z</time></trkpt><trkpt lat="38.71304625523029" lon="16.153937650275957"><ele>335.33333333333337</ele><time>2026-04-12T16:29:34Z</time></trkpt><trkpt lat="38.71325443198274" lon="16.15396148594582"><ele>332.0</ele><time>2026-04-12T16:29:35Z</time></trkpt><trkpt lat="38.71346323908919" lon="16.15399108416805"><ele>333.33333333333337</ele><time>2026-04-12T16:29:36Z</time></trkpt><trkpt lat="38.7136741199877" lon="16.154024165577248"><ele>334.6666666666667</ele><time>2026-04-12T16:29:37Z</time></trkpt><trkpt lat="38.71388550728192" lon="16.15405957798775"><ele>336.0</ele><time>2026-04-12T16:29:38Z</time></trkpt><trkpt lat="38.71409896166702" lon="16.15409847167428"><ele>336.0</ele><time>2026-04-12T16:29:39Z</time></trkpt><trkpt lat="38.714313236214416" lon="16.154138077893666"><ele>336.0</ele><time>2026-04-12T16:29:40Z</time></trkpt><trkpt lat="38.71452730800811" lon="16.154180038535678"><ele>336.0</ele><time>2026-04-12T16:29:41Z</time></trkpt><trkpt lat="38.714743223015105" lon="16.15423021409506"><ele>333.3333333333333</ele><time>2026-04-12T16:29:42Z</time></trkpt><trkpt lat="38.714961809320364" lon="16.15427726494251"><ele>330.66666666666663</ele><time>2026-04-12T16:29:43Z</time></trkpt><trkpt lat="38.71517994805676" lon="16.15432620965634"><ele>328.0</ele><time>2026-04-12T16:29:44Z</time></trkpt><trkpt lat="38.71539988373588" lon="16.15437968457093"><ele>325.0</ele><time>2026-04-12T16:29:45Z</time></trkpt><trkpt lat="38.71561518489271" lon="16.154431224588855"><ele>322.0</ele><time>2026-04-12T16:29:46Z</time></trkpt><trkpt lat="38.715836145484246" lon="16.154485195795118"><ele>319.0</ele><time>2026-04-12T16:29:47Z</time></trkpt><trkpt lat="38.716055573589244" lon="16.154538519979432"><ele>314.66666666666663</ele><time>2026-04-12T16:29:48Z</time></trkpt><trkpt lat="38.716276079159904" lon="16.15459035571961"><ele>310.3333333333333</ele><time>2026-04-12T16:29:49Z</time></trkpt><trkpt lat="38.7164943967972" lon="16.154645044951206"><ele>306.0</ele><time>2026-04-12T16:29:50Z</time></trkpt><trkpt lat="38.71671992506521" lon="16.154702670871217"><ele>298.0</ele><time>2026-04-12T16:29:51Z</time></trkpt><trkpt lat="38.71695253710593" lon="16.154758955899588"><ele>290.0</ele><time>2026-04-12T16:29:52Z</time></trkpt><trkpt lat="38.71718449203202" lon="16.154810687120687"><ele>290.0</ele><time>2026-04-12T16:29:53Z</time></trkpt><trkpt lat="38.717417493470165" lon="16.154859699190002"><ele>290.0</ele><time>2026-04-12T16:29:54Z</time></trkpt><trkpt lat="38.71765172719895" lon="16.154908241467044"><ele>300.0</ele><time>2026-04-12T16:29:55Z</time></trkpt><trkpt lat="38.717895721167984" lon="16.154969006942515"><ele>310.0</ele><time>2026-04-12T16:29:56Z</time></trkpt><trkpt lat="38.718139120273655" lon="16.15504989884742"><ele>310.0</ele><time>2026-04-12T16:29:57Z</time></trkpt><trkpt lat="38.71838557039604" lon="16.155163584994792"><ele>310.0</ele><time>2026-04-12T16:29:58Z</time></trkpt><trkpt lat="38.718628368708416" lon="16.155303208019717"><ele>301.0</ele><time>2026-04-12T16:29:59Z</time></trkpt><trkpt lat="38.718867672422434" lon="16.15546634861928"><ele>292.0</ele><time>2026-04-12T16:30:00Z</time></trkpt><trkpt lat="38.71910063590789" lon="16.15565386371806"><ele>294.0</ele><time>2026-04-12T16:30:01Z</time></trkpt><trkpt lat="38.7193242283403" lon="16.15586966491082"><ele>296.0</ele><time>2026-04-12T16:30:02Z</time></trkpt><trkpt lat="38.719537037569495" lon="16.156107276400785"><ele>296.0</ele><time>2026-04-12T16:30:03Z</time></trkpt><trkpt lat="38.719737295023144" lon="16.156369467391478"><ele>296.0</ele><time>2026-04-12T16:30:04Z</time></trkpt><trkpt lat="38.71993457060735" lon="16.156635907140874"><ele>305.0</ele><time>2026-04-12T16:30:05.001Z</time></trkpt><trkpt lat="38.720127899794136" lon="16.156897380597904"><ele>314.0</ele><time>2026-04-12T16:30:06.001Z</time></trkpt><trkpt lat="38.72032192593127" lon="16.157153187456288"><ele>306.0</ele><time>2026-04-12T16:30:07.001Z</time></trkpt><trkpt lat="38.72051824884561" lon="16.15740893556117"><ele>298.0</ele><time>2026-04-12T16:30:08.001Z</time></trkpt><trkpt lat="38.72070749358221" lon="16.15766681442789"><ele>298.0</ele><time>2026-04-12T16:30:09.001Z</time></trkpt><trkpt lat="38.72089893036063" lon="16.157921274028176"><ele>298.0</ele><time>2026-04-12T16:30:10.001Z</time></trkpt><trkpt lat="38.72109376847066" lon="16.158170928499388"><ele>291.5</ele><time>2026-04-12T16:30:11.001Z</time></trkpt><trkpt lat="38.721290521786116" lon="16.1584205903871"><ele>285.0</ele><time>2026-04-12T16:30:12.001Z</time></trkpt><trkpt lat="38.72148916455646" lon="16.158668353427533"><ele>285.0</ele><time>2026-04-12T16:30:13.001Z</time></trkpt><trkpt lat="38.72169192588194" lon="16.158910491030124"><ele>285.0</ele><time>2026-04-12T16:30:14.001Z</time></trkpt><trkpt lat="38.72190053338332" lon="16.159147861377104"><ele>281.0</ele><time>2026-04-12T16:30:15.001Z</time></trkpt><trkpt lat="38.722115242195486" lon="16.159376406630237"><ele>277.0</ele><time>2026-04-12T16:30:16.001Z</time></trkpt><trkpt lat="38.72233537691873" lon="16.159595579202314"><ele>277.0</ele><time>2026-04-12T16:30:17.001Z</time></trkpt><trkpt lat="38.72255863330365" lon="16.15981276650807"><ele>277.0</ele><time>2026-04-12T16:30:18.001Z</time></trkpt><trkpt lat="38.72278555042348" lon="16.160022598875898"><ele>276.0</ele><time>2026-04-12T16:30:19.001Z</time></trkpt><trkpt lat="38.72300689219125" lon="16.160221332504435"><ele>275.0</ele><time>2026-04-12T16:30:20.001Z</time></trkpt><trkpt lat="38.723221448252964" lon="16.160405871110854"><ele>275.0</ele><time>2026-04-12T16:30:21.001Z</time></trkpt><trkpt lat="38.72342921166277" lon="16.16058393864856"><ele>275.0</ele><time>2026-04-12T16:30:22.001Z</time></trkpt><trkpt lat="38.7236305729503" lon="16.160759097911416"><ele>273.5</ele><time>2026-04-12T16:30:23.001Z</time></trkpt><trkpt lat="38.72382455910216" lon="16.160921969229758"><ele>272.0</ele><time>2026-04-12T16:30:24.001Z</time></trkpt><trkpt lat="38.724008732244826" lon="16.16108935663056"><ele>272.0</ele><time>2026-04-12T16:30:25.001Z</time></trkpt><trkpt lat="38.724193825288175" lon="16.16125248951809"><ele>272.0</ele><time>2026-04-12T16:30:26.001Z</time></trkpt><trkpt lat="38.72437511169711" lon="16.161416875901022"><ele>272.0</ele><time>2026-04-12T16:30:27.001Z</time></trkpt><trkpt lat="38.724556037651176" lon="16.161582709959767"><ele>268.5</ele><time>2026-04-12T16:30:28.001Z</time></trkpt><trkpt lat="38.7247415414757" lon="16.16175513536471"><ele>265.0</ele><time>2026-04-12T16:30:29.001Z</time></trkpt><trkpt lat="38.72493216333859" lon="16.161930593667396"><ele>265.0</ele><time>2026-04-12T16:30:30.001Z</time></trkpt><trkpt lat="38.72512765461437" lon="16.162111919552423"><ele>265.0</ele><time>2026-04-12T16:30:31.001Z</time></trkpt><trkpt lat="38.72532210766058" lon="16.162288746668764"><ele>261.0</ele><time>2026-04-12T16:30:32.001Z</time></trkpt><trkpt lat="38.7255131928834" lon="16.162465704678286"><ele>257.0</ele><time>2026-04-12T16:30:33.001Z</time></trkpt><trkpt lat="38.7257039314532" lon="16.16264276048102"><ele>257.0</ele><time>2026-04-12T16:30:34.001Z</time></trkpt><trkpt lat="38.725893393915555" lon="16.162820486202122"><ele>257.0</ele><time>2026-04-12T16:30:35.001Z</time></trkpt><trkpt lat="38.726081263226725" lon="16.163001746765012"><ele>254.5</ele><time>2026-04-12T16:30:36.001Z</time></trkpt><trkpt lat="38.72627050821409" lon="16.163180100140238"><ele>252.0</ele><time>2026-04-12T16:30:37.001Z</time></trkpt><trkpt lat="38.726458893998526" lon="16.16335563082187"><ele>252.0</ele><time>2026-04-12T16:30:38.001Z</time></trkpt><trkpt lat="38.72664609180329" lon="16.163530993794687"><ele>252.0</ele><time>2026-04-12T16:30:39.001Z</time></trkpt><trkpt lat="38.72683226001406" lon="16.163715224866593"><ele>256.0</ele><time>2026-04-12T16:30:40.001Z</time></trkpt><trkpt lat="38.72702789279719" lon="16.163880394802188"><ele>260.0</ele><time>2026-04-12T16:30:41.001Z</time></trkpt><trkpt lat="38.72721443169801" lon="16.164056087520883"><ele>260.0</ele><time>2026-04-12T16:30:42.001Z</time></trkpt><trkpt lat="38.72740343877929" lon="16.16422643908328"><ele>260.0</ele><time>2026-04-12T16:30:43.001Z</time></trkpt><trkpt lat="38.727588797959825" lon="16.164399883359213"><ele>244.0</ele><time>2026-04-12T16:30:44.001Z</time></trkpt><trkpt lat="38.72777331348562" lon="16.16457570365994"><ele>228.0</ele><time>2026-04-12T16:30:45.001Z</time></trkpt><trkpt lat="38.72795430486137" lon="16.164747395698424"><ele>237.0</ele><time>2026-04-12T16:30:46.001Z</time></trkpt><trkpt lat="38.72814127182391" lon="16.1649187752221"><ele>246.0</ele><time>2026-04-12T16:30:47.001Z</time></trkpt><trkpt lat="38.728324189479416" lon="16.16508682522693"><ele>246.0</ele><time>2026-04-12T16:30:48.001Z</time></trkpt><trkpt lat="38.728496699988014" lon="16.165248534103245"><ele>246.0</ele><time>2026-04-12T16:30:49.001Z</time></trkpt><trkpt lat="38.72866241522475" lon="16.165400566849918"><ele>246.0</ele><time>2026-04-12T16:30:50.001Z</time></trkpt><trkpt lat="38.72882566913915" lon="16.16555606933849"><ele>245.66666666666669</ele><time>2026-04-12T16:30:51.001Z</time></trkpt><trkpt lat="38.72899217826207" lon="16.165703852466972"><ele>245.33333333333334</ele><time>2026-04-12T16:30:52.001Z</time></trkpt><trkpt lat="38.72915687039353" lon="16.16585729319997"><ele>245.0</ele><time>2026-04-12T16:30:53.001Z</time></trkpt><trkpt lat="38.72931730067947" lon="16.166009743622386"><ele>235.33333333333334</ele><time>2026-04-12T16:30:54.001Z</time></trkpt><trkpt lat="38.729474764886746" lon="16.166154622606292"><ele>225.66666666666669</ele><time>2026-04-12T16:30:55.001Z</time></trkpt><trkpt lat="38.729629834032906" lon="16.16630149774494"><ele>216.0</ele><time>2026-04-12T16:30:56.001Z</time></trkpt><trkpt lat="38.729785264305434" lon="16.16644400733833"><ele>213.33333333333331</ele><time>2026-04-12T16:30:57.001Z</time></trkpt><trkpt lat="38.7299367556315" lon="16.166584830512335"><ele>210.66666666666666</ele><time>2026-04-12T16:30:58.001Z</time></trkpt><trkpt lat="38.730085898188086" lon="16.166723878631352"><ele>208.0</ele><time>2026-04-12T16:30:59.001Z</time></trkpt><trkpt lat="38.73022792567919" lon="16.166860923619815"><ele>208.0</ele><time>2026-04-12T16:31:00.001Z</time></trkpt><trkpt lat="38.730373515712245" lon="16.166994021654812"><ele>208.0</ele><time>2026-04-12T16:31:01.001Z</time></trkpt><trkpt lat="38.730518025398254" lon="16.167128255322645"><ele>208.0</ele><time>2026-04-12T16:31:02.001Z</time></trkpt><trkpt lat="38.73066439408505" lon="16.167266549847323"><ele>201.0</ele><time>2026-04-12T16:31:03.001Z</time></trkpt><trkpt lat="38.73080843606244" lon="16.167404133530557"><ele>194.0</ele><time>2026-04-12T16:31:04.001Z</time></trkpt><trkpt lat="38.730947299954565" lon="16.167537621503048"><ele>187.0</ele><time>2026-04-12T16:31:05.001Z</time></trkpt><trkpt lat="38.7310833752018" lon="16.167663586583224"><ele>187.0</ele><time>2026-04-12T16:31:06.001Z</time></trkpt><trkpt lat="38.73121582012053" lon="16.16779681464077"><ele>187.0</ele><time>2026-04-12T16:31:07.001Z</time></trkpt><trkpt lat="38.731347180080384" lon="16.16793131252324"><ele>187.0</ele><time>2026-04-12T16:31:08.001Z</time></trkpt><trkpt lat="38.731477019916724" lon="16.168072651543174"><ele>196.0</ele><time>2026-04-12T16:31:09.001Z</time></trkpt><trkpt lat="38.73160977427482" lon="16.16821954606926"><ele>205.0</ele><time>2026-04-12T16:31:10.001Z</time></trkpt><trkpt lat="38.731735423270464" lon="16.168372085660828"><ele>214.0</ele><time>2026-04-12T16:31:11.001Z</time></trkpt><trkpt lat="38.73186321010599" lon="16.168527224222153"><ele>198.66666666666666</ele><time>2026-04-12T16:31:12.001Z</time></trkpt><trkpt lat="38.731988665870304" lon="16.168688127356337"><ele>183.33333333333331</ele><time>2026-04-12T16:31:13.001Z</time></trkpt><trkpt lat="38.732108628923925" lon="16.168853331075283"><ele>168.0</ele><time>2026-04-12T16:31:14.002Z</time></trkpt><trkpt lat="38.73222886049966" lon="16.169015288552544"><ele>175.33333333333334</ele><time>2026-04-12T16:31:15.002Z</time></trkpt><trkpt lat="38.73234489921584" lon="16.169186071556496"><ele>182.66666666666669</ele><time>2026-04-12T16:31:16.002Z</time></trkpt><trkpt lat="38.73245094281349" lon="16.16935390237353"><ele>190.0</ele><time>2026-04-12T16:31:17.002Z</time></trkpt><trkpt lat="38.732554612493686" lon="16.16952505519715"><ele>190.0</ele><time>2026-04-12T16:31:18.001Z</time></trkpt><trkpt lat="38.73265968043571" lon="16.169703860232794"><ele>190.0</ele><time>2026-04-12T16:31:19.001Z</time></trkpt><trkpt lat="38.73276228520603" lon="16.169884816871686"><ele>190.0</ele><time>2026-04-12T16:31:20.001Z</time></trkpt><trkpt lat="38.73286134823359" lon="16.170066535655003"><ele>181.66666666666669</ele><time>2026-04-12T16:31:21.001Z</time></trkpt><trkpt lat="38.73295595162752" lon="16.170249023502226"><ele>173.33333333333334</ele><time>2026-04-12T16:31:22.001Z</time></trkpt><trkpt lat="38.73305018929963" lon="16.17043435199933"><ele>165.0</ele><time>2026-04-12T16:31:23.001Z</time></trkpt><trkpt lat="38.73313668048113" lon="16.170621652536653"><ele>170.33333333333334</ele><time>2026-04-12T16:31:24.001Z</time></trkpt><trkpt lat="38.73321457402472" lon="16.170808746450547"><ele>175.66666666666669</ele><time>2026-04-12T16:31:25.001Z</time></trkpt><trkpt lat="38.73328981632671" lon="16.170996176079623"><ele>181.0</ele><time>2026-04-12T16:31:26.001Z</time></trkpt><trkpt lat="38.73336786169022" lon="16.171190279943136"><ele>181.0</ele><time>2026-04-12T16:31:27.001Z</time></trkpt><trkpt lat="38.73344563560194" lon="16.17138549359115"><ele>181.0</ele><time>2026-04-12T16:31:28.001Z</time></trkpt><trkpt lat="38.733517722870346" lon="16.171586437047853"><ele>181.0</ele><time>2026-04-12T16:31:29.001Z</time></trkpt><trkpt lat="38.733588748946154" lon="16.17179133612735"><ele>179.33333333333334</ele><time>2026-04-12T16:31:30.001Z</time></trkpt><trkpt lat="38.733654282478355" lon="16.17199790885033"><ele>177.66666666666666</ele><time>2026-04-12T16:31:31.001Z</time></trkpt><trkpt lat="38.73371845177841" lon="16.172204707565154"><ele>176.0</ele><time>2026-04-12T16:31:32.001Z</time></trkpt><trkpt lat="38.73377892481206" lon="16.172414790957177"><ele>176.0</ele><time>2026-04-12T16:31:33.001Z</time></trkpt><trkpt lat="38.73383460322826" lon="16.17262424707163"><ele>176.0</ele><time>2026-04-12T16:31:34.001Z</time></trkpt><trkpt lat="38.73388574199872" lon="16.172834536922075"><ele>176.0</ele><time>2026-04-12T16:31:35.001Z</time></trkpt><trkpt lat="38.73393454283882" lon="16.173045948873032"><ele>179.66666666666666</ele><time>2026-04-12T16:31:36.001Z</time></trkpt><trkpt lat="38.733983913135546" lon="16.173254835647807"><ele>183.33333333333334</ele><time>2026-04-12T16:31:37.001Z</time></trkpt><trkpt lat="38.734033444469354" lon="16.173469596861636"><ele>187.0</ele><time>2026-04-12T16:31:38.001Z</time></trkpt><trkpt lat="38.734083824349014" lon="16.17368768276085"><ele>187.0</ele><time>2026-04-12T16:31:39.001Z</time></trkpt><trkpt lat="38.73413562992099" lon="16.17389976357309"><ele>187.0</ele><time>2026-04-12T16:31:40.001Z</time></trkpt><trkpt lat="38.734187601079086" lon="16.174119906861385"><ele>187.0</ele><time>2026-04-12T16:31:41.001Z</time></trkpt><trkpt lat="38.73423973962036" lon="16.17434354786056"><ele>193.33333333333334</ele><time>2026-04-12T16:31:42.001Z</time></trkpt><trkpt lat="38.73429251004764" lon="16.1745670617923"><ele>199.66666666666669</ele><time>2026-04-12T16:31:43.001Z</time></trkpt><trkpt lat="38.73434600616479" lon="16.174792483603724"><ele>206.0</ele><time>2026-04-12T16:31:44.001Z</time></trkpt><trkpt lat="38.734399722189366" lon="16.175017907541683"><ele>198.33333333333334</ele><time>2026-04-12T16:31:45.001Z</time></trkpt><trkpt lat="38.734454730220044" lon="16.175245327484966"><ele>190.66666666666669</ele><time>2026-04-12T16:31:46.001Z</time></trkpt><trkpt lat="38.73450805089682" lon="16.17547327361451"><ele>183.0</ele><time>2026-04-12T16:31:47.001Z</time></trkpt><trkpt lat="38.734560000667706" lon="16.175705359947838"><ele>183.0</ele><time>2026-04-12T16:31:48.001Z</time></trkpt><trkpt lat="38.734613931533325" lon="16.17594264570073"><ele>183.0</ele><time>2026-04-12T16:31:49.001Z</time></trkpt><trkpt lat="38.73467047881885" lon="16.176179930813237"><ele>183.0</ele><time>2026-04-12T16:31:50.001Z</time></trkpt><trkpt lat="38.73472727865598" lon="16.176415626661186"><ele>188.33333333333331</ele><time>2026-04-12T16:31:51.001Z</time></trkpt><trkpt lat="38.73478500229055" lon="16.176661604671853"><ele>193.66666666666666</ele><time>2026-04-12T16:31:52.001Z</time></trkpt><trkpt lat="38.734848469263525" lon="16.176899616047166"><ele>199.0</ele><time>2026-04-12T16:31:53.001Z</time></trkpt><trkpt lat="38.73491795831411" lon="16.17714247295555"><ele>203.66666666666666</ele><time>2026-04-12T16:31:54.001Z</time></trkpt><trkpt lat="38.735003042992595" lon="16.17738786647826"><ele>208.33333333333331</ele><time>2026-04-12T16:31:55.001Z</time></trkpt><trkpt lat="38.735091903224834" lon="16.177638756159407"><ele>213.0</ele><time>2026-04-12T16:31:56.001Z</time></trkpt><trkpt lat="38.73518810780149" lon="16.17789100189969"><ele>200.0</ele><time>2026-04-12T16:31:57.001Z</time></trkpt><trkpt lat="38.735290402054076" lon="16.17814306923307"><ele>187.0</ele><time>2026-04-12T16:31:58.001Z</time></trkpt><trkpt lat="38.73540133393822" lon="16.178399089756493"><ele>187.0</ele><time>2026-04-12T16:31:59.001Z</time></trkpt><trkpt lat="38.7355248679378" lon="16.17865559209811"><ele>187.0</ele><time>2026-04-12T16:32:00.001Z</time></trkpt><trkpt lat="38.73565481339851" lon="16.178906654180253"><ele>194.0</ele><time>2026-04-12T16:32:01.001Z</time></trkpt><trkpt lat="38.7357912475578" lon="16.179154309615413"><ele>201.0</ele><time>2026-04-12T16:32:02.001Z</time></trkpt><trkpt lat="38.735929086424285" lon="16.179396410701553"><ele>192.0</ele><time>2026-04-12T16:32:03.001Z</time></trkpt><trkpt lat="38.736067783072784" lon="16.179630479750436"><ele>183.0</ele><time>2026-04-12T16:32:04.001Z</time></trkpt><trkpt lat="38.73621040595" lon="16.179855958653242"><ele>183.0</ele><time>2026-04-12T16:32:05.001Z</time></trkpt><trkpt lat="38.736362168856445" lon="16.180077796378615"><ele>183.0</ele><time>2026-04-12T16:32:06.001Z</time></trkpt><trkpt lat="38.736517501980515" lon="16.180294905275012"><ele>183.0</ele><time>2026-04-12T16:32:07.001Z</time></trkpt><trkpt lat="38.736679659843695" lon="16.18050870829192"><ele>183.0</ele><time>2026-04-12T16:32:08.001Z</time></trkpt><trkpt lat="38.736849344661785" lon="16.180715684765257"><ele>179.5</ele><time>2026-04-12T16:32:09.001Z</time></trkpt><trkpt lat="38.737017269250636" lon="16.18091376421099"><ele>176.0</ele><time>2026-04-12T16:32:10.001Z</time></trkpt><trkpt lat="38.73718821677296" lon="16.181108395314606"><ele>176.0</ele><time>2026-04-12T16:32:11.001Z</time></trkpt><trkpt lat="38.73736522296897" lon="16.18129389951432"><ele>176.0</ele><time>2026-04-12T16:32:12.001Z</time></trkpt><trkpt lat="38.73754734733779" lon="16.181473183802524"><ele>174.0</ele><time>2026-04-12T16:32:13.001Z</time></trkpt><trkpt lat="38.7377292270492" lon="16.181647917509025"><ele>172.0</ele><time>2026-04-12T16:32:14.001Z</time></trkpt><trkpt lat="38.73791129470001" lon="16.18181800288989"><ele>172.0</ele><time>2026-04-12T16:32:15.001Z</time></trkpt><trkpt lat="38.738087943640515" lon="16.1819946498479"><ele>172.0</ele><time>2026-04-12T16:32:16.001Z</time></trkpt><trkpt lat="38.73825673647553" lon="16.182184328857545"><ele>172.0</ele><time>2026-04-12T16:32:17.001Z</time></trkpt><trkpt lat="38.73841390408656" lon="16.18239031806071"><ele>168.33333333333334</ele><time>2026-04-12T16:32:18.001Z</time></trkpt><trkpt lat="38.738563092265274" lon="16.182609294397476"><ele>164.66666666666666</ele><time>2026-04-12T16:32:19.001Z</time></trkpt><trkpt lat="38.7386913808871" lon="16.18283642992024"><ele>161.0</ele><time>2026-04-12T16:32:20.001Z</time></trkpt><trkpt lat="38.73880843490759" lon="16.18307750905963"><ele>165.0</ele><time>2026-04-12T16:32:21.001Z</time></trkpt><trkpt lat="38.73891527042788" lon="16.183329514381967"><ele>169.0</ele><time>2026-04-12T16:32:22.001Z</time></trkpt><trkpt lat="38.73901287188091" lon="16.183584184491874"><ele>173.0</ele><time>2026-04-12T16:32:23.001Z</time></trkpt><trkpt lat="38.739112153153535" lon="16.18383863284654"><ele>174.66666666666666</ele><time>2026-04-12T16:32:24.001Z</time></trkpt><trkpt lat="38.73921506160955" lon="16.184089878858796"><ele>176.33333333333334</ele><time>2026-04-12T16:32:25.001Z</time></trkpt><trkpt lat="38.73931371503134" lon="16.18432563470126"><ele>178.0</ele><time>2026-04-12T16:32:26.001Z</time></trkpt><trkpt lat="38.73941637305251" lon="16.184554386898924"><ele>175.0</ele><time>2026-04-12T16:32:27.001Z</time></trkpt><trkpt lat="38.73952506019492" lon="16.184775251451658"><ele>172.0</ele><time>2026-04-12T16:32:28.001Z</time></trkpt><trkpt lat="38.73963753019396" lon="16.18498584031343"><ele>169.0</ele><time>2026-04-12T16:32:29.001Z</time></trkpt><trkpt lat="38.739757254445266" lon="16.185180172741745"><ele>169.0</ele><time>2026-04-12T16:32:30.001Z</time></trkpt><trkpt lat="38.7398880089906" lon="16.185363974623172"><ele>169.0</ele><time>2026-04-12T16:32:31.001Z</time></trkpt><trkpt lat="38.740025659821775" lon="16.185541507367375"><ele>169.0</ele><time>2026-04-12T16:32:32.001Z</time></trkpt><trkpt lat="38.74016493162474" lon="16.18570992758612"><ele>166.66666666666669</ele><time>2026-04-12T16:32:33.001Z</time></trkpt><trkpt lat="38.74031686262116" lon="16.185868851277032"><ele>164.33333333333334</ele><time>2026-04-12T16:32:34.001Z</time></trkpt><trkpt lat="38.74047687703654" lon="16.18601927341625"><ele>162.0</ele><time>2026-04-12T16:32:35.001Z</time></trkpt><trkpt lat="38.74064271546526" lon="16.18615943689789"><ele>162.0</ele><time>2026-04-12T16:32:36.001Z</time></trkpt><trkpt lat="38.740812514424746" lon="16.18629567721707"><ele>162.0</ele><time>2026-04-12T16:32:37.001Z</time></trkpt><trkpt lat="38.74099112003976" lon="16.186417223382737"><ele>162.0</ele><time>2026-04-12T16:32:38.001Z</time></trkpt><trkpt lat="38.74117087680407" lon="16.1865414576587"><ele>160.66666666666666</ele><time>2026-04-12T16:32:39.001Z</time></trkpt><trkpt lat="38.74134566552688" lon="16.186667462666172"><ele>159.33333333333331</ele><time>2026-04-12T16:32:40.001Z</time></trkpt><trkpt lat="38.74152015775004" lon="16.186797742586144"><ele>158.0</ele><time>2026-04-12T16:32:41.001Z</time></trkpt><trkpt lat="38.74169699460846" lon="16.186928228887712"><ele>158.0</ele><time>2026-04-12T16:32:42.001Z</time></trkpt><trkpt lat="38.74187543286767" lon="16.187064026020852"><ele>158.0</ele><time>2026-04-12T16:32:43.001Z</time></trkpt><trkpt lat="38.74205781407032" lon="16.18719944612696"><ele>158.0</ele><time>2026-04-12T16:32:44.001Z</time></trkpt><trkpt lat="38.74224268766766" lon="16.187330843948867"><ele>159.33333333333331</ele><time>2026-04-12T16:32:45.001Z</time></trkpt><trkpt lat="38.74242886415373" lon="16.187459211162704"><ele>160.66666666666666</ele><time>2026-04-12T16:32:46.001Z</time></trkpt><trkpt lat="38.74261940438855" lon="16.187591875523058"><ele>162.0</ele><time>2026-04-12T16:32:47.001Z</time></trkpt><trkpt lat="38.74281341739506" lon="16.18772242799669"><ele>157.0</ele><time>2026-04-12T16:32:48.001Z</time></trkpt><trkpt lat="38.743011960937324" lon="16.18784949133289"><ele>152.0</ele><time>2026-04-12T16:32:49.001Z</time></trkpt><trkpt lat="38.74321123614282" lon="16.187976763614085"><ele>147.0</ele><time>2026-04-12T16:32:50.001Z</time></trkpt><trkpt lat="38.74340966449222" lon="16.188100404633197"><ele>146.66666666666666</ele><time>2026-04-12T16:32:51.001Z</time></trkpt><trkpt lat="38.74360329855428" lon="16.188217068729582"><ele>146.33333333333331</ele><time>2026-04-12T16:32:52.001Z</time></trkpt><trkpt lat="38.743796095920615" lon="16.1883236602297"><ele>146.0</ele><time>2026-04-12T16:32:53.001Z</time></trkpt><trkpt lat="38.74398684749308" lon="16.188427814651053"><ele>146.0</ele><time>2026-04-12T16:32:54.001Z</time></trkpt><trkpt lat="38.744179320167255" lon="16.188534027586194"><ele>146.0</ele><time>2026-04-12T16:32:55.001Z</time></trkpt><trkpt lat="38.74437689174736" lon="16.18863632374786"><ele>146.0</ele><time>2026-04-12T16:32:56.001Z</time></trkpt><trkpt lat="38.744580933022256" lon="16.188739999354866"><ele>147.66666666666666</ele><time>2026-04-12T16:32:57.001Z</time></trkpt><trkpt lat="38.74478731175485" lon="16.188844286666672"><ele>149.33333333333334</ele><time>2026-04-12T16:32:58.001Z</time></trkpt><trkpt lat="38.744996296880345" lon="16.188940572704347"><ele>151.0</ele><time>2026-04-12T16:32:59.001Z</time></trkpt><trkpt lat="38.74520465173453" lon="16.189033427381137"><ele>149.33333333333334</ele><time>2026-04-12T16:33:00.001Z</time></trkpt><trkpt lat="38.74541060573677" lon="16.18912492542915"><ele>147.66666666666666</ele><time>2026-04-12T16:33:01.001Z</time></trkpt><trkpt lat="38.7456200785285" lon="16.18921170362289"><ele>146.0</ele><time>2026-04-12T16:33:02.001Z</time></trkpt><trkpt lat="38.74582401157307" lon="16.18929212385823"><ele>146.0</ele><time>2026-04-12T16:33:03.001Z</time></trkpt><trkpt lat="38.74602950290268" lon="16.189364764498876"><ele>146.0</ele><time>2026-04-12T16:33:04.001Z</time></trkpt><trkpt lat="38.7462405218079" lon="16.189442657561038"><ele>146.0</ele><time>2026-04-12T16:33:05.001Z</time></trkpt><trkpt lat="38.746445571900196" lon="16.189515486305226"><ele>143.0</ele><time>2026-04-12T16:33:06.001Z</time></trkpt><trkpt lat="38.74665090666168" lon="16.18958486007831"><ele>140.0</ele><time>2026-04-12T16:33:07.001Z</time></trkpt><trkpt lat="38.746854763578966" lon="16.189653377445225"><ele>137.0</ele><time>2026-04-12T16:33:08.001Z</time></trkpt><trkpt lat="38.74705796316351" lon="16.189720589369898"><ele>135.66666666666666</ele><time>2026-04-12T16:33:09.001Z</time></trkpt><trkpt lat="38.747261967807006" lon="16.189787956749175"><ele>134.33333333333334</ele><time>2026-04-12T16:33:10.001Z</time></trkpt><trkpt lat="38.74746476808503" lon="16.189861220392583"><ele>133.0</ele><time>2026-04-12T16:33:11.001Z</time></trkpt><trkpt lat="38.74766446770321" lon="16.18993722256996"><ele>131.33333333333334</ele><time>2026-04-12T16:33:12.002Z</time></trkpt><trkpt lat="38.74785779427081" lon="16.19002017090552"><ele>129.66666666666666</ele><time>2026-04-12T16:33:13.002Z</time></trkpt><trkpt lat="38.74805088527" lon="16.190106935653905"><ele>128.0</ele><time>2026-04-12T16:33:14.002Z</time></trkpt><trkpt lat="38.74823078248972" lon="16.19020633228973"><ele>128.0</ele><time>2026-04-12T16:33:15.002Z</time></trkpt><trkpt lat="38.74839428747186" lon="16.190318357829934"><ele>128.0</ele><time>2026-04-12T16:33:16.002Z</time></trkpt><trkpt lat="38.748551474345106" lon="16.190435300569067"><ele>128.0</ele><time>2026-04-12T16:33:17.002Z</time></trkpt><trkpt lat="38.74869960948402" lon="16.190556934453603"><ele>126.66666666666666</ele><time>2026-04-12T16:33:18.002Z</time></trkpt><trkpt lat="38.74883934874801" lon="16.190684259204463"><ele>125.33333333333334</ele><time>2026-04-12T16:33:19.002Z</time></trkpt><trkpt lat="38.74897817045365" lon="16.190836739368297"><ele>124.0</ele><time>2026-04-12T16:33:20.002Z</time></trkpt><trkpt lat="38.749112132124296" lon="16.19098936324083"><ele>124.0</ele><time>2026-04-12T16:33:21.002Z</time></trkpt><trkpt lat="38.74923892787613" lon="16.191137287752824"><ele>124.0</ele><time>2026-04-12T16:33:22.002Z</time></trkpt><trkpt lat="38.749365073396426" lon="16.19127953917606"><ele>124.0</ele><time>2026-04-12T16:33:23.002Z</time></trkpt><trkpt lat="38.74948539691103" lon="16.191420635747832"><ele>122.5</ele><time>2026-04-12T16:33:24.001Z</time></trkpt><trkpt lat="38.74959602824603" lon="16.191554341249958"><ele>121.0</ele><time>2026-04-12T16:33:25.001Z</time></trkpt><trkpt lat="38.74969865455521" lon="16.191671226102184"><ele>119.5</ele><time>2026-04-12T16:33:26.001Z</time></trkpt><trkpt lat="38.74979099166575" lon="16.191786788339854"><ele>118.0</ele><time>2026-04-12T16:33:27.001Z</time></trkpt><trkpt lat="38.74987109767305" lon="16.19190017193172"><ele>118.0</ele><time>2026-04-12T16:33:28.001Z</time></trkpt><trkpt lat="38.74994642152472" lon="16.192013854039963"><ele>118.00000000000001</ele><time>2026-04-12T16:33:29.001Z</time></trkpt><trkpt lat="38.75001713326699" lon="16.19212441007351"><ele>118.00000000000001</ele><time>2026-04-12T16:33:30.001Z</time></trkpt><trkpt lat="38.75008309244247" lon="16.19222913926097"><ele>118.0</ele><time>2026-04-12T16:33:31.001Z</time></trkpt><trkpt lat="38.75014763082775" lon="16.192335960738294"><ele>118.0</ele><time>2026-04-12T16:33:32.001Z</time></trkpt><trkpt lat="38.750213634278644" lon="16.19243968143513"><ele>118.0</ele><time>2026-04-12T16:33:33.001Z</time></trkpt><trkpt lat="38.7502785663428" lon="16.192536733159795"><ele>118.00000000000001</ele><time>2026-04-12T16:33:34.001Z</time></trkpt><trkpt lat="38.750335560739174" lon="16.192627587211323"><ele>118.00000000000001</ele><time>2026-04-12T16:33:35.001Z</time></trkpt><trkpt lat="38.75037863099239" lon="16.19271760794154"><ele>118.0</ele><time>2026-04-12T16:33:36.001Z</time></trkpt><trkpt lat="38.750412920994734" lon="16.19279763126275"><ele>118.0</ele><time>2026-04-12T16:33:37.001Z</time></trkpt><trkpt lat="38.75049735554228" lon="16.192882232156073"><ele>118.00000000000001</ele><time>2026-04-12T16:33:39.001Z</time></trkpt><trkpt lat="38.750564848141835" lon="16.192978736560686"><ele>118.0</ele><time>2026-04-12T16:33:41.001Z</time></trkpt><trkpt lat="38.750591517251465" lon="16.193057543226278"><ele>118.0</ele><time>2026-04-12T16:33:43.001Z</time></trkpt><trkpt lat="38.750625983306456" lon="16.193133262491006"><ele>118.0</ele><time>2026-04-12T16:33:47.001Z</time></trkpt><trkpt lat="38.750670606336904" lon="16.19321667213161"><ele>118.00000000000001</ele><time>2026-04-12T16:34:00.001Z</time></trkpt><trkpt lat="38.75074390946245" lon="16.19329713569155"><ele>118.0</ele><time>2026-04-12T16:34:02.001Z</time></trkpt><trkpt lat="38.75080188995356" lon="16.193349681596228"><ele>118.16666666666667</ele><time>2026-04-12T16:34:04.001Z</time></trkpt><trkpt lat="38.75084864195732" lon="16.193412753661267"><ele>118.33333333333334</ele><time>2026-04-12T16:34:07.001Z</time></trkpt><trkpt lat="38.75095971023018" lon="16.193413999833087"><ele>118.5</ele><time>2026-04-12T16:48:12.998Z</time></trkpt><trkpt lat="38.75106084323151" lon="16.193387570823738"><ele>118.66666666666666</ele><time>2026-04-12T16:48:14.998Z</time></trkpt><trkpt lat="38.751127307544785" lon="16.193341977677377"><ele>118.83333333333333</ele><time>2026-04-12T16:48:15.998Z</time></trkpt><trkpt lat="38.751200944327714" lon="16.193282386532548"><ele>119.0</ele><time>2026-04-12T16:48:16.999Z</time></trkpt><trkpt lat="38.75128396155426" lon="16.193224890076742"><ele>118.25</ele><time>2026-04-12T16:48:17.999Z</time></trkpt><trkpt lat="38.75137408073641" lon="16.193188286076104"><ele>117.5</ele><time>2026-04-12T16:48:18.999Z</time></trkpt><trkpt lat="38.75147964052385" lon="16.19318208847776"><ele>116.75</ele><time>2026-04-12T16:48:19.999Z</time></trkpt><trkpt lat="38.75160572913645" lon="16.193210859959645"><ele>116.0</ele><time>2026-04-12T16:48:20.999Z</time></trkpt><trkpt lat="38.751746843108045" lon="16.19328169283544"><ele>114.66666666666666</ele><time>2026-04-12T16:48:21.999Z</time></trkpt><trkpt lat="38.7518904757863" lon="16.193377208490407"><ele>113.33333333333334</ele><time>2026-04-12T16:48:22.999Z</time></trkpt><trkpt lat="38.75204159391836" lon="16.19349195570295"><ele>112.0</ele><time>2026-04-12T16:48:23.999Z</time></trkpt><trkpt lat="38.75220668467276" lon="16.193618354136404"><ele>112.0</ele><time>2026-04-12T16:48:24.999Z</time></trkpt><trkpt lat="38.75237866031284" lon="16.193755759381762"><ele>112.0</ele><time>2026-04-12T16:48:25.999Z</time></trkpt><trkpt lat="38.752549266032446" lon="16.193917295002873"><ele>112.0</ele><time>2026-04-12T16:48:26.999Z</time></trkpt><trkpt lat="38.75271826044832" lon="16.194106450019095"><ele>103.0</ele><time>2026-04-12T16:48:27.999Z</time></trkpt><trkpt lat="38.752888019432085" lon="16.19432187069527"><ele>94.0</ele><time>2026-04-12T16:48:28.999Z</time></trkpt><trkpt lat="38.75304910477839" lon="16.194565486022867"><ele>94.0</ele><time>2026-04-12T16:48:29.999Z</time></trkpt><trkpt lat="38.7531963665092" lon="16.194834971062924"><ele>94.0</ele><time>2026-04-12T16:48:30.999Z</time></trkpt><trkpt lat="38.753335327714424" lon="16.195127455699996"><ele>90.0</ele><time>2026-04-12T16:48:31.999Z</time></trkpt><trkpt lat="38.75347227101445" lon="16.195443482136852"><ele>86.0</ele><time>2026-04-12T16:48:32.999Z</time></trkpt><trkpt lat="38.753610143987665" lon="16.195775110618936"><ele>86.0</ele><time>2026-04-12T16:48:33.999Z</time></trkpt><trkpt lat="38.75374822724761" lon="16.196115094450903"><ele>86.0</ele><time>2026-04-12T16:48:34.999Z</time></trkpt><trkpt lat="38.753888295375845" lon="16.19647008168848"><ele>92.5</ele><time>2026-04-12T16:48:35.999Z</time></trkpt><trkpt lat="38.75402900469578" lon="16.196831782071268"><ele>99.0</ele><time>2026-04-12T16:48:36.999Z</time></trkpt><trkpt lat="38.75417274694441" lon="16.19719548848035"><ele>101.0</ele><time>2026-04-12T16:48:37.999Z</time></trkpt><trkpt lat="38.7543168195473" lon="16.19755232231213"><ele>103.0</ele><time>2026-04-12T16:48:38.999Z</time></trkpt><trkpt lat="38.75447054208225" lon="16.19789379558571"><ele>95.0</ele><time>2026-04-12T16:48:39.999Z</time></trkpt><trkpt lat="38.75464711447788" lon="16.19821183286856"><ele>87.0</ele><time>2026-04-12T16:48:40.999Z</time></trkpt><trkpt lat="38.75485057531265" lon="16.198497858997705"><ele>87.0</ele><time>2026-04-12T16:48:41.999Z</time></trkpt><trkpt lat="38.755075520907006" lon="16.198754121253366"><ele>87.0</ele><time>2026-04-12T16:48:42.999Z</time></trkpt><trkpt lat="38.75532022664688" lon="16.198991087252903"><ele>86.5</ele><time>2026-04-12T16:48:43.999Z</time></trkpt><trkpt lat="38.75557412760676" lon="16.199215400265018"><ele>86.0</ele><time>2026-04-12T16:48:44.999Z</time></trkpt><trkpt lat="38.75583856145956" lon="16.199427992671406"><ele>77.5</ele><time>2026-04-12T16:48:45.999Z</time></trkpt><trkpt lat="38.75611181558716" lon="16.19962390567363"><ele>69.0</ele><time>2026-04-12T16:48:46.999Z</time></trkpt><trkpt lat="38.75639161206561" lon="16.199814148845043"><ele>69.0</ele><time>2026-04-12T16:48:47.999Z</time></trkpt><trkpt lat="38.75667297849762" lon="16.200005619273362"><ele>69.0</ele><time>2026-04-12T16:48:48.999Z</time></trkpt><trkpt lat="38.75695107983805" lon="16.200207943724507"><ele>69.0</ele><time>2026-04-12T16:48:49.999Z</time></trkpt><trkpt lat="38.75722391528962" lon="16.20042517424795"><ele>69.0</ele><time>2026-04-12T16:48:50.999Z</time></trkpt><trkpt lat="38.75749265683815" lon="16.20065894116163"><ele>69.0</ele><time>2026-04-12T16:48:51.999Z</time></trkpt><trkpt lat="38.75776228639355" lon="16.200894594500713"><ele>69.0</ele><time>2026-04-12T16:48:52.999Z</time></trkpt><trkpt lat="38.75803669776573" lon="16.201117436058574"><ele>69.0</ele><time>2026-04-12T16:48:53.999Z</time></trkpt><trkpt lat="38.75831991577503" lon="16.201326513930628"><ele>69.0</ele><time>2026-04-12T16:48:54.999Z</time></trkpt><trkpt lat="38.758613927939095" lon="16.201521086599488"><ele>70.0</ele><time>2026-04-12T16:48:55.999Z</time></trkpt><trkpt lat="38.758908193371376" lon="16.20170208752869"><ele>71.0</ele><time>2026-04-12T16:48:56.999Z</time></trkpt><trkpt lat="38.759206805449196" lon="16.201864256613348"><ele>59.5</ele><time>2026-04-12T16:48:57.999Z</time></trkpt><trkpt lat="38.759507864235324" lon="16.202017448777035"><ele>48.0</ele><time>2026-04-12T16:48:58.999Z</time></trkpt><trkpt lat="38.75981540655621" lon="16.202169451944346"><ele>48.0</ele><time>2026-04-12T16:48:59.999Z</time></trkpt><trkpt lat="38.76011918114931" lon="16.20231265165284"><ele>48.0</ele><time>2026-04-12T16:49:00.999Z</time></trkpt><trkpt lat="38.760450113313006" lon="16.202401632350746"><ele>51.0</ele><time>2026-04-12T16:49:01.999Z</time></trkpt><trkpt lat="38.76073917657399" lon="16.202496085359083"><ele>54.0</ele><time>2026-04-12T16:49:02.999Z</time></trkpt><trkpt lat="38.761043651360104" lon="16.202595396506783"><ele>54.0</ele><time>2026-04-12T16:49:03.999Z</time></trkpt><trkpt lat="38.761346806016505" lon="16.20270182900973"><ele>54.0</ele><time>2026-04-12T16:49:04.999Z</time></trkpt><trkpt lat="38.76164775813186" lon="16.202810427546844"><ele>42.5</ele><time>2026-04-12T16:49:05.999Z</time></trkpt><trkpt lat="38.76194075988054" lon="16.20292189747376"><ele>31.0</ele><time>2026-04-12T16:49:06.999Z</time></trkpt><trkpt lat="38.76222458778058" lon="16.20305678795102"><ele>34.5</ele><time>2026-04-12T16:49:07.999Z</time></trkpt><trkpt lat="38.76249669643031" lon="16.20323999818423"><ele>38.0</ele><time>2026-04-12T16:49:08.999Z</time></trkpt><trkpt lat="38.76275257444958" lon="16.203461265808247"><ele>38.0</ele><time>2026-04-12T16:49:09.999Z</time></trkpt><trkpt lat="38.76299814809709" lon="16.20371134670973"><ele>38.0</ele><time>2026-04-12T16:49:10.999Z</time></trkpt><trkpt lat="38.763237878579986" lon="16.203967422874452"><ele>39.0</ele><time>2026-04-12T16:49:11.999Z</time></trkpt><trkpt lat="38.76348347154702" lon="16.204208172796417"><ele>40.0</ele><time>2026-04-12T16:49:12.999Z</time></trkpt><trkpt lat="38.763742586513644" lon="16.204417241275635"><ele>40.0</ele><time>2026-04-12T16:49:13.999Z</time></trkpt><trkpt lat="38.76401312061395" lon="16.204587936242287"><ele>40.0</ele><time>2026-04-12T16:49:14.999Z</time></trkpt><trkpt lat="38.76429223754329" lon="16.204733599898784"><ele>43.5</ele><time>2026-04-12T16:49:15.999Z</time></trkpt><trkpt lat="38.76457318946304" lon="16.204879007614487"><ele>47.0</ele><time>2026-04-12T16:49:16.999Z</time></trkpt><trkpt lat="38.76485526498419" lon="16.20502558390381"><ele>47.0</ele><time>2026-04-12T16:49:17.999Z</time></trkpt><trkpt lat="38.76513883219064" lon="16.205183958668712"><ele>47.0</ele><time>2026-04-12T16:49:18.999Z</time></trkpt><trkpt lat="38.76542179530366" lon="16.205345148419358"><ele>50.0</ele><time>2026-04-12T16:49:19.999Z</time></trkpt><trkpt lat="38.765704638123026" lon="16.20552407659557"><ele>53.0</ele><time>2026-04-12T16:49:20.999Z</time></trkpt><trkpt lat="38.76598704936518" lon="16.205717756803516"><ele>40.0</ele><time>2026-04-12T16:49:21.999Z</time></trkpt><trkpt lat="38.76626235339193" lon="16.20592818440004"><ele>27.0</ele><time>2026-04-12T16:49:22.998Z</time></trkpt><trkpt lat="38.766539873710464" lon="16.20614824698749"><ele>27.0</ele><time>2026-04-12T16:49:23.998Z</time></trkpt><trkpt lat="38.76681035553601" lon="16.206377154446162"><ele>27.0</ele><time>2026-04-12T16:49:24.998Z</time></trkpt><trkpt lat="38.767078986243426" lon="16.20660709712253"><ele>28.5</ele><time>2026-04-12T16:49:25.998Z</time></trkpt><trkpt lat="38.76735072330476" lon="16.20683400980405"><ele>30.0</ele><time>2026-04-12T16:49:26.998Z</time></trkpt><trkpt lat="38.76761687894398" lon="16.207054914559407"><ele>26.5</ele><time>2026-04-12T16:49:27.998Z</time></trkpt><trkpt lat="38.76787516517692" lon="16.207271875433015"><ele>23.0</ele><time>2026-04-12T16:49:28.998Z</time></trkpt><trkpt lat="38.768127023836094" lon="16.207498200382926"><ele>23.0</ele><time>2026-04-12T16:49:29.998Z</time></trkpt><trkpt lat="38.768362236866345" lon="16.207750444211165"><ele>23.0</ele><time>2026-04-12T16:49:30.998Z</time></trkpt><trkpt lat="38.768586737533276" lon="16.20802134979235"><ele>20.0</ele><time>2026-04-12T16:49:31.998Z</time></trkpt><trkpt lat="38.768799336836274" lon="16.208308478213894"><ele>17.0</ele><time>2026-04-12T16:49:32.998Z</time></trkpt><trkpt lat="38.76900769153651" lon="16.20858953715323"><ele>17.0</ele><time>2026-04-12T16:49:33.998Z</time></trkpt><trkpt lat="38.76921102742975" lon="16.208865241064682"><ele>17.0</ele><time>2026-04-12T16:49:34.998Z</time></trkpt><trkpt lat="38.769415397881865" lon="16.209142963271557"><ele>14.0</ele><time>2026-04-12T16:49:35.998Z</time></trkpt><trkpt lat="38.76961075546363" lon="16.20943408280196"><ele>11.0</ele><time>2026-04-12T16:49:36.998Z</time></trkpt><trkpt lat="38.769788514321306" lon="16.20973842886219"><ele>11.5</ele><time>2026-04-12T16:49:37.998Z</time></trkpt><trkpt lat="38.7699535297248" lon="16.21005449643536"><ele>12.0</ele><time>2026-04-12T16:49:38.998Z</time></trkpt><trkpt lat="38.77011324970233" lon="16.21036778074394"><ele>10.5</ele><time>2026-04-12T16:49:39.998Z</time></trkpt><trkpt lat="38.77027446245596" lon="16.210677038542286"><ele>9.0</ele><time>2026-04-12T16:49:40.998Z</time></trkpt><trkpt lat="38.77043843019848" lon="16.21098054627078"><ele>9.0</ele><time>2026-04-12T16:49:41.998Z</time></trkpt><trkpt lat="38.77059824701731" lon="16.211284283905453"><ele>9.0</ele><time>2026-04-12T16:49:42.998Z</time></trkpt><trkpt lat="38.770755023790755" lon="16.211583939655217"><ele>8.5</ele><time>2026-04-12T16:49:43.998Z</time></trkpt><trkpt lat="38.77090827585997" lon="16.211874793508855"><ele>8.0</ele><time>2026-04-12T16:49:44.998Z</time></trkpt><trkpt lat="38.77105687159613" lon="16.212152909756405"><ele>8.0</ele><time>2026-04-12T16:49:45.998Z</time></trkpt><trkpt lat="38.77119899719402" lon="16.212413134680713"><ele>8.0</ele><time>2026-04-12T16:49:46.998Z</time></trkpt><trkpt lat="38.77133628759671" lon="16.212660039794553"><ele>8.0</ele><time>2026-04-12T16:49:47.998Z</time></trkpt><trkpt lat="38.77147891606458" lon="16.21289207375706"><ele>8.0</ele><time>2026-04-12T16:49:48.998Z</time></trkpt><trkpt lat="38.771637800408215" lon="16.213104925340517"><ele>8.0</ele><time>2026-04-12T16:49:49.998Z</time></trkpt><trkpt lat="38.77181749627859" lon="16.213308242683347"><ele>8.0</ele><time>2026-04-12T16:49:50.998Z</time></trkpt><trkpt lat="38.77200483671156" lon="16.21350147860315"><ele>8.0</ele><time>2026-04-12T16:49:51.998Z</time></trkpt><trkpt lat="38.77219724511832" lon="16.213683385043982"><ele>8.0</ele><time>2026-04-12T16:49:52.998Z</time></trkpt><trkpt lat="38.77239151802323" lon="16.213847379234863"><ele>9.0</ele><time>2026-04-12T16:49:53.998Z</time></trkpt><trkpt lat="38.77258944575858" lon="16.213994446876004"><ele>10.0</ele><time>2026-04-12T16:49:54.998Z</time></trkpt><trkpt lat="38.7727899085107" lon="16.214129562427043"><ele>10.0</ele><time>2026-04-12T16:49:55.998Z</time></trkpt><trkpt lat="38.772999781529315" lon="16.21425014309381"><ele>10.0</ele><time>2026-04-12T16:49:56.998Z</time></trkpt><trkpt lat="38.77322770723176" lon="16.214358715548133"><ele>10.0</ele><time>2026-04-12T16:49:57.998Z</time></trkpt><trkpt lat="38.773468674534016" lon="16.21445301572975"><ele>10.0</ele><time>2026-04-12T16:49:58.998Z</time></trkpt><trkpt lat="38.77372050871076" lon="16.214542275626282"><ele>9.0</ele><time>2026-04-12T16:49:59.998Z</time></trkpt><trkpt lat="38.77397418190348" lon="16.214636772488067"><ele>8.0</ele><time>2026-04-12T16:50:00.998Z</time></trkpt><trkpt lat="38.77422866426762" lon="16.214740318964143"><ele>6.5</ele><time>2026-04-12T16:50:01.998Z</time></trkpt><trkpt lat="38.77448727654336" lon="16.214851199645864"><ele>5.0</ele><time>2026-04-12T16:50:02.998Z</time></trkpt><trkpt lat="38.77474942526513" lon="16.21496070304193"><ele>5.0</ele><time>2026-04-12T16:50:03.998Z</time></trkpt><trkpt lat="38.77501556809152" lon="16.215065936560425"><ele>5.0</ele><time>2026-04-12T16:50:04.998Z</time></trkpt><trkpt lat="38.77528759999647" lon="16.215175022766058"><ele>5.0</ele><time>2026-04-12T16:50:05.998Z</time></trkpt><trkpt lat="38.77556244094506" lon="16.215285844614627"><ele>5.0</ele><time>2026-04-12T16:50:06.998Z</time></trkpt><trkpt lat="38.77584615357241" lon="16.21539695204098"><ele>5.0</ele><time>2026-04-12T16:50:07.998Z</time></trkpt><trkpt lat="38.77613981390387" lon="16.215510620152287"><ele>5.0</ele><time>2026-04-12T16:50:08.998Z</time></trkpt><trkpt lat="38.77644192140705" lon="16.215631857295897"><ele>5.0</ele><time>2026-04-12T16:50:09.998Z</time></trkpt><trkpt lat="38.77675322721715" lon="16.215751993800385"><ele>5.0</ele><time>2026-04-12T16:50:10.998Z</time></trkpt><trkpt lat="38.77707106552181" lon="16.21587744289113"><ele>5.5</ele><time>2026-04-12T16:50:11.999Z</time></trkpt><trkpt lat="38.77739215314068" lon="16.2160039993616"><ele>6.0</ele><time>2026-04-12T16:50:12.999Z</time></trkpt><trkpt lat="38.77771246741994" lon="16.216134749187564"><ele>6.5</ele><time>2026-04-12T16:50:13.999Z</time></trkpt><trkpt lat="38.77803132740602" lon="16.216267902256735"><ele>7.0</ele><time>2026-04-12T16:50:14.999Z</time></trkpt><trkpt lat="38.77834181190191" lon="16.216403270491302"><ele>7.0</ele><time>2026-04-12T16:50:15.999Z</time></trkpt><trkpt lat="38.77866038981698" lon="16.216524383798752"><ele>7.0</ele><time>2026-04-12T16:50:16.999Z</time></trkpt><trkpt lat="38.778977352598076" lon="16.2166478269197"><ele>7.0</ele><time>2026-04-12T16:50:17.999Z</time></trkpt><trkpt lat="38.77929763571881" lon="16.21677648276306"><ele>7.0</ele><time>2026-04-12T16:50:18.999Z</time></trkpt><trkpt lat="38.77961486613183" lon="16.21690520357702"><ele>6.5</ele><time>2026-04-12T16:50:19.999Z</time></trkpt><trkpt lat="38.77993078943305" lon="16.21703579106583"><ele>6.0</ele><time>2026-04-12T16:50:20.999Z</time></trkpt><trkpt lat="38.780247263438596" lon="16.21716789534538"><ele>6.0</ele><time>2026-04-12T16:50:21.999Z</time></trkpt><trkpt lat="38.78057005574365" lon="16.217294866811017"><ele>6.0</ele><time>2026-04-12T16:50:22.999Z</time></trkpt><trkpt lat="38.78089206351221" lon="16.217413563082737"><ele>6.5</ele><time>2026-04-12T16:50:23.999Z</time></trkpt><trkpt lat="38.78122370884488" lon="16.21753694308073"><ele>7.0</ele><time>2026-04-12T16:50:24.999Z</time></trkpt><trkpt lat="38.78155672983775" lon="16.217661623071688"><ele>7.5</ele><time>2026-04-12T16:50:25.999Z</time></trkpt><trkpt lat="38.781887639521976" lon="16.217786727600195"><ele>8.0</ele><time>2026-04-12T16:50:26.999Z</time></trkpt><trkpt lat="38.78222379589002" lon="16.217918894833918"><ele>8.0</ele><time>2026-04-12T16:50:27.999Z</time></trkpt><trkpt lat="38.7825625465431" lon="16.218053424767646"><ele>8.0</ele><time>2026-04-12T16:50:28.999Z</time></trkpt><trkpt lat="38.78289985298658" lon="16.21818607850435"><ele>8.0</ele><time>2026-04-12T16:50:29.999Z</time></trkpt><trkpt lat="38.783236001735695" lon="16.218317495765543"><ele>8.0</ele><time>2026-04-12T16:50:30.999Z</time></trkpt><trkpt lat="38.78357332804361" lon="16.218448206726386"><ele>7.5</ele><time>2026-04-12T16:50:31.999Z</time></trkpt><trkpt lat="38.78390620160319" lon="16.21857835698591"><ele>7.0</ele><time>2026-04-12T16:50:32.999Z</time></trkpt><trkpt lat="38.784234755778755" lon="16.218711022347087"><ele>6.0</ele><time>2026-04-12T16:50:33.999Z</time></trkpt><trkpt lat="38.78456222345557" lon="16.218855360898264"><ele>5.0</ele><time>2026-04-12T16:50:34.999Z</time></trkpt><trkpt lat="38.78488380639065" lon="16.21900776041502"><ele>8.0</ele><time>2026-04-12T16:50:35.999Z</time></trkpt><trkpt lat="38.785203150370585" lon="16.21916553387261"><ele>11.0</ele><time>2026-04-12T16:50:36.999Z</time></trkpt><trkpt lat="38.785518892451115" lon="16.219332326952074"><ele>11.0</ele><time>2026-04-12T16:50:37.999Z</time></trkpt><trkpt lat="38.78583090716951" lon="16.219515686019527"><ele>11.0</ele><time>2026-04-12T16:50:38.999Z</time></trkpt><trkpt lat="38.786132645789486" lon="16.219715109410604"><ele>13.0</ele><time>2026-04-12T16:50:39.999Z</time></trkpt><trkpt lat="38.786427862607056" lon="16.219933780954985"><ele>15.0</ele><time>2026-04-12T16:50:40.999Z</time></trkpt><trkpt lat="38.78671716845232" lon="16.22016491612251"><ele>16.0</ele><time>2026-04-12T16:50:41.999Z</time></trkpt><trkpt lat="38.78699922203923" lon="16.22040932933954"><ele>17.0</ele><time>2026-04-12T16:50:42.999Z</time></trkpt><trkpt lat="38.787278644097306" lon="16.2206541056602"><ele>17.0</ele><time>2026-04-12T16:50:43.999Z</time></trkpt><trkpt lat="38.787561939236234" lon="16.220892275357347"><ele>17.0</ele><time>2026-04-12T16:50:44.999Z</time></trkpt><trkpt lat="38.78784786046846" lon="16.22113163405217"><ele>20.0</ele><time>2026-04-12T16:50:45.999Z</time></trkpt><trkpt lat="38.7881269697691" lon="16.22136532204114"><ele>23.0</ele><time>2026-04-12T16:50:46.999Z</time></trkpt><trkpt lat="38.788420785300076" lon="16.221605546186606"><ele>17.0</ele><time>2026-04-12T16:50:47.999Z</time></trkpt><trkpt lat="38.788725896458445" lon="16.22185755485819"><ele>11.0</ele><time>2026-04-12T16:50:48.999Z</time></trkpt><trkpt lat="38.78904976439241" lon="16.22213179290473"><ele>11.0</ele><time>2026-04-12T16:50:49.999Z</time></trkpt><trkpt lat="38.789365773177856" lon="16.222389735745534"><ele>11.0</ele><time>2026-04-12T16:50:50.999Z</time></trkpt><trkpt lat="38.78967853639455" lon="16.222636990641337"><ele>11.0</ele><time>2026-04-12T16:50:51.999Z</time></trkpt><trkpt lat="38.78999090203612" lon="16.222868022409074"><ele>11.0</ele><time>2026-04-12T16:50:52.999Z</time></trkpt><trkpt lat="38.79030405055971" lon="16.22307697840691"><ele>13.0</ele><time>2026-04-12T16:50:53.999Z</time></trkpt><trkpt lat="38.7906158646383" lon="16.223273419468587"><ele>15.0</ele><time>2026-04-12T16:50:54.999Z</time></trkpt><trkpt lat="38.79093866592802" lon="16.223444537728597"><ele>13.0</ele><time>2026-04-12T16:50:55.999Z</time></trkpt><trkpt lat="38.791272032175826" lon="16.22359424867276"><ele>11.0</ele><time>2026-04-12T16:50:56.999Z</time></trkpt><trkpt lat="38.79160538201216" lon="16.223726871940958"><ele>10.5</ele><time>2026-04-12T16:50:57.999Z</time></trkpt><trkpt lat="38.791939186006275" lon="16.22384210405881"><ele>10.0</ele><time>2026-04-12T16:50:58.999Z</time></trkpt><trkpt lat="38.79227589013541" lon="16.223944785524836"><ele>12.0</ele><time>2026-04-12T16:50:59.999Z</time></trkpt><trkpt lat="38.79261121637189" lon="16.22403423288866"><ele>14.0</ele><time>2026-04-12T16:51:00.999Z</time></trkpt><trkpt lat="38.79295026264582" lon="16.224116733381255"><ele>14.0</ele><time>2026-04-12T16:51:01.999Z</time></trkpt><trkpt lat="38.793290827928686" lon="16.224204856942606"><ele>14.0</ele><time>2026-04-12T16:51:02.999Z</time></trkpt><trkpt lat="38.79362125679134" lon="16.224303519447563"><ele>13.5</ele><time>2026-04-12T16:51:03.999Z</time></trkpt><trkpt lat="38.79395473549614" lon="16.224409883707594"><ele>13.0</ele><time>2026-04-12T16:51:04.999Z</time></trkpt><trkpt lat="38.79428735874744" lon="16.22452077744793"><ele>13.0</ele><time>2026-04-12T16:51:05.999Z</time></trkpt><trkpt lat="38.79461211701367" lon="16.2246374797709"><ele>13.0</ele><time>2026-04-12T16:51:06.999Z</time></trkpt><trkpt lat="38.794934254155606" lon="16.224770913980176"><ele>15.0</ele><time>2026-04-12T16:51:07.999Z</time></trkpt><trkpt lat="38.79525693663656" lon="16.22492084015693"><ele>17.0</ele><time>2026-04-12T16:51:08.999Z</time></trkpt><trkpt lat="38.79556637801281" lon="16.225085491511635"><ele>17.0</ele><time>2026-04-12T16:51:09.999Z</time></trkpt><trkpt lat="38.79586812864621" lon="16.225259366782538"><ele>17.0</ele><time>2026-04-12T16:51:10.999Z</time></trkpt><trkpt lat="38.79616759009013" lon="16.225449835512787"><ele>16.0</ele><time>2026-04-12T16:51:11.999Z</time></trkpt><trkpt lat="38.796457599274724" lon="16.225654952420324"><ele>15.0</ele><time>2026-04-12T16:51:12.999Z</time></trkpt><trkpt lat="38.79674405750187" lon="16.225867607196584"><ele>14.0</ele><time>2026-04-12T16:51:13.999Z</time></trkpt><trkpt lat="38.797021438342114" lon="16.22608654865781"><ele>13.0</ele><time>2026-04-12T16:51:14.999Z</time></trkpt><trkpt lat="38.79729545740533" lon="16.226315653070827"><ele>13.0</ele><time>2026-04-12T16:51:15.999Z</time></trkpt><trkpt lat="38.797564964499166" lon="16.226549096539838"><ele>13.0</ele><time>2026-04-12T16:51:16.999Z</time></trkpt><trkpt lat="38.79782510517235" lon="16.226792338784325"><ele>13.0</ele><time>2026-04-12T16:51:17.999Z</time></trkpt><trkpt lat="38.79809009743363" lon="16.22703867830099"><ele>13.0</ele><time>2026-04-12T16:51:18.999Z</time></trkpt><trkpt lat="38.79835820420769" lon="16.227282883540582"><ele>13.0</ele><time>2026-04-12T16:51:19.999Z</time></trkpt><trkpt lat="38.79862458936641" lon="16.227529423695753"><ele>13.0</ele><time>2026-04-12T16:51:20.999Z</time></trkpt><trkpt lat="38.79888951418096" lon="16.22777313891018"><ele>13.0</ele><time>2026-04-12T16:51:21.999Z</time></trkpt><trkpt lat="38.799156389671126" lon="16.228009247305398"><ele>13.0</ele><time>2026-04-12T16:51:22.999Z</time></trkpt><trkpt lat="38.79943043377871" lon="16.228241561491206"><ele>15.5</ele><time>2026-04-12T16:51:23.999Z</time></trkpt><trkpt lat="38.7997059844865" lon="16.228467313856743"><ele>18.0</ele><time>2026-04-12T16:51:24.999Z</time></trkpt><trkpt lat="38.79998679803261" lon="16.228679135830852"><ele>17.5</ele><time>2026-04-12T16:51:25.999Z</time></trkpt><trkpt lat="38.800246145701095" lon="16.228874321573358"><ele>17.0</ele><time>2026-04-12T16:51:26.999Z</time></trkpt><trkpt lat="38.80050544203643" lon="16.229070053959212"><ele>17.0</ele><time>2026-04-12T16:51:27.999Z</time></trkpt><trkpt lat="38.8008060750187" lon="16.229243143121643"><ele>17.0</ele><time>2026-04-12T16:51:28.999Z</time></trkpt><trkpt lat="38.80110811508498" lon="16.229388668592325"><ele>17.0</ele><time>2026-04-12T16:51:29.999Z</time></trkpt><trkpt lat="38.80141598423505" lon="16.229564541605868"><ele>17.0</ele><time>2026-04-12T16:51:30.999Z</time></trkpt><trkpt lat="38.80171436657683" lon="16.229689831397295"><ele>18.0</ele><time>2026-04-12T16:51:31.999Z</time></trkpt><trkpt lat="38.80201805962897" lon="16.229825927967347"><ele>19.0</ele><time>2026-04-12T16:51:32.999Z</time></trkpt><trkpt lat="38.80231074086061" lon="16.22996426689625"><ele>19.0</ele><time>2026-04-12T16:51:33.999Z</time></trkpt><trkpt lat="38.802606580529115" lon="16.230099454978255"><ele>19.0</ele><time>2026-04-12T16:51:34.999Z</time></trkpt><trkpt lat="38.80290648692861" lon="16.23023298539131"><ele>17.5</ele><time>2026-04-12T16:51:35.999Z</time></trkpt><trkpt lat="38.803202047492185" lon="16.230363325328426"><ele>16.0</ele><time>2026-04-12T16:51:36.999Z</time></trkpt><trkpt lat="38.80349141683059" lon="16.23049789528554"><ele>15.0</ele><time>2026-04-12T16:51:37.999Z</time></trkpt><trkpt lat="38.80377853477842" lon="16.23063706385705"><ele>14.0</ele><time>2026-04-12T16:51:38.999Z</time></trkpt><trkpt lat="38.804066646293485" lon="16.23077131675611"><ele>16.0</ele><time>2026-04-12T16:51:39.999Z</time></trkpt><trkpt lat="38.80435351063495" lon="16.230900749772406"><ele>18.0</ele><time>2026-04-12T16:51:40.999Z</time></trkpt><trkpt lat="38.804642960935766" lon="16.231029464492003"><ele>18.0</ele><time>2026-04-12T16:51:41.999Z</time></trkpt><trkpt lat="38.80492914185005" lon="16.231159493062883"><ele>18.0</ele><time>2026-04-12T16:51:42.999Z</time></trkpt><trkpt lat="38.805216855807004" lon="16.23128743163649"><ele>17.0</ele><time>2026-04-12T16:51:43.999Z</time></trkpt><trkpt lat="38.80550368692155" lon="16.231416560181717"><ele>16.0</ele><time>2026-04-12T16:51:44.999Z</time></trkpt><trkpt lat="38.80578513182717" lon="16.231548026136558"><ele>17.5</ele><time>2026-04-12T16:51:45.999Z</time></trkpt><trkpt lat="38.80606105948705" lon="16.231677001666693"><ele>19.0</ele><time>2026-04-12T16:51:46.999Z</time></trkpt><trkpt lat="38.80633753604049" lon="16.231805450491905"><ele>19.0</ele><time>2026-04-12T16:51:47.999Z</time></trkpt><trkpt lat="38.80661448771749" lon="16.231931340053183"><ele>19.0</ele><time>2026-04-12T16:51:48.999Z</time></trkpt><trkpt lat="38.80689120248892" lon="16.232059771325332"><ele>19.5</ele><time>2026-04-12T16:51:49.999Z</time></trkpt><trkpt lat="38.8071670201065" lon="16.232184628617347"><ele>20.0</ele><time>2026-04-12T16:51:50.999Z</time></trkpt><trkpt lat="38.807442286958704" lon="16.232309103351206"><ele>18.5</ele><time>2026-04-12T16:51:51.999Z</time></trkpt><trkpt lat="38.80771655405981" lon="16.232434743154"><ele>17.0</ele><time>2026-04-12T16:51:52.999Z</time></trkpt><trkpt lat="38.80799272442055" lon="16.23256164496858"><ele>17.0</ele><time>2026-04-12T16:51:53.999Z</time></trkpt><trkpt lat="38.80827093481712" lon="16.23268666388994"><ele>17.0</ele><time>2026-04-12T16:51:54.999Z</time></trkpt><trkpt lat="38.80855051943627" lon="16.232811735161693"><ele>15.0</ele><time>2026-04-12T16:51:55.999Z</time></trkpt><trkpt lat="38.8088287426798" lon="16.232939032208876"><ele>13.0</ele><time>2026-04-12T16:51:56.999Z</time></trkpt><trkpt lat="38.80911150908116" lon="16.233066200161563"><ele>14.5</ele><time>2026-04-12T16:51:57.999Z</time></trkpt><trkpt lat="38.80939293660869" lon="16.233194372957865"><ele>16.0</ele><time>2026-04-12T16:51:58.999Z</time></trkpt><trkpt lat="38.809675080981826" lon="16.233323490182876"><ele>16.0</ele><time>2026-04-12T16:51:59.999Z</time></trkpt><trkpt lat="38.80995984958196" lon="16.233453293339732"><ele>16.0</ele><time>2026-04-12T16:52:00.999Z</time></trkpt><trkpt lat="38.810248064568036" lon="16.233582245089302"><ele>16.0</ele><time>2026-04-12T16:52:01.999Z</time></trkpt><trkpt lat="38.81053741276257" lon="16.233709643239592"><ele>16.0</ele><time>2026-04-12T16:52:02.999Z</time></trkpt><trkpt lat="38.810821521979456" lon="16.23383791190579"><ele>16.5</ele><time>2026-04-12T16:52:03.999Z</time></trkpt><trkpt lat="38.81110940840231" lon="16.233968768756718"><ele>17.0</ele><time>2026-04-12T16:52:04.999Z</time></trkpt><trkpt lat="38.81140036910667" lon="16.234096576557047"><ele>17.0</ele><time>2026-04-12T16:52:05.999Z</time></trkpt><trkpt lat="38.81169893201746" lon="16.234225069214837"><ele>17.0</ele><time>2026-04-12T16:52:06.999Z</time></trkpt><trkpt lat="38.812001037961146" lon="16.234354175692797"><ele>15.0</ele><time>2026-04-12T16:52:07.999Z</time></trkpt><trkpt lat="38.81230335011992" lon="16.234488995826332"><ele>13.0</ele><time>2026-04-12T16:52:08.999Z</time></trkpt><trkpt lat="38.81260688102334" lon="16.234625157053177"><ele>12.0</ele><time>2026-04-12T16:52:09.999Z</time></trkpt><trkpt lat="38.8129115848012" lon="16.23476586078918"><ele>11.0</ele><time>2026-04-12T16:52:10.999Z</time></trkpt><trkpt lat="38.813220767859214" lon="16.23490832773167"><ele>14.5</ele><time>2026-04-12T16:52:11.999Z</time></trkpt><trkpt lat="38.81353064705197" lon="16.235048414850077"><ele>18.0</ele><time>2026-04-12T16:52:12.998Z</time></trkpt><trkpt lat="38.81383975733857" lon="16.235189276297167"><ele>18.0</ele><time>2026-04-12T16:52:13.998Z</time></trkpt><trkpt lat="38.814149423966775" lon="16.235331497359613"><ele>18.0</ele><time>2026-04-12T16:52:14.998Z</time></trkpt><trkpt lat="38.81445649883803" lon="16.235474446912093"><ele>16.0</ele><time>2026-04-12T16:52:15.998Z</time></trkpt><trkpt lat="38.81476173591968" lon="16.235623685428763"><ele>14.0</ele><time>2026-04-12T16:52:16.998Z</time></trkpt><trkpt lat="38.815062473227385" lon="16.23578123267631"><ele>16.5</ele><time>2026-04-12T16:52:18Z</time></trkpt><trkpt lat="38.815363129129715" lon="16.23594431860917"><ele>19.0</ele><time>2026-04-12T16:52:19Z</time></trkpt><trkpt lat="38.81566119724474" lon="16.236115111041673"><ele>19.0</ele><time>2026-04-12T16:52:20Z</time></trkpt><trkpt lat="38.815955322800704" lon="16.236294106396375"><ele>19.0</ele><time>2026-04-12T16:52:21Z</time></trkpt><trkpt lat="38.81625207781337" lon="16.236484691671055"><ele>18.5</ele><time>2026-04-12T16:52:22Z</time></trkpt><trkpt lat="38.81654918330844" lon="16.236681264649555"><ele>18.0</ele><time>2026-04-12T16:52:23Z</time></trkpt><trkpt lat="38.81683551716151" lon="16.23688784213512"><ele>18.0</ele><time>2026-04-12T16:52:24Z</time></trkpt><trkpt lat="38.8171225962261" lon="16.237106202099067"><ele>18.0</ele><time>2026-04-12T16:52:25Z</time></trkpt><trkpt lat="38.817404951146145" lon="16.237336036917362"><ele>17.5</ele><time>2026-04-12T16:52:26Z</time></trkpt><trkpt lat="38.817679596673266" lon="16.237573984637997"><ele>17.0</ele><time>2026-04-12T16:52:27Z</time></trkpt><trkpt lat="38.817950841329754" lon="16.23782749005154"><ele>17.0</ele><time>2026-04-12T16:52:28Z</time></trkpt><trkpt lat="38.818215124814806" lon="16.238092148509455"><ele>17.0</ele><time>2026-04-12T16:52:29Z</time></trkpt><trkpt lat="38.81847491224752" lon="16.238364513622948"><ele>15.5</ele><time>2026-04-12T16:52:30Z</time></trkpt><trkpt lat="38.81873239265711" lon="16.238645879021096"><ele>14.0</ele><time>2026-04-12T16:52:31Z</time></trkpt><trkpt lat="38.81898028506887" lon="16.238930297948542"><ele>14.5</ele><time>2026-04-12T16:52:32Z</time></trkpt><trkpt lat="38.81922779566291" lon="16.23922876982348"><ele>15.0</ele><time>2026-04-12T16:52:33Z</time></trkpt><trkpt lat="38.819460860585906" lon="16.23953532860591"><ele>15.5</ele><time>2026-04-12T16:52:34Z</time></trkpt><trkpt lat="38.81968978109992" lon="16.239857888634084"><ele>16.0</ele><time>2026-04-12T16:52:35Z</time></trkpt><trkpt lat="38.819906389084885" lon="16.240184178544943"><ele>16.0</ele><time>2026-04-12T16:52:36Z</time></trkpt><trkpt lat="38.820116934777104" lon="16.240522034260195"><ele>16.0</ele><time>2026-04-12T16:52:37Z</time></trkpt><trkpt lat="38.82031870797446" lon="16.240867453360785"><ele>17.5</ele><time>2026-04-12T16:52:38Z</time></trkpt><trkpt lat="38.820515231454166" lon="16.241227974670267"><ele>19.0</ele><time>2026-04-12T16:52:39Z</time></trkpt><trkpt lat="38.82070496268573" lon="16.241590286554523"><ele>19.5</ele><time>2026-04-12T16:52:40Z</time></trkpt><trkpt lat="38.8208834596359" lon="16.24195125168475"><ele>20.0</ele><time>2026-04-12T16:52:41Z</time></trkpt><trkpt lat="38.82105075924297" lon="16.24230901824959"><ele>21.0</ele><time>2026-04-12T16:52:42Z</time></trkpt><trkpt lat="38.82121528978191" lon="16.242674965377137"><ele>22.0</ele><time>2026-04-12T16:52:43Z</time></trkpt><trkpt lat="38.8213767027612" lon="16.24304412460837"><ele>22.0</ele><time>2026-04-12T16:52:44Z</time></trkpt><trkpt lat="38.82153764867418" lon="16.243413965045708"><ele>22.0</ele><time>2026-04-12T16:52:45Z</time></trkpt><trkpt lat="38.8217079403357" lon="16.24378702014946"><ele>21.0</ele><time>2026-04-12T16:52:46Z</time></trkpt><trkpt lat="38.82184993388293" lon="16.24415411455092"><ele>20.0</ele><time>2026-04-12T16:52:47Z</time></trkpt><trkpt lat="38.8219986454518" lon="16.244516750549263"><ele>20.0</ele><time>2026-04-12T16:52:48Z</time></trkpt><trkpt lat="38.82214889291312" lon="16.244881410162137"><ele>20.0</ele><time>2026-04-12T16:52:49Z</time></trkpt><trkpt lat="38.822296791803275" lon="16.245240865786247"><ele>20.0</ele><time>2026-04-12T16:52:50Z</time></trkpt><trkpt lat="38.82244365264772" lon="16.245596497300138"><ele>20.0</ele><time>2026-04-12T16:52:51Z</time></trkpt><trkpt lat="38.82259451595905" lon="16.24595341246686"><ele>20.0</ele><time>2026-04-12T16:52:52Z</time></trkpt><trkpt lat="38.82274625475282" lon="16.24630911472523"><ele>20.0</ele><time>2026-04-12T16:52:53Z</time></trkpt><trkpt lat="38.82290458672517" lon="16.246672673678596"><ele>20.0</ele><time>2026-04-12T16:52:54Z</time></trkpt><trkpt lat="38.823063968123854" lon="16.247027620789115"><ele>20.0</ele><time>2026-04-12T16:52:55Z</time></trkpt><trkpt lat="38.82322719873526" lon="16.247379221832073"><ele>19.5</ele><time>2026-04-12T16:52:56Z</time></trkpt><trkpt lat="38.823394970000194" lon="16.247726562565216"><ele>19.0</ele><time>2026-04-12T16:52:57Z</time></trkpt><trkpt lat="38.82356728430973" lon="16.248065483608837"><ele>19.0</ele><time>2026-04-12T16:52:58Z</time></trkpt><trkpt lat="38.82374275818439" lon="16.24840264424652"><ele>19.0</ele><time>2026-04-12T16:52:59Z</time></trkpt><trkpt lat="38.82392145373567" lon="16.24873218180427"><ele>18.0</ele><time>2026-04-12T16:53:00Z</time></trkpt><trkpt lat="38.824106924875096" lon="16.249056285641366"><ele>17.0</ele><time>2026-04-12T16:53:01Z</time></trkpt><trkpt lat="38.82429700981954" lon="16.24937081144177"><ele>17.5</ele><time>2026-04-12T16:53:02Z</time></trkpt><trkpt lat="38.8244957305403" lon="16.249681868702652"><ele>18.0</ele><time>2026-04-12T16:53:03Z</time></trkpt><trkpt lat="38.82469141822588" lon="16.249980480220284"><ele>18.5</ele><time>2026-04-12T16:53:04Z</time></trkpt><trkpt lat="38.824899317197776" lon="16.250270636289287"><ele>19.0</ele><time>2026-04-12T16:53:05Z</time></trkpt><trkpt lat="38.825113580442824" lon="16.250552093421472"><ele>19.0</ele><time>2026-04-12T16:53:06Z</time></trkpt><trkpt lat="38.82533236511536" lon="16.25081991565933"><ele>19.0</ele><time>2026-04-12T16:53:07Z</time></trkpt><trkpt lat="38.82556002512055" lon="16.251077670997017"><ele>19.0</ele><time>2026-04-12T16:53:08Z</time></trkpt><trkpt lat="38.82578375490323" lon="16.25132615212577"><ele>19.0</ele><time>2026-04-12T16:53:09Z</time></trkpt><trkpt lat="38.8260130642287" lon="16.25156724084718"><ele>20.0</ele><time>2026-04-12T16:53:10Z</time></trkpt><trkpt lat="38.82624672486215" lon="16.251804671378327"><ele>21.0</ele><time>2026-04-12T16:53:11Z</time></trkpt><trkpt lat="38.82648134855836" lon="16.252034072070785"><ele>21.0</ele><time>2026-04-12T16:53:12Z</time></trkpt><trkpt lat="38.82671633238861" lon="16.25225972765339"><ele>21.0</ele><time>2026-04-12T16:53:13Z</time></trkpt><trkpt lat="38.826956173388446" lon="16.252479484887772"><ele>23.0</ele><time>2026-04-12T16:53:14Z</time></trkpt><trkpt lat="38.8272042823607" lon="16.25269016469528"><ele>25.0</ele><time>2026-04-12T16:53:15Z</time></trkpt><trkpt lat="38.82745408140956" lon="16.252898719909645"><ele>24.0</ele><time>2026-04-12T16:53:16Z</time></trkpt><trkpt lat="38.82770455044672" lon="16.253099458660028"><ele>23.0</ele><time>2026-04-12T16:53:17Z</time></trkpt><trkpt lat="38.82796095409602" lon="16.25329848886782"><ele>23.0</ele><time>2026-04-12T16:53:18Z</time></trkpt><trkpt lat="38.82822274020473" lon="16.253498256467875"><ele>23.0</ele><time>2026-04-12T16:53:19Z</time></trkpt><trkpt lat="38.828484795480094" lon="16.253695348386074"><ele>22.5</ele><time>2026-04-12T16:53:20Z</time></trkpt><trkpt lat="38.82874854128697" lon="16.25389007980545"><ele>22.0</ele><time>2026-04-12T16:53:21Z</time></trkpt><trkpt lat="38.829012974618706" lon="16.25408459925802"><ele>23.5</ele><time>2026-04-12T16:53:22Z</time></trkpt><trkpt lat="38.82927751185405" lon="16.25427258104857"><ele>25.0</ele><time>2026-04-12T16:53:23Z</time></trkpt><trkpt lat="38.829545513397456" lon="16.254461164266992"><ele>25.0</ele><time>2026-04-12T16:53:24Z</time></trkpt><trkpt lat="38.82981179458205" lon="16.254648022779133"><ele>25.0</ele><time>2026-04-12T16:53:25Z</time></trkpt><trkpt lat="38.8300805654241" lon="16.254833488928945"><ele>25.5</ele><time>2026-04-12T16:53:26Z</time></trkpt><trkpt lat="38.83035067631398" lon="16.255015409282247"><ele>26.0</ele><time>2026-04-12T16:53:26.999Z</time></trkpt><trkpt lat="38.8306236052866" lon="16.25519635083479"><ele>26.0</ele><time>2026-04-12T16:53:27.999Z</time></trkpt><trkpt lat="38.830897288731805" lon="16.255379070895902"><ele>26.0</ele><time>2026-04-12T16:53:28.999Z</time></trkpt><trkpt lat="38.83116498212869" lon="16.255554577438172"><ele>27.5</ele><time>2026-04-12T16:53:29.999Z</time></trkpt><trkpt lat="38.831433124144695" lon="16.255737238157444"><ele>29.0</ele><time>2026-04-12T16:53:30.999Z</time></trkpt><trkpt lat="38.83170364247026" lon="16.255925105558667"><ele>27.5</ele><time>2026-04-12T16:53:31.999Z</time></trkpt><trkpt lat="38.83197015163862" lon="16.256106897565182"><ele>26.0</ele><time>2026-04-12T16:53:32.999Z</time></trkpt><trkpt lat="38.83223761685209" lon="16.256290988013433"><ele>26.0</ele><time>2026-04-12T16:53:33.999Z</time></trkpt><trkpt lat="38.83250245999508" lon="16.25647118092574"><ele>26.0</ele><time>2026-04-12T16:53:34.999Z</time></trkpt><trkpt lat="38.832765680203714" lon="16.256651701780296"><ele>26.0</ele><time>2026-04-12T16:53:35.999Z</time></trkpt><trkpt lat="38.83302665988468" lon="16.2568307103248"><ele>26.0</ele><time>2026-04-12T16:53:36.999Z</time></trkpt><trkpt lat="38.833289919067546" lon="16.25700912856086"><ele>27.0</ele><time>2026-04-12T16:53:37.999Z</time></trkpt><trkpt lat="38.83355816456935" lon="16.257189797784275"><ele>28.0</ele><time>2026-04-12T16:53:38.999Z</time></trkpt><trkpt lat="38.83382281719511" lon="16.257359431244396"><ele>28.5</ele><time>2026-04-12T16:53:39.999Z</time></trkpt><trkpt lat="38.83408800128344" lon="16.25753936546619"><ele>29.0</ele><time>2026-04-12T16:53:40.999Z</time></trkpt><trkpt lat="38.83435264535954" lon="16.25772173037693"><ele>29.0</ele><time>2026-04-12T16:53:41.999Z</time></trkpt><trkpt lat="38.83461496199477" lon="16.257892095165957"><ele>29.0</ele><time>2026-04-12T16:53:42.999Z</time></trkpt><trkpt lat="38.834874024340756" lon="16.258067886787906"><ele>29.0</ele><time>2026-04-12T16:53:43.999Z</time></trkpt><trkpt lat="38.83513714524777" lon="16.2582472326948"><ele>29.0</ele><time>2026-04-12T16:53:44.999Z</time></trkpt><trkpt lat="38.83540037999168" lon="16.258423886065053"><ele>29.0</ele><time>2026-04-12T16:53:45.999Z</time></trkpt><trkpt lat="38.83566564030361" lon="16.258607092843334"><ele>29.0</ele><time>2026-04-12T16:53:46.999Z</time></trkpt><trkpt lat="38.8359311193526" lon="16.258796657796704"><ele>29.0</ele><time>2026-04-12T16:53:47.999Z</time></trkpt><trkpt lat="38.83619266198841" lon="16.25899190180137"><ele>29.0</ele><time>2026-04-12T16:53:48.999Z</time></trkpt><trkpt lat="38.83644780188142" lon="16.259194627432286"><ele>29.0</ele><time>2026-04-12T16:53:49.999Z</time></trkpt><trkpt lat="38.836699545093246" lon="16.259403774443882"><ele>29.0</ele><time>2026-04-12T16:53:50.999Z</time></trkpt><trkpt lat="38.836950939393624" lon="16.259619330798778"><ele>30.0</ele><time>2026-04-12T16:53:51.999Z</time></trkpt><trkpt lat="38.83720367538537" lon="16.259834875426357"><ele>31.0</ele><time>2026-04-12T16:53:52.999Z</time></trkpt><trkpt lat="38.83745685987991" lon="16.26004691574443"><ele>30.5</ele><time>2026-04-12T16:53:53.999Z</time></trkpt><trkpt lat="38.83770776297991" lon="16.260258912856013"><ele>30.0</ele><time>2026-04-12T16:53:54.999Z</time></trkpt><trkpt lat="38.8379557169112" lon="16.260471381790417"><ele>31.0</ele><time>2026-04-12T16:53:55.999Z</time></trkpt><trkpt lat="38.83820223432297" lon="16.260676831977676"><ele>32.0</ele><time>2026-04-12T16:53:56.999Z</time></trkpt><trkpt lat="38.83844862906767" lon="16.26087859608759"><ele>32.0</ele><time>2026-04-12T16:53:57.999Z</time></trkpt><trkpt lat="38.838693535127206" lon="16.26108299682286"><ele>32.0</ele><time>2026-04-12T16:53:58.999Z</time></trkpt><trkpt lat="38.83893747813654" lon="16.26128143998525"><ele>33.0</ele><time>2026-04-12T16:53:59.999Z</time></trkpt><trkpt lat="38.8391859879023" lon="16.261467947578147"><ele>34.0</ele><time>2026-04-12T16:54:00.999Z</time></trkpt><trkpt lat="38.83944486213734" lon="16.261656409600256"><ele>35.0</ele><time>2026-04-12T16:54:01.999Z</time></trkpt><trkpt lat="38.83970834546998" lon="16.2618387078123"><ele>36.0</ele><time>2026-04-12T16:54:02.999Z</time></trkpt><trkpt lat="38.83997544238909" lon="16.262017276051125"><ele>34.0</ele><time>2026-04-12T16:54:03.999Z</time></trkpt><trkpt lat="38.84024802204344" lon="16.262185219527975"><ele>32.0</ele><time>2026-04-12T16:54:04.999Z</time></trkpt><trkpt lat="38.840524070836075" lon="16.262352760107046"><ele>32.0</ele><time>2026-04-12T16:54:05.999Z</time></trkpt><trkpt lat="38.84080336594338" lon="16.262515111949995"><ele>32.0</ele><time>2026-04-12T16:54:06.999Z</time></trkpt><trkpt lat="38.841088345137834" lon="16.262671761567486"><ele>32.0</ele><time>2026-04-12T16:54:07.999Z</time></trkpt><trkpt lat="38.84137214223383" lon="16.262819540654515"><ele>32.0</ele><time>2026-04-12T16:54:08.999Z</time></trkpt><trkpt lat="38.84165615370723" lon="16.26296134153211"><ele>31.0</ele><time>2026-04-12T16:54:09.999Z</time></trkpt><trkpt lat="38.84193920856038" lon="16.263102686440355"><ele>30.0</ele><time>2026-04-12T16:54:10.999Z</time></trkpt><trkpt lat="38.84222101379383" lon="16.263241721789075"><ele>30.0</ele><time>2026-04-12T16:54:11.999Z</time></trkpt><trkpt lat="38.84250033360897" lon="16.26337947754193"><ele>30.0</ele><time>2026-04-12T16:54:12.999Z</time></trkpt><trkpt lat="38.84277778931473" lon="16.263520597268016"><ele>29.5</ele><time>2026-04-12T16:54:13.999Z</time></trkpt><trkpt lat="38.843060338361425" lon="16.26366355870293"><ele>29.0</ele><time>2026-04-12T16:54:14.999Z</time></trkpt><trkpt lat="38.843342972688646" lon="16.26380791399413"><ele>28.5</ele><time>2026-04-12T16:54:15.999Z</time></trkpt><trkpt lat="38.84362227155528" lon="16.263954189937603"><ele>28.0</ele><time>2026-04-12T16:54:16.999Z</time></trkpt><trkpt lat="38.84390210990829" lon="16.264095943815434"><ele>28.0</ele><time>2026-04-12T16:54:17.999Z</time></trkpt><trkpt lat="38.844183119237506" lon="16.264246889686138"><ele>28.0</ele><time>2026-04-12T16:54:18.999Z</time></trkpt><trkpt lat="38.84446119117223" lon="16.264406505019682"><ele>28.5</ele><time>2026-04-12T16:54:19.999Z</time></trkpt><trkpt lat="38.84473814059023" lon="16.264570024812464"><ele>29.0</ele><time>2026-04-12T16:54:20.999Z</time></trkpt><trkpt lat="38.84501272444037" lon="16.26473689071857"><ele>28.0</ele><time>2026-04-12T16:54:21.999Z</time></trkpt><trkpt lat="38.84528535269668" lon="16.26491058710278"><ele>27.0</ele><time>2026-04-12T16:54:22.999Z</time></trkpt><trkpt lat="38.84555136752004" lon="16.265089491188746"><ele>27.0</ele><time>2026-04-12T16:54:24.001Z</time></trkpt><trkpt lat="38.845813767660324" lon="16.265273750900032"><ele>27.0</ele><time>2026-04-12T16:54:25.001Z</time></trkpt><trkpt lat="38.846076095704035" lon="16.265458966655075"><ele>27.0</ele><time>2026-04-12T16:54:26.001Z</time></trkpt><trkpt lat="38.84633981016452" lon="16.265650791872307"><ele>27.0</ele><time>2026-04-12T16:54:27.001Z</time></trkpt><trkpt lat="38.84660343412554" lon="16.265846736577853"><ele>26.5</ele><time>2026-04-12T16:54:28.001Z</time></trkpt><trkpt lat="38.846866938208315" lon="16.266047560544532"><ele>26.0</ele><time>2026-04-12T16:54:29.001Z</time></trkpt><trkpt lat="38.84712669781433" lon="16.266251715032563"><ele>25.5</ele><time>2026-04-12T16:54:30.001Z</time></trkpt><trkpt lat="38.847385403060024" lon="16.2664594665212"><ele>25.0</ele><time>2026-04-12T16:54:31.001Z</time></trkpt><trkpt lat="38.84764753320515" lon="16.266669841212753"><ele>25.0</ele><time>2026-04-12T16:54:32.001Z</time></trkpt><trkpt lat="38.84790618985057" lon="16.266877632902045"><ele>25.0</ele><time>2026-04-12T16:54:33.001Z</time></trkpt><trkpt lat="38.8481626342615" lon="16.267087376867917"><ele>24.5</ele><time>2026-04-12T16:54:34.001Z</time></trkpt><trkpt lat="38.84842026186699" lon="16.26730066889272"><ele>24.0</ele><time>2026-04-12T16:54:35.001Z</time></trkpt><trkpt lat="38.848679498904275" lon="16.2675188693534"><ele>24.0</ele><time>2026-04-12T16:54:36.001Z</time></trkpt><trkpt lat="38.84894101914506" lon="16.267733721510663"><ele>24.0</ele><time>2026-04-12T16:54:37.001Z</time></trkpt><trkpt lat="38.84920176323842" lon="16.26794759608226"><ele>24.5</ele><time>2026-04-12T16:54:38.001Z</time></trkpt><trkpt lat="38.84946420414909" lon="16.26815813538309"><ele>25.0</ele><time>2026-04-12T16:54:39.001Z</time></trkpt><trkpt lat="38.8497300740108" lon="16.26837643412206"><ele>25.0</ele><time>2026-04-12T16:54:40.001Z</time></trkpt><trkpt lat="38.85000065770786" lon="16.268593852131435"><ele>25.0</ele><time>2026-04-12T16:54:41Z</time></trkpt><trkpt lat="38.85026548093223" lon="16.26880674708519"><ele>24.0</ele><time>2026-04-12T16:54:42Z</time></trkpt><trkpt lat="38.85053236322265" lon="16.269021859881715"><ele>23.0</ele><time>2026-04-12T16:54:43Z</time></trkpt><trkpt lat="38.8507951804649" lon="16.26923541463037"><ele>21.5</ele><time>2026-04-12T16:54:44Z</time></trkpt><trkpt lat="38.85106109864123" lon="16.269453691092743"><ele>20.0</ele><time>2026-04-12T16:54:45Z</time></trkpt><trkpt lat="38.851328756948" lon="16.26966976998823"><ele>20.5</ele><time>2026-04-12T16:54:46Z</time></trkpt><trkpt lat="38.851601050066655" lon="16.269888240438824"><ele>21.0</ele><time>2026-04-12T16:54:47Z</time></trkpt><trkpt lat="38.85187766530856" lon="16.270110703191087"><ele>22.0</ele><time>2026-04-12T16:54:48Z</time></trkpt><trkpt lat="38.85214764439601" lon="16.270326943510128"><ele>23.0</ele><time>2026-04-12T16:54:49Z</time></trkpt><trkpt lat="38.852418649739946" lon="16.27054636979387"><ele>22.0</ele><time>2026-04-12T16:54:50Z</time></trkpt><trkpt lat="38.852687237838744" lon="16.27076514547716"><ele>21.0</ele><time>2026-04-12T16:54:51Z</time></trkpt><trkpt lat="38.85295728381469" lon="16.270983212388607"><ele>21.0</ele><time>2026-04-12T16:54:52Z</time></trkpt><trkpt lat="38.85322100314391" lon="16.27120133237223"><ele>21.0</ele><time>2026-04-12T16:54:53Z</time></trkpt><trkpt lat="38.85348058033098" lon="16.271420986808597"><ele>21.0</ele><time>2026-04-12T16:54:54Z</time></trkpt><trkpt lat="38.85374078997526" lon="16.271636742233127"><ele>21.0</ele><time>2026-04-12T16:54:55Z</time></trkpt><trkpt lat="38.85400372314921" lon="16.27185051293339"><ele>21.0</ele><time>2026-04-12T16:54:56Z</time></trkpt><trkpt lat="38.85426380355902" lon="16.272067043338104"><ele>21.0</ele><time>2026-04-12T16:54:57Z</time></trkpt><trkpt lat="38.854521345297364" lon="16.27227947505385"><ele>21.0</ele><time>2026-04-12T16:54:58Z</time></trkpt><trkpt lat="38.85477711456667" lon="16.272492055511844"><ele>21.0</ele><time>2026-04-12T16:54:59Z</time></trkpt><trkpt lat="38.855035839031814" lon="16.27270549191931"><ele>20.5</ele><time>2026-04-12T16:55:00Z</time></trkpt><trkpt lat="38.85529188671626" lon="16.272916492273122"><ele>20.0</ele><time>2026-04-12T16:55:01Z</time></trkpt><trkpt lat="38.85555250059958" lon="16.27312883197926"><ele>19.5</ele><time>2026-04-12T16:55:02Z</time></trkpt><trkpt lat="38.85581029798056" lon="16.273335026721988"><ele>19.0</ele><time>2026-04-12T16:55:03Z</time></trkpt><trkpt lat="38.85606554307797" lon="16.27353517124913"><ele>18.0</ele><time>2026-04-12T16:55:04Z</time></trkpt><trkpt lat="38.856325480564166" lon="16.27372730323733"><ele>17.0</ele><time>2026-04-12T16:55:05Z</time></trkpt><trkpt lat="38.85658695508593" lon="16.273911424167412"><ele>16.5</ele><time>2026-04-12T16:55:06Z</time></trkpt><trkpt lat="38.85685167216116" lon="16.274087056376796"><ele>16.0</ele><time>2026-04-12T16:55:07Z</time></trkpt><trkpt lat="38.85712261421104" lon="16.274254699192728"><ele>16.0</ele><time>2026-04-12T16:55:08Z</time></trkpt><trkpt lat="38.85739141670772" lon="16.274397843968675"><ele>16.0</ele><time>2026-04-12T16:55:09Z</time></trkpt><trkpt lat="38.85765426581357" lon="16.274530840406225"><ele>16.5</ele><time>2026-04-12T16:55:10Z</time></trkpt><trkpt lat="38.857930875393244" lon="16.274657524218824"><ele>17.0</ele><time>2026-04-12T16:55:11Z</time></trkpt><trkpt lat="38.85820467027327" lon="16.27476742987772"><ele>17.0</ele><time>2026-04-12T16:55:12Z</time></trkpt><trkpt lat="38.858483117378746" lon="16.27486434867255"><ele>17.0</ele><time>2026-04-12T16:55:13Z</time></trkpt><trkpt lat="38.858766522217216" lon="16.27495411815853"><ele>17.0</ele><time>2026-04-12T16:55:14Z</time></trkpt><trkpt lat="38.85904691405075" lon="16.27503679993314"><ele>17.0</ele><time>2026-04-12T16:55:15Z</time></trkpt><trkpt lat="38.859333805834346" lon="16.275116498871995"><ele>18.0</ele><time>2026-04-12T16:55:16Z</time></trkpt><trkpt lat="38.85962506594933" lon="16.275197350753025"><ele>19.0</ele><time>2026-04-12T16:55:17Z</time></trkpt><trkpt lat="38.859919849422056" lon="16.275275033241105"><ele>18.0</ele><time>2026-04-12T16:55:18Z</time></trkpt><trkpt lat="38.86021147376508" lon="16.275350291945127"><ele>17.0</ele><time>2026-04-12T16:55:19Z</time></trkpt><trkpt lat="38.86050184052034" lon="16.275428886058936"><ele>17.0</ele><time>2026-04-12T16:55:20Z</time></trkpt><trkpt lat="38.86079329793798" lon="16.275513391977217"><ele>17.0</ele><time>2026-04-12T16:55:21Z</time></trkpt><trkpt lat="38.86108059561109" lon="16.275607371289983"><ele>17.5</ele><time>2026-04-12T16:55:22Z</time></trkpt><trkpt lat="38.861364833988354" lon="16.27570604908544"><ele>18.0</ele><time>2026-04-12T16:55:23Z</time></trkpt><trkpt lat="38.86164977007961" lon="16.275810155934703"><ele>19.5</ele><time>2026-04-12T16:55:24Z</time></trkpt><trkpt lat="38.86193056172565" lon="16.27591968588856"><ele>21.0</ele><time>2026-04-12T16:55:25Z</time></trkpt><trkpt lat="38.86220700652739" lon="16.276038792891317"><ele>21.0</ele><time>2026-04-12T16:55:26Z</time></trkpt><trkpt lat="38.862484225786524" lon="16.276178784583553"><ele>21.0</ele><time>2026-04-12T16:55:27Z</time></trkpt><trkpt lat="38.86276045411479" lon="16.276333973194014"><ele>23.0</ele><time>2026-04-12T16:55:28Z</time></trkpt><trkpt lat="38.86303401164616" lon="16.27650563037302"><ele>25.0</ele><time>2026-04-12T16:55:29Z</time></trkpt><trkpt lat="38.863304272115855" lon="16.27668431162615"><ele>25.5</ele><time>2026-04-12T16:55:30Z</time></trkpt><trkpt lat="38.86356242334149" lon="16.27686733083241"><ele>26.0</ele><time>2026-04-12T16:55:31Z</time></trkpt><trkpt lat="38.863807075807294" lon="16.277055119661792"><ele>26.0</ele><time>2026-04-12T16:55:32Z</time></trkpt><trkpt lat="38.86403641606338" lon="16.277246927376748"><ele>26.0</ele><time>2026-04-12T16:55:33Z</time></trkpt><trkpt lat="38.86425763823317" lon="16.277449538039626"><ele>27.5</ele><time>2026-04-12T16:55:34Z</time></trkpt><trkpt lat="38.86447010912806" lon="16.277651036883697"><ele>29.0</ele><time>2026-04-12T16:55:35Z</time></trkpt><trkpt lat="38.86468313639855" lon="16.277860137092766"><ele>29.0</ele><time>2026-04-12T16:55:36Z</time></trkpt><trkpt lat="38.8648918704456" lon="16.27805855765499"><ele>29.0</ele><time>2026-04-12T16:55:37Z</time></trkpt><trkpt lat="38.86510034124721" lon="16.278263655308017"><ele>29.5</ele><time>2026-04-12T16:55:38Z</time></trkpt><trkpt lat="38.86530592792189" lon="16.278473125435305"><ele>30.0</ele><time>2026-04-12T16:55:39Z</time></trkpt><trkpt lat="38.86550999963194" lon="16.278686831598872"><ele>30.0</ele><time>2026-04-12T16:55:39.999Z</time></trkpt><trkpt lat="38.86572196399507" lon="16.27890104706582"><ele>30.0</ele><time>2026-04-12T16:55:40.999Z</time></trkpt><trkpt lat="38.86593639749098" lon="16.27911705803657"><ele>30.5</ele><time>2026-04-12T16:55:41.999Z</time></trkpt><trkpt lat="38.866154040889725" lon="16.279336548011976"><ele>31.0</ele><time>2026-04-12T16:55:42.999Z</time></trkpt><trkpt lat="38.86637037614428" lon="16.279553262951154"><ele>31.5</ele><time>2026-04-12T16:55:43.999Z</time></trkpt><trkpt lat="38.86658910037804" lon="16.27976842517417"><ele>32.0</ele><time>2026-04-12T16:55:44.999Z</time></trkpt><trkpt lat="38.8668068984666" lon="16.279986022818743"><ele>31.0</ele><time>2026-04-12T16:55:45.999Z</time></trkpt><trkpt lat="38.867034757665564" lon="16.280186629062204"><ele>30.0</ele><time>2026-04-12T16:55:46.999Z</time></trkpt><trkpt lat="38.86726366456831" lon="16.280382677831014"><ele>30.0</ele><time>2026-04-12T16:55:47.999Z</time></trkpt><trkpt lat="38.8674821558426" lon="16.28056625997373"><ele>30.0</ele><time>2026-04-12T16:55:48.999Z</time></trkpt><trkpt lat="38.867700120490795" lon="16.280711592292175"><ele>30.0</ele><time>2026-04-12T16:55:49.999Z</time></trkpt><trkpt lat="38.86790826347972" lon="16.28085130637535"><ele>30.0</ele><time>2026-04-12T16:55:50.999Z</time></trkpt><trkpt lat="38.86811411370733" lon="16.28097340133147"><ele>30.0</ele><time>2026-04-12T16:55:51.999Z</time></trkpt><trkpt lat="38.868330738114075" lon="16.28108675133318"><ele>30.0</ele><time>2026-04-12T16:55:52.999Z</time></trkpt><trkpt lat="38.868578069179655" lon="16.281192730137906"><ele>30.5</ele><time>2026-04-12T16:55:53.999Z</time></trkpt><trkpt lat="38.868856146146506" lon="16.281284571118253"><ele>31.0</ele><time>2026-04-12T16:55:54.999Z</time></trkpt><trkpt lat="38.86915463247137" lon="16.2813799768314"><ele>32.0</ele><time>2026-04-12T16:55:55.999Z</time></trkpt><trkpt lat="38.86945707202454" lon="16.281477199445085"><ele>33.0</ele><time>2026-04-12T16:55:56.999Z</time></trkpt><trkpt lat="38.86976475508225" lon="16.281562469484196"><ele>33.0</ele><time>2026-04-12T16:55:57.999Z</time></trkpt><trkpt lat="38.87006578199346" lon="16.281631596331795"><ele>33.0</ele><time>2026-04-12T16:55:58.999Z</time></trkpt><trkpt lat="38.87037201659059" lon="16.281676279787597"><ele>33.0</ele><time>2026-04-12T16:55:59.999Z</time></trkpt><trkpt lat="38.870682874601364" lon="16.28169133153093"><ele>33.0</ele><time>2026-04-12T16:56:00.999Z</time></trkpt><trkpt lat="38.870988587214924" lon="16.28169538654411"><ele>31.5</ele><time>2026-04-12T16:56:01.999Z</time></trkpt><trkpt lat="38.87129370585582" lon="16.28167751849666"><ele>30.0</ele><time>2026-04-12T16:56:02.999Z</time></trkpt><trkpt lat="38.871604301285124" lon="16.281652281492896"><ele>29.5</ele><time>2026-04-12T16:56:03.999Z</time></trkpt><trkpt lat="38.87191299716074" lon="16.281625781471703"><ele>29.0</ele><time>2026-04-12T16:56:04.999Z</time></trkpt><trkpt lat="38.87222537383867" lon="16.281612853948403"><ele>29.0</ele><time>2026-04-12T16:56:05.999Z</time></trkpt><trkpt lat="38.8725332615551" lon="16.281604497493213"><ele>29.0</ele><time>2026-04-12T16:56:06.999Z</time></trkpt><trkpt lat="38.87284004719465" lon="16.281602851131527"><ele>28.0</ele><time>2026-04-12T16:56:07.999Z</time></trkpt><trkpt lat="38.87313966064814" lon="16.281600520256628"><ele>27.0</ele><time>2026-04-12T16:56:08.999Z</time></trkpt><trkpt lat="38.87342434085406" lon="16.281587858270445"><ele>27.0</ele><time>2026-04-12T16:56:09.999Z</time></trkpt><trkpt lat="38.873727426242816" lon="16.281563964252275"><ele>27.0</ele><time>2026-04-12T16:56:10.999Z</time></trkpt><trkpt lat="38.87402368869578" lon="16.28157826323922"><ele>27.5</ele><time>2026-04-12T16:56:11.999Z</time></trkpt><trkpt lat="38.87429087998009" lon="16.28157195467386"><ele>28.0</ele><time>2026-04-12T16:56:12.999Z</time></trkpt><trkpt lat="38.874545106251595" lon="16.28156568218481"><ele>28.0</ele><time>2026-04-12T16:56:13.999Z</time></trkpt><trkpt lat="38.87478890793667" lon="16.28156088540698"><ele>28.0</ele><time>2026-04-12T16:56:14.999Z</time></trkpt><trkpt lat="38.87502443956903" lon="16.281556839953907"><ele>23.5</ele><time>2026-04-12T16:56:15.999Z</time></trkpt><trkpt lat="38.87525551327669" lon="16.281551944590333"><ele>19.0</ele><time>2026-04-12T16:56:16.999Z</time></trkpt><trkpt lat="38.87549305595041" lon="16.281548367717768"><ele>19.0</ele><time>2026-04-12T16:56:17.999Z</time></trkpt><trkpt lat="38.87572987750141" lon="16.281544498632897"><ele>19.0</ele><time>2026-04-12T16:56:18.999Z</time></trkpt><trkpt lat="38.87596685018983" lon="16.28153736187531"><ele>19.5</ele><time>2026-04-12T16:56:19.999Z</time></trkpt><trkpt lat="38.87620081601192" lon="16.281532354396184"><ele>20.0</ele><time>2026-04-12T16:56:20.999Z</time></trkpt><trkpt lat="38.87642833687232" lon="16.281528450345718"><ele>20.0</ele><time>2026-04-12T16:56:21.999Z</time></trkpt><trkpt lat="38.87665191615158" lon="16.281522111925415"><ele>20.0</ele><time>2026-04-12T16:56:22.999Z</time></trkpt><trkpt lat="38.87687147529356" lon="16.2815173072484"><ele>20.0</ele><time>2026-04-12T16:56:23.999Z</time></trkpt><trkpt lat="38.877087328786565" lon="16.28151157941007"><ele>20.0</ele><time>2026-04-12T16:56:24.999Z</time></trkpt><trkpt lat="38.87731025152263" lon="16.281508118688755"><ele>20.0</ele><time>2026-04-12T16:56:25.999Z</time></trkpt><trkpt lat="38.877529803730255" lon="16.281503897141747"><ele>20.0</ele><time>2026-04-12T16:56:26.999Z</time></trkpt><trkpt lat="38.87774887770728" lon="16.281498770124287"><ele>19.666666666666668</ele><time>2026-04-12T16:56:27.999Z</time></trkpt><trkpt lat="38.87796013355717" lon="16.281495461017148"><ele>19.333333333333332</ele><time>2026-04-12T16:56:28.999Z</time></trkpt><trkpt lat="38.87816775300993" lon="16.281492712762056"><ele>19.0</ele><time>2026-04-12T16:56:30.001Z</time></trkpt><trkpt lat="38.878374810508774" lon="16.28148797091343"><ele>19.0</ele><time>2026-04-12T16:56:31.001Z</time></trkpt><trkpt lat="38.87858443729144" lon="16.28148335291039"><ele>19.0</ele><time>2026-04-12T16:56:32.001Z</time></trkpt><trkpt lat="38.87880437648336" lon="16.281481825451536"><ele>19.0</ele><time>2026-04-12T16:56:33.001Z</time></trkpt><trkpt lat="38.87902831524757" lon="16.28147834455335"><ele>19.0</ele><time>2026-04-12T16:56:34.001Z</time></trkpt><trkpt lat="38.87926371245808" lon="16.28147176067128"><ele>19.0</ele><time>2026-04-12T16:56:35.001Z</time></trkpt><trkpt lat="38.87951240791642" lon="16.281458997293704"><ele>19.0</ele><time>2026-04-12T16:56:36.001Z</time></trkpt><trkpt lat="38.87977111273342" lon="16.28144494605293"><ele>19.0</ele><time>2026-04-12T16:56:37.001Z</time></trkpt><trkpt lat="38.88004207860779" lon="16.281431139394943"><ele>19.0</ele><time>2026-04-12T16:56:38.001Z</time></trkpt><trkpt lat="38.88033013364322" lon="16.28141202847595"><ele>19.0</ele><time>2026-04-12T16:56:39.001Z</time></trkpt><trkpt lat="38.880636638202134" lon="16.28138549789304"><ele>19.5</ele><time>2026-04-12T16:56:40.001Z</time></trkpt><trkpt lat="38.880946817617364" lon="16.28135706165158"><ele>20.0</ele><time>2026-04-12T16:56:41.001Z</time></trkpt><trkpt lat="38.88124713701981" lon="16.281322061495302"><ele>20.0</ele><time>2026-04-12T16:56:42.001Z</time></trkpt><trkpt lat="38.881544488392215" lon="16.281280378298604"><ele>20.0</ele><time>2026-04-12T16:56:43.001Z</time></trkpt><trkpt lat="38.881840688161596" lon="16.281242506641675"><ele>19.5</ele><time>2026-04-12T16:56:44.001Z</time></trkpt><trkpt lat="38.88213468250381" lon="16.281202983524196"><ele>19.0</ele><time>2026-04-12T16:56:45.001Z</time></trkpt><trkpt lat="38.88242729922758" lon="16.281161188139848"><ele>19.5</ele><time>2026-04-12T16:56:46.001Z</time></trkpt><trkpt lat="38.88272137142743" lon="16.281119658657897"><ele>20.0</ele><time>2026-04-12T16:56:47.001Z</time></trkpt><trkpt lat="38.88302325574852" lon="16.281075912702804"><ele>20.0</ele><time>2026-04-12T16:56:48.001Z</time></trkpt><trkpt lat="38.88332505651699" lon="16.281031933169924"><ele>20.0</ele><time>2026-04-12T16:56:49.001Z</time></trkpt><trkpt lat="38.88362867092998" lon="16.28098634903957"><ele>19.0</ele><time>2026-04-12T16:56:50.001Z</time></trkpt><trkpt lat="38.883933521957566" lon="16.280940448392315"><ele>18.0</ele><time>2026-04-12T16:56:51Z</time></trkpt><trkpt lat="38.88423974231925" lon="16.280896176203502"><ele>18.5</ele><time>2026-04-12T16:56:52Z</time></trkpt><trkpt lat="38.884545732463785" lon="16.280850318800287"><ele>19.0</ele><time>2026-04-12T16:56:53Z</time></trkpt><trkpt lat="38.884855407763" lon="16.280801705496806"><ele>18.5</ele><time>2026-04-12T16:56:54Z</time></trkpt><trkpt lat="38.88516006171616" lon="16.28075391911392"><ele>18.0</ele><time>2026-04-12T16:56:55Z</time></trkpt><trkpt lat="38.88545991470529" lon="16.280706548938085"><ele>18.0</ele><time>2026-04-12T16:56:56Z</time></trkpt><trkpt lat="38.88576666693007" lon="16.280658007545647"><ele>18.0</ele><time>2026-04-12T16:56:57Z</time></trkpt><trkpt lat="38.88607274494542" lon="16.280613617170673"><ele>19.5</ele><time>2026-04-12T16:56:58Z</time></trkpt><trkpt lat="38.88638191675836" lon="16.280568103156067"><ele>21.0</ele><time>2026-04-12T16:56:59Z</time></trkpt><trkpt lat="38.88668710781046" lon="16.280522896369114"><ele>20.0</ele><time>2026-04-12T16:57:00Z</time></trkpt><trkpt lat="38.88699570907143" lon="16.280477212350444"><ele>19.0</ele><time>2026-04-12T16:57:01Z</time></trkpt><trkpt lat="38.887301670210135" lon="16.2804309497014"><ele>19.5</ele><time>2026-04-12T16:57:02Z</time></trkpt><trkpt lat="38.887608550230524" lon="16.280379424706695"><ele>20.0</ele><time>2026-04-12T16:57:03Z</time></trkpt><trkpt lat="38.88792145784555" lon="16.280321475093828"><ele>20.0</ele><time>2026-04-12T16:57:04Z</time></trkpt><trkpt lat="38.88823136459757" lon="16.28026259735186"><ele>20.0</ele><time>2026-04-12T16:57:05Z</time></trkpt><trkpt lat="38.88854674851963" lon="16.280205538984664"><ele>20.0</ele><time>2026-04-12T16:57:06Z</time></trkpt><trkpt lat="38.88886372473778" lon="16.280156279276913"><ele>20.0</ele><time>2026-04-12T16:57:07Z</time></trkpt><trkpt lat="38.889181884590435" lon="16.28010770116102"><ele>19.5</ele><time>2026-04-12T16:57:08Z</time></trkpt><trkpt lat="38.889498732888995" lon="16.280058340573827"><ele>19.0</ele><time>2026-04-12T16:57:09Z</time></trkpt><trkpt lat="38.88981967007329" lon="16.280010239178164"><ele>19.0</ele><time>2026-04-12T16:57:10Z</time></trkpt><trkpt lat="38.890137850814874" lon="16.279965356921185"><ele>19.0</ele><time>2026-04-12T16:57:11Z</time></trkpt><trkpt lat="38.89046191456049" lon="16.2799227128598"><ele>19.0</ele><time>2026-04-12T16:57:12Z</time></trkpt><trkpt lat="38.890786531801815" lon="16.279881526152614"><ele>19.0</ele><time>2026-04-12T16:57:13Z</time></trkpt><trkpt lat="38.89111137572637" lon="16.279841504336186"><ele>18.5</ele><time>2026-04-12T16:57:14Z</time></trkpt><trkpt lat="38.89144003532428" lon="16.279797029763714"><ele>18.0</ele><time>2026-04-12T16:57:15Z</time></trkpt><trkpt lat="38.89176699012434" lon="16.2797476944132"><ele>19.0</ele><time>2026-04-12T16:57:16Z</time></trkpt><trkpt lat="38.89209488588754" lon="16.27969470792434"><ele>20.0</ele><time>2026-04-12T16:57:17Z</time></trkpt><trkpt lat="38.89242603224362" lon="16.279648134381926"><ele>20.0</ele><time>2026-04-12T16:57:18Z</time></trkpt><trkpt lat="38.892750812160465" lon="16.279592491630957"><ele>20.0</ele><time>2026-04-12T16:57:19Z</time></trkpt><trkpt lat="38.893079962837895" lon="16.279539064840986"><ele>20.0</ele><time>2026-04-12T16:57:20Z</time></trkpt><trkpt lat="38.89341082066235" lon="16.279489475647356"><ele>20.0</ele><time>2026-04-12T16:57:21Z</time></trkpt><trkpt lat="38.89373531965867" lon="16.279439760190044"><ele>19.5</ele><time>2026-04-12T16:57:22Z</time></trkpt><trkpt lat="38.89405600154678" lon="16.279388863576617"><ele>19.0</ele><time>2026-04-12T16:57:23Z</time></trkpt><trkpt lat="38.89437904653254" lon="16.279335980411872"><ele>18.5</ele><time>2026-04-12T16:57:24Z</time></trkpt><trkpt lat="38.894697427037066" lon="16.279289070345474"><ele>18.0</ele><time>2026-04-12T16:57:25Z</time></trkpt><trkpt lat="38.8950204546581" lon="16.279241883527643"><ele>18.5</ele><time>2026-04-12T16:57:26Z</time></trkpt><trkpt lat="38.89534011749981" lon="16.279194269382906"><ele>19.0</ele><time>2026-04-12T16:57:27Z</time></trkpt><trkpt lat="38.895660547348236" lon="16.27914649301838"><ele>18.0</ele><time>2026-04-12T16:57:28Z</time></trkpt><trkpt lat="38.89597833543156" lon="16.27909563817993"><ele>17.0</ele><time>2026-04-12T16:57:29Z</time></trkpt><trkpt lat="38.89629871650647" lon="16.279042802279772"><ele>17.0</ele><time>2026-04-12T16:57:30Z</time></trkpt><trkpt lat="38.896614240669145" lon="16.2789883636985"><ele>17.0</ele><time>2026-04-12T16:57:31Z</time></trkpt><trkpt lat="38.896929933467426" lon="16.27893582744335"><ele>18.0</ele><time>2026-04-12T16:57:32Z</time></trkpt><trkpt lat="38.897248659555565" lon="16.2788832939997"><ele>19.0</ele><time>2026-04-12T16:57:33Z</time></trkpt><trkpt lat="38.89756330784015" lon="16.27883369570587"><ele>19.5</ele><time>2026-04-12T16:57:34Z</time></trkpt><trkpt lat="38.89788160637239" lon="16.27878325275184"><ele>20.0</ele><time>2026-04-12T16:57:35Z</time></trkpt><trkpt lat="38.89819609050152" lon="16.278731852296772"><ele>19.0</ele><time>2026-04-12T16:57:36Z</time></trkpt><trkpt lat="38.89851119090839" lon="16.27868039419479"><ele>18.0</ele><time>2026-04-12T16:57:37Z</time></trkpt><trkpt lat="38.89883307085096" lon="16.278628026218765"><ele>18.0</ele><time>2026-04-12T16:57:38Z</time></trkpt><trkpt lat="38.899154291440325" lon="16.27857509963603"><ele>18.0</ele><time>2026-04-12T16:57:39Z</time></trkpt><trkpt lat="38.8994776155725" lon="16.27852526018991"><ele>18.5</ele><time>2026-04-12T16:57:40Z</time></trkpt><trkpt lat="38.899801635820126" lon="16.27847871403403"><ele>19.0</ele><time>2026-04-12T16:57:41Z</time></trkpt><trkpt lat="38.90012442521261" lon="16.278430713935858"><ele>19.5</ele><time>2026-04-12T16:57:42Z</time></trkpt><trkpt lat="38.90044898913602" lon="16.278378945401702"><ele>20.0</ele><time>2026-04-12T16:57:43Z</time></trkpt><trkpt lat="38.90077209025534" lon="16.27832749810296"><ele>19.5</ele><time>2026-04-12T16:57:44Z</time></trkpt><trkpt lat="38.901097169832404" lon="16.278274804505738"><ele>19.0</ele><time>2026-04-12T16:57:45Z</time></trkpt><trkpt lat="38.90142011501863" lon="16.278218917795925"><ele>19.0</ele><time>2026-04-12T16:57:46Z</time></trkpt><trkpt lat="38.90174734691861" lon="16.278157441946373"><ele>19.0</ele><time>2026-04-12T16:57:46.999Z</time></trkpt><trkpt lat="38.902069287062545" lon="16.27808349051594"><ele>19.0</ele><time>2026-04-12T16:57:47.999Z</time></trkpt><trkpt lat="38.90238875327748" lon="16.277992792090608"><ele>19.0</ele><time>2026-04-12T16:57:48.999Z</time></trkpt><trkpt lat="38.90270515889148" lon="16.277882468666338"><ele>19.0</ele><time>2026-04-12T16:57:49.999Z</time></trkpt><trkpt lat="38.903014185083386" lon="16.27776123342134"><ele>19.0</ele><time>2026-04-12T16:57:50.999Z</time></trkpt><trkpt lat="38.903320555570744" lon="16.277621881555344"><ele>19.0</ele><time>2026-04-12T16:57:51.999Z</time></trkpt><trkpt lat="38.90362428788437" lon="16.277471709415263"><ele>19.0</ele><time>2026-04-12T16:57:52.999Z</time></trkpt><trkpt lat="38.903914577743556" lon="16.27731048314188"><ele>20.0</ele><time>2026-04-12T16:57:53.999Z</time></trkpt><trkpt lat="38.90419404274707" lon="16.277142147950393"><ele>21.0</ele><time>2026-04-12T16:57:54.999Z</time></trkpt><trkpt lat="38.90446295408212" lon="16.27696624767238"><ele>21.0</ele><time>2026-04-12T16:57:55.999Z</time></trkpt><trkpt lat="38.90472100734051" lon="16.27677949146047"><ele>21.0</ele><time>2026-04-12T16:57:56.999Z</time></trkpt><trkpt lat="38.90494847069205" lon="16.276579008663827"><ele>21.0</ele><time>2026-04-12T16:57:57.999Z</time></trkpt><trkpt lat="38.905197581867235" lon="16.276380627319657"><ele>21.0</ele><time>2026-04-12T16:57:58.999Z</time></trkpt><trkpt lat="38.905432997623" lon="16.276180453146306"><ele>21.0</ele><time>2026-04-12T16:57:59.999Z</time></trkpt><trkpt lat="38.90566482741129" lon="16.275973008194775"><ele>21.0</ele><time>2026-04-12T16:58:00.999Z</time></trkpt><trkpt lat="38.90589171881963" lon="16.2757674862679"><ele>22.0</ele><time>2026-04-12T16:58:01.999Z</time></trkpt><trkpt lat="38.90612473606017" lon="16.27556711863515"><ele>23.0</ele><time>2026-04-12T16:58:02.999Z</time></trkpt><trkpt lat="38.90635158468236" lon="16.275362991989535"><ele>23.0</ele><time>2026-04-12T16:58:03.999Z</time></trkpt><trkpt lat="38.906568628356546" lon="16.27516461788064"><ele>23.0</ele><time>2026-04-12T16:58:04.999Z</time></trkpt><trkpt lat="38.906821281467785" lon="16.274958073670483"><ele>24.5</ele><time>2026-04-12T16:58:05.999Z</time></trkpt><trkpt lat="38.907059029984595" lon="16.27475732097652"><ele>26.0</ele><time>2026-04-12T16:58:06.999Z</time></trkpt><trkpt lat="38.907301865769085" lon="16.274552194175282"><ele>26.0</ele><time>2026-04-12T16:58:07.999Z</time></trkpt><trkpt lat="38.9075442548126" lon="16.27434943332312"><ele>26.0</ele><time>2026-04-12T16:58:08.999Z</time></trkpt><trkpt lat="38.907796419754895" lon="16.27414191538868"><ele>25.5</ele><time>2026-04-12T16:58:09.999Z</time></trkpt><trkpt lat="38.908054720253446" lon="16.27393366551108"><ele>25.0</ele><time>2026-04-12T16:58:10.999Z</time></trkpt><trkpt lat="38.90831146760017" lon="16.27373143772257"><ele>25.5</ele><time>2026-04-12T16:58:11.999Z</time></trkpt><trkpt lat="38.90855919854913" lon="16.27352262528203"><ele>26.0</ele><time>2026-04-12T16:58:12.999Z</time></trkpt><trkpt lat="38.908793477318184" lon="16.27331587102804"><ele>26.0</ele><time>2026-04-12T16:58:13.999Z</time></trkpt><trkpt lat="38.909012786659474" lon="16.27312237252143"><ele>26.0</ele><time>2026-04-12T16:58:14.999Z</time></trkpt><trkpt lat="38.90922956776389" lon="16.272937273419643"><ele>25.5</ele><time>2026-04-12T16:58:15.999Z</time></trkpt><trkpt lat="38.90944302586092" lon="16.272751516438582"><ele>25.0</ele><time>2026-04-12T16:58:16.999Z</time></trkpt><trkpt lat="38.90965772803953" lon="16.27256471148489"><ele>25.0</ele><time>2026-04-12T16:58:17.999Z</time></trkpt><trkpt lat="38.90986775842375" lon="16.27237691980417"><ele>25.0</ele><time>2026-04-12T16:58:18.999Z</time></trkpt><trkpt lat="38.910077343973555" lon="16.272193623826293"><ele>25.0</ele><time>2026-04-12T16:58:19.999Z</time></trkpt><trkpt lat="38.91028515312423" lon="16.27200555199363"><ele>25.0</ele><time>2026-04-12T16:58:20.999Z</time></trkpt><trkpt lat="38.9104964483596" lon="16.271821640252934"><ele>25.0</ele><time>2026-04-12T16:58:21.999Z</time></trkpt><trkpt lat="38.91069337923471" lon="16.271640369216367"><ele>25.0</ele><time>2026-04-12T16:58:22.999Z</time></trkpt><trkpt lat="38.91089793880968" lon="16.27146055924889"><ele>25.0</ele><time>2026-04-12T16:58:23.999Z</time></trkpt><trkpt lat="38.91110680675461" lon="16.27128159783203"><ele>25.0</ele><time>2026-04-12T16:58:24.999Z</time></trkpt><trkpt lat="38.91131792033753" lon="16.27110209361363"><ele>25.0</ele><time>2026-04-12T16:58:25.999Z</time></trkpt><trkpt lat="38.911533919390955" lon="16.270923508820726"><ele>25.0</ele><time>2026-04-12T16:58:26.999Z</time></trkpt><trkpt lat="38.911748453258575" lon="16.27074287748764"><ele>24.5</ele><time>2026-04-12T16:58:27.999Z</time></trkpt><trkpt lat="38.91196370752558" lon="16.270558961183802"><ele>24.0</ele><time>2026-04-12T16:58:28.999Z</time></trkpt><trkpt lat="38.91217498094452" lon="16.27036928925581"><ele>24.0</ele><time>2026-04-12T16:58:29.999Z</time></trkpt><trkpt lat="38.91238623266068" lon="16.270182112320047"><ele>24.0</ele><time>2026-04-12T16:58:30.999Z</time></trkpt><trkpt lat="38.912604230818886" lon="16.26999775817046"><ele>25.0</ele><time>2026-04-12T16:58:31.999Z</time></trkpt><trkpt lat="38.912819989794336" lon="16.269812761537235"><ele>26.0</ele><time>2026-04-12T16:58:32.999Z</time></trkpt><trkpt lat="38.91304026672935" lon="16.269625011669287"><ele>26.0</ele><time>2026-04-12T16:58:33.999Z</time></trkpt><trkpt lat="38.91326170975809" lon="16.26943184970811"><ele>26.0</ele><time>2026-04-12T16:58:34.999Z</time></trkpt><trkpt lat="38.913484855026084" lon="16.269234926788933"><ele>26.0</ele><time>2026-04-12T16:58:36.001Z</time></trkpt><trkpt lat="38.91370562640053" lon="16.269038520213858"><ele>26.0</ele><time>2026-04-12T16:58:37.001Z</time></trkpt><trkpt lat="38.913927720464585" lon="16.268841329530076"><ele>26.0</ele><time>2026-04-12T16:58:38Z</time></trkpt><trkpt lat="38.91415109053621" lon="16.268644266919726"><ele>26.0</ele><time>2026-04-12T16:58:39Z</time></trkpt><trkpt lat="38.9143774079792" lon="16.268443243062695"><ele>26.0</ele><time>2026-04-12T16:58:40.001Z</time></trkpt><trkpt lat="38.9146016972399" lon="16.26824406957908"><ele>26.0</ele><time>2026-04-12T16:58:41Z</time></trkpt><trkpt lat="38.914830562202155" lon="16.268044065868484"><ele>26.0</ele><time>2026-04-12T16:58:42Z</time></trkpt><trkpt lat="38.915059318830934" lon="16.26784587579597"><ele>26.0</ele><time>2026-04-12T16:58:43Z</time></trkpt><trkpt lat="38.91529152503267" lon="16.267647354311812"><ele>27.0</ele><time>2026-04-12T16:58:44Z</time></trkpt><trkpt lat="38.91552442421492" lon="16.26744690685779"><ele>28.0</ele><time>2026-04-12T16:58:45Z</time></trkpt><trkpt lat="38.91575204224819" lon="16.267245960926843"><ele>29.0</ele><time>2026-04-12T16:58:46Z</time></trkpt><trkpt lat="38.915974450716234" lon="16.267047964486906"><ele>30.0</ele><time>2026-04-12T16:58:47Z</time></trkpt><trkpt lat="38.91619548348545" lon="16.266854296115813"><ele>30.0</ele><time>2026-04-12T16:58:48Z</time></trkpt><trkpt lat="38.916416549366254" lon="16.26665865729709"><ele>30.0</ele><time>2026-04-12T16:58:49Z</time></trkpt><trkpt lat="38.916639282245754" lon="16.2664684592954"><ele>29.5</ele><time>2026-04-12T16:58:50Z</time></trkpt><trkpt lat="38.91685165069757" lon="16.266290811132734"><ele>29.0</ele><time>2026-04-12T16:58:51Z</time></trkpt><trkpt lat="38.917067884063265" lon="16.266111328924918"><ele>29.0</ele><time>2026-04-12T16:58:52Z</time></trkpt><trkpt lat="38.91725907594484" lon="16.265934485733553"><ele>29.0</ele><time>2026-04-12T16:58:53Z</time></trkpt><trkpt lat="38.91745599043948" lon="16.265760096529974"><ele>28.0</ele><time>2026-04-12T16:58:54Z</time></trkpt><trkpt lat="38.917656140951834" lon="16.26558839930022"><ele>27.0</ele><time>2026-04-12T16:58:55Z</time></trkpt><trkpt lat="38.91785693825593" lon="16.2654206000361"><ele>27.0</ele><time>2026-04-12T16:58:56Z</time></trkpt><trkpt lat="38.918054049555366" lon="16.265254249736223"><ele>27.0</ele><time>2026-04-12T16:58:57Z</time></trkpt><trkpt lat="38.91824718674497" lon="16.26508940642513"><ele>27.0</ele><time>2026-04-12T16:58:58Z</time></trkpt><trkpt lat="38.918438782473906" lon="16.264924831501222"><ele>27.0</ele><time>2026-04-12T16:58:59Z</time></trkpt><trkpt lat="38.91862798307258" lon="16.264759445293755"><ele>27.5</ele><time>2026-04-12T16:59:00Z</time></trkpt><trkpt lat="38.9188195301393" lon="16.26459736370288"><ele>28.0</ele><time>2026-04-12T16:59:01Z</time></trkpt><trkpt lat="38.91901343822486" lon="16.264429806308524"><ele>28.0</ele><time>2026-04-12T16:59:02Z</time></trkpt><trkpt lat="38.91920827227142" lon="16.26425566936652"><ele>28.0</ele><time>2026-04-12T16:59:03Z</time></trkpt><trkpt lat="38.91940700575647" lon="16.264086137137756"><ele>28.0</ele><time>2026-04-12T16:59:04Z</time></trkpt><trkpt lat="38.91960635120004" lon="16.263921904925237"><ele>28.0</ele><time>2026-04-12T16:59:05Z</time></trkpt><trkpt lat="38.9198022670818" lon="16.263758306896438"><ele>28.0</ele><time>2026-04-12T16:59:06Z</time></trkpt><trkpt lat="38.920002749737435" lon="16.263591261134405"><ele>28.0</ele><time>2026-04-12T16:59:07Z</time></trkpt><trkpt lat="38.920202924277476" lon="16.263420314624916"><ele>27.5</ele><time>2026-04-12T16:59:08Z</time></trkpt><trkpt lat="38.92040386640674" lon="16.26324172031894"><ele>27.0</ele><time>2026-04-12T16:59:09Z</time></trkpt><trkpt lat="38.92060607829658" lon="16.263056408420375"><ele>28.0</ele><time>2026-04-12T16:59:10Z</time></trkpt><trkpt lat="38.92081119079077" lon="16.262869254608624"><ele>29.0</ele><time>2026-04-12T16:59:11Z</time></trkpt><trkpt lat="38.921016632531945" lon="16.262677448332536"><ele>29.0</ele><time>2026-04-12T16:59:12Z</time></trkpt><trkpt lat="38.921222580228815" lon="16.262478237361286"><ele>29.0</ele><time>2026-04-12T16:59:13Z</time></trkpt><trkpt lat="38.921425204071426" lon="16.2622692646547"><ele>29.5</ele><time>2026-04-12T16:59:14Z</time></trkpt><trkpt lat="38.92162335187285" lon="16.262055328005868"><ele>30.0</ele><time>2026-04-12T16:59:15Z</time></trkpt><trkpt lat="38.92181321946595" lon="16.261836135250796"><ele>30.0</ele><time>2026-04-12T16:59:16Z</time></trkpt><trkpt lat="38.92199768700137" lon="16.261611552349038"><ele>30.0</ele><time>2026-04-12T16:59:17Z</time></trkpt><trkpt lat="38.922177880153455" lon="16.26138274890433"><ele>29.5</ele><time>2026-04-12T16:59:18Z</time></trkpt><trkpt lat="38.92234908022318" lon="16.26114893189448"><ele>29.0</ele><time>2026-04-12T16:59:19Z</time></trkpt><trkpt lat="38.92251369713926" lon="16.26090721040812"><ele>31.0</ele><time>2026-04-12T16:59:20Z</time></trkpt><trkpt lat="38.922671778429965" lon="16.26066158018326"><ele>33.0</ele><time>2026-04-12T16:59:21Z</time></trkpt><trkpt lat="38.92282390330257" lon="16.260414036632348"><ele>33.0</ele><time>2026-04-12T16:59:22Z</time></trkpt><trkpt lat="38.922973404902784" lon="16.26016549378988"><ele>33.0</ele><time>2026-04-12T16:59:23Z</time></trkpt><trkpt lat="38.92311937145531" lon="16.25991173664381"><ele>32.0</ele><time>2026-04-12T16:59:24Z</time></trkpt><trkpt lat="38.92325294330793" lon="16.259659989075733"><ele>31.0</ele><time>2026-04-12T16:59:25Z</time></trkpt><trkpt lat="38.92338879630683" lon="16.259394813958213"><ele>31.5</ele><time>2026-04-12T16:59:26Z</time></trkpt><trkpt lat="38.92351854312096" lon="16.25911943024812"><ele>32.0</ele><time>2026-04-12T16:59:27Z</time></trkpt><trkpt lat="38.92363391814768" lon="16.25885375401526"><ele>32.0</ele><time>2026-04-12T16:59:28Z</time></trkpt><trkpt lat="38.923741850499184" lon="16.258585189161856"><ele>32.0</ele><time>2026-04-12T16:59:29Z</time></trkpt><trkpt lat="38.92384745182502" lon="16.25830704742439"><ele>31.0</ele><time>2026-04-12T16:59:30Z</time></trkpt><trkpt lat="38.92394933698953" lon="16.25801798297882"><ele>30.0</ele><time>2026-04-12T16:59:31Z</time></trkpt><trkpt lat="38.924048528766" lon="16.257725938172804"><ele>30.0</ele><time>2026-04-12T16:59:31.999Z</time></trkpt><trkpt lat="38.92414139607204" lon="16.257428685121834"><ele>30.0</ele><time>2026-04-12T16:59:32.999Z</time></trkpt><trkpt lat="38.92422840434412" lon="16.257128346828694"><ele>31.0</ele><time>2026-04-12T16:59:33.999Z</time></trkpt><trkpt lat="38.924312282070254" lon="16.256824661191555"><ele>32.0</ele><time>2026-04-12T16:59:34.999Z</time></trkpt><trkpt lat="38.9243950569218" lon="16.25652236368122"><ele>33.0</ele><time>2026-04-12T16:59:35.999Z</time></trkpt><trkpt lat="38.92447651327742" lon="16.256222378206417"><ele>34.0</ele><time>2026-04-12T16:59:36.999Z</time></trkpt><trkpt lat="38.92456251032097" lon="16.25592117632444"><ele>34.0</ele><time>2026-04-12T16:59:37.999Z</time></trkpt><trkpt lat="38.92464487090106" lon="16.255626969885007"><ele>34.0</ele><time>2026-04-12T16:59:38.999Z</time></trkpt><trkpt lat="38.924725079114054" lon="16.255334125967288"><ele>34.5</ele><time>2026-04-12T16:59:39.999Z</time></trkpt><trkpt lat="38.92480653184813" lon="16.255042929011424"><ele>35.0</ele><time>2026-04-12T16:59:40.999Z</time></trkpt><trkpt lat="38.924890473939385" lon="16.254753351493434"><ele>35.0</ele><time>2026-04-12T16:59:41.999Z</time></trkpt><trkpt lat="38.92497370930531" lon="16.254465537904448"><ele>35.0</ele><time>2026-04-12T16:59:42.999Z</time></trkpt><trkpt lat="38.92505543905388" lon="16.254175615524048"><ele>36.0</ele><time>2026-04-12T16:59:43.999Z</time></trkpt><trkpt lat="38.925137697598785" lon="16.25388099997349"><ele>37.0</ele><time>2026-04-12T16:59:44.999Z</time></trkpt><trkpt lat="38.92522048073886" lon="16.253585485337478"><ele>37.0</ele><time>2026-04-12T16:59:45.999Z</time></trkpt><trkpt lat="38.925305117033744" lon="16.253286020275873"><ele>37.0</ele><time>2026-04-12T16:59:46.999Z</time></trkpt><trkpt lat="38.92538969030058" lon="16.25298992938432"><ele>37.0</ele><time>2026-04-12T16:59:47.999Z</time></trkpt><trkpt lat="38.92547453027355" lon="16.252695433327442"><ele>37.0</ele><time>2026-04-12T16:59:48.999Z</time></trkpt><trkpt lat="38.92555972021065" lon="16.252398190169767"><ele>37.5</ele><time>2026-04-12T16:59:49.999Z</time></trkpt><trkpt lat="38.925643740834374" lon="16.252097764518954"><ele>38.0</ele><time>2026-04-12T16:59:50.999Z</time></trkpt><trkpt lat="38.925726587982126" lon="16.25180611511708"><ele>38.0</ele><time>2026-04-12T16:59:51.999Z</time></trkpt><trkpt lat="38.925808499447854" lon="16.251514084834554"><ele>38.0</ele><time>2026-04-12T16:59:52.999Z</time></trkpt><trkpt lat="38.925888617760826" lon="16.251215150791435"><ele>38.0</ele><time>2026-04-12T16:59:53.999Z</time></trkpt><trkpt lat="38.92597284522972" lon="16.250919517750646"><ele>38.0</ele><time>2026-04-12T16:59:54.999Z</time></trkpt><trkpt lat="38.92605784059545" lon="16.250621748306912"><ele>37.0</ele><time>2026-04-12T16:59:55.999Z</time></trkpt><trkpt lat="38.926139363144024" lon="16.2503266390948"><ele>36.0</ele><time>2026-04-12T16:59:56.999Z</time></trkpt><trkpt lat="38.92622045755701" lon="16.25002971675445"><ele>35.0</ele><time>2026-04-12T16:59:57.999Z</time></trkpt><trkpt lat="38.92630474008438" lon="16.24973022275187"><ele>34.0</ele><time>2026-04-12T16:59:58.999Z</time></trkpt><trkpt lat="38.92638979903335" lon="16.24943275161786"><ele>34.0</ele><time>2026-04-12T16:59:59.999Z</time></trkpt><trkpt lat="38.92647464328995" lon="16.24913390434699"><ele>34.0</ele><time>2026-04-12T17:00:00.999Z</time></trkpt><trkpt lat="38.92656132804525" lon="16.248832921610525"><ele>32.5</ele><time>2026-04-12T17:00:01.999Z</time></trkpt><trkpt lat="38.92664663621989" lon="16.248532146679214"><ele>31.0</ele><time>2026-04-12T17:00:02.999Z</time></trkpt><trkpt lat="38.92673417294946" lon="16.248228980522878"><ele>30.5</ele><time>2026-04-12T17:00:03.999Z</time></trkpt><trkpt lat="38.926821275338696" lon="16.24792074178188"><ele>30.0</ele><time>2026-04-12T17:00:04.999Z</time></trkpt><trkpt lat="38.926910170132004" lon="16.247613149014217"><ele>30.0</ele><time>2026-04-12T17:00:05.999Z</time></trkpt><trkpt lat="38.926999934716605" lon="16.247304349224294"><ele>30.0</ele><time>2026-04-12T17:00:06.999Z</time></trkpt><trkpt lat="38.927090775385516" lon="16.246993774066382"><ele>29.5</ele><time>2026-04-12T17:00:07.999Z</time></trkpt><trkpt lat="38.92717999788414" lon="16.246686223665034"><ele>29.0</ele><time>2026-04-12T17:00:08.999Z</time></trkpt><trkpt lat="38.92726670716702" lon="16.24638507217707"><ele>29.0</ele><time>2026-04-12T17:00:09.999Z</time></trkpt><trkpt lat="38.92735301378837" lon="16.246081691779665"><ele>29.0</ele><time>2026-04-12T17:00:10.999Z</time></trkpt><trkpt lat="38.92743822952598" lon="16.245778931341796"><ele>29.5</ele><time>2026-04-12T17:00:11.999Z</time></trkpt><trkpt lat="38.927523820911055" lon="16.245471939371352"><ele>30.0</ele><time>2026-04-12T17:00:12.999Z</time></trkpt><trkpt lat="38.92760967284795" lon="16.245167398927293"><ele>30.5</ele><time>2026-04-12T17:00:13.999Z</time></trkpt><trkpt lat="38.92769695969159" lon="16.24486343828478"><ele>31.0</ele><time>2026-04-12T17:00:14.999Z</time></trkpt><trkpt lat="38.92778513551186" lon="16.244557572658994"><ele>31.0</ele><time>2026-04-12T17:00:15.999Z</time></trkpt><trkpt lat="38.9278717046441" lon="16.244252027630612"><ele>31.0</ele><time>2026-04-12T17:00:16.999Z</time></trkpt><trkpt lat="38.92795915256324" lon="16.243948323934323"><ele>30.5</ele><time>2026-04-12T17:00:17.999Z</time></trkpt><trkpt lat="38.92804539112781" lon="16.24364257091973"><ele>30.0</ele><time>2026-04-12T17:00:18.999Z</time></trkpt><trkpt lat="38.928132150087" lon="16.243335581321947"><ele>29.5</ele><time>2026-04-12T17:00:19.999Z</time></trkpt><trkpt lat="38.92821850024429" lon="16.243031530478127"><ele>29.0</ele><time>2026-04-12T17:00:20.999Z</time></trkpt><trkpt lat="38.92830723251779" lon="16.24273015408233"><ele>29.0</ele><time>2026-04-12T17:00:21.999Z</time></trkpt><trkpt lat="38.92839215657428" lon="16.24242411379657"><ele>29.0</ele><time>2026-04-12T17:00:22.999Z</time></trkpt><trkpt lat="38.92847754217819" lon="16.24211779113658"><ele>29.5</ele><time>2026-04-12T17:00:23.999Z</time></trkpt><trkpt lat="38.928560348587034" lon="16.241809731246434"><ele>30.0</ele><time>2026-04-12T17:00:24.999Z</time></trkpt><trkpt lat="38.92864324510257" lon="16.24150545350773"><ele>29.0</ele><time>2026-04-12T17:00:25.999Z</time></trkpt><trkpt lat="38.92872924045732" lon="16.241197680804234"><ele>28.0</ele><time>2026-04-12T17:00:26.999Z</time></trkpt><trkpt lat="38.928810566383696" lon="16.24089083365415"><ele>27.0</ele><time>2026-04-12T17:00:27.999Z</time></trkpt><trkpt lat="38.92888607487187" lon="16.240581259989078"><ele>26.0</ele><time>2026-04-12T17:00:28.999Z</time></trkpt><trkpt lat="38.928959585117376" lon="16.240273461705335"><ele>26.0</ele><time>2026-04-12T17:00:29.999Z</time></trkpt><trkpt lat="38.92903802756355" lon="16.239962785331915"><ele>26.0</ele><time>2026-04-12T17:00:30.999Z</time></trkpt><trkpt lat="38.92912029094182" lon="16.23965417675106"><ele>26.0</ele><time>2026-04-12T17:00:31.999Z</time></trkpt><trkpt lat="38.929199958100625" lon="16.239343988229702"><ele>26.0</ele><time>2026-04-12T17:00:32.999Z</time></trkpt><trkpt lat="38.92927537496624" lon="16.23903486624564"><ele>25.0</ele><time>2026-04-12T17:00:33.999Z</time></trkpt><trkpt lat="38.929350928635586" lon="16.23872548044278"><ele>24.0</ele><time>2026-04-12T17:00:34.999Z</time></trkpt><trkpt lat="38.92942385270327" lon="16.238414880381804"><ele>24.5</ele><time>2026-04-12T17:00:35.998Z</time></trkpt><trkpt lat="38.92949817312699" lon="16.238101418462787"><ele>25.0</ele><time>2026-04-12T17:00:36.998Z</time></trkpt><trkpt lat="38.9295697775308" lon="16.237789547563924"><ele>25.0</ele><time>2026-04-12T17:00:37.998Z</time></trkpt><trkpt lat="38.929643774073014" lon="16.237478009078"><ele>25.0</ele><time>2026-04-12T17:00:38.998Z</time></trkpt><trkpt lat="38.929717707589546" lon="16.237166291581254"><ele>25.0</ele><time>2026-04-12T17:00:39.998Z</time></trkpt><trkpt lat="38.929785790561134" lon="16.23685435502215"><ele>25.0</ele><time>2026-04-12T17:00:41Z</time></trkpt><trkpt lat="38.92984997615862" lon="16.236544110164985"><ele>23.5</ele><time>2026-04-12T17:00:42Z</time></trkpt><trkpt lat="38.929916972001514" lon="16.23623028001801"><ele>22.0</ele><time>2026-04-12T17:00:43Z</time></trkpt><trkpt lat="38.92998431337222" lon="16.235917741958595"><ele>21.5</ele><time>2026-04-12T17:00:44Z</time></trkpt><trkpt lat="38.93005132915602" lon="16.235604248808258"><ele>21.0</ele><time>2026-04-12T17:00:45Z</time></trkpt><trkpt lat="38.93011837347071" lon="16.235291559716025"><ele>21.0</ele><time>2026-04-12T17:00:46Z</time></trkpt><trkpt lat="38.93018476550992" lon="16.234978468839422"><ele>21.0</ele><time>2026-04-12T17:00:47Z</time></trkpt><trkpt lat="38.93024900237484" lon="16.234664011375774"><ele>20.5</ele><time>2026-04-12T17:00:48Z</time></trkpt><trkpt lat="38.93031175344681" lon="16.23434928992201"><ele>20.0</ele><time>2026-04-12T17:00:49Z</time></trkpt><trkpt lat="38.930376637501816" lon="16.234035957790148"><ele>20.0</ele><time>2026-04-12T17:00:50Z</time></trkpt><trkpt lat="38.93044202798875" lon="16.23372048169401"><ele>20.0</ele><time>2026-04-12T17:00:51Z</time></trkpt><trkpt lat="38.930507813343056" lon="16.23340857234107"><ele>19.0</ele><time>2026-04-12T17:00:52Z</time></trkpt><trkpt lat="38.9305720691182" lon="16.23309765021731"><ele>18.0</ele><time>2026-04-12T17:00:53Z</time></trkpt><trkpt lat="38.93063790228007" lon="16.232781802362446"><ele>18.0</ele><time>2026-04-12T17:00:54Z</time></trkpt><trkpt lat="38.93070346911552" lon="16.232466990196322"><ele>18.0</ele><time>2026-04-12T17:00:55Z</time></trkpt><trkpt lat="38.93076941402849" lon="16.23215354725751"><ele>17.5</ele><time>2026-04-12T17:00:56Z</time></trkpt><trkpt lat="38.930837436224216" lon="16.2318395754707"><ele>17.0</ele><time>2026-04-12T17:00:57Z</time></trkpt><trkpt lat="38.930906579035806" lon="16.231527788056447"><ele>16.5</ele><time>2026-04-12T17:00:58Z</time></trkpt><trkpt lat="38.93097708878785" lon="16.23121544321427"><ele>16.0</ele><time>2026-04-12T17:00:59Z</time></trkpt><trkpt lat="38.9310509611507" lon="16.230904644701013"><ele>16.0</ele><time>2026-04-12T17:01:00Z</time></trkpt><trkpt lat="38.93112625157228" lon="16.23059400521809"><ele>16.0</ele><time>2026-04-12T17:01:01Z</time></trkpt><trkpt lat="38.93120189363782" lon="16.230283456683264"><ele>16.0</ele><time>2026-04-12T17:01:02Z</time></trkpt><trkpt lat="38.93127627113107" lon="16.22997828400523"><ele>16.0</ele><time>2026-04-12T17:01:03Z</time></trkpt><trkpt lat="38.93135185467141" lon="16.229663265284106"><ele>15.0</ele><time>2026-04-12T17:01:04Z</time></trkpt><trkpt lat="38.9314281141493" lon="16.229355224401274"><ele>14.0</ele><time>2026-04-12T17:01:05Z</time></trkpt><trkpt lat="38.931505378609536" lon="16.229047778508416"><ele>13.5</ele><time>2026-04-12T17:01:06Z</time></trkpt><trkpt lat="38.93158310162372" lon="16.228739931062798"><ele>13.0</ele><time>2026-04-12T17:01:07Z</time></trkpt><trkpt lat="38.93166026336904" lon="16.228433014398792"><ele>13.0</ele><time>2026-04-12T17:01:08Z</time></trkpt><trkpt lat="38.931742531491835" lon="16.228124687487927"><ele>13.0</ele><time>2026-04-12T17:01:09Z</time></trkpt><trkpt lat="38.93182805477301" lon="16.227817827744886"><ele>13.0</ele><time>2026-04-12T17:01:10Z</time></trkpt><trkpt lat="38.93191343348934" lon="16.227511045482252"><ele>13.0</ele><time>2026-04-12T17:01:11Z</time></trkpt><trkpt lat="38.93199784944347" lon="16.227204398056507"><ele>12.0</ele><time>2026-04-12T17:01:12Z</time></trkpt><trkpt lat="38.932082755428326" lon="16.226891182928544"><ele>11.0</ele><time>2026-04-12T17:01:12.999Z</time></trkpt><trkpt lat="38.93217234799715" lon="16.226569242552802"><ele>11.0</ele><time>2026-04-12T17:01:13.999Z</time></trkpt><trkpt lat="38.93226899983573" lon="16.22623999968387"><ele>11.0</ele><time>2026-04-12T17:01:14.999Z</time></trkpt><trkpt lat="38.93236694561987" lon="16.225911064802727"><ele>10.0</ele><time>2026-04-12T17:01:15.999Z</time></trkpt><trkpt lat="38.93246718018338" lon="16.225593631034343"><ele>9.0</ele><time>2026-04-12T17:01:16.999Z</time></trkpt><trkpt lat="38.93256755101593" lon="16.225247893860328"><ele>8.5</ele><time>2026-04-12T17:01:17.999Z</time></trkpt><trkpt lat="38.932668097641034" lon="16.224913417392028"><ele>8.0</ele><time>2026-04-12T17:01:18.999Z</time></trkpt><trkpt lat="38.93276876525569" lon="16.224581987369987"><ele>7.5</ele><time>2026-04-12T17:01:19.999Z</time></trkpt><trkpt lat="38.9328738447754" lon="16.224253176374923"><ele>7.0</ele><time>2026-04-12T17:01:20.999Z</time></trkpt><trkpt lat="38.93297920046867" lon="16.223923893760272"><ele>7.0</ele><time>2026-04-12T17:01:21.999Z</time></trkpt><trkpt lat="38.93308443555108" lon="16.223593426413483"><ele>7.0</ele><time>2026-04-12T17:01:22.999Z</time></trkpt><trkpt lat="38.933192465325426" lon="16.223265345801227"><ele>7.0</ele><time>2026-04-12T17:01:23.999Z</time></trkpt><trkpt lat="38.93330038597963" lon="16.22293853036464"><ele>7.0</ele><time>2026-04-12T17:01:24.999Z</time></trkpt><trkpt lat="38.93340951196922" lon="16.222612019730647"><ele>6.5</ele><time>2026-04-12T17:01:25.999Z</time></trkpt><trkpt lat="38.93351930245681" lon="16.222284061813948"><ele>6.0</ele><time>2026-04-12T17:01:26.999Z</time></trkpt><trkpt lat="38.93363022285091" lon="16.22195488733214"><ele>6.0</ele><time>2026-04-12T17:01:27.999Z</time></trkpt><trkpt lat="38.933743386789544" lon="16.221626907020866"><ele>6.0</ele><time>2026-04-12T17:01:28.999Z</time></trkpt><trkpt lat="38.93385434881344" lon="16.221300240549475"><ele>6.0</ele><time>2026-04-12T17:01:29.999Z</time></trkpt><trkpt lat="38.933967453135054" lon="16.22097379996448"><ele>6.0</ele><time>2026-04-12T17:01:30.999Z</time></trkpt><trkpt lat="38.934081179767986" lon="16.220647166128245"><ele>6.0</ele><time>2026-04-12T17:01:31.999Z</time></trkpt><trkpt lat="38.93419408733926" lon="16.220318180058076"><ele>6.0</ele><time>2026-04-12T17:01:32.999Z</time></trkpt><trkpt lat="38.934305173009754" lon="16.219990232175896"><ele>5.5</ele><time>2026-04-12T17:01:33.999Z</time></trkpt><trkpt lat="38.93441712087471" lon="16.21966214493748"><ele>5.0</ele><time>2026-04-12T17:01:34.999Z</time></trkpt><trkpt lat="38.934530399152166" lon="16.219336315213898"><ele>5.0</ele><time>2026-04-12T17:01:35.999Z</time></trkpt><trkpt lat="38.934642847067884" lon="16.219009440560363"><ele>5.0</ele><time>2026-04-12T17:01:36.999Z</time></trkpt><trkpt lat="38.93475516084379" lon="16.218682475785005"><ele>4.5</ele><time>2026-04-12T17:01:37.999Z</time></trkpt><trkpt lat="38.934870315054816" lon="16.218354349074783"><ele>4.0</ele><time>2026-04-12T17:01:38.999Z</time></trkpt><trkpt lat="38.934982521146324" lon="16.218027103261697"><ele>4.0</ele><time>2026-04-12T17:01:39.999Z</time></trkpt><trkpt lat="38.93509385096894" lon="16.217699608481"><ele>4.0</ele><time>2026-04-12T17:01:40.999Z</time></trkpt><trkpt lat="38.93520633535696" lon="16.21737137104046"><ele>4.5</ele><time>2026-04-12T17:01:41.999Z</time></trkpt><trkpt lat="38.93531813988074" lon="16.217044545081777"><ele>5.0</ele><time>2026-04-12T17:01:42.999Z</time></trkpt><trkpt lat="38.93542977456904" lon="16.21671619864957"><ele>4.5</ele><time>2026-04-12T17:01:43.999Z</time></trkpt><trkpt lat="38.93554035224453" lon="16.2163883656951"><ele>4.0</ele><time>2026-04-12T17:01:44.999Z</time></trkpt><trkpt lat="38.935650723220654" lon="16.216060207376277"><ele>4.0</ele><time>2026-04-12T17:01:45.999Z</time></trkpt><trkpt lat="38.93576347786812" lon="16.2157327466556"><ele>4.0</ele><time>2026-04-12T17:01:46.999Z</time></trkpt><trkpt lat="38.935875174125684" lon="16.21540683097569"><ele>4.0</ele><time>2026-04-12T17:01:47.999Z</time></trkpt><trkpt lat="38.935985797914455" lon="16.215079533674434"><ele>4.0</ele><time>2026-04-12T17:01:48.999Z</time></trkpt><trkpt lat="38.936096633527015" lon="16.21474992297083"><ele>3.0</ele><time>2026-04-12T17:01:49.999Z</time></trkpt><trkpt lat="38.93620545444746" lon="16.21441553308008"><ele>2.0</ele><time>2026-04-12T17:01:50.999Z</time></trkpt><trkpt lat="38.936316620204096" lon="16.214077220129603"><ele>1.5</ele><time>2026-04-12T17:01:51.999Z</time></trkpt><trkpt lat="38.93643074149907" lon="16.213736190255677"><ele>1.0</ele><time>2026-04-12T17:01:52.999Z</time></trkpt><trkpt lat="38.936546643416" lon="16.21339209920295"><ele>1.0</ele><time>2026-04-12T17:01:53.999Z</time></trkpt><trkpt lat="38.93666447541067" lon="16.213045163497224"><ele>1.0</ele><time>2026-04-12T17:01:54.999Z</time></trkpt><trkpt lat="38.93678082038502" lon="16.212693000345382"><ele>2.0</ele><time>2026-04-12T17:01:55.999Z</time></trkpt><trkpt lat="38.936894662413366" lon="16.212341132745923"><ele>3.0</ele><time>2026-04-12T17:01:56.999Z</time></trkpt><trkpt lat="38.93700951502774" lon="16.211985411087685"><ele>3.0</ele><time>2026-04-12T17:01:57.999Z</time></trkpt><trkpt lat="38.937125549671514" lon="16.211631401320076"><ele>3.0</ele><time>2026-04-12T17:01:58.999Z</time></trkpt><trkpt lat="38.937244883982295" lon="16.211281466490323"><ele>3.0</ele><time>2026-04-12T17:01:59.999Z</time></trkpt><trkpt lat="38.937369169365724" lon="16.210930736102124"><ele>3.0</ele><time>2026-04-12T17:02:00.999Z</time></trkpt><trkpt lat="38.937495661560874" lon="16.21058037966585"><ele>4.0</ele><time>2026-04-12T17:02:01.999Z</time></trkpt><trkpt lat="38.93762266670633" lon="16.210229879547803"><ele>5.0</ele><time>2026-04-12T17:02:02.999Z</time></trkpt><trkpt lat="38.93775055191929" lon="16.209876568016238"><ele>5.0</ele><time>2026-04-12T17:02:03.999Z</time></trkpt><trkpt lat="38.93787458468585" lon="16.209520956082756"><ele>5.0</ele><time>2026-04-12T17:02:04.999Z</time></trkpt><trkpt lat="38.93799638507204" lon="16.20916657603208"><ele>4.5</ele><time>2026-04-12T17:02:05.999Z</time></trkpt><trkpt lat="38.938116058129495" lon="16.208808494959754"><ele>4.0</ele><time>2026-04-12T17:02:06.999Z</time></trkpt><trkpt lat="38.938236725670215" lon="16.20845366101036"><ele>5.5</ele><time>2026-04-12T17:02:07.999Z</time></trkpt><trkpt lat="38.938360083755924" lon="16.208099877302583"><ele>7.0</ele><time>2026-04-12T17:02:08.999Z</time></trkpt><trkpt lat="38.938481006436575" lon="16.207746284899706"><ele>7.0</ele><time>2026-04-12T17:02:09.999Z</time></trkpt><trkpt lat="38.93859903667995" lon="16.207393418614224"><ele>7.0</ele><time>2026-04-12T17:02:10.999Z</time></trkpt><trkpt lat="38.938716490139996" lon="16.207044402855413"><ele>7.0</ele><time>2026-04-12T17:02:11.999Z</time></trkpt><trkpt lat="38.93883270386451" lon="16.2067001697405"><ele>7.0</ele><time>2026-04-12T17:02:12.999Z</time></trkpt><trkpt lat="38.93894751588917" lon="16.20636263978077"><ele>7.0</ele><time>2026-04-12T17:02:13.999Z</time></trkpt><trkpt lat="38.93905688173952" lon="16.20603923971646"><ele>7.0</ele><time>2026-04-12T17:02:14.999Z</time></trkpt><trkpt lat="38.93916873713387" lon="16.205715053933627"><ele>5.5</ele><time>2026-04-12T17:02:15.999Z</time></trkpt><trkpt lat="38.939279349595736" lon="16.205386494841733"><ele>4.0</ele><time>2026-04-12T17:02:16.999Z</time></trkpt><trkpt lat="38.93939215813584" lon="16.205054832317007"><ele>4.0</ele><time>2026-04-12T17:02:17.999Z</time></trkpt><trkpt lat="38.93950509472314" lon="16.204728754040087"><ele>4.0</ele><time>2026-04-12T17:02:18.999Z</time></trkpt><trkpt lat="38.93961748468129" lon="16.204401454050075"><ele>4.0</ele><time>2026-04-12T17:02:19.999Z</time></trkpt><trkpt lat="38.93973051929464" lon="16.204071986250202"><ele>4.0</ele><time>2026-04-12T17:02:20.999Z</time></trkpt><trkpt lat="38.93984532193967" lon="16.2037447120063"><ele>4.0</ele><time>2026-04-12T17:02:21.999Z</time></trkpt><trkpt lat="38.93995680288981" lon="16.20341702479477"><ele>4.0</ele><time>2026-04-12T17:02:22.999Z</time></trkpt><trkpt lat="38.94006941478431" lon="16.20308304428667"><ele>3.5</ele><time>2026-04-12T17:02:23.999Z</time></trkpt><trkpt lat="38.94018212390216" lon="16.202744168737137"><ele>3.0</ele><time>2026-04-12T17:02:24.999Z</time></trkpt><trkpt lat="38.940294362425384" lon="16.202400988083774"><ele>3.0</ele><time>2026-04-12T17:02:25.998Z</time></trkpt><trkpt lat="38.94040768114256" lon="16.20205373465686"><ele>3.0</ele><time>2026-04-12T17:02:26.998Z</time></trkpt><trkpt lat="38.94051938145288" lon="16.20170411278547"><ele>3.0</ele><time>2026-04-12T17:02:27.998Z</time></trkpt><trkpt lat="38.94063206954334" lon="16.20135152640763"><ele>3.0</ele><time>2026-04-12T17:02:28.998Z</time></trkpt><trkpt lat="38.94074460759825" lon="16.200994810882392"><ele>2.5</ele><time>2026-04-12T17:02:29.998Z</time></trkpt><trkpt lat="38.94085393668854" lon="16.20063524358726"><ele>2.0</ele><time>2026-04-12T17:02:30.998Z</time></trkpt><trkpt lat="38.94096158566909" lon="16.200275881291567"><ele>2.0</ele><time>2026-04-12T17:02:31.998Z</time></trkpt><trkpt lat="38.941069380604226" lon="16.199916509938"><ele>2.0</ele><time>2026-04-12T17:02:32.998Z</time></trkpt><trkpt lat="38.94117711790716" lon="16.199556436445622"><ele>2.0</ele><time>2026-04-12T17:02:33.998Z</time></trkpt><trkpt lat="38.94128302151838" lon="16.199194375989297"><ele>2.0</ele><time>2026-04-12T17:02:34.998Z</time></trkpt><trkpt lat="38.94138669465309" lon="16.198832937283072"><ele>2.5</ele><time>2026-04-12T17:02:35.998Z</time></trkpt><trkpt lat="38.94148736144646" lon="16.198472555445132"><ele>3.0</ele><time>2026-04-12T17:02:36.998Z</time></trkpt><trkpt lat="38.94158520957587" lon="16.198108623003044"><ele>3.0</ele><time>2026-04-12T17:02:37.998Z</time></trkpt><trkpt lat="38.941686190452955" lon="16.197746450561905"><ele>3.0</ele><time>2026-04-12T17:02:38.998Z</time></trkpt><trkpt lat="38.94178810119437" lon="16.1973857369001"><ele>2.0</ele><time>2026-04-12T17:02:39.998Z</time></trkpt><trkpt lat="38.941892846274875" lon="16.197025030138068"><ele>1.0</ele><time>2026-04-12T17:02:40.998Z</time></trkpt><trkpt lat="38.94199637370306" lon="16.196665843066288"><ele>1.5</ele><time>2026-04-12T17:02:41.998Z</time></trkpt><trkpt lat="38.94210022812637" lon="16.196306907500652"><ele>2.0</ele><time>2026-04-12T17:02:42.998Z</time></trkpt><trkpt lat="38.9422037842081" lon="16.195946418048493"><ele>2.0</ele><time>2026-04-12T17:02:43.998Z</time></trkpt><trkpt lat="38.942306082331854" lon="16.19558635171556"><ele>2.0</ele><time>2026-04-12T17:02:44.998Z</time></trkpt><trkpt lat="38.942410971547794" lon="16.195225577000514"><ele>2.0</ele><time>2026-04-12T17:02:45.998Z</time></trkpt><trkpt lat="38.942521835226984" lon="16.194867990162717"><ele>2.0</ele><time>2026-04-12T17:02:47Z</time></trkpt><trkpt lat="38.942638495597144" lon="16.194517404638717"><ele>2.0</ele><time>2026-04-12T17:02:48Z</time></trkpt><trkpt lat="38.942758999556105" lon="16.194171913145016"><ele>2.0</ele><time>2026-04-12T17:02:49Z</time></trkpt><trkpt lat="38.94288849743287" lon="16.193826129267528"><ele>1.5</ele><time>2026-04-12T17:02:50Z</time></trkpt><trkpt lat="38.94302305002931" lon="16.193488164855797"><ele>1.0</ele><time>2026-04-12T17:02:51Z</time></trkpt><trkpt lat="38.94316364838192" lon="16.19315566969874"><ele>1.0</ele><time>2026-04-12T17:02:52Z</time></trkpt><trkpt lat="38.94330673105116" lon="16.192825855206355"><ele>1.0</ele><time>2026-04-12T17:02:53Z</time></trkpt><trkpt lat="38.94345459291252" lon="16.192498270993944"><ele>1.5</ele><time>2026-04-12T17:02:54Z</time></trkpt><trkpt lat="38.94360294136092" lon="16.192172826174314"><ele>2.0</ele><time>2026-04-12T17:02:55Z</time></trkpt><trkpt lat="38.94375168713197" lon="16.19184533750913"><ele>2.0</ele><time>2026-04-12T17:02:56Z</time></trkpt><trkpt lat="38.94390910703503" lon="16.19151491351005"><ele>2.0</ele><time>2026-04-12T17:02:57Z</time></trkpt><trkpt lat="38.944073247834055" lon="16.19120465607027"><ele>2.0</ele><time>2026-04-12T17:02:58Z</time></trkpt><trkpt lat="38.94424297915432" lon="16.190888162135437"><ele>2.0</ele><time>2026-04-12T17:02:59Z</time></trkpt><trkpt lat="38.94441435915056" lon="16.190571923300283"><ele>2.0</ele><time>2026-04-12T17:03:00Z</time></trkpt><trkpt lat="38.9445893479432" lon="16.19025758496841"><ele>2.0</ele><time>2026-04-12T17:03:01Z</time></trkpt><trkpt lat="38.94477270650891" lon="16.189945105293145"><ele>1.5</ele><time>2026-04-12T17:03:02Z</time></trkpt><trkpt lat="38.94496239589483" lon="16.189635373675884"><ele>1.0</ele><time>2026-04-12T17:03:03Z</time></trkpt><trkpt lat="38.9451574828491" lon="16.189332469626024"><ele>0.5</ele><time>2026-04-12T17:03:04Z</time></trkpt><trkpt lat="38.945355248576554" lon="16.189033475590115"><ele>0.0</ele><time>2026-04-12T17:03:05Z</time></trkpt><trkpt lat="38.94555224015252" lon="16.188733938905965"><ele>0.5</ele><time>2026-04-12T17:03:06Z</time></trkpt><trkpt lat="38.945748627000526" lon="16.1884316802051"><ele>1.0</ele><time>2026-04-12T17:03:07Z</time></trkpt><trkpt lat="38.94594231245841" lon="16.188126785685487"><ele>1.0</ele><time>2026-04-12T17:03:08Z</time></trkpt><trkpt lat="38.94613311863907" lon="16.18782173847621"><ele>1.0</ele><time>2026-04-12T17:03:09Z</time></trkpt><trkpt lat="38.946323706037816" lon="16.187519558431084"><ele>1.5</ele><time>2026-04-12T17:03:10Z</time></trkpt><trkpt lat="38.946523453633475" lon="16.187212202013207"><ele>2.0</ele><time>2026-04-12T17:03:11Z</time></trkpt><trkpt lat="38.946721237682276" lon="16.18691738661446"><ele>2.0</ele><time>2026-04-12T17:03:12Z</time></trkpt><trkpt lat="38.94691911071698" lon="16.1866210489579"><ele>2.0</ele><time>2026-04-12T17:03:13Z</time></trkpt><trkpt lat="38.94711996008515" lon="16.18632465797245"><ele>2.0</ele><time>2026-04-12T17:03:14Z</time></trkpt><trkpt lat="38.947313861672924" lon="16.186028506624083"><ele>2.0</ele><time>2026-04-12T17:03:15Z</time></trkpt><trkpt lat="38.947506404631994" lon="16.18572556183906"><ele>1.5</ele><time>2026-04-12T17:03:16Z</time></trkpt><trkpt lat="38.94769366726566" lon="16.185421341566595"><ele>1.0</ele><time>2026-04-12T17:03:17Z</time></trkpt><trkpt lat="38.94765996113413" lon="16.185028448041248"><ele>1.5</ele><time>2026-04-12T17:03:18Z</time></trkpt><trkpt lat="38.948065993702215" lon="16.184800890538437"><ele>2.0</ele><time>2026-04-12T17:03:19Z</time></trkpt><trkpt lat="38.94823797945549" lon="16.184484074908774"><ele>1.5</ele><time>2026-04-12T17:03:20Z</time></trkpt><trkpt lat="38.94840309935459" lon="16.1841550922914"><ele>1.0</ele><time>2026-04-12T17:03:21Z</time></trkpt><trkpt lat="38.948563973548694" lon="16.183821365725226"><ele>2.0</ele><time>2026-04-12T17:03:22Z</time></trkpt><trkpt lat="38.94872094623415" lon="16.183487878838424"><ele>3.0</ele><time>2026-04-12T17:03:23Z</time></trkpt><trkpt lat="38.94887356033418" lon="16.18315054772483"><ele>3.0</ele><time>2026-04-12T17:03:24Z</time></trkpt><trkpt lat="38.949022212901106" lon="16.18281156864402"><ele>3.0</ele><time>2026-04-12T17:03:25Z</time></trkpt><trkpt lat="38.94916175440401" lon="16.18247030573619"><ele>5.5</ele><time>2026-04-12T17:03:26Z</time></trkpt><trkpt lat="38.94928724165306" lon="16.182131755740166"><ele>8.0</ele><time>2026-04-12T17:03:27Z</time></trkpt><trkpt lat="38.949402988057294" lon="16.1817915878767"><ele>9.0</ele><time>2026-04-12T17:03:28Z</time></trkpt><trkpt lat="38.94951061965634" lon="16.181456362352375"><ele>10.0</ele><time>2026-04-12T17:03:29Z</time></trkpt><trkpt lat="38.94961472943987" lon="16.181124421342233"><ele>10.0</ele><time>2026-04-12T17:03:30Z</time></trkpt><trkpt lat="38.9497111520262" lon="16.18078784962494"><ele>10.0</ele><time>2026-04-12T17:03:31Z</time></trkpt><trkpt lat="38.949802718621335" lon="16.18044832844754"><ele>10.0</ele><time>2026-04-12T17:03:32Z</time></trkpt><trkpt lat="38.94989095508193" lon="16.1801035496249"><ele>10.0</ele><time>2026-04-12T17:03:33Z</time></trkpt><trkpt lat="38.94997464083217" lon="16.17975640723806"><ele>17.5</ele><time>2026-04-12T17:03:34Z</time></trkpt><trkpt lat="38.950051395493546" lon="16.1794058368478"><ele>25.0</ele><time>2026-04-12T17:03:35Z</time></trkpt><trkpt lat="38.95012042256691" lon="16.17905064630991"><ele>23.5</ele><time>2026-04-12T17:03:36Z</time></trkpt><trkpt lat="38.95018354640339" lon="16.17868969281441"><ele>22.0</ele><time>2026-04-12T17:03:37Z</time></trkpt><trkpt lat="38.950242006687695" lon="16.17832828327106"><ele>22.0</ele><time>2026-04-12T17:03:38Z</time></trkpt><trkpt lat="38.95029442702801" lon="16.177958558451067"><ele>22.0</ele><time>2026-04-12T17:03:39Z</time></trkpt><trkpt lat="38.9503420591611" lon="16.177590687366227"><ele>22.0</ele><time>2026-04-12T17:03:40Z</time></trkpt><trkpt lat="38.95038680226697" lon="16.177217023137867"><ele>22.0</ele><time>2026-04-12T17:03:40.999Z</time></trkpt><trkpt lat="38.95042488403425" lon="16.17684083745122"><ele>20.5</ele><time>2026-04-12T17:03:41.999Z</time></trkpt><trkpt lat="38.950457426984244" lon="16.176458828889103"><ele>19.0</ele><time>2026-04-12T17:03:42.999Z</time></trkpt><trkpt lat="38.95048821547725" lon="16.17607232307946"><ele>18.5</ele><time>2026-04-12T17:03:43.999Z</time></trkpt><trkpt lat="38.950513337492154" lon="16.17568378177953"><ele>18.0</ele><time>2026-04-12T17:03:44.999Z</time></trkpt><trkpt lat="38.9505355214907" lon="16.175292572894342"><ele>18.0</ele><time>2026-04-12T17:03:45.999Z</time></trkpt><trkpt lat="38.95055443439341" lon="16.174899913735867"><ele>18.0</ele><time>2026-04-12T17:03:46.999Z</time></trkpt><trkpt lat="38.950574475974356" lon="16.174510881767347"><ele>16.5</ele><time>2026-04-12T17:03:47.999Z</time></trkpt><trkpt lat="38.95059341983829" lon="16.17412239173433"><ele>15.0</ele><time>2026-04-12T17:03:48.999Z</time></trkpt><trkpt lat="38.95061215587106" lon="16.173734904981643"><ele>15.0</ele><time>2026-04-12T17:03:49.999Z</time></trkpt><trkpt lat="38.95063134401908" lon="16.17334672120068"><ele>15.0</ele><time>2026-04-12T17:03:50.999Z</time></trkpt><trkpt lat="38.95064921500754" lon="16.17295638769296"><ele>14.0</ele><time>2026-04-12T17:03:51.999Z</time></trkpt><trkpt lat="38.950668595093504" lon="16.172563252321098"><ele>13.0</ele><time>2026-04-12T17:03:52.999Z</time></trkpt><trkpt lat="38.95069163107867" lon="16.172171131951302"><ele>11.5</ele><time>2026-04-12T17:03:53.999Z</time></trkpt><trkpt lat="38.95071258548508" lon="16.171781693874312"><ele>10.0</ele><time>2026-04-12T17:03:54.999Z</time></trkpt><trkpt lat="38.9507336091111" lon="16.17139034739016"><ele>9.0</ele><time>2026-04-12T17:03:55.999Z</time></trkpt><trkpt lat="38.95075297539879" lon="16.170997742091735"><ele>8.0</ele><time>2026-04-12T17:03:56.999Z</time></trkpt><trkpt lat="38.95077137272273" lon="16.170608165065143"><ele>8.0</ele><time>2026-04-12T17:03:57.999Z</time></trkpt><trkpt lat="38.95079040153035" lon="16.17021446391692"><ele>8.0</ele><time>2026-04-12T17:03:58.999Z</time></trkpt><trkpt lat="38.95081047857491" lon="16.169822652264884"><ele>7.5</ele><time>2026-04-12T17:03:59.999Z</time></trkpt><trkpt lat="38.95083182551263" lon="16.1694312520822"><ele>7.0</ele><time>2026-04-12T17:04:00.999Z</time></trkpt><trkpt lat="38.95085037572951" lon="16.16904000964385"><ele>6.5</ele><time>2026-04-12T17:04:01.999Z</time></trkpt><trkpt lat="38.95086725533102" lon="16.168648174537918"><ele>6.0</ele><time>2026-04-12T17:04:02.999Z</time></trkpt><trkpt lat="38.95088469595436" lon="16.168252278400605"><ele>10.5</ele><time>2026-04-12T17:04:03.999Z</time></trkpt><trkpt lat="38.950903611123266" lon="16.16786454493308"><ele>15.0</ele><time>2026-04-12T17:04:04.999Z</time></trkpt><trkpt lat="38.95092455692198" lon="16.167472789124815"><ele>16.5</ele><time>2026-04-12T17:04:05.999Z</time></trkpt><trkpt lat="38.95094492826407" lon="16.167083114032582"><ele>18.0</ele><time>2026-04-12T17:04:06.999Z</time></trkpt><trkpt lat="38.95096434357345" lon="16.16669266037603"><ele>23.0</ele><time>2026-04-12T17:04:07.999Z</time></trkpt><trkpt lat="38.95098318307792" lon="16.16630416505714"><ele>28.0</ele><time>2026-04-12T17:04:08.999Z</time></trkpt><trkpt lat="38.9510090481278" lon="16.16592727680675"><ele>31.5</ele><time>2026-04-12T17:04:09.999Z</time></trkpt><trkpt lat="38.951021200091525" lon="16.165525036791884"><ele>35.0</ele><time>2026-04-12T17:04:10.999Z</time></trkpt><trkpt lat="38.95104513860171" lon="16.165129896548812"><ele>36.0</ele><time>2026-04-12T17:04:11.999Z</time></trkpt><trkpt lat="38.95106558704619" lon="16.16474306944647"><ele>37.0</ele><time>2026-04-12T17:04:12.999Z</time></trkpt><trkpt lat="38.951087846522825" lon="16.164351855930796"><ele>36.0</ele><time>2026-04-12T17:04:13.999Z</time></trkpt><trkpt lat="38.951119683592125" lon="16.16396436849848"><ele>35.0</ele><time>2026-04-12T17:04:14.999Z</time></trkpt><trkpt lat="38.95116768056539" lon="16.163575115631563"><ele>36.0</ele><time>2026-04-12T17:04:15.999Z</time></trkpt><trkpt lat="38.95121839927777" lon="16.16319098790667"><ele>37.0</ele><time>2026-04-12T17:04:16.999Z</time></trkpt><trkpt lat="38.951275328922314" lon="16.16281186335142"><ele>37.0</ele><time>2026-04-12T17:04:17.999Z</time></trkpt><trkpt lat="38.95134720816725" lon="16.162429549758933"><ele>37.0</ele><time>2026-04-12T17:04:18.999Z</time></trkpt><trkpt lat="38.95143239535792" lon="16.16205326984083"><ele>37.0</ele><time>2026-04-12T17:04:19.999Z</time></trkpt><trkpt lat="38.95153379814621" lon="16.1616830598318"><ele>37.0</ele><time>2026-04-12T17:04:20.999Z</time></trkpt><trkpt lat="38.95165230834425" lon="16.16132069973899"><ele>37.5</ele><time>2026-04-12T17:04:21.999Z</time></trkpt><trkpt lat="38.95178478059841" lon="16.16096636287496"><ele>38.0</ele><time>2026-04-12T17:04:22.999Z</time></trkpt><trkpt lat="38.95193199563886" lon="16.16061800163158"><ele>38.0</ele><time>2026-04-12T17:04:23.999Z</time></trkpt><trkpt lat="38.952090815777396" lon="16.16028311536983"><ele>38.0</ele><time>2026-04-12T17:04:24.999Z</time></trkpt><trkpt lat="38.95226394635226" lon="16.15995398265366"><ele>38.0</ele><time>2026-04-12T17:04:25.999Z</time></trkpt><trkpt lat="38.95245711181151" lon="16.159633211476233"><ele>38.0</ele><time>2026-04-12T17:04:26.999Z</time></trkpt><trkpt lat="38.95264638533734" lon="16.159329828052627"><ele>38.0</ele><time>2026-04-12T17:04:27.999Z</time></trkpt><trkpt lat="38.95285022623948" lon="16.159037894681056"><ele>38.0</ele><time>2026-04-12T17:04:28.999Z</time></trkpt><trkpt lat="38.95306865370182" lon="16.15876107712613"><ele>35.5</ele><time>2026-04-12T17:04:29.999Z</time></trkpt><trkpt lat="38.953295573214305" lon="16.15849663275693"><ele>33.0</ele><time>2026-04-12T17:04:30.999Z</time></trkpt><trkpt lat="38.95353396896389" lon="16.158245994842797"><ele>29.0</ele><time>2026-04-12T17:04:31.999Z</time></trkpt><trkpt lat="38.95377856548645" lon="16.158008778357758"><ele>25.0</ele><time>2026-04-12T17:04:32.999Z</time></trkpt><trkpt lat="38.95403304590273" lon="16.15779105499739"><ele>27.0</ele><time>2026-04-12T17:04:33.999Z</time></trkpt><trkpt lat="38.954294111563044" lon="16.157584745732734"><ele>29.0</ele><time>2026-04-12T17:04:34.999Z</time></trkpt><trkpt lat="38.95455874260482" lon="16.157391106534725"><ele>28.5</ele><time>2026-04-12T17:04:35.999Z</time></trkpt><trkpt lat="38.95482376933122" lon="16.157201212602406"><ele>28.0</ele><time>2026-04-12T17:04:36.999Z</time></trkpt><trkpt lat="38.955099591750745" lon="16.157024237342636"><ele>28.0</ele><time>2026-04-12T17:04:37.999Z</time></trkpt><trkpt lat="38.95537786110327" lon="16.156860614545092"><ele>28.0</ele><time>2026-04-12T17:04:38.999Z</time></trkpt><trkpt lat="38.95566346455634" lon="16.156716542702387"><ele>26.5</ele><time>2026-04-12T17:04:39.999Z</time></trkpt><trkpt lat="38.955950908707365" lon="16.1565801157172"><ele>25.0</ele><time>2026-04-12T17:04:40.999Z</time></trkpt><trkpt lat="38.95624041337562" lon="16.156449167164407"><ele>21.0</ele><time>2026-04-12T17:04:41.999Z</time></trkpt><trkpt lat="38.95653422175406" lon="16.1563273944928"><ele>17.0</ele><time>2026-04-12T17:04:42.999Z</time></trkpt><trkpt lat="38.95682834392375" lon="16.15621365640513"><ele>15.5</ele><time>2026-04-12T17:04:43.999Z</time></trkpt><trkpt lat="38.95711947397532" lon="16.156109496689556"><ele>14.0</ele><time>2026-04-12T17:04:44.999Z</time></trkpt><trkpt lat="38.957411720073814" lon="16.156017224790407"><ele>14.5</ele><time>2026-04-12T17:04:45.999Z</time></trkpt><trkpt lat="38.957701921512026" lon="16.15593258887336"><ele>15.0</ele><time>2026-04-12T17:04:46.999Z</time></trkpt><trkpt lat="38.957988604100066" lon="16.15585672002651"><ele>15.0</ele><time>2026-04-12T17:04:47.998Z</time></trkpt><trkpt lat="38.95827707315155" lon="16.155789003224605"><ele>15.0</ele><time>2026-04-12T17:04:48.998Z</time></trkpt><trkpt lat="38.95856146081055" lon="16.155735845179365"><ele>11.0</ele><time>2026-04-12T17:04:49.998Z</time></trkpt><trkpt lat="38.95884901882875" lon="16.15569422679456"><ele>7.0</ele><time>2026-04-12T17:04:50.998Z</time></trkpt><trkpt lat="38.95913412684069" lon="16.155660504534115"><ele>8.0</ele><time>2026-04-12T17:04:51.998Z</time></trkpt><trkpt lat="38.95941622604282" lon="16.155632326721527"><ele>9.0</ele><time>2026-04-12T17:04:53.001Z</time></trkpt><trkpt lat="38.959696626761335" lon="16.155613797406698"><ele>9.0</ele><time>2026-04-12T17:04:54.001Z</time></trkpt><trkpt lat="38.95997696109929" lon="16.15560041168151"><ele>9.0</ele><time>2026-04-12T17:04:55.001Z</time></trkpt><trkpt lat="38.96025378763878" lon="16.155588632081997"><ele>9.5</ele><time>2026-04-12T17:04:56Z</time></trkpt><trkpt lat="38.96052850193445" lon="16.155580496209236"><ele>10.0</ele><time>2026-04-12T17:04:57.001Z</time></trkpt><trkpt lat="38.96080349656353" lon="16.15557188372177"><ele>10.5</ele><time>2026-04-12T17:04:58Z</time></trkpt><trkpt lat="38.96107315002635" lon="16.155565402660446"><ele>11.0</ele><time>2026-04-12T17:04:59Z</time></trkpt><trkpt lat="38.96134391740754" lon="16.15555251711681"><ele>11.0</ele><time>2026-04-12T17:05:00Z</time></trkpt><trkpt lat="38.96161678991215" lon="16.155548313207774"><ele>11.0</ele><time>2026-04-12T17:05:01Z</time></trkpt><trkpt lat="38.961893698884104" lon="16.15554937765626"><ele>12.5</ele><time>2026-04-12T17:05:02Z</time></trkpt><trkpt lat="38.96216700064861" lon="16.155549431967337"><ele>14.0</ele><time>2026-04-12T17:05:03Z</time></trkpt><trkpt lat="38.962441587104394" lon="16.155546841530878"><ele>15.5</ele><time>2026-04-12T17:05:04Z</time></trkpt><trkpt lat="38.96271199997889" lon="16.155543518244873"><ele>17.0</ele><time>2026-04-12T17:05:05Z</time></trkpt><trkpt lat="38.962982341258524" lon="16.155537916283052"><ele>17.0</ele><time>2026-04-12T17:05:06Z</time></trkpt><trkpt lat="38.96325207598762" lon="16.15552827662349"><ele>17.0</ele><time>2026-04-12T17:05:07Z</time></trkpt><trkpt lat="38.96351939289607" lon="16.155511905762918"><ele>16.0</ele><time>2026-04-12T17:05:08Z</time></trkpt><trkpt lat="38.96379619697865" lon="16.15548655588942"><ele>15.0</ele><time>2026-04-12T17:05:09Z</time></trkpt><trkpt lat="38.964047240784566" lon="16.15546013136076"><ele>15.0</ele><time>2026-04-12T17:05:10Z</time></trkpt><trkpt lat="38.96430580351638" lon="16.155434419411176"><ele>15.0</ele><time>2026-04-12T17:05:11Z</time></trkpt><trkpt lat="38.96456579157344" lon="16.155410327597547"><ele>15.0</ele><time>2026-04-12T17:05:12Z</time></trkpt><trkpt lat="38.96482636505497" lon="16.155382997753208"><ele>15.0</ele><time>2026-04-12T17:05:13Z</time></trkpt><trkpt lat="38.965090941128736" lon="16.155348516093127"><ele>15.5</ele><time>2026-04-12T17:05:14Z</time></trkpt><trkpt lat="38.965355537294265" lon="16.155307951460404"><ele>16.0</ele><time>2026-04-12T17:05:15Z</time></trkpt><trkpt lat="38.96562137884876" lon="16.155259605523163"><ele>17.0</ele><time>2026-04-12T17:05:16Z</time></trkpt><trkpt lat="38.96588746032994" lon="16.155206195533747"><ele>18.0</ele><time>2026-04-12T17:05:17Z</time></trkpt><trkpt lat="38.96615497406005" lon="16.155147970255975"><ele>18.0</ele><time>2026-04-12T17:05:18Z</time></trkpt><trkpt lat="38.96642448083481" lon="16.155080904435966"><ele>18.0</ele><time>2026-04-12T17:05:19Z</time></trkpt><trkpt lat="38.966691013338554" lon="16.155002376906253"><ele>17.5</ele><time>2026-04-12T17:05:20Z</time></trkpt><trkpt lat="38.96696011003778" lon="16.15491435277851"><ele>17.0</ele><time>2026-04-12T17:05:21Z</time></trkpt><trkpt lat="38.96722935912229" lon="16.15482330928033"><ele>14.5</ele><time>2026-04-12T17:05:22Z</time></trkpt><trkpt lat="38.967497913689655" lon="16.15472974769395"><ele>12.0</ele><time>2026-04-12T17:05:23Z</time></trkpt><trkpt lat="38.967767822890565" lon="16.15463129308695"><ele>12.0</ele><time>2026-04-12T17:05:24Z</time></trkpt><trkpt lat="38.96803960426851" lon="16.154531657430137"><ele>12.0</ele><time>2026-04-12T17:05:25Z</time></trkpt><trkpt lat="38.96831798141749" lon="16.154427859917732"><ele>13.5</ele><time>2026-04-12T17:05:26Z</time></trkpt><trkpt lat="38.96860213832589" lon="16.154315505225583"><ele>15.0</ele><time>2026-04-12T17:05:27Z</time></trkpt><trkpt lat="38.968890895356054" lon="16.15419764755997"><ele>15.0</ele><time>2026-04-12T17:05:28Z</time></trkpt><trkpt lat="38.969181452961934" lon="16.154074111674348"><ele>15.0</ele><time>2026-04-12T17:05:29Z</time></trkpt><trkpt lat="38.96947209206655" lon="16.153948108706164"><ele>15.0</ele><time>2026-04-12T17:05:30Z</time></trkpt><trkpt lat="38.96976161864047" lon="16.15382085448696"><ele>15.0</ele><time>2026-04-12T17:05:31Z</time></trkpt><trkpt lat="38.97005160661513" lon="16.15369333556745"><ele>15.5</ele><time>2026-04-12T17:05:32Z</time></trkpt><trkpt lat="38.970344320004166" lon="16.15357177880849"><ele>16.0</ele><time>2026-04-12T17:05:33Z</time></trkpt><trkpt lat="38.970635713361844" lon="16.153457630480084"><ele>15.5</ele><time>2026-04-12T17:05:34Z</time></trkpt><trkpt lat="38.97092514806459" lon="16.153339343886536"><ele>15.0</ele><time>2026-04-12T17:05:35Z</time></trkpt><trkpt lat="38.971211125889624" lon="16.15321724161332"><ele>15.5</ele><time>2026-04-12T17:05:36Z</time></trkpt><trkpt lat="38.97149856953661" lon="16.153094435642053"><ele>16.0</ele><time>2026-04-12T17:05:37Z</time></trkpt><trkpt lat="38.971780082111486" lon="16.152965680024515"><ele>16.0</ele><time>2026-04-12T17:05:38Z</time></trkpt><trkpt lat="38.97205460828193" lon="16.15283800515476"><ele>16.0</ele><time>2026-04-12T17:05:39Z</time></trkpt><trkpt lat="38.972314118152504" lon="16.152701301903395"><ele>17.5</ele><time>2026-04-12T17:05:40Z</time></trkpt><trkpt lat="38.97256432186179" lon="16.152549944332915"><ele>19.0</ele><time>2026-04-12T17:05:41Z</time></trkpt><trkpt lat="38.972814817358234" lon="16.152389246433128"><ele>16.5</ele><time>2026-04-12T17:05:42Z</time></trkpt><trkpt lat="38.97305178509602" lon="16.152219570328192"><ele>14.0</ele><time>2026-04-12T17:05:43Z</time></trkpt><trkpt lat="38.97328490415778" lon="16.152030065591834"><ele>14.5</ele><time>2026-04-12T17:05:44Z</time></trkpt><trkpt lat="38.973509843398006" lon="16.151821340894525"><ele>15.0</ele><time>2026-04-12T17:05:45Z</time></trkpt><trkpt lat="38.97373665508517" lon="16.151609356514083"><ele>14.0</ele><time>2026-04-12T17:05:46Z</time></trkpt><trkpt lat="38.97395215853941" lon="16.151377106651815"><ele>13.0</ele><time>2026-04-12T17:05:47Z</time></trkpt><trkpt lat="38.974158094246725" lon="16.151130535625796"><ele>15.5</ele><time>2026-04-12T17:05:48Z</time></trkpt><trkpt lat="38.97436085780629" lon="16.150875642797356"><ele>18.0</ele><time>2026-04-12T17:05:49Z</time></trkpt><trkpt lat="38.974553023107944" lon="16.150609369488"><ele>18.0</ele><time>2026-04-12T17:05:49.999Z</time></trkpt><trkpt lat="38.9747374095928" lon="16.15033358394501"><ele>18.0</ele><time>2026-04-12T17:05:50.999Z</time></trkpt><trkpt lat="38.974917790079644" lon="16.150049079756513"><ele>25.0</ele><time>2026-04-12T17:05:51.999Z</time></trkpt><trkpt lat="38.975090207809885" lon="16.14975622433701"><ele>32.0</ele><time>2026-04-12T17:05:52.999Z</time></trkpt><trkpt lat="38.975252092223414" lon="16.14945342021838"><ele>32.0</ele><time>2026-04-12T17:05:53.999Z</time></trkpt><trkpt lat="38.97540561277788" lon="16.149147333827518"><ele>32.0</ele><time>2026-04-12T17:05:54.999Z</time></trkpt><trkpt lat="38.975559011449334" lon="16.148834636828113"><ele>32.0</ele><time>2026-04-12T17:05:55.999Z</time></trkpt><trkpt lat="38.975704406153945" lon="16.14852610372878"><ele>32.0</ele><time>2026-04-12T17:05:56.999Z</time></trkpt><trkpt lat="38.975858932196445" lon="16.14822812341545"><ele>32.0</ele><time>2026-04-12T17:05:57.999Z</time></trkpt><trkpt lat="38.97601741001593" lon="16.147937085717217"><ele>32.0</ele><time>2026-04-12T17:05:58.999Z</time></trkpt><trkpt lat="38.97619340846808" lon="16.14765483010143"><ele>28.5</ele><time>2026-04-12T17:05:59.999Z</time></trkpt><trkpt lat="38.97637351274834" lon="16.147374059579803"><ele>25.0</ele><time>2026-04-12T17:06:00.999Z</time></trkpt><trkpt lat="38.976562538650455" lon="16.14710191182124"><ele>29.5</ele><time>2026-04-12T17:06:01.999Z</time></trkpt><trkpt lat="38.976759951118225" lon="16.146846363751198"><ele>34.0</ele><time>2026-04-12T17:06:02.999Z</time></trkpt><trkpt lat="38.97697808250495" lon="16.14659092947406"><ele>31.5</ele><time>2026-04-12T17:06:03.999Z</time></trkpt><trkpt lat="38.97720965411736" lon="16.146357365237908"><ele>29.0</ele><time>2026-04-12T17:06:04.999Z</time></trkpt><trkpt lat="38.97745176618088" lon="16.146123795040864"><ele>28.5</ele><time>2026-04-12T17:06:05.999Z</time></trkpt><trkpt lat="38.977703425907805" lon="16.145903025262893"><ele>28.0</ele><time>2026-04-12T17:06:06.999Z</time></trkpt><trkpt lat="38.97797086383656" lon="16.14569797485415"><ele>28.0</ele><time>2026-04-12T17:06:07.999Z</time></trkpt><trkpt lat="38.978240765712464" lon="16.145511869664603"><ele>28.0</ele><time>2026-04-12T17:06:08.999Z</time></trkpt><trkpt lat="38.978517872970606" lon="16.14534458164149"><ele>28.5</ele><time>2026-04-12T17:06:09.999Z</time></trkpt><trkpt lat="38.978802517548374" lon="16.145195175003206"><ele>29.0</ele><time>2026-04-12T17:06:10.999Z</time></trkpt><trkpt lat="38.9790911430572" lon="16.145066263025864"><ele>28.5</ele><time>2026-04-12T17:06:11.999Z</time></trkpt><trkpt lat="38.979387332789315" lon="16.14495384158607"><ele>28.0</ele><time>2026-04-12T17:06:12.999Z</time></trkpt><trkpt lat="38.97968314792946" lon="16.144863570907745"><ele>24.0</ele><time>2026-04-12T17:06:13.999Z</time></trkpt><trkpt lat="38.97998669493147" lon="16.144785209753437"><ele>20.0</ele><time>2026-04-12T17:06:14.999Z</time></trkpt><trkpt lat="38.980289644592396" lon="16.144725329675573"><ele>20.0</ele><time>2026-04-12T17:06:15.999Z</time></trkpt><trkpt lat="38.98059608669295" lon="16.14468177479095"><ele>20.0</ele><time>2026-04-12T17:06:16.999Z</time></trkpt><trkpt lat="38.980897496376784" lon="16.144647349397207"><ele>20.5</ele><time>2026-04-12T17:06:17.999Z</time></trkpt><trkpt lat="38.98120224755658" lon="16.144615133458945"><ele>21.0</ele><time>2026-04-12T17:06:18.999Z</time></trkpt><trkpt lat="38.981510636884046" lon="16.144587621011507"><ele>23.5</ele><time>2026-04-12T17:06:19.999Z</time></trkpt><trkpt lat="38.981815747142775" lon="16.14456619244048"><ele>26.0</ele><time>2026-04-12T17:06:20.999Z</time></trkpt><trkpt lat="38.98211517129811" lon="16.144530579086773"><ele>26.0</ele><time>2026-04-12T17:06:21.999Z</time></trkpt><trkpt lat="38.98241451340134" lon="16.14448121309431"><ele>26.0</ele><time>2026-04-12T17:06:22.999Z</time></trkpt><trkpt lat="38.98271660240152" lon="16.144410493605047"><ele>27.5</ele><time>2026-04-12T17:06:23.999Z</time></trkpt><trkpt lat="38.98301378272193" lon="16.14432475420284"><ele>29.0</ele><time>2026-04-12T17:06:24.999Z</time></trkpt><trkpt lat="38.98330386390075" lon="16.144230181063822"><ele>29.0</ele><time>2026-04-12T17:06:25.999Z</time></trkpt><trkpt lat="38.983583209397025" lon="16.144131568944957"><ele>29.0</ele><time>2026-04-12T17:06:26.999Z</time></trkpt><trkpt lat="38.983861074562604" lon="16.14401828346729"><ele>29.0</ele><time>2026-04-12T17:06:27.999Z</time></trkpt><trkpt lat="38.98413171635991" lon="16.14388989521213"><ele>29.0</ele><time>2026-04-12T17:06:28.999Z</time></trkpt><trkpt lat="38.984395741843976" lon="16.14374816617216"><ele>30.0</ele><time>2026-04-12T17:06:29.999Z</time></trkpt><trkpt lat="38.98465877935511" lon="16.143599519225784"><ele>31.0</ele><time>2026-04-12T17:06:30.999Z</time></trkpt><trkpt lat="38.98491399850364" lon="16.14343652613597"><ele>30.5</ele><time>2026-04-12T17:06:31.999Z</time></trkpt><trkpt lat="38.9851653400956" lon="16.143263788587724"><ele>30.0</ele><time>2026-04-12T17:06:32.999Z</time></trkpt><trkpt lat="38.98541333914431" lon="16.143076472134766"><ele>30.0</ele><time>2026-04-12T17:06:33.999Z</time></trkpt><trkpt lat="38.985653078186424" lon="16.14287591674228"><ele>30.0</ele><time>2026-04-12T17:06:34.999Z</time></trkpt><trkpt lat="38.985883270734675" lon="16.142669836217728"><ele>30.5</ele><time>2026-04-12T17:06:35.999Z</time></trkpt><trkpt lat="38.9861104161887" lon="16.14246390816756"><ele>31.0</ele><time>2026-04-12T17:06:36.999Z</time></trkpt><trkpt lat="38.98633547469058" lon="16.142246150888333"><ele>31.0</ele><time>2026-04-12T17:06:37.999Z</time></trkpt><trkpt lat="38.98656112598723" lon="16.14201502162316"><ele>31.0</ele><time>2026-04-12T17:06:38.999Z</time></trkpt><trkpt lat="38.986784375267185" lon="16.141777781894195"><ele>34.0</ele><time>2026-04-12T17:06:39.999Z</time></trkpt><trkpt lat="38.98699837353928" lon="16.141544528460866"><ele>37.0</ele><time>2026-04-12T17:06:40.999Z</time></trkpt><trkpt lat="38.987220637005194" lon="16.141313443979524"><ele>37.0</ele><time>2026-04-12T17:06:41.999Z</time></trkpt><trkpt lat="38.987447754107656" lon="16.14107992596777"><ele>37.0</ele><time>2026-04-12T17:06:42.999Z</time></trkpt><trkpt lat="38.98768854455724" lon="16.140832420900256"><ele>34.0</ele><time>2026-04-12T17:06:43.999Z</time></trkpt><trkpt lat="38.987927868982155" lon="16.140590629476698"><ele>31.0</ele><time>2026-04-12T17:06:44.999Z</time></trkpt><trkpt lat="38.988168081714996" lon="16.14036154132365"><ele>33.5</ele><time>2026-04-12T17:06:45.999Z</time></trkpt><trkpt lat="38.98841783398418" lon="16.140152160846217"><ele>36.0</ele><time>2026-04-12T17:06:46.999Z</time></trkpt><trkpt lat="38.988665991737996" lon="16.139955943311413"><ele>30.0</ele><time>2026-04-12T17:06:47.999Z</time></trkpt><trkpt lat="38.9889269338922" lon="16.13978163662868"><ele>24.0</ele><time>2026-04-12T17:06:48.999Z</time></trkpt><trkpt lat="38.98919514605851" lon="16.13961728710144"><ele>24.0</ele><time>2026-04-12T17:06:49.999Z</time></trkpt><trkpt lat="38.98946835460176" lon="16.13948476855708"><ele>24.0</ele><time>2026-04-12T17:06:50.998Z</time></trkpt><trkpt lat="38.98975406421392" lon="16.139329548573528"><ele>27.5</ele><time>2026-04-12T17:06:51.998Z</time></trkpt><trkpt lat="38.99004361034238" lon="16.139191197990556"><ele>31.0</ele><time>2026-04-12T17:06:52.998Z</time></trkpt><trkpt lat="38.99033153963629" lon="16.139048389590247"><ele>24.5</ele><time>2026-04-12T17:06:53.998Z</time></trkpt><trkpt lat="38.990615229485726" lon="16.138907578833773"><ele>18.0</ele><time>2026-04-12T17:06:54.998Z</time></trkpt><trkpt lat="38.990898344799575" lon="16.13876435049391"><ele>18.0</ele><time>2026-04-12T17:06:55.998Z</time></trkpt><trkpt lat="38.99118543163871" lon="16.138617032522298"><ele>18.0</ele><time>2026-04-12T17:06:56.998Z</time></trkpt><trkpt lat="38.991469094012274" lon="16.13847055233036"><ele>17.5</ele><time>2026-04-12T17:06:57.998Z</time></trkpt><trkpt lat="38.99175519642437" lon="16.13831828793992"><ele>17.0</ele><time>2026-04-12T17:06:59Z</time></trkpt><trkpt lat="38.992043771781425" lon="16.138167021133697"><ele>17.0</ele><time>2026-04-12T17:07:00Z</time></trkpt><trkpt lat="38.992334765261596" lon="16.138015145110987"><ele>17.0</ele><time>2026-04-12T17:07:01Z</time></trkpt><trkpt lat="38.99262854404201" lon="16.137864342804278"><ele>17.0</ele><time>2026-04-12T17:07:02Z</time></trkpt><trkpt lat="38.992922088886964" lon="16.137716134950782"><ele>17.0</ele><time>2026-04-12T17:07:03Z</time></trkpt><trkpt lat="38.99321822476085" lon="16.137572079241057"><ele>18.5</ele><time>2026-04-12T17:07:04Z</time></trkpt><trkpt lat="38.99350707955967" lon="16.137430536534964"><ele>20.0</ele><time>2026-04-12T17:07:05Z</time></trkpt><trkpt lat="38.993793923187425" lon="16.13729267916182"><ele>20.5</ele><time>2026-04-12T17:07:06Z</time></trkpt><trkpt lat="38.99408496288803" lon="16.13715523313853"><ele>21.0</ele><time>2026-04-12T17:07:07Z</time></trkpt><trkpt lat="38.994375505481344" lon="16.13701783799981"><ele>21.0</ele><time>2026-04-12T17:07:08Z</time></trkpt><trkpt lat="38.994666582330716" lon="16.13688471384631"><ele>21.0</ele><time>2026-04-12T17:07:09Z</time></trkpt><trkpt lat="38.99496224060808" lon="16.136755559710103"><ele>19.0</ele><time>2026-04-12T17:07:10Z</time></trkpt><trkpt lat="38.99525080331474" lon="16.13663878238935"><ele>17.0</ele><time>2026-04-12T17:07:11Z</time></trkpt><trkpt lat="38.99555475866707" lon="16.13653088707959"><ele>13.0</ele><time>2026-04-12T17:07:12Z</time></trkpt><trkpt lat="38.99586109211983" lon="16.136438084042794"><ele>9.0</ele><time>2026-04-12T17:07:13Z</time></trkpt><trkpt lat="38.9961648081131" lon="16.13634924996845"><ele>9.0</ele><time>2026-04-12T17:07:14Z</time></trkpt><trkpt lat="38.996466804769376" lon="16.136270924476595"><ele>9.0</ele><time>2026-04-12T17:07:15Z</time></trkpt><trkpt lat="38.99677324298392" lon="16.136194020778916"><ele>8.0</ele><time>2026-04-12T17:07:16Z</time></trkpt><trkpt lat="38.997078394422" lon="16.13612035820225"><ele>7.0</ele><time>2026-04-12T17:07:17Z</time></trkpt><trkpt lat="38.997378272598944" lon="16.136047791365037"><ele>6.5</ele><time>2026-04-12T17:07:18Z</time></trkpt><trkpt lat="38.99767624432873" lon="16.135978590672533"><ele>6.0</ele><time>2026-04-12T17:07:19Z</time></trkpt><trkpt lat="38.99797177830452" lon="16.135911601273406"><ele>6.0</ele><time>2026-04-12T17:07:20Z</time></trkpt><trkpt lat="38.998272882403384" lon="16.135841820364288"><ele>6.0</ele><time>2026-04-12T17:07:21Z</time></trkpt><trkpt lat="38.99857073121794" lon="16.135769039319445"><ele>6.0</ele><time>2026-04-12T17:07:22Z</time></trkpt><trkpt lat="38.9988712184242" lon="16.135698876212036"><ele>6.0</ele><time>2026-04-12T17:07:23Z</time></trkpt><trkpt lat="38.9991706460584" lon="16.135623815155764"><ele>6.0</ele><time>2026-04-12T17:07:24Z</time></trkpt><trkpt lat="38.99947162100769" lon="16.13554622964167"><ele>6.0</ele><time>2026-04-12T17:07:25Z</time></trkpt><trkpt lat="38.999770951508246" lon="16.13547102080045"><ele>6.0</ele><time>2026-04-12T17:07:26Z</time></trkpt><trkpt lat="39.00006666600196" lon="16.135407206258556"><ele>6.0</ele><time>2026-04-12T17:07:27Z</time></trkpt><trkpt lat="39.00035647242717" lon="16.135337288331282"><ele>6.0</ele><time>2026-04-12T17:07:28Z</time></trkpt><trkpt lat="39.00063928070073" lon="16.135265274364663"><ele>6.0</ele><time>2026-04-12T17:07:29Z</time></trkpt><trkpt lat="39.00092293325015" lon="16.13519626891"><ele>5.0</ele><time>2026-04-12T17:07:30Z</time></trkpt><trkpt lat="39.00120282440161" lon="16.135130302582724"><ele>4.0</ele><time>2026-04-12T17:07:31Z</time></trkpt><trkpt lat="39.00147199197417" lon="16.13506974836194"><ele>5.0</ele><time>2026-04-12T17:07:32Z</time></trkpt><trkpt lat="39.00175781357852" lon="16.13498783385252"><ele>6.0</ele><time>2026-04-12T17:07:33Z</time></trkpt><trkpt lat="39.002012874521796" lon="16.134928936342675"><ele>5.5</ele><time>2026-04-12T17:07:34Z</time></trkpt><trkpt lat="39.00228072196307" lon="16.134864041668177"><ele>5.0</ele><time>2026-04-12T17:07:35Z</time></trkpt><trkpt lat="39.002556308771055" lon="16.134797545391066"><ele>5.0</ele><time>2026-04-12T17:07:36Z</time></trkpt><trkpt lat="39.00283280997223" lon="16.134731456097597"><ele>5.0</ele><time>2026-04-12T17:07:37Z</time></trkpt><trkpt lat="39.00311443898145" lon="16.134665486783955"><ele>4.5</ele><time>2026-04-12T17:07:38Z</time></trkpt><trkpt lat="39.00340113372725" lon="16.134597839891363"><ele>4.0</ele><time>2026-04-12T17:07:39Z</time></trkpt><trkpt lat="39.003695984110536" lon="16.134524735058243"><ele>4.0</ele><time>2026-04-12T17:07:40Z</time></trkpt><trkpt lat="39.00399600852368" lon="16.1344491712447"><ele>4.0</ele><time>2026-04-12T17:07:41Z</time></trkpt><trkpt lat="39.004302556050156" lon="16.13437411162096"><ele>5.0</ele><time>2026-04-12T17:07:42Z</time></trkpt><trkpt lat="39.004613406506785" lon="16.134298582139127"><ele>6.0</ele><time>2026-04-12T17:07:43Z</time></trkpt><trkpt lat="39.00493110341946" lon="16.13422278455022"><ele>5.5</ele><time>2026-04-12T17:07:44Z</time></trkpt><trkpt lat="39.00524865187521" lon="16.13412538223742"><ele>5.0</ele><time>2026-04-12T17:07:45Z</time></trkpt><trkpt lat="39.00555951703164" lon="16.13400371204673"><ele>6.0</ele><time>2026-04-12T17:07:46Z</time></trkpt><trkpt lat="39.00586611002441" lon="16.133859104918457"><ele>7.0</ele><time>2026-04-12T17:07:47Z</time></trkpt><trkpt lat="39.00615789144394" lon="16.133698642956414"><ele>7.0</ele><time>2026-04-12T17:07:48Z</time></trkpt><trkpt lat="39.006444782238376" lon="16.133514995462615"><ele>7.0</ele><time>2026-04-12T17:07:49Z</time></trkpt><trkpt lat="39.00672865630574" lon="16.133317838792966"><ele>7.0</ele><time>2026-04-12T17:07:50Z</time></trkpt><trkpt lat="39.006983445161964" lon="16.13310815890175"><ele>7.0</ele><time>2026-04-12T17:07:50.999Z</time></trkpt><trkpt lat="39.00725311352617" lon="16.13287314199664"><ele>8.0</ele><time>2026-04-12T17:07:51.999Z</time></trkpt><trkpt lat="39.00751313390297" lon="16.13262085293852"><ele>9.0</ele><time>2026-04-12T17:07:52.999Z</time></trkpt><trkpt lat="39.00775332839778" lon="16.13236006980228"><ele>9.0</ele><time>2026-04-12T17:07:53.999Z</time></trkpt><trkpt lat="39.007987783484744" lon="16.132080736828968"><ele>9.0</ele><time>2026-04-12T17:07:54.999Z</time></trkpt><trkpt lat="39.008205860111026" lon="16.131784390385473"><ele>9.0</ele><time>2026-04-12T17:07:55.999Z</time></trkpt><trkpt lat="39.00841251749069" lon="16.13147752481449"><ele>9.0</ele><time>2026-04-12T17:07:56.999Z</time></trkpt><trkpt lat="39.008611514576735" lon="16.131155131847795"><ele>9.0</ele><time>2026-04-12T17:07:57.999Z</time></trkpt><trkpt lat="39.008797758107825" lon="16.13081877919905"><ele>9.0</ele><time>2026-04-12T17:07:58.999Z</time></trkpt><trkpt lat="39.00896979870921" lon="16.13047695263691"><ele>7.0</ele><time>2026-04-12T17:07:59.999Z</time></trkpt><trkpt lat="39.00912982405227" lon="16.130121499453082"><ele>5.0</ele><time>2026-04-12T17:08:00.999Z</time></trkpt><trkpt lat="39.00928089614615" lon="16.129760112413074"><ele>7.0</ele><time>2026-04-12T17:08:01.999Z</time></trkpt><trkpt lat="39.00941753341761" lon="16.129398738975393"><ele>9.0</ele><time>2026-04-12T17:08:02.999Z</time></trkpt><trkpt lat="39.009558658176566" lon="16.12903830422176"><ele>9.0</ele><time>2026-04-12T17:08:03.999Z</time></trkpt><trkpt lat="39.00970619341187" lon="16.128687634502132"><ele>9.0</ele><time>2026-04-12T17:08:04.999Z</time></trkpt><trkpt lat="39.00986100505177" lon="16.128345410399582"><ele>14.0</ele><time>2026-04-12T17:08:05.999Z</time></trkpt><trkpt lat="39.01003408568424" lon="16.128013340851474"><ele>19.0</ele><time>2026-04-12T17:08:06.999Z</time></trkpt><trkpt lat="39.01022154337826" lon="16.127695178191455"><ele>13.5</ele><time>2026-04-12T17:08:07.999Z</time></trkpt><trkpt lat="39.01042026584918" lon="16.12738237180291"><ele>8.0</ele><time>2026-04-12T17:08:08.999Z</time></trkpt><trkpt lat="39.01062396369697" lon="16.127073951833303"><ele>10.0</ele><time>2026-04-12T17:08:09.999Z</time></trkpt><trkpt lat="39.010837919514614" lon="16.126770257695956"><ele>12.0</ele><time>2026-04-12T17:08:10.999Z</time></trkpt><trkpt lat="39.01105857164245" lon="16.12647538369664"><ele>12.0</ele><time>2026-04-12T17:08:11.999Z</time></trkpt><trkpt lat="39.011288349552515" lon="16.126196655359394"><ele>12.0</ele><time>2026-04-12T17:08:12.999Z</time></trkpt><trkpt lat="39.011530532813644" lon="16.125928389044486"><ele>13.0</ele><time>2026-04-12T17:08:13.999Z</time></trkpt><trkpt lat="39.01177929455032" lon="16.12567164192787"><ele>14.0</ele><time>2026-04-12T17:08:14.999Z</time></trkpt><trkpt lat="39.01203933378581" lon="16.125426864063904"><ele>14.0</ele><time>2026-04-12T17:08:15.999Z</time></trkpt><trkpt lat="39.01230542573184" lon="16.12519873234537"><ele>14.0</ele><time>2026-04-12T17:08:16.999Z</time></trkpt><trkpt lat="39.01258297714329" lon="16.124986869114053"><ele>12.5</ele><time>2026-04-12T17:08:17.999Z</time></trkpt><trkpt lat="39.012865008541134" lon="16.124789034894782"><ele>11.0</ele><time>2026-04-12T17:08:18.999Z</time></trkpt><trkpt lat="39.01315545446103" lon="16.124611386483778"><ele>18.5</ele><time>2026-04-12T17:08:19.999Z</time></trkpt><trkpt lat="39.01346006214838" lon="16.124450301163733"><ele>26.0</ele><time>2026-04-12T17:08:20.999Z</time></trkpt><trkpt lat="39.01376773575368" lon="16.12430470279612"><ele>26.0</ele><time>2026-04-12T17:08:21.999Z</time></trkpt><trkpt lat="39.01407359229686" lon="16.124168177556932"><ele>26.0</ele><time>2026-04-12T17:08:22.999Z</time></trkpt><trkpt lat="39.014380256096544" lon="16.124033508194042"><ele>29.5</ele><time>2026-04-12T17:08:23.999Z</time></trkpt><trkpt lat="39.01468758396446" lon="16.12389968604883"><ele>33.0</ele><time>2026-04-12T17:08:24.999Z</time></trkpt><trkpt lat="39.014990180639096" lon="16.123763246196287"><ele>35.0</ele><time>2026-04-12T17:08:25.999Z</time></trkpt><trkpt lat="39.015287931623554" lon="16.123613062900795"><ele>37.0</ele><time>2026-04-12T17:08:26.999Z</time></trkpt><trkpt lat="39.0155793391101" lon="16.12344487541168"><ele>40.0</ele><time>2026-04-12T17:08:27.999Z</time></trkpt><trkpt lat="39.01586424829164" lon="16.123263261369594"><ele>43.0</ele><time>2026-04-12T17:08:28.999Z</time></trkpt><trkpt lat="39.01614162684871" lon="16.1230794573902"><ele>43.5</ele><time>2026-04-12T17:08:29.999Z</time></trkpt><trkpt lat="39.016427070235615" lon="16.122900835539276"><ele>44.0</ele><time>2026-04-12T17:08:30.999Z</time></trkpt><trkpt lat="39.01670998729915" lon="16.122725898726184"><ele>44.0</ele><time>2026-04-12T17:08:31.999Z</time></trkpt><trkpt lat="39.01699490581914" lon="16.122563666281774"><ele>44.0</ele><time>2026-04-12T17:08:32.999Z</time></trkpt><trkpt lat="39.017281926320905" lon="16.122415022475973"><ele>43.5</ele><time>2026-04-12T17:08:33.999Z</time></trkpt><trkpt lat="39.01757222397909" lon="16.122298041015522"><ele>43.0</ele><time>2026-04-12T17:08:34.999Z</time></trkpt><trkpt lat="39.01786411324575" lon="16.122191897553577"><ele>43.0</ele><time>2026-04-12T17:08:35.999Z</time></trkpt><trkpt lat="39.01816230803808" lon="16.12211006673087"><ele>43.0</ele><time>2026-04-12T17:08:36.999Z</time></trkpt><trkpt lat="39.01845750259947" lon="16.122039565733765"><ele>48.5</ele><time>2026-04-12T17:08:37.999Z</time></trkpt><trkpt lat="39.018763569880186" lon="16.1219939035662"><ele>54.0</ele><time>2026-04-12T17:08:38.999Z</time></trkpt><trkpt lat="39.019068410671345" lon="16.121963462468436"><ele>55.0</ele><time>2026-04-12T17:08:39.999Z</time></trkpt><trkpt lat="39.01936938430593" lon="16.121943725022785"><ele>56.0</ele><time>2026-04-12T17:08:40.999Z</time></trkpt><trkpt lat="39.019674470960865" lon="16.12195065081263"><ele>56.0</ele><time>2026-04-12T17:08:41.999Z</time></trkpt><trkpt lat="39.01998243584733" lon="16.121977853008975"><ele>56.0</ele><time>2026-04-12T17:08:42.999Z</time></trkpt><trkpt lat="39.02028588553281" lon="16.122020805564816"><ele>56.0</ele><time>2026-04-12T17:08:43.999Z</time></trkpt><trkpt lat="39.020589136322556" lon="16.122082701441773"><ele>56.0</ele><time>2026-04-12T17:08:44.999Z</time></trkpt><trkpt lat="39.02089274004959" lon="16.12215880632898"><ele>55.5</ele><time>2026-04-12T17:08:45.999Z</time></trkpt><trkpt lat="39.02121372872924" lon="16.122274204992785"><ele>55.0</ele><time>2026-04-12T17:08:46.999Z</time></trkpt><trkpt lat="39.02153636511779" lon="16.12241119256283"><ele>61.5</ele><time>2026-04-12T17:08:47.998Z</time></trkpt><trkpt lat="39.021844014311796" lon="16.122573636932017"><ele>68.0</ele><time>2026-04-12T17:08:48.998Z</time></trkpt><trkpt lat="39.02213076689669" lon="16.1227246329734"><ele>68.0</ele><time>2026-04-12T17:08:49.998Z</time></trkpt><trkpt lat="39.022413402781" lon="16.122887442319563"><ele>68.0</ele><time>2026-04-12T17:08:50.998Z</time></trkpt><trkpt lat="39.02269497784744" lon="16.12302581651492"><ele>70.0</ele><time>2026-04-12T17:08:51.998Z</time></trkpt><trkpt lat="39.02296008645253" lon="16.12317018902522"><ele>72.0</ele><time>2026-04-12T17:08:52.998Z</time></trkpt><trkpt lat="39.023227154602296" lon="16.1233527752541"><ele>88.0</ele><time>2026-04-12T17:08:53.998Z</time></trkpt><trkpt lat="39.02349654085902" lon="16.12355147159477"><ele>104.0</ele><time>2026-04-12T17:08:54.998Z</time></trkpt><trkpt lat="39.02376974525876" lon="16.123751689004017"><ele>104.0</ele><time>2026-04-12T17:08:56.016Z</time></trkpt><trkpt lat="39.0240371791631" lon="16.12394548508996"><ele>104.0</ele><time>2026-04-12T17:08:57.019Z</time></trkpt><trkpt lat="39.02432498086863" lon="16.124114080825848"><ele>114.5</ele><time>2026-04-12T17:08:58.021Z</time></trkpt><trkpt lat="39.02460753512303" lon="16.124282947983648"><ele>125.0</ele><time>2026-04-12T17:08:59.019Z</time></trkpt><trkpt lat="39.02900065299033" lon="16.12797989511502"><ele>120.5</ele><time>2026-04-12T17:09:11.998Z</time></trkpt><trkpt lat="39.02932235961525" lon="16.1282897325628"><ele>116.0</ele><time>2026-04-12T17:09:12.998Z</time></trkpt><trkpt lat="39.029368800044594" lon="16.1286100048908"><ele>116.0</ele><time>2026-04-12T17:09:13.998Z</time></trkpt><trkpt lat="39.02953448425297" lon="16.128908957773163"><ele>116.0</ele><time>2026-04-12T17:09:14.998Z</time></trkpt><trkpt lat="39.02972647401603" lon="16.129184963085777"><ele>109.0</ele><time>2026-04-12T17:09:15.998Z</time></trkpt><trkpt lat="39.029893866788825" lon="16.129478434406188"><ele>102.0</ele><time>2026-04-12T17:09:16.998Z</time></trkpt><trkpt lat="39.03004946284791" lon="16.12977625535646"><ele>109.0</ele><time>2026-04-12T17:09:18Z</time></trkpt><trkpt lat="39.03019670271542" lon="16.13006633183798"><ele>116.0</ele><time>2026-04-12T17:09:19Z</time></trkpt><trkpt lat="39.03034506174004" lon="16.13034817902054"><ele>116.0</ele><time>2026-04-12T17:09:20Z</time></trkpt><trkpt lat="39.03048999824136" lon="16.130630854835633"><ele>116.0</ele><time>2026-04-12T17:09:21Z</time></trkpt><trkpt lat="39.03063541058927" lon="16.13091458824434"><ele>112.5</ele><time>2026-04-12T17:09:22Z</time></trkpt><trkpt lat="39.03078110664452" lon="16.131202579239304"><ele>109.0</ele><time>2026-04-12T17:09:23Z</time></trkpt><trkpt lat="39.030926860397344" lon="16.13148094019001"><ele>116.5</ele><time>2026-04-12T17:09:24Z</time></trkpt><trkpt lat="39.03106964694254" lon="16.13175344614645"><ele>124.0</ele><time>2026-04-12T17:09:25Z</time></trkpt><trkpt lat="39.03122182416506" lon="16.132019746910327"><ele>124.0</ele><time>2026-04-12T17:09:26Z</time></trkpt><trkpt lat="39.03137914368178" lon="16.13227867173258"><ele>124.0</ele><time>2026-04-12T17:09:27Z</time></trkpt><trkpt lat="39.03154182026039" lon="16.132533751207383"><ele>116.5</ele><time>2026-04-12T17:09:28Z</time></trkpt><trkpt lat="39.03171371108587" lon="16.132774391919646"><ele>109.0</ele><time>2026-04-12T17:09:29Z</time></trkpt><trkpt lat="39.0318868192733" lon="16.133004530168098"><ele>118.5</ele><time>2026-04-12T17:09:30Z</time></trkpt><trkpt lat="39.03207158391558" lon="16.133223734697218"><ele>128.0</ele><time>2026-04-12T17:09:31Z</time></trkpt><trkpt lat="39.03226354483434" lon="16.133430854449575"><ele>128.0</ele><time>2026-04-12T17:09:32Z</time></trkpt><trkpt lat="39.03246163408948" lon="16.13362733806017"><ele>128.0</ele><time>2026-04-12T17:09:33Z</time></trkpt><trkpt lat="39.03266576396319" lon="16.133821551014513"><ele>129.0</ele><time>2026-04-12T17:09:34Z</time></trkpt><trkpt lat="39.03287364309549" lon="16.13400611471446"><ele>130.0</ele><time>2026-04-12T17:09:35Z</time></trkpt><trkpt lat="39.03308666840372" lon="16.134182175860346"><ele>124.0</ele><time>2026-04-12T17:09:36Z</time></trkpt><trkpt lat="39.03330646186192" lon="16.134347164807476"><ele>118.0</ele><time>2026-04-12T17:09:37Z</time></trkpt><trkpt lat="39.03353216986963" lon="16.13450392709948"><ele>118.0</ele><time>2026-04-12T17:09:38Z</time></trkpt><trkpt lat="39.033762903246" lon="16.134652479161794"><ele>118.0</ele><time>2026-04-12T17:09:39Z</time></trkpt><trkpt lat="39.033998122133355" lon="16.134787729918898"><ele>114.5</ele><time>2026-04-12T17:09:40Z</time></trkpt><trkpt lat="39.03423573099117" lon="16.134932574407603"><ele>111.0</ele><time>2026-04-12T17:09:41Z</time></trkpt><trkpt lat="39.03447282655986" lon="16.135073217266658"><ele>111.0</ele><time>2026-04-12T17:09:42Z</time></trkpt><trkpt lat="39.03470705623971" lon="16.135205708961475"><ele>111.0</ele><time>2026-04-12T17:09:43Z</time></trkpt><trkpt lat="39.034941492451246" lon="16.135344756921604"><ele>97.5</ele><time>2026-04-12T17:09:44Z</time></trkpt><trkpt lat="39.03517545254231" lon="16.135492101170094"><ele>84.0</ele><time>2026-04-12T17:09:45Z</time></trkpt><trkpt lat="39.03541099468944" lon="16.135637502902316"><ele>86.0</ele><time>2026-04-12T17:09:46Z</time></trkpt><trkpt lat="39.0356481544453" lon="16.13578264458807"><ele>88.0</ele><time>2026-04-12T17:09:47Z</time></trkpt><trkpt lat="39.03588676698329" lon="16.13592287770389"><ele>89.5</ele><time>2026-04-12T17:09:48Z</time></trkpt><trkpt lat="39.03612397439408" lon="16.13606331611619"><ele>91.0</ele><time>2026-04-12T17:09:49Z</time></trkpt><trkpt lat="39.03635651361506" lon="16.136198932142474"><ele>91.0</ele><time>2026-04-12T17:09:50Z</time></trkpt><trkpt lat="39.03658916555481" lon="16.136345089618576"><ele>91.0</ele><time>2026-04-12T17:09:51Z</time></trkpt><trkpt lat="39.03682289391626" lon="16.136488002694474"><ele>104.5</ele><time>2026-04-12T17:09:52Z</time></trkpt><trkpt lat="39.03705216477218" lon="16.13663177912722"><ele>118.0</ele><time>2026-04-12T17:09:53Z</time></trkpt><trkpt lat="39.03727806577069" lon="16.136775827341246"><ele>123.0</ele><time>2026-04-12T17:09:54Z</time></trkpt><trkpt lat="39.03751330645874" lon="16.136971212671703"><ele>128.0</ele><time>2026-04-12T17:09:55Z</time></trkpt><trkpt lat="39.037747018581776" lon="16.137158247029305"><ele>128.0</ele><time>2026-04-12T17:09:56Z</time></trkpt><trkpt lat="39.03797247923683" lon="16.137361214384274"><ele>128.0</ele><time>2026-04-12T17:09:57Z</time></trkpt><trkpt lat="39.03819060978885" lon="16.13757284107208"><ele>130.5</ele><time>2026-04-12T17:09:58Z</time></trkpt><trkpt lat="39.03840142022633" lon="16.137793546947528"><ele>133.0</ele><time>2026-04-12T17:09:59Z</time></trkpt><trkpt lat="39.0386079102823" lon="16.13802103104672"><ele>145.5</ele><time>2026-04-12T17:10:00Z</time></trkpt><trkpt lat="39.03880891892192" lon="16.138254955045365"><ele>158.0</ele><time>2026-04-12T17:10:01Z</time></trkpt><trkpt lat="39.03900087783613" lon="16.13849792691437"><ele>143.0</ele><time>2026-04-12T17:10:02Z</time></trkpt><trkpt lat="39.039184153249536" lon="16.138749344288662"><ele>128.0</ele><time>2026-04-12T17:10:02.999Z</time></trkpt><trkpt lat="39.03936546250047" lon="16.138998758291258"><ele>139.0</ele><time>2026-04-12T17:10:03.999Z</time></trkpt><trkpt lat="39.03953115731037" lon="16.139268411649994"><ele>150.0</ele><time>2026-04-12T17:10:04.999Z</time></trkpt><trkpt lat="39.039694723319585" lon="16.13953984164505"><ele>150.0</ele><time>2026-04-12T17:10:05.999Z</time></trkpt><trkpt lat="39.03985582064476" lon="16.13980942005904"><ele>150.0</ele><time>2026-04-12T17:10:06.999Z</time></trkpt><trkpt lat="39.04001501652642" lon="16.140086719984442"><ele>149.0</ele><time>2026-04-12T17:10:07.999Z</time></trkpt><trkpt lat="39.04016714172808" lon="16.14037382172519"><ele>148.0</ele><time>2026-04-12T17:10:08.999Z</time></trkpt><trkpt lat="39.040314895173914" lon="16.140657913991"><ele>164.0</ele><time>2026-04-12T17:10:09.999Z</time></trkpt><trkpt lat="39.04046528832557" lon="16.140950769794358"><ele>180.0</ele><time>2026-04-12T17:10:11.02Z</time></trkpt><trkpt lat="39.0406129412441" lon="16.141232421628526"><ele>180.0</ele><time>2026-04-12T17:10:12.019Z</time></trkpt><trkpt lat="39.04075860032634" lon="16.14151276669224"><ele>180.0</ele><time>2026-04-12T17:10:13.014Z</time></trkpt><trkpt lat="39.040905743769216" lon="16.141791075968065"><ele>176.0</ele><time>2026-04-12T17:10:14.017Z</time></trkpt><trkpt lat="39.04105396685965" lon="16.142073062221293"><ele>172.0</ele><time>2026-04-12T17:10:15.015Z</time></trkpt><trkpt lat="39.04167157601476" lon="16.143240239486232"><ele>166.5</ele><time>2026-04-12T17:10:18.999Z</time></trkpt><trkpt lat="39.04183035586565" lon="16.143525601014634"><ele>161.0</ele><time>2026-04-12T17:10:19.999Z</time></trkpt><trkpt lat="39.04200308633987" lon="16.143827340475216"><ele>173.5</ele><time>2026-04-12T17:10:20.999Z</time></trkpt><trkpt lat="39.042177009116" lon="16.144102423251432"><ele>186.0</ele><time>2026-04-12T17:10:21.999Z</time></trkpt><trkpt lat="39.04238726438853" lon="16.144355713791246"><ele>176.0</ele><time>2026-04-12T17:10:22.999Z</time></trkpt><trkpt lat="39.04258171643293" lon="16.14462868086714"><ele>166.0</ele><time>2026-04-12T17:10:23.999Z</time></trkpt><trkpt lat="39.04277256168345" lon="16.144902403902773"><ele>166.0</ele><time>2026-04-12T17:10:24.999Z</time></trkpt><trkpt lat="39.04298112400501" lon="16.145154747568018"><ele>166.0</ele><time>2026-04-12T17:10:25.999Z</time></trkpt><trkpt lat="39.043196360262485" lon="16.14539690303705"><ele>159.0</ele><time>2026-04-12T17:10:26.999Z</time></trkpt><trkpt lat="39.04339663360558" lon="16.14565222775204"><ele>152.0</ele><time>2026-04-12T17:10:27.999Z</time></trkpt><trkpt lat="39.043643458532635" lon="16.145852555933214"><ele>152.0</ele><time>2026-04-12T17:10:28.999Z</time></trkpt><trkpt lat="39.04388574521664" lon="16.146059895524278"><ele>152.0</ele><time>2026-04-12T17:10:29.999Z</time></trkpt><trkpt lat="39.04412896865003" lon="16.14625780906244"><ele>154.0</ele><time>2026-04-12T17:10:30.999Z</time></trkpt><trkpt lat="39.044381610184224" lon="16.1464412399317"><ele>156.0</ele><time>2026-04-12T17:10:31.999Z</time></trkpt><trkpt lat="39.04463332010088" lon="16.146614547914325"><ele>156.0</ele><time>2026-04-12T17:10:32.999Z</time></trkpt><trkpt lat="39.044894404803976" lon="16.14677592685578"><ele>156.0</ele><time>2026-04-12T17:10:33.999Z</time></trkpt><trkpt lat="39.04515895191452" lon="16.146930342269748"><ele>155.0</ele><time>2026-04-12T17:10:34.999Z</time></trkpt><trkpt lat="39.04542893149539" lon="16.14707890237062"><ele>154.0</ele><time>2026-04-12T17:10:35.999Z</time></trkpt><trkpt lat="39.04570215443475" lon="16.14722117626537"><ele>151.5</ele><time>2026-04-12T17:10:36.999Z</time></trkpt><trkpt lat="39.04597443150208" lon="16.147365498677726"><ele>149.0</ele><time>2026-04-12T17:10:37.999Z</time></trkpt><trkpt lat="39.04624647877533" lon="16.147517229656888"><ele>147.5</ele><time>2026-04-12T17:10:38.999Z</time></trkpt><trkpt lat="39.04651773787999" lon="16.147676161518415"><ele>146.0</ele><time>2026-04-12T17:10:39.999Z</time></trkpt><trkpt lat="39.046778639969126" lon="16.147845902711442"><ele>146.0</ele><time>2026-04-12T17:10:40.999Z</time></trkpt><trkpt lat="39.04703392393251" lon="16.148032684434032"><ele>146.0</ele><time>2026-04-12T17:10:41.999Z</time></trkpt><trkpt lat="39.04728103036958" lon="16.148238416117714"><ele>149.0</ele><time>2026-04-12T17:10:42.999Z</time></trkpt><trkpt lat="39.04751300051738" lon="16.148465192465487"><ele>152.0</ele><time>2026-04-12T17:10:43.999Z</time></trkpt><trkpt lat="39.047737561750274" lon="16.14869922451312"><ele>152.0</ele><time>2026-04-12T17:10:44.999Z</time></trkpt><trkpt lat="39.04796264994394" lon="16.148943288581492"><ele>152.0</ele><time>2026-04-12T17:10:45.999Z</time></trkpt><trkpt lat="39.04819087562256" lon="16.149185904859426"><ele>152.5</ele><time>2026-04-12T17:10:46.999Z</time></trkpt><trkpt lat="39.04842729319083" lon="16.14943356749543"><ele>153.0</ele><time>2026-04-12T17:10:47.999Z</time></trkpt><trkpt lat="39.04866690882498" lon="16.14967988702202"><ele>153.0</ele><time>2026-04-12T17:10:48.999Z</time></trkpt><trkpt lat="39.048910194148704" lon="16.149923478931083"><ele>153.0</ele><time>2026-04-12T17:10:49.999Z</time></trkpt><trkpt lat="39.049148485471314" lon="16.150158726829922"><ele>153.0</ele><time>2026-04-12T17:10:50.999Z</time></trkpt><trkpt lat="39.04938612746865" lon="16.150407880997047"><ele>153.0</ele><time>2026-04-12T17:10:51.999Z</time></trkpt><trkpt lat="39.04962406057517" lon="16.150652289314678"><ele>151.5</ele><time>2026-04-12T17:10:52.999Z</time></trkpt><trkpt lat="39.049857679640596" lon="16.150893035174878"><ele>150.0</ele><time>2026-04-12T17:10:53.999Z</time></trkpt><trkpt lat="39.05008637632714" lon="16.151122934651124"><ele>150.0</ele><time>2026-04-12T17:10:54.999Z</time></trkpt><trkpt lat="39.050320984965346" lon="16.15134547911874"><ele>150.0</ele><time>2026-04-12T17:10:55.999Z</time></trkpt><trkpt lat="39.0505580646798" lon="16.151572206639628"><ele>150.5</ele><time>2026-04-12T17:10:56.998Z</time></trkpt><trkpt lat="39.05079937757583" lon="16.15177735558249"><ele>151.0</ele><time>2026-04-12T17:10:57.998Z</time></trkpt><trkpt lat="39.051043045145036" lon="16.151966422057825"><ele>151.0</ele><time>2026-04-12T17:10:58.998Z</time></trkpt><trkpt lat="39.05129092010183" lon="16.152146988697066"><ele>151.0</ele><time>2026-04-12T17:10:59.998Z</time></trkpt><trkpt lat="39.051546111884896" lon="16.152322609494462"><ele>148.0</ele><time>2026-04-12T17:11:00.998Z</time></trkpt><trkpt lat="39.051793245900754" lon="16.15248505302409"><ele>145.0</ele><time>2026-04-12T17:11:01.998Z</time></trkpt><trkpt lat="39.052048807404205" lon="16.152643489711146"><ele>145.0</ele><time>2026-04-12T17:11:02.998Z</time></trkpt><trkpt lat="39.05230064387897" lon="16.152798855958896"><ele>145.0</ele><time>2026-04-12T17:11:03.998Z</time></trkpt><trkpt lat="39.05254893916847" lon="16.152956072149404"><ele>145.5</ele><time>2026-04-12T17:11:04.998Z</time></trkpt><trkpt lat="39.052798133050466" lon="16.153111904934615"><ele>146.0</ele><time>2026-04-12T17:11:05.998Z</time></trkpt><trkpt lat="39.05304554358135" lon="16.153264280965622"><ele>149.5</ele><time>2026-04-12T17:11:06.998Z</time></trkpt><trkpt lat="39.05329238918601" lon="16.153419300323872"><ele>153.0</ele><time>2026-04-12T17:11:07.998Z</time></trkpt><trkpt lat="39.05353804052822" lon="16.15357289518653"><ele>153.0</ele><time>2026-04-12T17:11:08.998Z</time></trkpt><trkpt lat="39.05378292011456" lon="16.153725871700217"><ele>153.0</ele><time>2026-04-12T17:11:09.998Z</time></trkpt><trkpt lat="39.05402740653448" lon="16.153874602448443"><ele>154.5</ele><time>2026-04-12T17:11:10.998Z</time></trkpt><trkpt lat="39.05427149621954" lon="16.154032699344196"><ele>156.0</ele><time>2026-04-12T17:11:11.998Z</time></trkpt><trkpt lat="39.05451194450856" lon="16.154191924653883"><ele>156.0</ele><time>2026-04-12T17:11:12.998Z</time></trkpt><trkpt lat="39.054751149574614" lon="16.154350013703194"><ele>156.0</ele><time>2026-04-12T17:11:13.998Z</time></trkpt><trkpt lat="39.05498685549158" lon="16.154503544107037"><ele>151.0</ele><time>2026-04-12T17:11:14.998Z</time></trkpt><trkpt lat="39.055222731919464" lon="16.1546546995391"><ele>146.0</ele><time>2026-04-12T17:11:15.998Z</time></trkpt><trkpt lat="39.055454978471985" lon="16.15480698107009"><ele>148.0</ele><time>2026-04-12T17:11:16.998Z</time></trkpt><trkpt lat="39.05568501526162" lon="16.154960986154244"><ele>150.0</ele><time>2026-04-12T17:11:17.998Z</time></trkpt><trkpt lat="39.055911463687295" lon="16.15512153758796"><ele>150.0</ele><time>2026-04-12T17:11:18.998Z</time></trkpt><trkpt lat="39.056132946709084" lon="16.155294633399258"><ele>150.0</ele><time>2026-04-12T17:11:19.998Z</time></trkpt><trkpt lat="39.05635041447339" lon="16.155481798622827"><ele>150.0</ele><time>2026-04-12T17:11:20.998Z</time></trkpt><trkpt lat="39.05655797220498" lon="16.15568121879535"><ele>150.0</ele><time>2026-04-12T17:11:21.998Z</time></trkpt><trkpt lat="39.0567628365657" lon="16.155882261400787"><ele>154.0</ele><time>2026-04-12T17:11:22.998Z</time></trkpt><trkpt lat="39.05695277573887" lon="16.156101317375406"><ele>158.0</ele><time>2026-04-12T17:11:24Z</time></trkpt><trkpt lat="39.05713792950489" lon="16.156337833610333"><ele>153.0</ele><time>2026-04-12T17:11:25Z</time></trkpt><trkpt lat="39.05731260063077" lon="16.156579362385443"><ele>148.0</ele><time>2026-04-12T17:11:26Z</time></trkpt><trkpt lat="39.05748008923527" lon="16.15683007299842"><ele>148.0</ele><time>2026-04-12T17:11:27Z</time></trkpt><trkpt lat="39.057643720381385" lon="16.15708365803082"><ele>148.0</ele><time>2026-04-12T17:11:28Z</time></trkpt><trkpt lat="39.05779969943671" lon="16.157348063317333"><ele>155.0</ele><time>2026-04-12T17:11:29Z</time></trkpt><trkpt lat="39.057946632488246" lon="16.15762208973716"><ele>162.0</ele><time>2026-04-12T17:11:30Z</time></trkpt><trkpt lat="39.058089559800706" lon="16.15790238272106"><ele>162.0</ele><time>2026-04-12T17:11:31Z</time></trkpt><trkpt lat="39.058217319808215" lon="16.15819227314028"><ele>162.0</ele><time>2026-04-12T17:11:32Z</time></trkpt><trkpt lat="39.058338431049265" lon="16.158488846330947"><ele>155.5</ele><time>2026-04-12T17:11:33Z</time></trkpt><trkpt lat="39.05844870661464" lon="16.158796843860046"><ele>149.0</ele><time>2026-04-12T17:11:34Z</time></trkpt><trkpt lat="39.058555164196854" lon="16.15910673666704"><ele>149.0</ele><time>2026-04-12T17:11:35Z</time></trkpt><trkpt lat="39.058656026198975" lon="16.1594190472892"><ele>149.0</ele><time>2026-04-12T17:11:36Z</time></trkpt><trkpt lat="39.05875540933783" lon="16.159735361871203"><ele>148.0</ele><time>2026-04-12T17:11:37Z</time></trkpt><trkpt lat="39.058849136545916" lon="16.160050826897297"><ele>147.0</ele><time>2026-04-12T17:11:38Z</time></trkpt><trkpt lat="39.058948887145384" lon="16.160371495766697"><ele>147.0</ele><time>2026-04-12T17:11:39Z</time></trkpt><trkpt lat="39.05904482085132" lon="16.160695092510178"><ele>147.0</ele><time>2026-04-12T17:11:40Z</time></trkpt><trkpt lat="39.059142937695164" lon="16.16101704116017"><ele>146.0</ele><time>2026-04-12T17:11:41Z</time></trkpt><trkpt lat="39.05924465933495" lon="16.161341667918414"><ele>145.0</ele><time>2026-04-12T17:11:42Z</time></trkpt><trkpt lat="39.05934203843762" lon="16.161665773386833"><ele>152.0</ele><time>2026-04-12T17:11:43Z</time></trkpt><trkpt lat="39.05944629021554" lon="16.16199927025375"><ele>159.0</ele><time>2026-04-12T17:11:44Z</time></trkpt><trkpt lat="39.05954685937028" lon="16.16232715964814"><ele>164.0</ele><time>2026-04-12T17:11:45Z</time></trkpt><trkpt lat="39.05964388643642" lon="16.162659889986806"><ele>169.0</ele><time>2026-04-12T17:11:46Z</time></trkpt><trkpt lat="39.05974409444119" lon="16.16298694523504"><ele>172.0</ele><time>2026-04-12T17:11:47Z</time></trkpt><trkpt lat="39.0598465056405" lon="16.163318410273906"><ele>175.0</ele><time>2026-04-12T17:11:48Z</time></trkpt><trkpt lat="39.05994646263375" lon="16.1636464806678"><ele>164.5</ele><time>2026-04-12T17:11:49Z</time></trkpt><trkpt lat="39.060046732906294" lon="16.163975197280994"><ele>154.0</ele><time>2026-04-12T17:11:50Z</time></trkpt><trkpt lat="39.060146491804865" lon="16.164309837293647"><ele>154.0</ele><time>2026-04-12T17:11:51Z</time></trkpt><trkpt lat="39.060247221599745" lon="16.164643406738545"><ele>154.0</ele><time>2026-04-12T17:11:52Z</time></trkpt><trkpt lat="39.06035200109561" lon="16.16497707585844"><ele>158.0</ele><time>2026-04-12T17:11:53Z</time></trkpt><trkpt lat="39.06046509655075" lon="16.165307500410364"><ele>162.0</ele><time>2026-04-12T17:11:54Z</time></trkpt><trkpt lat="39.060585254773734" lon="16.165627593653227"><ele>156.5</ele><time>2026-04-12T17:11:55Z</time></trkpt><trkpt lat="39.06072339223357" lon="16.16593950049817"><ele>151.0</ele><time>2026-04-12T17:11:56Z</time></trkpt><trkpt lat="39.06084978887181" lon="16.166248334180015"><ele>155.0</ele><time>2026-04-12T17:11:57Z</time></trkpt><trkpt lat="39.060986458727896" lon="16.166562248821943"><ele>159.0</ele><time>2026-04-12T17:11:58Z</time></trkpt><trkpt lat="39.06111276455671" lon="16.16686935736734"><ele>159.0</ele><time>2026-04-12T17:11:59Z</time></trkpt><trkpt lat="39.061236993431244" lon="16.167186784515447"><ele>159.0</ele><time>2026-04-12T17:12:00Z</time></trkpt><trkpt lat="39.061351919652125" lon="16.16750679515299"><ele>161.5</ele><time>2026-04-12T17:12:01Z</time></trkpt><trkpt lat="39.0614551175917" lon="16.16783576622388"><ele>164.0</ele><time>2026-04-12T17:12:02Z</time></trkpt><trkpt lat="39.061550775631716" lon="16.16817141463997"><ele>160.0</ele><time>2026-04-12T17:12:03Z</time></trkpt><trkpt lat="39.061634806184564" lon="16.16851513296185"><ele>156.0</ele><time>2026-04-12T17:12:03.999Z</time></trkpt><trkpt lat="39.06170731925999" lon="16.168862583389213"><ele>158.0</ele><time>2026-04-12T17:12:04.999Z</time></trkpt><trkpt lat="39.06177155036731" lon="16.16921610610363"><ele>160.0</ele><time>2026-04-12T17:12:05.999Z</time></trkpt><trkpt lat="39.06183081213729" lon="16.1695707890323"><ele>161.0</ele><time>2026-04-12T17:12:06.999Z</time></trkpt><trkpt lat="39.06188510800526" lon="16.169929876449235"><ele>162.0</ele><time>2026-04-12T17:12:07.999Z</time></trkpt><trkpt lat="39.06194668926242" lon="16.170282424247965"><ele>162.0</ele><time>2026-04-12T17:12:08.999Z</time></trkpt><trkpt lat="39.06201225934712" lon="16.170639851181953"><ele>162.0</ele><time>2026-04-12T17:12:09.999Z</time></trkpt><trkpt lat="39.06208764595141" lon="16.170989104236032"><ele>162.0</ele><time>2026-04-12T17:12:10.999Z</time></trkpt><trkpt lat="39.0621695024711" lon="16.171336599423938"><ele>162.0</ele><time>2026-04-12T17:12:11.999Z</time></trkpt><trkpt lat="39.06226507401516" lon="16.1716804925294"><ele>164.0</ele><time>2026-04-12T17:12:12.999Z</time></trkpt><trkpt lat="39.062372880305034" lon="16.17202202250444"><ele>166.0</ele><time>2026-04-12T17:12:13.999Z</time></trkpt><trkpt lat="39.06249236398404" lon="16.172360591733767"><ele>159.0</ele><time>2026-04-12T17:12:14.999Z</time></trkpt><trkpt lat="39.062616170503674" lon="16.17268881711802"><ele>152.0</ele><time>2026-04-12T17:12:15.999Z</time></trkpt><trkpt lat="39.06274210263988" lon="16.173009556115666"><ele>155.0</ele><time>2026-04-12T17:12:16.999Z</time></trkpt><trkpt lat="39.062867781897765" lon="16.1733252373461"><ele>158.0</ele><time>2026-04-12T17:12:17.999Z</time></trkpt><trkpt lat="39.062987966160826" lon="16.17363589062928"><ele>158.0</ele><time>2026-04-12T17:12:18.999Z</time></trkpt><trkpt lat="39.06310398435058" lon="16.17394613513535"><ele>158.0</ele><time>2026-04-12T17:12:19.999Z</time></trkpt><trkpt lat="39.06320509057947" lon="16.174237292634423"><ele>151.5</ele><time>2026-04-12T17:12:20.999Z</time></trkpt><trkpt lat="39.06330620927186" lon="16.174526158996613"><ele>145.0</ele><time>2026-04-12T17:12:21.999Z</time></trkpt><trkpt lat="39.06339707181959" lon="16.174808265977372"><ele>146.0</ele><time>2026-04-12T17:12:22.999Z</time></trkpt><trkpt lat="39.06348443009338" lon="16.175089313530936"><ele>147.0</ele><time>2026-04-12T17:12:23.999Z</time></trkpt><trkpt lat="39.06356370954368" lon="16.175352157260473"><ele>147.0</ele><time>2026-04-12T17:12:24.999Z</time></trkpt><trkpt lat="39.06362932218694" lon="16.175625571434004"><ele>147.0</ele><time>2026-04-12T17:12:25.999Z</time></trkpt><trkpt lat="39.06371252007127" lon="16.175903163438484"><ele>148.0</ele><time>2026-04-12T17:12:26.999Z</time></trkpt><trkpt lat="39.063788810539165" lon="16.176182688572585"><ele>149.0</ele><time>2026-04-12T17:12:27.999Z</time></trkpt><trkpt lat="39.06386361701433" lon="16.17645619835179"><ele>150.0</ele><time>2026-04-12T17:12:28.999Z</time></trkpt><trkpt lat="39.0639413198894" lon="16.1767292894998"><ele>151.0</ele><time>2026-04-12T17:12:29.999Z</time></trkpt><trkpt lat="39.06402432785872" lon="16.176998542671505"><ele>145.0</ele><time>2026-04-12T17:12:30.999Z</time></trkpt><trkpt lat="39.064115994024604" lon="16.177275649108697"><ele>139.0</ele><time>2026-04-12T17:12:31.999Z</time></trkpt><trkpt lat="39.06421298521089" lon="16.17754995149677"><ele>138.5</ele><time>2026-04-12T17:12:32.999Z</time></trkpt><trkpt lat="39.06431592019329" lon="16.177818306148815"><ele>138.0</ele><time>2026-04-12T17:12:33.999Z</time></trkpt><trkpt lat="39.06442845302043" lon="16.178079366858167"><ele>139.5</ele><time>2026-04-12T17:12:34.999Z</time></trkpt><trkpt lat="39.06454927485598" lon="16.178339597939182"><ele>141.0</ele><time>2026-04-12T17:12:35.999Z</time></trkpt><trkpt lat="39.06467648433726" lon="16.178599014822115"><ele>141.0</ele><time>2026-04-12T17:12:36.999Z</time></trkpt><trkpt lat="39.06481478761724" lon="16.178853324802077"><ele>141.0</ele><time>2026-04-12T17:12:37.999Z</time></trkpt><trkpt lat="39.064960471644" lon="16.179100888104344"><ele>136.5</ele><time>2026-04-12T17:12:38.999Z</time></trkpt><trkpt lat="39.06511503954259" lon="16.179345361165854"><ele>132.0</ele><time>2026-04-12T17:12:39.999Z</time></trkpt><trkpt lat="39.06527841973051" lon="16.179579397823858"><ele>132.0</ele><time>2026-04-12T17:12:40.999Z</time></trkpt><trkpt lat="39.065446088135175" lon="16.179807776378073"><ele>132.0</ele><time>2026-04-12T17:12:41.999Z</time></trkpt><trkpt lat="39.06561821571204" lon="16.180031512372423"><ele>128.5</ele><time>2026-04-12T17:12:42.999Z</time></trkpt><trkpt lat="39.065793586648766" lon="16.180254775744043"><ele>125.0</ele><time>2026-04-12T17:12:43.999Z</time></trkpt><trkpt lat="39.06597384417871" lon="16.180475031916146"><ele>124.5</ele><time>2026-04-12T17:12:44.999Z</time></trkpt><trkpt lat="39.066155655868016" lon="16.18068846515687"><ele>124.0</ele><time>2026-04-12T17:12:45.999Z</time></trkpt><trkpt lat="39.066336685737035" lon="16.18089606424817"><ele>124.0</ele><time>2026-04-12T17:12:46.999Z</time></trkpt><trkpt lat="39.06651494031237" lon="16.181100613450322"><ele>124.0</ele><time>2026-04-12T17:12:47.999Z</time></trkpt><trkpt lat="39.0666913879411" lon="16.18130541362771"><ele>123.0</ele><time>2026-04-12T17:12:48.999Z</time></trkpt><trkpt lat="39.066861952983196" lon="16.181509123393113"><ele>122.0</ele><time>2026-04-12T17:12:49.999Z</time></trkpt><trkpt lat="39.06703145793661" lon="16.181722121620034"><ele>125.0</ele><time>2026-04-12T17:12:50.999Z</time></trkpt><trkpt lat="39.06718418855818" lon="16.18194375626405"><ele>128.0</ele><time>2026-04-12T17:12:51.999Z</time></trkpt><trkpt lat="39.0673172117421" lon="16.182180998023917"><ele>129.5</ele><time>2026-04-12T17:12:52.999Z</time></trkpt><trkpt lat="39.067424194806094" lon="16.18244118438289"><ele>131.0</ele><time>2026-04-12T17:12:53.999Z</time></trkpt><trkpt lat="39.06752180820427" lon="16.182705328037823"><ele>131.0</ele><time>2026-04-12T17:12:54.999Z</time></trkpt><trkpt lat="39.067599063293585" lon="16.182995140383778"><ele>131.0</ele><time>2026-04-12T17:12:55.999Z</time></trkpt><trkpt lat="39.06766923945206" lon="16.183274689795596"><ele>134.5</ele><time>2026-04-12T17:12:56.999Z</time></trkpt><trkpt lat="39.06772952874143" lon="16.1835710159134"><ele>138.0</ele><time>2026-04-12T17:12:57.999Z</time></trkpt><trkpt lat="39.0677964995721" lon="16.18386220179857"><ele>134.5</ele><time>2026-04-12T17:12:58.999Z</time></trkpt><trkpt lat="39.06786635285417" lon="16.184151447622845"><ele>131.0</ele><time>2026-04-12T17:12:59.999Z</time></trkpt><trkpt lat="39.067944313730145" lon="16.184436495510568"><ele>131.0</ele><time>2026-04-12T17:13:00.999Z</time></trkpt><trkpt lat="39.0680414054785" lon="16.184714010992952"><ele>131.0</ele><time>2026-04-12T17:13:01.998Z</time></trkpt><trkpt lat="39.068151867241106" lon="16.184987221055245"><ele>126.5</ele><time>2026-04-12T17:13:02.998Z</time></trkpt><trkpt lat="39.06828358058019" lon="16.18524829172881"><ele>122.0</ele><time>2026-04-12T17:13:03.998Z</time></trkpt><trkpt lat="39.06844267390503" lon="16.18550307447056"><ele>133.5</ele><time>2026-04-12T17:13:04.998Z</time></trkpt><trkpt lat="39.06861587389782" lon="16.185687982290013"><ele>145.0</ele><time>2026-04-12T17:13:05.998Z</time></trkpt><trkpt lat="39.06878957859211" lon="16.185890409940242"><ele>145.0</ele><time>2026-04-12T17:13:06.998Z</time></trkpt><trkpt lat="39.06898621790613" lon="16.186065921362243"><ele>145.0</ele><time>2026-04-12T17:13:07.998Z</time></trkpt><trkpt lat="39.06918880012509" lon="16.18622365738388"><ele>130.0</ele><time>2026-04-12T17:13:08.998Z</time></trkpt><trkpt lat="39.069403419249134" lon="16.186353581304726"><ele>115.0</ele><time>2026-04-12T17:13:09.998Z</time></trkpt><trkpt lat="39.069629966770876" lon="16.18646177010383"><ele>121.0</ele><time>2026-04-12T17:13:10.998Z</time></trkpt><trkpt lat="39.06987038287575" lon="16.18654185593947"><ele>127.0</ele><time>2026-04-12T17:13:11.998Z</time></trkpt><trkpt lat="39.070102106024294" lon="16.186613137248724"><ele>127.0</ele><time>2026-04-12T17:13:12.998Z</time></trkpt><trkpt lat="39.070338528215196" lon="16.186677861584123"><ele>127.0</ele><time>2026-04-12T17:13:13.998Z</time></trkpt><trkpt lat="39.07058186420065" lon="16.186741926279336"><ele>125.0</ele><time>2026-04-12T17:13:14.998Z</time></trkpt><trkpt lat="39.070810623580705" lon="16.186820084340233"><ele>123.0</ele><time>2026-04-12T17:13:15.998Z</time></trkpt><trkpt lat="39.0710275443545" lon="16.18690981164043"><ele>123.0</ele><time>2026-04-12T17:13:16.998Z</time></trkpt><trkpt lat="39.07124227960734" lon="16.187016336156386"><ele>123.0</ele><time>2026-04-12T17:13:18.018Z</time></trkpt><trkpt lat="39.0714505050509" lon="16.187118099028247"><ele>120.0</ele><time>2026-04-12T17:13:19.02Z</time></trkpt><trkpt lat="39.071657089225404" lon="16.18721033906328"><ele>117.0</ele><time>2026-04-12T17:13:20.021Z</time></trkpt><trkpt lat="39.07186103584124" lon="16.187305992547607"><ele>114.0</ele><time>2026-04-12T17:13:21.024Z</time></trkpt><trkpt lat="39.07205547515932" lon="16.187415985370375"><ele>113.0</ele><time>2026-04-12T17:13:22.015Z</time></trkpt><trkpt lat="39.07224931213239" lon="16.187521657676893"><ele>112.0</ele><time>2026-04-12T17:13:23.021Z</time></trkpt><trkpt lat="39.07246023420158" lon="16.18790723384934"><ele>115.0</ele><time>2026-04-12T17:13:23.998Z</time></trkpt><trkpt lat="39.07240790338376" lon="16.188021471249904"><ele>118.0</ele><time>2026-04-12T17:13:24.998Z</time></trkpt><trkpt lat="39.07255456534055" lon="16.188749930164974"><ele>118.0</ele><time>2026-04-12T17:13:25.998Z</time></trkpt><trkpt lat="39.07270761720487" lon="16.188990557845134"><ele>118.0</ele><time>2026-04-12T17:13:26.998Z</time></trkpt><trkpt lat="39.07286756018429" lon="16.18923102663675"><ele>126.5</ele><time>2026-04-12T17:13:27.998Z</time></trkpt><trkpt lat="39.07303535800882" lon="16.189458414399027"><ele>135.0</ele><time>2026-04-12T17:13:28.998Z</time></trkpt><trkpt lat="39.07321943707083" lon="16.189670241997174"><ele>128.5</ele><time>2026-04-12T17:13:30Z</time></trkpt><trkpt lat="39.073416247325696" lon="16.189852201356757"><ele>122.0</ele><time>2026-04-12T17:13:31Z</time></trkpt><trkpt lat="39.073629392390586" lon="16.19000195833939"><ele>122.0</ele><time>2026-04-12T17:13:32Z</time></trkpt><trkpt lat="39.073853223256265" lon="16.19012078802669"><ele>122.0</ele><time>2026-04-12T17:13:33Z</time></trkpt><trkpt lat="39.07408129896278" lon="16.1902371061458"><ele>116.0</ele><time>2026-04-12T17:13:34Z</time></trkpt><trkpt lat="39.0743087681576" lon="16.190358994374836"><ele>110.0</ele><time>2026-04-12T17:13:35Z</time></trkpt><trkpt lat="39.07453670060246" lon="16.1904859221877"><ele>110.0</ele><time>2026-04-12T17:13:36Z</time></trkpt><trkpt lat="39.07475987015381" lon="16.19061750912521"><ele>110.0</ele><time>2026-04-12T17:13:37Z</time></trkpt><trkpt lat="39.07498020559661" lon="16.19076027225574"><ele>113.0</ele><time>2026-04-12T17:13:38Z</time></trkpt><trkpt lat="39.07519725508947" lon="16.190920136126785"><ele>116.0</ele><time>2026-04-12T17:13:39Z</time></trkpt><trkpt lat="39.07541026895388" lon="16.191085249254133"><ele>116.0</ele><time>2026-04-12T17:13:40Z</time></trkpt><trkpt lat="39.07561868072239" lon="16.19125547239883"><ele>116.0</ele><time>2026-04-12T17:13:41Z</time></trkpt><trkpt lat="39.07582410450871" lon="16.19143416836388"><ele>116.5</ele><time>2026-04-12T17:13:42Z</time></trkpt><trkpt lat="39.07602446024046" lon="16.191618404520543"><ele>117.0</ele><time>2026-04-12T17:13:43Z</time></trkpt><trkpt lat="39.07622326231457" lon="16.19180114283896"><ele>117.0</ele><time>2026-04-12T17:13:44Z</time></trkpt><trkpt lat="39.07642323853629" lon="16.191981713185765"><ele>117.0</ele><time>2026-04-12T17:13:45Z</time></trkpt><trkpt lat="39.07662324901635" lon="16.19216287604207"><ele>120.5</ele><time>2026-04-12T17:13:46Z</time></trkpt><trkpt lat="39.07682018555432" lon="16.19234018182689"><ele>124.0</ele><time>2026-04-12T17:13:47Z</time></trkpt><trkpt lat="39.07701622956868" lon="16.192514235835713"><ele>124.0</ele><time>2026-04-12T17:13:48Z</time></trkpt><trkpt lat="39.077210587915516" lon="16.192685481697627"><ele>124.0</ele><time>2026-04-12T17:13:49Z</time></trkpt><trkpt lat="39.07740311269402" lon="16.192855851917546"><ele>121.5</ele><time>2026-04-12T17:13:50Z</time></trkpt><trkpt lat="39.0775969985319" lon="16.193030774348376"><ele>119.0</ele><time>2026-04-12T17:13:51Z</time></trkpt><trkpt lat="39.07778919891347" lon="16.193210425962974"><ele>119.0</ele><time>2026-04-12T17:13:52Z</time></trkpt><trkpt lat="39.07798164275431" lon="16.193391638794658"><ele>119.0</ele><time>2026-04-12T17:13:53Z</time></trkpt><trkpt lat="39.0781723189359" lon="16.193573058606287"><ele>114.0</ele><time>2026-04-12T17:13:54Z</time></trkpt><trkpt lat="39.078359845434264" lon="16.193766576290546"><ele>109.0</ele><time>2026-04-12T17:13:55Z</time></trkpt><trkpt lat="39.07855071561184" lon="16.193978671934754"><ele>112.5</ele><time>2026-04-12T17:13:56Z</time></trkpt><trkpt lat="39.07874598540574" lon="16.194214201498024"><ele>116.0</ele><time>2026-04-12T17:13:57Z</time></trkpt><trkpt lat="39.07893843939372" lon="16.1944631787288"><ele>114.0</ele><time>2026-04-12T17:13:58Z</time></trkpt><trkpt lat="39.079118725169344" lon="16.19473195560413"><ele>112.0</ele><time>2026-04-12T17:13:59Z</time></trkpt><trkpt lat="39.079283935092846" lon="16.194996073120127"><ele>117.0</ele><time>2026-04-12T17:14:00Z</time></trkpt><trkpt lat="39.07944737519962" lon="16.195263473655626"><ele>122.0</ele><time>2026-04-12T17:14:01Z</time></trkpt><trkpt lat="39.07959354876998" lon="16.19555164107611"><ele>135.5</ele><time>2026-04-12T17:14:02Z</time></trkpt><trkpt lat="39.07973285006402" lon="16.19583842057345"><ele>149.0</ele><time>2026-04-12T17:14:03Z</time></trkpt><trkpt lat="39.07985786598885" lon="16.196129932529328"><ele>134.0</ele><time>2026-04-12T17:14:04Z</time></trkpt><trkpt lat="39.079974462195096" lon="16.196424898108415"><ele>119.0</ele><time>2026-04-12T17:14:05Z</time></trkpt><trkpt lat="39.08007814658154" lon="16.19673114550427"><ele>119.0</ele><time>2026-04-12T17:14:06Z</time></trkpt><trkpt lat="39.08017286825097" lon="16.197028456520894"><ele>119.0</ele><time>2026-04-12T17:14:07Z</time></trkpt><trkpt lat="39.080260346584225" lon="16.197328931116186"><ele>123.0</ele><time>2026-04-12T17:14:07.999Z</time></trkpt><trkpt lat="39.08033591357852" lon="16.197630547566273"><ele>127.0</ele><time>2026-04-12T17:14:08.999Z</time></trkpt><trkpt lat="39.08040556453966" lon="16.19793633488899"><ele>131.0</ele><time>2026-04-12T17:14:09.999Z</time></trkpt><trkpt lat="39.08046465305283" lon="16.19824440718838"><ele>135.0</ele><time>2026-04-12T17:14:10.999Z</time></trkpt><trkpt lat="39.08051268515222" lon="16.19855558417653"><ele>135.0</ele><time>2026-04-12T17:14:11.999Z</time></trkpt><trkpt lat="39.080551063073145" lon="16.198873669455732"><ele>135.0</ele><time>2026-04-12T17:14:12.999Z</time></trkpt><trkpt lat="39.080579909643546" lon="16.199191285936436"><ele>138.5</ele><time>2026-04-12T17:14:13.999Z</time></trkpt><trkpt lat="39.0805982510454" lon="16.199509774222964"><ele>142.0</ele><time>2026-04-12T17:14:14.999Z</time></trkpt><trkpt lat="39.080607821311915" lon="16.199832932251557"><ele>142.0</ele><time>2026-04-12T17:14:15.999Z</time></trkpt><trkpt lat="39.08060631065633" lon="16.20015701760385"><ele>142.0</ele><time>2026-04-12T17:14:16.999Z</time></trkpt><trkpt lat="39.08059317234001" lon="16.20047622457858"><ele>143.5</ele><time>2026-04-12T17:14:17.999Z</time></trkpt><trkpt lat="39.080569094182664" lon="16.200795144402438"><ele>145.0</ele><time>2026-04-12T17:14:18.999Z</time></trkpt><trkpt lat="39.08053589284475" lon="16.201115869889318"><ele>145.0</ele><time>2026-04-12T17:14:19.999Z</time></trkpt><trkpt lat="39.080494433419574" lon="16.2014365466419"><ele>145.0</ele><time>2026-04-12T17:14:20.999Z</time></trkpt><trkpt lat="39.08044199786393" lon="16.20175318366693"><ele>145.0</ele><time>2026-04-12T17:14:21.999Z</time></trkpt><trkpt lat="39.08038366281975" lon="16.202064709443523"><ele>145.0</ele><time>2026-04-12T17:14:22.999Z</time></trkpt><trkpt lat="39.080323827578546" lon="16.202375094214027"><ele>144.5</ele><time>2026-04-12T17:14:23.999Z</time></trkpt><trkpt lat="39.08026373318885" lon="16.202684350069966"><ele>144.0</ele><time>2026-04-12T17:14:24.999Z</time></trkpt><trkpt lat="39.08020234793556" lon="16.202997829624902"><ele>140.0</ele><time>2026-04-12T17:14:25.999Z</time></trkpt><trkpt lat="39.08014519435937" lon="16.20331289960186"><ele>136.0</ele><time>2026-04-12T17:14:26.999Z</time></trkpt><trkpt lat="39.08009403826602" lon="16.203624129658415"><ele>136.0</ele><time>2026-04-12T17:14:27.999Z</time></trkpt><trkpt lat="39.08004888765842" lon="16.20394482526675"><ele>136.0</ele><time>2026-04-12T17:14:28.999Z</time></trkpt><trkpt lat="39.08001128194075" lon="16.204264953341575"><ele>132.5</ele><time>2026-04-12T17:14:29.999Z</time></trkpt><trkpt lat="39.07998296553087" lon="16.204586176784208"><ele>129.0</ele><time>2026-04-12T17:14:30.999Z</time></trkpt><trkpt lat="39.07996236468048" lon="16.204912800540164"><ele>128.5</ele><time>2026-04-12T17:14:31.999Z</time></trkpt><trkpt lat="39.0799565669964" lon="16.205239061828223"><ele>128.0</ele><time>2026-04-12T17:14:32.999Z</time></trkpt><trkpt lat="39.079963904535205" lon="16.205567052027597"><ele>130.0</ele><time>2026-04-12T17:14:33.999Z</time></trkpt><trkpt lat="39.079974695966655" lon="16.20589257587739"><ele>132.0</ele><time>2026-04-12T17:14:34.999Z</time></trkpt><trkpt lat="39.07999705749707" lon="16.206215233487914"><ele>134.0</ele><time>2026-04-12T17:14:35.999Z</time></trkpt><trkpt lat="39.08003261174984" lon="16.20652906607575"><ele>136.0</ele><time>2026-04-12T17:14:36.999Z</time></trkpt><trkpt lat="39.08007818736614" lon="16.20683739947653"><ele>136.0</ele><time>2026-04-12T17:14:37.999Z</time></trkpt><trkpt lat="39.08012892306958" lon="16.207151719822125"><ele>136.0</ele><time>2026-04-12T17:14:38.999Z</time></trkpt><trkpt lat="39.08019339487865" lon="16.207461615968587"><ele>140.0</ele><time>2026-04-12T17:14:39.999Z</time></trkpt><trkpt lat="39.08025609308705" lon="16.207774826510583"><ele>144.0</ele><time>2026-04-12T17:14:40.999Z</time></trkpt><trkpt lat="39.080318051148794" lon="16.208085834819418"><ele>153.5</ele><time>2026-04-12T17:14:41.999Z</time></trkpt><trkpt lat="39.08037774141597" lon="16.208398281487888"><ele>163.0</ele><time>2026-04-12T17:14:42.999Z</time></trkpt><trkpt lat="39.080440447763614" lon="16.208708647639895"><ele>166.5</ele><time>2026-04-12T17:14:43.999Z</time></trkpt><trkpt lat="39.080500881126824" lon="16.209017007035335"><ele>170.0</ele><time>2026-04-12T17:14:44.999Z</time></trkpt><trkpt lat="39.08056523581175" lon="16.209322332888792"><ele>170.0</ele><time>2026-04-12T17:14:45.999Z</time></trkpt><trkpt lat="39.08063090394512" lon="16.209622633657283"><ele>170.0</ele><time>2026-04-12T17:14:46.999Z</time></trkpt><trkpt lat="39.080691988815545" lon="16.20992140341616"><ele>167.0</ele><time>2026-04-12T17:14:47.999Z</time></trkpt><trkpt lat="39.08074869290748" lon="16.21021996602341"><ele>164.0</ele><time>2026-04-12T17:14:48.999Z</time></trkpt><trkpt lat="39.08081330586497" lon="16.21050834044538"><ele>158.5</ele><time>2026-04-12T17:14:49.999Z</time></trkpt><trkpt lat="39.08087322627267" lon="16.21079767856258"><ele>153.0</ele><time>2026-04-12T17:14:50.999Z</time></trkpt><trkpt lat="39.080937695084216" lon="16.211086270917203"><ele>153.0</ele><time>2026-04-12T17:14:51.999Z</time></trkpt><trkpt lat="39.081003848274854" lon="16.211378994127283"><ele>153.0</ele><time>2026-04-12T17:14:52.999Z</time></trkpt><trkpt lat="39.08108245323167" lon="16.211686661094504"><ele>156.5</ele><time>2026-04-12T17:14:53.999Z</time></trkpt><trkpt lat="39.08116498896164" lon="16.21199846309403"><ele>160.0</ele><time>2026-04-12T17:14:54.999Z</time></trkpt><trkpt lat="39.081260610887234" lon="16.21232372084472"><ele>162.0</ele><time>2026-04-12T17:14:55.999Z</time></trkpt><trkpt lat="39.08135753893659" lon="16.21265566443051"><ele>164.0</ele><time>2026-04-12T17:14:56.999Z</time></trkpt><trkpt lat="39.08146295749907" lon="16.21299056288273"><ele>162.5</ele><time>2026-04-12T17:14:57.999Z</time></trkpt><trkpt lat="39.081574843705035" lon="16.21333168666748"><ele>161.0</ele><time>2026-04-12T17:14:58.999Z</time></trkpt><trkpt lat="39.08169320101371" lon="16.213658198236338"><ele>157.5</ele><time>2026-04-12T17:14:59.999Z</time></trkpt><trkpt lat="39.08181924692449" lon="16.21398994274944"><ele>154.0</ele><time>2026-04-12T17:15:00.999Z</time></trkpt><trkpt lat="39.08194916223025" lon="16.214319347088036"><ele>154.0</ele><time>2026-04-12T17:15:01.999Z</time></trkpt><trkpt lat="39.08208431657298" lon="16.214640894923573"><ele>154.0</ele><time>2026-04-12T17:15:02.999Z</time></trkpt><trkpt lat="39.0822222080059" lon="16.214960051289115"><ele>150.0</ele><time>2026-04-12T17:15:03.999Z</time></trkpt><trkpt lat="39.082369222145935" lon="16.21528832613442"><ele>146.0</ele><time>2026-04-12T17:15:04.999Z</time></trkpt><trkpt lat="39.0825207218632" lon="16.215604740474323"><ele>151.5</ele><time>2026-04-12T17:15:05.998Z</time></trkpt><trkpt lat="39.0826791483197" lon="16.215907717108678"><ele>157.0</ele><time>2026-04-12T17:15:06.998Z</time></trkpt><trkpt lat="39.0828434092059" lon="16.216203523971025"><ele>158.0</ele><time>2026-04-12T17:15:07.998Z</time></trkpt><trkpt lat="39.083011208079284" lon="16.216497198937656"><ele>159.0</ele><time>2026-04-12T17:15:08.998Z</time></trkpt><trkpt lat="39.083178805061806" lon="16.21678768849017"><ele>152.0</ele><time>2026-04-12T17:15:09.998Z</time></trkpt><trkpt lat="39.08334665239318" lon="16.217065893492606"><ele>145.0</ele><time>2026-04-12T17:15:10.998Z</time></trkpt><trkpt lat="39.08351961254574" lon="16.217336456461684"><ele>145.0</ele><time>2026-04-12T17:15:11.998Z</time></trkpt><trkpt lat="39.083695901168475" lon="16.21760383365215"><ele>145.0</ele><time>2026-04-12T17:15:12.998Z</time></trkpt><trkpt lat="39.08387059873171" lon="16.217864578559304"><ele>145.0</ele><time>2026-04-12T17:15:13.998Z</time></trkpt><trkpt lat="39.08404822767029" lon="16.21811756823432"><ele>145.0</ele><time>2026-04-12T17:15:14.998Z</time></trkpt><trkpt lat="39.084229508368004" lon="16.218359536051835"><ele>144.0</ele><time>2026-04-12T17:15:15.998Z</time></trkpt><trkpt lat="39.08440500425155" lon="16.21858804454775"><ele>143.0</ele><time>2026-04-12T17:15:16.998Z</time></trkpt><trkpt lat="39.08457820391451" lon="16.21879944020319"><ele>142.5</ele><time>2026-04-12T17:15:17.998Z</time></trkpt><trkpt lat="39.084751855783125" lon="16.219005758378987"><ele>142.0</ele><time>2026-04-12T17:15:18.998Z</time></trkpt><trkpt lat="39.084919341270634" lon="16.219203157664527"><ele>143.0</ele><time>2026-04-12T17:15:19.998Z</time></trkpt><trkpt lat="39.085088150869765" lon="16.219404858751677"><ele>144.0</ele><time>2026-04-12T17:15:20.998Z</time></trkpt><trkpt lat="39.085256686162495" lon="16.219605666233225"><ele>144.0</ele><time>2026-04-12T17:15:21.998Z</time></trkpt><trkpt lat="39.085424090071" lon="16.219808249880696"><ele>144.0</ele><time>2026-04-12T17:15:22.998Z</time></trkpt><trkpt lat="39.08559247444644" lon="16.2200158800043"><ele>145.0</ele><time>2026-04-12T17:15:23.998Z</time></trkpt><trkpt lat="39.085768665287446" lon="16.220229132173753"><ele>146.0</ele><time>2026-04-12T17:15:24.998Z</time></trkpt><trkpt lat="39.08593673170989" lon="16.22043655121743"><ele>146.0</ele><time>2026-04-12T17:15:25.998Z</time></trkpt><trkpt lat="39.08610745850478" lon="16.22064119300635"><ele>146.0</ele><time>2026-04-12T17:15:26.998Z</time></trkpt><trkpt lat="39.08627867050818" lon="16.2208477794702"><ele>147.5</ele><time>2026-04-12T17:15:27.998Z</time></trkpt><trkpt lat="39.086449744618434" lon="16.22105189100473"><ele>149.0</ele><time>2026-04-12T17:15:28.998Z</time></trkpt><trkpt lat="39.08662521413494" lon="16.221249885846028"><ele>149.0</ele><time>2026-04-12T17:15:29.998Z</time></trkpt><trkpt lat="39.08679674197042" lon="16.221458160212734"><ele>149.0</ele><time>2026-04-12T17:15:30.998Z</time></trkpt><trkpt lat="39.0869689177608" lon="16.22166194634897"><ele>153.5</ele><time>2026-04-12T17:15:31.998Z</time></trkpt><trkpt lat="39.08714212428052" lon="16.22186333186866"><ele>158.0</ele><time>2026-04-12T17:15:32.998Z</time></trkpt><trkpt lat="39.0873150094961" lon="16.222071439484484"><ele>152.0</ele><time>2026-04-12T17:15:33.998Z</time></trkpt><trkpt lat="39.08748627189457" lon="16.222279038665633"><ele>146.0</ele><time>2026-04-12T17:15:34.998Z</time></trkpt><trkpt lat="39.08765861164575" lon="16.222492510819507"><ele>145.0</ele><time>2026-04-12T17:15:36Z</time></trkpt><trkpt lat="39.08782575241255" lon="16.222709140389156"><ele>144.0</ele><time>2026-04-12T17:15:37Z</time></trkpt><trkpt lat="39.087987867607815" lon="16.222937413165205"><ele>144.5</ele><time>2026-04-12T17:15:38Z</time></trkpt><trkpt lat="39.08813869349518" lon="16.223166096001528"><ele>145.0</ele><time>2026-04-12T17:15:39Z</time></trkpt><trkpt lat="39.08828661875673" lon="16.223409407288813"><ele>146.5</ele><time>2026-04-12T17:15:40Z</time></trkpt><trkpt lat="39.08843013011402" lon="16.22365579118145"><ele>148.0</ele><time>2026-04-12T17:15:41Z</time></trkpt><trkpt lat="39.08856471571493" lon="16.223907515707275"><ele>148.5</ele><time>2026-04-12T17:15:42Z</time></trkpt><trkpt lat="39.08869443744625" lon="16.224167781035973"><ele>149.0</ele><time>2026-04-12T17:15:43Z</time></trkpt><trkpt lat="39.08881657999411" lon="16.224432017217087"><ele>149.0</ele><time>2026-04-12T17:15:44Z</time></trkpt><trkpt lat="39.088937723413544" lon="16.22470074945567"><ele>149.0</ele><time>2026-04-12T17:15:45Z</time></trkpt><trkpt lat="39.08904533504723" lon="16.22498067249866"><ele>150.5</ele><time>2026-04-12T17:15:46Z</time></trkpt><trkpt lat="39.08914705666541" lon="16.225263960191313"><ele>152.0</ele><time>2026-04-12T17:15:47Z</time></trkpt><trkpt lat="39.0892421396327" lon="16.225554595188008"><ele>152.0</ele><time>2026-04-12T17:15:48Z</time></trkpt><trkpt lat="39.08933187736712" lon="16.225849612534766"><ele>152.0</ele><time>2026-04-12T17:15:49Z</time></trkpt><trkpt lat="39.089415960930175" lon="16.226152348771027"><ele>152.0</ele><time>2026-04-12T17:15:50Z</time></trkpt><trkpt lat="39.089495003890896" lon="16.22645871416056"><ele>152.0</ele><time>2026-04-12T17:15:51Z</time></trkpt><trkpt lat="39.08956911337215" lon="16.226770339292887"><ele>152.0</ele><time>2026-04-12T17:15:52Z</time></trkpt><trkpt lat="39.08964399416023" lon="16.22708298163027"><ele>152.0</ele><time>2026-04-12T17:15:53Z</time></trkpt><trkpt lat="39.089717389151694" lon="16.227395003129192"><ele>154.5</ele><time>2026-04-12T17:15:54Z</time></trkpt><trkpt lat="39.0897927681397" lon="16.227707994218708"><ele>157.0</ele><time>2026-04-12T17:15:55Z</time></trkpt><trkpt lat="39.08987165865456" lon="16.22802142163961"><ele>157.5</ele><time>2026-04-12T17:15:56Z</time></trkpt><trkpt lat="39.089955943892754" lon="16.22833161691122"><ele>158.0</ele><time>2026-04-12T17:15:57Z</time></trkpt><trkpt lat="39.09005333282192" lon="16.228642518278278"><ele>158.0</ele><time>2026-04-12T17:15:58Z</time></trkpt><trkpt lat="39.09015252320181" lon="16.22894705497095"><ele>158.0</ele><time>2026-04-12T17:15:59Z</time></trkpt><trkpt lat="39.09026329467686" lon="16.22925118171396"><ele>157.5</ele><time>2026-04-12T17:16:00Z</time></trkpt><trkpt lat="39.09038386209307" lon="16.2295490064423"><ele>157.0</ele><time>2026-04-12T17:16:01Z</time></trkpt><trkpt lat="39.09051397207457" lon="16.22984021368806"><ele>157.0</ele><time>2026-04-12T17:16:02Z</time></trkpt><trkpt lat="39.090651395342555" lon="16.230127240110775"><ele>157.0</ele><time>2026-04-12T17:16:03Z</time></trkpt><trkpt lat="39.090799028436464" lon="16.230407406747243"><ele>156.5</ele><time>2026-04-12T17:16:04Z</time></trkpt><trkpt lat="39.09095323119362" lon="16.23068156328788"><ele>156.0</ele><time>2026-04-12T17:16:05Z</time></trkpt><trkpt lat="39.09111532150141" lon="16.23094780243947"><ele>156.0</ele><time>2026-04-12T17:16:06Z</time></trkpt><trkpt lat="39.09128567430455" lon="16.231206761060612"><ele>156.0</ele><time>2026-04-12T17:16:07Z</time></trkpt><trkpt lat="39.09146630826541" lon="16.231461388591786"><ele>158.0</ele><time>2026-04-12T17:16:08Z</time></trkpt><trkpt lat="39.09165113278025" lon="16.231703564394824"><ele>160.0</ele><time>2026-04-12T17:16:09Z</time></trkpt><trkpt lat="39.09184222339892" lon="16.23194125277483"><ele>160.0</ele><time>2026-04-12T17:16:10Z</time></trkpt><trkpt lat="39.09203993814595" lon="16.232164076049095"><ele>160.0</ele><time>2026-04-12T17:16:11Z</time></trkpt><trkpt lat="39.0922414330513" lon="16.232373334725086"><ele>159.5</ele><time>2026-04-12T17:16:12Z</time></trkpt><trkpt lat="39.09245226331921" lon="16.232583432386914"><ele>159.0</ele><time>2026-04-12T17:16:12.999Z</time></trkpt><trkpt lat="39.092664332723764" lon="16.232780838109804"><ele>159.0</ele><time>2026-04-12T17:16:13.999Z</time></trkpt><trkpt lat="39.092878348247055" lon="16.23297081744925"><ele>159.0</ele><time>2026-04-12T17:16:14.999Z</time></trkpt><trkpt lat="39.09309768735296" lon="16.233152286958475"><ele>161.0</ele><time>2026-04-12T17:16:15.999Z</time></trkpt><trkpt lat="39.09331848250808" lon="16.233321762371528"><ele>163.0</ele><time>2026-04-12T17:16:16.999Z</time></trkpt><trkpt lat="39.093540737635344" lon="16.233490096995094"><ele>163.0</ele><time>2026-04-12T17:16:17.999Z</time></trkpt><trkpt lat="39.09376425842501" lon="16.233662184183846"><ele>163.0</ele><time>2026-04-12T17:16:18.999Z</time></trkpt><trkpt lat="39.093984237416706" lon="16.233837622821994"><ele>166.5</ele><time>2026-04-12T17:16:19.999Z</time></trkpt><trkpt lat="39.094202112288365" lon="16.23401880217673"><ele>170.0</ele><time>2026-04-12T17:16:20.999Z</time></trkpt><trkpt lat="39.09441807563158" lon="16.234209169882693"><ele>170.0</ele><time>2026-04-12T17:16:21.999Z</time></trkpt><trkpt lat="39.094629337218" lon="16.23441582111283"><ele>170.0</ele><time>2026-04-12T17:16:22.999Z</time></trkpt><trkpt lat="39.094835701649394" lon="16.234617579269987"><ele>170.0</ele><time>2026-04-12T17:16:23.999Z</time></trkpt><trkpt lat="39.09503811584796" lon="16.234844393249105"><ele>170.0</ele><time>2026-04-12T17:16:24.999Z</time></trkpt><trkpt lat="39.09523373296373" lon="16.23507779224263"><ele>170.0</ele><time>2026-04-12T17:16:25.999Z</time></trkpt><trkpt lat="39.095425782915" lon="16.23531938480465"><ele>170.0</ele><time>2026-04-12T17:16:26.999Z</time></trkpt><trkpt lat="39.095614683675265" lon="16.235567978456643"><ele>170.0</ele><time>2026-04-12T17:16:27.999Z</time></trkpt><trkpt lat="39.09580350598288" lon="16.235809773336033"><ele>170.0</ele><time>2026-04-12T17:16:28.999Z</time></trkpt><trkpt lat="39.09597646087403" lon="16.236079252048917"><ele>170.0</ele><time>2026-04-12T17:16:29.999Z</time></trkpt><trkpt lat="39.09615182884696" lon="16.236347573970075"><ele>170.0</ele><time>2026-04-12T17:16:30.999Z</time></trkpt><trkpt lat="39.096330086557266" lon="16.23662170977369"><ele>171.0</ele><time>2026-04-12T17:16:31.999Z</time></trkpt><trkpt lat="39.09651162243375" lon="16.23690164419863"><ele>172.0</ele><time>2026-04-12T17:16:32.999Z</time></trkpt><trkpt lat="39.09669663388573" lon="16.237185267035517"><ele>168.5</ele><time>2026-04-12T17:16:33.999Z</time></trkpt><trkpt lat="39.09687689508845" lon="16.237454227836782"><ele>165.0</ele><time>2026-04-12T17:16:34.999Z</time></trkpt><trkpt lat="39.09704896129895" lon="16.23770562127738"><ele>165.0</ele><time>2026-04-12T17:16:35.999Z</time></trkpt><trkpt lat="39.097219175595" lon="16.237945729359936"><ele>165.0</ele><time>2026-04-12T17:16:36.999Z</time></trkpt><trkpt lat="39.09738947166306" lon="16.23817946498527"><ele>168.0</ele><time>2026-04-12T17:16:37.999Z</time></trkpt><trkpt lat="39.09756350966522" lon="16.238409032165922"><ele>171.0</ele><time>2026-04-12T17:16:38.999Z</time></trkpt><trkpt lat="39.09774231886846" lon="16.238630902163575"><ele>171.0</ele><time>2026-04-12T17:16:39.999Z</time></trkpt><trkpt lat="39.09793335627265" lon="16.23884249351716"><ele>171.0</ele><time>2026-04-12T17:16:40.999Z</time></trkpt><trkpt lat="39.09812537890691" lon="16.239046647997323"><ele>176.5</ele><time>2026-04-12T17:16:41.999Z</time></trkpt><trkpt lat="39.09831776979372" lon="16.23924658028535"><ele>182.0</ele><time>2026-04-12T17:16:42.999Z</time></trkpt><trkpt lat="39.09851369797348" lon="16.23943778789704"><ele>182.0</ele><time>2026-04-12T17:16:43.999Z</time></trkpt><trkpt lat="39.0987102756976" lon="16.239634011355776"><ele>182.0</ele><time>2026-04-12T17:16:44.999Z</time></trkpt><trkpt lat="39.09890745552736" lon="16.23983614942723"><ele>200.5</ele><time>2026-04-12T17:16:45.999Z</time></trkpt><trkpt lat="39.09910796748614" lon="16.24004527317123"><ele>219.0</ele><time>2026-04-12T17:16:47.014Z</time></trkpt><trkpt lat="39.099307330182754" lon="16.24025112727967"><ele>219.0</ele><time>2026-04-12T17:16:48.019Z</time></trkpt><trkpt lat="39.09950616229533" lon="16.240455733717337"><ele>219.0</ele><time>2026-04-12T17:16:49.023Z</time></trkpt><trkpt lat="39.09970500758017" lon="16.24065761504951"><ele>213.5</ele><time>2026-04-12T17:16:50.024Z</time></trkpt><trkpt lat="39.09990262416782" lon="16.240860905784764"><ele>208.0</ele><time>2026-04-12T17:16:51.021Z</time></trkpt><trkpt lat="39.10196855667895" lon="16.243702378139126"><ele>208.0</ele><time>2026-04-12T17:17:03.999Z</time></trkpt><trkpt lat="39.10213908053631" lon="16.243905681975093"><ele>208.0</ele><time>2026-04-12T17:17:04.999Z</time></trkpt><trkpt lat="39.10234833167735" lon="16.24413521800616"><ele>199.5</ele><time>2026-04-12T17:17:05.999Z</time></trkpt><trkpt lat="39.10252830790761" lon="16.244338550997583"><ele>191.0</ele><time>2026-04-12T17:17:06.999Z</time></trkpt><trkpt lat="39.10269858946771" lon="16.244529895829157"><ele>191.0</ele><time>2026-04-12T17:17:07.999Z</time></trkpt><trkpt lat="39.102868245197946" lon="16.244728724471614"><ele>191.0</ele><time>2026-04-12T17:17:08.999Z</time></trkpt><trkpt lat="39.10303115272466" lon="16.24492817075992"><ele>189.66666666666666</ele><time>2026-04-12T17:17:09.999Z</time></trkpt><trkpt lat="39.10318550016149" lon="16.245131768553303"><ele>188.33333333333334</ele><time>2026-04-12T17:17:10.999Z</time></trkpt><trkpt lat="39.103336860962884" lon="16.245341645438366"><ele>187.0</ele><time>2026-04-12T17:17:11.998Z</time></trkpt><trkpt lat="39.10347837682202" lon="16.245555856991075"><ele>185.66666666666669</ele><time>2026-04-12T17:17:12.998Z</time></trkpt><trkpt lat="39.10361505858814" lon="16.245773125576402"><ele>184.33333333333334</ele><time>2026-04-12T17:17:13.998Z</time></trkpt><trkpt lat="39.103748437283635" lon="16.245996068939306"><ele>183.0</ele><time>2026-04-12T17:17:14.998Z</time></trkpt><trkpt lat="39.1038793306689" lon="16.246224711076508"><ele>183.0</ele><time>2026-04-12T17:17:15.998Z</time></trkpt><trkpt lat="39.104002545667726" lon="16.24645707634835"><ele>183.0</ele><time>2026-04-12T17:17:16.998Z</time></trkpt><trkpt lat="39.10412536330621" lon="16.24668808658292"><ele>183.0</ele><time>2026-04-12T17:17:17.998Z</time></trkpt><trkpt lat="39.10425436972028" lon="16.246919168526933"><ele>188.0</ele><time>2026-04-12T17:17:18.998Z</time></trkpt><trkpt lat="39.10438347974358" lon="16.247150896735825"><ele>193.0</ele><time>2026-04-12T17:17:19.998Z</time></trkpt><trkpt lat="39.104511032974735" lon="16.247382893588124"><ele>198.0</ele><time>2026-04-12T17:17:20.998Z</time></trkpt><trkpt lat="39.10464208091371" lon="16.247618049408715"><ele>200.66666666666669</ele><time>2026-04-12T17:17:21.998Z</time></trkpt><trkpt lat="39.104774530056474" lon="16.24784930443763"><ele>203.33333333333334</ele><time>2026-04-12T17:17:22.998Z</time></trkpt><trkpt lat="39.10491217984956" lon="16.248072727714366"><ele>206.0</ele><time>2026-04-12T17:17:23.998Z</time></trkpt><trkpt lat="39.105054675794285" lon="16.248292919001212"><ele>209.33333333333334</ele><time>2026-04-12T17:17:24.998Z</time></trkpt><trkpt lat="39.10520696419531" lon="16.24849892017168"><ele>212.66666666666669</ele><time>2026-04-12T17:17:25.998Z</time></trkpt><trkpt lat="39.10537518701404" lon="16.24869282271224"><ele>216.0</ele><time>2026-04-12T17:17:26.998Z</time></trkpt><trkpt lat="39.10555469636082" lon="16.248869162721018"><ele>213.0</ele><time>2026-04-12T17:17:27.998Z</time></trkpt><trkpt lat="39.10574096244636" lon="16.249031235609092"><ele>210.0</ele><time>2026-04-12T17:17:28.998Z</time></trkpt><trkpt lat="39.1059300134488" lon="16.249193065124487"><ele>217.5</ele><time>2026-04-12T17:17:29.998Z</time></trkpt><trkpt lat="39.10612092996113" lon="16.24934897455363"><ele>225.0</ele><time>2026-04-12T17:17:30.998Z</time></trkpt><trkpt lat="39.106314252137174" lon="16.249501078311987"><ele>225.0</ele><time>2026-04-12T17:17:31.998Z</time></trkpt><trkpt lat="39.106508893673244" lon="16.249643362069794"><ele>225.0</ele><time>2026-04-12T17:17:32.998Z</time></trkpt><trkpt lat="39.10670862261312" lon="16.249779654431325"><ele>227.5</ele><time>2026-04-12T17:17:33.998Z</time></trkpt><trkpt lat="39.1069138978057" lon="16.249903632290664"><ele>230.0</ele><time>2026-04-12T17:17:34.998Z</time></trkpt><trkpt lat="39.10712171371444" lon="16.250016856573534"><ele>230.0</ele><time>2026-04-12T17:17:35.998Z</time></trkpt><trkpt lat="39.10733412731098" lon="16.250131303735117"><ele>230.0</ele><time>2026-04-12T17:17:36.998Z</time></trkpt><trkpt lat="39.1075523611004" lon="16.250248076452475"><ele>233.66666666666669</ele><time>2026-04-12T17:17:37.998Z</time></trkpt><trkpt lat="39.10775444045265" lon="16.25035704110322"><ele>237.33333333333331</ele><time>2026-04-12T17:17:38.998Z</time></trkpt><trkpt lat="39.10795790732395" lon="16.25046960658263"><ele>241.0</ele><time>2026-04-12T17:17:39.998Z</time></trkpt><trkpt lat="39.108155474659064" lon="16.250576494396963"><ele>240.33333333333331</ele><time>2026-04-12T17:17:40.998Z</time></trkpt><trkpt lat="39.108348188520765" lon="16.250681369998762"><ele>239.66666666666669</ele><time>2026-04-12T17:17:42Z</time></trkpt><trkpt lat="39.1085372709062" lon="16.2507845363356"><ele>239.0</ele><time>2026-04-12T17:17:43Z</time></trkpt><trkpt lat="39.10872604140627" lon="16.25089152497796"><ele>239.0</ele><time>2026-04-12T17:17:44Z</time></trkpt><trkpt lat="39.10891926922322" lon="16.250996430096976"><ele>239.0</ele><time>2026-04-12T17:17:45Z</time></trkpt><trkpt lat="39.109108336828136" lon="16.251102491666657"><ele>239.0</ele><time>2026-04-12T17:17:46Z</time></trkpt><trkpt lat="39.10930015242387" lon="16.25120205408777"><ele>238.33333333333334</ele><time>2026-04-12T17:17:47Z</time></trkpt><trkpt lat="39.10949222720653" lon="16.251306403899388"><ele>237.66666666666669</ele><time>2026-04-12T17:17:48Z</time></trkpt><trkpt lat="39.10968025933141" lon="16.25141503164663"><ele>237.0</ele><time>2026-04-12T17:17:49Z</time></trkpt><trkpt lat="39.10986519289424" lon="16.251539155817696"><ele>235.66666666666669</ele><time>2026-04-12T17:17:50Z</time></trkpt><trkpt lat="39.11004511568471" lon="16.251686399984752"><ele>234.33333333333334</ele><time>2026-04-12T17:17:51Z</time></trkpt><trkpt lat="39.110217952106105" lon="16.251854084334305"><ele>233.0</ele><time>2026-04-12T17:17:52Z</time></trkpt><trkpt lat="39.110382440019464" lon="16.252041429309955"><ele>233.0</ele><time>2026-04-12T17:17:53Z</time></trkpt><trkpt lat="39.11053990309503" lon="16.252248893033368"><ele>233.0</ele><time>2026-04-12T17:17:54Z</time></trkpt><trkpt lat="39.11069074862328" lon="16.252464402072643"><ele>239.5</ele><time>2026-04-12T17:17:55Z</time></trkpt><trkpt lat="39.11084170757698" lon="16.25268445651909"><ele>246.0</ele><time>2026-04-12T17:17:56Z</time></trkpt><trkpt lat="39.11099325979734" lon="16.25289834961512"><ele>246.0</ele><time>2026-04-12T17:17:57Z</time></trkpt><trkpt lat="39.11114397439644" lon="16.25310476258183"><ele>246.0</ele><time>2026-04-12T17:17:58Z</time></trkpt><trkpt lat="39.11129676070177" lon="16.253305042164317"><ele>246.0</ele><time>2026-04-12T17:17:59Z</time></trkpt><trkpt lat="39.11145500409638" lon="16.25349789457803"><ele>242.0</ele><time>2026-04-12T17:18:00Z</time></trkpt><trkpt lat="39.11161974385944" lon="16.253684484473123"><ele>238.0</ele><time>2026-04-12T17:18:01Z</time></trkpt><trkpt lat="39.111799607685654" lon="16.253844116755367"><ele>234.0</ele><time>2026-04-12T17:18:02Z</time></trkpt><trkpt lat="39.111986771571495" lon="16.253987508890805"><ele>234.0</ele><time>2026-04-12T17:18:03Z</time></trkpt><trkpt lat="39.11217931268314" lon="16.254115509513195"><ele>234.0</ele><time>2026-04-12T17:18:04Z</time></trkpt><trkpt lat="39.11237051108838" lon="16.254249462811796"><ele>234.0</ele><time>2026-04-12T17:18:05Z</time></trkpt><trkpt lat="39.11256230814546" lon="16.25438316813524"><ele>232.0</ele><time>2026-04-12T17:18:06Z</time></trkpt><trkpt lat="39.11275190902757" lon="16.25452270440104"><ele>230.0</ele><time>2026-04-12T17:18:07Z</time></trkpt><trkpt lat="39.11294284792247" lon="16.25466113732969"><ele>228.0</ele><time>2026-04-12T17:18:08Z</time></trkpt><trkpt lat="39.11313165369673" lon="16.254799493235915"><ele>236.66666666666669</ele><time>2026-04-12T17:18:09Z</time></trkpt><trkpt lat="39.113322684362565" lon="16.254931247402396"><ele>245.33333333333334</ele><time>2026-04-12T17:18:10Z</time></trkpt><trkpt lat="39.11351937380952" lon="16.255052224445294"><ele>254.0</ele><time>2026-04-12T17:18:11Z</time></trkpt><trkpt lat="39.11372362094382" lon="16.255145202197475"><ele>254.0</ele><time>2026-04-12T17:18:12Z</time></trkpt><trkpt lat="39.113932604294156" lon="16.255227893276672"><ele>254.0</ele><time>2026-04-12T17:18:13Z</time></trkpt><trkpt lat="39.11414357299629" lon="16.25528740156526"><ele>254.0</ele><time>2026-04-12T17:18:14Z</time></trkpt><trkpt lat="39.114351005096424" lon="16.255338611046387"><ele>262.0</ele><time>2026-04-12T17:18:15Z</time></trkpt><trkpt lat="39.114558719450116" lon="16.255371016507148"><ele>270.0</ele><time>2026-04-12T17:18:16Z</time></trkpt><trkpt lat="39.11475609888864" lon="16.255391703298567"><ele>278.0</ele><time>2026-04-12T17:18:17Z</time></trkpt><trkpt lat="39.11494848164682" lon="16.255401335200215"><ele>281.33333333333337</ele><time>2026-04-12T17:18:18Z</time></trkpt><trkpt lat="39.11513348675942" lon="16.255408422193895"><ele>284.6666666666667</ele><time>2026-04-12T17:18:19Z</time></trkpt><trkpt lat="39.11532314413102" lon="16.255407986864824"><ele>288.0</ele><time>2026-04-12T17:18:20Z</time></trkpt><trkpt lat="39.115507235163065" lon="16.25540901423861"><ele>288.0</ele><time>2026-04-12T17:18:21Z</time></trkpt><trkpt lat="39.115697683306095" lon="16.255415024330674"><ele>288.0</ele><time>2026-04-12T17:18:22Z</time></trkpt><trkpt lat="39.11588601538996" lon="16.2554221681594"><ele>288.0</ele><time>2026-04-12T17:18:23Z</time></trkpt><trkpt lat="39.116073117258836" lon="16.255424539056914"><ele>290.3333333333333</ele><time>2026-04-12T17:18:24Z</time></trkpt><trkpt lat="39.116251000967154" lon="16.25543599171533"><ele>292.66666666666663</ele><time>2026-04-12T17:18:25Z</time></trkpt><trkpt lat="39.116426433495" lon="16.255442621662496"><ele>295.0</ele><time>2026-04-12T17:18:25.999Z</time></trkpt><trkpt lat="39.11659723965145" lon="16.255446428190137"><ele>295.0</ele><time>2026-04-12T17:18:26.999Z</time></trkpt><trkpt lat="39.11676474489939" lon="16.25545019805108"><ele>295.0</ele><time>2026-04-12T17:18:27.999Z</time></trkpt><trkpt lat="39.11693628877095" lon="16.255452944914545"><ele>295.0</ele><time>2026-04-12T17:18:28.999Z</time></trkpt><trkpt lat="39.117100731013686" lon="16.255456783757378"><ele>295.0</ele><time>2026-04-12T17:18:29.999Z</time></trkpt><trkpt lat="39.11727656688389" lon="16.255463791407873"><ele>295.0</ele><time>2026-04-12T17:18:30.999Z</time></trkpt><trkpt lat="39.11745092249651" lon="16.25548234804221"><ele>295.0</ele><time>2026-04-12T17:18:31.999Z</time></trkpt><trkpt lat="39.11762034040825" lon="16.255505613489944"><ele>291.66666666666663</ele><time>2026-04-12T17:18:32.999Z</time></trkpt><trkpt lat="39.11779804730477" lon="16.25554839453521"><ele>288.3333333333333</ele><time>2026-04-12T17:18:33.999Z</time></trkpt><trkpt lat="39.117969295054564" lon="16.25561396481647"><ele>285.0</ele><time>2026-04-12T17:18:34.999Z</time></trkpt><trkpt lat="39.11813937275676" lon="16.25568646016935"><ele>284.0</ele><time>2026-04-12T17:18:35.999Z</time></trkpt><trkpt lat="39.11831062482631" lon="16.255771463063386"><ele>283.0</ele><time>2026-04-12T17:18:36.999Z</time></trkpt><trkpt lat="39.11848028912829" lon="16.255852477724275"><ele>282.0</ele><time>2026-04-12T17:18:37.999Z</time></trkpt><trkpt lat="39.118653180325666" lon="16.25592967803326"><ele>282.0</ele><time>2026-04-12T17:18:38.999Z</time></trkpt><trkpt lat="39.118827989185085" lon="16.25600339049283"><ele>282.0</ele><time>2026-04-12T17:18:39.999Z</time></trkpt><trkpt lat="39.119003409317116" lon="16.2560710000827"><ele>282.0</ele><time>2026-04-12T17:18:40.999Z</time></trkpt><trkpt lat="39.11918128392723" lon="16.256134097303146"><ele>288.3333333333333</ele><time>2026-04-12T17:18:41.999Z</time></trkpt><trkpt lat="39.11936176574496" lon="16.256186083794727"><ele>294.66666666666663</ele><time>2026-04-12T17:18:42.999Z</time></trkpt><trkpt lat="39.119540052898024" lon="16.2562254924741"><ele>301.0</ele><time>2026-04-12T17:18:43.999Z</time></trkpt><trkpt lat="39.11972383698624" lon="16.25625268601097"><ele>303.0</ele><time>2026-04-12T17:18:44.999Z</time></trkpt><trkpt lat="39.119906005647564" lon="16.2562577219952"><ele>305.0</ele><time>2026-04-12T17:18:45.999Z</time></trkpt><trkpt lat="39.12009210783278" lon="16.256258068735253"><ele>307.0</ele><time>2026-04-12T17:18:46.999Z</time></trkpt><trkpt lat="39.12027366044398" lon="16.25625043303969"><ele>307.0</ele><time>2026-04-12T17:18:47.999Z</time></trkpt><trkpt lat="39.120457553089345" lon="16.256241604201918"><ele>307.0</ele><time>2026-04-12T17:18:48.999Z</time></trkpt><trkpt lat="39.12064028249316" lon="16.256239140592488"><ele>307.0</ele><time>2026-04-12T17:18:49.999Z</time></trkpt><trkpt lat="39.120823697668826" lon="16.2562367264754"><ele>306.66666666666663</ele><time>2026-04-12T17:18:50.999Z</time></trkpt><trkpt lat="39.12100250474324" lon="16.25624120517574"><ele>306.3333333333333</ele><time>2026-04-12T17:18:51.999Z</time></trkpt><trkpt lat="39.121183482680806" lon="16.256253922862264"><ele>306.0</ele><time>2026-04-12T17:18:52.999Z</time></trkpt><trkpt lat="39.12136500748866" lon="16.256276519212243"><ele>306.0</ele><time>2026-04-12T17:18:53.999Z</time></trkpt><trkpt lat="39.121546437342445" lon="16.25631309485542"><ele>306.0</ele><time>2026-04-12T17:18:54.999Z</time></trkpt><trkpt lat="39.121723674919394" lon="16.25635975880756"><ele>306.0</ele><time>2026-04-12T17:18:55.999Z</time></trkpt><trkpt lat="39.12190179388386" lon="16.256417956598323"><ele>300.3333333333333</ele><time>2026-04-12T17:18:56.999Z</time></trkpt><trkpt lat="39.12207556479471" lon="16.256487312625126"><ele>294.66666666666663</ele><time>2026-04-12T17:18:57.999Z</time></trkpt><trkpt lat="39.12225292668951" lon="16.256566119492643"><ele>289.0</ele><time>2026-04-12T17:18:58.999Z</time></trkpt><trkpt lat="39.12242400208853" lon="16.256659720009285"><ele>289.0</ele><time>2026-04-12T17:18:59.999Z</time></trkpt><trkpt lat="39.12259259036432" lon="16.256764183494568"><ele>289.0</ele><time>2026-04-12T17:19:00.999Z</time></trkpt><trkpt lat="39.12275416064734" lon="16.256883366370655"><ele>289.0</ele><time>2026-04-12T17:19:01.999Z</time></trkpt><trkpt lat="39.12291290384587" lon="16.257008643723324"><ele>289.0</ele><time>2026-04-12T17:19:02.999Z</time></trkpt><trkpt lat="39.1230716077629" lon="16.257145129093264"><ele>289.0</ele><time>2026-04-12T17:19:03.999Z</time></trkpt><trkpt lat="39.123231302509666" lon="16.257276402668328"><ele>289.0</ele><time>2026-04-12T17:19:04.999Z</time></trkpt><trkpt lat="39.12338821736403" lon="16.257416261775454"><ele>296.66666666666663</ele><time>2026-04-12T17:19:05.999Z</time></trkpt><trkpt lat="39.12353335852378" lon="16.257570939400456"><ele>304.3333333333333</ele><time>2026-04-12T17:19:06.999Z</time></trkpt><trkpt lat="39.123670807428994" lon="16.25774105852586"><ele>312.0</ele><time>2026-04-12T17:19:07.999Z</time></trkpt><trkpt lat="39.12380119480985" lon="16.25792605974751"><ele>312.0</ele><time>2026-04-12T17:19:08.999Z</time></trkpt><trkpt lat="39.123926009064675" lon="16.25811417748362"><ele>312.0</ele><time>2026-04-12T17:19:09.999Z</time></trkpt><trkpt lat="39.12404479677391" lon="16.258313034595183"><ele>312.0</ele><time>2026-04-12T17:19:10.999Z</time></trkpt><trkpt lat="39.124157391296144" lon="16.258520483149365"><ele>311.3333333333333</ele><time>2026-04-12T17:19:11.999Z</time></trkpt><trkpt lat="39.12426803204105" lon="16.258730577985844"><ele>310.66666666666663</ele><time>2026-04-12T17:19:12.999Z</time></trkpt><trkpt lat="39.12437890385668" lon="16.258940420662345"><ele>310.0</ele><time>2026-04-12T17:19:13.999Z</time></trkpt><trkpt lat="39.124487575685535" lon="16.259149343209355"><ele>310.0</ele><time>2026-04-12T17:19:14.999Z</time></trkpt><trkpt lat="39.124600059663514" lon="16.259362255255564"><ele>310.0</ele><time>2026-04-12T17:19:15.999Z</time></trkpt><trkpt lat="39.124715339449665" lon="16.25957305888959"><ele>310.0</ele><time>2026-04-12T17:19:16.999Z</time></trkpt><trkpt lat="39.12483120083546" lon="16.259786846306866"><ele>310.0</ele><time>2026-04-12T17:19:17.999Z</time></trkpt><trkpt lat="39.12494909869925" lon="16.26000872906888"><ele>310.0</ele><time>2026-04-12T17:19:18.999Z</time></trkpt><trkpt lat="39.12506813628574" lon="16.26023681781184"><ele>310.0</ele><time>2026-04-12T17:19:19.999Z</time></trkpt><trkpt lat="39.125186960472206" lon="16.26047375585189"><ele>308.0</ele><time>2026-04-12T17:19:20.999Z</time></trkpt><trkpt lat="39.125302934823466" lon="16.260720024836715"><ele>306.0</ele><time>2026-04-12T17:19:21.999Z</time></trkpt><trkpt lat="39.125409959681264" lon="16.26098543137805"><ele>306.0</ele><time>2026-04-12T17:19:22.999Z</time></trkpt><trkpt lat="39.125501412455385" lon="16.261268704515906"><ele>306.0</ele><time>2026-04-12T17:19:23.999Z</time></trkpt><trkpt lat="39.12556659224695" lon="16.26156463045207"><ele>309.0</ele><time>2026-04-12T17:19:24.998Z</time></trkpt><trkpt lat="39.12561863449527" lon="16.26187090016052"><ele>312.0</ele><time>2026-04-12T17:19:26.018Z</time></trkpt><trkpt lat="39.12567580754103" lon="16.26217780334461"><ele>310.0</ele><time>2026-04-12T17:19:27.019Z</time></trkpt><trkpt lat="39.12572672151332" lon="16.26248574787403"><ele>308.0</ele><time>2026-04-12T17:19:28.027Z</time></trkpt><trkpt lat="39.1257881488858" lon="16.262790632343215"><ele>317.5</ele><time>2026-04-12T17:19:29.026Z</time></trkpt><trkpt lat="39.1258330181615" lon="16.26309464839023"><ele>327.0</ele><time>2026-04-12T17:19:30.019Z</time></trkpt><trkpt lat="39.125821619057696" lon="16.26338628872123"><ele>327.0</ele><time>2026-04-12T17:19:30.998Z</time></trkpt><trkpt lat="39.12590750969594" lon="16.263669123403375"><ele>327.0</ele><time>2026-04-12T17:19:31.998Z</time></trkpt><trkpt lat="39.12601694998505" lon="16.263941544895914"><ele>323.0</ele><time>2026-04-12T17:19:32.998Z</time></trkpt><trkpt lat="39.12613906513373" lon="16.264197737766267"><ele>319.0</ele><time>2026-04-12T17:19:33.998Z</time></trkpt><trkpt lat="39.126279495096995" lon="16.264442072865336"><ele>319.0</ele><time>2026-04-12T17:19:34.998Z</time></trkpt><trkpt lat="39.12643295102519" lon="16.264675522202648"><ele>319.0</ele><time>2026-04-12T17:19:35.998Z</time></trkpt><trkpt lat="39.126599356890026" lon="16.264881655279456"><ele>322.5</ele><time>2026-04-12T17:19:36.998Z</time></trkpt><trkpt lat="39.12678339831635" lon="16.265064821566224"><ele>326.0</ele><time>2026-04-12T17:19:37.998Z</time></trkpt><trkpt lat="39.12697980334012" lon="16.265230503450567"><ele>326.0</ele><time>2026-04-12T17:19:38.998Z</time></trkpt><trkpt lat="39.12718279998249" lon="16.265371432115675"><ele>326.0</ele><time>2026-04-12T17:19:39.998Z</time></trkpt><trkpt lat="39.12739139028831" lon="16.265486968802126"><ele>325.33333333333337</ele><time>2026-04-12T17:19:40.998Z</time></trkpt><trkpt lat="39.127600887176044" lon="16.265595214567146"><ele>324.6666666666667</ele><time>2026-04-12T17:19:41.998Z</time></trkpt><trkpt lat="39.127807733671816" lon="16.265687001942254"><ele>324.0</ele><time>2026-04-12T17:19:42.998Z</time></trkpt><trkpt lat="39.12801487863872" lon="16.26576985984794"><ele>324.0</ele><time>2026-04-12T17:19:43.998Z</time></trkpt><trkpt lat="39.12821747996269" lon="16.265852146926985"><ele>324.0</ele><time>2026-04-12T17:19:44.998Z</time></trkpt><trkpt lat="39.128419413613116" lon="16.265939962797567"><ele>324.0</ele><time>2026-04-12T17:19:45.998Z</time></trkpt><trkpt lat="39.12862275181336" lon="16.26602615510213"><ele>329.3333333333333</ele><time>2026-04-12T17:19:46.998Z</time></trkpt><trkpt lat="39.12882183468095" lon="16.26610883748962"><ele>334.66666666666663</ele><time>2026-04-12T17:19:48Z</time></trkpt><trkpt lat="39.12901967496907" lon="16.266193694921405"><ele>340.0</ele><time>2026-04-12T17:19:49Z</time></trkpt><trkpt lat="39.129214721814954" lon="16.26628511476212"><ele>335.66666666666663</ele><time>2026-04-12T17:19:50Z</time></trkpt><trkpt lat="39.129409679636645" lon="16.26639036971392"><ele>331.3333333333333</ele><time>2026-04-12T17:19:51Z</time></trkpt><trkpt lat="39.12960124364563" lon="16.26652948008604"><ele>327.0</ele><time>2026-04-12T17:19:52Z</time></trkpt><trkpt lat="39.12977931324848" lon="16.266684280885922"><ele>338.5</ele><time>2026-04-12T17:19:53Z</time></trkpt><trkpt lat="39.12995210580569" lon="16.266866635604"><ele>350.0</ele><time>2026-04-12T17:19:54Z</time></trkpt><trkpt lat="39.130116643124055" lon="16.267070986458222"><ele>340.0</ele><time>2026-04-12T17:19:55Z</time></trkpt><trkpt lat="39.13027315489309" lon="16.267293814942235"><ele>330.0</ele><time>2026-04-12T17:19:56Z</time></trkpt><trkpt lat="39.130423557970495" lon="16.267530759689645"><ele>330.0</ele><time>2026-04-12T17:19:57Z</time></trkpt><trkpt lat="39.13055662285602" lon="16.26777615085131"><ele>330.0</ele><time>2026-04-12T17:19:58Z</time></trkpt><trkpt lat="39.13070652863461" lon="16.26804140517394"><ele>338.5</ele><time>2026-04-12T17:19:59Z</time></trkpt><trkpt lat="39.13086336888457" lon="16.26826636413808"><ele>347.0</ele><time>2026-04-12T17:20:00Z</time></trkpt><trkpt lat="39.13102279519326" lon="16.268489510903862"><ele>347.0</ele><time>2026-04-12T17:20:01Z</time></trkpt><trkpt lat="39.13119608051603" lon="16.26870049725846"><ele>347.0</ele><time>2026-04-12T17:20:02Z</time></trkpt><trkpt lat="39.131386808616526" lon="16.268887874892833"><ele>349.5</ele><time>2026-04-12T17:20:03Z</time></trkpt><trkpt lat="39.13159189298405" lon="16.269052229022833"><ele>352.0</ele><time>2026-04-12T17:20:04Z</time></trkpt><trkpt lat="39.13180759708914" lon="16.269197266282404"><ele>352.0</ele><time>2026-04-12T17:20:05Z</time></trkpt><trkpt lat="39.13203005834834" lon="16.269314645046215"><ele>352.0</ele><time>2026-04-12T17:20:06Z</time></trkpt><trkpt lat="39.132248011569" lon="16.269421962286728"><ele>350.5</ele><time>2026-04-12T17:20:07Z</time></trkpt><trkpt lat="39.13246418483647" lon="16.269529075261328"><ele>349.0</ele><time>2026-04-12T17:20:08Z</time></trkpt><trkpt lat="39.13266997608338" lon="16.269644522793914"><ele>349.0</ele><time>2026-04-12T17:20:09Z</time></trkpt><trkpt lat="39.13286176647687" lon="16.26977257354117"><ele>349.0</ele><time>2026-04-12T17:20:10Z</time></trkpt><trkpt lat="39.13303956926621" lon="16.269914705266746"><ele>349.0</ele><time>2026-04-12T17:20:11Z</time></trkpt><trkpt lat="39.13319617511844" lon="16.27006671115599"><ele>347.3333333333333</ele><time>2026-04-12T17:20:12Z</time></trkpt><trkpt lat="39.1333267244249" lon="16.27022243768835"><ele>345.6666666666667</ele><time>2026-04-12T17:20:13Z</time></trkpt><trkpt lat="39.1334523652552" lon="16.27038417210661"><ele>344.0</ele><time>2026-04-12T17:20:14Z</time></trkpt><trkpt lat="39.133576060922465" lon="16.270557564471588"><ele>341.0</ele><time>2026-04-12T17:20:15Z</time></trkpt><trkpt lat="39.133711248132194" lon="16.270722498287835"><ele>338.0</ele><time>2026-04-12T17:20:16Z</time></trkpt><trkpt lat="39.133839294261385" lon="16.270900131535154"><ele>335.0</ele><time>2026-04-12T17:20:17Z</time></trkpt><trkpt lat="39.13397237254033" lon="16.271075807449662"><ele>341.0</ele><time>2026-04-12T17:20:18Z</time></trkpt><trkpt lat="39.13410905700332" lon="16.271253715717794"><ele>347.0</ele><time>2026-04-12T17:20:19Z</time></trkpt><trkpt lat="39.134252516207084" lon="16.271428855351935"><ele>353.0</ele><time>2026-04-12T17:20:20Z</time></trkpt><trkpt lat="39.134406150003706" lon="16.271596355473"><ele>353.0</ele><time>2026-04-12T17:20:21Z</time></trkpt><trkpt lat="39.13456738776449" lon="16.2717497488584"><ele>353.0</ele><time>2026-04-12T17:20:22Z</time></trkpt><trkpt lat="39.13474838835031" lon="16.271893107409127"><ele>353.0</ele><time>2026-04-12T17:20:23Z</time></trkpt><trkpt lat="39.13492450524065" lon="16.27203714165445"><ele>353.5</ele><time>2026-04-12T17:20:24Z</time></trkpt><trkpt lat="39.135118622284374" lon="16.272163889104718"><ele>354.0</ele><time>2026-04-12T17:20:25Z</time></trkpt><trkpt lat="39.13533980676958" lon="16.272292721559044"><ele>354.0</ele><time>2026-04-12T17:20:26Z</time></trkpt><trkpt lat="39.13558458446443" lon="16.27242973410209"><ele>354.0</ele><time>2026-04-12T17:20:27Z</time></trkpt><trkpt lat="39.13583555493239" lon="16.27257236348118"><ele>353.5</ele><time>2026-04-12T17:20:28Z</time></trkpt><trkpt lat="39.13609319980832" lon="16.272722009265724"><ele>353.0</ele><time>2026-04-12T17:20:29Z</time></trkpt><trkpt lat="39.13634901141258" lon="16.272872573581534"><ele>343.5</ele><time>2026-04-12T17:20:30Z</time></trkpt><trkpt lat="39.13661011555808" lon="16.273025016813953"><ele>334.0</ele><time>2026-04-12T17:20:31Z</time></trkpt><trkpt lat="39.136868661808705" lon="16.273174491131467"><ele>331.5</ele><time>2026-04-12T17:20:31.999Z</time></trkpt><trkpt lat="39.137122474302785" lon="16.27332143149415"><ele>329.0</ele><time>2026-04-12T17:20:32.999Z</time></trkpt><trkpt lat="39.137373778918196" lon="16.273470303468525"><ele>350.0</ele><time>2026-04-12T17:20:33.999Z</time></trkpt><trkpt lat="39.1376236407662" lon="16.27361855915556"><ele>371.0</ele><time>2026-04-12T17:20:34.999Z</time></trkpt><trkpt lat="39.13787484511829" lon="16.27376478573738"><ele>371.0</ele><time>2026-04-12T17:20:35.999Z</time></trkpt><trkpt lat="39.13812410442267" lon="16.273908195657196"><ele>371.0</ele><time>2026-04-12T17:20:36.999Z</time></trkpt><trkpt lat="39.13837082997016" lon="16.274049612156443"><ele>368.5</ele><time>2026-04-12T17:20:37.999Z</time></trkpt><trkpt lat="39.13861350318663" lon="16.274184126995923"><ele>366.0</ele><time>2026-04-12T17:20:38.999Z</time></trkpt><trkpt lat="39.13885051762788" lon="16.274313819829363"><ele>375.0</ele><time>2026-04-12T17:20:39.999Z</time></trkpt><trkpt lat="39.13908210920307" lon="16.274441328997497"><ele>384.0</ele><time>2026-04-12T17:20:40.999Z</time></trkpt><trkpt lat="39.13931171654709" lon="16.274542927276684"><ele>384.0</ele><time>2026-04-12T17:20:41.999Z</time></trkpt><trkpt lat="39.13953977099814" lon="16.274605334319652"><ele>384.0</ele><time>2026-04-12T17:20:42.999Z</time></trkpt><trkpt lat="39.13975871214475" lon="16.274632041900322"><ele>396.5</ele><time>2026-04-12T17:20:43.999Z</time></trkpt><trkpt lat="39.140005480738175" lon="16.274653744097918"><ele>409.0</ele><time>2026-04-12T17:20:44.999Z</time></trkpt><trkpt lat="39.14024710866573" lon="16.27466060150403"><ele>409.0</ele><time>2026-04-12T17:20:45.999Z</time></trkpt><trkpt lat="39.14047864409312" lon="16.274633592744713"><ele>409.0</ele><time>2026-04-12T17:20:46.999Z</time></trkpt><trkpt lat="39.1407215385752" lon="16.27460002761636"><ele>412.0</ele><time>2026-04-12T17:20:47.999Z</time></trkpt><trkpt lat="39.14097658609353" lon="16.27456874763982"><ele>415.0</ele><time>2026-04-12T17:20:48.999Z</time></trkpt><trkpt lat="39.141232399711825" lon="16.274540388057424"><ele>415.0</ele><time>2026-04-12T17:20:49.999Z</time></trkpt><trkpt lat="39.14148991810033" lon="16.274521139858024"><ele>415.0</ele><time>2026-04-12T17:20:50.999Z</time></trkpt><trkpt lat="39.14175070760999" lon="16.27451378585347"><ele>406.5</ele><time>2026-04-12T17:20:51.999Z</time></trkpt><trkpt lat="39.14201292600328" lon="16.27452027688559"><ele>398.0</ele><time>2026-04-12T17:20:52.999Z</time></trkpt><trkpt lat="39.1422620709097" lon="16.27455462579397"><ele>396.5</ele><time>2026-04-12T17:20:53.999Z</time></trkpt><trkpt lat="39.142504379391525" lon="16.274618981930132"><ele>395.0</ele><time>2026-04-12T17:20:54.999Z</time></trkpt><trkpt lat="39.14273883254375" lon="16.27469233521346"><ele>382.0</ele><time>2026-04-12T17:20:55.999Z</time></trkpt><trkpt lat="39.14296479378557" lon="16.27477955645984"><ele>369.0</ele><time>2026-04-12T17:20:56.999Z</time></trkpt><trkpt lat="39.14318552355791" lon="16.27489157520378"><ele>380.5</ele><time>2026-04-12T17:20:57.999Z</time></trkpt><trkpt lat="39.1433994219912" lon="16.27502253669278"><ele>392.0</ele><time>2026-04-12T17:20:58.999Z</time></trkpt><trkpt lat="39.143605353573086" lon="16.275165457799936"><ele>392.0</ele><time>2026-04-12T17:20:59.999Z</time></trkpt><trkpt lat="39.143802141117824" lon="16.275325607375642"><ele>392.0</ele><time>2026-04-12T17:21:00.999Z</time></trkpt><trkpt lat="39.14398433835612" lon="16.275486351747578"><ele>416.0</ele><time>2026-04-12T17:21:01.999Z</time></trkpt><trkpt lat="39.14416517625856" lon="16.275657620260326"><ele>440.0</ele><time>2026-04-12T17:21:02.999Z</time></trkpt><trkpt lat="39.14434523478638" lon="16.275834010230252"><ele>440.0</ele><time>2026-04-12T17:21:04.016Z</time></trkpt><trkpt lat="39.14452349751561" lon="16.276010170071874"><ele>440.0</ele><time>2026-04-12T17:21:05.015Z</time></trkpt><trkpt lat="39.14470677695392" lon="16.276186933030434"><ele>435.3333333333333</ele><time>2026-04-12T17:21:06.014Z</time></trkpt><trkpt lat="39.144880506805954" lon="16.276365550871343"><ele>430.66666666666663</ele><time>2026-04-12T17:21:07.014Z</time></trkpt><trkpt lat="39.14505539705584" lon="16.27654446073112"><ele>426.0</ele><time>2026-04-12T17:21:08.014Z</time></trkpt><trkpt lat="39.145793840325574" lon="16.278521306827923"><ele>426.0</ele><time>2026-04-12T17:21:15.999Z</time></trkpt><trkpt lat="39.14588032880658" lon="16.278711881404355"><ele>426.0</ele><time>2026-04-12T17:21:16.999Z</time></trkpt><trkpt lat="39.14590163738896" lon="16.27907174438877"><ele>422.0</ele><time>2026-04-12T17:21:17.999Z</time></trkpt><trkpt lat="39.1459563217222" lon="16.279187643722803"><ele>418.0</ele><time>2026-04-12T17:21:18.999Z</time></trkpt><trkpt lat="39.14601792679139" lon="16.279319431228288"><ele>414.0</ele><time>2026-04-12T17:21:19.999Z</time></trkpt><trkpt lat="39.14607598204336" lon="16.279435442995673"><ele>410.0</ele><time>2026-04-12T17:21:20.999Z</time></trkpt><trkpt lat="39.14613492457838" lon="16.279558960587927"><ele>406.0</ele><time>2026-04-12T17:21:21.999Z</time></trkpt><trkpt lat="39.14619658137033" lon="16.27969205550464"><ele>402.5</ele><time>2026-04-12T17:21:22.999Z</time></trkpt><trkpt lat="39.146257701865586" lon="16.279842687598038"><ele>399.0</ele><time>2026-04-12T17:21:23.999Z</time></trkpt><trkpt lat="39.146329481414675" lon="16.28000435274757"><ele>395.5</ele><time>2026-04-12T17:21:24.999Z</time></trkpt><trkpt lat="39.14640821286334" lon="16.280169339931483"><ele>392.0</ele><time>2026-04-12T17:21:25.999Z</time></trkpt><trkpt lat="39.14648584676656" lon="16.280343355703806"><ele>397.0</ele><time>2026-04-12T17:21:26.999Z</time></trkpt><trkpt lat="39.14657507067624" lon="16.28053120884917"><ele>402.0</ele><time>2026-04-12T17:21:27.999Z</time></trkpt><trkpt lat="39.14667050909392" lon="16.280719215499726"><ele>407.0</ele><time>2026-04-12T17:21:28.999Z</time></trkpt><trkpt lat="39.14677633469876" lon="16.2809094192034"><ele>407.0</ele><time>2026-04-12T17:21:29.998Z</time></trkpt><trkpt lat="39.14689549397895" lon="16.281095118494466"><ele>407.0</ele><time>2026-04-12T17:21:30.998Z</time></trkpt><trkpt lat="39.14702646904376" lon="16.281272208449796"><ele>407.0</ele><time>2026-04-12T17:21:31.998Z</time></trkpt><trkpt lat="39.1471747470362" lon="16.281439212506815"><ele>404.0</ele><time>2026-04-12T17:21:32.998Z</time></trkpt><trkpt lat="39.14733218512287" lon="16.281602681396954"><ele>401.0</ele><time>2026-04-12T17:21:33.998Z</time></trkpt><trkpt lat="39.14750647845229" lon="16.281758524573707"><ele>398.0</ele><time>2026-04-12T17:21:34.998Z</time></trkpt><trkpt lat="39.14768975832273" lon="16.281903135607223"><ele>398.0</ele><time>2026-04-12T17:21:35.998Z</time></trkpt><trkpt lat="39.147884351422555" lon="16.28203644304446"><ele>398.0</ele><time>2026-04-12T17:21:36.998Z</time></trkpt><trkpt lat="39.14808164920423" lon="16.28216200173099"><ele>398.0</ele><time>2026-04-12T17:21:37.998Z</time></trkpt><trkpt lat="39.14828676944364" lon="16.28227222993498"><ele>374.0</ele><time>2026-04-12T17:21:38.998Z</time></trkpt><trkpt lat="39.14849588058424" lon="16.282368160521393"><ele>350.0</ele><time>2026-04-12T17:21:39.998Z</time></trkpt><trkpt lat="39.14870133565471" lon="16.28246134963759"><ele>326.0</ele><time>2026-04-12T17:21:40.998Z</time></trkpt><trkpt lat="39.148897792494964" lon="16.282557506182716"><ele>315.33333333333337</ele><time>2026-04-12T17:21:41.998Z</time></trkpt><trkpt lat="39.14908804336147" lon="16.2826503280229"><ele>304.6666666666667</ele><time>2026-04-12T17:21:42.998Z</time></trkpt><trkpt lat="39.14926478968966" lon="16.282735361796444"><ele>294.0</ele><time>2026-04-12T17:21:43.998Z</time></trkpt><trkpt lat="39.14943421892092" lon="16.282816555915165"><ele>294.0</ele><time>2026-04-12T17:21:44.998Z</time></trkpt><trkpt lat="39.14960212250323" lon="16.282898010210616"><ele>294.0</ele><time>2026-04-12T17:21:45.998Z</time></trkpt><trkpt lat="39.149773308471644" lon="16.282977970023357"><ele>294.0</ele><time>2026-04-12T17:21:46.998Z</time></trkpt><trkpt lat="39.14994073324323" lon="16.283057639899226"><ele>304.0</ele><time>2026-04-12T17:21:47.998Z</time></trkpt><trkpt lat="39.150107388703695" lon="16.283141396713308"><ele>314.0</ele><time>2026-04-12T17:21:48.998Z</time></trkpt><trkpt lat="39.150266435752975" lon="16.283219039200393"><ele>324.0</ele><time>2026-04-12T17:21:49.998Z</time></trkpt><trkpt lat="39.150425433757995" lon="16.283293187800012"><ele>324.0</ele><time>2026-04-12T17:21:50.998Z</time></trkpt><trkpt lat="39.15058523819129" lon="16.283370597617388"><ele>324.0</ele><time>2026-04-12T17:21:51.998Z</time></trkpt><trkpt lat="39.150739519786114" lon="16.28344479796136"><ele>324.0</ele><time>2026-04-12T17:21:52.998Z</time></trkpt><trkpt lat="39.15089111441914" lon="16.283520817214356"><ele>338.6666666666667</ele><time>2026-04-12T17:21:53.999Z</time></trkpt><trkpt lat="39.151040382408524" lon="16.283592859142125"><ele>353.33333333333337</ele><time>2026-04-12T17:21:54.999Z</time></trkpt><trkpt lat="39.15118946123748" lon="16.28366537761123"><ele>368.0</ele><time>2026-04-12T17:21:55.999Z</time></trkpt><trkpt lat="39.15134246048262" lon="16.28374793283727"><ele>368.0</ele><time>2026-04-12T17:21:56.999Z</time></trkpt><trkpt lat="39.15149787781941" lon="16.28384873757056"><ele>368.0</ele><time>2026-04-12T17:21:57.999Z</time></trkpt><trkpt lat="39.15165133226692" lon="16.283964341868653"><ele>368.0</ele><time>2026-04-12T17:21:58.999Z</time></trkpt><trkpt lat="39.15180366013499" lon="16.284097108915347"><ele>383.6666666666667</ele><time>2026-04-12T17:21:59.999Z</time></trkpt><trkpt lat="39.15195073162212" lon="16.28424375090066"><ele>399.33333333333337</ele><time>2026-04-12T17:22:00.999Z</time></trkpt><trkpt lat="39.15209415590092" lon="16.28440412389153"><ele>415.0</ele><time>2026-04-12T17:22:01.999Z</time></trkpt><trkpt lat="39.152231287624815" lon="16.284581753185456"><ele>412.6666666666667</ele><time>2026-04-12T17:22:02.999Z</time></trkpt><trkpt lat="39.15235608013426" lon="16.284768280498426"><ele>410.33333333333337</ele><time>2026-04-12T17:22:03.999Z</time></trkpt><trkpt lat="39.15247274646639" lon="16.2849667957181"><ele>408.0</ele><time>2026-04-12T17:22:04.999Z</time></trkpt><trkpt lat="39.152581413798075" lon="16.285174010933762"><ele>420.66666666666663</ele><time>2026-04-12T17:22:05.999Z</time></trkpt><trkpt lat="39.15269247653583" lon="16.285385370149307"><ele>433.3333333333333</ele><time>2026-04-12T17:22:07.015Z</time></trkpt><trkpt lat="39.15280248475651" lon="16.285590949443463"><ele>446.0</ele><time>2026-04-12T17:22:08.014Z</time></trkpt><trkpt lat="39.152909869981464" lon="16.285795218523273"><ele>448.3333333333333</ele><time>2026-04-12T17:22:09.015Z</time></trkpt><trkpt lat="39.153007215666726" lon="16.28600357435343"><ele>450.66666666666663</ele><time>2026-04-12T17:22:10.015Z</time></trkpt><trkpt lat="39.153102052429944" lon="16.286228553680388"><ele>453.0</ele><time>2026-04-12T17:22:11.014Z</time></trkpt><trkpt lat="39.15322188660075" lon="16.286448909189726"><ele>457.0</ele><time>2026-04-12T17:22:12.015Z</time></trkpt><trkpt lat="39.153330936297905" lon="16.28666224707228"><ele>461.0</ele><time>2026-04-12T17:22:13.015Z</time></trkpt><trkpt lat="39.15343996516085" lon="16.286857776112974"><ele>465.0</ele><time>2026-04-12T17:22:14.015Z</time></trkpt><trkpt lat="39.15348867889415" lon="16.28706799821582"><ele>465.0</ele><time>2026-04-12T17:22:17.999Z</time></trkpt><trkpt lat="39.153585937204426" lon="16.287222126057298"><ele>465.0</ele><time>2026-04-12T17:22:18.999Z</time></trkpt><trkpt lat="39.15369643051927" lon="16.287383439056907"><ele>465.0</ele><time>2026-04-12T17:22:19.999Z</time></trkpt><trkpt lat="39.15381040277385" lon="16.28752718320791"><ele>458.66666666666663</ele><time>2026-04-12T17:22:20.999Z</time></trkpt><trkpt lat="39.15394583146213" lon="16.2876640977553"><ele>452.3333333333333</ele><time>2026-04-12T17:22:21.999Z</time></trkpt><trkpt lat="39.15408825709034" lon="16.287786791592552"><ele>446.0</ele><time>2026-04-12T17:22:22.999Z</time></trkpt><trkpt lat="39.15424415732065" lon="16.287904092946448"><ele>446.0</ele><time>2026-04-12T17:22:23.999Z</time></trkpt><trkpt lat="39.15439742571418" lon="16.288006145061654"><ele>446.0</ele><time>2026-04-12T17:22:24.999Z</time></trkpt><trkpt lat="39.15454868601166" lon="16.288098208697413"><ele>446.0</ele><time>2026-04-12T17:22:25.999Z</time></trkpt><trkpt lat="39.15470446216182" lon="16.288177378150678"><ele>451.66666666666663</ele><time>2026-04-12T17:22:26.999Z</time></trkpt><trkpt lat="39.15485917259901" lon="16.288242767951502"><ele>457.33333333333337</ele><time>2026-04-12T17:22:27.999Z</time></trkpt><trkpt lat="39.15501259295655" lon="16.288299299726805"><ele>463.0</ele><time>2026-04-12T17:22:28.999Z</time></trkpt><trkpt lat="39.15517169978698" lon="16.288350912626427"><ele>463.0</ele><time>2026-04-12T17:22:29.999Z</time></trkpt><trkpt lat="39.15533397723481" lon="16.2883836597029"><ele>463.0</ele><time>2026-04-12T17:22:30.999Z</time></trkpt><trkpt lat="39.155500504702275" lon="16.288407312568346"><ele>463.0</ele><time>2026-04-12T17:22:31.999Z</time></trkpt><trkpt lat="39.15567081072409" lon="16.288418196418743"><ele>469.0</ele><time>2026-04-12T17:22:32.999Z</time></trkpt><trkpt lat="39.15584621818093" lon="16.28841591836741"><ele>475.0</ele><time>2026-04-12T17:22:33.999Z</time></trkpt><trkpt lat="39.15602121009362" lon="16.288400538212063"><ele>481.0</ele><time>2026-04-12T17:22:34.999Z</time></trkpt><trkpt lat="39.15620234852024" lon="16.28837226029545"><ele>481.0</ele><time>2026-04-12T17:22:36.015Z</time></trkpt><trkpt lat="39.156379936956355" lon="16.28833584859295"><ele>481.0</ele><time>2026-04-12T17:22:37.016Z</time></trkpt><trkpt lat="39.15655249870046" lon="16.28829051248117"><ele>481.0</ele><time>2026-04-12T17:22:38.014Z</time></trkpt><trkpt lat="39.15672042598889" lon="16.28824661474509"><ele>499.0</ele><time>2026-04-12T17:22:39.015Z</time></trkpt><trkpt lat="39.15734804239045" lon="16.28786863760677"><ele>493.5</ele><time>2026-04-12T17:22:42.999Z</time></trkpt><trkpt lat="39.157487311632885" lon="16.287775827470313"><ele>488.0</ele><time>2026-04-12T17:22:43.999Z</time></trkpt><trkpt lat="39.15761744052794" lon="16.28767884877853"><ele>482.5</ele><time>2026-04-12T17:22:44.999Z</time></trkpt><trkpt lat="39.157723457198976" lon="16.287597448238948"><ele>477.0</ele><time>2026-04-12T17:22:45.999Z</time></trkpt><trkpt lat="39.157840041985246" lon="16.287514858083266"><ele>477.0</ele><time>2026-04-12T17:22:46.999Z</time></trkpt><trkpt lat="39.157964204829014" lon="16.2874323104043"><ele>477.0</ele><time>2026-04-12T17:22:47.999Z</time></trkpt><trkpt lat="39.15808039231458" lon="16.28733717830745"><ele>477.0</ele><time>2026-04-12T17:22:48.999Z</time></trkpt><trkpt lat="39.15820646721529" lon="16.28725420565269"><ele>477.0</ele><time>2026-04-12T17:22:49.999Z</time></trkpt><trkpt lat="39.158337461544455" lon="16.287173535895075"><ele>478.66666666666663</ele><time>2026-04-12T17:22:50.999Z</time></trkpt><trkpt lat="39.15847913071811" lon="16.287100942731858"><ele>480.3333333333333</ele><time>2026-04-12T17:22:51.999Z</time></trkpt><trkpt lat="39.1586219833754" lon="16.287033250433943"><ele>482.0</ele><time>2026-04-12T17:22:52.999Z</time></trkpt><trkpt lat="39.158766951703704" lon="16.286977727278924"><ele>482.0</ele><time>2026-04-12T17:22:53.999Z</time></trkpt><trkpt lat="39.15892254486585" lon="16.286933461421796"><ele>482.0</ele><time>2026-04-12T17:22:54.999Z</time></trkpt><trkpt lat="39.15907651880586" lon="16.28689161794275"><ele>482.0</ele><time>2026-04-12T17:22:55.999Z</time></trkpt><trkpt lat="39.1592487597674" lon="16.28685752580809"><ele>481.0</ele><time>2026-04-12T17:22:56.999Z</time></trkpt><trkpt lat="39.15941763195944" lon="16.286842103359653"><ele>480.0</ele><time>2026-04-12T17:22:57.999Z</time></trkpt><trkpt lat="39.15959264767815" lon="16.286829819936752"><ele>479.0</ele><time>2026-04-12T17:22:58.999Z</time></trkpt><trkpt lat="39.159767598622125" lon="16.286839505450914"><ele>480.0</ele><time>2026-04-12T17:22:59.999Z</time></trkpt><trkpt lat="39.15994160430071" lon="16.286860669715725"><ele>481.0</ele><time>2026-04-12T17:23:00.999Z</time></trkpt><trkpt lat="39.16011751085026" lon="16.286892168878488"><ele>482.0</ele><time>2026-04-12T17:23:01.999Z</time></trkpt><trkpt lat="39.16029277531955" lon="16.28692508574455"><ele>482.0</ele><time>2026-04-12T17:23:02.999Z</time></trkpt><trkpt lat="39.16047366377435" lon="16.286958870537507"><ele>482.0</ele><time>2026-04-12T17:23:03.999Z</time></trkpt><trkpt lat="39.160663508106886" lon="16.286996321453337"><ele>482.0</ele><time>2026-04-12T17:23:04.999Z</time></trkpt><trkpt lat="39.16086575227681" lon="16.287040174450944"><ele>485.5</ele><time>2026-04-12T17:23:05.999Z</time></trkpt><trkpt lat="39.16107994060773" lon="16.28708719594069"><ele>489.0</ele><time>2026-04-12T17:23:06.999Z</time></trkpt><trkpt lat="39.16131078403709" lon="16.287139469160294"><ele>495.0</ele><time>2026-04-12T17:23:07.999Z</time></trkpt><trkpt lat="39.16155636125918" lon="16.287199095823073"><ele>501.0</ele><time>2026-04-12T17:23:08.999Z</time></trkpt><trkpt lat="39.161804027796144" lon="16.287281513669747"><ele>487.0</ele><time>2026-04-12T17:23:09.999Z</time></trkpt><trkpt lat="39.162046408548825" lon="16.28739605114827"><ele>473.0</ele><time>2026-04-12T17:23:10.999Z</time></trkpt><trkpt lat="39.16228143940279" lon="16.287546435751164"><ele>482.0</ele><time>2026-04-12T17:23:11.999Z</time></trkpt><trkpt lat="39.16251123363954" lon="16.287723542485494"><ele>491.0</ele><time>2026-04-12T17:23:12.999Z</time></trkpt><trkpt lat="39.16273202424745" lon="16.287930444767103"><ele>479.5</ele><time>2026-04-12T17:23:13.999Z</time></trkpt><trkpt lat="39.1629449679574" lon="16.288174338403604"><ele>468.0</ele><time>2026-04-12T17:23:14.999Z</time></trkpt><trkpt lat="39.16314062277833" lon="16.28843920083682"><ele>463.0</ele><time>2026-04-12T17:23:15.999Z</time></trkpt><trkpt lat="39.163310662695906" lon="16.288721970048066"><ele>458.0</ele><time>2026-04-12T17:23:16.999Z</time></trkpt><trkpt lat="39.163467933834895" lon="16.289017388059"><ele>458.0</ele><time>2026-04-12T17:23:17.999Z</time></trkpt><trkpt lat="39.16361146680424" lon="16.289326012854083"><ele>458.0</ele><time>2026-04-12T17:23:18.999Z</time></trkpt><trkpt lat="39.16375914306074" lon="16.289628343751282"><ele>463.0</ele><time>2026-04-12T17:23:19.999Z</time></trkpt><trkpt lat="39.16391009815182" lon="16.289919029597797"><ele>468.0</ele><time>2026-04-12T17:23:20.999Z</time></trkpt><trkpt lat="39.16406334338004" lon="16.290199438868648"><ele>483.0</ele><time>2026-04-12T17:23:21.999Z</time></trkpt><trkpt lat="39.16422399567666" lon="16.290469070210555"><ele>498.0</ele><time>2026-04-12T17:23:22.999Z</time></trkpt><trkpt lat="39.164385553959434" lon="16.290729769483697"><ele>506.5</ele><time>2026-04-12T17:23:23.999Z</time></trkpt><trkpt lat="39.164551501049964" lon="16.29098939543595"><ele>515.0</ele><time>2026-04-12T17:23:24.999Z</time></trkpt><trkpt lat="39.16472161718494" lon="16.291259556679506"><ele>508.5</ele><time>2026-04-12T17:23:26.026Z</time></trkpt><trkpt lat="39.164889044185195" lon="16.291521340064453"><ele>502.0</ele><time>2026-04-12T17:23:27.022Z</time></trkpt><trkpt lat="39.1650569399833" lon="16.291775314163328"><ele>502.0</ele><time>2026-04-12T17:23:27.999Z</time></trkpt><trkpt lat="39.16529624629026" lon="16.29209818946211"><ele>502.0</ele><time>2026-04-12T17:23:28.999Z</time></trkpt><trkpt lat="39.16548920853615" lon="16.292357039218945"><ele>503.5</ele><time>2026-04-12T17:23:29.998Z</time></trkpt><trkpt lat="39.16568600570453" lon="16.29259604632604"><ele>505.0</ele><time>2026-04-12T17:23:30.998Z</time></trkpt><trkpt lat="39.1658948337906" lon="16.292808195361467"><ele>505.0</ele><time>2026-04-12T17:23:31.998Z</time></trkpt><trkpt lat="39.16612552783035" lon="16.292985654575073"><ele>505.0</ele><time>2026-04-12T17:23:32.998Z</time></trkpt><trkpt lat="39.16636533665699" lon="16.29313678188031"><ele>502.5</ele><time>2026-04-12T17:23:33.998Z</time></trkpt><trkpt lat="39.166616873252835" lon="16.293254510067744"><ele>500.0</ele><time>2026-04-12T17:23:34.998Z</time></trkpt><trkpt lat="39.16687536250293" lon="16.293340291749075"><ele>500.0</ele><time>2026-04-12T17:23:35.998Z</time></trkpt><trkpt lat="39.16714197410872" lon="16.293399241869043"><ele>500.0</ele><time>2026-04-12T17:23:36.998Z</time></trkpt><trkpt lat="39.16741364567136" lon="16.293429061623797"><ele>503.5</ele><time>2026-04-12T17:23:37.998Z</time></trkpt><trkpt lat="39.16768853820984" lon="16.293431154312916"><ele>507.0</ele><time>2026-04-12T17:23:38.998Z</time></trkpt><trkpt lat="39.16796194334713" lon="16.293394195406094"><ele>509.5</ele><time>2026-04-12T17:23:39.998Z</time></trkpt><trkpt lat="39.16822681634891" lon="16.293321014024"><ele>512.0</ele><time>2026-04-12T17:23:40.998Z</time></trkpt><trkpt lat="39.168484280589084" lon="16.29321666433274"><ele>526.0</ele><time>2026-04-12T17:23:41.998Z</time></trkpt><trkpt lat="39.16873477326" lon="16.293082080599586"><ele>540.0</ele><time>2026-04-12T17:23:42.998Z</time></trkpt><trkpt lat="39.16897758199012" lon="16.292944776376146"><ele>536.5</ele><time>2026-04-12T17:23:43.998Z</time></trkpt><trkpt lat="39.16921361649742" lon="16.292829666588393"><ele>533.0</ele><time>2026-04-12T17:23:44.998Z</time></trkpt><trkpt lat="39.16944102977856" lon="16.292725125722992"><ele>533.0</ele><time>2026-04-12T17:23:45.998Z</time></trkpt><trkpt lat="39.1696661784681" lon="16.2926449309836"><ele>533.0</ele><time>2026-04-12T17:23:46.998Z</time></trkpt><trkpt lat="39.1698877289413" lon="16.292598892281834"><ele>529.3333333333333</ele><time>2026-04-12T17:23:47.998Z</time></trkpt><trkpt lat="39.17010320683121" lon="16.292577231041655"><ele>525.6666666666666</ele><time>2026-04-12T17:23:48.998Z</time></trkpt><trkpt lat="39.17030895705221" lon="16.29258758317348"><ele>522.0</ele><time>2026-04-12T17:23:49.998Z</time></trkpt><trkpt lat="39.17050644108337" lon="16.29261737697792"><ele>522.6666666666666</ele><time>2026-04-12T17:23:50.998Z</time></trkpt><trkpt lat="39.17069346719764" lon="16.292658639413045"><ele>523.3333333333333</ele><time>2026-04-12T17:23:51.998Z</time></trkpt><trkpt lat="39.17087542351163" lon="16.292715476687487"><ele>524.0</ele><time>2026-04-12T17:23:52.998Z</time></trkpt><trkpt lat="39.17106014296661" lon="16.29278174560957"><ele>524.0</ele><time>2026-04-12T17:23:53.998Z</time></trkpt><trkpt lat="39.17125233326467" lon="16.292877745760045"><ele>524.0</ele><time>2026-04-12T17:23:54.998Z</time></trkpt><trkpt lat="39.17145706227673" lon="16.292987793349877"><ele>524.0</ele><time>2026-04-12T17:23:55.998Z</time></trkpt><trkpt lat="39.17166014671086" lon="16.29311716683757"><ele>527.0</ele><time>2026-04-12T17:23:56.998Z</time></trkpt><trkpt lat="39.17186780406327" lon="16.293250723011127"><ele>530.0</ele><time>2026-04-12T17:23:57.998Z</time></trkpt><trkpt lat="39.17208406200645" lon="16.293379099975677"><ele>530.0</ele><time>2026-04-12T17:23:59Z</time></trkpt><trkpt lat="39.172313444665406" lon="16.29351287146789"><ele>530.0</ele><time>2026-04-12T17:24:00Z</time></trkpt><trkpt lat="39.17256210657768" lon="16.293648481059364"><ele>539.5</ele><time>2026-04-12T17:24:01.025Z</time></trkpt><trkpt lat="39.172814362827744" lon="16.293776311278307"><ele>549.0</ele><time>2026-04-12T17:24:02.024Z</time></trkpt><trkpt lat="39.17306895058486" lon="16.293905204264806"><ele>548.5</ele><time>2026-04-12T17:24:03Z</time></trkpt><trkpt lat="39.173342453611895" lon="16.294035048553376"><ele>548.0</ele><time>2026-04-12T17:24:04Z</time></trkpt><trkpt lat="39.17384542908315" lon="16.293860576545345"><ele>550.0</ele><time>2026-04-12T17:24:05Z</time></trkpt><trkpt lat="39.17411284151703" lon="16.2938475529592"><ele>552.0</ele><time>2026-04-12T17:24:06Z</time></trkpt><trkpt lat="39.17438202942419" lon="16.29385812590176"><ele>552.0</ele><time>2026-04-12T17:24:07Z</time></trkpt><trkpt lat="39.17464700584819" lon="16.293889372149238"><ele>552.0</ele><time>2026-04-12T17:24:08Z</time></trkpt><trkpt lat="39.17490973457449" lon="16.293966231571783"><ele>540.0</ele><time>2026-04-12T17:24:09Z</time></trkpt><trkpt lat="39.175168690673786" lon="16.294063745944666"><ele>528.0</ele><time>2026-04-12T17:24:10Z</time></trkpt><trkpt lat="39.17542473417677" lon="16.29418116452037"><ele>528.0</ele><time>2026-04-12T17:24:11Z</time></trkpt><trkpt lat="39.17567160632711" lon="16.29432705296779"><ele>528.0</ele><time>2026-04-12T17:24:12Z</time></trkpt><trkpt lat="39.17591712034727" lon="16.29448778784059"><ele>533.0</ele><time>2026-04-12T17:24:13Z</time></trkpt><trkpt lat="39.17616891745025" lon="16.294663531593212"><ele>538.0</ele><time>2026-04-12T17:24:14.028Z</time></trkpt><trkpt lat="39.17641479903687" lon="16.29483488044784"><ele>545.0</ele><time>2026-04-12T17:24:15.026Z</time></trkpt><trkpt lat="39.176652138809196" lon="16.294996999437025"><ele>552.0</ele><time>2026-04-12T17:24:16Z</time></trkpt><trkpt lat="39.176792622475986" lon="16.295236595894753"><ele>528.0</ele><time>2026-04-12T17:24:17Z</time></trkpt><trkpt lat="39.176969277663886" lon="16.295772091949065"><ele>528.0</ele><time>2026-04-12T17:24:18Z</time></trkpt><trkpt lat="39.177149220264546" lon="16.296117354803208"><ele>528.0</ele><time>2026-04-12T17:24:19Z</time></trkpt><trkpt lat="39.177332740608804" lon="16.296460620398296"><ele>525.0</ele><time>2026-04-12T17:24:20Z</time></trkpt><trkpt lat="39.1775117911509" lon="16.296794737795544"><ele>522.0</ele><time>2026-04-12T17:24:21Z</time></trkpt><trkpt lat="39.177691470109735" lon="16.297119580003987"><ele>526.5</ele><time>2026-04-12T17:24:22Z</time></trkpt><trkpt lat="39.17787994383407" lon="16.297433909116307"><ele>531.0</ele><time>2026-04-12T17:24:23Z</time></trkpt><trkpt lat="39.17807290284819" lon="16.2977255015807"><ele>540.0</ele><time>2026-04-12T17:24:24Z</time></trkpt><trkpt lat="39.17827369298731" lon="16.2979887488319"><ele>549.0</ele><time>2026-04-12T17:24:25Z</time></trkpt><trkpt lat="39.17847719208166" lon="16.298230931026936"><ele>549.0</ele><time>2026-04-12T17:24:26Z</time></trkpt><trkpt lat="39.17867676052035" lon="16.298470496773444"><ele>549.0</ele><time>2026-04-12T17:24:27Z</time></trkpt><trkpt lat="39.17886810738625" lon="16.298723658751197"><ele>548.5</ele><time>2026-04-12T17:24:28Z</time></trkpt><trkpt lat="39.179057546740914" lon="16.298989643703752"><ele>548.0</ele><time>2026-04-12T17:24:29Z</time></trkpt><trkpt lat="39.1792535532463" lon="16.29926008164878"><ele>548.0</ele><time>2026-04-12T17:24:30Z</time></trkpt><trkpt lat="39.17945400330337" lon="16.299533001740794"><ele>548.0</ele><time>2026-04-12T17:24:31Z</time></trkpt><trkpt lat="39.17966213358637" lon="16.299806812987462"><ele>549.5</ele><time>2026-04-12T17:24:32Z</time></trkpt><trkpt lat="39.179868881209345" lon="16.30008351258418"><ele>551.0</ele><time>2026-04-12T17:24:33Z</time></trkpt><trkpt lat="39.18008063652245" lon="16.30035322303746"><ele>539.0</ele><time>2026-04-12T17:24:34Z</time></trkpt><trkpt lat="39.180294364568496" lon="16.300615000407294"><ele>527.0</ele><time>2026-04-12T17:24:35Z</time></trkpt><trkpt lat="39.1805133168427" lon="16.300872994985582"><ele>543.5</ele><time>2026-04-12T17:24:36Z</time></trkpt><trkpt lat="39.18072924596399" lon="16.301120395596776"><ele>560.0</ele><time>2026-04-12T17:24:37Z</time></trkpt><trkpt lat="39.180941387006435" lon="16.30136772352802"><ele>552.5</ele><time>2026-04-12T17:24:38Z</time></trkpt><trkpt lat="39.18116493533585" lon="16.301609851838123"><ele>545.0</ele><time>2026-04-12T17:24:39Z</time></trkpt><trkpt lat="39.1813850958488" lon="16.30185161368552"><ele>547.0</ele><time>2026-04-12T17:24:40Z</time></trkpt><trkpt lat="39.18162816003538" lon="16.302079684202834"><ele>549.0</ele><time>2026-04-12T17:24:41Z</time></trkpt><trkpt lat="39.18186036446435" lon="16.302303951949856"><ele>549.0</ele><time>2026-04-12T17:24:42Z</time></trkpt><trkpt lat="39.1820911810738" lon="16.302523668278102"><ele>549.0</ele><time>2026-04-12T17:24:43Z</time></trkpt><trkpt lat="39.1823307645636" lon="16.30274000697926"><ele>550.0</ele><time>2026-04-12T17:24:44Z</time></trkpt><trkpt lat="39.18257403654254" lon="16.302952028020275"><ele>551.0</ele><time>2026-04-12T17:24:45Z</time></trkpt><trkpt lat="39.18281370025393" lon="16.30316298356499"><ele>551.0</ele><time>2026-04-12T17:24:46Z</time></trkpt><trkpt lat="39.18305804221546" lon="16.303368359859487"><ele>551.0</ele><time>2026-04-12T17:24:47Z</time></trkpt><trkpt lat="39.18330835050231" lon="16.303567112835776"><ele>549.0</ele><time>2026-04-12T17:24:47.999Z</time></trkpt><trkpt lat="39.183560918963714" lon="16.30375871044278"><ele>547.0</ele><time>2026-04-12T17:24:48.999Z</time></trkpt><trkpt lat="39.18381399285432" lon="16.303949663577978"><ele>557.0</ele><time>2026-04-12T17:24:49.999Z</time></trkpt><trkpt lat="39.18406701052871" lon="16.304138319718724"><ele>567.0</ele><time>2026-04-12T17:24:50.999Z</time></trkpt><trkpt lat="39.184323228182784" lon="16.304319230591734"><ele>567.0</ele><time>2026-04-12T17:24:51.999Z</time></trkpt><trkpt lat="39.184564719456596" lon="16.30448262924258"><ele>567.0</ele><time>2026-04-12T17:24:52.999Z</time></trkpt><trkpt lat="39.18478933024057" lon="16.3046272737815"><ele>568.0</ele><time>2026-04-12T17:24:53.999Z</time></trkpt><trkpt lat="39.1850119735571" lon="16.304786051588437"><ele>569.0</ele><time>2026-04-12T17:24:54.999Z</time></trkpt><trkpt lat="39.185239537755194" lon="16.304947926908813"><ele>569.0</ele><time>2026-04-12T17:24:55.999Z</time></trkpt><trkpt lat="39.18546656965184" lon="16.305110188480732"><ele>569.0</ele><time>2026-04-12T17:24:56.999Z</time></trkpt><trkpt lat="39.18569339875604" lon="16.305279372511215"><ele>567.5</ele><time>2026-04-12T17:24:57.999Z</time></trkpt><trkpt lat="39.185925160947384" lon="16.305451722866444"><ele>566.0</ele><time>2026-04-12T17:24:58.999Z</time></trkpt><trkpt lat="39.18615564462899" lon="16.305625925093644"><ele>566.0</ele><time>2026-04-12T17:24:59.999Z</time></trkpt><trkpt lat="39.18638781873392" lon="16.30579934549376"><ele>566.0</ele><time>2026-04-12T17:25:00.999Z</time></trkpt><trkpt lat="39.1866273070392" lon="16.305974705987268"><ele>568.5</ele><time>2026-04-12T17:25:01.999Z</time></trkpt><trkpt lat="39.186859662971386" lon="16.306145080967806"><ele>571.0</ele><time>2026-04-12T17:25:02.999Z</time></trkpt><trkpt lat="39.18709854211675" lon="16.306324093078064"><ele>569.5</ele><time>2026-04-12T17:25:03.999Z</time></trkpt><trkpt lat="39.18733117335743" lon="16.30649648178067"><ele>568.0</ele><time>2026-04-12T17:25:04.999Z</time></trkpt><trkpt lat="39.18756564629563" lon="16.30667363447177"><ele>572.5</ele><time>2026-04-12T17:25:05.999Z</time></trkpt><trkpt lat="39.18779765257155" lon="16.306851698664236"><ele>577.0</ele><time>2026-04-12T17:25:06.999Z</time></trkpt><trkpt lat="39.18803325725556" lon="16.307027923008107"><ele>578.0</ele><time>2026-04-12T17:25:07.999Z</time></trkpt><trkpt lat="39.188271427317545" lon="16.307204494718295"><ele>579.0</ele><time>2026-04-12T17:25:08.999Z</time></trkpt><trkpt lat="39.18850844509479" lon="16.307379848890122"><ele>579.0</ele><time>2026-04-12T17:25:09.999Z</time></trkpt><trkpt lat="39.18874875964923" lon="16.30756009129805"><ele>579.0</ele><time>2026-04-12T17:25:10.999Z</time></trkpt><trkpt lat="39.18899029529827" lon="16.307738656067837"><ele>579.0</ele><time>2026-04-12T17:25:11.999Z</time></trkpt><trkpt lat="39.18923546166181" lon="16.307919594960943"><ele>579.0</ele><time>2026-04-12T17:25:12.999Z</time></trkpt><trkpt lat="39.18948459936258" lon="16.308102828458892"><ele>579.0</ele><time>2026-04-12T17:25:13.999Z</time></trkpt><trkpt lat="39.189738847961976" lon="16.30829222559082"><ele>579.0</ele><time>2026-04-12T17:25:14.999Z</time></trkpt><trkpt lat="39.18999019988093" lon="16.30848169021526"><ele>586.0</ele><time>2026-04-12T17:25:15.999Z</time></trkpt><trkpt lat="39.1902452965215" lon="16.308669431875707"><ele>593.0</ele><time>2026-04-12T17:25:16.999Z</time></trkpt><trkpt lat="39.19050079771451" lon="16.30885709111662"><ele>589.5</ele><time>2026-04-12T17:25:17.999Z</time></trkpt><trkpt lat="39.19075739519013" lon="16.309043916879595"><ele>586.0</ele><time>2026-04-12T17:25:18.999Z</time></trkpt><trkpt lat="39.191013220188964" lon="16.309234056022724"><ele>586.0</ele><time>2026-04-12T17:25:19.999Z</time></trkpt><trkpt lat="39.191269433685434" lon="16.30942697260773"><ele>586.0</ele><time>2026-04-12T17:25:20.999Z</time></trkpt><trkpt lat="39.191529026720424" lon="16.309617740895614"><ele>580.0</ele><time>2026-04-12T17:25:21.999Z</time></trkpt><trkpt lat="39.19178958603738" lon="16.30981000640854"><ele>574.0</ele><time>2026-04-12T17:25:22.999Z</time></trkpt><trkpt lat="39.19205223963238" lon="16.310004347025735"><ele>574.0</ele><time>2026-04-12T17:25:23.999Z</time></trkpt><trkpt lat="39.1923088127348" lon="16.310197406103725"><ele>574.0</ele><time>2026-04-12T17:25:24.999Z</time></trkpt><trkpt lat="39.19256883378358" lon="16.31039037962743"><ele>580.0</ele><time>2026-04-12T17:25:25.999Z</time></trkpt><trkpt lat="39.192829932646255" lon="16.310584326419"><ele>586.0</ele><time>2026-04-12T17:25:26.999Z</time></trkpt><trkpt lat="39.1930903263139" lon="16.31077912834077"><ele>590.5</ele><time>2026-04-12T17:25:27.999Z</time></trkpt><trkpt lat="39.19335238167207" lon="16.310973549451614"><ele>595.0</ele><time>2026-04-12T17:25:28.999Z</time></trkpt><trkpt lat="39.193614461529876" lon="16.311166557502368"><ele>595.0</ele><time>2026-04-12T17:25:29.999Z</time></trkpt><trkpt lat="39.193878003421894" lon="16.311360051573"><ele>595.0</ele><time>2026-04-12T17:25:30.999Z</time></trkpt><trkpt lat="39.194137160023516" lon="16.311551473429454"><ele>598.5</ele><time>2026-04-12T17:25:31.999Z</time></trkpt><trkpt lat="39.19439439490099" lon="16.31173619509525"><ele>602.0</ele><time>2026-04-12T17:25:32.999Z</time></trkpt><trkpt lat="39.19464224540786" lon="16.31190626052635"><ele>605.0</ele><time>2026-04-12T17:25:33.999Z</time></trkpt><trkpt lat="39.19489270340568" lon="16.312060404734254"><ele>608.0</ele><time>2026-04-12T17:25:34.999Z</time></trkpt><trkpt lat="39.19514728979514" lon="16.312198578882523"><ele>602.5</ele><time>2026-04-12T17:25:35.999Z</time></trkpt><trkpt lat="39.195405887992464" lon="16.31233158772326"><ele>597.0</ele><time>2026-04-12T17:25:36.999Z</time></trkpt><trkpt lat="39.195666257525545" lon="16.312452948322576"><ele>600.0</ele><time>2026-04-12T17:25:37.999Z</time></trkpt><trkpt lat="39.19593012277035" lon="16.312562154246137"><ele>603.0</ele><time>2026-04-12T17:25:38.999Z</time></trkpt><trkpt lat="39.19619312563347" lon="16.312660923000895"><ele>603.0</ele><time>2026-04-12T17:25:39.999Z</time></trkpt><trkpt lat="39.19645423144857" lon="16.312741126966717"><ele>603.0</ele><time>2026-04-12T17:25:40.999Z</time></trkpt><trkpt lat="39.19671506450038" lon="16.312800477666528"><ele>606.5</ele><time>2026-04-12T17:25:41.999Z</time></trkpt><trkpt lat="39.19697242157891" lon="16.31283890193781"><ele>610.0</ele><time>2026-04-12T17:25:42.999Z</time></trkpt><trkpt lat="39.19722553598905" lon="16.312855866232578"><ele>613.5</ele><time>2026-04-12T17:25:43.999Z</time></trkpt><trkpt lat="39.19747515704916" lon="16.312850285226855"><ele>617.0</ele><time>2026-04-12T17:25:44.999Z</time></trkpt><trkpt lat="39.19772030886658" lon="16.312826943171423"><ele>617.0</ele><time>2026-04-12T17:25:45.999Z</time></trkpt><trkpt lat="39.19796465929699" lon="16.312790870093867"><ele>617.0</ele><time>2026-04-12T17:25:46.999Z</time></trkpt><trkpt lat="39.1982104266783" lon="16.31274480940943"><ele>619.0</ele><time>2026-04-12T17:25:47.999Z</time></trkpt><trkpt lat="39.19844991853367" lon="16.31269027106556"><ele>621.0</ele><time>2026-04-12T17:25:48.999Z</time></trkpt><trkpt lat="39.19869010201302" lon="16.31262871570151"><ele>621.0</ele><time>2026-04-12T17:25:49.999Z</time></trkpt><trkpt lat="39.19893929575256" lon="16.312572949050526"><ele>621.0</ele><time>2026-04-12T17:25:50.999Z</time></trkpt><trkpt lat="39.19918219862213" lon="16.31249516176659"><ele>621.0</ele><time>2026-04-12T17:25:51.998Z</time></trkpt><trkpt lat="39.199426441028464" lon="16.312411030449883"><ele>621.0</ele><time>2026-04-12T17:25:52.998Z</time></trkpt><trkpt lat="39.19967705686051" lon="16.31231668983843"><ele>621.0</ele><time>2026-04-12T17:25:53.998Z</time></trkpt><trkpt lat="39.199935256882554" lon="16.31221810637104"><ele>621.0</ele><time>2026-04-12T17:25:54.998Z</time></trkpt><trkpt lat="39.200207747578716" lon="16.312102165070137"><ele>621.0</ele><time>2026-04-12T17:25:55.998Z</time></trkpt><trkpt lat="39.20047273748534" lon="16.311998829237886"><ele>621.0</ele><time>2026-04-12T17:25:56.998Z</time></trkpt><trkpt lat="39.20073815697153" lon="16.311885747649562"><ele>620.5</ele><time>2026-04-12T17:25:57.998Z</time></trkpt><trkpt lat="39.20100101664755" lon="16.311775908151255"><ele>620.0</ele><time>2026-04-12T17:25:58.998Z</time></trkpt><trkpt lat="39.20126368921461" lon="16.311669197754565"><ele>620.0</ele><time>2026-04-12T17:25:59.998Z</time></trkpt><trkpt lat="39.20152452602837" lon="16.31156284146825"><ele>620.0</ele><time>2026-04-12T17:26:00.998Z</time></trkpt><trkpt lat="39.201789120800434" lon="16.31145251844152"><ele>619.0</ele><time>2026-04-12T17:26:01.998Z</time></trkpt><trkpt lat="39.20205127857365" lon="16.311341858415528"><ele>618.0</ele><time>2026-04-12T17:26:02.998Z</time></trkpt><trkpt lat="39.20231639611151" lon="16.311232334491418"><ele>618.5</ele><time>2026-04-12T17:26:03.998Z</time></trkpt><trkpt lat="39.202583658902824" lon="16.311122007710477"><ele>619.0</ele><time>2026-04-12T17:26:05.001Z</time></trkpt><trkpt lat="39.202850261208084" lon="16.311013504208365"><ele>619.0</ele><time>2026-04-12T17:26:06.001Z</time></trkpt><trkpt lat="39.20312050522557" lon="16.31090389699892"><ele>619.0</ele><time>2026-04-12T17:26:07.001Z</time></trkpt><trkpt lat="39.203387558048526" lon="16.310792744822916"><ele>620.0</ele><time>2026-04-12T17:26:08.001Z</time></trkpt><trkpt lat="39.20365754961373" lon="16.31068475433254"><ele>621.0</ele><time>2026-04-12T17:26:09.001Z</time></trkpt><trkpt lat="39.20392969394361" lon="16.31057631455129"><ele>620.5</ele><time>2026-04-12T17:26:10.001Z</time></trkpt><trkpt lat="39.204201883007485" lon="16.31046627753687"><ele>620.0</ele><time>2026-04-12T17:26:11.001Z</time></trkpt><trkpt lat="39.20447649579278" lon="16.3103560196632"><ele>620.0</ele><time>2026-04-12T17:26:12.001Z</time></trkpt><trkpt lat="39.20474690497046" lon="16.310244747129236"><ele>620.0</ele><time>2026-04-12T17:26:13.001Z</time></trkpt><trkpt lat="39.205022012952924" lon="16.31013195733726"><ele>620.5</ele><time>2026-04-12T17:26:14.001Z</time></trkpt><trkpt lat="39.20529729165765" lon="16.310018510704197"><ele>621.0</ele><time>2026-04-12T17:26:15.001Z</time></trkpt><trkpt lat="39.20556832059359" lon="16.30990541824355"><ele>621.5</ele><time>2026-04-12T17:26:16.001Z</time></trkpt><trkpt lat="39.20584043686326" lon="16.309794884851684"><ele>622.0</ele><time>2026-04-12T17:26:17.001Z</time></trkpt><trkpt lat="39.20611318832181" lon="16.30968165748473"><ele>621.0</ele><time>2026-04-12T17:26:18.001Z</time></trkpt><trkpt lat="39.20638105288965" lon="16.30956988650426"><ele>620.0</ele><time>2026-04-12T17:26:19Z</time></trkpt><trkpt lat="39.20665259197058" lon="16.309455059775093"><ele>620.0</ele><time>2026-04-12T17:26:20Z</time></trkpt><trkpt lat="39.20692175702448" lon="16.309343718701644"><ele>620.0</ele><time>2026-04-12T17:26:21Z</time></trkpt><trkpt lat="39.20719586639127" lon="16.30923222636757"><ele>621.5</ele><time>2026-04-12T17:26:22Z</time></trkpt><trkpt lat="39.207467784744615" lon="16.309122503039237"><ele>623.0</ele><time>2026-04-12T17:26:23Z</time></trkpt><trkpt lat="39.20774078928713" lon="16.309011697946552"><ele>622.5</ele><time>2026-04-12T17:26:24Z</time></trkpt><trkpt lat="39.20801322647178" lon="16.308901116981346"><ele>622.0</ele><time>2026-04-12T17:26:25Z</time></trkpt><trkpt lat="39.20829125710168" lon="16.308788021023794"><ele>624.5</ele><time>2026-04-12T17:26:26Z</time></trkpt><trkpt lat="39.208565119524934" lon="16.308672361542076"><ele>627.0</ele><time>2026-04-12T17:26:27Z</time></trkpt><trkpt lat="39.20884005454226" lon="16.308553326798542"><ele>629.5</ele><time>2026-04-12T17:26:28Z</time></trkpt><trkpt lat="39.20911893680587" lon="16.308449109410837"><ele>632.0</ele><time>2026-04-12T17:26:29Z</time></trkpt><trkpt lat="39.20939537446449" lon="16.308336819693462"><ele>632.0</ele><time>2026-04-12T17:26:30Z</time></trkpt><trkpt lat="39.20966972179056" lon="16.308217644672226"><ele>632.0</ele><time>2026-04-12T17:26:31Z</time></trkpt><trkpt lat="39.20994083274678" lon="16.30810424539948"><ele>634.0</ele><time>2026-04-12T17:26:32Z</time></trkpt><trkpt lat="39.2102178878048" lon="16.30799406124051"><ele>636.0</ele><time>2026-04-12T17:26:33Z</time></trkpt><trkpt lat="39.21049484591575" lon="16.307884477695502"><ele>636.0</ele><time>2026-04-12T17:26:34Z</time></trkpt><trkpt lat="39.21077088353" lon="16.307776425628525"><ele>636.0</ele><time>2026-04-12T17:26:35Z</time></trkpt><trkpt lat="39.211044306482655" lon="16.30766413812329"><ele>636.0</ele><time>2026-04-12T17:26:36Z</time></trkpt><trkpt lat="39.21131996436574" lon="16.307549999688792"><ele>636.0</ele><time>2026-04-12T17:26:37Z</time></trkpt><trkpt lat="39.21158798611789" lon="16.307437174582162"><ele>636.5</ele><time>2026-04-12T17:26:38Z</time></trkpt><trkpt lat="39.21186632160043" lon="16.307322912511587"><ele>637.0</ele><time>2026-04-12T17:26:39Z</time></trkpt><trkpt lat="39.21214335945386" lon="16.307211144465697"><ele>636.5</ele><time>2026-04-12T17:26:40Z</time></trkpt><trkpt lat="39.212417246118804" lon="16.307095086689845"><ele>636.0</ele><time>2026-04-12T17:26:41Z</time></trkpt><trkpt lat="39.21269183711128" lon="16.30698143369656"><ele>636.0</ele><time>2026-04-12T17:26:42Z</time></trkpt><trkpt lat="39.21296652472942" lon="16.306869034162343"><ele>636.0</ele><time>2026-04-12T17:26:43Z</time></trkpt><trkpt lat="39.21324110932176" lon="16.306760374727457"><ele>633.5</ele><time>2026-04-12T17:26:44Z</time></trkpt><trkpt lat="39.213519179536185" lon="16.306644485642153"><ele>631.0</ele><time>2026-04-12T17:26:45Z</time></trkpt><trkpt lat="39.21380052459103" lon="16.306536281039886"><ele>631.5</ele><time>2026-04-12T17:26:46Z</time></trkpt><trkpt lat="39.21408030252343" lon="16.306422555932656"><ele>632.0</ele><time>2026-04-12T17:26:47Z</time></trkpt><trkpt lat="39.21436294841267" lon="16.30630904879346"><ele>630.5</ele><time>2026-04-12T17:26:48Z</time></trkpt><trkpt lat="39.21465014271921" lon="16.3061884673282"><ele>629.0</ele><time>2026-04-12T17:26:49Z</time></trkpt><trkpt lat="39.2149371627045" lon="16.30607207773173"><ele>632.5</ele><time>2026-04-12T17:26:50Z</time></trkpt><trkpt lat="39.215225040022915" lon="16.305951651486314"><ele>636.0</ele><time>2026-04-12T17:26:51Z</time></trkpt><trkpt lat="39.21551158306146" lon="16.30583531212999"><ele>638.0</ele><time>2026-04-12T17:26:52Z</time></trkpt><trkpt lat="39.215800723711105" lon="16.30572071182952"><ele>640.0</ele><time>2026-04-12T17:26:53Z</time></trkpt><trkpt lat="39.216093773884275" lon="16.305615566902002"><ele>641.5</ele><time>2026-04-12T17:26:54Z</time></trkpt><trkpt lat="39.216386451912015" lon="16.30552300091652"><ele>643.0</ele><time>2026-04-12T17:26:55Z</time></trkpt><trkpt lat="39.21668585502714" lon="16.305425378212302"><ele>644.0</ele><time>2026-04-12T17:26:56Z</time></trkpt><trkpt lat="39.21698653469243" lon="16.30533127942528"><ele>645.0</ele><time>2026-04-12T17:26:57Z</time></trkpt><trkpt lat="39.21727750175946" lon="16.305281624655645"><ele>641.5</ele><time>2026-04-12T17:26:58Z</time></trkpt><trkpt lat="39.21757582635827" lon="16.30521444962275"><ele>638.0</ele><time>2026-04-12T17:26:59Z</time></trkpt><trkpt lat="39.21787486228897" lon="16.30515310130576"><ele>636.5</ele><time>2026-04-12T17:27:00Z</time></trkpt><trkpt lat="39.21817521016162" lon="16.30510152656757"><ele>635.0</ele><time>2026-04-12T17:27:01Z</time></trkpt><trkpt lat="39.2184755254236" lon="16.30505196462826"><ele>635.0</ele><time>2026-04-12T17:27:02Z</time></trkpt><trkpt lat="39.21877761759261" lon="16.30500927945114"><ele>635.0</ele><time>2026-04-12T17:27:03Z</time></trkpt><trkpt lat="39.219079062661024" lon="16.30497301529884"><ele>632.5</ele><time>2026-04-12T17:27:04Z</time></trkpt><trkpt lat="39.21937755764264" lon="16.304933387390562"><ele>630.0</ele><time>2026-04-12T17:27:04.999Z</time></trkpt><trkpt lat="39.219682705089504" lon="16.304897248214623"><ele>628.5</ele><time>2026-04-12T17:27:05.999Z</time></trkpt><trkpt lat="39.21998873008547" lon="16.304855752647274"><ele>627.0</ele><time>2026-04-12T17:27:06.999Z</time></trkpt><trkpt lat="39.22029627019832" lon="16.304812656135482"><ele>627.0</ele><time>2026-04-12T17:27:07.999Z</time></trkpt><trkpt lat="39.22060275099175" lon="16.3047687379505"><ele>627.0</ele><time>2026-04-12T17:27:08.999Z</time></trkpt><trkpt lat="39.22091430618125" lon="16.30472881499889"><ele>626.0</ele><time>2026-04-12T17:27:09.999Z</time></trkpt><trkpt lat="39.221228187194185" lon="16.304695620580112"><ele>625.0</ele><time>2026-04-12T17:27:10.999Z</time></trkpt><trkpt lat="39.221548552236335" lon="16.304657819160536"><ele>624.0</ele><time>2026-04-12T17:27:11.999Z</time></trkpt><trkpt lat="39.22186960342301" lon="16.304615819816146"><ele>623.0</ele><time>2026-04-12T17:27:12.999Z</time></trkpt><trkpt lat="39.222187209797625" lon="16.304576069870503"><ele>623.5</ele><time>2026-04-12T17:27:13.999Z</time></trkpt><trkpt lat="39.22251659553725" lon="16.304535826293055"><ele>624.0</ele><time>2026-04-12T17:27:14.999Z</time></trkpt><trkpt lat="39.22284869952516" lon="16.304495297010043"><ele>623.0</ele><time>2026-04-12T17:27:15.999Z</time></trkpt><trkpt lat="39.22317323667327" lon="16.304451951595695"><ele>622.0</ele><time>2026-04-12T17:27:16.999Z</time></trkpt><trkpt lat="39.223503538342065" lon="16.304410013768422"><ele>622.0</ele><time>2026-04-12T17:27:17.999Z</time></trkpt><trkpt lat="39.22383713470651" lon="16.30436654491306"><ele>622.0</ele><time>2026-04-12T17:27:18.999Z</time></trkpt><trkpt lat="39.22418307639147" lon="16.304320547559573"><ele>620.5</ele><time>2026-04-12T17:27:19.999Z</time></trkpt><trkpt lat="39.224527575897184" lon="16.30428883990319"><ele>619.0</ele><time>2026-04-12T17:27:20.999Z</time></trkpt><trkpt lat="39.22487147313574" lon="16.304246356805617"><ele>616.0</ele><time>2026-04-12T17:27:21.999Z</time></trkpt><trkpt lat="39.22521233886772" lon="16.304203168549577"><ele>613.0</ele><time>2026-04-12T17:27:22.999Z</time></trkpt><trkpt lat="39.225546953324034" lon="16.304165718251387"><ele>611.0</ele><time>2026-04-12T17:27:23.999Z</time></trkpt><trkpt lat="39.22587135414929" lon="16.304135588193283"><ele>609.0</ele><time>2026-04-12T17:27:24.999Z</time></trkpt><trkpt lat="39.22618917541276" lon="16.304108357215753"><ele>607.0</ele><time>2026-04-12T17:27:25.999Z</time></trkpt><trkpt lat="39.22650823040389" lon="16.304079987537452"><ele>605.0</ele><time>2026-04-12T17:27:26.999Z</time></trkpt><trkpt lat="39.226834310387794" lon="16.30405109903246"><ele>605.0</ele><time>2026-04-12T17:27:27.999Z</time></trkpt><trkpt lat="39.22715609907143" lon="16.304017675679777"><ele>605.0</ele><time>2026-04-12T17:27:28.999Z</time></trkpt><trkpt lat="39.22746689943" lon="16.30398297581454"><ele>603.5</ele><time>2026-04-12T17:27:29.999Z</time></trkpt><trkpt lat="39.227758220045246" lon="16.303952851228356"><ele>602.0</ele><time>2026-04-12T17:27:30.999Z</time></trkpt><trkpt lat="39.22803175467592" lon="16.30390586218351"><ele>595.0</ele><time>2026-04-12T17:27:31.999Z</time></trkpt><trkpt lat="39.22830702787795" lon="16.303851239901736"><ele>588.0</ele><time>2026-04-12T17:27:32.999Z</time></trkpt><trkpt lat="39.228576995270636" lon="16.303770274703986"><ele>588.0</ele><time>2026-04-12T17:27:33.999Z</time></trkpt><trkpt lat="39.22883510177281" lon="16.30367126352754"><ele>588.0</ele><time>2026-04-12T17:27:34.999Z</time></trkpt><trkpt lat="39.22908714742553" lon="16.30355406757081"><ele>589.5</ele><time>2026-04-12T17:27:35.999Z</time></trkpt><trkpt lat="39.22933011951882" lon="16.303413616159553"><ele>591.0</ele><time>2026-04-12T17:27:36.999Z</time></trkpt><trkpt lat="39.22957066187116" lon="16.30325912765886"><ele>591.0</ele><time>2026-04-12T17:27:37.999Z</time></trkpt><trkpt lat="39.229807854426866" lon="16.303081419516758"><ele>591.0</ele><time>2026-04-12T17:27:38.999Z</time></trkpt><trkpt lat="39.23003795874209" lon="16.302888914791957"><ele>587.0</ele><time>2026-04-12T17:27:39.999Z</time></trkpt><trkpt lat="39.23026424248141" lon="16.302675060287818"><ele>583.0</ele><time>2026-04-12T17:27:40.999Z</time></trkpt><trkpt lat="39.23047599106544" lon="16.30243920741894"><ele>582.5</ele><time>2026-04-12T17:27:41.999Z</time></trkpt><trkpt lat="39.23067916963132" lon="16.30218771896412"><ele>582.0</ele><time>2026-04-12T17:27:42.999Z</time></trkpt><trkpt lat="39.230876190828766" lon="16.301922715045283"><ele>582.0</ele><time>2026-04-12T17:27:43.999Z</time></trkpt><trkpt lat="39.231068244878436" lon="16.30165093145533"><ele>582.0</ele><time>2026-04-12T17:27:44.999Z</time></trkpt><trkpt lat="39.231265801055955" lon="16.301369166028476"><ele>581.5</ele><time>2026-04-12T17:27:45.999Z</time></trkpt><trkpt lat="39.23147344826878" lon="16.30107808720308"><ele>581.0</ele><time>2026-04-12T17:27:46.999Z</time></trkpt><trkpt lat="39.23169017791247" lon="16.300762169687435"><ele>576.0</ele><time>2026-04-12T17:27:47.999Z</time></trkpt><trkpt lat="39.23189996331114" lon="16.300488883799243"><ele>571.0</ele><time>2026-04-12T17:27:48.999Z</time></trkpt><trkpt lat="39.23211138605899" lon="16.300193456464797"><ele>571.5</ele><time>2026-04-12T17:27:49.999Z</time></trkpt><trkpt lat="39.232328758703" lon="16.299899382942403"><ele>572.0</ele><time>2026-04-12T17:27:50.999Z</time></trkpt><trkpt lat="39.2325433152311" lon="16.299601934435426"><ele>572.0</ele><time>2026-04-12T17:27:51.999Z</time></trkpt><trkpt lat="39.23275436307926" lon="16.299315372517025"><ele>572.0</ele><time>2026-04-12T17:27:52.999Z</time></trkpt><trkpt lat="39.232963287104205" lon="16.299032722779277"><ele>572.5</ele><time>2026-04-12T17:27:53.999Z</time></trkpt><trkpt lat="39.23317052221085" lon="16.298743150872546"><ele>573.0</ele><time>2026-04-12T17:27:54.999Z</time></trkpt><trkpt lat="39.23336886306671" lon="16.298457383083715"><ele>573.0</ele><time>2026-04-12T17:27:55.999Z</time></trkpt><trkpt lat="39.23357635072447" lon="16.298181402260123"><ele>573.0</ele><time>2026-04-12T17:27:56.999Z</time></trkpt><trkpt lat="39.233775583196206" lon="16.29791123317317"><ele>574.5</ele><time>2026-04-12T17:27:57.999Z</time></trkpt><trkpt lat="39.233974194543414" lon="16.29764154226921"><ele>576.0</ele><time>2026-04-12T17:27:58.999Z</time></trkpt><trkpt lat="39.234172455151345" lon="16.297376835208553"><ele>568.5</ele><time>2026-04-12T17:27:59.999Z</time></trkpt><trkpt lat="39.23437120791018" lon="16.29710723528287"><ele>561.0</ele><time>2026-04-12T17:28:00.999Z</time></trkpt><trkpt lat="39.23456547126479" lon="16.296840545648944"><ele>561.0</ele><time>2026-04-12T17:28:01.999Z</time></trkpt><trkpt lat="39.23476314895337" lon="16.296573229012374"><ele>561.0</ele><time>2026-04-12T17:28:02.998Z</time></trkpt><trkpt lat="39.23495956806846" lon="16.296296686892223"><ele>561.5</ele><time>2026-04-12T17:28:03.998Z</time></trkpt><trkpt lat="39.23516075193899" lon="16.296026195263575"><ele>562.0</ele><time>2026-04-12T17:28:04.998Z</time></trkpt><trkpt lat="39.235360765715285" lon="16.29574922955011"><ele>561.0</ele><time>2026-04-12T17:28:05.998Z</time></trkpt><trkpt lat="39.23555950633763" lon="16.29547684903087"><ele>560.0</ele><time>2026-04-12T17:28:06.998Z</time></trkpt><trkpt lat="39.2357594645091" lon="16.295203312358918"><ele>560.0</ele><time>2026-04-12T17:28:07.998Z</time></trkpt><trkpt lat="39.23595889342446" lon="16.29493045309638"><ele>560.0</ele><time>2026-04-12T17:28:08.998Z</time></trkpt><trkpt lat="39.236157749649784" lon="16.29465892350712"><ele>559.0</ele><time>2026-04-12T17:28:09.998Z</time></trkpt><trkpt lat="39.23635401577148" lon="16.294384193600195"><ele>558.0</ele><time>2026-04-12T17:28:11Z</time></trkpt><trkpt lat="39.23655634794968" lon="16.294117240493918"><ele>550.0</ele><time>2026-04-12T17:28:12Z</time></trkpt><trkpt lat="39.23675579701806" lon="16.293836791464862"><ele>542.0</ele><time>2026-04-12T17:28:13Z</time></trkpt><trkpt lat="39.23696431004391" lon="16.29355468845041"><ele>542.0</ele><time>2026-04-12T17:28:14Z</time></trkpt><trkpt lat="39.237172601084666" lon="16.293274810450615"><ele>542.0</ele><time>2026-04-12T17:28:15Z</time></trkpt><trkpt lat="39.23738461601087" lon="16.29298561460427"><ele>544.0</ele><time>2026-04-12T17:28:16Z</time></trkpt><trkpt lat="39.23759866803025" lon="16.29269483047137"><ele>546.0</ele><time>2026-04-12T17:28:17Z</time></trkpt><trkpt lat="39.237810192169" lon="16.29240447504624"><ele>547.5</ele><time>2026-04-12T17:28:18Z</time></trkpt><trkpt lat="39.238021930630616" lon="16.29210670372413"><ele>549.0</ele><time>2026-04-12T17:28:19Z</time></trkpt><trkpt lat="39.238234753432124" lon="16.29181637029115"><ele>549.0</ele><time>2026-04-12T17:28:20Z</time></trkpt><trkpt lat="39.23844385175259" lon="16.29153132774033"><ele>549.0</ele><time>2026-04-12T17:28:21Z</time></trkpt><trkpt lat="39.2386591656931" lon="16.291252771057433"><ele>548.5</ele><time>2026-04-12T17:28:22Z</time></trkpt><trkpt lat="39.23887606877362" lon="16.290982146885913"><ele>548.0</ele><time>2026-04-12T17:28:23Z</time></trkpt><trkpt lat="39.239101131721355" lon="16.290725410697032"><ele>541.5</ele><time>2026-04-12T17:28:24Z</time></trkpt><trkpt lat="39.239333781005485" lon="16.290480408983168"><ele>535.0</ele><time>2026-04-12T17:28:25Z</time></trkpt><trkpt lat="39.23956796765485" lon="16.29024800923073"><ele>537.5</ele><time>2026-04-12T17:28:26Z</time></trkpt><trkpt lat="39.2398044270601" lon="16.29002436509639"><ele>540.0</ele><time>2026-04-12T17:28:27Z</time></trkpt><trkpt lat="39.24003190415908" lon="16.289803611618463"><ele>534.5</ele><time>2026-04-12T17:28:28Z</time></trkpt><trkpt lat="39.240245954740196" lon="16.289577308174678"><ele>529.0</ele><time>2026-04-12T17:28:29Z</time></trkpt><trkpt lat="39.240462847670806" lon="16.28935518602781"><ele>533.0</ele><time>2026-04-12T17:28:30Z</time></trkpt><trkpt lat="39.24067619588274" lon="16.289130703493893"><ele>537.0</ele><time>2026-04-12T17:28:31Z</time></trkpt><trkpt lat="39.24087892148082" lon="16.28889483617639"><ele>537.5</ele><time>2026-04-12T17:28:32Z</time></trkpt><trkpt lat="39.241068963495486" lon="16.28864344604394"><ele>538.0</ele><time>2026-04-12T17:28:33Z</time></trkpt><trkpt lat="39.241264462344546" lon="16.288386486817934"><ele>538.0</ele><time>2026-04-12T17:28:34Z</time></trkpt><trkpt lat="39.2414602898229" lon="16.28810415139734"><ele>538.0</ele><time>2026-04-12T17:28:35Z</time></trkpt><trkpt lat="39.24165487973909" lon="16.28781209038997"><ele>534.0</ele><time>2026-04-12T17:28:36Z</time></trkpt><trkpt lat="39.241858294036625" lon="16.28750057673245"><ele>530.0</ele><time>2026-04-12T17:28:37Z</time></trkpt><trkpt lat="39.2420663440455" lon="16.28718579997371"><ele>528.5</ele><time>2026-04-12T17:28:38Z</time></trkpt><trkpt lat="39.24227871152027" lon="16.286867254659057"><ele>527.0</ele><time>2026-04-12T17:28:39Z</time></trkpt><trkpt lat="39.24248899478232" lon="16.286562353820447"><ele>529.0</ele><time>2026-04-12T17:28:40Z</time></trkpt><trkpt lat="39.242698524351674" lon="16.286255200192603"><ele>531.0</ele><time>2026-04-12T17:28:41Z</time></trkpt><trkpt lat="39.242903950545134" lon="16.285963799071315"><ele>531.0</ele><time>2026-04-12T17:28:42Z</time></trkpt><trkpt lat="39.24310041558592" lon="16.28567535715613"><ele>531.0</ele><time>2026-04-12T17:28:43Z</time></trkpt><trkpt lat="39.2432932396606" lon="16.285390895146953"><ele>527.0</ele><time>2026-04-12T17:28:44Z</time></trkpt><trkpt lat="39.24348294492414" lon="16.285116213531683"><ele>523.0</ele><time>2026-04-12T17:28:45Z</time></trkpt><trkpt lat="39.24367671807978" lon="16.28485232617226"><ele>520.0</ele><time>2026-04-12T17:28:46Z</time></trkpt><trkpt lat="39.243868478196106" lon="16.284599144927537"><ele>517.0</ele><time>2026-04-12T17:28:47Z</time></trkpt><trkpt lat="39.244063242312805" lon="16.284347844062697"><ele>517.0</ele><time>2026-04-12T17:28:48Z</time></trkpt><trkpt lat="39.24425793507569" lon="16.284094559386784"><ele>517.0</ele><time>2026-04-12T17:28:49Z</time></trkpt><trkpt lat="39.24445622248167" lon="16.283837787633573"><ele>515.0</ele><time>2026-04-12T17:28:50Z</time></trkpt><trkpt lat="39.244658326226194" lon="16.283580967223084"><ele>513.0</ele><time>2026-04-12T17:28:51Z</time></trkpt><trkpt lat="39.244932633879614" lon="16.28348871296092"><ele>513.0</ele><time>2026-04-12T17:28:52Z</time></trkpt><trkpt lat="39.245162756191654" lon="16.28327976456739"><ele>513.0</ele><time>2026-04-12T17:28:53Z</time></trkpt><trkpt lat="39.245392304615116" lon="16.28307121925622"><ele>514.0</ele><time>2026-04-12T17:28:54Z</time></trkpt><trkpt lat="39.24562658522654" lon="16.28286022142897"><ele>515.0</ele><time>2026-04-12T17:28:55Z</time></trkpt><trkpt lat="39.245858344002734" lon="16.28265137294885"><ele>515.0</ele><time>2026-04-12T17:28:56Z</time></trkpt><trkpt lat="39.24608721373259" lon="16.282436029919097"><ele>515.0</ele><time>2026-04-12T17:28:57Z</time></trkpt><trkpt lat="39.24632834208455" lon="16.282239339945885"><ele>510.0</ele><time>2026-04-12T17:28:58Z</time></trkpt><trkpt lat="39.24656621811872" lon="16.282035824000694"><ele>505.0</ele><time>2026-04-12T17:28:59Z</time></trkpt><trkpt lat="39.24680099219439" lon="16.281828569588093"><ele>505.0</ele><time>2026-04-12T17:29:00Z</time></trkpt><trkpt lat="39.247019882872536" lon="16.281597502757"><ele>505.0</ele><time>2026-04-12T17:29:01Z</time></trkpt><trkpt lat="39.24724056688598" lon="16.2813720041907"><ele>501.5</ele><time>2026-04-12T17:29:02Z</time></trkpt><trkpt lat="39.24746272737565" lon="16.28116029002152"><ele>498.0</ele><time>2026-04-12T17:29:02.999Z</time></trkpt><trkpt lat="39.247678445869106" lon="16.28095508404316"><ele>498.0</ele><time>2026-04-12T17:29:03.999Z</time></trkpt><trkpt lat="39.247880209609185" lon="16.280752152124588"><ele>498.0</ele><time>2026-04-12T17:29:04.999Z</time></trkpt><trkpt lat="39.248071827822315" lon="16.280564236760178"><ele>493.5</ele><time>2026-04-12T17:29:05.999Z</time></trkpt><trkpt lat="39.2482699899452" lon="16.280384224110062"><ele>489.0</ele><time>2026-04-12T17:29:06.999Z</time></trkpt><trkpt lat="39.248464955063625" lon="16.280228545594174"><ele>489.0</ele><time>2026-04-12T17:29:07.999Z</time></trkpt><trkpt lat="39.24865863666421" lon="16.280069195965776"><ele>489.0</ele><time>2026-04-12T17:29:08.999Z</time></trkpt><trkpt lat="39.24886874783503" lon="16.279914442366493"><ele>490.5</ele><time>2026-04-12T17:29:09.999Z</time></trkpt><trkpt lat="39.249091438292346" lon="16.279760358516747"><ele>492.0</ele><time>2026-04-12T17:29:10.999Z</time></trkpt><trkpt lat="39.249327569928774" lon="16.279612499183568"><ele>492.0</ele><time>2026-04-12T17:29:11.999Z</time></trkpt><trkpt lat="39.24956450725639" lon="16.27945481241952"><ele>492.0</ele><time>2026-04-12T17:29:12.999Z</time></trkpt><trkpt lat="39.249795296445384" lon="16.279290725425934"><ele>485.0</ele><time>2026-04-12T17:29:13.999Z</time></trkpt><trkpt lat="39.250030055087095" lon="16.27912753795924"><ele>478.0</ele><time>2026-04-12T17:29:14.999Z</time></trkpt><trkpt lat="39.25026343123899" lon="16.278942587434333"><ele>474.5</ele><time>2026-04-12T17:29:15.999Z</time></trkpt><trkpt lat="39.250500336417936" lon="16.278746025595478"><ele>471.0</ele><time>2026-04-12T17:29:16.999Z</time></trkpt><trkpt lat="39.2507317875107" lon="16.27854133441331"><ele>471.0</ele><time>2026-04-12T17:29:17.999Z</time></trkpt><trkpt lat="39.25095921229187" lon="16.27832453346078"><ele>471.0</ele><time>2026-04-12T17:29:18.999Z</time></trkpt><trkpt lat="39.25118094954208" lon="16.278099691383602"><ele>468.0</ele><time>2026-04-12T17:29:19.999Z</time></trkpt><trkpt lat="39.2514017925005" lon="16.277867329581987"><ele>465.0</ele><time>2026-04-12T17:29:20.999Z</time></trkpt><trkpt lat="39.25161643894578" lon="16.27762609606369"><ele>465.0</ele><time>2026-04-12T17:29:21.999Z</time></trkpt><trkpt lat="39.25182793946367" lon="16.277373602517887"><ele>465.0</ele><time>2026-04-12T17:29:22.999Z</time></trkpt><trkpt lat="39.252028519106766" lon="16.2771085591316"><ele>462.5</ele><time>2026-04-12T17:29:23.999Z</time></trkpt><trkpt lat="39.25222421259167" lon="16.276841287885574"><ele>460.0</ele><time>2026-04-12T17:29:24.999Z</time></trkpt><trkpt lat="39.25241265083942" lon="16.276569671118658"><ele>467.0</ele><time>2026-04-12T17:29:25.999Z</time></trkpt><trkpt lat="39.252596932557225" lon="16.276301880435334"><ele>474.0</ele><time>2026-04-12T17:29:26.999Z</time></trkpt><trkpt lat="39.25275756844982" lon="16.275992881354114"><ele>474.0</ele><time>2026-04-12T17:29:27.999Z</time></trkpt><trkpt lat="39.252924293405776" lon="16.27570000799425"><ele>474.0</ele><time>2026-04-12T17:29:28.999Z</time></trkpt><trkpt lat="39.25308097861605" lon="16.275404040351926"><ele>464.0</ele><time>2026-04-12T17:29:29.999Z</time></trkpt><trkpt lat="39.253232012592235" lon="16.275107642386242"><ele>454.0</ele><time>2026-04-12T17:29:30.999Z</time></trkpt><trkpt lat="39.25336397160434" lon="16.27481771313294"><ele>459.5</ele><time>2026-04-12T17:29:31.999Z</time></trkpt><trkpt lat="39.253496652104346" lon="16.27451999818119"><ele>465.0</ele><time>2026-04-12T17:29:32.999Z</time></trkpt><trkpt lat="39.2536248867764" lon="16.274225367372303"><ele>465.0</ele><time>2026-04-12T17:29:33.999Z</time></trkpt><trkpt lat="39.25374997804146" lon="16.27395115467804"><ele>465.0</ele><time>2026-04-12T17:29:34.999Z</time></trkpt><trkpt lat="39.2538736263297" lon="16.273685226291814"><ele>451.5</ele><time>2026-04-12T17:29:35.999Z</time></trkpt><trkpt lat="39.253985050199645" lon="16.273427199044345"><ele>438.0</ele><time>2026-04-12T17:29:36.999Z</time></trkpt><trkpt lat="39.25411447924261" lon="16.27317307853754"><ele>437.0</ele><time>2026-04-12T17:29:37.999Z</time></trkpt><trkpt lat="39.25423488120807" lon="16.272928762888803"><ele>436.0</ele><time>2026-04-12T17:29:38.999Z</time></trkpt><trkpt lat="39.25435287216911" lon="16.2726866427682"><ele>435.0</ele><time>2026-04-12T17:29:39.999Z</time></trkpt><trkpt lat="39.254469776293604" lon="16.27244382260097"><ele>432.5</ele><time>2026-04-12T17:29:40.999Z</time></trkpt><trkpt lat="39.2545905239478" lon="16.272187863124977"><ele>430.0</ele><time>2026-04-12T17:29:41.999Z</time></trkpt><trkpt lat="39.25471413870652" lon="16.271927038295235"><ele>430.5</ele><time>2026-04-12T17:29:42.999Z</time></trkpt><trkpt lat="39.254838953659444" lon="16.271660404873597"><ele>431.0</ele><time>2026-04-12T17:29:43.999Z</time></trkpt><trkpt lat="39.25496238193834" lon="16.2713892858301"><ele>431.0</ele><time>2026-04-12T17:29:44.999Z</time></trkpt><trkpt lat="39.255089093868406" lon="16.271110477730875"><ele>431.0</ele><time>2026-04-12T17:29:45.999Z</time></trkpt><trkpt lat="39.25522102067164" lon="16.27081614236676"><ele>435.5</ele><time>2026-04-12T17:29:46.999Z</time></trkpt><trkpt lat="39.25535502654297" lon="16.270516487578355"><ele>440.0</ele><time>2026-04-12T17:29:47.999Z</time></trkpt><trkpt lat="39.25549465219659" lon="16.27021227214037"><ele>436.0</ele><time>2026-04-12T17:29:48.999Z</time></trkpt><trkpt lat="39.255629368153784" lon="16.269905899969515"><ele>432.0</ele><time>2026-04-12T17:29:49.999Z</time></trkpt><trkpt lat="39.25574971116412" lon="16.269604919918425"><ele>432.0</ele><time>2026-04-12T17:29:50.999Z</time></trkpt><trkpt lat="39.255865421054686" lon="16.269298033259478"><ele>432.0</ele><time>2026-04-12T17:29:51.999Z</time></trkpt><trkpt lat="39.25596616757852" lon="16.26899215527616"><ele>436.0</ele><time>2026-04-12T17:29:52.999Z</time></trkpt><trkpt lat="39.25606847896087" lon="16.26868619601907"><ele>440.0</ele><time>2026-04-12T17:29:53.999Z</time></trkpt><trkpt lat="39.256161843365454" lon="16.268370625128398"><ele>448.5</ele><time>2026-04-12T17:29:54.999Z</time></trkpt><trkpt lat="39.25625824250213" lon="16.268045896126623"><ele>457.0</ele><time>2026-04-12T17:29:55.999Z</time></trkpt><trkpt lat="39.256352748161525" lon="16.267724051233095"><ele>457.0</ele><time>2026-04-12T17:29:56.998Z</time></trkpt><trkpt lat="39.256446520291185" lon="16.267413193671757"><ele>457.0</ele><time>2026-04-12T17:29:57.998Z</time></trkpt><trkpt lat="39.256548192924015" lon="16.267098098854767"><ele>443.5</ele><time>2026-04-12T17:29:58.998Z</time></trkpt><trkpt lat="39.256649682293656" lon="16.266746876439527"><ele>430.0</ele><time>2026-04-12T17:29:59.998Z</time></trkpt><trkpt lat="39.25674052225002" lon="16.26639550474235"><ele>430.0</ele><time>2026-04-12T17:30:00.998Z</time></trkpt><trkpt lat="39.25682366028152" lon="16.26604540019695"><ele>430.0</ele><time>2026-04-12T17:30:01.998Z</time></trkpt><trkpt lat="39.25690035919502" lon="16.265698931273416"><ele>434.5</ele><time>2026-04-12T17:30:02.998Z</time></trkpt><trkpt lat="39.25697126010831" lon="16.265353850764182"><ele>439.0</ele><time>2026-04-12T17:30:03.998Z</time></trkpt><trkpt lat="39.257041993892074" lon="16.26500927946389"><ele>443.5</ele><time>2026-04-12T17:30:04.998Z</time></trkpt><trkpt lat="39.25710742721744" lon="16.264662913285694"><ele>448.0</ele><time>2026-04-12T17:30:05.998Z</time></trkpt><trkpt lat="39.25716186484485" lon="16.26431180191003"><ele>448.0</ele><time>2026-04-12T17:30:06.998Z</time></trkpt><trkpt lat="39.257209910263235" lon="16.263963849560373"><ele>448.0</ele><time>2026-04-12T17:30:07.998Z</time></trkpt><trkpt lat="39.25725115165028" lon="16.26361635953601"><ele>420.5</ele><time>2026-04-12T17:30:08.998Z</time></trkpt><trkpt lat="39.25729044923769" lon="16.263272340158153"><ele>393.0</ele><time>2026-04-12T17:30:09.998Z</time></trkpt><trkpt lat="39.25732142625016" lon="16.262931206206016"><ele>386.5</ele><time>2026-04-12T17:30:10.998Z</time></trkpt><trkpt lat="39.257344349928914" lon="16.26260276984025"><ele>380.0</ele><time>2026-04-12T17:30:11.998Z</time></trkpt><trkpt lat="39.257363239146414" lon="16.262282939596563"><ele>373.5</ele><time>2026-04-12T17:30:12.998Z</time></trkpt><trkpt lat="39.25738076473005" lon="16.261977944635156"><ele>367.0</ele><time>2026-04-12T17:30:13.998Z</time></trkpt><trkpt lat="39.25739766265074" lon="16.26168403154108"><ele>369.66666666666663</ele><time>2026-04-12T17:30:14.998Z</time></trkpt><trkpt lat="39.257412953830936" lon="16.261406590075786"><ele>372.3333333333333</ele><time>2026-04-12T17:30:15.998Z</time></trkpt><trkpt lat="39.25742841545675" lon="16.261147354194957"><ele>375.0</ele><time>2026-04-12T17:30:17Z</time></trkpt><trkpt lat="39.257446641674036" lon="16.260884140105734"><ele>375.0</ele><time>2026-04-12T17:30:18Z</time></trkpt><trkpt lat="39.2574633141002" lon="16.260618765427488"><ele>375.0</ele><time>2026-04-12T17:30:19Z</time></trkpt><trkpt lat="39.25747425877133" lon="16.26036812139234"><ele>375.0</ele><time>2026-04-12T17:30:20Z</time></trkpt><trkpt lat="39.25748568386028" lon="16.26012826019861"><ele>382.0</ele><time>2026-04-12T17:30:21Z</time></trkpt><trkpt lat="39.25749740033626" lon="16.25989502368306"><ele>389.0</ele><time>2026-04-12T17:30:22Z</time></trkpt><trkpt lat="39.25750970911754" lon="16.259663044486015"><ele>396.0</ele><time>2026-04-12T17:30:23Z</time></trkpt><trkpt lat="39.25752501852537" lon="16.259433597195088"><ele>398.66666666666663</ele><time>2026-04-12T17:30:24Z</time></trkpt><trkpt lat="39.257546581792134" lon="16.259200547548534"><ele>401.3333333333333</ele><time>2026-04-12T17:30:25Z</time></trkpt><trkpt lat="39.25757737831193" lon="16.25896486615573"><ele>404.0</ele><time>2026-04-12T17:30:26Z</time></trkpt><trkpt lat="39.25761742522577" lon="16.25873133880236"><ele>405.3333333333333</ele><time>2026-04-12T17:30:27Z</time></trkpt><trkpt lat="39.257664857667116" lon="16.25849885802818"><ele>406.66666666666663</ele><time>2026-04-12T17:30:28Z</time></trkpt><trkpt lat="39.257719178261915" lon="16.258262649157615"><ele>408.0</ele><time>2026-04-12T17:30:29Z</time></trkpt><trkpt lat="39.25778054525079" lon="16.258030167697132"><ele>412.0</ele><time>2026-04-12T17:30:30Z</time></trkpt><trkpt lat="39.257855576057494" lon="16.25780209985895"><ele>416.0</ele><time>2026-04-12T17:30:31Z</time></trkpt><trkpt lat="39.25793953324044" lon="16.257579022722407"><ele>420.0</ele><time>2026-04-12T17:30:32Z</time></trkpt><trkpt lat="39.25802264157641" lon="16.257355695791396"><ele>423.0</ele><time>2026-04-12T17:30:33Z</time></trkpt><trkpt lat="39.25811697994506" lon="16.257152976118324"><ele>426.0</ele><time>2026-04-12T17:30:34Z</time></trkpt><trkpt lat="39.25820775677942" lon="16.256944662298462"><ele>429.0</ele><time>2026-04-12T17:30:35Z</time></trkpt><trkpt lat="39.25829994176087" lon="16.25673830079787"><ele>424.0</ele><time>2026-04-12T17:30:36Z</time></trkpt><trkpt lat="39.25839315495395" lon="16.25652812865916"><ele>419.0</ele><time>2026-04-12T17:30:37Z</time></trkpt><trkpt lat="39.25848900726477" lon="16.256318746619844"><ele>414.0</ele><time>2026-04-12T17:30:38Z</time></trkpt><trkpt lat="39.25858746224017" lon="16.256109942665542"><ele>414.0</ele><time>2026-04-12T17:30:39Z</time></trkpt><trkpt lat="39.25868308638158" lon="16.255907267939257"><ele>414.0</ele><time>2026-04-12T17:30:40Z</time></trkpt><trkpt lat="39.25877536082775" lon="16.255706029982868"><ele>414.0</ele><time>2026-04-12T17:30:41Z</time></trkpt><trkpt lat="39.25886792121947" lon="16.255509087529965"><ele>405.66666666666663</ele><time>2026-04-12T17:30:42Z</time></trkpt><trkpt lat="39.2589615620934" lon="16.255314188947573"><ele>397.3333333333333</ele><time>2026-04-12T17:30:43Z</time></trkpt><trkpt lat="39.25905851174845" lon="16.255115818497718"><ele>389.0</ele><time>2026-04-12T17:30:44Z</time></trkpt><trkpt lat="39.2591543893721" lon="16.254917059675947"><ele>394.0</ele><time>2026-04-12T17:30:45Z</time></trkpt><trkpt lat="39.25926134829685" lon="16.254717348329958"><ele>399.0</ele><time>2026-04-12T17:30:46Z</time></trkpt><trkpt lat="39.25937004646222" lon="16.254519508195017"><ele>404.0</ele><time>2026-04-12T17:30:47Z</time></trkpt><trkpt lat="39.25948664137499" lon="16.254317777712238"><ele>404.0</ele><time>2026-04-12T17:30:48Z</time></trkpt><trkpt lat="39.25960443522437" lon="16.25411924426028"><ele>404.0</ele><time>2026-04-12T17:30:49Z</time></trkpt><trkpt lat="39.25973709952957" lon="16.253917398239892"><ele>404.0</ele><time>2026-04-12T17:30:50Z</time></trkpt><trkpt lat="39.25987829201948" lon="16.253714040586384"><ele>404.3333333333333</ele><time>2026-04-12T17:30:51Z</time></trkpt><trkpt lat="39.26002940123326" lon="16.25350580087672"><ele>404.66666666666663</ele><time>2026-04-12T17:30:52Z</time></trkpt><trkpt lat="39.260191168149326" lon="16.253301944456826"><ele>405.0</ele><time>2026-04-12T17:30:53Z</time></trkpt><trkpt lat="39.260351692522" lon="16.25309993263848"><ele>412.0</ele><time>2026-04-12T17:30:54Z</time></trkpt><trkpt lat="39.260514366659955" lon="16.252897248312955"><ele>419.0</ele><time>2026-04-12T17:30:55Z</time></trkpt><trkpt lat="39.26067837766686" lon="16.252693024827945"><ele>419.0</ele><time>2026-04-12T17:30:56.015Z</time></trkpt><trkpt lat="39.260840480647985" lon="16.252490308237153"><ele>419.0</ele><time>2026-04-12T17:30:57.022Z</time></trkpt><trkpt lat="39.26102910818575" lon="16.252334727885355"><ele>419.0</ele><time>2026-04-12T17:30:58.024Z</time></trkpt><trkpt lat="39.26121562180227" lon="16.25217637433545"><ele>390.0</ele><time>2026-04-12T17:30:59.025Z</time></trkpt><trkpt lat="39.2614592844036" lon="16.251982688315152"><ele>361.0</ele><time>2026-04-12T17:30:59.999Z</time></trkpt><trkpt lat="39.2617426162316" lon="16.2518443290658"><ele>361.0</ele><time>2026-04-12T17:31:00.999Z</time></trkpt><trkpt lat="39.26196738389257" lon="16.251700034465898"><ele>361.0</ele><time>2026-04-12T17:31:01.999Z</time></trkpt><trkpt lat="39.262179619270015" lon="16.25156370924948"><ele>359.0</ele><time>2026-04-12T17:31:02.999Z</time></trkpt><trkpt lat="39.262395013849925" lon="16.251437772836233"><ele>357.0</ele><time>2026-04-12T17:31:03.999Z</time></trkpt><trkpt lat="39.26260934338127" lon="16.251327152888333"><ele>357.0</ele><time>2026-04-12T17:31:04.999Z</time></trkpt><trkpt lat="39.262824221561125" lon="16.251227488532347"><ele>357.0</ele><time>2026-04-12T17:31:05.999Z</time></trkpt><trkpt lat="39.263036687714994" lon="16.251138819027627"><ele>356.0</ele><time>2026-04-12T17:31:06.999Z</time></trkpt><trkpt lat="39.263254197865905" lon="16.251051475081148"><ele>355.0</ele><time>2026-04-12T17:31:07.999Z</time></trkpt><trkpt lat="39.26346636637911" lon="16.250962273989128"><ele>355.0</ele><time>2026-04-12T17:31:08.999Z</time></trkpt><trkpt lat="39.26367783980224" lon="16.250872494778925"><ele>355.0</ele><time>2026-04-12T17:31:09.999Z</time></trkpt><trkpt lat="39.263888091426985" lon="16.250784350337106"><ele>355.0</ele><time>2026-04-12T17:31:10.999Z</time></trkpt><trkpt lat="39.2640937491154" lon="16.250694258060552"><ele>370.3333333333333</ele><time>2026-04-12T17:31:11.999Z</time></trkpt><trkpt lat="39.2642971811248" lon="16.250606184872925"><ele>385.66666666666663</ele><time>2026-04-12T17:31:12.999Z</time></trkpt><trkpt lat="39.26449707068301" lon="16.250521542860525"><ele>401.0</ele><time>2026-04-12T17:31:13.999Z</time></trkpt><trkpt lat="39.26468979201572" lon="16.25043301897207"><ele>389.0</ele><time>2026-04-12T17:31:14.999Z</time></trkpt><trkpt lat="39.264881105787865" lon="16.250342292957967"><ele>377.0</ele><time>2026-04-12T17:31:15.999Z</time></trkpt><trkpt lat="39.265063464632945" lon="16.250248280298404"><ele>365.0</ele><time>2026-04-12T17:31:16.999Z</time></trkpt><trkpt lat="39.26525390203764" lon="16.2501471833655"><ele>365.0</ele><time>2026-04-12T17:31:17.999Z</time></trkpt><trkpt lat="39.26544182871757" lon="16.250040510084496"><ele>365.0</ele><time>2026-04-12T17:31:18.999Z</time></trkpt><trkpt lat="39.265631450329955" lon="16.249925084303776"><ele>365.0</ele><time>2026-04-12T17:31:19.999Z</time></trkpt><trkpt lat="39.26582163268554" lon="16.249808035578457"><ele>367.33333333333337</ele><time>2026-04-12T17:31:20.999Z</time></trkpt><trkpt lat="39.26600922590983" lon="16.24967885439051"><ele>369.6666666666667</ele><time>2026-04-12T17:31:21.999Z</time></trkpt><trkpt lat="39.266191974816756" lon="16.249544185331224"><ele>372.0</ele><time>2026-04-12T17:31:22.999Z</time></trkpt><trkpt lat="39.26638036662497" lon="16.24940277687568"><ele>369.6666666666667</ele><time>2026-04-12T17:31:23.999Z</time></trkpt><trkpt lat="39.266568021270814" lon="16.249262325472856"><ele>367.33333333333337</ele><time>2026-04-12T17:31:24.999Z</time></trkpt><trkpt lat="39.26675277339379" lon="16.249112913010794"><ele>365.0</ele><time>2026-04-12T17:31:25.999Z</time></trkpt><trkpt lat="39.26693260009066" lon="16.248952853771133"><ele>369.33333333333337</ele><time>2026-04-12T17:31:26.999Z</time></trkpt><trkpt lat="39.267107414588885" lon="16.248795578841435"><ele>373.6666666666667</ele><time>2026-04-12T17:31:27.999Z</time></trkpt><trkpt lat="39.267274589343124" lon="16.24863640883605"><ele>378.0</ele><time>2026-04-12T17:31:28.999Z</time></trkpt><trkpt lat="39.2674393313688" lon="16.248485979411974"><ele>378.0</ele><time>2026-04-12T17:31:29.999Z</time></trkpt><trkpt lat="39.267598319461285" lon="16.24834077142306"><ele>378.0</ele><time>2026-04-12T17:31:30.999Z</time></trkpt><trkpt lat="39.26774914454553" lon="16.24819310667962"><ele>378.0</ele><time>2026-04-12T17:31:31.999Z</time></trkpt><trkpt lat="39.26789431027251" lon="16.248050528067086"><ele>375.3333333333333</ele><time>2026-04-12T17:31:32.999Z</time></trkpt><trkpt lat="39.26803973146123" lon="16.247914675558828"><ele>372.66666666666663</ele><time>2026-04-12T17:31:33.999Z</time></trkpt><trkpt lat="39.268189828748206" lon="16.24777667579501"><ele>370.0</ele><time>2026-04-12T17:31:34.999Z</time></trkpt><trkpt lat="39.26834055417577" lon="16.247630873613783"><ele>370.0</ele><time>2026-04-12T17:31:35.999Z</time></trkpt><trkpt lat="39.26848868354267" lon="16.24748211849228"><ele>370.0</ele><time>2026-04-12T17:31:36.999Z</time></trkpt><trkpt lat="39.26864510117472" lon="16.247335781503757"><ele>370.0</ele><time>2026-04-12T17:31:37.999Z</time></trkpt><trkpt lat="39.26879886737965" lon="16.247196839709694"><ele>365.3333333333333</ele><time>2026-04-12T17:31:38.999Z</time></trkpt><trkpt lat="39.268961005985304" lon="16.247062006224798"><ele>360.6666666666667</ele><time>2026-04-12T17:31:39.999Z</time></trkpt><trkpt lat="39.26913564177949" lon="16.246945242197597"><ele>356.0</ele><time>2026-04-12T17:31:40.999Z</time></trkpt><trkpt lat="39.26932104719312" lon="16.246837849622395"><ele>356.0</ele><time>2026-04-12T17:31:41.999Z</time></trkpt><trkpt lat="39.26951135358226" lon="16.246745914059836"><ele>356.0</ele><time>2026-04-12T17:31:42.999Z</time></trkpt><trkpt lat="39.26971576947641" lon="16.24667415427557"><ele>356.0</ele><time>2026-04-12T17:31:43.999Z</time></trkpt><trkpt lat="39.269932903804865" lon="16.246627967204333"><ele>349.5</ele><time>2026-04-12T17:31:44.999Z</time></trkpt><trkpt lat="39.27015585738946" lon="16.246600055358805"><ele>343.0</ele><time>2026-04-12T17:31:45.999Z</time></trkpt><trkpt lat="39.27038902580934" lon="16.246594550730332"><ele>344.5</ele><time>2026-04-12T17:31:46.999Z</time></trkpt><trkpt lat="39.270621676179275" lon="16.246620187355713"><ele>346.0</ele><time>2026-04-12T17:31:47.999Z</time></trkpt><trkpt lat="39.27084987897801" lon="16.24666877587493"><ele>346.0</ele><time>2026-04-12T17:31:48.999Z</time></trkpt><trkpt lat="39.27107566566187" lon="16.246736493477886"><ele>346.0</ele><time>2026-04-12T17:31:49.999Z</time></trkpt><trkpt lat="39.27130358999723" lon="16.246809403846097"><ele>356.0</ele><time>2026-04-12T17:31:50.999Z</time></trkpt><trkpt lat="39.27153192963237" lon="16.246890581086962"><ele>366.0</ele><time>2026-04-12T17:31:51.998Z</time></trkpt><trkpt lat="39.271757604763046" lon="16.246961150109975"><ele>366.0</ele><time>2026-04-12T17:31:52.998Z</time></trkpt><trkpt lat="39.271983798128325" lon="16.247037902021074"><ele>366.0</ele><time>2026-04-12T17:31:53.998Z</time></trkpt><trkpt lat="39.27220622261087" lon="16.24710683579199"><ele>358.0</ele><time>2026-04-12T17:31:54.998Z</time></trkpt><trkpt lat="39.27242309623342" lon="16.247176871152128"><ele>350.0</ele><time>2026-04-12T17:31:55.998Z</time></trkpt><trkpt lat="39.27264344985716" lon="16.24725271115731"><ele>340.0</ele><time>2026-04-12T17:31:56.998Z</time></trkpt><trkpt lat="39.27286640161569" lon="16.24732627614665"><ele>330.0</ele><time>2026-04-12T17:31:57.998Z</time></trkpt><trkpt lat="39.27309211711963" lon="16.2473998831009"><ele>332.0</ele><time>2026-04-12T17:31:58.998Z</time></trkpt><trkpt lat="39.27331707028467" lon="16.247473595167158"><ele>334.0</ele><time>2026-04-12T17:31:59.998Z</time></trkpt><trkpt lat="39.27354151392623" lon="16.24754818094086"><ele>334.0</ele><time>2026-04-12T17:32:00.998Z</time></trkpt><trkpt lat="39.27376641002888" lon="16.24762159841023"><ele>334.0</ele><time>2026-04-12T17:32:01.998Z</time></trkpt><trkpt lat="39.273991357609496" lon="16.247697290548885"><ele>343.5</ele><time>2026-04-12T17:32:02.998Z</time></trkpt><trkpt lat="39.274217218304706" lon="16.247773090787515"><ele>353.0</ele><time>2026-04-12T17:32:03.998Z</time></trkpt><trkpt lat="39.274444734577536" lon="16.24784430944936"><ele>353.0</ele><time>2026-04-12T17:32:04.998Z</time></trkpt><trkpt lat="39.27466764585771" lon="16.24791621526555"><ele>353.0</ele><time>2026-04-12T17:32:05.998Z</time></trkpt><trkpt lat="39.27488935368639" lon="16.24799433016607"><ele>357.33333333333337</ele><time>2026-04-12T17:32:06.998Z</time></trkpt><trkpt lat="39.27509994995148" lon="16.248086416118166"><ele>361.6666666666667</ele><time>2026-04-12T17:32:07.998Z</time></trkpt><trkpt lat="39.27530536315061" lon="16.248186070577937"><ele>366.0</ele><time>2026-04-12T17:32:08.998Z</time></trkpt><trkpt lat="39.275502582760176" lon="16.248297128554487"><ele>359.6666666666667</ele><time>2026-04-12T17:32:09.998Z</time></trkpt><trkpt lat="39.27569224796538" lon="16.248410038640884"><ele>353.33333333333337</ele><time>2026-04-12T17:32:10.998Z</time></trkpt><trkpt lat="39.27588314319141" lon="16.248534359804022"><ele>347.0</ele><time>2026-04-12T17:32:11.998Z</time></trkpt><trkpt lat="39.276072590344604" lon="16.24866816144515"><ele>347.0</ele><time>2026-04-12T17:32:12.998Z</time></trkpt><trkpt lat="39.27626191300848" lon="16.248804558275957"><ele>347.0</ele><time>2026-04-12T17:32:13.998Z</time></trkpt><trkpt lat="39.27645162621358" lon="16.248942864295657"><ele>347.0</ele><time>2026-04-12T17:32:14.998Z</time></trkpt><trkpt lat="39.27665107708479" lon="16.249077669203142"><ele>339.6666666666667</ele><time>2026-04-12T17:32:15.998Z</time></trkpt><trkpt lat="39.27684510696157" lon="16.249205873907165"><ele>332.3333333333333</ele><time>2026-04-12T17:32:16.998Z</time></trkpt><trkpt lat="39.277049222313046" lon="16.24932443180867"><ele>325.0</ele><time>2026-04-12T17:32:17.998Z</time></trkpt><trkpt lat="39.2772566660544" lon="16.249432140981778"><ele>333.3333333333333</ele><time>2026-04-12T17:32:18.998Z</time></trkpt><trkpt lat="39.277464547514086" lon="16.249514716626706"><ele>341.6666666666667</ele><time>2026-04-12T17:32:19.998Z</time></trkpt><trkpt lat="39.27768159640825" lon="16.249575301597332"><ele>350.0</ele><time>2026-04-12T17:32:20.998Z</time></trkpt><trkpt lat="39.27791063409965" lon="16.24960782324874"><ele>351.0</ele><time>2026-04-12T17:32:21.998Z</time></trkpt><trkpt lat="39.2781434576052" lon="16.24961749694665"><ele>352.0</ele><time>2026-04-12T17:32:23Z</time></trkpt><trkpt lat="39.2783758681438" lon="16.249606210395466"><ele>352.0</ele><time>2026-04-12T17:32:24Z</time></trkpt><trkpt lat="39.27860615852925" lon="16.24957113034893"><ele>352.0</ele><time>2026-04-12T17:32:25Z</time></trkpt><trkpt lat="39.27883109792218" lon="16.249498542086144"><ele>342.0</ele><time>2026-04-12T17:32:26Z</time></trkpt><trkpt lat="39.27904951315906" lon="16.249409288356645"><ele>332.0</ele><time>2026-04-12T17:32:27Z</time></trkpt><trkpt lat="39.27926399833543" lon="16.24929604966704"><ele>332.0</ele><time>2026-04-12T17:32:28Z</time></trkpt><trkpt lat="39.27946751222073" lon="16.249163466458544"><ele>332.0</ele><time>2026-04-12T17:32:29Z</time></trkpt><trkpt lat="39.27966189339368" lon="16.249011308877154"><ele>335.5</ele><time>2026-04-12T17:32:30Z</time></trkpt><trkpt lat="39.27984643628908" lon="16.248835914449426"><ele>339.0</ele><time>2026-04-12T17:32:31Z</time></trkpt><trkpt lat="39.28002087888158" lon="16.248643149431476"><ele>339.0</ele><time>2026-04-12T17:32:32Z</time></trkpt><trkpt lat="39.28018511800459" lon="16.248427674777947"><ele>339.0</ele><time>2026-04-12T17:32:33Z</time></trkpt><trkpt lat="39.280339329772225" lon="16.248211733618486"><ele>338.0</ele><time>2026-04-12T17:32:34Z</time></trkpt><trkpt lat="39.28049370295597" lon="16.24798098564917"><ele>337.0</ele><time>2026-04-12T17:32:35Z</time></trkpt><trkpt lat="39.28065768150555" lon="16.24775161485596"><ele>337.0</ele><time>2026-04-12T17:32:36Z</time></trkpt><trkpt lat="39.2808289448039" lon="16.247513220595486"><ele>337.0</ele><time>2026-04-12T17:32:37Z</time></trkpt><trkpt lat="39.281009686544174" lon="16.247269163241896"><ele>346.0</ele><time>2026-04-12T17:32:38Z</time></trkpt><trkpt lat="39.281189434488105" lon="16.247023835493763"><ele>355.0</ele><time>2026-04-12T17:32:39Z</time></trkpt><trkpt lat="39.28136644534489" lon="16.24677958421778"><ele>344.0</ele><time>2026-04-12T17:32:40Z</time></trkpt><trkpt lat="39.281539983511315" lon="16.246538132737825"><ele>333.0</ele><time>2026-04-12T17:32:41Z</time></trkpt><trkpt lat="39.28170882553079" lon="16.246301118730305"><ele>333.0</ele><time>2026-04-12T17:32:42Z</time></trkpt><trkpt lat="39.28187832381025" lon="16.246071719974978"><ele>333.0</ele><time>2026-04-12T17:32:43Z</time></trkpt><trkpt lat="39.282044156851015" lon="16.245843230854845"><ele>331.5</ele><time>2026-04-12T17:32:44Z</time></trkpt><trkpt lat="39.28220419009716" lon="16.245621341465533"><ele>330.0</ele><time>2026-04-12T17:32:45Z</time></trkpt><trkpt lat="39.28236276658627" lon="16.24539989910679"><ele>330.0</ele><time>2026-04-12T17:32:46Z</time></trkpt><trkpt lat="39.282523971713154" lon="16.245183179802194"><ele>330.0</ele><time>2026-04-12T17:32:47Z</time></trkpt><trkpt lat="39.28269619311354" lon="16.2449636044539"><ele>341.5</ele><time>2026-04-12T17:32:48Z</time></trkpt><trkpt lat="39.28286879607657" lon="16.24476365428631"><ele>353.0</ele><time>2026-04-12T17:32:49Z</time></trkpt><trkpt lat="39.28304158126131" lon="16.244565873908478"><ele>340.0</ele><time>2026-04-12T17:32:50Z</time></trkpt><trkpt lat="39.28322270323572" lon="16.244375144420513"><ele>327.0</ele><time>2026-04-12T17:32:51Z</time></trkpt><trkpt lat="39.28340513375796" lon="16.244193790690602"><ele>327.0</ele><time>2026-04-12T17:32:52Z</time></trkpt><trkpt lat="39.28358938698303" lon="16.244016639836968"><ele>327.0</ele><time>2026-04-12T17:32:53Z</time></trkpt><trkpt lat="39.283775124325274" lon="16.243839244730115"><ele>338.3333333333333</ele><time>2026-04-12T17:32:54Z</time></trkpt><trkpt lat="39.283951208603035" lon="16.243669982732445"><ele>349.66666666666663</ele><time>2026-04-12T17:32:55Z</time></trkpt><trkpt lat="39.28412623791067" lon="16.243494095265692"><ele>361.0</ele><time>2026-04-12T17:32:56Z</time></trkpt><trkpt lat="39.2843084920791" lon="16.243316670720834"><ele>361.0</ele><time>2026-04-12T17:32:57.024Z</time></trkpt><trkpt lat="39.2844855298314" lon="16.24314176607971"><ele>361.0</ele><time>2026-04-12T17:32:58.025Z</time></trkpt><trkpt lat="39.28466411158173" lon="16.24296759979948"><ele>361.0</ele><time>2026-04-12T17:32:59.023Z</time></trkpt><trkpt lat="39.28484159699626" lon="16.242792976272362"><ele>359.66666666666663</ele><time>2026-04-12T17:33:00.023Z</time></trkpt><trkpt lat="39.285015372282366" lon="16.242619059419194"><ele>358.3333333333333</ele><time>2026-04-12T17:33:01.024Z</time></trkpt><trkpt lat="39.28519003370332" lon="16.242444932573196"><ele>357.0</ele><time>2026-04-12T17:33:02.02Z</time></trkpt><trkpt lat="39.28644565403395" lon="16.241414872944578"><ele>344.0</ele><time>2026-04-12T17:33:08.999Z</time></trkpt><trkpt lat="39.28652203337311" lon="16.241317460663982"><ele>331.0</ele><time>2026-04-12T17:33:09.999Z</time></trkpt><trkpt lat="39.28668226551804" lon="16.241124269130534"><ele>318.0</ele><time>2026-04-12T17:33:10.999Z</time></trkpt><trkpt lat="39.286855194623854" lon="16.24096279029971"><ele>318.0</ele><time>2026-04-12T17:33:11.999Z</time></trkpt><trkpt lat="39.28702031124017" lon="16.240816844275482"><ele>318.0</ele><time>2026-04-12T17:33:12.999Z</time></trkpt><trkpt lat="39.28719363506328" lon="16.240666470499477"><ele>318.0</ele><time>2026-04-12T17:33:13.999Z</time></trkpt><trkpt lat="39.28737628625046" lon="16.240508914099543"><ele>299.5</ele><time>2026-04-12T17:33:14.999Z</time></trkpt><trkpt lat="39.287565306042886" lon="16.24034966253485"><ele>281.0</ele><time>2026-04-12T17:33:15.999Z</time></trkpt><trkpt lat="39.28776329104165" lon="16.240191937139528"><ele>281.0</ele><time>2026-04-12T17:33:16.999Z</time></trkpt><trkpt lat="39.287968346759136" lon="16.2400428360206"><ele>281.0</ele><time>2026-04-12T17:33:17.999Z</time></trkpt><trkpt lat="39.28818281226134" lon="16.2399007067025"><ele>276.0</ele><time>2026-04-12T17:33:18.999Z</time></trkpt><trkpt lat="39.28839981826128" lon="16.239761562378096"><ele>271.0</ele><time>2026-04-12T17:33:19.999Z</time></trkpt><trkpt lat="39.288617875145235" lon="16.239638536660532"><ele>271.0</ele><time>2026-04-12T17:33:20.999Z</time></trkpt><trkpt lat="39.28884145724476" lon="16.239524795109034"><ele>271.0</ele><time>2026-04-12T17:33:21.999Z</time></trkpt><trkpt lat="39.28906823476684" lon="16.239415789262026"><ele>285.5</ele><time>2026-04-12T17:33:22.999Z</time></trkpt><trkpt lat="39.28930460513847" lon="16.239315375891056"><ele>300.0</ele><time>2026-04-12T17:33:23.999Z</time></trkpt><trkpt lat="39.28955227060751" lon="16.23922266973248"><ele>309.0</ele><time>2026-04-12T17:33:24.999Z</time></trkpt><trkpt lat="39.28978996199749" lon="16.23914623288796"><ele>318.0</ele><time>2026-04-12T17:33:25.999Z</time></trkpt><trkpt lat="39.290041767862725" lon="16.23908010112203"><ele>318.0</ele><time>2026-04-12T17:33:26.999Z</time></trkpt><trkpt lat="39.29029271165114" lon="16.23902986850044"><ele>318.0</ele><time>2026-04-12T17:33:27.999Z</time></trkpt><trkpt lat="39.29054378075301" lon="16.23898823024327"><ele>319.5</ele><time>2026-04-12T17:33:28.999Z</time></trkpt><trkpt lat="39.290793218909094" lon="16.238956054693723"><ele>321.0</ele><time>2026-04-12T17:33:29.999Z</time></trkpt><trkpt lat="39.29103558723419" lon="16.238916848892355"><ele>321.0</ele><time>2026-04-12T17:33:30.999Z</time></trkpt><trkpt lat="39.291261057110276" lon="16.238868412250195"><ele>321.0</ele><time>2026-04-12T17:33:31.999Z</time></trkpt><trkpt lat="39.29146926093908" lon="16.238815916599854"><ele>321.0</ele><time>2026-04-12T17:33:32.999Z</time></trkpt><trkpt lat="39.29167502631213" lon="16.238756208221005"><ele>320.0</ele><time>2026-04-12T17:33:33.999Z</time></trkpt><trkpt lat="39.291876722565014" lon="16.238685871298024"><ele>319.0</ele><time>2026-04-12T17:33:34.999Z</time></trkpt><trkpt lat="39.29208673654739" lon="16.238619081249517"><ele>318.0</ele><time>2026-04-12T17:33:35.999Z</time></trkpt><trkpt lat="39.292297925613546" lon="16.23854868710145"><ele>323.6666666666667</ele><time>2026-04-12T17:33:36.999Z</time></trkpt><trkpt lat="39.29251113110599" lon="16.23847763401678"><ele>329.33333333333337</ele><time>2026-04-12T17:33:37.999Z</time></trkpt><trkpt lat="39.292725701398055" lon="16.238401373888056"><ele>335.0</ele><time>2026-04-12T17:33:39.014Z</time></trkpt><trkpt lat="39.29293519353747" lon="16.23832618632157"><ele>340.0</ele><time>2026-04-12T17:33:40.016Z</time></trkpt><trkpt lat="39.29314627303684" lon="16.238251581537327"><ele>345.0</ele><time>2026-04-12T17:33:41.016Z</time></trkpt><trkpt lat="39.29335512958464" lon="16.238177984054285"><ele>350.0</ele><time>2026-04-12T17:33:42.015Z</time></trkpt><trkpt lat="39.29357178931715" lon="16.238100636120013"><ele>350.0</ele><time>2026-04-12T17:33:43.015Z</time></trkpt><trkpt lat="39.293790486354865" lon="16.238022660252536"><ele>350.0</ele><time>2026-04-12T17:33:44.014Z</time></trkpt><trkpt lat="39.29538848900026" lon="16.237623281123263"><ele>304.0</ele><time>2026-04-12T17:33:47.025Z</time></trkpt><trkpt lat="39.29585622627222" lon="16.23747873121522"><ele>304.0</ele><time>2026-04-12T17:33:52.999Z</time></trkpt><trkpt lat="39.2961337560155" lon="16.237376048416913"><ele>304.0</ele><time>2026-04-12T17:33:53.999Z</time></trkpt><trkpt lat="39.29631373026454" lon="16.23733826970968"><ele>300.0</ele><time>2026-04-12T17:33:54.999Z</time></trkpt><trkpt lat="39.296524885087756" lon="16.237280622673346"><ele>296.0</ele><time>2026-04-12T17:33:55.999Z</time></trkpt><trkpt lat="39.2967462603181" lon="16.23721921329599"><ele>292.0</ele><time>2026-04-12T17:33:56.999Z</time></trkpt><trkpt lat="39.29696857734362" lon="16.23715549642064"><ele>292.0</ele><time>2026-04-12T17:33:57.998Z</time></trkpt><trkpt lat="39.29718521810767" lon="16.237088573577456"><ele>292.0</ele><time>2026-04-12T17:33:58.998Z</time></trkpt><trkpt lat="39.29740645828098" lon="16.237018695239495"><ele>291.0</ele><time>2026-04-12T17:33:59.998Z</time></trkpt><trkpt lat="39.29762949602795" lon="16.236952324244413"><ele>290.0</ele><time>2026-04-12T17:34:00.998Z</time></trkpt><trkpt lat="39.29784380115085" lon="16.236887348696424"><ele>289.0</ele><time>2026-04-12T17:34:01.998Z</time></trkpt><trkpt lat="39.298060030588395" lon="16.23683338305324"><ele>288.66666666666663</ele><time>2026-04-12T17:34:02.998Z</time></trkpt><trkpt lat="39.29826962383042" lon="16.236777316529416"><ele>288.3333333333333</ele><time>2026-04-12T17:34:03.998Z</time></trkpt><trkpt lat="39.29847819297034" lon="16.236724004164337"><ele>288.0</ele><time>2026-04-12T17:34:04.998Z</time></trkpt><trkpt lat="39.29868971571894" lon="16.236662197207618"><ele>288.0</ele><time>2026-04-12T17:34:05.998Z</time></trkpt><trkpt lat="39.29889368499936" lon="16.23660461835352"><ele>288.0</ele><time>2026-04-12T17:34:06.998Z</time></trkpt><trkpt lat="39.29909025899269" lon="16.236546427024074"><ele>288.0</ele><time>2026-04-12T17:34:07.998Z</time></trkpt><trkpt lat="39.29929065514714" lon="16.236488309930316"><ele>284.3333333333333</ele><time>2026-04-12T17:34:08.998Z</time></trkpt><trkpt lat="39.299491025219865" lon="16.236439716764547"><ele>280.66666666666663</ele><time>2026-04-12T17:34:09.998Z</time></trkpt><trkpt lat="39.29967512844307" lon="16.236419584776105"><ele>277.0</ele><time>2026-04-12T17:34:10.998Z</time></trkpt><trkpt lat="39.29987672919213" lon="16.236431455559718"><ele>278.66666666666663</ele><time>2026-04-12T17:34:11.998Z</time></trkpt><trkpt lat="39.30004828841434" lon="16.236466098767394"><ele>280.3333333333333</ele><time>2026-04-12T17:34:12.998Z</time></trkpt><trkpt lat="39.300229556026544" lon="16.236531547480304"><ele>282.0</ele><time>2026-04-12T17:34:13.998Z</time></trkpt><trkpt lat="39.30040207934833" lon="16.236627737875413"><ele>282.0</ele><time>2026-04-12T17:34:14.998Z</time></trkpt><trkpt lat="39.300572215690934" lon="16.236745274385893"><ele>282.0</ele><time>2026-04-12T17:34:15.998Z</time></trkpt><trkpt lat="39.30074822008067" lon="16.236878501502996"><ele>282.0</ele><time>2026-04-12T17:34:16.998Z</time></trkpt><trkpt lat="39.30093678440385" lon="16.23702716367347"><ele>278.0</ele><time>2026-04-12T17:34:17.998Z</time></trkpt><trkpt lat="39.30113256994151" lon="16.2371736391871"><ele>274.0</ele><time>2026-04-12T17:34:18.998Z</time></trkpt><trkpt lat="39.30132978514979" lon="16.2373206911442"><ele>272.0</ele><time>2026-04-12T17:34:19.998Z</time></trkpt><trkpt lat="39.30152785796868" lon="16.237467184566686"><ele>270.0</ele><time>2026-04-12T17:34:20.998Z</time></trkpt><trkpt lat="39.301717721651514" lon="16.23761080713904"><ele>268.0</ele><time>2026-04-12T17:34:21.998Z</time></trkpt><trkpt lat="39.30189966174943" lon="16.23776096351623"><ele>268.0</ele><time>2026-04-12T17:34:22.998Z</time></trkpt><trkpt lat="39.302070030936264" lon="16.237926589511847"><ele>268.0</ele><time>2026-04-12T17:34:23.998Z</time></trkpt><trkpt lat="39.30223558471378" lon="16.238102539155857"><ele>268.0</ele><time>2026-04-12T17:34:24.998Z</time></trkpt><trkpt lat="39.3023926085417" lon="16.238303840960814"><ele>267.0</ele><time>2026-04-12T17:34:25.998Z</time></trkpt><trkpt lat="39.30253865929286" lon="16.23850934654151"><ele>266.0</ele><time>2026-04-12T17:34:26.998Z</time></trkpt><trkpt lat="39.30268669563202" lon="16.238724276974636"><ele>265.0</ele><time>2026-04-12T17:34:27.998Z</time></trkpt><trkpt lat="39.302836394079556" lon="16.238942535396156"><ele>265.66666666666663</ele><time>2026-04-12T17:34:29Z</time></trkpt><trkpt lat="39.302987543149555" lon="16.239156073723073"><ele>266.3333333333333</ele><time>2026-04-12T17:34:30Z</time></trkpt><trkpt lat="39.30313927601201" lon="16.23937132948046"><ele>267.0</ele><time>2026-04-12T17:34:31Z</time></trkpt><trkpt lat="39.3032836948824" lon="16.239581325557936"><ele>265.6666666666667</ele><time>2026-04-12T17:34:32Z</time></trkpt><trkpt lat="39.30341914690482" lon="16.239776755231212"><ele>264.33333333333337</ele><time>2026-04-12T17:34:33Z</time></trkpt><trkpt lat="39.3035510252888" lon="16.239970426492334"><ele>263.0</ele><time>2026-04-12T17:34:34Z</time></trkpt><trkpt lat="39.303681540277594" lon="16.24016257679596"><ele>263.0</ele><time>2026-04-12T17:34:35Z</time></trkpt><trkpt lat="39.30381468400796" lon="16.240353190604765"><ele>263.0</ele><time>2026-04-12T17:34:36Z</time></trkpt><trkpt lat="39.303951216987116" lon="16.240544652365966"><ele>263.0</ele><time>2026-04-12T17:34:37Z</time></trkpt><trkpt lat="39.30408248980912" lon="16.240739304366457"><ele>261.33333333333337</ele><time>2026-04-12T17:34:38Z</time></trkpt><trkpt lat="39.304212162924046" lon="16.24094069700159"><ele>259.6666666666667</ele><time>2026-04-12T17:34:39Z</time></trkpt><trkpt lat="39.30433724599801" lon="16.24114753295102"><ele>258.0</ele><time>2026-04-12T17:34:40Z</time></trkpt><trkpt lat="39.30445087212473" lon="16.241369352577756"><ele>259.0</ele><time>2026-04-12T17:34:41Z</time></trkpt><trkpt lat="39.30453897014799" lon="16.241604756162992"><ele>260.0</ele><time>2026-04-12T17:34:42Z</time></trkpt><trkpt lat="39.304610498558134" lon="16.241854278169498"><ele>261.0</ele><time>2026-04-12T17:34:43Z</time></trkpt><trkpt lat="39.30467282927403" lon="16.242102133038813"><ele>258.6666666666667</ele><time>2026-04-12T17:34:44Z</time></trkpt><trkpt lat="39.304739414301544" lon="16.242344062553173"><ele>256.33333333333337</ele><time>2026-04-12T17:34:45Z</time></trkpt><trkpt lat="39.30480448040874" lon="16.242582124289775"><ele>254.0</ele><time>2026-04-12T17:34:46Z</time></trkpt><trkpt lat="39.30487825435172" lon="16.242818368784448"><ele>254.0</ele><time>2026-04-12T17:34:47Z</time></trkpt><trkpt lat="39.3049457296689" lon="16.24304385922979"><ele>254.0</ele><time>2026-04-12T17:34:48Z</time></trkpt><trkpt lat="39.30501420880779" lon="16.24326721853248"><ele>254.0</ele><time>2026-04-12T17:34:49Z</time></trkpt><trkpt lat="39.30509139152218" lon="16.243470061240767"><ele>253.75</ele><time>2026-04-12T17:34:50Z</time></trkpt><trkpt lat="39.30515852211789" lon="16.243658591905856"><ele>253.5</ele><time>2026-04-12T17:34:51Z</time></trkpt><trkpt lat="39.305207014203205" lon="16.243839103735386"><ele>253.25</ele><time>2026-04-12T17:34:52Z</time></trkpt><trkpt lat="39.305236745082645" lon="16.244010393566146"><ele>253.0</ele><time>2026-04-12T17:34:53Z</time></trkpt><trkpt lat="39.30524566593254" lon="16.244165688338242"><ele>253.8</ele><time>2026-04-12T17:34:54Z</time></trkpt><trkpt lat="39.305238003162685" lon="16.244311632345834"><ele>254.60000000000002</ele><time>2026-04-12T17:34:55Z</time></trkpt><trkpt lat="39.30522047263735" lon="16.24445402395553"><ele>255.39999999999998</ele><time>2026-04-12T17:34:56Z</time></trkpt><trkpt lat="39.30519975126914" lon="16.244583077897147"><ele>256.2</ele><time>2026-04-12T17:34:57Z</time></trkpt><trkpt lat="39.30519333029121" lon="16.244694400841766"><ele>257.0</ele><time>2026-04-12T17:34:58Z</time></trkpt><trkpt lat="39.305191506925624" lon="16.24479200408729"><ele>256.83333333333337</ele><time>2026-04-12T17:34:59Z</time></trkpt><trkpt lat="39.30518256359" lon="16.2448754727195"><ele>256.6666666666667</ele><time>2026-04-12T17:35:00Z</time></trkpt><trkpt lat="39.30517759258436" lon="16.244987077692922"><ele>256.5</ele><time>2026-04-12T17:35:01Z</time></trkpt><trkpt lat="39.30518244872101" lon="16.245112275806697"><ele>256.3333333333333</ele><time>2026-04-12T17:35:02Z</time></trkpt><trkpt lat="39.30519783910892" lon="16.245230569750426"><ele>256.16666666666663</ele><time>2026-04-12T17:35:03Z</time></trkpt><trkpt lat="39.30524516974765" lon="16.245335550850434"><ele>256.0</ele><time>2026-04-12T17:35:04Z</time></trkpt><trkpt lat="39.305309398183354" lon="16.245406313929426"><ele>256.0</ele><time>2026-04-12T17:35:05Z</time></trkpt><trkpt lat="39.30537451927305" lon="16.245446302952384"><ele>256.0</ele><time>2026-04-12T17:35:06Z</time></trkpt><trkpt lat="39.30544107610413" lon="16.245461057760885"><ele>256.0</ele><time>2026-04-12T17:35:07Z</time></trkpt><trkpt lat="39.305547184420675" lon="16.245460865144455"><ele>256.0</ele><time>2026-04-12T17:35:09Z</time></trkpt><trkpt lat="39.3056552901666" lon="16.2454398216996"><ele>256.0</ele><time>2026-04-12T17:35:10.999Z</time></trkpt><trkpt lat="39.30574968202937" lon="16.24542143892485"><ele>255.83333333333331</ele><time>2026-04-12T17:35:12.999Z</time></trkpt><trkpt lat="39.305833571098695" lon="16.245425589320188"><ele>255.66666666666666</ele><time>2026-04-12T17:35:14.999Z</time></trkpt><trkpt lat="39.305915018631794" lon="16.245417337191796"><ele>255.5</ele><time>2026-04-12T17:35:16.999Z</time></trkpt><trkpt lat="39.30599958506008" lon="16.24541312080124"><ele>255.33333333333331</ele><time>2026-04-12T17:35:18.999Z</time></trkpt><trkpt lat="39.30608359053036" lon="16.245424978440433"><ele>255.16666666666666</ele><time>2026-04-12T17:35:20.999Z</time></trkpt><trkpt lat="39.30616487095041" lon="16.24543720023189"><ele>255.0</ele><time>2026-04-12T17:35:22.999Z</time></trkpt><trkpt lat="39.30623167691034" lon="16.24545242053487"><ele>255.0</ele><time>2026-04-12T17:35:24.999Z</time></trkpt><trkpt lat="39.30629534632635" lon="16.2454572675638"><ele>255.0</ele><time>2026-04-12T17:35:26.999Z</time></trkpt><trkpt lat="39.306366422619824" lon="16.245467311377816"><ele>255.0</ele><time>2026-04-12T17:35:29.999Z</time></trkpt><trkpt lat="39.30644040386452" lon="16.24547716500557"><ele>255.0</ele><time>2026-04-12T17:35:34.999Z</time></trkpt><trkpt lat="39.30650836713582" lon="16.245504540282692"><ele>255.0</ele><time>2026-04-12T17:35:37.999Z</time></trkpt><trkpt lat="39.306606503344895" lon="16.245560628562554"><ele>255.0</ele><time>2026-04-12T17:35:39.999Z</time></trkpt><trkpt lat="39.30671342789241" lon="16.245530213134174"><ele>255.8</ele><time>2026-04-12T17:35:41.999Z</time></trkpt><trkpt lat="39.306783763877455" lon="16.245568161663655"><ele>256.6</ele><time>2026-04-12T17:35:44.999Z</time></trkpt><trkpt lat="39.30685466717675" lon="16.245565255590442"><ele>257.4</ele><time>2026-04-12T17:35:48.999Z</time></trkpt><trkpt lat="39.306949531982234" lon="16.245626641919294"><ele>258.2</ele><time>2026-04-12T17:35:50.999Z</time></trkpt><trkpt lat="39.30706695514517" lon="16.245684291418424"><ele>259.0</ele><time>2026-04-12T17:35:52.999Z</time></trkpt><trkpt lat="39.3071449688973" lon="16.245699868090746"><ele>256.8</ele><time>2026-04-12T17:35:54.999Z</time></trkpt><trkpt lat="39.307232758602844" lon="16.245726261824124"><ele>254.59999999999997</ele><time>2026-04-12T17:35:57.999Z</time></trkpt><trkpt lat="39.30734462498546" lon="16.245755680277743"><ele>252.4</ele><time>2026-04-12T17:35:59.999Z</time></trkpt><trkpt lat="39.307450617246786" lon="16.245764317527794"><ele>250.2</ele><time>2026-04-12T17:36:01.998Z</time></trkpt><trkpt lat="39.30755098636623" lon="16.245749555394436"><ele>248.0</ele><time>2026-04-12T17:36:03.998Z</time></trkpt><trkpt lat="39.30762068711061" lon="16.24568936484396"><ele>247.83333333333334</ele><time>2026-04-12T17:36:04.998Z</time></trkpt><trkpt lat="39.30770641142559" lon="16.245661173853776"><ele>247.66666666666669</ele><time>2026-04-12T17:36:05.998Z</time></trkpt><trkpt lat="39.30780547167765" lon="16.245651533362317"><ele>247.5</ele><time>2026-04-12T17:36:06.998Z</time></trkpt><trkpt lat="39.3079025331555" lon="16.245635726683023"><ele>247.33333333333331</ele><time>2026-04-12T17:36:07.998Z</time></trkpt><trkpt lat="39.3079823486581" lon="16.245637477879146"><ele>247.16666666666666</ele><time>2026-04-12T17:36:08.998Z</time></trkpt><trkpt lat="39.308055754232534" lon="16.24562543386764"><ele>247.0</ele><time>2026-04-12T17:36:09.998Z</time></trkpt><trkpt lat="39.30816210362838" lon="16.245649389051092"><ele>246.6</ele><time>2026-04-12T17:36:11.998Z</time></trkpt><trkpt lat="39.308247703613326" lon="16.24566838537409"><ele>246.2</ele><time>2026-04-12T17:36:13.998Z</time></trkpt><trkpt lat="39.308328910976265" lon="16.245702048508615"><ele>245.8</ele><time>2026-04-12T17:36:15.998Z</time></trkpt><trkpt lat="39.308399321138616" lon="16.245767463097053"><ele>245.4</ele><time>2026-04-12T17:36:17.998Z</time></trkpt><trkpt lat="39.30847468982113" lon="16.24583760256044"><ele>245.0</ele><time>2026-04-12T17:36:19.998Z</time></trkpt><trkpt lat="39.3085766356253" lon="16.245840016285918"><ele>245.00000000000003</ele><time>2026-04-12T17:36:21.998Z</time></trkpt><trkpt lat="39.308638007018935" lon="16.245820314534622"><ele>245.0</ele><time>2026-04-12T17:36:22.998Z</time></trkpt><trkpt lat="39.308697872191" lon="16.24578834211428"><ele>245.0</ele><time>2026-04-12T17:36:23.998Z</time></trkpt><trkpt lat="39.3088115529001" lon="16.245761550574382"><ele>245.0</ele><time>2026-04-12T17:36:25.998Z</time></trkpt><trkpt lat="39.308936435413536" lon="16.24576038325331"><ele>245.00000000000003</ele><time>2026-04-12T17:36:27.998Z</time></trkpt><trkpt lat="39.30899916088515" lon="16.24576784218768"><ele>245.0</ele><time>2026-04-12T17:36:28.998Z</time></trkpt><trkpt lat="39.30911152326866" lon="16.24577155137036"><ele>245.0</ele><time>2026-04-12T17:36:30.998Z</time></trkpt><trkpt lat="39.30918798962713" lon="16.245845624751738"><ele>245.0</ele><time>2026-04-12T17:36:32.998Z</time></trkpt><trkpt lat="39.30922402584215" lon="16.246027770358378"><ele>245.0</ele><time>2026-04-12T17:36:35Z</time></trkpt><trkpt lat="39.30924583500855" lon="16.24619907942755"><ele>245.0</ele><time>2026-04-12T17:36:36Z</time></trkpt><trkpt lat="39.309257360864585" lon="16.246387841536286"><ele>243.33333333333334</ele><time>2026-04-12T17:36:37Z</time></trkpt><trkpt lat="39.309281345749085" lon="16.24660564422028"><ele>241.66666666666669</ele><time>2026-04-12T17:36:38Z</time></trkpt><trkpt lat="39.30929180131895" lon="16.246835469182624"><ele>240.0</ele><time>2026-04-12T17:36:39Z</time></trkpt><trkpt lat="39.30931066677923" lon="16.247092487328246"><ele>240.0</ele><time>2026-04-12T17:36:40Z</time></trkpt><trkpt lat="39.30933444576323" lon="16.247354578126938"><ele>240.0</ele><time>2026-04-12T17:36:41Z</time></trkpt><trkpt lat="39.30936418306918" lon="16.2476210764807"><ele>240.0</ele><time>2026-04-12T17:36:42Z</time></trkpt><trkpt lat="39.30939355973121" lon="16.24790181898429"><ele>239.33333333333331</ele><time>2026-04-12T17:36:43Z</time></trkpt><trkpt lat="39.309422694925956" lon="16.248186339988152"><ele>238.66666666666666</ele><time>2026-04-12T17:36:44Z</time></trkpt><trkpt lat="39.30944877352335" lon="16.248448938727336"><ele>238.0</ele><time>2026-04-12T17:36:45Z</time></trkpt><trkpt lat="39.3094665690194" lon="16.248700088317833"><ele>238.0</ele><time>2026-04-12T17:36:46Z</time></trkpt><trkpt lat="39.30947174378152" lon="16.248929753222423"><ele>238.0</ele><time>2026-04-12T17:36:47Z</time></trkpt><trkpt lat="39.3094777393052" lon="16.24915522944052"><ele>238.0</ele><time>2026-04-12T17:36:48Z</time></trkpt><trkpt lat="39.309481664668255" lon="16.249367857262786"><ele>238.0</ele><time>2026-04-12T17:36:49Z</time></trkpt><trkpt lat="39.30948533813863" lon="16.24955037996494"><ele>238.0</ele><time>2026-04-12T17:36:50Z</time></trkpt><trkpt lat="39.30949020288099" lon="16.249705891635152"><ele>238.0</ele><time>2026-04-12T17:36:51Z</time></trkpt><trkpt lat="39.30949433206641" lon="16.249837803030694"><ele>238.0</ele><time>2026-04-12T17:36:52Z</time></trkpt><trkpt lat="39.30949864501687" lon="16.249950464131672"><ele>236.83333333333331</ele><time>2026-04-12T17:36:53Z</time></trkpt><trkpt lat="39.30950292478624" lon="16.250034772931063"><ele>235.66666666666666</ele><time>2026-04-12T17:36:54Z</time></trkpt><trkpt lat="39.30951168925014" lon="16.250148561755847"><ele>234.5</ele><time>2026-04-12T17:36:56Z</time></trkpt><trkpt lat="39.30951359497512" lon="16.25024988458446"><ele>233.33333333333331</ele><time>2026-04-12T17:36:59Z</time></trkpt><trkpt lat="39.30952301194867" lon="16.250400145311215"><ele>232.16666666666666</ele><time>2026-04-12T17:37:01Z</time></trkpt><trkpt lat="39.30953587391136" lon="16.250497392728146"><ele>231.0</ele><time>2026-04-12T17:37:02Z</time></trkpt><trkpt lat="39.309549477753684" lon="16.250601172837484"><ele>230.5</ele><time>2026-04-12T17:37:03Z</time></trkpt><trkpt lat="39.30956328563198" lon="16.25069493925032"><ele>230.0</ele><time>2026-04-12T17:37:04Z</time></trkpt><trkpt lat="39.30957774972175" lon="16.25078949066424"><ele>229.5</ele><time>2026-04-12T17:37:05Z</time></trkpt><trkpt lat="39.30959665435064" lon="16.250902703974692"><ele>229.0</ele><time>2026-04-12T17:37:06Z</time></trkpt><trkpt lat="39.309626426315205" lon="16.25102029873565"><ele>228.5</ele><time>2026-04-12T17:37:07Z</time></trkpt><trkpt lat="39.309659711089765" lon="16.251146814335122"><ele>228.0</ele><time>2026-04-12T17:37:08Z</time></trkpt><trkpt lat="39.30969949409991" lon="16.251279040297856"><ele>228.0</ele><time>2026-04-12T17:37:09Z</time></trkpt><trkpt lat="39.30974152584608" lon="16.25140808093091"><ele>228.0</ele><time>2026-04-12T17:37:10Z</time></trkpt><trkpt lat="39.3097891789417" lon="16.25153736115158"><ele>228.0</ele><time>2026-04-12T17:37:11Z</time></trkpt><trkpt lat="39.30984405124542" lon="16.25167445134207"><ele>228.0</ele><time>2026-04-12T17:37:12Z</time></trkpt><trkpt lat="39.30990718349969" lon="16.25182013832164"><ele>227.75</ele><time>2026-04-12T17:37:13Z</time></trkpt><trkpt lat="39.309978924727815" lon="16.251966578093644"><ele>227.5</ele><time>2026-04-12T17:37:14Z</time></trkpt><trkpt lat="39.310057297824805" lon="16.252107017074366"><ele>227.25</ele><time>2026-04-12T17:37:15Z</time></trkpt><trkpt lat="39.310141710353015" lon="16.252242510926433"><ele>227.0</ele><time>2026-04-12T17:37:15.999Z</time></trkpt><trkpt lat="39.310235578760775" lon="16.252381381021795"><ele>226.0</ele><time>2026-04-12T17:37:16.999Z</time></trkpt><trkpt lat="39.31032749563747" lon="16.252515561726913"><ele>225.0</ele><time>2026-04-12T17:37:17.999Z</time></trkpt><trkpt lat="39.31042907642838" lon="16.25264906025292"><ele>224.0</ele><time>2026-04-12T17:37:18.999Z</time></trkpt><trkpt lat="39.3105346677703" lon="16.25279508933718"><ele>223.0</ele><time>2026-04-12T17:37:19.999Z</time></trkpt><trkpt lat="39.31064021451578" lon="16.252937403529092"><ele>222.0</ele><time>2026-04-12T17:37:20.999Z</time></trkpt><trkpt lat="39.31074380687424" lon="16.25308217577997"><ele>221.0</ele><time>2026-04-12T17:37:21.999Z</time></trkpt><trkpt lat="39.31085214033496" lon="16.253232329991206"><ele>220.0</ele><time>2026-04-12T17:37:22.999Z</time></trkpt><trkpt lat="39.310956854032206" lon="16.253379675042673"><ele>218.33333333333331</ele><time>2026-04-12T17:37:23.999Z</time></trkpt><trkpt lat="39.31106592377537" lon="16.253530674360544"><ele>216.66666666666669</ele><time>2026-04-12T17:37:24.999Z</time></trkpt><trkpt lat="39.31117688765921" lon="16.253685023853638"><ele>215.0</ele><time>2026-04-12T17:37:25.999Z</time></trkpt><trkpt lat="39.31128984666434" lon="16.25384755119185"><ele>214.33333333333334</ele><time>2026-04-12T17:37:26.999Z</time></trkpt><trkpt lat="39.31140402829699" lon="16.25400915131928"><ele>213.66666666666669</ele><time>2026-04-12T17:37:27.999Z</time></trkpt><trkpt lat="39.311519636403204" lon="16.254178183257622"><ele>213.0</ele><time>2026-04-12T17:37:28.999Z</time></trkpt><trkpt lat="39.311631230927524" lon="16.254345774247852"><ele>213.0</ele><time>2026-04-12T17:37:29.999Z</time></trkpt><trkpt lat="39.31173849137141" lon="16.25452658384664"><ele>213.0</ele><time>2026-04-12T17:37:30.999Z</time></trkpt><trkpt lat="39.3118385283857" lon="16.254716041777847"><ele>213.0</ele><time>2026-04-12T17:37:31.999Z</time></trkpt><trkpt lat="39.311940233361945" lon="16.25491366514687"><ele>212.66666666666669</ele><time>2026-04-12T17:37:32.999Z</time></trkpt><trkpt lat="39.31204541807296" lon="16.255110151963464"><ele>212.33333333333334</ele><time>2026-04-12T17:37:33.999Z</time></trkpt><trkpt lat="39.3121502122437" lon="16.25530701740086"><ele>212.0</ele><time>2026-04-12T17:37:34.999Z</time></trkpt><trkpt lat="39.31225596243249" lon="16.255503406880905"><ele>211.0</ele><time>2026-04-12T17:37:35.999Z</time></trkpt><trkpt lat="39.31236486501088" lon="16.255697328819615"><ele>210.0</ele><time>2026-04-12T17:37:36.999Z</time></trkpt><trkpt lat="39.31247480637485" lon="16.255891741233206"><ele>209.0</ele><time>2026-04-12T17:37:37.999Z</time></trkpt><trkpt lat="39.312579929781904" lon="16.256080350605682"><ele>209.0</ele><time>2026-04-12T17:37:38.999Z</time></trkpt><trkpt lat="39.31267808609277" lon="16.256269291783177"><ele>209.0</ele><time>2026-04-12T17:37:39.999Z</time></trkpt><trkpt lat="39.312772321113705" lon="16.256446079182567"><ele>209.0</ele><time>2026-04-12T17:37:40.999Z</time></trkpt><trkpt lat="39.31285989022793" lon="16.25661319598786"><ele>208.25</ele><time>2026-04-12T17:37:41.999Z</time></trkpt><trkpt lat="39.31293853775517" lon="16.25676243790986"><ele>207.5</ele><time>2026-04-12T17:37:42.999Z</time></trkpt><trkpt lat="39.313013244457835" lon="16.25690296390307"><ele>206.75</ele><time>2026-04-12T17:37:43.999Z</time></trkpt><trkpt lat="39.31308602018441" lon="16.257035100222044"><ele>206.0</ele><time>2026-04-12T17:37:44.999Z</time></trkpt><trkpt lat="39.31315651243883" lon="16.25717090567905"><ele>205.75</ele><time>2026-04-12T17:37:45.999Z</time></trkpt><trkpt lat="39.3132292003683" lon="16.25731147366832"><ele>205.5</ele><time>2026-04-12T17:37:46.999Z</time></trkpt><trkpt lat="39.31330558796844" lon="16.25747400924774"><ele>205.25</ele><time>2026-04-12T17:37:47.999Z</time></trkpt><trkpt lat="39.313387271552415" lon="16.257642064012042"><ele>205.0</ele><time>2026-04-12T17:37:48.999Z</time></trkpt><trkpt lat="39.313470935838005" lon="16.25781446526883"><ele>205.0</ele><time>2026-04-12T17:37:49.999Z</time></trkpt><trkpt lat="39.313547536061584" lon="16.257992078117976"><ele>205.0</ele><time>2026-04-12T17:37:50.999Z</time></trkpt><trkpt lat="39.31366472441125" lon="16.258119007639216"><ele>205.0</ele><time>2026-04-12T17:37:51.999Z</time></trkpt><trkpt lat="39.31364560514066" lon="16.258344098684084"><ele>204.5</ele><time>2026-04-12T17:37:52.999Z</time></trkpt><trkpt lat="39.31366217874287" lon="16.2585098746588"><ele>204.0</ele><time>2026-04-12T17:37:53.999Z</time></trkpt><trkpt lat="39.31365575309325" lon="16.25865645895733"><ele>203.5</ele><time>2026-04-12T17:37:54.999Z</time></trkpt><trkpt lat="39.313631864719284" lon="16.258795328636765"><ele>203.0</ele><time>2026-04-12T17:37:55.999Z</time></trkpt><trkpt lat="39.31359996438505" lon="16.258920626135996"><ele>203.60000000000002</ele><time>2026-04-12T17:37:56.999Z</time></trkpt><trkpt lat="39.31356564085415" lon="16.25901547789487"><ele>204.20000000000002</ele><time>2026-04-12T17:37:57.999Z</time></trkpt><trkpt lat="39.31353569846453" lon="16.25909108109239"><ele>204.8</ele><time>2026-04-12T17:37:59.999Z</time></trkpt><trkpt lat="39.31348461756656" lon="16.25919564680028"><ele>205.4</ele><time>2026-04-12T17:38:02.999Z</time></trkpt><trkpt lat="39.31336516220976" lon="16.25936926277541"><ele>206.0</ele><time>2026-04-12T17:38:04.998Z</time></trkpt><trkpt lat="39.31328618919036" lon="16.25948939573252"><ele>206.0</ele><time>2026-04-12T17:38:05.998Z</time></trkpt><trkpt lat="39.31320698739488" lon="16.259627857895428"><ele>206.0</ele><time>2026-04-12T17:38:06.998Z</time></trkpt><trkpt lat="39.313125469092675" lon="16.259780534974674"><ele>206.0</ele><time>2026-04-12T17:38:07.998Z</time></trkpt><trkpt lat="39.31303141939805" lon="16.259941369567184"><ele>206.0</ele><time>2026-04-12T17:38:08.998Z</time></trkpt><trkpt lat="39.312933567668125" lon="16.260091764622125"><ele>206.0</ele><time>2026-04-12T17:38:09.998Z</time></trkpt><trkpt lat="39.3128307293321" lon="16.260231933150912"><ele>206.0</ele><time>2026-04-12T17:38:10.998Z</time></trkpt><trkpt lat="39.312733244197155" lon="16.260345887837424"><ele>206.0</ele><time>2026-04-12T17:38:11.998Z</time></trkpt><trkpt lat="39.3126372810298" lon="16.26045641898061"><ele>206.0</ele><time>2026-04-12T17:38:12.998Z</time></trkpt><trkpt lat="39.312535667723196" lon="16.260569450980363"><ele>206.25</ele><time>2026-04-12T17:38:13.998Z</time></trkpt><trkpt lat="39.312430955452925" lon="16.26068973693731"><ele>206.5</ele><time>2026-04-12T17:38:14.998Z</time></trkpt><trkpt lat="39.31232674881599" lon="16.260808870080684"><ele>206.75</ele><time>2026-04-12T17:38:15.998Z</time></trkpt><trkpt lat="39.31222331462857" lon="16.260930026286022"><ele>207.0</ele><time>2026-04-12T17:38:16.998Z</time></trkpt><trkpt lat="39.31212294871701" lon="16.26104995692474"><ele>207.0</ele><time>2026-04-12T17:38:17.998Z</time></trkpt><trkpt lat="39.31202462377743" lon="16.261164509604665"><ele>207.0</ele><time>2026-04-12T17:38:18.998Z</time></trkpt><trkpt lat="39.31192857622111" lon="16.261277773066134"><ele>207.0</ele><time>2026-04-12T17:38:19.998Z</time></trkpt><trkpt lat="39.31182729530025" lon="16.261398048660908"><ele>207.0</ele><time>2026-04-12T17:38:20.998Z</time></trkpt><trkpt lat="39.31172844199461" lon="16.261519775712383"><ele>207.0</ele><time>2026-04-12T17:38:21.998Z</time></trkpt><trkpt lat="39.311633399518804" lon="16.26163042493677"><ele>207.0</ele><time>2026-04-12T17:38:22.998Z</time></trkpt><trkpt lat="39.31154068402994" lon="16.261739353052178"><ele>207.0</ele><time>2026-04-12T17:38:23.998Z</time></trkpt><trkpt lat="39.31144614636147" lon="16.261849103845407"><ele>207.0</ele><time>2026-04-12T17:38:24.998Z</time></trkpt><trkpt lat="39.31132513347832" lon="16.26199079179609"><ele>207.0</ele><time>2026-04-12T17:38:25.998Z</time></trkpt><trkpt lat="39.311170793650874" lon="16.262145914091413"><ele>207.0</ele><time>2026-04-12T17:38:26.998Z</time></trkpt><trkpt lat="39.3110059408989" lon="16.262326095068314"><ele>207.0</ele><time>2026-04-12T17:38:27.998Z</time></trkpt><trkpt lat="39.31081908342429" lon="16.2624687960093"><ele>207.0</ele><time>2026-04-12T17:38:28.998Z</time></trkpt><trkpt lat="39.310619187018034" lon="16.262592991423986"><ele>207.0</ele><time>2026-04-12T17:38:29.998Z</time></trkpt><trkpt lat="39.31040931764048" lon="16.262693294011"><ele>207.0</ele><time>2026-04-12T17:38:30.998Z</time></trkpt><trkpt lat="39.31019085716578" lon="16.26274634892414"><ele>207.0</ele><time>2026-04-12T17:38:31.998Z</time></trkpt><trkpt lat="39.309971764876494" lon="16.262769672365046"><ele>207.0</ele><time>2026-04-12T17:38:32.998Z</time></trkpt><trkpt lat="39.30974246204033" lon="16.262747990202623"><ele>208.0</ele><time>2026-04-12T17:38:33.998Z</time></trkpt><trkpt lat="39.3095123781134" lon="16.2627179308349"><ele>209.0</ele><time>2026-04-12T17:38:34.998Z</time></trkpt><trkpt lat="39.30928850003338" lon="16.262699949594335"><ele>209.0</ele><time>2026-04-12T17:38:35.998Z</time></trkpt><trkpt lat="39.309071877632626" lon="16.2626877457435"><ele>209.0</ele><time>2026-04-12T17:38:36.998Z</time></trkpt><trkpt lat="39.30886577813401" lon="16.26267660548513"><ele>209.0</ele><time>2026-04-12T17:38:37.998Z</time></trkpt><trkpt lat="39.308656227330005" lon="16.262667673999328"><ele>209.0</ele><time>2026-04-12T17:38:38.998Z</time></trkpt><trkpt lat="39.3084497464698" lon="16.26265925883381"><ele>209.0</ele><time>2026-04-12T17:38:39.998Z</time></trkpt><trkpt lat="39.30824557106801" lon="16.26266593791182"><ele>209.0</ele><time>2026-04-12T17:38:41Z</time></trkpt><trkpt lat="39.30805815261099" lon="16.262669396065082"><ele>209.0</ele><time>2026-04-12T17:38:42Z</time></trkpt><trkpt lat="39.30788262300309" lon="16.262678809865015"><ele>209.0</ele><time>2026-04-12T17:38:43Z</time></trkpt><trkpt lat="39.30771430650272" lon="16.26269241266984"><ele>209.0</ele><time>2026-04-12T17:38:44Z</time></trkpt><trkpt lat="39.3075543539386" lon="16.262711820561705"><ele>209.0</ele><time>2026-04-12T17:38:45Z</time></trkpt><trkpt lat="39.30739994221789" lon="16.26272869477648"><ele>209.0</ele><time>2026-04-12T17:38:46Z</time></trkpt><trkpt lat="39.30723877274199" lon="16.26274950862818"><ele>209.0</ele><time>2026-04-12T17:38:47Z</time></trkpt><trkpt lat="39.307080959234504" lon="16.262771507950717"><ele>209.0</ele><time>2026-04-12T17:38:48Z</time></trkpt><trkpt lat="39.30692445502223" lon="16.262793436877203"><ele>209.0</ele><time>2026-04-12T17:38:49Z</time></trkpt><trkpt lat="39.30676541774366" lon="16.262830526085494"><ele>209.0</ele><time>2026-04-12T17:38:50Z</time></trkpt><trkpt lat="39.30662485870523" lon="16.262835349245833"><ele>209.0</ele><time>2026-04-12T17:38:51Z</time></trkpt><trkpt lat="39.30649646412619" lon="16.26284625691662"><ele>209.0</ele><time>2026-04-12T17:38:52Z</time></trkpt><trkpt lat="39.30639192514342" lon="16.26284630546845"><ele>209.0</ele><time>2026-04-12T17:38:53Z</time></trkpt><trkpt lat="39.30629779286917" lon="16.2628399892655"><ele>209.0</ele><time>2026-04-12T17:38:54Z</time></trkpt><trkpt lat="39.306212188792536" lon="16.26282367152887"><ele>209.0</ele><time>2026-04-12T17:38:55Z</time></trkpt><trkpt lat="39.30611412477056" lon="16.26282412898354"><ele>209.50000000000003</ele><time>2026-04-12T17:38:57Z</time></trkpt><trkpt lat="39.306046934895065" lon="16.26283745912999"><ele>210.0</ele><time>2026-04-12T17:39:00Z</time></trkpt><trkpt lat="39.305985501866054" lon="16.262883566034443"><ele>210.5</ele><time>2026-04-12T17:47:41Z</time></trkpt><trkpt lat="39.30592059963927" lon="16.262920847549477"><ele>211.0</ele><time>2026-04-12T17:47:42Z</time></trkpt><trkpt lat="39.30583083126478" lon="16.262947321979695"><ele>211.50000000000003</ele><time>2026-04-12T17:47:43Z</time></trkpt><trkpt lat="39.30572720388897" lon="16.2629639998811"><ele>212.0</ele><time>2026-04-12T17:47:44Z</time></trkpt><trkpt lat="39.30561731581487" lon="16.262980916344063"><ele>212.5</ele><time>2026-04-12T17:47:45Z</time></trkpt><trkpt lat="39.30550376855915" lon="16.262996038379832"><ele>213.0</ele><time>2026-04-12T17:47:45.999Z</time></trkpt><trkpt lat="39.30538500923422" lon="16.263004891776855"><ele>213.5</ele><time>2026-04-12T17:47:46.999Z</time></trkpt><trkpt lat="39.30524339477554" lon="16.263024680671975"><ele>214.0</ele><time>2026-04-12T17:47:47.999Z</time></trkpt><trkpt lat="39.30508990138802" lon="16.263049304531584"><ele>214.0</ele><time>2026-04-12T17:47:48.999Z</time></trkpt><trkpt lat="39.30492100193655" lon="16.2630755626762"><ele>214.0</ele><time>2026-04-12T17:47:49.999Z</time></trkpt><trkpt lat="39.304745764874596" lon="16.263098449151535"><ele>214.0</ele><time>2026-04-12T17:47:50.999Z</time></trkpt><trkpt lat="39.30455564230713" lon="16.26312258889251"><ele>215.0</ele><time>2026-04-12T17:47:51.999Z</time></trkpt><trkpt lat="39.30435337565486" lon="16.26315168380258"><ele>216.0</ele><time>2026-04-12T17:47:52.999Z</time></trkpt><trkpt lat="39.30414926722353" lon="16.26318272805622"><ele>217.0</ele><time>2026-04-12T17:47:53.999Z</time></trkpt><trkpt lat="39.303950023781155" lon="16.263232275460865"><ele>217.33333333333331</ele><time>2026-04-12T17:47:54.999Z</time></trkpt><trkpt lat="39.303759331465145" lon="16.26332080994078"><ele>217.66666666666669</ele><time>2026-04-12T17:47:55.999Z</time></trkpt><trkpt lat="39.30356432326252" lon="16.263453046660658"><ele>218.0</ele><time>2026-04-12T17:47:56.999Z</time></trkpt><trkpt lat="39.303370757523105" lon="16.263619830880568"><ele>218.0</ele><time>2026-04-12T17:47:57.999Z</time></trkpt><trkpt lat="39.303187933628536" lon="16.26381452501868"><ele>218.0</ele><time>2026-04-12T17:47:58.999Z</time></trkpt><trkpt lat="39.303009024759454" lon="16.26401246430297"><ele>218.5</ele><time>2026-04-12T17:47:59.999Z</time></trkpt><trkpt lat="39.30282929808023" lon="16.26422177690982"><ele>219.0</ele><time>2026-04-12T17:48:00.999Z</time></trkpt><trkpt lat="39.30266063741921" lon="16.264434899956317"><ele>219.0</ele><time>2026-04-12T17:48:01.999Z</time></trkpt><trkpt lat="39.30248387370935" lon="16.264626761137563"><ele>219.0</ele><time>2026-04-12T17:48:02.999Z</time></trkpt><trkpt lat="39.302318312509954" lon="16.26481375448513"><ele>221.66666666666669</ele><time>2026-04-12T17:48:03.999Z</time></trkpt><trkpt lat="39.302149805659774" lon="16.264978661951744"><ele>224.33333333333334</ele><time>2026-04-12T17:48:04.999Z</time></trkpt><trkpt lat="39.301972945013894" lon="16.26511693373422"><ele>227.0</ele><time>2026-04-12T17:48:05.999Z</time></trkpt><trkpt lat="39.30178228731361" lon="16.265217201276407"><ele>227.0</ele><time>2026-04-12T17:48:06.999Z</time></trkpt><trkpt lat="39.30158485307279" lon="16.2652946564181"><ele>227.0</ele><time>2026-04-12T17:48:07.999Z</time></trkpt><trkpt lat="39.301378312546014" lon="16.265343639809704"><ele>227.0</ele><time>2026-04-12T17:48:08.999Z</time></trkpt><trkpt lat="39.301173588866035" lon="16.26536418936175"><ele>228.0</ele><time>2026-04-12T17:48:09.999Z</time></trkpt><trkpt lat="39.30097232501859" lon="16.265342592367787"><ele>229.0</ele><time>2026-04-12T17:48:10.999Z</time></trkpt><trkpt lat="39.300768173931836" lon="16.2653007111146"><ele>230.0</ele><time>2026-04-12T17:48:11.999Z</time></trkpt><trkpt lat="39.30055567728226" lon="16.26522583592536"><ele>234.66666666666669</ele><time>2026-04-12T17:48:12.999Z</time></trkpt><trkpt lat="39.300355096212236" lon="16.265154385377915"><ele>239.33333333333331</ele><time>2026-04-12T17:48:13.999Z</time></trkpt><trkpt lat="39.300158024816824" lon="16.265069565246897"><ele>244.0</ele><time>2026-04-12T17:48:14.999Z</time></trkpt><trkpt lat="39.299949616005115" lon="16.264995216799992"><ele>248.33333333333331</ele><time>2026-04-12T17:48:15.999Z</time></trkpt><trkpt lat="39.29973885584314" lon="16.264933858968526"><ele>252.66666666666669</ele><time>2026-04-12T17:48:16.999Z</time></trkpt><trkpt lat="39.299517196653916" lon="16.264897210467833"><ele>257.0</ele><time>2026-04-12T17:48:17.999Z</time></trkpt><trkpt lat="39.29929329483359" lon="16.26488091738646"><ele>257.0</ele><time>2026-04-12T17:48:18.999Z</time></trkpt><trkpt lat="39.2990659785311" lon="16.26488716333462"><ele>257.0</ele><time>2026-04-12T17:48:19.999Z</time></trkpt><trkpt lat="39.29884708722206" lon="16.26490508285989"><ele>257.0</ele><time>2026-04-12T17:48:20.999Z</time></trkpt><trkpt lat="39.29864049195244" lon="16.264916539457303"><ele>258.6666666666667</ele><time>2026-04-12T17:48:21.999Z</time></trkpt><trkpt lat="39.29844843359976" lon="16.264912869681215"><ele>260.3333333333333</ele><time>2026-04-12T17:48:22.999Z</time></trkpt><trkpt lat="39.29826328154902" lon="16.26488668661318"><ele>262.0</ele><time>2026-04-12T17:48:23.999Z</time></trkpt><trkpt lat="39.29809657977678" lon="16.26484253116249"><ele>267.66666666666663</ele><time>2026-04-12T17:48:24.999Z</time></trkpt><trkpt lat="39.29794576057561" lon="16.26478146889388"><ele>273.3333333333333</ele><time>2026-04-12T17:48:25.999Z</time></trkpt><trkpt lat="39.29779481261441" lon="16.264709692290925"><ele>279.0</ele><time>2026-04-12T17:48:26.999Z</time></trkpt><trkpt lat="39.29762980639143" lon="16.264609574197337"><ele>275.0</ele><time>2026-04-12T17:48:27.999Z</time></trkpt><trkpt lat="39.29743526362371" lon="16.264457622141492"><ele>271.0</ele><time>2026-04-12T17:48:28.999Z</time></trkpt><trkpt lat="39.29719584404125" lon="16.264296411772474"><ele>271.0</ele><time>2026-04-12T17:48:29.999Z</time></trkpt><trkpt lat="39.29692886068923" lon="16.264136347739143"><ele>271.0</ele><time>2026-04-12T17:48:30.999Z</time></trkpt><trkpt lat="39.29672031457056" lon="16.263989222408853"><ele>265.0</ele><time>2026-04-12T17:48:31.999Z</time></trkpt><trkpt lat="39.29651302276809" lon="16.26392493213333"><ele>259.0</ele><time>2026-04-12T17:48:32.998Z</time></trkpt><trkpt lat="39.29631863850442" lon="16.263890522970037"><ele>253.0</ele><time>2026-04-12T17:48:33.998Z</time></trkpt><trkpt lat="39.29613660397923" lon="16.263852804809662"><ele>253.0</ele><time>2026-04-12T17:48:34.998Z</time></trkpt><trkpt lat="39.29596413831543" lon="16.26382554253121"><ele>253.0</ele><time>2026-04-12T17:48:35.998Z</time></trkpt><trkpt lat="39.29579237876837" lon="16.263789448018933"><ele>253.0</ele><time>2026-04-12T17:48:36.998Z</time></trkpt><trkpt lat="39.29563028795521" lon="16.263741188859264"><ele>260.3333333333333</ele><time>2026-04-12T17:48:37.998Z</time></trkpt><trkpt lat="39.295482477931465" lon="16.26365353024066"><ele>267.6666666666667</ele><time>2026-04-12T17:48:38.998Z</time></trkpt><trkpt lat="39.29534448587199" lon="16.263554525381508"><ele>275.0</ele><time>2026-04-12T17:48:39.998Z</time></trkpt><trkpt lat="39.295204830015294" lon="16.26344895101126"><ele>275.0</ele><time>2026-04-12T17:48:40.998Z</time></trkpt><trkpt lat="39.295080859587415" lon="16.26333702501281"><ele>275.0</ele><time>2026-04-12T17:48:41.998Z</time></trkpt><trkpt lat="39.29495341341099" lon="16.263211904949017"><ele>275.0</ele><time>2026-04-12T17:48:42.998Z</time></trkpt><trkpt lat="39.29483825217373" lon="16.26308086287757"><ele>274.5</ele><time>2026-04-12T17:48:43.998Z</time></trkpt><trkpt lat="39.29472188858191" lon="16.26295297285944"><ele>274.0</ele><time>2026-04-12T17:48:44.998Z</time></trkpt><trkpt lat="39.294610499963554" lon="16.262826378564984"><ele>273.5</ele><time>2026-04-12T17:48:45.998Z</time></trkpt><trkpt lat="39.29449513236476" lon="16.26271311300447"><ele>273.0</ele><time>2026-04-12T17:48:46.998Z</time></trkpt><trkpt lat="39.29436885588384" lon="16.262606526183532"><ele>273.0</ele><time>2026-04-12T17:48:47.998Z</time></trkpt><trkpt lat="39.29423749346805" lon="16.262520270962842"><ele>273.0</ele><time>2026-04-12T17:48:48.998Z</time></trkpt><trkpt lat="39.29410121746659" lon="16.262450061524746"><ele>273.0</ele><time>2026-04-12T17:48:49.998Z</time></trkpt><trkpt lat="39.29396554458298" lon="16.26237844712477"><ele>273.0</ele><time>2026-04-12T17:48:50.998Z</time></trkpt><trkpt lat="39.293829903607644" lon="16.262302300899748"><ele>271.25</ele><time>2026-04-12T17:48:51.998Z</time></trkpt><trkpt lat="39.29369277455154" lon="16.262227978086035"><ele>269.5</ele><time>2026-04-12T17:48:52.998Z</time></trkpt><trkpt lat="39.293552024024855" lon="16.262167831474674"><ele>267.75</ele><time>2026-04-12T17:48:53.998Z</time></trkpt><trkpt lat="39.29341866628401" lon="16.262143341676683"><ele>266.0</ele><time>2026-04-12T17:48:54.998Z</time></trkpt><trkpt lat="39.29327120533686" lon="16.262155442529004"><ele>266.0</ele><time>2026-04-12T17:48:55.998Z</time></trkpt><trkpt lat="39.29314740701749" lon="16.26218971398818"><ele>266.0</ele><time>2026-04-12T17:48:56.998Z</time></trkpt><trkpt lat="39.29300310242244" lon="16.262246430904536"><ele>266.0</ele><time>2026-04-12T17:48:57.998Z</time></trkpt><trkpt lat="39.292863625018306" lon="16.262325860457985"><ele>266.0</ele><time>2026-04-12T17:48:58.998Z</time></trkpt><trkpt lat="39.292741266162906" lon="16.26243946480344"><ele>272.33333333333337</ele><time>2026-04-12T17:48:59.998Z</time></trkpt><trkpt lat="39.292630872187026" lon="16.262577875890283"><ele>278.6666666666667</ele><time>2026-04-12T17:49:00.998Z</time></trkpt><trkpt lat="39.292538876707134" lon="16.262738020570655"><ele>285.0</ele><time>2026-04-12T17:49:01.998Z</time></trkpt><trkpt lat="39.29246397410797" lon="16.262923576159775"><ele>285.0</ele><time>2026-04-12T17:49:02.998Z</time></trkpt><trkpt lat="39.29239730575902" lon="16.263108900155675"><ele>285.0</ele><time>2026-04-12T17:49:03.998Z</time></trkpt><trkpt lat="39.292345135275305" lon="16.263303677296083"><ele>285.0</ele><time>2026-04-12T17:49:04.998Z</time></trkpt><trkpt lat="39.29231029777391" lon="16.26350053239788"><ele>289.0</ele><time>2026-04-12T17:49:05.998Z</time></trkpt><trkpt lat="39.29229929765153" lon="16.26369318244913"><ele>293.0</ele><time>2026-04-12T17:49:06.998Z</time></trkpt><trkpt lat="39.292314388152015" lon="16.2638813433742"><ele>297.0</ele><time>2026-04-12T17:49:07.998Z</time></trkpt><trkpt lat="39.29236792519156" lon="16.264071641335338"><ele>297.0</ele><time>2026-04-12T17:49:08.998Z</time></trkpt><trkpt lat="39.29244341991964" lon="16.26425257883337"><ele>297.0</ele><time>2026-04-12T17:49:09.998Z</time></trkpt><trkpt lat="39.292537802963004" lon="16.264413054762468"><ele>297.0</ele><time>2026-04-12T17:49:10.998Z</time></trkpt><trkpt lat="39.292659964414476" lon="16.264560436497582"><ele>297.0</ele><time>2026-04-12T17:49:11.998Z</time></trkpt><trkpt lat="39.2928018169415" lon="16.26467983659772"><ele>297.0</ele><time>2026-04-12T17:49:12.998Z</time></trkpt><trkpt lat="39.29296992551095" lon="16.264756811532852"><ele>297.0</ele><time>2026-04-12T17:49:13.998Z</time></trkpt><trkpt lat="39.29316694692509" lon="16.264859045781794"><ele>293.5</ele><time>2026-04-12T17:49:14.998Z</time></trkpt><trkpt lat="39.293407593338486" lon="16.26498566094635"><ele>290.0</ele><time>2026-04-12T17:49:15.998Z</time></trkpt><trkpt lat="39.29367864814852" lon="16.26512742398178"><ele>298.0</ele><time>2026-04-12T17:49:16.999Z</time></trkpt><trkpt lat="39.293993015552175" lon="16.265291757456982"><ele>306.0</ele><time>2026-04-12T17:49:17.999Z</time></trkpt><trkpt lat="39.2942979775147" lon="16.265450462158153"><ele>306.0</ele><time>2026-04-12T17:49:18.999Z</time></trkpt><trkpt lat="39.29456964107205" lon="16.265591838093318"><ele>306.0</ele><time>2026-04-12T17:49:19.999Z</time></trkpt><trkpt lat="39.29483375271777" lon="16.26570063825174"><ele>305.0</ele><time>2026-04-12T17:49:20.999Z</time></trkpt><trkpt lat="39.29505866808756" lon="16.265828284009054"><ele>304.0</ele><time>2026-04-12T17:49:21.999Z</time></trkpt><trkpt lat="39.295267950382424" lon="16.26595037079342"><ele>304.0</ele><time>2026-04-12T17:49:22.999Z</time></trkpt><trkpt lat="39.2954647678912" lon="16.266063601838628"><ele>304.0</ele><time>2026-04-12T17:49:23.999Z</time></trkpt><trkpt lat="39.29565334277983" lon="16.266181624371658"><ele>304.0</ele><time>2026-04-12T17:49:24.999Z</time></trkpt><trkpt lat="39.295812112320924" lon="16.266328897311535"><ele>304.66666666666663</ele><time>2026-04-12T17:49:25.999Z</time></trkpt><trkpt lat="39.29595315220782" lon="16.26647777300496"><ele>305.3333333333333</ele><time>2026-04-12T17:49:26.999Z</time></trkpt><trkpt lat="39.296069357891696" lon="16.266633480207034"><ele>306.0</ele><time>2026-04-12T17:49:27.999Z</time></trkpt><trkpt lat="39.29617229100271" lon="16.266800841319434"><ele>306.0</ele><time>2026-04-12T17:49:28.999Z</time></trkpt><trkpt lat="39.29626570819857" lon="16.26698155577204"><ele>306.0</ele><time>2026-04-12T17:49:29.999Z</time></trkpt><trkpt lat="39.29633643575932" lon="16.26716455775853"><ele>306.0</ele><time>2026-04-12T17:49:30.999Z</time></trkpt><trkpt lat="39.29639069697311" lon="16.267357811204043"><ele>312.0</ele><time>2026-04-12T17:49:31.999Z</time></trkpt><trkpt lat="39.29643414840084" lon="16.267563153094738"><ele>318.0</ele><time>2026-04-12T17:49:32.999Z</time></trkpt><trkpt lat="39.296455892790334" lon="16.2677675478822"><ele>324.0</ele><time>2026-04-12T17:49:33.999Z</time></trkpt><trkpt lat="39.29647232216241" lon="16.267968437600512"><ele>324.3333333333333</ele><time>2026-04-12T17:49:34.999Z</time></trkpt><trkpt lat="39.29646539535826" lon="16.268183097119188"><ele>324.66666666666663</ele><time>2026-04-12T17:49:35.999Z</time></trkpt><trkpt lat="39.29642957627684" lon="16.268391245896012"><ele>325.0</ele><time>2026-04-12T17:49:36.999Z</time></trkpt><trkpt lat="39.29638771014945" lon="16.268601539824374"><ele>320.66666666666663</ele><time>2026-04-12T17:49:37.999Z</time></trkpt><trkpt lat="39.296332946284906" lon="16.2687986550216"><ele>316.3333333333333</ele><time>2026-04-12T17:49:38.999Z</time></trkpt><trkpt lat="39.29626569873729" lon="16.26897162850367"><ele>312.0</ele><time>2026-04-12T17:49:39.999Z</time></trkpt><trkpt lat="39.296182158079354" lon="16.269157740574247"><ele>312.0</ele><time>2026-04-12T17:49:40.999Z</time></trkpt><trkpt lat="39.29606478057749" lon="16.269390964914027"><ele>312.0</ele><time>2026-04-12T17:49:41.999Z</time></trkpt><trkpt lat="39.29591992559495" lon="16.26966469731005"><ele>309.0</ele><time>2026-04-12T17:49:42.999Z</time></trkpt><trkpt lat="39.29575027044935" lon="16.269975051357424"><ele>306.0</ele><time>2026-04-12T17:49:43.999Z</time></trkpt><trkpt lat="39.29556548946077" lon="16.27031415984211"><ele>313.5</ele><time>2026-04-12T17:49:44.999Z</time></trkpt><trkpt lat="39.29539197011893" lon="16.27063602762327"><ele>321.0</ele><time>2026-04-12T17:49:45.999Z</time></trkpt><trkpt lat="39.29524226329131" lon="16.27092570576845"><ele>321.0</ele><time>2026-04-12T17:49:46.999Z</time></trkpt><trkpt lat="39.29510228254186" lon="16.27115910998586"><ele>321.0</ele><time>2026-04-12T17:49:47.999Z</time></trkpt><trkpt lat="39.294973162941545" lon="16.271388466256873"><ele>321.0</ele><time>2026-04-12T17:49:48.999Z</time></trkpt><trkpt lat="39.294865601649846" lon="16.271603116054244"><ele>321.0</ele><time>2026-04-12T17:49:49.999Z</time></trkpt><trkpt lat="39.29478487294775" lon="16.27181443862292"><ele>321.0</ele><time>2026-04-12T17:49:50.999Z</time></trkpt><trkpt lat="39.29472859277887" lon="16.27203343462143"><ele>321.0</ele><time>2026-04-12T17:49:51.999Z</time></trkpt><trkpt lat="39.29468492827113" lon="16.272259895252706"><ele>326.3333333333333</ele><time>2026-04-12T17:49:52.999Z</time></trkpt><trkpt lat="39.294659868285024" lon="16.272494347076"><ele>331.66666666666663</ele><time>2026-04-12T17:49:53.999Z</time></trkpt><trkpt lat="39.29465607130318" lon="16.27273084553651"><ele>337.0</ele><time>2026-04-12T17:49:54.999Z</time></trkpt><trkpt lat="39.29466890293406" lon="16.27296187418373"><ele>336.3333333333333</ele><time>2026-04-12T17:49:55.999Z</time></trkpt><trkpt lat="39.29470025252739" lon="16.27319106546004"><ele>335.6666666666667</ele><time>2026-04-12T17:49:56.999Z</time></trkpt><trkpt lat="39.29475670112225" lon="16.273452236631766"><ele>335.0</ele><time>2026-04-12T17:49:57.999Z</time></trkpt><trkpt lat="39.2948307255268" lon="16.273777028028668"><ele>339.5</ele><time>2026-04-12T17:49:58.999Z</time></trkpt><trkpt lat="39.2949376616021" lon="16.27412009586038"><ele>344.0</ele><time>2026-04-12T17:49:59.999Z</time></trkpt><trkpt lat="39.29503821954644" lon="16.27449385843765"><ele>347.0</ele><time>2026-04-12T17:50:00.999Z</time></trkpt><trkpt lat="39.295128339915294" lon="16.27487545796531"><ele>350.0</ele><time>2026-04-12T17:50:01.999Z</time></trkpt><trkpt lat="39.29522551186674" lon="16.27523799418966"><ele>350.0</ele><time>2026-04-12T17:50:02.999Z</time></trkpt><trkpt lat="39.295315817183365" lon="16.275578652090438"><ele>350.0</ele><time>2026-04-12T17:50:03.999Z</time></trkpt><trkpt lat="39.29539097585195" lon="16.275885796822944"><ele>345.5</ele><time>2026-04-12T17:50:04.999Z</time></trkpt><trkpt lat="39.29544822882331" lon="16.27617766993617"><ele>341.0</ele><time>2026-04-12T17:50:05.999Z</time></trkpt><trkpt lat="39.29548645862175" lon="16.276455826049666"><ele>341.0</ele><time>2026-04-12T17:50:06.999Z</time></trkpt><trkpt lat="39.29550785944894" lon="16.27674420267332"><ele>341.0</ele><time>2026-04-12T17:50:07.999Z</time></trkpt><trkpt lat="39.295511116195684" lon="16.277066882303963"><ele>352.5</ele><time>2026-04-12T17:50:08.999Z</time></trkpt><trkpt lat="39.295497972207926" lon="16.277436824332696"><ele>364.0</ele><time>2026-04-12T17:50:09.999Z</time></trkpt><trkpt lat="39.295473506904735" lon="16.27782456813304"><ele>363.0</ele><time>2026-04-12T17:50:10.999Z</time></trkpt><trkpt lat="39.295458310361305" lon="16.278167759417393"><ele>362.0</ele><time>2026-04-12T17:50:11.998Z</time></trkpt><trkpt lat="39.29544529686339" lon="16.2784813628139"><ele>362.0</ele><time>2026-04-12T17:50:12.998Z</time></trkpt><trkpt lat="39.295435258452514" lon="16.278797561428952"><ele>362.0</ele><time>2026-04-12T17:50:14.019Z</time></trkpt><trkpt lat="39.295427691991584" lon="16.279106169477274"><ele>360.0</ele><time>2026-04-12T17:50:15.019Z</time></trkpt><trkpt lat="39.295469422430855" lon="16.279389116121255"><ele>358.0</ele><time>2026-04-12T17:50:16.017Z</time></trkpt><trkpt lat="39.29553155815594" lon="16.279657575826782"><ele>356.0</ele><time>2026-04-12T17:50:17.015Z</time></trkpt><trkpt lat="39.2964432" lon="16.2812849"><ele>401.0</ele><time>2026-04-12T17:50:21.005Z</time></trkpt><trkpt lat="39.297001805208886" lon="16.281613243042056"><ele>401.0</ele><time>2026-04-12T17:50:28.998Z</time></trkpt><trkpt lat="39.29704480583409" lon="16.281861774685797"><ele>401.0</ele><time>2026-04-12T17:50:29.998Z</time></trkpt><trkpt lat="39.297294839368" lon="16.282051452969142"><ele>399.0</ele><time>2026-04-12T17:50:30.998Z</time></trkpt><trkpt lat="39.297560559401155" lon="16.282254780257084"><ele>397.0</ele><time>2026-04-12T17:50:31.998Z</time></trkpt><trkpt lat="39.29781278685953" lon="16.28245868527382"><ele>397.0</ele><time>2026-04-12T17:50:32.998Z</time></trkpt><trkpt lat="39.298029681967364" lon="16.282649427594933"><ele>397.0</ele><time>2026-04-12T17:50:33.998Z</time></trkpt><trkpt lat="39.29822401894345" lon="16.282885364651623"><ele>398.0</ele><time>2026-04-12T17:50:34.998Z</time></trkpt><trkpt lat="39.298389710757846" lon="16.283129972672796"><ele>399.0</ele><time>2026-04-12T17:50:35.998Z</time></trkpt><trkpt lat="39.29854917760234" lon="16.283389314016187"><ele>399.0</ele><time>2026-04-12T17:50:36.998Z</time></trkpt><trkpt lat="39.29869211695885" lon="16.28366669841663"><ele>399.0</ele><time>2026-04-12T17:50:37.998Z</time></trkpt><trkpt lat="39.29881607376002" lon="16.28396977955656"><ele>397.0</ele><time>2026-04-12T17:50:38.998Z</time></trkpt><trkpt lat="39.29891958535764" lon="16.284291880507247"><ele>395.0</ele><time>2026-04-12T17:50:39.998Z</time></trkpt><trkpt lat="39.298995286561954" lon="16.284623536966844"><ele>402.0</ele><time>2026-04-12T17:50:40.998Z</time></trkpt><trkpt lat="39.29905333563277" lon="16.28496395491721"><ele>409.0</ele><time>2026-04-12T17:50:41.998Z</time></trkpt><trkpt lat="39.29910167214706" lon="16.285311053193357"><ele>411.5</ele><time>2026-04-12T17:50:42.998Z</time></trkpt><trkpt lat="39.29915298908031" lon="16.285654494607492"><ele>414.0</ele><time>2026-04-12T17:50:43.998Z</time></trkpt><trkpt lat="39.29920630455455" lon="16.28599672087292"><ele>414.0</ele><time>2026-04-12T17:50:44.998Z</time></trkpt><trkpt lat="39.29925730804508" lon="16.286336676188757"><ele>414.0</ele><time>2026-04-12T17:50:45.998Z</time></trkpt><trkpt lat="39.29928686083135" lon="16.286670562641326"><ele>414.5</ele><time>2026-04-12T17:50:46.998Z</time></trkpt><trkpt lat="39.299285922914805" lon="16.286998218212936"><ele>415.0</ele><time>2026-04-12T17:50:47.998Z</time></trkpt><trkpt lat="39.29927022796506" lon="16.287319564585488"><ele>417.0</ele><time>2026-04-12T17:50:48.998Z</time></trkpt><trkpt lat="39.29925655011468" lon="16.28764252683425"><ele>419.0</ele><time>2026-04-12T17:50:49.998Z</time></trkpt><trkpt lat="39.29925086195839" lon="16.287964213792335"><ele>421.0</ele><time>2026-04-12T17:50:50.998Z</time></trkpt><trkpt lat="39.29924905706781" lon="16.288284325625188"><ele>423.0</ele><time>2026-04-12T17:50:51.998Z</time></trkpt><trkpt lat="39.299244158342304" lon="16.288603657372764"><ele>423.0</ele><time>2026-04-12T17:50:52.998Z</time></trkpt><trkpt lat="39.29923373806595" lon="16.28892132778195"><ele>423.0</ele><time>2026-04-12T17:50:53.998Z</time></trkpt><trkpt lat="39.29921891696229" lon="16.289240275436477"><ele>424.0</ele><time>2026-04-12T17:50:54.998Z</time></trkpt><trkpt lat="39.299197641869725" lon="16.289559105713888"><ele>425.0</ele><time>2026-04-12T17:50:55.998Z</time></trkpt><trkpt lat="39.29916037951607" lon="16.28987614720542"><ele>427.5</ele><time>2026-04-12T17:50:56.998Z</time></trkpt><trkpt lat="39.29910621822996" lon="16.290195751459933"><ele>430.0</ele><time>2026-04-12T17:50:57.998Z</time></trkpt><trkpt lat="39.29904109481799" lon="16.290529722380455"><ele>432.5</ele><time>2026-04-12T17:50:58.998Z</time></trkpt><trkpt lat="39.298957965099106" lon="16.290875050854524"><ele>435.0</ele><time>2026-04-12T17:50:59.998Z</time></trkpt><trkpt lat="39.298857055513004" lon="16.291235942008665"><ele>444.0</ele><time>2026-04-12T17:51:00.998Z</time></trkpt><trkpt lat="39.298753124170084" lon="16.291588401467003"><ele>453.0</ele><time>2026-04-12T17:51:01.998Z</time></trkpt><trkpt lat="39.29865643198811" lon="16.291920109138136"><ele>453.0</ele><time>2026-04-12T17:51:02.998Z</time></trkpt><trkpt lat="39.29857154570975" lon="16.29224607154636"><ele>453.0</ele><time>2026-04-12T17:51:03.998Z</time></trkpt><trkpt lat="39.29849867412131" lon="16.292568557139198"><ele>454.5</ele><time>2026-04-12T17:51:04.998Z</time></trkpt><trkpt lat="39.2984546283115" lon="16.29289237073315"><ele>456.0</ele><time>2026-04-12T17:51:05.998Z</time></trkpt><trkpt lat="39.298420624121114" lon="16.293197878983488"><ele>458.0</ele><time>2026-04-12T17:51:06.998Z</time></trkpt><trkpt lat="39.298390420030685" lon="16.29348203928214"><ele>460.0</ele><time>2026-04-12T17:51:07.998Z</time></trkpt><trkpt lat="39.29836671615488" lon="16.293751680763354"><ele>462.0</ele><time>2026-04-12T17:51:08.998Z</time></trkpt><trkpt lat="39.29835348230613" lon="16.294030479078028"><ele>463.0</ele><time>2026-04-12T17:51:09.998Z</time></trkpt><trkpt lat="39.29833747223059" lon="16.294330602726962"><ele>464.0</ele><time>2026-04-12T17:51:10.998Z</time></trkpt><trkpt lat="39.29830940946674" lon="16.294659506053122"><ele>459.0</ele><time>2026-04-12T17:51:11.998Z</time></trkpt><trkpt lat="39.298277176856544" lon="16.295008829220436"><ele>454.0</ele><time>2026-04-12T17:51:12.998Z</time></trkpt><trkpt lat="39.2982602516557" lon="16.295366984035347"><ele>447.5</ele><time>2026-04-12T17:51:13.997Z</time></trkpt><trkpt lat="39.29824916239897" lon="16.29570931742307"><ele>441.0</ele><time>2026-04-12T17:51:14.997Z</time></trkpt><trkpt lat="39.298243326955074" lon="16.296027768575737"><ele>441.0</ele><time>2026-04-12T17:51:15.997Z</time></trkpt><trkpt lat="39.29824168506041" lon="16.29631015041391"><ele>441.0</ele><time>2026-04-12T17:51:16.998Z</time></trkpt><trkpt lat="39.29823021820126" lon="16.296572074137792"><ele>441.0</ele><time>2026-04-12T17:51:17.998Z</time></trkpt><trkpt lat="39.29822670382609" lon="16.29684547803658"><ele>445.5</ele><time>2026-04-12T17:51:18.998Z</time></trkpt><trkpt lat="39.29822179691062" lon="16.297138914552395"><ele>450.0</ele><time>2026-04-12T17:51:19.998Z</time></trkpt><trkpt lat="39.29821152899642" lon="16.2974405827078"><ele>461.5</ele><time>2026-04-12T17:51:20.998Z</time></trkpt><trkpt lat="39.29819663837452" lon="16.297737402555807"><ele>473.0</ele><time>2026-04-12T17:51:21.998Z</time></trkpt><trkpt lat="39.298184478982876" lon="16.298031269515235"><ele>479.0</ele><time>2026-04-12T17:51:22.998Z</time></trkpt><trkpt lat="39.29818442497987" lon="16.298330833038726"><ele>485.0</ele><time>2026-04-12T17:51:23.998Z</time></trkpt><trkpt lat="39.2981722994149" lon="16.298636284868774"><ele>490.0</ele><time>2026-04-12T17:51:24.998Z</time></trkpt><trkpt lat="39.29814022667853" lon="16.298947560941325"><ele>495.0</ele><time>2026-04-12T17:51:25.998Z</time></trkpt><trkpt lat="39.29809142543371" lon="16.299265626102912"><ele>494.5</ele><time>2026-04-12T17:51:26.998Z</time></trkpt><trkpt lat="39.2980324791032" lon="16.29960180401093"><ele>494.0</ele><time>2026-04-12T17:51:27.998Z</time></trkpt><trkpt lat="39.29794849104899" lon="16.299971362710558"><ele>494.0</ele><time>2026-04-12T17:51:28.998Z</time></trkpt><trkpt lat="39.297832794298934" lon="16.300354207707564"><ele>494.0</ele><time>2026-04-12T17:51:29.998Z</time></trkpt><trkpt lat="39.29771376897321" lon="16.300706439075338"><ele>499.0</ele><time>2026-04-12T17:51:30.998Z</time></trkpt><trkpt lat="39.29761810774664" lon="16.301027970050264"><ele>504.0</ele><time>2026-04-12T17:51:31.999Z</time></trkpt><trkpt lat="39.29752946173366" lon="16.301325991777546"><ele>507.0</ele><time>2026-04-12T17:51:32.999Z</time></trkpt><trkpt lat="39.29744732511251" lon="16.301603083057223"><ele>510.0</ele><time>2026-04-12T17:51:33.999Z</time></trkpt><trkpt lat="39.29736965288215" lon="16.301873148651477"><ele>510.0</ele><time>2026-04-12T17:51:34.999Z</time></trkpt><trkpt lat="39.29729230502807" lon="16.302153161435154"><ele>510.0</ele><time>2026-04-12T17:51:35.999Z</time></trkpt><trkpt lat="39.29720601335309" lon="16.302447895691806"><ele>509.0</ele><time>2026-04-12T17:51:36.999Z</time></trkpt><trkpt lat="39.29710541148717" lon="16.30277271827554"><ele>508.0</ele><time>2026-04-12T17:51:37.999Z</time></trkpt><trkpt lat="39.29696560793964" lon="16.303125391457108"><ele>512.0</ele><time>2026-04-12T17:51:38.999Z</time></trkpt><trkpt lat="39.29684790090722" lon="16.303520976240325"><ele>516.0</ele><time>2026-04-12T17:51:39.999Z</time></trkpt><trkpt lat="39.29672736267216" lon="16.303932132340194"><ele>519.0</ele><time>2026-04-12T17:51:40.999Z</time></trkpt><trkpt lat="39.29661530559123" lon="16.304331779102277"><ele>522.0</ele><time>2026-04-12T17:51:41.999Z</time></trkpt><trkpt lat="39.296538952794876" lon="16.304696301908304"><ele>526.0</ele><time>2026-04-12T17:51:42.999Z</time></trkpt><trkpt lat="39.29648578074033" lon="16.305046091435816"><ele>530.0</ele><time>2026-04-12T17:51:43.999Z</time></trkpt><trkpt lat="39.29647582055719" lon="16.305420769438886"><ele>532.5</ele><time>2026-04-12T17:51:44.999Z</time></trkpt><trkpt lat="39.29649438203373" lon="16.305819406060124"><ele>535.0</ele><time>2026-04-12T17:51:45.999Z</time></trkpt><trkpt lat="39.296548840964014" lon="16.306225911902466"><ele>534.5</ele><time>2026-04-12T17:51:46.999Z</time></trkpt><trkpt lat="39.29664591081694" lon="16.306618939822815"><ele>534.0</ele><time>2026-04-12T17:51:47.999Z</time></trkpt><trkpt lat="39.29677721909334" lon="16.307000128629483"><ele>528.0</ele><time>2026-04-12T17:51:48.999Z</time></trkpt><trkpt lat="39.29693584346657" lon="16.307382407419716"><ele>522.0</ele><time>2026-04-12T17:51:49.999Z</time></trkpt><trkpt lat="39.297133336398694" lon="16.307722321831697"><ele>524.5</ele><time>2026-04-12T17:51:50.999Z</time></trkpt><trkpt lat="39.29735846524897" lon="16.308026941526045"><ele>527.0</ele><time>2026-04-12T17:51:51.999Z</time></trkpt><trkpt lat="39.2975888140124" lon="16.308322595582442"><ele>527.0</ele><time>2026-04-12T17:51:52.999Z</time></trkpt><trkpt lat="39.297815761162475" lon="16.308602368558077"><ele>527.0</ele><time>2026-04-12T17:51:53.999Z</time></trkpt><trkpt lat="39.29803198190215" lon="16.308886821104196"><ele>535.0</ele><time>2026-04-12T17:51:54.999Z</time></trkpt><trkpt lat="39.29823871739819" lon="16.30916525110162"><ele>543.0</ele><time>2026-04-12T17:51:55.999Z</time></trkpt><trkpt lat="39.29842736944276" lon="16.309435990577295"><ele>543.0</ele><time>2026-04-12T17:51:56.999Z</time></trkpt><trkpt lat="39.29857263009101" lon="16.309727345664573"><ele>543.0</ele><time>2026-04-12T17:51:57.999Z</time></trkpt><trkpt lat="39.29871067236214" lon="16.310020414653163"><ele>547.0</ele><time>2026-04-12T17:51:58.999Z</time></trkpt><trkpt lat="39.29885565592797" lon="16.31031129643949"><ele>551.0</ele><time>2026-04-12T17:51:59.999Z</time></trkpt><trkpt lat="39.298980312431695" lon="16.310613993485962"><ele>551.0</ele><time>2026-04-12T17:52:00.999Z</time></trkpt><trkpt lat="39.29910368404935" lon="16.310904276157263"><ele>551.0</ele><time>2026-04-12T17:52:01.999Z</time></trkpt><trkpt lat="39.2992261159317" lon="16.311184573282947"><ele>546.5</ele><time>2026-04-12T17:52:02.999Z</time></trkpt><trkpt lat="39.299347343175306" lon="16.31145404743547"><ele>542.0</ele><time>2026-04-12T17:52:03.999Z</time></trkpt><trkpt lat="39.299466523601076" lon="16.3117180416051"><ele>542.0</ele><time>2026-04-12T17:52:04.999Z</time></trkpt><trkpt lat="39.29958417152778" lon="16.311975890713878"><ele>542.0</ele><time>2026-04-12T17:52:05.999Z</time></trkpt><trkpt lat="39.299702854616065" lon="16.312230541218472"><ele>548.6666666666666</ele><time>2026-04-12T17:52:06.999Z</time></trkpt><trkpt lat="39.299816175213" lon="16.31248288784943"><ele>555.3333333333334</ele><time>2026-04-12T17:52:07.999Z</time></trkpt><trkpt lat="39.29992959427721" lon="16.31272375781303"><ele>562.0</ele><time>2026-04-12T17:52:08.999Z</time></trkpt><trkpt lat="39.30005030670077" lon="16.31295471358532"><ele>557.0</ele><time>2026-04-12T17:52:09.999Z</time></trkpt><trkpt lat="39.30018141661221" lon="16.313170529053032"><ele>552.0</ele><time>2026-04-12T17:52:10.999Z</time></trkpt><trkpt lat="39.300331300799975" lon="16.31336215641557"><ele>547.0</ele><time>2026-04-12T17:52:11.998Z</time></trkpt><trkpt lat="39.30049368214125" lon="16.313522611680007"><ele>553.6666666666667</ele><time>2026-04-12T17:52:12.998Z</time></trkpt><trkpt lat="39.300672545726776" lon="16.313655328911842"><ele>560.3333333333334</ele><time>2026-04-12T17:52:13.998Z</time></trkpt><trkpt lat="39.300862791712674" lon="16.313751903271854"><ele>567.0</ele><time>2026-04-12T17:52:14.998Z</time></trkpt><trkpt lat="39.301058233212835" lon="16.313811081252513"><ele>567.0</ele><time>2026-04-12T17:52:15.998Z</time></trkpt><trkpt lat="39.30124050495951" lon="16.313833493490485"><ele>567.0</ele><time>2026-04-12T17:52:16.998Z</time></trkpt><trkpt lat="39.301440611589534" lon="16.31381359595968"><ele>567.0</ele><time>2026-04-12T17:52:17.998Z</time></trkpt><trkpt lat="39.301673607908334" lon="16.31376708144008"><ele>564.3333333333334</ele><time>2026-04-12T17:52:18.998Z</time></trkpt><trkpt lat="39.301879698117666" lon="16.31368896067342"><ele>561.6666666666667</ele><time>2026-04-12T17:52:19.998Z</time></trkpt><trkpt lat="39.30207513858066" lon="16.313578203043058"><ele>559.0</ele><time>2026-04-12T17:52:20.998Z</time></trkpt><trkpt lat="39.302259253078915" lon="16.31341600939854"><ele>561.0</ele><time>2026-04-12T17:52:21.998Z</time></trkpt><trkpt lat="39.302429446144636" lon="16.313227354590875"><ele>563.0</ele><time>2026-04-12T17:52:22.998Z</time></trkpt><trkpt lat="39.302580162256625" lon="16.313001852259887"><ele>563.0</ele><time>2026-04-12T17:52:23.998Z</time></trkpt><trkpt lat="39.302707652205314" lon="16.312753052502778"><ele>563.0</ele><time>2026-04-12T17:52:24.998Z</time></trkpt><trkpt lat="39.30281543343647" lon="16.312483767076515"><ele>557.0</ele><time>2026-04-12T17:52:25.998Z</time></trkpt><trkpt lat="39.30292288336062" lon="16.312213373708573"><ele>551.0</ele><time>2026-04-12T17:52:26.998Z</time></trkpt><trkpt lat="39.303031852707754" lon="16.3119430467551"><ele>560.0</ele><time>2026-04-12T17:52:27.998Z</time></trkpt><trkpt lat="39.30314788674027" lon="16.311675210939754"><ele>569.0</ele><time>2026-04-12T17:52:28.998Z</time></trkpt><trkpt lat="39.30326426435898" lon="16.31140431386681"><ele>569.0</ele><time>2026-04-12T17:52:29.998Z</time></trkpt><trkpt lat="39.30337474302123" lon="16.311135868105072"><ele>569.0</ele><time>2026-04-12T17:52:30.998Z</time></trkpt><trkpt lat="39.30348135097621" lon="16.310877578294388"><ele>569.0</ele><time>2026-04-12T17:52:31.998Z</time></trkpt><trkpt lat="39.30359017991066" lon="16.310624237133936"><ele>569.0</ele><time>2026-04-12T17:52:32.998Z</time></trkpt><trkpt lat="39.30370694112147" lon="16.31037881717317"><ele>569.0</ele><time>2026-04-12T17:52:33.998Z</time></trkpt><trkpt lat="39.303831492629485" lon="16.310149127945753"><ele>573.3333333333333</ele><time>2026-04-12T17:52:34.998Z</time></trkpt><trkpt lat="39.303990642771886" lon="16.309963714078286"><ele>577.6666666666666</ele><time>2026-04-12T17:52:35.998Z</time></trkpt><trkpt lat="39.30415356078445" lon="16.309793995735898"><ele>582.0</ele><time>2026-04-12T17:52:36.998Z</time></trkpt><trkpt lat="39.304329087834" lon="16.309655719517227"><ele>582.0</ele><time>2026-04-12T17:52:37.998Z</time></trkpt><trkpt lat="39.30451228508159" lon="16.309549089478818"><ele>582.0</ele><time>2026-04-12T17:52:38.998Z</time></trkpt><trkpt lat="39.30470624157683" lon="16.309476832307123"><ele>582.0</ele><time>2026-04-12T17:52:39.998Z</time></trkpt><trkpt lat="39.30490341089359" lon="16.30943607932721"><ele>587.3333333333334</ele><time>2026-04-12T17:52:40.998Z</time></trkpt><trkpt lat="39.305105280914916" lon="16.309424746068437"><ele>592.6666666666667</ele><time>2026-04-12T17:52:41.998Z</time></trkpt><trkpt lat="39.30530331838962" lon="16.309447519657127"><ele>598.0</ele><time>2026-04-12T17:52:42.998Z</time></trkpt><trkpt lat="39.305495829234886" lon="16.309502292208172"><ele>595.3333333333334</ele><time>2026-04-12T17:52:43.998Z</time></trkpt><trkpt lat="39.30568654467902" lon="16.30958611375444"><ele>592.6666666666666</ele><time>2026-04-12T17:52:44.998Z</time></trkpt><trkpt lat="39.3058588201616" lon="16.309697869686826"><ele>590.0</ele><time>2026-04-12T17:52:45.998Z</time></trkpt><trkpt lat="39.30602156944908" lon="16.309839843902473"><ele>596.0</ele><time>2026-04-12T17:52:46.998Z</time></trkpt><trkpt lat="39.30617354649644" lon="16.310007173321175"><ele>602.0</ele><time>2026-04-12T17:52:47.998Z</time></trkpt><trkpt lat="39.30632267101157" lon="16.310185013381766"><ele>608.0</ele><time>2026-04-12T17:52:48.998Z</time></trkpt><trkpt lat="39.30644286928601" lon="16.31039949090337"><ele>609.0</ele><time>2026-04-12T17:52:49.998Z</time></trkpt><trkpt lat="39.306553403690856" lon="16.310633743757805"><ele>610.0</ele><time>2026-04-12T17:52:50.998Z</time></trkpt><trkpt lat="39.30665854116663" lon="16.31086222035511"><ele>611.0</ele><time>2026-04-12T17:52:51.998Z</time></trkpt><trkpt lat="39.306766561117286" lon="16.31109364755081"><ele>611.0</ele><time>2026-04-12T17:52:52.998Z</time></trkpt><trkpt lat="39.30687516367505" lon="16.3113239475429"><ele>611.0</ele><time>2026-04-12T17:52:53.998Z</time></trkpt><trkpt lat="39.30697927385126" lon="16.311553948730772"><ele>611.0</ele><time>2026-04-12T17:52:54.998Z</time></trkpt><trkpt lat="39.30708139753974" lon="16.31179001114653"><ele>614.0</ele><time>2026-04-12T17:52:55.998Z</time></trkpt><trkpt lat="39.30715431340471" lon="16.31204153140039"><ele>617.0</ele><time>2026-04-12T17:52:56.998Z</time></trkpt><trkpt lat="39.307223527053395" lon="16.31229781951235"><ele>620.0</ele><time>2026-04-12T17:52:57.998Z</time></trkpt><trkpt lat="39.30727131428908" lon="16.312562837713855"><ele>620.0</ele><time>2026-04-12T17:52:58.998Z</time></trkpt><trkpt lat="39.30730438119597" lon="16.312831617950195"><ele>620.0</ele><time>2026-04-12T17:53:00.018Z</time></trkpt><trkpt lat="39.307313038159165" lon="16.313077017020397"><ele>620.0</ele><time>2026-04-12T17:53:01.013Z</time></trkpt><trkpt lat="39.307305901088036" lon="16.313325279852865"><ele>620.5</ele><time>2026-04-12T17:53:02.023Z</time></trkpt><trkpt lat="39.30728475146151" lon="16.3135520008866"><ele>621.0</ele><time>2026-04-12T17:53:02.998Z</time></trkpt><trkpt lat="39.30722239778604" lon="16.313902744331852"><ele>628.6666666666666</ele><time>2026-04-12T17:53:03.998Z</time></trkpt><trkpt lat="39.30715311513764" lon="16.314166274721327"><ele>636.3333333333333</ele><time>2026-04-12T17:53:04.998Z</time></trkpt><trkpt lat="39.30706873229601" lon="16.314426044300166"><ele>644.0</ele><time>2026-04-12T17:53:05.998Z</time></trkpt><trkpt lat="39.30696150012006" lon="16.31472067268898"><ele>642.5</ele><time>2026-04-12T17:53:06.998Z</time></trkpt><trkpt lat="39.30683911991283" lon="16.315053897998013"><ele>641.0</ele><time>2026-04-12T17:53:07.998Z</time></trkpt><trkpt lat="39.306706141407346" lon="16.315422146402284"><ele>642.5</ele><time>2026-04-12T17:53:08.998Z</time></trkpt><trkpt lat="39.306592926205525" lon="16.315829837633384"><ele>644.0</ele><time>2026-04-12T17:53:09.998Z</time></trkpt><trkpt lat="39.30642262217488" lon="16.31624989516033"><ele>658.0</ele><time>2026-04-12T17:53:10.998Z</time></trkpt><trkpt lat="39.30625370508483" lon="16.31668395706706"><ele>672.0</ele><time>2026-04-12T17:53:11.998Z</time></trkpt><trkpt lat="39.306091790767084" lon="16.317107554564945"><ele>672.5</ele><time>2026-04-12T17:53:12.998Z</time></trkpt><trkpt lat="39.30592562973208" lon="16.31754090971399"><ele>673.0</ele><time>2026-04-12T17:53:14.018Z</time></trkpt><trkpt lat="39.305762645878964" lon="16.317971938932335"><ele>672.5</ele><time>2026-04-12T17:53:15.018Z</time></trkpt><trkpt lat="39.305596641497566" lon="16.318405506521785"><ele>672.0</ele><time>2026-04-12T17:53:16.011Z</time></trkpt><trkpt lat="39.305432184717475" lon="16.318833553514562"><ele>639.0</ele><time>2026-04-12T17:53:17.014Z</time></trkpt><trkpt lat="39.30511992647394" lon="16.31974180698933"><ele>639.0</ele><time>2026-04-12T17:53:19.998Z</time></trkpt><trkpt lat="39.30497832781314" lon="16.32016361447321"><ele>639.0</ele><time>2026-04-12T17:53:20.998Z</time></trkpt><trkpt lat="39.30485028892311" lon="16.320471090907493"><ele>630.0</ele><time>2026-04-12T17:53:21.998Z</time></trkpt><trkpt lat="39.30474114500341" lon="16.320769286047398"><ele>621.0</ele><time>2026-04-12T17:53:22.998Z</time></trkpt><trkpt lat="39.30467095970194" lon="16.32107038767358"><ele>621.0</ele><time>2026-04-12T17:53:23.998Z</time></trkpt><trkpt lat="39.304648152294185" lon="16.321374798888854"><ele>621.0</ele><time>2026-04-12T17:53:24.998Z</time></trkpt><trkpt lat="39.30465981261528" lon="16.3216684166516"><ele>626.0</ele><time>2026-04-12T17:53:25.998Z</time></trkpt><trkpt lat="39.30470434053408" lon="16.32195311842026"><ele>631.0</ele><time>2026-04-12T17:53:26.998Z</time></trkpt><trkpt lat="39.304784114038775" lon="16.322242003250857"><ele>647.0</ele><time>2026-04-12T17:53:27.998Z</time></trkpt><trkpt lat="39.30489347246619" lon="16.322504202556157"><ele>663.0</ele><time>2026-04-12T17:53:28.998Z</time></trkpt><trkpt lat="39.30502594425753" lon="16.322741027085737"><ele>663.0</ele><time>2026-04-12T17:53:29.998Z</time></trkpt><trkpt lat="39.30518881462826" lon="16.322939355314464"><ele>663.0</ele><time>2026-04-12T17:53:30.998Z</time></trkpt><trkpt lat="39.30536913591743" lon="16.323108247761006"><ele>663.0</ele><time>2026-04-12T17:53:31.998Z</time></trkpt><trkpt lat="39.305572564556236" lon="16.323257036268487"><ele>666.5</ele><time>2026-04-12T17:53:32.998Z</time></trkpt><trkpt lat="39.305776097267454" lon="16.32338327894421"><ele>670.0</ele><time>2026-04-12T17:53:33.998Z</time></trkpt><trkpt lat="39.30598393010333" lon="16.32350789558475"><ele>670.0</ele><time>2026-04-12T17:53:34.998Z</time></trkpt><trkpt lat="39.30618539020779" lon="16.323639214098037"><ele>670.0</ele><time>2026-04-12T17:53:35.998Z</time></trkpt><trkpt lat="39.306398252598875" lon="16.323770690118888"><ele>670.0</ele><time>2026-04-12T17:53:36.999Z</time></trkpt><trkpt lat="39.306624375193834" lon="16.32391924886857"><ele>670.0</ele><time>2026-04-12T17:53:37.999Z</time></trkpt><trkpt lat="39.306844245986156" lon="16.324058572089037"><ele>670.0</ele><time>2026-04-12T17:53:38.999Z</time></trkpt><trkpt lat="39.30705966639326" lon="16.324204508736894"><ele>670.0</ele><time>2026-04-12T17:53:39.999Z</time></trkpt><trkpt lat="39.307266238376805" lon="16.3243450115828"><ele>675.0</ele><time>2026-04-12T17:53:40.999Z</time></trkpt><trkpt lat="39.30746892717982" lon="16.324481935940323"><ele>680.0</ele><time>2026-04-12T17:53:41.999Z</time></trkpt><trkpt lat="39.30767080055703" lon="16.32461793914314"><ele>678.0</ele><time>2026-04-12T17:53:42.999Z</time></trkpt><trkpt lat="39.30786968476511" lon="16.324746949357376"><ele>676.0</ele><time>2026-04-12T17:53:43.999Z</time></trkpt><trkpt lat="39.308067887291855" lon="16.324872895649964"><ele>674.0</ele><time>2026-04-12T17:53:44.999Z</time></trkpt><trkpt lat="39.308259917333714" lon="16.324998779409068"><ele>678.6666666666666</ele><time>2026-04-12T17:53:45.999Z</time></trkpt><trkpt lat="39.30844848137898" lon="16.325124806879092"><ele>683.3333333333334</ele><time>2026-04-12T17:53:46.999Z</time></trkpt><trkpt lat="39.30863526274408" lon="16.325253872745712"><ele>688.0</ele><time>2026-04-12T17:53:47.999Z</time></trkpt><trkpt lat="39.3088119576904" lon="16.325373046235068"><ele>689.0</ele><time>2026-04-12T17:53:48.999Z</time></trkpt><trkpt lat="39.308979578553426" lon="16.32549437950951"><ele>690.0</ele><time>2026-04-12T17:53:49.999Z</time></trkpt><trkpt lat="39.30913015757173" lon="16.325618688823074"><ele>691.0</ele><time>2026-04-12T17:53:50.999Z</time></trkpt><trkpt lat="39.30923521639818" lon="16.3257348575901"><ele>691.0</ele><time>2026-04-12T17:53:51.999Z</time></trkpt><trkpt lat="39.30938316680744" lon="16.325860215678944"><ele>691.0</ele><time>2026-04-12T17:53:52.999Z</time></trkpt><trkpt lat="39.30951952169047" lon="16.326011528057915"><ele>691.0</ele><time>2026-04-12T17:53:53.999Z</time></trkpt><trkpt lat="39.30965963741061" lon="16.326173185283228"><ele>691.6666666666667</ele><time>2026-04-12T17:53:54.999Z</time></trkpt><trkpt lat="39.3098120662962" lon="16.326334022613626"><ele>692.3333333333334</ele><time>2026-04-12T17:53:55.999Z</time></trkpt><trkpt lat="39.30997353098771" lon="16.326490215826055"><ele>693.0</ele><time>2026-04-12T17:53:56.999Z</time></trkpt><trkpt lat="39.31014398385733" lon="16.326657309440424"><ele>693.0</ele><time>2026-04-12T17:53:57.999Z</time></trkpt><trkpt lat="39.31032047022916" lon="16.32683869809694"><ele>693.0</ele><time>2026-04-12T17:53:58.999Z</time></trkpt><trkpt lat="39.310506473067285" lon="16.3270218619794"><ele>695.5</ele><time>2026-04-12T17:53:59.999Z</time></trkpt><trkpt lat="39.31069845392302" lon="16.327211094336615"><ele>698.0</ele><time>2026-04-12T17:54:00.999Z</time></trkpt><trkpt lat="39.310894498482696" lon="16.3274098804569"><ele>698.0</ele><time>2026-04-12T17:54:01.999Z</time></trkpt><trkpt lat="39.31109322563908" lon="16.327612641466306"><ele>698.0</ele><time>2026-04-12T17:54:02.999Z</time></trkpt><trkpt lat="39.31130106603773" lon="16.32781918281948"><ele>699.5</ele><time>2026-04-12T17:54:03.999Z</time></trkpt><trkpt lat="39.311508337875324" lon="16.32803535801773"><ele>701.0</ele><time>2026-04-12T17:54:04.999Z</time></trkpt><trkpt lat="39.31172577861879" lon="16.32825269977428"><ele>701.0</ele><time>2026-04-12T17:54:05.999Z</time></trkpt><trkpt lat="39.31194025929401" lon="16.32847325879345"><ele>701.0</ele><time>2026-04-12T17:54:06.999Z</time></trkpt><trkpt lat="39.31216428427395" lon="16.328693400096203"><ele>701.5</ele><time>2026-04-12T17:54:07.999Z</time></trkpt><trkpt lat="39.312386530445195" lon="16.328911226386587"><ele>702.0</ele><time>2026-04-12T17:54:08.999Z</time></trkpt><trkpt lat="39.3126071908033" lon="16.329129463134468"><ele>702.0</ele><time>2026-04-12T17:54:09.999Z</time></trkpt><trkpt lat="39.3128264209654" lon="16.32935629079882"><ele>702.0</ele><time>2026-04-12T17:54:10.999Z</time></trkpt><trkpt lat="39.31302987175717" lon="16.32959392861927"><ele>703.5</ele><time>2026-04-12T17:54:11.999Z</time></trkpt><trkpt lat="39.31321698739003" lon="16.329849139304123"><ele>705.0</ele><time>2026-04-12T17:54:12.999Z</time></trkpt><trkpt lat="39.31338100088252" lon="16.330125316211944"><ele>705.0</ele><time>2026-04-12T17:54:13.999Z</time></trkpt><trkpt lat="39.31352166938552" lon="16.330426123392993"><ele>705.0</ele><time>2026-04-12T17:54:14.999Z</time></trkpt><trkpt lat="39.313640064190736" lon="16.330735892572765"><ele>705.0</ele><time>2026-04-12T17:54:15.999Z</time></trkpt><trkpt lat="39.31375504053807" lon="16.331047742413453"><ele>705.0</ele><time>2026-04-12T17:54:16.999Z</time></trkpt><trkpt lat="39.31387235373118" lon="16.33135620748984"><ele>715.0</ele><time>2026-04-12T17:54:17.999Z</time></trkpt><trkpt lat="39.313994355216444" lon="16.331656340666363"><ele>725.0</ele><time>2026-04-12T17:54:18.999Z</time></trkpt><trkpt lat="39.314121312730364" lon="16.331955978034554"><ele>719.0</ele><time>2026-04-12T17:54:19.999Z</time></trkpt><trkpt lat="39.31424748259028" lon="16.332250579168953"><ele>713.0</ele><time>2026-04-12T17:54:20.999Z</time></trkpt><trkpt lat="39.31438187661054" lon="16.332535820784"><ele>713.0</ele><time>2026-04-12T17:54:21.999Z</time></trkpt><trkpt lat="39.31454702581748" lon="16.33279574180251"><ele>713.0</ele><time>2026-04-12T17:54:22.999Z</time></trkpt><trkpt lat="39.31473688620035" lon="16.333021637701574"><ele>721.0</ele><time>2026-04-12T17:54:23.999Z</time></trkpt><trkpt lat="39.31494854504497" lon="16.3332204578707"><ele>729.0</ele><time>2026-04-12T17:54:24.999Z</time></trkpt><trkpt lat="39.31515223788843" lon="16.333399234511404"><ele>729.0</ele><time>2026-04-12T17:54:25.999Z</time></trkpt><trkpt lat="39.31533899006319" lon="16.333576668033643"><ele>729.0</ele><time>2026-04-12T17:54:26.999Z</time></trkpt><trkpt lat="39.31552372628208" lon="16.333744056821867"><ele>732.5</ele><time>2026-04-12T17:54:27.999Z</time></trkpt><trkpt lat="39.31570943792327" lon="16.33391505869742"><ele>736.0</ele><time>2026-04-12T17:54:28.999Z</time></trkpt><trkpt lat="39.31589355713102" lon="16.33409241466576"><ele>736.0</ele><time>2026-04-12T17:54:29.999Z</time></trkpt><trkpt lat="39.316079190932975" lon="16.33427459788837"><ele>736.0</ele><time>2026-04-12T17:54:30.999Z</time></trkpt><trkpt lat="39.31624304667224" lon="16.33449545745743"><ele>737.5</ele><time>2026-04-12T17:54:31.999Z</time></trkpt><trkpt lat="39.316387109456656" lon="16.334728561344363"><ele>739.0</ele><time>2026-04-12T17:54:32.999Z</time></trkpt><trkpt lat="39.316499809052" lon="16.334977050998393"><ele>739.0</ele><time>2026-04-12T17:54:33.999Z</time></trkpt><trkpt lat="39.31658654509516" lon="16.335240874752508"><ele>739.0</ele><time>2026-04-12T17:54:34.999Z</time></trkpt><trkpt lat="39.31664131532014" lon="16.335512492449254"><ele>739.0</ele><time>2026-04-12T17:54:35.999Z</time></trkpt><trkpt lat="39.316669697567214" lon="16.335784977353743"><ele>733.3333333333334</ele><time>2026-04-12T17:54:36.999Z</time></trkpt><trkpt lat="39.3166681744943" lon="16.336063684347817"><ele>727.6666666666666</ele><time>2026-04-12T17:54:37.999Z</time></trkpt><trkpt lat="39.31663583407796" lon="16.33634357719078"><ele>722.0</ele><time>2026-04-12T17:54:38.999Z</time></trkpt><trkpt lat="39.31657050981498" lon="16.336613998378247"><ele>722.0</ele><time>2026-04-12T17:54:39.999Z</time></trkpt><trkpt lat="39.31647882981381" lon="16.336880039498155"><ele>722.0</ele><time>2026-04-12T17:54:40.999Z</time></trkpt><trkpt lat="39.31635558205585" lon="16.33712830571876"><ele>730.5</ele><time>2026-04-12T17:54:41.999Z</time></trkpt><trkpt lat="39.316203414024656" lon="16.337351452079886"><ele>739.0</ele><time>2026-04-12T17:54:42.999Z</time></trkpt><trkpt lat="39.31602481879818" lon="16.33753789868052"><ele>739.0</ele><time>2026-04-12T17:54:43.999Z</time></trkpt><trkpt lat="39.315836388610336" lon="16.337692550590514"><ele>739.0</ele><time>2026-04-12T17:54:44.999Z</time></trkpt><trkpt lat="39.31564205054047" lon="16.337834888286054"><ele>739.0</ele><time>2026-04-12T17:54:45.999Z</time></trkpt><trkpt lat="39.315423129345994" lon="16.337928395649843"><ele>726.0</ele><time>2026-04-12T17:54:46.999Z</time></trkpt><trkpt lat="39.31519902663756" lon="16.33800893873394"><ele>713.0</ele><time>2026-04-12T17:54:47.999Z</time></trkpt><trkpt lat="39.31497203332101" lon="16.338093118192287"><ele>705.6666666666666</ele><time>2026-04-12T17:54:48.999Z</time></trkpt><trkpt lat="39.314754043086175" lon="16.338178220612658"><ele>698.3333333333334</ele><time>2026-04-12T17:54:49.999Z</time></trkpt><trkpt lat="39.31455171327487" lon="16.33826165701165"><ele>691.0</ele><time>2026-04-12T17:54:50.999Z</time></trkpt><trkpt lat="39.3143612037218" lon="16.33833987525607"><ele>690.3333333333334</ele><time>2026-04-12T17:54:51.999Z</time></trkpt><trkpt lat="39.31414965115798" lon="16.33842171785985"><ele>689.6666666666666</ele><time>2026-04-12T17:54:52.999Z</time></trkpt><trkpt lat="39.31400045464836" lon="16.33849521977833"><ele>689.0</ele><time>2026-04-12T17:54:53.999Z</time></trkpt><trkpt lat="39.31381825836524" lon="16.33856375269558"><ele>689.0</ele><time>2026-04-12T17:54:54.999Z</time></trkpt><trkpt lat="39.313636580588195" lon="16.338639831841625"><ele>689.0</ele><time>2026-04-12T17:54:55.999Z</time></trkpt><trkpt lat="39.313453306294484" lon="16.338713564057663"><ele>689.0</ele><time>2026-04-12T17:54:56.999Z</time></trkpt><trkpt lat="39.31326770242312" lon="16.338790301079776"><ele>689.0</ele><time>2026-04-12T17:54:57.999Z</time></trkpt><trkpt lat="39.31309613352874" lon="16.338851981681685"><ele>689.0</ele><time>2026-04-12T17:54:58.999Z</time></trkpt><trkpt lat="39.312920934797354" lon="16.3389122309808"><ele>689.0</ele><time>2026-04-12T17:54:59.999Z</time></trkpt><trkpt lat="39.31274074894223" lon="16.338971555115634"><ele>705.3333333333333</ele><time>2026-04-12T17:55:00.999Z</time></trkpt><trkpt lat="39.31255968174592" lon="16.339023754575155"><ele>721.6666666666666</ele><time>2026-04-12T17:55:01.999Z</time></trkpt><trkpt lat="39.31237679750807" lon="16.33906933785383"><ele>738.0</ele><time>2026-04-12T17:55:02.999Z</time></trkpt><trkpt lat="39.31219048592355" lon="16.33911014784909"><ele>742.6666666666666</ele><time>2026-04-12T17:55:03.999Z</time></trkpt><trkpt lat="39.31200310514177" lon="16.33915180939619"><ele>747.3333333333333</ele><time>2026-04-12T17:55:04.999Z</time></trkpt><trkpt lat="39.311811631646485" lon="16.33918457829863"><ele>752.0</ele><time>2026-04-12T17:55:05.999Z</time></trkpt><trkpt lat="39.31161952117598" lon="16.339226101336013"><ele>752.0</ele><time>2026-04-12T17:55:06.999Z</time></trkpt><trkpt lat="39.31142665904751" lon="16.339266557533975"><ele>752.0</ele><time>2026-04-12T17:55:07.999Z</time></trkpt><trkpt lat="39.31122692693917" lon="16.339302397384788"><ele>752.0</ele><time>2026-04-12T17:55:08.999Z</time></trkpt><trkpt lat="39.31103142821817" lon="16.339320740692692"><ele>751.6666666666666</ele><time>2026-04-12T17:55:09.999Z</time></trkpt><trkpt lat="39.3108308718776" lon="16.339359143420953"><ele>751.3333333333334</ele><time>2026-04-12T17:55:10.999Z</time></trkpt><trkpt lat="39.31061498173168" lon="16.339384406800228"><ele>751.0</ele><time>2026-04-12T17:55:11.999Z</time></trkpt><trkpt lat="39.31040069502098" lon="16.33941161300199"><ele>751.0</ele><time>2026-04-12T17:55:12.999Z</time></trkpt><trkpt lat="39.31018128950358" lon="16.33944135917075"><ele>751.0</ele><time>2026-04-12T17:55:13.999Z</time></trkpt><trkpt lat="39.309964321117526" lon="16.339470222771425"><ele>751.0</ele><time>2026-04-12T17:55:14.999Z</time></trkpt><trkpt lat="39.30980424126025" lon="16.339548694640904"><ele>750.0</ele><time>2026-04-12T17:55:15.999Z</time></trkpt><trkpt lat="39.30960785695525" lon="16.339596305730325"><ele>749.0</ele><time>2026-04-12T17:55:16.999Z</time></trkpt><trkpt lat="39.30941132211199" lon="16.33964107918959"><ele>748.0</ele><time>2026-04-12T17:55:17.999Z</time></trkpt><trkpt lat="39.309215085481576" lon="16.33967974158679"><ele>753.3333333333334</ele><time>2026-04-12T17:55:18.999Z</time></trkpt><trkpt lat="39.3090264133629" lon="16.3397201892291"><ele>758.6666666666666</ele><time>2026-04-12T17:55:19.999Z</time></trkpt><trkpt lat="39.30885083810474" lon="16.339759134486535"><ele>764.0</ele><time>2026-04-12T17:55:20.999Z</time></trkpt><trkpt lat="39.308688711497155" lon="16.339790510080032"><ele>765.25</ele><time>2026-04-12T17:55:21.999Z</time></trkpt><trkpt lat="39.30854160002535" lon="16.339822287915982"><ele>766.5</ele><time>2026-04-12T17:55:22.999Z</time></trkpt><trkpt lat="39.308411320585904" lon="16.339866236175585"><ele>767.75</ele><time>2026-04-12T17:55:23.999Z</time></trkpt><trkpt lat="39.30828187155138" lon="16.339891645531985"><ele>769.0</ele><time>2026-04-12T17:55:24.999Z</time></trkpt><trkpt lat="39.308147557193486" lon="16.33998502005585"><ele>766.25</ele><time>2026-04-12T17:55:26.013Z</time></trkpt><trkpt lat="39.30801106043449" lon="16.34005606193199"><ele>763.5</ele><time>2026-04-12T17:55:27.014Z</time></trkpt><trkpt lat="39.3078680220694" lon="16.340125779721486"><ele>760.75</ele><time>2026-04-12T17:55:28.014Z</time></trkpt><trkpt lat="39.30773666800238" lon="16.34020205947616"><ele>758.0</ele><time>2026-04-12T17:55:29.014Z</time></trkpt><trkpt lat="39.30760503888115" lon="16.340281250437428"><ele>762.5</ele><time>2026-04-12T17:55:29.998Z</time></trkpt><trkpt lat="39.30782483708793" lon="16.340780466074488"><ele>767.0</ele><time>2026-04-12T17:55:30.998Z</time></trkpt><trkpt lat="39.307798389245875" lon="16.340989517013675"><ele>767.0</ele><time>2026-04-12T17:55:31.998Z</time></trkpt><trkpt lat="39.30775818665192" lon="16.341187092669646"><ele>767.0</ele><time>2026-04-12T17:55:32.998Z</time></trkpt><trkpt lat="39.307707617012674" lon="16.341365537157543"><ele>767.0</ele><time>2026-04-12T17:55:33.998Z</time></trkpt><trkpt lat="39.307657733368785" lon="16.34153504921893"><ele>767.0</ele><time>2026-04-12T17:55:34.998Z</time></trkpt><trkpt lat="39.30759112500051" lon="16.341691412695948"><ele>769.5</ele><time>2026-04-12T17:55:35.999Z</time></trkpt><trkpt lat="39.30750570834556" lon="16.34183884961004"><ele>772.0</ele><time>2026-04-12T17:55:36.999Z</time></trkpt><trkpt lat="39.307412611923134" lon="16.34197497553721"><ele>774.5</ele><time>2026-04-12T17:55:37.999Z</time></trkpt><trkpt lat="39.307314619342996" lon="16.342106103573744"><ele>777.0</ele><time>2026-04-12T17:55:38.999Z</time></trkpt><trkpt lat="39.30721585285702" lon="16.342236379082095"><ele>778.25</ele><time>2026-04-12T17:55:39.999Z</time></trkpt><trkpt lat="39.307116158068375" lon="16.342361860880185"><ele>779.5</ele><time>2026-04-12T17:55:40.999Z</time></trkpt><trkpt lat="39.3070207251688" lon="16.342478367919423"><ele>780.75</ele><time>2026-04-12T17:55:41.999Z</time></trkpt><trkpt lat="39.30692311868793" lon="16.342580764938532"><ele>782.0</ele><time>2026-04-12T17:55:43Z</time></trkpt><trkpt lat="39.30682985168865" lon="16.342656318462197"><ele>782.0</ele><time>2026-04-12T17:55:44Z</time></trkpt><trkpt lat="39.30672529522635" lon="16.34270378303495"><ele>782.0</ele><time>2026-04-12T17:55:45Z</time></trkpt><trkpt lat="39.306615828676506" lon="16.34273044173281"><ele>782.0</ele><time>2026-04-12T17:55:46Z</time></trkpt><trkpt lat="39.30650456468991" lon="16.34274730807032"><ele>782.0</ele><time>2026-04-12T17:55:47Z</time></trkpt><trkpt lat="39.30638830795356" lon="16.34273433040616"><ele>785.5</ele><time>2026-04-12T17:55:48Z</time></trkpt><trkpt lat="39.30627193264717" lon="16.342695172541042"><ele>789.0</ele><time>2026-04-12T17:55:49Z</time></trkpt><trkpt lat="39.30615469465032" lon="16.342634954162612"><ele>792.5</ele><time>2026-04-12T17:55:50Z</time></trkpt><trkpt lat="39.306044805300864" lon="16.342529900422935"><ele>796.0</ele><time>2026-04-12T17:55:51Z</time></trkpt><trkpt lat="39.305945297271535" lon="16.342407789875764"><ele>796.0</ele><time>2026-04-12T17:55:52Z</time></trkpt><trkpt lat="39.305853941002454" lon="16.342273749652435"><ele>796.0</ele><time>2026-04-12T17:55:53Z</time></trkpt><trkpt lat="39.305783663184364" lon="16.342126345078007"><ele>796.0</ele><time>2026-04-12T17:55:54Z</time></trkpt><trkpt lat="39.30572224629409" lon="16.341978449315395"><ele>796.0</ele><time>2026-04-12T17:55:55Z</time></trkpt><trkpt lat="39.305662004754794" lon="16.341837389469106"><ele>796.0</ele><time>2026-04-12T17:55:56Z</time></trkpt><trkpt lat="39.30560019348537" lon="16.341700927227702"><ele>796.0</ele><time>2026-04-12T17:55:57Z</time></trkpt><trkpt lat="39.305540465003865" lon="16.3415747798223"><ele>796.0</ele><time>2026-04-12T17:55:58Z</time></trkpt><trkpt lat="39.30548031092871" lon="16.341447908594244"><ele>796.0</ele><time>2026-04-12T17:55:59Z</time></trkpt><trkpt lat="39.30541572191027" lon="16.341315550651768"><ele>793.25</ele><time>2026-04-12T17:56:00Z</time></trkpt><trkpt lat="39.3053106975689" lon="16.34118173736577"><ele>790.5</ele><time>2026-04-12T17:56:01Z</time></trkpt><trkpt lat="39.305256953368506" lon="16.341001082961444"><ele>787.75</ele><time>2026-04-12T17:56:02Z</time></trkpt><trkpt lat="39.305180170830006" lon="16.340848740305862"><ele>785.0</ele><time>2026-04-12T17:56:03Z</time></trkpt><trkpt lat="39.30509954745202" lon="16.340681338846075"><ele>783.3333333333334</ele><time>2026-04-12T17:56:04Z</time></trkpt><trkpt lat="39.30501811979816" lon="16.34050839993897"><ele>781.6666666666667</ele><time>2026-04-12T17:56:05Z</time></trkpt><trkpt lat="39.30493851846884" lon="16.340341644059293"><ele>780.0</ele><time>2026-04-12T17:56:06Z</time></trkpt><trkpt lat="39.30486221912995" lon="16.340179749602562"><ele>780.0</ele><time>2026-04-12T17:56:07Z</time></trkpt><trkpt lat="39.30478818786578" lon="16.340023074083167"><ele>780.0</ele><time>2026-04-12T17:56:08Z</time></trkpt><trkpt lat="39.30471749550541" lon="16.33986407557816"><ele>780.0</ele><time>2026-04-12T17:56:09Z</time></trkpt><trkpt lat="39.304634069123935" lon="16.339726150020287"><ele>780.0</ele><time>2026-04-12T17:56:10Z</time></trkpt><trkpt lat="39.304536123307045" lon="16.339615297579172"><ele>781.0</ele><time>2026-04-12T17:56:11Z</time></trkpt><trkpt lat="39.30442609838817" lon="16.339540386807872"><ele>782.0</ele><time>2026-04-12T17:56:12Z</time></trkpt><trkpt lat="39.304299956160236" lon="16.339497355221454"><ele>783.0</ele><time>2026-04-12T17:56:13Z</time></trkpt><trkpt lat="39.304166511160616" lon="16.33949220003991"><ele>784.0</ele><time>2026-04-12T17:56:14Z</time></trkpt><trkpt lat="39.30402625889601" lon="16.33951910975617"><ele>781.5</ele><time>2026-04-12T17:56:15Z</time></trkpt><trkpt lat="39.30390135263252" lon="16.339570229497376"><ele>779.0</ele><time>2026-04-12T17:56:16Z</time></trkpt><trkpt lat="39.303781338256016" lon="16.33962278988726"><ele>776.5</ele><time>2026-04-12T17:56:17Z</time></trkpt><trkpt lat="39.303663827043906" lon="16.339679603469396"><ele>774.0</ele><time>2026-04-12T17:56:18Z</time></trkpt><trkpt lat="39.303565274318956" lon="16.33975322911056"><ele>778.4000000000001</ele><time>2026-04-12T17:56:19Z</time></trkpt><trkpt lat="39.30346970366495" lon="16.339817020605814"><ele>782.8</ele><time>2026-04-12T17:56:20Z</time></trkpt><trkpt lat="39.30338019471" lon="16.339889252292476"><ele>787.2</ele><time>2026-04-12T17:56:21Z</time></trkpt><trkpt lat="39.30329210931433" lon="16.33995735910413"><ele>791.5999999999999</ele><time>2026-04-12T17:56:22Z</time></trkpt><trkpt lat="39.30320170403058" lon="16.34002252445631"><ele>796.0</ele><time>2026-04-12T17:56:23Z</time></trkpt><trkpt lat="39.303110730150934" lon="16.340092599229454"><ele>795.5</ele><time>2026-04-12T17:56:24Z</time></trkpt><trkpt lat="39.30301262890363" lon="16.340162728943138"><ele>795.0</ele><time>2026-04-12T17:56:25Z</time></trkpt><trkpt lat="39.302906525875876" lon="16.340228412310687"><ele>794.5</ele><time>2026-04-12T17:56:26Z</time></trkpt><trkpt lat="39.30279466888413" lon="16.340286311260098"><ele>794.0</ele><time>2026-04-12T17:56:27Z</time></trkpt><trkpt lat="39.30267963746302" lon="16.340340849937334"><ele>794.0</ele><time>2026-04-12T17:56:28Z</time></trkpt><trkpt lat="39.30256311296617" lon="16.340383460747"><ele>794.0</ele><time>2026-04-12T17:56:29Z</time></trkpt><trkpt lat="39.302448869159605" lon="16.340416480967015"><ele>794.0</ele><time>2026-04-12T17:56:30Z</time></trkpt><trkpt lat="39.302336564455715" lon="16.340427703154557"><ele>794.0</ele><time>2026-04-12T17:56:31Z</time></trkpt><trkpt lat="39.30222897332343" lon="16.340451457372815"><ele>794.6</ele><time>2026-04-12T17:56:32Z</time></trkpt><trkpt lat="39.302140117826916" lon="16.340479163585922"><ele>795.2</ele><time>2026-04-12T17:56:33Z</time></trkpt><trkpt lat="39.30203560063523" lon="16.340478165948376"><ele>795.8000000000001</ele><time>2026-04-12T17:56:34Z</time></trkpt><trkpt lat="39.301927117503446" lon="16.340494707978458"><ele>796.4000000000001</ele><time>2026-04-12T17:56:35Z</time></trkpt><trkpt lat="39.3018093759906" lon="16.340513226283672"><ele>797.0</ele><time>2026-04-12T17:56:36Z</time></trkpt><trkpt lat="39.301685493965586" lon="16.340559621215807"><ele>803.0</ele><time>2026-04-12T17:56:37Z</time></trkpt><trkpt lat="39.30152691747934" lon="16.340558086858454"><ele>809.0</ele><time>2026-04-12T17:56:38Z</time></trkpt><trkpt lat="39.30137175673492" lon="16.34059064854359"><ele>815.0</ele><time>2026-04-12T17:56:39Z</time></trkpt><trkpt lat="39.301195931786495" lon="16.34062042896241"><ele>815.0</ele><time>2026-04-12T17:56:40Z</time></trkpt><trkpt lat="39.30101837090156" lon="16.340659206468974"><ele>815.0</ele><time>2026-04-12T17:56:41Z</time></trkpt><trkpt lat="39.300850006345605" lon="16.340722044619174"><ele>815.0</ele><time>2026-04-12T17:56:42Z</time></trkpt><trkpt lat="39.30069863791159" lon="16.340797428897854"><ele>812.6666666666667</ele><time>2026-04-12T17:56:43Z</time></trkpt><trkpt lat="39.3005459387594" lon="16.340948569401228"><ele>810.3333333333333</ele><time>2026-04-12T17:56:44Z</time></trkpt><trkpt lat="39.30041846795958" lon="16.341110096291224"><ele>808.0</ele><time>2026-04-12T17:56:45Z</time></trkpt><trkpt lat="39.30030690082715" lon="16.34127627523541"><ele>810.0</ele><time>2026-04-12T17:56:46Z</time></trkpt><trkpt lat="39.30020480880693" lon="16.34145180917456"><ele>812.0</ele><time>2026-04-12T17:56:47Z</time></trkpt><trkpt lat="39.30009685855894" lon="16.341627306206046"><ele>814.0</ele><time>2026-04-12T17:56:48Z</time></trkpt><trkpt lat="39.29997533441128" lon="16.341793097582528"><ele>814.0</ele><time>2026-04-12T17:56:49Z</time></trkpt><trkpt lat="39.29984527958227" lon="16.34194679557431"><ele>814.0</ele><time>2026-04-12T17:56:50Z</time></trkpt><trkpt lat="39.29970498252697" lon="16.342076024114792"><ele>814.0</ele><time>2026-04-12T17:56:50.999Z</time></trkpt><trkpt lat="39.29955093601982" lon="16.342158250582163"><ele>809.3333333333333</ele><time>2026-04-12T17:56:51.999Z</time></trkpt><trkpt lat="39.29939317538833" lon="16.342194997079204"><ele>804.6666666666667</ele><time>2026-04-12T17:56:52.999Z</time></trkpt><trkpt lat="39.2992354934577" lon="16.34219140349042"><ele>800.0</ele><time>2026-04-12T17:56:53.999Z</time></trkpt><trkpt lat="39.299081184077025" lon="16.34216199101712"><ele>800.0</ele><time>2026-04-12T17:56:54.999Z</time></trkpt><trkpt lat="39.298925087078935" lon="16.342125558675264"><ele>800.0</ele><time>2026-04-12T17:56:55.999Z</time></trkpt><trkpt lat="39.29877221399722" lon="16.342094401510558"><ele>800.0</ele><time>2026-04-12T17:56:56.999Z</time></trkpt><trkpt lat="39.298629982699644" lon="16.342085070187196"><ele>798.75</ele><time>2026-04-12T17:56:57.999Z</time></trkpt><trkpt lat="39.298494795156536" lon="16.34212625325468"><ele>797.5</ele><time>2026-04-12T17:56:58.999Z</time></trkpt><trkpt lat="39.29837499941957" lon="16.342215600245208"><ele>796.25</ele><time>2026-04-12T17:56:59.999Z</time></trkpt><trkpt lat="39.29826922395493" lon="16.34234451396842"><ele>795.0</ele><time>2026-04-12T17:57:00.999Z</time></trkpt><trkpt lat="39.29815472002786" lon="16.342494984354932"><ele>799.0</ele><time>2026-04-12T17:57:01.999Z</time></trkpt><trkpt lat="39.298015779987885" lon="16.342629944420914"><ele>803.0</ele><time>2026-04-12T17:57:02.999Z</time></trkpt><trkpt lat="39.29785719398033" lon="16.34275484689025"><ele>807.0</ele><time>2026-04-12T17:57:03.999Z</time></trkpt><trkpt lat="39.29769575663191" lon="16.342878822624876"><ele>807.0</ele><time>2026-04-12T17:57:04.999Z</time></trkpt><trkpt lat="39.29754792023789" lon="16.343018401892454"><ele>807.0</ele><time>2026-04-12T17:57:05.999Z</time></trkpt><trkpt lat="39.297412013704104" lon="16.343174862698113"><ele>807.0</ele><time>2026-04-12T17:57:06.999Z</time></trkpt><trkpt lat="39.29729687160748" lon="16.34334684231206"><ele>806.3333333333333</ele><time>2026-04-12T17:57:07.999Z</time></trkpt><trkpt lat="39.297201029900386" lon="16.343535987900406"><ele>805.6666666666666</ele><time>2026-04-12T17:57:08.999Z</time></trkpt><trkpt lat="39.297114192137464" lon="16.343731103703572"><ele>805.0</ele><time>2026-04-12T17:57:09.999Z</time></trkpt><trkpt lat="39.297024696134606" lon="16.343922799645735"><ele>808.0</ele><time>2026-04-12T17:57:10.999Z</time></trkpt><trkpt lat="39.29692506329413" lon="16.34409845550247"><ele>811.0</ele><time>2026-04-12T17:57:11.999Z</time></trkpt><trkpt lat="39.29681196299417" lon="16.34425676871828"><ele>814.0</ele><time>2026-04-12T17:57:12.999Z</time></trkpt><trkpt lat="39.296684518269515" lon="16.344380681780894"><ele>814.0</ele><time>2026-04-12T17:57:13.999Z</time></trkpt><trkpt lat="39.296536222073534" lon="16.344481482366316"><ele>814.0</ele><time>2026-04-12T17:57:14.999Z</time></trkpt><trkpt lat="39.296374919467" lon="16.344554070363305"><ele>814.0</ele><time>2026-04-12T17:57:15.999Z</time></trkpt><trkpt lat="39.29619760059229" lon="16.344608344003262"><ele>811.0</ele><time>2026-04-12T17:57:16.999Z</time></trkpt><trkpt lat="39.295990375885914" lon="16.344630816744264"><ele>808.0</ele><time>2026-04-12T17:57:17.999Z</time></trkpt><trkpt lat="39.29574288335937" lon="16.344669978396432"><ele>823.0</ele><time>2026-04-12T17:57:18.999Z</time></trkpt><trkpt lat="39.29545619133631" lon="16.344715653175953"><ele>838.0</ele><time>2026-04-12T17:57:19.999Z</time></trkpt><trkpt lat="39.29512920055797" lon="16.3447678067637"><ele>838.0</ele><time>2026-04-12T17:57:20.999Z</time></trkpt><trkpt lat="39.29478559996362" lon="16.344842316905705"><ele>838.0</ele><time>2026-04-12T17:57:21.999Z</time></trkpt><trkpt lat="39.2944461976771" lon="16.344877132525646"><ele>834.5</ele><time>2026-04-12T17:57:22.999Z</time></trkpt><trkpt lat="39.294126312079456" lon="16.344946501149337"><ele>831.0</ele><time>2026-04-12T17:57:23.999Z</time></trkpt><trkpt lat="39.29381340116479" lon="16.344995749726113"><ele>830.5</ele><time>2026-04-12T17:57:24.999Z</time></trkpt><trkpt lat="39.29351263593537" lon="16.34503957511984"><ele>830.0</ele><time>2026-04-12T17:57:25.999Z</time></trkpt><trkpt lat="39.29324511550042" lon="16.345063228209366"><ele>836.0</ele><time>2026-04-12T17:57:26.999Z</time></trkpt><trkpt lat="39.29297389852583" lon="16.345101988442387"><ele>842.0</ele><time>2026-04-12T17:57:27.999Z</time></trkpt><trkpt lat="39.292732542422954" lon="16.34513764967165"><ele>842.0</ele><time>2026-04-12T17:57:28.999Z</time></trkpt><trkpt lat="39.292508671186184" lon="16.345173682921065"><ele>842.0</ele><time>2026-04-12T17:57:29.999Z</time></trkpt><trkpt lat="39.29228446461332" lon="16.3452085214375"><ele>836.0</ele><time>2026-04-12T17:57:30.999Z</time></trkpt><trkpt lat="39.2920578104218" lon="16.345240638258403"><ele>830.0</ele><time>2026-04-12T17:57:31.999Z</time></trkpt><trkpt lat="39.291830051363874" lon="16.345273789232703"><ele>830.0</ele><time>2026-04-12T17:57:32.999Z</time></trkpt><trkpt lat="39.29160086709407" lon="16.345307231942318"><ele>830.0</ele><time>2026-04-12T17:57:33.999Z</time></trkpt><trkpt lat="39.29135227717004" lon="16.345366012657127"><ele>818.0</ele><time>2026-04-12T17:57:34.999Z</time></trkpt><trkpt lat="39.29112094959612" lon="16.345402358515226"><ele>806.0</ele><time>2026-04-12T17:57:35.999Z</time></trkpt><trkpt lat="39.290890810271684" lon="16.345442723823307"><ele>806.0</ele><time>2026-04-12T17:57:36.999Z</time></trkpt><trkpt lat="39.29066964474701" lon="16.34548987232737"><ele>806.0</ele><time>2026-04-12T17:57:37.999Z</time></trkpt><trkpt lat="39.290455798806015" lon="16.345555257353375"><ele>806.0</ele><time>2026-04-12T17:57:38.999Z</time></trkpt><trkpt lat="39.29025045500038" lon="16.34565088892334"><ele>815.6666666666667</ele><time>2026-04-12T17:57:39.999Z</time></trkpt><trkpt lat="39.29006529283073" lon="16.345775416818686"><ele>825.3333333333333</ele><time>2026-04-12T17:57:40.999Z</time></trkpt><trkpt lat="39.28990638311203" lon="16.345931748559906"><ele>835.0</ele><time>2026-04-12T17:57:42Z</time></trkpt><trkpt lat="39.289763432267904" lon="16.34611318480654"><ele>837.6666666666666</ele><time>2026-04-12T17:57:43Z</time></trkpt><trkpt lat="39.28963360688555" lon="16.346340541414556"><ele>840.3333333333333</ele><time>2026-04-12T17:57:44Z</time></trkpt><trkpt lat="39.28952789020683" lon="16.346587481129323"><ele>843.0</ele><time>2026-04-12T17:57:45Z</time></trkpt><trkpt lat="39.28945361944621" lon="16.346858234428016"><ele>843.0</ele><time>2026-04-12T17:57:46Z</time></trkpt><trkpt lat="39.28941644480993" lon="16.34712667162008"><ele>843.0</ele><time>2026-04-12T17:57:47Z</time></trkpt><trkpt lat="39.2894068286113" lon="16.347403098653622"><ele>843.0</ele><time>2026-04-12T17:57:48Z</time></trkpt><trkpt lat="39.289440268673026" lon="16.347683856310745"><ele>846.5</ele><time>2026-04-12T17:57:49Z</time></trkpt><trkpt lat="39.289503333628666" lon="16.347963392270486"><ele>850.0</ele><time>2026-04-12T17:57:50Z</time></trkpt><trkpt lat="39.289591072832295" lon="16.348232373300554"><ele>850.0</ele><time>2026-04-12T17:57:51Z</time></trkpt><trkpt lat="39.289714303079215" lon="16.348484861773507"><ele>850.0</ele><time>2026-04-12T17:57:52Z</time></trkpt><trkpt lat="39.28986319636312" lon="16.348700247344848"><ele>847.5</ele><time>2026-04-12T17:57:53Z</time></trkpt><trkpt lat="39.29003844111977" lon="16.3488917991882"><ele>845.0</ele><time>2026-04-12T17:57:54Z</time></trkpt><trkpt lat="39.29023844551635" lon="16.349053804517588"><ele>845.0</ele><time>2026-04-12T17:57:55Z</time></trkpt><trkpt lat="39.29044775401412" lon="16.349203194639074"><ele>845.0</ele><time>2026-04-12T17:57:56Z</time></trkpt><trkpt lat="39.29065898406455" lon="16.349355390583806"><ele>849.0</ele><time>2026-04-12T17:57:57Z</time></trkpt><trkpt lat="39.29087533461336" lon="16.34951275041311"><ele>853.0</ele><time>2026-04-12T17:57:58Z</time></trkpt><trkpt lat="39.291092722401565" lon="16.3496712832536"><ele>856.5</ele><time>2026-04-12T17:57:59Z</time></trkpt><trkpt lat="39.29131298741259" lon="16.34982655781807"><ele>860.0</ele><time>2026-04-12T17:58:00Z</time></trkpt><trkpt lat="39.29153456920453" lon="16.349984843624238"><ele>860.0</ele><time>2026-04-12T17:58:01Z</time></trkpt><trkpt lat="39.29175935463204" lon="16.350146924880516"><ele>860.0</ele><time>2026-04-12T17:58:02Z</time></trkpt><trkpt lat="39.29197647654102" lon="16.350304132285412"><ele>860.0</ele><time>2026-04-12T17:58:03Z</time></trkpt><trkpt lat="39.292193604240154" lon="16.35045928525482"><ele>860.0</ele><time>2026-04-12T17:58:04Z</time></trkpt><trkpt lat="39.29240874581129" lon="16.350614315314466"><ele>870.0</ele><time>2026-04-12T17:58:05Z</time></trkpt><trkpt lat="39.29262087537007" lon="16.350767473879184"><ele>880.0</ele><time>2026-04-12T17:58:06Z</time></trkpt><trkpt lat="39.29283194635655" lon="16.350916481790676"><ele>880.0</ele><time>2026-04-12T17:58:07Z</time></trkpt><trkpt lat="39.2930375673628" lon="16.351064532940672"><ele>880.0</ele><time>2026-04-12T17:58:08Z</time></trkpt><trkpt lat="39.29323507432687" lon="16.351216758506922"><ele>883.5</ele><time>2026-04-12T17:58:09Z</time></trkpt><trkpt lat="39.29341981132901" lon="16.351380512776938"><ele>887.0</ele><time>2026-04-12T17:58:10Z</time></trkpt><trkpt lat="39.29359352548079" lon="16.351577280457796"><ele>887.0</ele><time>2026-04-12T17:58:11Z</time></trkpt><trkpt lat="39.29372881564735" lon="16.351804960041616"><ele>887.0</ele><time>2026-04-12T17:58:12Z</time></trkpt><trkpt lat="39.29384811525799" lon="16.35204788227897"><ele>887.0</ele><time>2026-04-12T17:58:13Z</time></trkpt><trkpt lat="39.29394889754106" lon="16.35231253991833"><ele>891.0</ele><time>2026-04-12T17:58:14Z</time></trkpt><trkpt lat="39.294054037257375" lon="16.352581486084844"><ele>895.0</ele><time>2026-04-12T17:58:15Z</time></trkpt><trkpt lat="39.294133202814415" lon="16.35286171383134"><ele>891.0</ele><time>2026-04-12T17:58:16Z</time></trkpt><trkpt lat="39.294208490876926" lon="16.35312797991185"><ele>887.0</ele><time>2026-04-12T17:58:17Z</time></trkpt><trkpt lat="39.29428999645552" lon="16.353389950603216"><ele>883.0</ele><time>2026-04-12T17:58:18Z</time></trkpt><trkpt lat="39.294379094037765" lon="16.353642225205682"><ele>878.6666666666666</ele><time>2026-04-12T17:58:19Z</time></trkpt><trkpt lat="39.29447862533764" lon="16.353894312492127"><ele>874.3333333333333</ele><time>2026-04-12T17:58:20Z</time></trkpt><trkpt lat="39.294600286074065" lon="16.35411320960377"><ele>870.0</ele><time>2026-04-12T17:58:21Z</time></trkpt><trkpt lat="39.29474107506481" lon="16.354315242261528"><ele>877.3333333333333</ele><time>2026-04-12T17:58:22Z</time></trkpt><trkpt lat="39.294909208903626" lon="16.354492539445776"><ele>884.6666666666666</ele><time>2026-04-12T17:58:23Z</time></trkpt><trkpt lat="39.29509003530162" lon="16.354626442683273"><ele>892.0</ele><time>2026-04-12T17:58:24Z</time></trkpt><trkpt lat="39.295295165445964" lon="16.354722777617226"><ele>892.0</ele><time>2026-04-12T17:58:25Z</time></trkpt><trkpt lat="39.295509786108376" lon="16.354799807536097"><ele>892.0</ele><time>2026-04-12T17:58:26Z</time></trkpt><trkpt lat="39.29573506790857" lon="16.354837555705668"><ele>898.5</ele><time>2026-04-12T17:58:27Z</time></trkpt><trkpt lat="39.295969702208794" lon="16.35484381905993"><ele>905.0</ele><time>2026-04-12T17:58:28Z</time></trkpt><trkpt lat="39.296207517764586" lon="16.35483405106746"><ele>907.0</ele><time>2026-04-12T17:58:29Z</time></trkpt><trkpt lat="39.29644258892743" lon="16.354821454779856"><ele>909.0</ele><time>2026-04-12T17:58:30Z</time></trkpt><trkpt lat="39.296667579736706" lon="16.354819889762382"><ele>909.0</ele><time>2026-04-12T17:58:31Z</time></trkpt><trkpt lat="39.296884545317425" lon="16.35481785270223"><ele>909.0</ele><time>2026-04-12T17:58:32Z</time></trkpt><trkpt lat="39.29709851030875" lon="16.354831214468618"><ele>909.0</ele><time>2026-04-12T17:58:33Z</time></trkpt><trkpt lat="39.297306186320945" lon="16.35490280935837"><ele>912.6666666666667</ele><time>2026-04-12T17:58:34Z</time></trkpt><trkpt lat="39.29751394133566" lon="16.3549902746533"><ele>916.3333333333334</ele><time>2026-04-12T17:58:35Z</time></trkpt><trkpt lat="39.29772677603677" lon="16.355083462317527"><ele>920.0</ele><time>2026-04-12T17:58:36Z</time></trkpt><trkpt lat="39.297930355841814" lon="16.355210680134736"><ele>915.3333333333334</ele><time>2026-04-12T17:58:37Z</time></trkpt><trkpt lat="39.29813012072821" lon="16.35532864562635"><ele>910.6666666666667</ele><time>2026-04-12T17:58:38Z</time></trkpt><trkpt lat="39.29833648587341" lon="16.355451125568162"><ele>906.0</ele><time>2026-04-12T17:58:39Z</time></trkpt><trkpt lat="39.29854189285741" lon="16.355564079285713"><ele>906.0</ele><time>2026-04-12T17:58:40Z</time></trkpt><trkpt lat="39.298748560561194" lon="16.35567983612782"><ele>906.0</ele><time>2026-04-12T17:58:41Z</time></trkpt><trkpt lat="39.298952650074476" lon="16.35579542641277"><ele>906.0</ele><time>2026-04-12T17:58:42Z</time></trkpt><trkpt lat="39.29916510127014" lon="16.35589131305265"><ele>915.0</ele><time>2026-04-12T17:58:43Z</time></trkpt><trkpt lat="39.29938024498657" lon="16.35594960152375"><ele>924.0</ele><time>2026-04-12T17:58:44Z</time></trkpt><trkpt lat="39.29959756029161" lon="16.35601908885242"><ele>933.0</ele><time>2026-04-12T17:58:45Z</time></trkpt><trkpt lat="39.29984758576755" lon="16.355955854537967"><ele>940.5</ele><time>2026-04-12T17:58:46Z</time></trkpt><trkpt lat="39.300116080593085" lon="16.355918597673465"><ele>948.0</ele><time>2026-04-12T17:58:47Z</time></trkpt><trkpt lat="39.30040170515181" lon="16.355907070104973"><ele>949.0</ele><time>2026-04-12T17:58:48Z</time></trkpt><trkpt lat="39.30070023600723" lon="16.355911908302463"><ele>950.0</ele><time>2026-04-12T17:58:49Z</time></trkpt><trkpt lat="39.301016917718314" lon="16.35588892499041"><ele>950.0</ele><time>2026-04-12T17:58:50Z</time></trkpt><trkpt lat="39.30134160181886" lon="16.355806229239647"><ele>950.0</ele><time>2026-04-12T17:58:51Z</time></trkpt><trkpt lat="39.30166115478359" lon="16.35568300523117"><ele>965.5</ele><time>2026-04-12T17:58:52Z</time></trkpt><trkpt lat="39.30196209154245" lon="16.35553568673782"><ele>981.0</ele><time>2026-04-12T17:58:53Z</time></trkpt><trkpt lat="39.30223907518441" lon="16.355351302953412"><ele>970.0</ele><time>2026-04-12T17:58:54Z</time></trkpt><trkpt lat="39.30250201362879" lon="16.35514205478503"><ele>959.0</ele><time>2026-04-12T17:58:55Z</time></trkpt><trkpt lat="39.30274802940046" lon="16.354918345894724"><ele>965.5</ele><time>2026-04-12T17:58:56Z</time></trkpt><trkpt lat="39.30298826160594" lon="16.35469885116298"><ele>972.0</ele><time>2026-04-12T17:58:57Z</time></trkpt><trkpt lat="39.3032169574319" lon="16.354519269466007"><ele>972.0</ele><time>2026-04-12T17:58:58Z</time></trkpt><trkpt lat="39.30345591339222" lon="16.354379697389227"><ele>972.0</ele><time>2026-04-12T17:58:59Z</time></trkpt><trkpt lat="39.30370790215011" lon="16.354289461280317"><ele>972.0</ele><time>2026-04-12T17:59:00Z</time></trkpt><trkpt lat="39.30397507248038" lon="16.35424581154314"><ele>972.0</ele><time>2026-04-12T17:59:01Z</time></trkpt><trkpt lat="39.304244321504775" lon="16.35422751428437"><ele>972.0</ele><time>2026-04-12T17:59:02Z</time></trkpt><trkpt lat="39.304510942646914" lon="16.35421063321396"><ele>972.0</ele><time>2026-04-12T17:59:03Z</time></trkpt><trkpt lat="39.30477843118282" lon="16.354192876925215"><ele>975.0</ele><time>2026-04-12T17:59:04Z</time></trkpt><trkpt lat="39.30504571993762" lon="16.354165603158084"><ele>978.0</ele><time>2026-04-12T17:59:05Z</time></trkpt><trkpt lat="39.30531160923809" lon="16.354132969488326"><ele>978.0</ele><time>2026-04-12T17:59:06Z</time></trkpt><trkpt lat="39.30557463986843" lon="16.35410057792188"><ele>978.0</ele><time>2026-04-12T17:59:07Z</time></trkpt><trkpt lat="39.30583279924679" lon="16.35407076774186"><ele>985.5</ele><time>2026-04-12T17:59:08Z</time></trkpt><trkpt lat="39.30610145233437" lon="16.35403921441872"><ele>993.0</ele><time>2026-04-12T17:59:09.025Z</time></trkpt><trkpt lat="39.30636434610654" lon="16.354008220176173"><ele>1004.0</ele><time>2026-04-12T17:59:10.027Z</time></trkpt><trkpt lat="39.30662406245718" lon="16.353978949925132"><ele>1015.0</ele><time>2026-04-12T17:59:11.017Z</time></trkpt><trkpt lat="39.306887108120215" lon="16.353949105757316"><ele>992.0</ele><time>2026-04-12T17:59:12.019Z</time></trkpt><trkpt lat="39.30960405621613" lon="16.353850225001903"><ele>996.0</ele><time>2026-04-12T17:59:22Z</time></trkpt><trkpt lat="39.30985993424269" lon="16.35389290325308"><ele>1000.0</ele><time>2026-04-12T17:59:23Z</time></trkpt><trkpt lat="39.31015006222879" lon="16.35398698760882"><ele>1000.0</ele><time>2026-04-12T17:59:24Z</time></trkpt><trkpt lat="39.31039631205229" lon="16.354113770401504"><ele>1000.0</ele><time>2026-04-12T17:59:25Z</time></trkpt><trkpt lat="39.31064138701559" lon="16.3542482604406"><ele>996.5</ele><time>2026-04-12T17:59:26Z</time></trkpt><trkpt lat="39.31087837017208" lon="16.354373608868954"><ele>993.0</ele><time>2026-04-12T17:59:27Z</time></trkpt><trkpt lat="39.311124561224155" lon="16.354495896871374"><ele>993.0</ele><time>2026-04-12T17:59:28Z</time></trkpt><trkpt lat="39.311369329025396" lon="16.354620454297017"><ele>993.0</ele><time>2026-04-12T17:59:29Z</time></trkpt><trkpt lat="39.31161956676125" lon="16.354745921736555"><ele>1006.0</ele><time>2026-04-12T17:59:29.999Z</time></trkpt><trkpt lat="39.311862306726006" lon="16.354870501507445"><ele>1019.0</ele><time>2026-04-12T17:59:30.999Z</time></trkpt><trkpt lat="39.312100996289885" lon="16.35499205091135"><ele>1019.0</ele><time>2026-04-12T17:59:31.999Z</time></trkpt><trkpt lat="39.31234409000249" lon="16.355117835962382"><ele>1019.0</ele><time>2026-04-12T17:59:33.023Z</time></trkpt><trkpt lat="39.312579420918915" lon="16.355239672172655"><ele>1019.0</ele><time>2026-04-12T17:59:34.018Z</time></trkpt><trkpt lat="39.3128226690589" lon="16.35536605148731"><ele>1019.0</ele><time>2026-04-12T17:59:35.022Z</time></trkpt><trkpt lat="39.31306153657909" lon="16.355490823357762"><ele>1018.0</ele><time>2026-04-12T17:59:36.025Z</time></trkpt><trkpt lat="39.3132608710223" lon="16.355606485173436"><ele>1017.0</ele><time>2026-04-12T17:59:36.999Z</time></trkpt><trkpt lat="39.313470143042245" lon="16.35568934816286"><ele>1016.0</ele><time>2026-04-12T17:59:37.999Z</time></trkpt><trkpt lat="39.31368509195661" lon="16.3557885835527"><ele>1016.0</ele><time>2026-04-12T17:59:38.999Z</time></trkpt><trkpt lat="39.31389371626207" lon="16.35588188083615"><ele>1016.0</ele><time>2026-04-12T17:59:39.999Z</time></trkpt><trkpt lat="39.31408571009909" lon="16.35595998839518"><ele>1016.0</ele><time>2026-04-12T17:59:40.999Z</time></trkpt><trkpt lat="39.31426925098815" lon="16.356022478367624"><ele>1009.3333333333334</ele><time>2026-04-12T17:59:41.999Z</time></trkpt><trkpt lat="39.31445394943214" lon="16.356083418759905"><ele>1002.6666666666667</ele><time>2026-04-12T17:59:42.999Z</time></trkpt><trkpt lat="39.31465271322183" lon="16.356147154748925"><ele>996.0</ele><time>2026-04-12T17:59:43.999Z</time></trkpt><trkpt lat="39.31485851994065" lon="16.356215980652127"><ele>996.0</ele><time>2026-04-12T17:59:44.999Z</time></trkpt><trkpt lat="39.31506824923438" lon="16.356284279619988"><ele>996.0</ele><time>2026-04-12T17:59:45.999Z</time></trkpt><trkpt lat="39.31527759266678" lon="16.3563506183062"><ele>996.0</ele><time>2026-04-12T17:59:46.999Z</time></trkpt><trkpt lat="39.315500066775776" lon="16.356416481334737"><ele>1015.0</ele><time>2026-04-12T17:59:48.001Z</time></trkpt><trkpt lat="39.31572738207064" lon="16.356485913944148"><ele>1034.0</ele><time>2026-04-12T17:59:49.001Z</time></trkpt><trkpt lat="39.31595528082176" lon="16.356559109315825"><ele>1034.0</ele><time>2026-04-12T17:59:50.001Z</time></trkpt><trkpt lat="39.31617694753043" lon="16.35662572066674"><ele>1034.0</ele><time>2026-04-12T17:59:51.001Z</time></trkpt><trkpt lat="39.31638909004503" lon="16.356695540653398"><ele>1034.0</ele><time>2026-04-12T17:59:52.001Z</time></trkpt><trkpt lat="39.31659069972802" lon="16.356779120114624"><ele>1033.0</ele><time>2026-04-12T17:59:53.001Z</time></trkpt><trkpt lat="39.316784460166595" lon="16.356888277963375"><ele>1032.0</ele><time>2026-04-12T17:59:54.001Z</time></trkpt><trkpt lat="39.31696075545806" lon="16.35702966812205"><ele>1031.0</ele><time>2026-04-12T17:59:55.001Z</time></trkpt><trkpt lat="39.317123162599195" lon="16.357194024529207"><ele>1034.0</ele><time>2026-04-12T17:59:56.001Z</time></trkpt><trkpt lat="39.31727052050872" lon="16.357381012791265"><ele>1037.0</ele><time>2026-04-12T17:59:57.001Z</time></trkpt><trkpt lat="39.31740157478214" lon="16.357586613332725"><ele>1040.0</ele><time>2026-04-12T17:59:58.001Z</time></trkpt><trkpt lat="39.31751589975184" lon="16.357820972410067"><ele>1044.3333333333335</ele><time>2026-04-12T17:59:59Z</time></trkpt><trkpt lat="39.3176058308364" lon="16.35807486196209"><ele>1048.6666666666667</ele><time>2026-04-12T18:00:00Z</time></trkpt><trkpt lat="39.31767177078808" lon="16.35834971927552"><ele>1053.0</ele><time>2026-04-12T18:00:01Z</time></trkpt><trkpt lat="39.31769868674334" lon="16.358618504453133"><ele>1056.0</ele><time>2026-04-12T18:00:02Z</time></trkpt><trkpt lat="39.3177225793646" lon="16.35892325441717"><ele>1059.0</ele><time>2026-04-12T18:00:03Z</time></trkpt><trkpt lat="39.31770887757028" lon="16.359220524899268"><ele>1059.0</ele><time>2026-04-12T18:00:04Z</time></trkpt><trkpt lat="39.31764973878748" lon="16.359509801888812"><ele>1059.0</ele><time>2026-04-12T18:00:05Z</time></trkpt><trkpt lat="39.31758419503624" lon="16.35978216333585"><ele>1057.5</ele><time>2026-04-12T18:00:06Z</time></trkpt><trkpt lat="39.31750882895945" lon="16.360049200623564"><ele>1056.0</ele><time>2026-04-12T18:00:07Z</time></trkpt><trkpt lat="39.31741651770415" lon="16.360350683809717"><ele>1052.0</ele><time>2026-04-12T18:00:08Z</time></trkpt><trkpt lat="39.31733078019735" lon="16.360635626256062"><ele>1048.0</ele><time>2026-04-12T18:00:09Z</time></trkpt><trkpt lat="39.31724983019753" lon="16.360941422801897"><ele>1063.0</ele><time>2026-04-12T18:00:10Z</time></trkpt><trkpt lat="39.317165886772045" lon="16.36125084144023"><ele>1078.0</ele><time>2026-04-12T18:00:11Z</time></trkpt><trkpt lat="39.3171029578911" lon="16.361551442347924"><ele>1078.5</ele><time>2026-04-12T18:00:12Z</time></trkpt><trkpt lat="39.3170521975591" lon="16.3618680991993"><ele>1079.0</ele><time>2026-04-12T18:00:13Z</time></trkpt><trkpt lat="39.31706484125541" lon="16.362178192229994"><ele>1078.0</ele><time>2026-04-12T18:00:14Z</time></trkpt><trkpt lat="39.31708889238309" lon="16.362498974637905"><ele>1077.0</ele><time>2026-04-12T18:00:15Z</time></trkpt><trkpt lat="39.31714668972358" lon="16.362802563435395"><ele>1069.5</ele><time>2026-04-12T18:00:16Z</time></trkpt><trkpt lat="39.317246121388465" lon="16.363116890671474"><ele>1062.0</ele><time>2026-04-12T18:00:17Z</time></trkpt><trkpt lat="39.317334856341" lon="16.363437418257366"><ele>1062.0</ele><time>2026-04-12T18:00:18Z</time></trkpt><trkpt lat="39.31743636566548" lon="16.363764467330366"><ele>1062.0</ele><time>2026-04-12T18:00:19Z</time></trkpt><trkpt lat="39.31753881774648" lon="16.364094553870135"><ele>1074.0</ele><time>2026-04-12T18:00:20Z</time></trkpt><trkpt lat="39.31764200623146" lon="16.364439052679764"><ele>1086.0</ele><time>2026-04-12T18:00:21Z</time></trkpt><trkpt lat="39.31774409347358" lon="16.364804421275856"><ele>1093.5</ele><time>2026-04-12T18:00:22Z</time></trkpt><trkpt lat="39.317831197344006" lon="16.365183007545593"><ele>1101.0</ele><time>2026-04-12T18:00:23Z</time></trkpt><trkpt lat="39.31790710829224" lon="16.365566178033973"><ele>1106.0</ele><time>2026-04-12T18:00:24Z</time></trkpt><trkpt lat="39.31798226211039" lon="16.365947715974908"><ele>1111.0</ele><time>2026-04-12T18:00:25Z</time></trkpt><trkpt lat="39.31805693189648" lon="16.366326796517967"><ele>1089.0</ele><time>2026-04-12T18:00:26Z</time></trkpt><trkpt lat="39.31814540777628" lon="16.366703335565063"><ele>1067.0</ele><time>2026-04-12T18:00:27Z</time></trkpt><trkpt lat="39.31821849549121" lon="16.367080675798686"><ele>1075.0</ele><time>2026-04-12T18:00:28Z</time></trkpt><trkpt lat="39.31827381944849" lon="16.367457734969236"><ele>1083.0</ele><time>2026-04-12T18:00:29Z</time></trkpt><trkpt lat="39.31834313968393" lon="16.367818910810985"><ele>1094.0</ele><time>2026-04-12T18:00:30Z</time></trkpt><trkpt lat="39.31842096861911" lon="16.368159019206868"><ele>1105.0</ele><time>2026-04-12T18:00:31Z</time></trkpt><trkpt lat="39.31853560748668" lon="16.36845260475481"><ele>1105.0</ele><time>2026-04-12T18:00:32Z</time></trkpt><trkpt lat="39.31864513302786" lon="16.368722356240546"><ele>1105.0</ele><time>2026-04-12T18:00:33Z</time></trkpt><trkpt lat="39.318777191648586" lon="16.368951594437977"><ele>1095.0</ele><time>2026-04-12T18:00:34Z</time></trkpt><trkpt lat="39.31892590250147" lon="16.369140936620937"><ele>1085.0</ele><time>2026-04-12T18:00:35Z</time></trkpt><trkpt lat="39.31909218331367" lon="16.36931370271523"><ele>1075.0</ele><time>2026-04-12T18:00:36Z</time></trkpt><trkpt lat="39.31926913092159" lon="16.369462481947416"><ele>1075.0</ele><time>2026-04-12T18:00:37Z</time></trkpt><trkpt lat="39.319462761997016" lon="16.369580061115542"><ele>1075.0</ele><time>2026-04-12T18:00:38Z</time></trkpt><trkpt lat="39.31966566140015" lon="16.36966982078395"><ele>1075.0</ele><time>2026-04-12T18:00:39Z</time></trkpt><trkpt lat="39.319873790257034" lon="16.36974612192456"><ele>1071.0</ele><time>2026-04-12T18:00:40Z</time></trkpt><trkpt lat="39.32007969523434" lon="16.369829663759205"><ele>1067.0</ele><time>2026-04-12T18:00:41Z</time></trkpt><trkpt lat="39.32028298555838" lon="16.369902923841046"><ele>1063.0</ele><time>2026-04-12T18:00:42Z</time></trkpt><trkpt lat="39.32054573760656" lon="16.369702709510857"><ele>1073.5</ele><time>2026-04-12T18:00:43Z</time></trkpt><trkpt lat="39.320759926422014" lon="16.369621516083996"><ele>1084.0</ele><time>2026-04-12T18:00:44Z</time></trkpt><trkpt lat="39.32097073820819" lon="16.369501659852226"><ele>1084.0</ele><time>2026-04-12T18:00:45Z</time></trkpt><trkpt lat="39.321167450379846" lon="16.369353144105162"><ele>1084.0</ele><time>2026-04-12T18:00:46Z</time></trkpt><trkpt lat="39.32134780032964" lon="16.36917365763497"><ele>1093.5</ele><time>2026-04-12T18:00:47Z</time></trkpt><trkpt lat="39.32151207975761" lon="16.368963216763294"><ele>1103.0</ele><time>2026-04-12T18:00:48Z</time></trkpt><trkpt lat="39.32165945569464" lon="16.36872160085464"><ele>1103.0</ele><time>2026-04-12T18:00:49Z</time></trkpt><trkpt lat="39.321782204441256" lon="16.36844336629272"><ele>1103.0</ele><time>2026-04-12T18:00:50Z</time></trkpt><trkpt lat="39.32188981942499" lon="16.36813951254023"><ele>1101.0</ele><time>2026-04-12T18:00:51Z</time></trkpt><trkpt lat="39.32198822467003" lon="16.367808305582827"><ele>1099.0</ele><time>2026-04-12T18:00:52Z</time></trkpt><trkpt lat="39.32206975159531" lon="16.36743680706771"><ele>1097.0</ele><time>2026-04-12T18:00:53Z</time></trkpt><trkpt lat="39.322157154219035" lon="16.367057877302543"><ele>1095.0</ele><time>2026-04-12T18:00:54Z</time></trkpt><trkpt lat="39.32225048569203" lon="16.366689689676402"><ele>1112.0</ele><time>2026-04-12T18:00:55Z</time></trkpt><trkpt lat="39.322342505088045" lon="16.366320701277278"><ele>1129.0</ele><time>2026-04-12T18:00:56Z</time></trkpt><trkpt lat="39.32243264723015" lon="16.365952768901046"><ele>1129.0</ele><time>2026-04-12T18:00:57Z</time></trkpt><trkpt lat="39.32252603561734" lon="16.36558626358382"><ele>1129.0</ele><time>2026-04-12T18:00:58Z</time></trkpt><trkpt lat="39.322614414014645" lon="16.365222756801465"><ele>1126.5</ele><time>2026-04-12T18:00:59Z</time></trkpt><trkpt lat="39.32270415611375" lon="16.36488569971116"><ele>1124.0</ele><time>2026-04-12T18:01:00Z</time></trkpt><trkpt lat="39.32280619020832" lon="16.364590245715686"><ele>1120.0</ele><time>2026-04-12T18:01:01Z</time></trkpt><trkpt lat="39.322927216712046" lon="16.36431119911379"><ele>1116.0</ele><time>2026-04-12T18:01:02Z</time></trkpt><trkpt lat="39.32303044855665" lon="16.364065528149954"><ele>1120.3333333333333</ele><time>2026-04-12T18:01:03Z</time></trkpt><trkpt lat="39.323178019196725" lon="16.363855246691468"><ele>1124.6666666666665</ele><time>2026-04-12T18:01:04Z</time></trkpt><trkpt lat="39.32334366846289" lon="16.363662644828807"><ele>1129.0</ele><time>2026-04-12T18:01:05Z</time></trkpt><trkpt lat="39.323533211959635" lon="16.363489874909657"><ele>1129.0</ele><time>2026-04-12T18:01:06Z</time></trkpt><trkpt lat="39.32374601093654" lon="16.36334235403702"><ele>1129.0</ele><time>2026-04-12T18:01:07Z</time></trkpt><trkpt lat="39.323988869415054" lon="16.36322677355177"><ele>1129.0</ele><time>2026-04-12T18:01:08Z</time></trkpt><trkpt lat="39.324245115308464" lon="16.363116899506714"><ele>1129.0</ele><time>2026-04-12T18:01:09Z</time></trkpt><trkpt lat="39.32451231881558" lon="16.363012757849635"><ele>1109.5</ele><time>2026-04-12T18:01:10Z</time></trkpt><trkpt lat="39.32478498908184" lon="16.362904268466046"><ele>1090.0</ele><time>2026-04-12T18:01:11Z</time></trkpt><trkpt lat="39.32506219088956" lon="16.36279240837152"><ele>1090.0</ele><time>2026-04-12T18:01:12Z</time></trkpt><trkpt lat="39.325346685644824" lon="16.362676113887627"><ele>1090.0</ele><time>2026-04-12T18:01:13Z</time></trkpt><trkpt lat="39.325637968305635" lon="16.362555757549682"><ele>1098.0</ele><time>2026-04-12T18:01:14Z</time></trkpt><trkpt lat="39.325930669869834" lon="16.362437684923513"><ele>1106.0</ele><time>2026-04-12T18:01:15Z</time></trkpt><trkpt lat="39.32623034937557" lon="16.362314789232492"><ele>1121.0</ele><time>2026-04-12T18:01:16Z</time></trkpt><trkpt lat="39.326530560828076" lon="16.36218758282482"><ele>1136.0</ele><time>2026-04-12T18:01:17Z</time></trkpt><trkpt lat="39.3268285246362" lon="16.362062341284364"><ele>1136.0</ele><time>2026-04-12T18:01:18Z</time></trkpt><trkpt lat="39.32712016573599" lon="16.361944705014313"><ele>1136.0</ele><time>2026-04-12T18:01:19Z</time></trkpt><trkpt lat="39.32740288736955" lon="16.36182719442473"><ele>1146.0</ele><time>2026-04-12T18:01:20Z</time></trkpt><trkpt lat="39.32768529319906" lon="16.361721790128833"><ele>1156.0</ele><time>2026-04-12T18:01:21Z</time></trkpt><trkpt lat="39.327964944800456" lon="16.36164715782258"><ele>1161.0</ele><time>2026-04-12T18:01:22Z</time></trkpt><trkpt lat="39.328242297509334" lon="16.361609357792823"><ele>1166.0</ele><time>2026-04-12T18:01:23Z</time></trkpt><trkpt lat="39.32851439796612" lon="16.36159764267562"><ele>1166.0</ele><time>2026-04-12T18:01:24Z</time></trkpt><trkpt lat="39.3287881081491" lon="16.36158412785367"><ele>1166.0</ele><time>2026-04-12T18:01:25Z</time></trkpt><trkpt lat="39.32906123866086" lon="16.361562631219567"><ele>1169.5</ele><time>2026-04-12T18:01:26Z</time></trkpt><trkpt lat="39.32933705738089" lon="16.361542912867126"><ele>1173.0</ele><time>2026-04-12T18:01:27Z</time></trkpt><trkpt lat="39.32961230570356" lon="16.361539104339457"><ele>1178.0</ele><time>2026-04-12T18:01:28Z</time></trkpt><trkpt lat="39.32988408921268" lon="16.361567421677506"><ele>1183.0</ele><time>2026-04-12T18:01:29Z</time></trkpt><trkpt lat="39.33015356368595" lon="16.361625580085484"><ele>1183.0</ele><time>2026-04-12T18:01:30Z</time></trkpt><trkpt lat="39.33042161188675" lon="16.361691322399878"><ele>1183.0</ele><time>2026-04-12T18:01:30.999Z</time></trkpt><trkpt lat="39.33069757601568" lon="16.36176568123702"><ele>1178.5</ele><time>2026-04-12T18:01:31.999Z</time></trkpt><trkpt lat="39.3309785023706" lon="16.3618348630772"><ele>1174.0</ele><time>2026-04-12T18:01:32.999Z</time></trkpt><trkpt lat="39.33121663450713" lon="16.361859585956196"><ele>1170.0</ele><time>2026-04-12T18:01:33.999Z</time></trkpt><trkpt lat="39.33144956422108" lon="16.361871245429658"><ele>1166.0</ele><time>2026-04-12T18:01:34.999Z</time></trkpt><trkpt lat="39.33168088925372" lon="16.36184741308494"><ele>1166.0</ele><time>2026-04-12T18:01:35.999Z</time></trkpt><trkpt lat="39.33190448743276" lon="16.361774687371955"><ele>1166.0</ele><time>2026-04-12T18:01:36.999Z</time></trkpt><trkpt lat="39.33211327207527" lon="16.361668463041415"><ele>1174.0</ele><time>2026-04-12T18:01:37.999Z</time></trkpt><trkpt lat="39.332319178411595" lon="16.36152476586928"><ele>1182.0</ele><time>2026-04-12T18:01:38.999Z</time></trkpt><trkpt lat="39.332512765598835" lon="16.361346069329368"><ele>1182.0</ele><time>2026-04-12T18:01:39.999Z</time></trkpt><trkpt lat="39.33267739316407" lon="16.361110942355513"><ele>1182.0</ele><time>2026-04-12T18:01:40.999Z</time></trkpt><trkpt lat="39.332841491036824" lon="16.36086547398013"><ele>1182.0</ele><time>2026-04-12T18:01:41.999Z</time></trkpt><trkpt lat="39.3330345973546" lon="16.360598646860456"><ele>1182.0</ele><time>2026-04-12T18:01:42.999Z</time></trkpt><trkpt lat="39.333225103916995" lon="16.360359801050198"><ele>1190.0</ele><time>2026-04-12T18:01:43.999Z</time></trkpt><trkpt lat="39.333389462708595" lon="16.36009767666962"><ele>1198.0</ele><time>2026-04-12T18:01:44.999Z</time></trkpt><trkpt lat="39.33357495462143" lon="16.359871112460624"><ele>1197.0</ele><time>2026-04-12T18:01:45.999Z</time></trkpt><trkpt lat="39.333771247480556" lon="16.359684568164486"><ele>1196.0</ele><time>2026-04-12T18:01:46.999Z</time></trkpt><trkpt lat="39.33397715255847" lon="16.35954756439663"><ele>1196.0</ele><time>2026-04-12T18:01:47.999Z</time></trkpt><trkpt lat="39.33420594326634" lon="16.35948381380421"><ele>1196.0</ele><time>2026-04-12T18:01:48.999Z</time></trkpt><trkpt lat="39.33444154184798" lon="16.359415618773827"><ele>1196.0</ele><time>2026-04-12T18:01:49.999Z</time></trkpt><trkpt lat="39.334690510248066" lon="16.359380046190555"><ele>1196.0</ele><time>2026-04-12T18:01:50.999Z</time></trkpt><trkpt lat="39.3349539105526" lon="16.359352273474446"><ele>1201.0</ele><time>2026-04-12T18:01:51.999Z</time></trkpt><trkpt lat="39.33521734027012" lon="16.359334461322543"><ele>1206.0</ele><time>2026-04-12T18:01:52.999Z</time></trkpt><trkpt lat="39.33548929572598" lon="16.359330577661563"><ele>1212.0</ele><time>2026-04-12T18:01:54.001Z</time></trkpt><trkpt lat="39.335764624690924" lon="16.359324676128264"><ele>1218.0</ele><time>2026-04-12T18:01:55.001Z</time></trkpt><trkpt lat="39.336039707238065" lon="16.359372951150284"><ele>1218.0</ele><time>2026-04-12T18:01:56.001Z</time></trkpt><trkpt lat="39.33631411375084" lon="16.359450644435174"><ele>1218.0</ele><time>2026-04-12T18:01:57.001Z</time></trkpt><trkpt lat="39.33658355019703" lon="16.359559957250124"><ele>1227.0</ele><time>2026-04-12T18:01:58.001Z</time></trkpt><trkpt lat="39.33684473543846" lon="16.35971821366882"><ele>1236.0</ele><time>2026-04-12T18:01:59.001Z</time></trkpt><trkpt lat="39.33711309922794" lon="16.359885991054746"><ele>1221.5</ele><time>2026-04-12T18:02:00.001Z</time></trkpt><trkpt lat="39.33738661212173" lon="16.360071287216297"><ele>1207.0</ele><time>2026-04-12T18:02:01.001Z</time></trkpt><trkpt lat="39.337667907471435" lon="16.36023659640111"><ele>1207.0</ele><time>2026-04-12T18:02:02.001Z</time></trkpt><trkpt lat="39.33793448306894" lon="16.360422398266984"><ele>1207.0</ele><time>2026-04-12T18:02:03.001Z</time></trkpt><trkpt lat="39.33819557670484" lon="16.360593917206486"><ele>1218.0</ele><time>2026-04-12T18:02:04.001Z</time></trkpt><trkpt lat="39.33843693272695" lon="16.360753818650082"><ele>1229.0</ele><time>2026-04-12T18:02:05.001Z</time></trkpt><trkpt lat="39.3386600644361" lon="16.360913991725834"><ele>1229.0</ele><time>2026-04-12T18:02:06.001Z</time></trkpt><trkpt lat="39.33885444965671" lon="16.361092492988767"><ele>1229.0</ele><time>2026-04-12T18:02:07.001Z</time></trkpt><trkpt lat="39.33903667386175" lon="16.361275009971653"><ele>1243.0</ele><time>2026-04-12T18:02:08.001Z</time></trkpt><trkpt lat="39.339226009442996" lon="16.361468248535797"><ele>1257.0</ele><time>2026-04-12T18:02:09.001Z</time></trkpt><trkpt lat="39.33938832826783" lon="16.361708572543876"><ele>1257.0</ele><time>2026-04-12T18:02:10.001Z</time></trkpt><trkpt lat="39.339570072238374" lon="16.361941600546604"><ele>1257.0</ele><time>2026-04-12T18:02:11.001Z</time></trkpt><trkpt lat="39.33975466416586" lon="16.362178280142263"><ele>1278.5</ele><time>2026-04-12T18:02:12.001Z</time></trkpt><trkpt lat="39.33994141540866" lon="16.362417301611483"><ele>1300.0</ele><time>2026-04-12T18:02:13.022Z</time></trkpt><trkpt lat="39.34012492996678" lon="16.36265174162549"><ele>1300.0</ele><time>2026-04-12T18:02:14.02Z</time></trkpt><trkpt lat="39.34031442329204" lon="16.36289381948879"><ele>1300.0</ele><time>2026-04-12T18:02:15.02Z</time></trkpt><trkpt lat="39.340501798607086" lon="16.363133974353104"><ele>1313.0</ele><time>2026-04-12T18:02:16.024Z</time></trkpt><trkpt lat="39.34194655869696" lon="16.364963459361704"><ele>1263.0</ele><time>2026-04-12T18:02:20.002Z</time></trkpt><trkpt lat="39.34239158560839" lon="16.365537110053804"><ele>1263.0</ele><time>2026-04-12T18:02:21Z</time></trkpt><trkpt lat="39.34266215659617" lon="16.36603407563303"><ele>1263.0</ele><time>2026-04-12T18:02:29Z</time></trkpt><trkpt lat="39.34282373012947" lon="16.366252633070797"><ele>1263.0</ele><time>2026-04-12T18:02:30Z</time></trkpt><trkpt lat="39.34291771333051" lon="16.366528425988584"><ele>1263.3333333333333</ele><time>2026-04-12T18:02:31Z</time></trkpt><trkpt lat="39.342957921267455" lon="16.3668112900862"><ele>1263.6666666666665</ele><time>2026-04-12T18:02:32Z</time></trkpt><trkpt lat="39.343001280704684" lon="16.36709122913305"><ele>1264.0</ele><time>2026-04-12T18:02:33Z</time></trkpt><trkpt lat="39.34303367422595" lon="16.367391095716606"><ele>1251.0</ele><time>2026-04-12T18:02:34Z</time></trkpt><trkpt lat="39.34306307813007" lon="16.36769682438502"><ele>1238.0</ele><time>2026-04-12T18:02:35Z</time></trkpt><trkpt lat="39.343093982074265" lon="16.36801636703561"><ele>1247.0</ele><time>2026-04-12T18:02:36Z</time></trkpt><trkpt lat="39.343125684054144" lon="16.368334482677522"><ele>1256.0</ele><time>2026-04-12T18:02:37Z</time></trkpt><trkpt lat="39.343154161893224" lon="16.368644787273578"><ele>1257.5</ele><time>2026-04-12T18:02:38Z</time></trkpt><trkpt lat="39.34317585864533" lon="16.368936585583917"><ele>1259.0</ele><time>2026-04-12T18:02:39Z</time></trkpt><trkpt lat="39.34317853992009" lon="16.369227556338096"><ele>1259.0</ele><time>2026-04-12T18:02:40Z</time></trkpt><trkpt lat="39.343156013099176" lon="16.369517140947284"><ele>1259.0</ele><time>2026-04-12T18:02:41Z</time></trkpt><trkpt lat="39.34310595372803" lon="16.369787494586518"><ele>1259.0</ele><time>2026-04-12T18:02:42Z</time></trkpt><trkpt lat="39.343041328331864" lon="16.370062263536234"><ele>1265.3333333333335</ele><time>2026-04-12T18:02:43Z</time></trkpt><trkpt lat="39.34293456616518" lon="16.37030372836461"><ele>1271.6666666666667</ele><time>2026-04-12T18:02:44Z</time></trkpt><trkpt lat="39.342814045244744" lon="16.370529701921306"><ele>1278.0</ele><time>2026-04-12T18:02:45Z</time></trkpt><trkpt lat="39.34264962376023" lon="16.370763753814394"><ele>1278.0</ele><time>2026-04-12T18:02:46Z</time></trkpt><trkpt lat="39.34248378084244" lon="16.370969271115747"><ele>1278.0</ele><time>2026-04-12T18:02:47Z</time></trkpt><trkpt lat="39.34231046915463" lon="16.371166435029206"><ele>1279.5</ele><time>2026-04-12T18:02:48Z</time></trkpt><trkpt lat="39.3421130574483" lon="16.37141165578506"><ele>1281.0</ele><time>2026-04-12T18:02:49Z</time></trkpt><trkpt lat="39.34189960267796" lon="16.371648357460536"><ele>1281.0</ele><time>2026-04-12T18:02:50Z</time></trkpt><trkpt lat="39.3416722828207" lon="16.371889480608456"><ele>1281.0</ele><time>2026-04-12T18:02:51Z</time></trkpt><trkpt lat="39.34144044585648" lon="16.372156166832845"><ele>1282.0</ele><time>2026-04-12T18:02:52Z</time></trkpt><trkpt lat="39.34122970891353" lon="16.372424012247045"><ele>1283.0</ele><time>2026-04-12T18:02:53Z</time></trkpt><trkpt lat="39.34104242696929" lon="16.37272377383117"><ele>1281.5</ele><time>2026-04-12T18:02:54Z</time></trkpt><trkpt lat="39.34087137360321" lon="16.37304173392548"><ele>1280.0</ele><time>2026-04-12T18:02:55Z</time></trkpt><trkpt lat="39.34071799259043" lon="16.373375478438216"><ele>1280.0</ele><time>2026-04-12T18:02:56Z</time></trkpt><trkpt lat="39.34059213428596" lon="16.37372762000869"><ele>1280.0</ele><time>2026-04-12T18:02:57Z</time></trkpt><trkpt lat="39.34048837619727" lon="16.374093039359437"><ele>1295.5</ele><time>2026-04-12T18:02:58Z</time></trkpt><trkpt lat="39.340399414732865" lon="16.374461496612994"><ele>1311.0</ele><time>2026-04-12T18:02:59Z</time></trkpt><trkpt lat="39.34031453999021" lon="16.374835149027987"><ele>1311.0</ele><time>2026-04-12T18:03:00Z</time></trkpt><trkpt lat="39.34022782647828" lon="16.375207493345915"><ele>1311.0</ele><time>2026-04-12T18:03:01Z</time></trkpt><trkpt lat="39.340126053572746" lon="16.375556711292244"><ele>1305.5</ele><time>2026-04-12T18:03:02Z</time></trkpt><trkpt lat="39.340025329673495" lon="16.37592911119795"><ele>1300.0</ele><time>2026-04-12T18:03:03Z</time></trkpt><trkpt lat="39.33990330411741" lon="16.376266140372206"><ele>1295.5</ele><time>2026-04-12T18:03:04Z</time></trkpt><trkpt lat="39.33975842418546" lon="16.376577959429536"><ele>1291.0</ele><time>2026-04-12T18:03:05Z</time></trkpt><trkpt lat="39.33958994417051" lon="16.376864496673587"><ele>1297.0</ele><time>2026-04-12T18:03:06Z</time></trkpt><trkpt lat="39.339397686385446" lon="16.37713166707401"><ele>1303.0</ele><time>2026-04-12T18:03:07Z</time></trkpt><trkpt lat="39.33920488938091" lon="16.377400583871513"><ele>1303.0</ele><time>2026-04-12T18:03:08Z</time></trkpt><trkpt lat="39.3389811150068" lon="16.377646819720017"><ele>1303.0</ele><time>2026-04-12T18:03:09Z</time></trkpt><trkpt lat="39.338791527211754" lon="16.377922367724768"><ele>1308.5</ele><time>2026-04-12T18:03:10Z</time></trkpt><trkpt lat="39.33859233510852" lon="16.378189356499284"><ele>1314.0</ele><time>2026-04-12T18:03:11Z</time></trkpt><trkpt lat="39.33838771804645" lon="16.378459504726912"><ele>1314.0</ele><time>2026-04-12T18:03:12Z</time></trkpt><trkpt lat="39.338181687468705" lon="16.37873509972463"><ele>1314.0</ele><time>2026-04-12T18:03:13Z</time></trkpt><trkpt lat="39.3379763985846" lon="16.379008663582987"><ele>1306.5</ele><time>2026-04-12T18:03:14Z</time></trkpt><trkpt lat="39.337775654579076" lon="16.3792735020816"><ele>1299.0</ele><time>2026-04-12T18:03:15Z</time></trkpt><trkpt lat="39.33758521267589" lon="16.379523538449597"><ele>1288.0</ele><time>2026-04-12T18:03:16Z</time></trkpt><trkpt lat="39.3374188748205" lon="16.37977402237655"><ele>1277.0</ele><time>2026-04-12T18:03:17Z</time></trkpt><trkpt lat="39.33724436275785" lon="16.379984950758065"><ele>1277.0</ele><time>2026-04-12T18:03:18Z</time></trkpt><trkpt lat="39.33716848049001" lon="16.380286031593958"><ele>1277.0</ele><time>2026-04-12T18:03:19Z</time></trkpt><trkpt lat="39.33708916216826" lon="16.38056859336709"><ele>1281.5</ele><time>2026-04-12T18:03:20Z</time></trkpt><trkpt lat="39.33703818370072" lon="16.380868892916673"><ele>1286.0</ele><time>2026-04-12T18:03:21Z</time></trkpt><trkpt lat="39.33701455228925" lon="16.38117097554785"><ele>1292.0</ele><time>2026-04-12T18:03:22Z</time></trkpt><trkpt lat="39.33702777551064" lon="16.381476254268478"><ele>1298.0</ele><time>2026-04-12T18:03:23Z</time></trkpt><trkpt lat="39.33707058878484" lon="16.381782906571406"><ele>1298.0</ele><time>2026-04-12T18:03:24Z</time></trkpt><trkpt lat="39.337141106688435" lon="16.382078006653977"><ele>1298.0</ele><time>2026-04-12T18:03:25Z</time></trkpt><trkpt lat="39.33724280019066" lon="16.382359408240042"><ele>1284.0</ele><time>2026-04-12T18:03:26Z</time></trkpt><trkpt lat="39.33737709387443" lon="16.382624477361702"><ele>1270.0</ele><time>2026-04-12T18:03:27Z</time></trkpt><trkpt lat="39.33754051682694" lon="16.382879606095987"><ele>1276.0</ele><time>2026-04-12T18:03:28Z</time></trkpt><trkpt lat="39.33772312296922" lon="16.383123635737384"><ele>1282.0</ele><time>2026-04-12T18:03:29Z</time></trkpt><trkpt lat="39.33791593085513" lon="16.383375010267162"><ele>1293.5</ele><time>2026-04-12T18:03:30Z</time></trkpt><trkpt lat="39.33811371102615" lon="16.383637278503798"><ele>1305.0</ele><time>2026-04-12T18:03:31Z</time></trkpt><trkpt lat="39.33831203598438" lon="16.383905221274155"><ele>1320.0</ele><time>2026-04-12T18:03:32Z</time></trkpt><trkpt lat="39.338497803992794" lon="16.384179331627568"><ele>1335.0</ele><time>2026-04-12T18:03:33Z</time></trkpt><trkpt lat="39.33868111646861" lon="16.38445433787043"><ele>1336.0</ele><time>2026-04-12T18:03:34Z</time></trkpt><trkpt lat="39.33886292636436" lon="16.38473478649271"><ele>1337.0</ele><time>2026-04-12T18:03:35.021Z</time></trkpt><trkpt lat="39.339043081185224" lon="16.38500785837213"><ele>1337.0</ele><time>2026-04-12T18:03:36.02Z</time></trkpt><trkpt lat="39.339221923219895" lon="16.385282593965695"><ele>1337.0</ele><time>2026-04-12T18:03:37.023Z</time></trkpt><trkpt lat="39.339399013844" lon="16.385556537492175"><ele>1342.0</ele><time>2026-04-12T18:03:38.021Z</time></trkpt><trkpt lat="39.33955301317988" lon="16.385723559816668"><ele>1347.0</ele><time>2026-04-12T18:03:38.999Z</time></trkpt><trkpt lat="39.33977693390709" lon="16.385884803258172"><ele>1329.0</ele><time>2026-04-12T18:03:39.999Z</time></trkpt><trkpt lat="39.340004887699685" lon="16.38606517695444"><ele>1311.0</ele><time>2026-04-12T18:03:40.999Z</time></trkpt><trkpt lat="39.34022572213389" lon="16.38617893836992"><ele>1311.0</ele><time>2026-04-12T18:03:41.999Z</time></trkpt><trkpt lat="39.340459884006606" lon="16.386259539183524"><ele>1311.0</ele><time>2026-04-12T18:03:42.999Z</time></trkpt><trkpt lat="39.34071103533282" lon="16.3862935969882"><ele>1315.5</ele><time>2026-04-12T18:03:43.999Z</time></trkpt><trkpt lat="39.340959965556884" lon="16.386292627151704"><ele>1320.0</ele><time>2026-04-12T18:03:44.999Z</time></trkpt><trkpt lat="39.341218652188175" lon="16.386241315641534"><ele>1329.0</ele><time>2026-04-12T18:03:45.999Z</time></trkpt><trkpt lat="39.341459954970105" lon="16.386137214903336"><ele>1338.0</ele><time>2026-04-12T18:03:46.999Z</time></trkpt><trkpt lat="39.34169429400757" lon="16.386021588627347"><ele>1338.0</ele><time>2026-04-12T18:03:47.999Z</time></trkpt><trkpt lat="39.34191379209494" lon="16.385819515913084"><ele>1338.0</ele><time>2026-04-12T18:03:48.999Z</time></trkpt><trkpt lat="39.34212987294953" lon="16.38558270027401"><ele>1339.5</ele><time>2026-04-12T18:03:49.999Z</time></trkpt><trkpt lat="39.34234190289607" lon="16.38534468572246"><ele>1341.0</ele><time>2026-04-12T18:03:50.999Z</time></trkpt><trkpt lat="39.342554895146094" lon="16.385107634352455"><ele>1341.0</ele><time>2026-04-12T18:03:51.999Z</time></trkpt><trkpt lat="39.34277240902932" lon="16.38486481309181"><ele>1341.0</ele><time>2026-04-12T18:03:52.999Z</time></trkpt><trkpt lat="39.34300228324253" lon="16.384621474556795"><ele>1344.0</ele><time>2026-04-12T18:03:53.999Z</time></trkpt><trkpt lat="39.34322373228952" lon="16.384370142034854"><ele>1347.0</ele><time>2026-04-12T18:03:54.999Z</time></trkpt><trkpt lat="39.3434516389478" lon="16.384128137239383"><ele>1347.0</ele><time>2026-04-12T18:03:55.999Z</time></trkpt><trkpt lat="39.34368115952789" lon="16.383882938170515"><ele>1347.0</ele><time>2026-04-12T18:03:56.999Z</time></trkpt><trkpt lat="39.34390713367261" lon="16.383643082263877"><ele>1347.5</ele><time>2026-04-12T18:03:57.999Z</time></trkpt><trkpt lat="39.344130028369136" lon="16.3834120080028"><ele>1348.0</ele><time>2026-04-12T18:03:58.999Z</time></trkpt><trkpt lat="39.34434596022779" lon="16.38319682359854"><ele>1341.0</ele><time>2026-04-12T18:04:00.001Z</time></trkpt><trkpt lat="39.3445578750593" lon="16.383010897448802"><ele>1334.0</ele><time>2026-04-12T18:04:01.001Z</time></trkpt><trkpt lat="39.34476721955798" lon="16.382888431931708"><ele>1343.3333333333335</ele><time>2026-04-12T18:04:02.001Z</time></trkpt><trkpt lat="39.34497422378261" lon="16.38280027950269"><ele>1352.6666666666667</ele><time>2026-04-12T18:04:03.001Z</time></trkpt><trkpt lat="39.345180007691646" lon="16.382736456618396"><ele>1362.0</ele><time>2026-04-12T18:04:04.001Z</time></trkpt><trkpt lat="39.345386143819205" lon="16.382674960531652"><ele>1361.6666666666667</ele><time>2026-04-12T18:04:05.022Z</time></trkpt><trkpt lat="39.34558628832238" lon="16.382606497409892"><ele>1361.3333333333335</ele><time>2026-04-12T18:04:06.019Z</time></trkpt><trkpt lat="39.34579188938032" lon="16.382544241671393"><ele>1361.0</ele><time>2026-04-12T18:04:07.023Z</time></trkpt><trkpt lat="39.345995616767915" lon="16.38248905099049"><ele>1382.0</ele><time>2026-04-12T18:04:08.001Z</time></trkpt><trkpt lat="39.34622598855218" lon="16.383166605432862"><ele>1372.3333333333335</ele><time>2026-04-12T18:04:09.001Z</time></trkpt><trkpt lat="39.34640029852272" lon="16.383340873439884"><ele>1362.6666666666667</ele><time>2026-04-12T18:04:10.001Z</time></trkpt><trkpt lat="39.34652766311111" lon="16.383543822687287"><ele>1353.0</ele><time>2026-04-12T18:04:11.001Z</time></trkpt><trkpt lat="39.34665602095968" lon="16.38378610709553"><ele>1363.5</ele><time>2026-04-12T18:04:12.001Z</time></trkpt><trkpt lat="39.346792049871794" lon="16.384046235465757"><ele>1374.0</ele><time>2026-04-12T18:04:13.001Z</time></trkpt><trkpt lat="39.34686628303145" lon="16.384313293291967"><ele>1374.0</ele><time>2026-04-12T18:04:14.001Z</time></trkpt><trkpt lat="39.34690379949696" lon="16.384594062130148"><ele>1374.0</ele><time>2026-04-12T18:04:15.001Z</time></trkpt><trkpt lat="39.34692508881622" lon="16.384907720233773"><ele>1383.0</ele><time>2026-04-12T18:04:16.001Z</time></trkpt><trkpt lat="39.34693973368837" lon="16.385239668336407"><ele>1392.0</ele><time>2026-04-12T18:04:17.001Z</time></trkpt><trkpt lat="39.34695947195586" lon="16.385589206219315"><ele>1397.0</ele><time>2026-04-12T18:04:18.001Z</time></trkpt><trkpt lat="39.346986832382846" lon="16.385951785725087"><ele>1402.0</ele><time>2026-04-12T18:04:19.001Z</time></trkpt><trkpt lat="39.34700894002896" lon="16.386334938190878"><ele>1407.5</ele><time>2026-04-12T18:04:20.001Z</time></trkpt><trkpt lat="39.347029548462736" lon="16.386720626946"><ele>1413.0</ele><time>2026-04-12T18:04:21Z</time></trkpt><trkpt lat="39.34705460168713" lon="16.387114033899834"><ele>1418.0</ele><time>2026-04-12T18:04:22Z</time></trkpt><trkpt lat="39.347077658990756" lon="16.387508930379475"><ele>1423.0</ele><time>2026-04-12T18:04:23Z</time></trkpt><trkpt lat="39.347101251108995" lon="16.387904749679674"><ele>1425.0</ele><time>2026-04-12T18:04:24Z</time></trkpt><trkpt lat="39.347124059821134" lon="16.38829793928813"><ele>1427.0</ele><time>2026-04-12T18:04:25Z</time></trkpt><trkpt lat="39.34715129046714" lon="16.388685895757213"><ele>1423.5</ele><time>2026-04-12T18:04:26Z</time></trkpt><trkpt lat="39.34717567772551" lon="16.389058730436922"><ele>1420.0</ele><time>2026-04-12T18:04:27Z</time></trkpt><trkpt lat="39.34720316285969" lon="16.389415086590326"><ele>1407.0</ele><time>2026-04-12T18:04:28Z</time></trkpt><trkpt lat="39.34724618148915" lon="16.389750745938127"><ele>1394.0</ele><time>2026-04-12T18:04:29Z</time></trkpt><trkpt lat="39.34730906264146" lon="16.390059440059556"><ele>1394.0</ele><time>2026-04-12T18:04:30Z</time></trkpt><trkpt lat="39.347400072285616" lon="16.390338521726896"><ele>1394.0</ele><time>2026-04-12T18:04:31Z</time></trkpt><trkpt lat="39.34751760146437" lon="16.39060018381302"><ele>1395.0</ele><time>2026-04-12T18:04:32Z</time></trkpt><trkpt lat="39.3476717303934" lon="16.39083609678543"><ele>1396.0</ele><time>2026-04-12T18:04:33Z</time></trkpt><trkpt lat="39.347851945858764" lon="16.391048797872678"><ele>1391.5</ele><time>2026-04-12T18:04:34Z</time></trkpt><trkpt lat="39.348053459728206" lon="16.391236094786297"><ele>1387.0</ele><time>2026-04-12T18:04:35Z</time></trkpt><trkpt lat="39.34827471663195" lon="16.391393656313078"><ele>1387.0</ele><time>2026-04-12T18:04:36Z</time></trkpt><trkpt lat="39.34851714928097" lon="16.391513508750236"><ele>1387.0</ele><time>2026-04-12T18:04:37Z</time></trkpt><trkpt lat="39.34877184519671" lon="16.39161367281834"><ele>1398.0</ele><time>2026-04-12T18:04:38Z</time></trkpt><trkpt lat="39.34903500201116" lon="16.391716162673664"><ele>1409.0</ele><time>2026-04-12T18:04:39Z</time></trkpt><trkpt lat="39.34929957282071" lon="16.391821206675257"><ele>1409.0</ele><time>2026-04-12T18:04:40Z</time></trkpt><trkpt lat="39.34956990037826" lon="16.391929821714495"><ele>1409.0</ele><time>2026-04-12T18:04:41Z</time></trkpt><trkpt lat="39.34984281730981" lon="16.392034567000294"><ele>1418.0</ele><time>2026-04-12T18:04:42Z</time></trkpt><trkpt lat="39.35011511803446" lon="16.392142836755585"><ele>1427.0</ele><time>2026-04-12T18:04:43Z</time></trkpt><trkpt lat="39.35037492930514" lon="16.392280620505147"><ele>1431.5</ele><time>2026-04-12T18:04:44Z</time></trkpt><trkpt lat="39.35062927594091" lon="16.392438068341082"><ele>1436.0</ele><time>2026-04-12T18:04:45Z</time></trkpt><trkpt lat="39.350867387464426" lon="16.39264482445376"><ele>1436.0</ele><time>2026-04-12T18:04:46.023Z</time></trkpt><trkpt lat="39.351094831399095" lon="16.39285400255023"><ele>1436.0</ele><time>2026-04-12T18:04:47.021Z</time></trkpt><trkpt lat="39.35132458112872" lon="16.39306903493331"><ele>1434.0</ele><time>2026-04-12T18:04:48.026Z</time></trkpt><trkpt lat="39.35154968385262" lon="16.393272018714917"><ele>1432.0</ele><time>2026-04-12T18:04:49Z</time></trkpt><trkpt lat="39.35181252588481" lon="16.393537274730036"><ele>1432.0</ele><time>2026-04-12T18:04:50Z</time></trkpt><trkpt lat="39.35201122681882" lon="16.39382415933497"><ele>1432.0</ele><time>2026-04-12T18:04:51Z</time></trkpt><trkpt lat="39.35219317879724" lon="16.394146588434054"><ele>1430.5</ele><time>2026-04-12T18:04:52Z</time></trkpt><trkpt lat="39.35235473839978" lon="16.394439958690334"><ele>1429.0</ele><time>2026-04-12T18:04:53Z</time></trkpt><trkpt lat="39.352515540079416" lon="16.39474396135444"><ele>1433.5</ele><time>2026-04-12T18:04:54Z</time></trkpt><trkpt lat="39.352677809206014" lon="16.3950332658412"><ele>1438.0</ele><time>2026-04-12T18:04:55Z</time></trkpt><trkpt lat="39.35283230646322" lon="16.395298538797547"><ele>1430.5</ele><time>2026-04-12T18:04:56Z</time></trkpt><trkpt lat="39.35298472332151" lon="16.39557456324345"><ele>1423.0</ele><time>2026-04-12T18:04:57Z</time></trkpt><trkpt lat="39.353137927995974" lon="16.39585610147155"><ele>1423.0</ele><time>2026-04-12T18:04:58Z</time></trkpt><trkpt lat="39.3532825162101" lon="16.39613419565997"><ele>1423.0</ele><time>2026-04-12T18:04:59Z</time></trkpt><trkpt lat="39.35342030036137" lon="16.396406976114655"><ele>1432.0</ele><time>2026-04-12T18:05:00Z</time></trkpt><trkpt lat="39.35351460934269" lon="16.396698884692814"><ele>1441.0</ele><time>2026-04-12T18:05:01Z</time></trkpt><trkpt lat="39.35358423337027" lon="16.3969942530203"><ele>1446.5</ele><time>2026-04-12T18:05:02Z</time></trkpt><trkpt lat="39.35362419689436" lon="16.39730245065651"><ele>1452.0</ele><time>2026-04-12T18:05:03Z</time></trkpt><trkpt lat="39.35363424041161" lon="16.397615092890845"><ele>1452.0</ele><time>2026-04-12T18:05:04Z</time></trkpt><trkpt lat="39.353606238189215" lon="16.39792453884917"><ele>1452.0</ele><time>2026-04-12T18:05:05Z</time></trkpt><trkpt lat="39.35354970341102" lon="16.39822787697794"><ele>1447.0</ele><time>2026-04-12T18:05:06Z</time></trkpt><trkpt lat="39.353456545538805" lon="16.39852360073041"><ele>1442.0</ele><time>2026-04-12T18:05:07Z</time></trkpt><trkpt lat="39.35333406883683" lon="16.398796445564646"><ele>1443.0</ele><time>2026-04-12T18:05:08Z</time></trkpt><trkpt lat="39.353179704470186" lon="16.3990498474678"><ele>1444.0</ele><time>2026-04-12T18:05:09Z</time></trkpt><trkpt lat="39.35300344516956" lon="16.399272514928043"><ele>1444.0</ele><time>2026-04-12T18:05:10Z</time></trkpt><trkpt lat="39.352800730658196" lon="16.399473261098212"><ele>1444.0</ele><time>2026-04-12T18:05:11Z</time></trkpt><trkpt lat="39.35257234863693" lon="16.399661107708507"><ele>1446.0</ele><time>2026-04-12T18:05:12Z</time></trkpt><trkpt lat="39.352326557134454" lon="16.399857244363886"><ele>1448.0</ele><time>2026-04-12T18:05:13Z</time></trkpt><trkpt lat="39.35207666568037" lon="16.40007381930499"><ele>1448.0</ele><time>2026-04-12T18:05:14Z</time></trkpt><trkpt lat="39.35180800747822" lon="16.400294311262954"><ele>1448.0</ele><time>2026-04-12T18:05:15Z</time></trkpt><trkpt lat="39.351533700663154" lon="16.40052266916799"><ele>1455.5</ele><time>2026-04-12T18:05:16Z</time></trkpt><trkpt lat="39.351249327463485" lon="16.400744018833784"><ele>1463.0</ele><time>2026-04-12T18:05:16.999Z</time></trkpt><trkpt lat="39.350950229297425" lon="16.40097080045112"><ele>1463.0</ele><time>2026-04-12T18:05:17.999Z</time></trkpt><trkpt lat="39.3506556577103" lon="16.401200531179207"><ele>1463.0</ele><time>2026-04-12T18:05:18.999Z</time></trkpt><trkpt lat="39.35036115589202" lon="16.40143015506448"><ele>1480.0</ele><time>2026-04-12T18:05:19.999Z</time></trkpt><trkpt lat="39.350060504231024" lon="16.401664043086917"><ele>1497.0</ele><time>2026-04-12T18:05:21.02Z</time></trkpt><trkpt lat="39.34976778897775" lon="16.40189214751004"><ele>1500.5</ele><time>2026-04-12T18:05:22.022Z</time></trkpt><trkpt lat="39.34947924289245" lon="16.40212155372963"><ele>1504.0</ele><time>2026-04-12T18:05:23.022Z</time></trkpt><trkpt lat="39.34918749283998" lon="16.40235294117251"><ele>1429.0</ele><time>2026-04-12T18:05:24.022Z</time></trkpt><trkpt lat="39.34473361823647" lon="16.40594081954696"><ele>1435.5</ele><time>2026-04-12T18:05:41.999Z</time></trkpt><trkpt lat="39.34449685725559" lon="16.40613129793479"><ele>1442.0</ele><time>2026-04-12T18:05:42.999Z</time></trkpt><trkpt lat="39.34430641993301" lon="16.40632507360586"><ele>1434.0</ele><time>2026-04-12T18:05:43.999Z</time></trkpt><trkpt lat="39.34405529560937" lon="16.406509427463053"><ele>1426.0</ele><time>2026-04-12T18:05:44.999Z</time></trkpt><trkpt lat="39.343812445578116" lon="16.406707522242893"><ele>1426.0</ele><time>2026-04-12T18:05:45.999Z</time></trkpt><trkpt lat="39.34356674988642" lon="16.40691014138355"><ele>1426.0</ele><time>2026-04-12T18:05:46.999Z</time></trkpt><trkpt lat="39.34331736719995" lon="16.407117983997804"><ele>1423.0</ele><time>2026-04-12T18:05:47.999Z</time></trkpt><trkpt lat="39.34306506048155" lon="16.407322109452206"><ele>1420.0</ele><time>2026-04-12T18:05:48.999Z</time></trkpt><trkpt lat="39.34281423627264" lon="16.407528455111727"><ele>1415.0</ele><time>2026-04-12T18:05:49.999Z</time></trkpt><trkpt lat="39.342559568635956" lon="16.407736072193668"><ele>1410.0</ele><time>2026-04-12T18:05:50.999Z</time></trkpt><trkpt lat="39.3423079664589" lon="16.407936192149993"><ele>1408.5</ele><time>2026-04-12T18:05:51.999Z</time></trkpt><trkpt lat="39.34205294082343" lon="16.40813165684212"><ele>1407.0</ele><time>2026-04-12T18:05:52.999Z</time></trkpt><trkpt lat="39.34180107471885" lon="16.40833063048745"><ele>1407.0</ele><time>2026-04-12T18:05:53.999Z</time></trkpt><trkpt lat="39.34154944548604" lon="16.408534311964655"><ele>1407.0</ele><time>2026-04-12T18:05:54.999Z</time></trkpt><trkpt lat="39.34129607110074" lon="16.408736949578884"><ele>1423.5</ele><time>2026-04-12T18:05:55.999Z</time></trkpt><trkpt lat="39.34104753476947" lon="16.40893343226479"><ele>1440.0</ele><time>2026-04-12T18:05:56.999Z</time></trkpt><trkpt lat="39.34080270460695" lon="16.40912714039771"><ele>1440.0</ele><time>2026-04-12T18:05:57.999Z</time></trkpt><trkpt lat="39.34055302726713" lon="16.4093257575353"><ele>1440.0</ele><time>2026-04-12T18:05:59.021Z</time></trkpt><trkpt lat="39.340306652370174" lon="16.409522122360467"><ele>1434.0</ele><time>2026-04-12T18:06:00.024Z</time></trkpt><trkpt lat="39.34006201804476" lon="16.40972000051642"><ele>1428.0</ele><time>2026-04-12T18:06:01.021Z</time></trkpt><trkpt lat="39.33981680508799" lon="16.409916855832844"><ele>1390.0</ele><time>2026-04-12T18:06:02.024Z</time></trkpt><trkpt lat="39.33884943839101" lon="16.410796958968426"><ele>1390.0</ele><time>2026-04-12T18:06:05.999Z</time></trkpt><trkpt lat="39.338642337497824" lon="16.410916363312733"><ele>1390.0</ele><time>2026-04-12T18:06:06.999Z</time></trkpt><trkpt lat="39.338427191997546" lon="16.411149145088753"><ele>1381.0</ele><time>2026-04-12T18:06:07.999Z</time></trkpt><trkpt lat="39.33826640231364" lon="16.411399944305604"><ele>1372.0</ele><time>2026-04-12T18:06:08.999Z</time></trkpt><trkpt lat="39.33811605956579" lon="16.411672931396044"><ele>1372.0</ele><time>2026-04-12T18:06:09.999Z</time></trkpt><trkpt lat="39.33800490369467" lon="16.411954964002867"><ele>1372.0</ele><time>2026-04-12T18:06:10.999Z</time></trkpt><trkpt lat="39.33791192573841" lon="16.41227210734625"><ele>1380.5</ele><time>2026-04-12T18:06:12.001Z</time></trkpt><trkpt lat="39.33782446369144" lon="16.412587840186934"><ele>1389.0</ele><time>2026-04-12T18:06:13.001Z</time></trkpt><trkpt lat="39.33772853745205" lon="16.412898588712295"><ele>1396.5</ele><time>2026-04-12T18:06:14.001Z</time></trkpt><trkpt lat="39.3376285525964" lon="16.41321689989979"><ele>1404.0</ele><time>2026-04-12T18:06:15.001Z</time></trkpt><trkpt lat="39.33752050648744" lon="16.413523293434704"><ele>1411.5</ele><time>2026-04-12T18:06:16.001Z</time></trkpt><trkpt lat="39.337421172012164" lon="16.413859939780174"><ele>1419.0</ele><time>2026-04-12T18:06:17.001Z</time></trkpt><trkpt lat="39.337319952321636" lon="16.414184203329448"><ele>1428.0</ele><time>2026-04-12T18:06:18.001Z</time></trkpt><trkpt lat="39.3372159057966" lon="16.41450777409104"><ele>1437.0</ele><time>2026-04-12T18:06:19.001Z</time></trkpt><trkpt lat="39.33710923439348" lon="16.414833401889663"><ele>1437.0</ele><time>2026-04-12T18:06:20.021Z</time></trkpt><trkpt lat="39.33700478685766" lon="16.415159281860564"><ele>1437.0</ele><time>2026-04-12T18:06:21.023Z</time></trkpt><trkpt lat="39.3368975910713" lon="16.415482309341584"><ele>1435.0</ele><time>2026-04-12T18:06:22.023Z</time></trkpt><trkpt lat="39.33679283118907" lon="16.415805974206634"><ele>1433.0</ele><time>2026-04-12T18:06:23.027Z</time></trkpt><trkpt lat="39.33576703540919" lon="16.419301740840467"><ele>1399.0</ele><time>2026-04-12T18:06:32Z</time></trkpt><trkpt lat="39.33565693607615" lon="16.41966267239369"><ele>1365.0</ele><time>2026-04-12T18:06:33Z</time></trkpt><trkpt lat="39.33554091815796" lon="16.420014704556277"><ele>1365.0</ele><time>2026-04-12T18:06:34Z</time></trkpt><trkpt lat="39.33542824300245" lon="16.420371832108867"><ele>1365.0</ele><time>2026-04-12T18:06:35Z</time></trkpt><trkpt lat="39.335322868980185" lon="16.420742819214006"><ele>1357.5</ele><time>2026-04-12T18:06:36Z</time></trkpt><trkpt lat="39.33522433079894" lon="16.42112256047425"><ele>1350.0</ele><time>2026-04-12T18:06:37Z</time></trkpt><trkpt lat="39.335143340231" lon="16.42150594586575"><ele>1348.5</ele><time>2026-04-12T18:06:38Z</time></trkpt><trkpt lat="39.335081064690385" lon="16.421899173852978"><ele>1347.0</ele><time>2026-04-12T18:06:39Z</time></trkpt><trkpt lat="39.33503409754031" lon="16.422297404914193"><ele>1347.0</ele><time>2026-04-12T18:06:40Z</time></trkpt><trkpt lat="39.33500177376009" lon="16.42270813061615"><ele>1347.0</ele><time>2026-04-12T18:06:41Z</time></trkpt><trkpt lat="39.33497873270599" lon="16.42310962946089"><ele>1349.0</ele><time>2026-04-12T18:06:42Z</time></trkpt><trkpt lat="39.3349606011457" lon="16.42351458381735"><ele>1351.0</ele><time>2026-04-12T18:06:43Z</time></trkpt><trkpt lat="39.33496429386437" lon="16.423931405011622"><ele>1352.0</ele><time>2026-04-12T18:06:44Z</time></trkpt><trkpt lat="39.33496662482551" lon="16.424346837926443"><ele>1353.0</ele><time>2026-04-12T18:06:45Z</time></trkpt><trkpt lat="39.33496670262023" lon="16.424764204316848"><ele>1356.5</ele><time>2026-04-12T18:06:46Z</time></trkpt><trkpt lat="39.334971101495" lon="16.42518245776453"><ele>1360.0</ele><time>2026-04-12T18:06:47Z</time></trkpt><trkpt lat="39.33497235829507" lon="16.42560109210295"><ele>1369.5</ele><time>2026-04-12T18:06:48Z</time></trkpt><trkpt lat="39.33496973326096" lon="16.426025184971905"><ele>1379.0</ele><time>2026-04-12T18:06:49Z</time></trkpt><trkpt lat="39.334966534701245" lon="16.42645642082269"><ele>1387.0</ele><time>2026-04-12T18:06:50Z</time></trkpt><trkpt lat="39.3349637425124" lon="16.42689137518011"><ele>1395.0</ele><time>2026-04-12T18:06:51.014Z</time></trkpt><trkpt lat="39.33496084425072" lon="16.42732013713901"><ele>1395.0</ele><time>2026-04-12T18:06:52.02Z</time></trkpt><trkpt lat="39.33495815770934" lon="16.427749079494124"><ele>1395.0</ele><time>2026-04-12T18:06:53.023Z</time></trkpt><trkpt lat="39.33495437761428" lon="16.428175262369372"><ele>1350.0</ele><time>2026-04-12T18:06:54.014Z</time></trkpt><trkpt lat="39.33498014233945" lon="16.43216896803717"><ele>1350.0</ele><time>2026-04-12T18:07:04Z</time></trkpt><trkpt lat="39.33498208274518" lon="16.432576334677016"><ele>1350.0</ele><time>2026-04-12T18:07:05Z</time></trkpt><trkpt lat="39.334999426151775" lon="16.43300066797669"><ele>1348.5</ele><time>2026-04-12T18:07:06Z</time></trkpt><trkpt lat="39.33501869186088" lon="16.433406153232482"><ele>1347.0</ele><time>2026-04-12T18:07:07Z</time></trkpt><trkpt lat="39.33505983796151" lon="16.433825526495916"><ele>1345.5</ele><time>2026-04-12T18:07:08Z</time></trkpt><trkpt lat="39.335105211295925" lon="16.434221483534753"><ele>1344.0</ele><time>2026-04-12T18:07:09Z</time></trkpt><trkpt lat="39.33514812591175" lon="16.434629376318764"><ele>1345.0</ele><time>2026-04-12T18:07:10Z</time></trkpt><trkpt lat="39.33518940626277" lon="16.435033573927235"><ele>1346.0</ele><time>2026-04-12T18:07:11Z</time></trkpt><trkpt lat="39.3352241588813" lon="16.435443855113988"><ele>1343.5</ele><time>2026-04-12T18:07:12Z</time></trkpt><trkpt lat="39.33526201786362" lon="16.43585297604856"><ele>1341.0</ele><time>2026-04-12T18:07:13Z</time></trkpt><trkpt lat="39.33529998727976" lon="16.436257540367833"><ele>1343.0</ele><time>2026-04-12T18:07:14Z</time></trkpt><trkpt lat="39.33534724025817" lon="16.436659612937508"><ele>1345.0</ele><time>2026-04-12T18:07:15Z</time></trkpt><trkpt lat="39.33540206611694" lon="16.437063810148377"><ele>1342.0</ele><time>2026-04-12T18:07:16Z</time></trkpt><trkpt lat="39.33547378475625" lon="16.43745931438398"><ele>1339.0</ele><time>2026-04-12T18:07:17Z</time></trkpt><trkpt lat="39.33555699096216" lon="16.43785693747783"><ele>1326.5</ele><time>2026-04-12T18:07:18Z</time></trkpt><trkpt lat="39.33565129508804" lon="16.43824747942066"><ele>1314.0</ele><time>2026-04-12T18:07:19Z</time></trkpt><trkpt lat="39.33575654988043" lon="16.438634278958187"><ele>1313.0</ele><time>2026-04-12T18:07:20Z</time></trkpt><trkpt lat="39.3358815882283" lon="16.439003888988697"><ele>1312.0</ele><time>2026-04-12T18:07:20.999Z</time></trkpt><trkpt lat="39.335996761919766" lon="16.439375574183266"><ele>1315.5</ele><time>2026-04-12T18:07:21.999Z</time></trkpt><trkpt lat="39.33615871201444" lon="16.439728725502242"><ele>1319.0</ele><time>2026-04-12T18:07:22.999Z</time></trkpt><trkpt lat="39.336325403503515" lon="16.440076359026765"><ele>1310.5</ele><time>2026-04-12T18:07:23.999Z</time></trkpt><trkpt lat="39.33647822426062" lon="16.440428610953305"><ele>1302.0</ele><time>2026-04-12T18:07:24.999Z</time></trkpt><trkpt lat="39.336628663630165" lon="16.440792439537045"><ele>1301.0</ele><time>2026-04-12T18:07:25.999Z</time></trkpt><trkpt lat="39.33674991168715" lon="16.441164603079738"><ele>1300.0</ele><time>2026-04-12T18:07:26.999Z</time></trkpt><trkpt lat="39.336874436755544" lon="16.441534400741705"><ele>1306.0</ele><time>2026-04-12T18:07:27.999Z</time></trkpt><trkpt lat="39.337000218239936" lon="16.441914175157795"><ele>1312.0</ele><time>2026-04-12T18:07:28.999Z</time></trkpt><trkpt lat="39.33708657754912" lon="16.442303345360703"><ele>1315.5</ele><time>2026-04-12T18:07:29.999Z</time></trkpt><trkpt lat="39.33720324921999" lon="16.442682758457035"><ele>1319.0</ele><time>2026-04-12T18:07:30.999Z</time></trkpt><trkpt lat="39.33729300637994" lon="16.443073093334608"><ele>1304.5</ele><time>2026-04-12T18:07:31.999Z</time></trkpt><trkpt lat="39.33738602929184" lon="16.44346448235435"><ele>1290.0</ele><time>2026-04-12T18:07:32.999Z</time></trkpt><trkpt lat="39.33749451524819" lon="16.443837029763166"><ele>1290.0</ele><time>2026-04-12T18:07:33.999Z</time></trkpt><trkpt lat="39.337592380657604" lon="16.444214592717113"><ele>1290.0</ele><time>2026-04-12T18:07:34.999Z</time></trkpt><trkpt lat="39.337685919378124" lon="16.444600489735336"><ele>1292.0</ele><time>2026-04-12T18:07:35.999Z</time></trkpt><trkpt lat="39.337782084311215" lon="16.444977871113316"><ele>1294.0</ele><time>2026-04-12T18:07:36.999Z</time></trkpt><trkpt lat="39.3378732568689" lon="16.445359298206014"><ele>1289.5</ele><time>2026-04-12T18:07:37.999Z</time></trkpt><trkpt lat="39.337984210444375" lon="16.445721543605497"><ele>1285.0</ele><time>2026-04-12T18:07:38.999Z</time></trkpt><trkpt lat="39.33807712742999" lon="16.446105887021986"><ele>1280.0</ele><time>2026-04-12T18:07:39.999Z</time></trkpt><trkpt lat="39.3381733686082" lon="16.446469479486353"><ele>1275.0</ele><time>2026-04-12T18:07:40.999Z</time></trkpt><trkpt lat="39.33826766790288" lon="16.446826692874836"><ele>1282.0</ele><time>2026-04-12T18:07:41.999Z</time></trkpt><trkpt lat="39.33836457072809" lon="16.44718528436031"><ele>1289.0</ele><time>2026-04-12T18:07:42.999Z</time></trkpt><trkpt lat="39.33846328611925" lon="16.447535145359037"><ele>1289.0</ele><time>2026-04-12T18:07:43.999Z</time></trkpt><trkpt lat="39.338565530108845" lon="16.447886845571304"><ele>1289.0</ele><time>2026-04-12T18:07:44.999Z</time></trkpt><trkpt lat="39.3386815600689" lon="16.44823075637898"><ele>1283.5</ele><time>2026-04-12T18:07:45.999Z</time></trkpt><trkpt lat="39.33880050095576" lon="16.448565537846285"><ele>1278.0</ele><time>2026-04-12T18:07:46.999Z</time></trkpt><trkpt lat="39.33892294763407" lon="16.44889663958711"><ele>1278.0</ele><time>2026-04-12T18:07:47.999Z</time></trkpt><trkpt lat="39.339012356974195" lon="16.449242679737306"><ele>1278.0</ele><time>2026-04-12T18:07:48.999Z</time></trkpt><trkpt lat="39.33908644837237" lon="16.449595436705952"><ele>1282.0</ele><time>2026-04-12T18:07:49.999Z</time></trkpt><trkpt lat="39.339143082426475" lon="16.449949735093497"><ele>1286.0</ele><time>2026-04-12T18:07:50.999Z</time></trkpt><trkpt lat="39.339167172836355" lon="16.450317182863113"><ele>1289.5</ele><time>2026-04-12T18:07:51.999Z</time></trkpt><trkpt lat="39.339183478364" lon="16.4506822250952"><ele>1293.0</ele><time>2026-04-12T18:07:52.999Z</time></trkpt><trkpt lat="39.33917808655675" lon="16.451056087388643"><ele>1293.0</ele><time>2026-04-12T18:07:53.999Z</time></trkpt><trkpt lat="39.33915329432375" lon="16.451431905305437"><ele>1293.0</ele><time>2026-04-12T18:07:54.999Z</time></trkpt><trkpt lat="39.33910961042889" lon="16.45180974939154"><ele>1287.0</ele><time>2026-04-12T18:07:55.999Z</time></trkpt><trkpt lat="39.339079138291204" lon="16.452186484627767"><ele>1281.0</ele><time>2026-04-12T18:07:56.999Z</time></trkpt><trkpt lat="39.339030320436386" lon="16.452563683804517"><ele>1281.0</ele><time>2026-04-12T18:07:57.999Z</time></trkpt><trkpt lat="39.33898087626783" lon="16.45293885782358"><ele>1281.0</ele><time>2026-04-12T18:07:58.999Z</time></trkpt><trkpt lat="39.3389361478836" lon="16.453326935031807"><ele>1278.5</ele><time>2026-04-12T18:07:59.999Z</time></trkpt><trkpt lat="39.338895675217586" lon="16.45370135021488"><ele>1276.0</ele><time>2026-04-12T18:08:00.999Z</time></trkpt><trkpt lat="39.338852765576014" lon="16.454070620747576"><ele>1281.0</ele><time>2026-04-12T18:08:01.999Z</time></trkpt><trkpt lat="39.338804719595316" lon="16.45445395130524"><ele>1286.0</ele><time>2026-04-12T18:08:02.999Z</time></trkpt><trkpt lat="39.33876049136116" lon="16.454830076697135"><ele>1289.0</ele><time>2026-04-12T18:08:03.999Z</time></trkpt><trkpt lat="39.33872047421252" lon="16.45520468902145"><ele>1292.0</ele><time>2026-04-12T18:08:04.999Z</time></trkpt><trkpt lat="39.338673370817546" lon="16.455578582003493"><ele>1292.0</ele><time>2026-04-12T18:08:05.999Z</time></trkpt><trkpt lat="39.338623107766416" lon="16.455959347362064"><ele>1292.0</ele><time>2026-04-12T18:08:06.999Z</time></trkpt><trkpt lat="39.3385789343824" lon="16.456336689042114"><ele>1289.5</ele><time>2026-04-12T18:08:07.999Z</time></trkpt><trkpt lat="39.33853232786738" lon="16.456711140779035"><ele>1287.0</ele><time>2026-04-12T18:08:08.999Z</time></trkpt><trkpt lat="39.33848587196268" lon="16.457070755533284"><ele>1288.5</ele><time>2026-04-12T18:08:09.999Z</time></trkpt><trkpt lat="39.33843766610966" lon="16.457415457930562"><ele>1290.0</ele><time>2026-04-12T18:08:10.999Z</time></trkpt><trkpt lat="39.33838306545956" lon="16.457747943160022"><ele>1290.0</ele><time>2026-04-12T18:08:11.999Z</time></trkpt><trkpt lat="39.338284286580375" lon="16.458064853825913"><ele>1290.0</ele><time>2026-04-12T18:08:12.999Z</time></trkpt><trkpt lat="39.33815145514552" lon="16.45836783569705"><ele>1288.5</ele><time>2026-04-12T18:08:13.999Z</time></trkpt><trkpt lat="39.337991447400626" lon="16.45865434811809"><ele>1287.0</ele><time>2026-04-12T18:08:14.999Z</time></trkpt><trkpt lat="39.33780113178269" lon="16.458919354890753"><ele>1287.0</ele><time>2026-04-12T18:08:15.999Z</time></trkpt><trkpt lat="39.33758247584347" lon="16.459144251174372"><ele>1287.0</ele><time>2026-04-12T18:08:16.999Z</time></trkpt><trkpt lat="39.33734184907522" lon="16.459340082240686"><ele>1290.5</ele><time>2026-04-12T18:08:18.001Z</time></trkpt><trkpt lat="39.33708168161698" lon="16.4595083408594"><ele>1294.0</ele><time>2026-04-12T18:08:19.001Z</time></trkpt><trkpt lat="39.33679821045139" lon="16.459653920122232"><ele>1297.5</ele><time>2026-04-12T18:08:20.001Z</time></trkpt><trkpt lat="39.33650622284388" lon="16.45980930145806"><ele>1301.0</ele><time>2026-04-12T18:08:21.001Z</time></trkpt><trkpt lat="39.33621401064998" lon="16.45996959446191"><ele>1301.0</ele><time>2026-04-12T18:08:22.001Z</time></trkpt><trkpt lat="39.33592046612957" lon="16.460132182475295"><ele>1301.0</ele><time>2026-04-12T18:08:23.001Z</time></trkpt><trkpt lat="39.3356439485715" lon="16.460302328819807"><ele>1305.0</ele><time>2026-04-12T18:08:24.001Z</time></trkpt><trkpt lat="39.33538457866709" lon="16.460487174498557"><ele>1309.0</ele><time>2026-04-12T18:08:25.001Z</time></trkpt><trkpt lat="39.33514265348414" lon="16.46068857558676"><ele>1309.0</ele><time>2026-04-12T18:08:26.001Z</time></trkpt><trkpt lat="39.334927660597344" lon="16.460917877011337"><ele>1309.0</ele><time>2026-04-12T18:08:27.001Z</time></trkpt><trkpt lat="39.334723518070454" lon="16.46116084778383"><ele>1311.5</ele><time>2026-04-12T18:08:28.001Z</time></trkpt><trkpt lat="39.334543237162144" lon="16.461438127217576"><ele>1314.0</ele><time>2026-04-12T18:08:29Z</time></trkpt><trkpt lat="39.33437098281787" lon="16.461736539859267"><ele>1314.0</ele><time>2026-04-12T18:08:30Z</time></trkpt><trkpt lat="39.33421424849024" lon="16.46205374661977"><ele>1314.0</ele><time>2026-04-12T18:08:31Z</time></trkpt><trkpt lat="39.33407508255579" lon="16.462374766988706"><ele>1313.5</ele><time>2026-04-12T18:08:32Z</time></trkpt><trkpt lat="39.33393833282675" lon="16.462676359259103"><ele>1313.0</ele><time>2026-04-12T18:08:33Z</time></trkpt><trkpt lat="39.33385086749083" lon="16.463059466705786"><ele>1321.5</ele><time>2026-04-12T18:08:34Z</time></trkpt><trkpt lat="39.33379054135561" lon="16.463440208525874"><ele>1330.0</ele><time>2026-04-12T18:08:35Z</time></trkpt><trkpt lat="39.33374874125863" lon="16.463828226440366"><ele>1330.0</ele><time>2026-04-12T18:08:36Z</time></trkpt><trkpt lat="39.33371608194029" lon="16.46420962267218"><ele>1330.0</ele><time>2026-04-12T18:08:37Z</time></trkpt><trkpt lat="39.33370903582256" lon="16.46458393989475"><ele>1331.0</ele><time>2026-04-12T18:08:38Z</time></trkpt><trkpt lat="39.33373004732243" lon="16.46496386513453"><ele>1332.0</ele><time>2026-04-12T18:08:39Z</time></trkpt><trkpt lat="39.33376092705027" lon="16.46534287187327"><ele>1333.5</ele><time>2026-04-12T18:08:40Z</time></trkpt><trkpt lat="39.333789570559354" lon="16.465723357390363"><ele>1335.0</ele><time>2026-04-12T18:08:41Z</time></trkpt><trkpt lat="39.33380889337168" lon="16.466107503125325"><ele>1340.0</ele><time>2026-04-12T18:08:42Z</time></trkpt><trkpt lat="39.33383252780191" lon="16.466488966184368"><ele>1345.0</ele><time>2026-04-12T18:08:43Z</time></trkpt><trkpt lat="39.33385904016597" lon="16.466857626952994"><ele>1345.0</ele><time>2026-04-12T18:08:44Z</time></trkpt><trkpt lat="39.333886028963505" lon="16.46721777319176"><ele>1345.0</ele><time>2026-04-12T18:08:45Z</time></trkpt><trkpt lat="39.33390814453839" lon="16.467565749813268"><ele>1337.5</ele><time>2026-04-12T18:08:46Z</time></trkpt><trkpt lat="39.33392947805936" lon="16.46790524303928"><ele>1330.0</ele><time>2026-04-12T18:08:47Z</time></trkpt><trkpt lat="39.333951934644084" lon="16.468227427287882"><ele>1330.0</ele><time>2026-04-12T18:08:48Z</time></trkpt><trkpt lat="39.33397235553426" lon="16.468528876606815"><ele>1330.0</ele><time>2026-04-12T18:08:49Z</time></trkpt><trkpt lat="39.33398762481697" lon="16.468824630638835"><ele>1332.5</ele><time>2026-04-12T18:08:50Z</time></trkpt><trkpt lat="39.334000536424604" lon="16.46912241544906"><ele>1335.0</ele><time>2026-04-12T18:08:51Z</time></trkpt><trkpt lat="39.33401322277342" lon="16.469421288955157"><ele>1333.0</ele><time>2026-04-12T18:08:52Z</time></trkpt><trkpt lat="39.33401516379713" lon="16.46973327422412"><ele>1331.0</ele><time>2026-04-12T18:08:53Z</time></trkpt><trkpt lat="39.33403784783775" lon="16.47002725795741"><ele>1331.0</ele><time>2026-04-12T18:08:54Z</time></trkpt><trkpt lat="39.33405226303803" lon="16.47031648779309"><ele>1331.0</ele><time>2026-04-12T18:08:55Z</time></trkpt><trkpt lat="39.33406772891272" lon="16.470593355452923"><ele>1331.0</ele><time>2026-04-12T18:08:56Z</time></trkpt><trkpt lat="39.33408235337922" lon="16.47086099891361"><ele>1329.0</ele><time>2026-04-12T18:08:57Z</time></trkpt><trkpt lat="39.33409839953657" lon="16.471122413924935"><ele>1327.0</ele><time>2026-04-12T18:08:58Z</time></trkpt><trkpt lat="39.33411606498363" lon="16.47138943555131"><ele>1325.0</ele><time>2026-04-12T18:08:59Z</time></trkpt><trkpt lat="39.33413548277746" lon="16.471675204208548"><ele>1325.0</ele><time>2026-04-12T18:09:00Z</time></trkpt><trkpt lat="39.33415435630394" lon="16.4719846237684"><ele>1325.0</ele><time>2026-04-12T18:09:01Z</time></trkpt><trkpt lat="39.33417396991635" lon="16.472292151203913"><ele>1330.5</ele><time>2026-04-12T18:09:02Z</time></trkpt><trkpt lat="39.33419400639107" lon="16.472606219698775"><ele>1336.0</ele><time>2026-04-12T18:09:03Z</time></trkpt><trkpt lat="39.334213977988384" lon="16.47292753307151"><ele>1342.0</ele><time>2026-04-12T18:09:04Z</time></trkpt><trkpt lat="39.334233571620516" lon="16.473252938404762"><ele>1348.0</ele><time>2026-04-12T18:09:05Z</time></trkpt><trkpt lat="39.33425626687458" lon="16.473567709765735"><ele>1351.0</ele><time>2026-04-12T18:09:06Z</time></trkpt><trkpt lat="39.33426874939993" lon="16.47387755862962"><ele>1354.0</ele><time>2026-04-12T18:09:07Z</time></trkpt><trkpt lat="39.33428706642402" lon="16.474184636624827"><ele>1354.0</ele><time>2026-04-12T18:09:08Z</time></trkpt><trkpt lat="39.33430050659565" lon="16.47448391733242"><ele>1354.0</ele><time>2026-04-12T18:09:09Z</time></trkpt><trkpt lat="39.334326917868545" lon="16.474777227645024"><ele>1353.0</ele><time>2026-04-12T18:09:10Z</time></trkpt><trkpt lat="39.334343518218176" lon="16.475077802559387"><ele>1352.0</ele><time>2026-04-12T18:09:11Z</time></trkpt><trkpt lat="39.33435152594329" lon="16.47538140922757"><ele>1349.5</ele><time>2026-04-12T18:09:12Z</time></trkpt><trkpt lat="39.334332385038635" lon="16.475679956932154"><ele>1347.0</ele><time>2026-04-12T18:09:13Z</time></trkpt><trkpt lat="39.33431146413652" lon="16.475981165886655"><ele>1347.0</ele><time>2026-04-12T18:09:13.999Z</time></trkpt><trkpt lat="39.33425384911498" lon="16.476259940899002"><ele>1347.0</ele><time>2026-04-12T18:09:14.999Z</time></trkpt><trkpt lat="39.334174756107046" lon="16.476566807322783"><ele>1342.5</ele><time>2026-04-12T18:09:15.999Z</time></trkpt><trkpt lat="39.33406434982263" lon="16.47685702463364"><ele>1338.0</ele><time>2026-04-12T18:09:16.999Z</time></trkpt><trkpt lat="39.33393798657096" lon="16.477132035989396"><ele>1341.5</ele><time>2026-04-12T18:09:17.999Z</time></trkpt><trkpt lat="39.33379911075648" lon="16.47740077120784"><ele>1345.0</ele><time>2026-04-12T18:09:18.999Z</time></trkpt><trkpt lat="39.333631973827764" lon="16.47765759789056"><ele>1345.0</ele><time>2026-04-12T18:09:19.999Z</time></trkpt><trkpt lat="39.333447092170985" lon="16.477895037385466"><ele>1345.0</ele><time>2026-04-12T18:09:20.999Z</time></trkpt><trkpt lat="39.33324553736635" lon="16.478108967121653"><ele>1344.5</ele><time>2026-04-12T18:09:21.999Z</time></trkpt><trkpt lat="39.33303214388032" lon="16.478300730252933"><ele>1344.0</ele><time>2026-04-12T18:09:22.999Z</time></trkpt><trkpt lat="39.33280146110344" lon="16.478484869244088"><ele>1344.0</ele><time>2026-04-12T18:09:23.999Z</time></trkpt><trkpt lat="39.33258321981495" lon="16.47866388559165"><ele>1344.0</ele><time>2026-04-12T18:09:24.999Z</time></trkpt><trkpt lat="39.332375378419805" lon="16.47884936277447"><ele>1343.0</ele><time>2026-04-12T18:09:25.999Z</time></trkpt><trkpt lat="39.33216588343756" lon="16.479037939120463"><ele>1342.0</ele><time>2026-04-12T18:09:26.999Z</time></trkpt><trkpt lat="39.33196819415834" lon="16.479224144264897"><ele>1342.0</ele><time>2026-04-12T18:09:27.999Z</time></trkpt><trkpt lat="39.33176610727419" lon="16.479402622475565"><ele>1342.0</ele><time>2026-04-12T18:09:28.999Z</time></trkpt><trkpt lat="39.33157337786485" lon="16.479565674252967"><ele>1341.6666666666665</ele><time>2026-04-12T18:09:29.999Z</time></trkpt><trkpt lat="39.3313869698728" lon="16.47972358724705"><ele>1341.3333333333333</ele><time>2026-04-12T18:09:30.999Z</time></trkpt><trkpt lat="39.33120743588924" lon="16.47988086294944"><ele>1341.0</ele><time>2026-04-12T18:09:31.999Z</time></trkpt><trkpt lat="39.331031553202145" lon="16.480036395970416"><ele>1341.0</ele><time>2026-04-12T18:09:32.999Z</time></trkpt><trkpt lat="39.33085207193637" lon="16.480193951909662"><ele>1341.0</ele><time>2026-04-12T18:09:33.999Z</time></trkpt><trkpt lat="39.330676167257785" lon="16.480348456653736"><ele>1341.0</ele><time>2026-04-12T18:09:34.999Z</time></trkpt><trkpt lat="39.330504441883825" lon="16.480499699063277"><ele>1342.6666666666667</ele><time>2026-04-12T18:09:35.999Z</time></trkpt><trkpt lat="39.33033304876254" lon="16.480651829184215"><ele>1344.3333333333335</ele><time>2026-04-12T18:09:36.999Z</time></trkpt><trkpt lat="39.3301657877823" lon="16.48080357337344"><ele>1346.0</ele><time>2026-04-12T18:09:37.999Z</time></trkpt><trkpt lat="39.3300015241465" lon="16.4809565863356"><ele>1346.0</ele><time>2026-04-12T18:09:38.999Z</time></trkpt><trkpt lat="39.32984203022999" lon="16.481118140547427"><ele>1346.0</ele><time>2026-04-12T18:09:39.999Z</time></trkpt><trkpt lat="39.32969156973257" lon="16.48128655613073"><ele>1346.0</ele><time>2026-04-12T18:09:40.999Z</time></trkpt><trkpt lat="39.329554405407094" lon="16.481468516135624"><ele>1346.3333333333335</ele><time>2026-04-12T18:09:41.999Z</time></trkpt><trkpt lat="39.32942791087874" lon="16.481652864133505"><ele>1346.6666666666667</ele><time>2026-04-12T18:09:42.999Z</time></trkpt><trkpt lat="39.32930713676792" lon="16.481840812243128"><ele>1347.0</ele><time>2026-04-12T18:09:43.999Z</time></trkpt><trkpt lat="39.32919311451322" lon="16.48203761735656"><ele>1347.3333333333333</ele><time>2026-04-12T18:09:44.999Z</time></trkpt><trkpt lat="39.32910208688581" lon="16.482230673591907"><ele>1347.6666666666665</ele><time>2026-04-12T18:09:45.999Z</time></trkpt><trkpt lat="39.32901269313814" lon="16.482431333620628"><ele>1348.0</ele><time>2026-04-12T18:09:46.999Z</time></trkpt><trkpt lat="39.328930938279505" lon="16.482642294773893"><ele>1352.3333333333333</ele><time>2026-04-12T18:09:47.999Z</time></trkpt><trkpt lat="39.32885437657184" lon="16.48286926689944"><ele>1356.6666666666667</ele><time>2026-04-12T18:09:48.999Z</time></trkpt><trkpt lat="39.32878978026537" lon="16.483116531285724"><ele>1361.0</ele><time>2026-04-12T18:09:49.999Z</time></trkpt><trkpt lat="39.32873311342255" lon="16.483387801291563"><ele>1361.3333333333335</ele><time>2026-04-12T18:09:50.999Z</time></trkpt><trkpt lat="39.3286746219948" lon="16.483669839983957"><ele>1361.6666666666667</ele><time>2026-04-12T18:09:51.999Z</time></trkpt><trkpt lat="39.328622453443025" lon="16.48395066059149"><ele>1362.0</ele><time>2026-04-12T18:09:52.999Z</time></trkpt><trkpt lat="39.32860404951237" lon="16.484280124649302"><ele>1361.5</ele><time>2026-04-12T18:09:53.999Z</time></trkpt><trkpt lat="39.328573672113016" lon="16.484650792372268"><ele>1361.0</ele><time>2026-04-12T18:09:54.999Z</time></trkpt><trkpt lat="39.32857856520163" lon="16.485106837249354"><ele>1360.5</ele><time>2026-04-12T18:09:55.999Z</time></trkpt><trkpt lat="39.3285814112836" lon="16.485587425486475"><ele>1360.0</ele><time>2026-04-12T18:09:56.999Z</time></trkpt><trkpt lat="39.32859245821718" lon="16.48608570827271"><ele>1361.0</ele><time>2026-04-12T18:09:57.999Z</time></trkpt><trkpt lat="39.32860491222359" lon="16.486521105763888"><ele>1362.0</ele><time>2026-04-12T18:09:58.999Z</time></trkpt><trkpt lat="39.32862795382991" lon="16.48692436438977"><ele>1360.0</ele><time>2026-04-12T18:09:59.999Z</time></trkpt><trkpt lat="39.32867395857773" lon="16.487304223271973"><ele>1358.0</ele><time>2026-04-12T18:10:00.999Z</time></trkpt><trkpt lat="39.32873051016942" lon="16.487657881171227"><ele>1359.5</ele><time>2026-04-12T18:10:01.999Z</time></trkpt><trkpt lat="39.328789815935664" lon="16.487995653157622"><ele>1361.0</ele><time>2026-04-12T18:10:02.999Z</time></trkpt><trkpt lat="39.32885377196036" lon="16.488314454288254"><ele>1359.5</ele><time>2026-04-12T18:10:03.999Z</time></trkpt><trkpt lat="39.3289229084044" lon="16.4886165240784"><ele>1358.0</ele><time>2026-04-12T18:10:04.999Z</time></trkpt><trkpt lat="39.328954707908956" lon="16.488955544166597"><ele>1358.0</ele><time>2026-04-12T18:10:05.999Z</time></trkpt><trkpt lat="39.32899492631459" lon="16.489333529709526"><ele>1358.0</ele><time>2026-04-12T18:10:06.999Z</time></trkpt><trkpt lat="39.32902439507285" lon="16.489755578253327"><ele>1359.0</ele><time>2026-04-12T18:10:07.999Z</time></trkpt><trkpt lat="39.32904649311975" lon="16.490210970364352"><ele>1360.0</ele><time>2026-04-12T18:10:08.999Z</time></trkpt><trkpt lat="39.32907469519542" lon="16.490669800851197"><ele>1360.5</ele><time>2026-04-12T18:10:09.999Z</time></trkpt><trkpt lat="39.32909165277602" lon="16.49111547124523"><ele>1361.0</ele><time>2026-04-12T18:10:10.999Z</time></trkpt><trkpt lat="39.329107783749116" lon="16.491554633453617"><ele>1358.0</ele><time>2026-04-12T18:10:11.998Z</time></trkpt><trkpt lat="39.329123745721525" lon="16.4919789003199"><ele>1355.0</ele><time>2026-04-12T18:10:12.998Z</time></trkpt><trkpt lat="39.32916071067277" lon="16.492371883020223"><ele>1355.0</ele><time>2026-04-12T18:10:13.998Z</time></trkpt><trkpt lat="39.329159939418496" lon="16.49277739763717"><ele>1355.0</ele><time>2026-04-12T18:10:14.998Z</time></trkpt><trkpt lat="39.3291799223691" lon="16.49318433528863"><ele>1353.0</ele><time>2026-04-12T18:10:15.998Z</time></trkpt><trkpt lat="39.32919984883712" lon="16.493573900820376"><ele>1351.0</ele><time>2026-04-12T18:10:16.998Z</time></trkpt><trkpt lat="39.32920988317279" lon="16.493962400460084"><ele>1350.5</ele><time>2026-04-12T18:10:17.998Z</time></trkpt><trkpt lat="39.3292391014557" lon="16.494343294549022"><ele>1350.0</ele><time>2026-04-12T18:10:18.998Z</time></trkpt><trkpt lat="39.329248333692476" lon="16.494724809890258"><ele>1350.0</ele><time>2026-04-12T18:10:19.998Z</time></trkpt><trkpt lat="39.32925760580373" lon="16.49509320812242"><ele>1350.0</ele><time>2026-04-12T18:10:20.998Z</time></trkpt><trkpt lat="39.32927216318364" lon="16.49545612458125"><ele>1350.0</ele><time>2026-04-12T18:10:21.998Z</time></trkpt><trkpt lat="39.329289067732496" lon="16.495799395037338"><ele>1350.0</ele><time>2026-04-12T18:10:22.998Z</time></trkpt><trkpt lat="39.32930714764687" lon="16.49615140796499"><ele>1348.5</ele><time>2026-04-12T18:10:24Z</time></trkpt><trkpt lat="39.329309282565724" lon="16.49651151959564"><ele>1347.0</ele><time>2026-04-12T18:10:25Z</time></trkpt><trkpt lat="39.329296483175455" lon="16.49687500976769"><ele>1346.0</ele><time>2026-04-12T18:10:26Z</time></trkpt><trkpt lat="39.329250768263265" lon="16.497233709488437"><ele>1345.0</ele><time>2026-04-12T18:10:27Z</time></trkpt><trkpt lat="39.32920394461207" lon="16.497598237090568"><ele>1344.0</ele><time>2026-04-12T18:10:28Z</time></trkpt><trkpt lat="39.32908444006231" lon="16.49794589732726"><ele>1343.0</ele><time>2026-04-12T18:10:29Z</time></trkpt><trkpt lat="39.32895481775957" lon="16.49829469108113"><ele>1341.5</ele><time>2026-04-12T18:10:30Z</time></trkpt><trkpt lat="39.32881885104666" lon="16.498631150987215"><ele>1340.0</ele><time>2026-04-12T18:10:31Z</time></trkpt><trkpt lat="39.328655805996455" lon="16.49894812509982"><ele>1339.5</ele><time>2026-04-12T18:10:32Z</time></trkpt><trkpt lat="39.328473358029356" lon="16.499252472767772"><ele>1339.0</ele><time>2026-04-12T18:10:33Z</time></trkpt><trkpt lat="39.32826709240307" lon="16.499526130202426"><ele>1340.5</ele><time>2026-04-12T18:10:34Z</time></trkpt><trkpt lat="39.32805015763259" lon="16.49977940698771"><ele>1342.0</ele><time>2026-04-12T18:10:35Z</time></trkpt><trkpt lat="39.327807706979705" lon="16.499998176722666"><ele>1342.0</ele><time>2026-04-12T18:10:36Z</time></trkpt><trkpt lat="39.32758237658754" lon="16.500222033313083"><ele>1342.0</ele><time>2026-04-12T18:10:37Z</time></trkpt><trkpt lat="39.32734122656965" lon="16.500434085237817"><ele>1344.5</ele><time>2026-04-12T18:10:38Z</time></trkpt><trkpt lat="39.32710317476334" lon="16.500661839573002"><ele>1347.0</ele><time>2026-04-12T18:10:39Z</time></trkpt><trkpt lat="39.32685228288108" lon="16.500892060696934"><ele>1347.0</ele><time>2026-04-12T18:10:40Z</time></trkpt><trkpt lat="39.326597456273426" lon="16.501126554742044"><ele>1347.0</ele><time>2026-04-12T18:10:41Z</time></trkpt><trkpt lat="39.32633273506414" lon="16.501368792699374"><ele>1347.5</ele><time>2026-04-12T18:10:42Z</time></trkpt><trkpt lat="39.32605430704969" lon="16.501616111350383"><ele>1348.0</ele><time>2026-04-12T18:10:43Z</time></trkpt><trkpt lat="39.32576900657258" lon="16.501864757179142"><ele>1351.0</ele><time>2026-04-12T18:10:44Z</time></trkpt><trkpt lat="39.32548244972819" lon="16.502109926451972"><ele>1354.0</ele><time>2026-04-12T18:10:45Z</time></trkpt><trkpt lat="39.32519069474189" lon="16.502349042594872"><ele>1354.0</ele><time>2026-04-12T18:10:46Z</time></trkpt><trkpt lat="39.32490251453123" lon="16.50259277863384"><ele>1354.0</ele><time>2026-04-12T18:10:47Z</time></trkpt><trkpt lat="39.32462361845244" lon="16.502838555852108"><ele>1355.0</ele><time>2026-04-12T18:10:48Z</time></trkpt><trkpt lat="39.32435245653308" lon="16.503085415565156"><ele>1356.0</ele><time>2026-04-12T18:10:49Z</time></trkpt><trkpt lat="39.3240914254548" lon="16.50331297557687"><ele>1359.5</ele><time>2026-04-12T18:10:50Z</time></trkpt><trkpt lat="39.323849593054966" lon="16.503526978487567"><ele>1363.0</ele><time>2026-04-12T18:10:51Z</time></trkpt><trkpt lat="39.32361376939976" lon="16.503734221535073"><ele>1358.5</ele><time>2026-04-12T18:10:52Z</time></trkpt><trkpt lat="39.32338044443991" lon="16.50394251036899"><ele>1354.0</ele><time>2026-04-12T18:10:53Z</time></trkpt><trkpt lat="39.32314639981905" lon="16.504158801067124"><ele>1354.5</ele><time>2026-04-12T18:10:54Z</time></trkpt><trkpt lat="39.32291366158188" lon="16.504375156394705"><ele>1355.0</ele><time>2026-04-12T18:10:55Z</time></trkpt><trkpt lat="39.32267662215875" lon="16.504587572715824"><ele>1355.0</ele><time>2026-04-12T18:10:56Z</time></trkpt><trkpt lat="39.322441486192275" lon="16.50479267686613"><ele>1355.0</ele><time>2026-04-12T18:10:57Z</time></trkpt><trkpt lat="39.32220313241892" lon="16.504999825298576"><ele>1357.5</ele><time>2026-04-12T18:10:58Z</time></trkpt><trkpt lat="39.32196086958942" lon="16.50521623767598"><ele>1360.0</ele><time>2026-04-12T18:10:59Z</time></trkpt><trkpt lat="39.32171587768895" lon="16.505446280063754"><ele>1360.0</ele><time>2026-04-12T18:11:00Z</time></trkpt><trkpt lat="39.321473969034635" lon="16.505688517955626"><ele>1360.0</ele><time>2026-04-12T18:11:01Z</time></trkpt><trkpt lat="39.32124212851182" lon="16.505951445355112"><ele>1361.5</ele><time>2026-04-12T18:11:02Z</time></trkpt><trkpt lat="39.32101862232944" lon="16.506234912093927"><ele>1363.0</ele><time>2026-04-12T18:11:03Z</time></trkpt><trkpt lat="39.32079955012748" lon="16.50655550139313"><ele>1363.0</ele><time>2026-04-12T18:11:04Z</time></trkpt><trkpt lat="39.32058987390154" lon="16.50690353237592"><ele>1363.0</ele><time>2026-04-12T18:11:05Z</time></trkpt><trkpt lat="39.32040105385857" lon="16.50726186270598"><ele>1363.0</ele><time>2026-04-12T18:11:06Z</time></trkpt><trkpt lat="39.320233107516145" lon="16.507628386359492"><ele>1363.0</ele><time>2026-04-12T18:11:07Z</time></trkpt><trkpt lat="39.320070891162864" lon="16.507986258829607"><ele>1363.0</ele><time>2026-04-12T18:11:08Z</time></trkpt><trkpt lat="39.31993028103082" lon="16.508357232309596"><ele>1363.0</ele><time>2026-04-12T18:11:09Z</time></trkpt><trkpt lat="39.31980983212551" lon="16.508751541890796"><ele>1360.5</ele><time>2026-04-12T18:11:10Z</time></trkpt><trkpt lat="39.31973228074284" lon="16.5091566294565"><ele>1358.0</ele><time>2026-04-12T18:11:11Z</time></trkpt><trkpt lat="39.31965622216952" lon="16.50956132642213"><ele>1357.5</ele><time>2026-04-12T18:11:12Z</time></trkpt><trkpt lat="39.31959360166465" lon="16.509960711252813"><ele>1357.0</ele><time>2026-04-12T18:11:12.999Z</time></trkpt><trkpt lat="39.31955081238192" lon="16.510368148186824"><ele>1357.0</ele><time>2026-04-12T18:11:13.999Z</time></trkpt><trkpt lat="39.31953790461451" lon="16.51078368087352"><ele>1357.0</ele><time>2026-04-12T18:11:14.999Z</time></trkpt><trkpt lat="39.319536961448684" lon="16.511204429635892"><ele>1355.0</ele><time>2026-04-12T18:11:15.999Z</time></trkpt><trkpt lat="39.319531476192005" lon="16.511633383025533"><ele>1353.0</ele><time>2026-04-12T18:11:16.999Z</time></trkpt><trkpt lat="39.31952035139834" lon="16.51206461572656"><ele>1353.0</ele><time>2026-04-12T18:11:17.999Z</time></trkpt><trkpt lat="39.31950531914358" lon="16.512500685379248"><ele>1353.0</ele><time>2026-04-12T18:11:18.999Z</time></trkpt><trkpt lat="39.31948936016415" lon="16.512943050071502"><ele>1353.5</ele><time>2026-04-12T18:11:19.999Z</time></trkpt><trkpt lat="39.31947407760588" lon="16.513377461103396"><ele>1354.0</ele><time>2026-04-12T18:11:20.999Z</time></trkpt><trkpt lat="39.31942986810545" lon="16.513821199196467"><ele>1353.0</ele><time>2026-04-12T18:11:21.999Z</time></trkpt><trkpt lat="39.319412231073315" lon="16.51425634039605"><ele>1352.0</ele><time>2026-04-12T18:11:22.999Z</time></trkpt><trkpt lat="39.31939444334369" lon="16.514695199587283"><ele>1352.0</ele><time>2026-04-12T18:11:23.999Z</time></trkpt><trkpt lat="39.31937589949972" lon="16.515131812954003"><ele>1352.0</ele><time>2026-04-12T18:11:24.999Z</time></trkpt><trkpt lat="39.319357141654834" lon="16.51556505103792"><ele>1352.0</ele><time>2026-04-12T18:11:25.999Z</time></trkpt><trkpt lat="39.3193530270371" lon="16.515994868228837"><ele>1352.0</ele><time>2026-04-12T18:11:26.999Z</time></trkpt><trkpt lat="39.319326323214014" lon="16.51642764326195"><ele>1351.5</ele><time>2026-04-12T18:11:27.999Z</time></trkpt><trkpt lat="39.319303023269974" lon="16.516857978685053"><ele>1351.0</ele><time>2026-04-12T18:11:28.999Z</time></trkpt><trkpt lat="39.31928511657912" lon="16.517285860075614"><ele>1349.5</ele><time>2026-04-12T18:11:29.999Z</time></trkpt><trkpt lat="39.319265937758956" lon="16.51771627699146"><ele>1348.0</ele><time>2026-04-12T18:11:30.999Z</time></trkpt><trkpt lat="39.31924543910543" lon="16.518138709179894"><ele>1347.0</ele><time>2026-04-12T18:11:31.999Z</time></trkpt><trkpt lat="39.31922537345394" lon="16.51856213371138"><ele>1346.0</ele><time>2026-04-12T18:11:32.999Z</time></trkpt><trkpt lat="39.31920551839074" lon="16.51898201875034"><ele>1345.0</ele><time>2026-04-12T18:11:33.999Z</time></trkpt><trkpt lat="39.31918938558145" lon="16.51939462027576"><ele>1344.0</ele><time>2026-04-12T18:11:34.999Z</time></trkpt><trkpt lat="39.31917549276536" lon="16.51980524381384"><ele>1343.0</ele><time>2026-04-12T18:11:35.999Z</time></trkpt><trkpt lat="39.31916628338125" lon="16.52020091757547"><ele>1342.0</ele><time>2026-04-12T18:11:36.999Z</time></trkpt><trkpt lat="39.31917172592591" lon="16.5205846990158"><ele>1341.0</ele><time>2026-04-12T18:11:37.999Z</time></trkpt><trkpt lat="39.31918909410394" lon="16.52095521767005"><ele>1340.0</ele><time>2026-04-12T18:11:38.999Z</time></trkpt><trkpt lat="39.31921576872172" lon="16.521318879344463"><ele>1342.0</ele><time>2026-04-12T18:11:39.999Z</time></trkpt><trkpt lat="39.319247227074015" lon="16.521670278383958"><ele>1344.0</ele><time>2026-04-12T18:11:40.999Z</time></trkpt><trkpt lat="39.31928733352025" lon="16.52202244256348"><ele>1346.0</ele><time>2026-04-12T18:11:41.999Z</time></trkpt><trkpt lat="39.31933078981008" lon="16.5223753613505"><ele>1348.0</ele><time>2026-04-12T18:11:42.999Z</time></trkpt><trkpt lat="39.3193685923661" lon="16.5227257096031"><ele>1350.5</ele><time>2026-04-12T18:11:43.999Z</time></trkpt><trkpt lat="39.31939540969625" lon="16.523068728435813"><ele>1353.0</ele><time>2026-04-12T18:11:44.999Z</time></trkpt><trkpt lat="39.31942330238792" lon="16.523416349117102"><ele>1352.0</ele><time>2026-04-12T18:11:45.999Z</time></trkpt><trkpt lat="39.31943478890182" lon="16.523754980849368"><ele>1351.0</ele><time>2026-04-12T18:11:46.999Z</time></trkpt><trkpt lat="39.31941309863003" lon="16.524089421899152"><ele>1351.0</ele><time>2026-04-12T18:11:47.999Z</time></trkpt><trkpt lat="39.3193916361354" lon="16.524420003920422"><ele>1351.0</ele><time>2026-04-12T18:11:48.999Z</time></trkpt><trkpt lat="39.31935803000837" lon="16.52474780648469"><ele>1352.5</ele><time>2026-04-12T18:11:49.999Z</time></trkpt><trkpt lat="39.31930877546704" lon="16.52508481801235"><ele>1354.0</ele><time>2026-04-12T18:11:50.999Z</time></trkpt><trkpt lat="39.31923883859252" lon="16.525447568892876"><ele>1356.0</ele><time>2026-04-12T18:11:51.999Z</time></trkpt><trkpt lat="39.319148495999926" lon="16.525819969415995"><ele>1358.0</ele><time>2026-04-12T18:11:52.999Z</time></trkpt><trkpt lat="39.31904056574798" lon="16.526176632029095"><ele>1358.5</ele><time>2026-04-12T18:11:53.999Z</time></trkpt><trkpt lat="39.318934786254694" lon="16.526520083639458"><ele>1359.0</ele><time>2026-04-12T18:11:54.999Z</time></trkpt><trkpt lat="39.31881182562881" lon="16.52682364521725"><ele>1356.0</ele><time>2026-04-12T18:11:55.999Z</time></trkpt><trkpt lat="39.31867043669594" lon="16.527099406285256"><ele>1353.0</ele><time>2026-04-12T18:11:56.999Z</time></trkpt><trkpt lat="39.31852837874715" lon="16.527376204137877"><ele>1353.0</ele><time>2026-04-12T18:11:57.999Z</time></trkpt><trkpt lat="39.31836525479079" lon="16.527664933948582"><ele>1353.0</ele><time>2026-04-12T18:11:58.999Z</time></trkpt><trkpt lat="39.318196224124456" lon="16.527985062316755"><ele>1350.5</ele><time>2026-04-12T18:11:59.999Z</time></trkpt><trkpt lat="39.3179886693056" lon="16.528293476808354"><ele>1348.0</ele><time>2026-04-12T18:12:00.999Z</time></trkpt><trkpt lat="39.31779678889037" lon="16.528607052414888"><ele>1347.0</ele><time>2026-04-12T18:12:01.999Z</time></trkpt><trkpt lat="39.31760677406054" lon="16.528935960076875"><ele>1346.0</ele><time>2026-04-12T18:12:02.999Z</time></trkpt><trkpt lat="39.317419198586606" lon="16.52926049327371"><ele>1344.5</ele><time>2026-04-12T18:12:03.999Z</time></trkpt><trkpt lat="39.31723578226019" lon="16.529574422306403"><ele>1343.0</ele><time>2026-04-12T18:12:04.999Z</time></trkpt><trkpt lat="39.317062923424245" lon="16.529892286608142"><ele>1341.5</ele><time>2026-04-12T18:12:05.999Z</time></trkpt><trkpt lat="39.31690518252598" lon="16.530216495237426"><ele>1340.0</ele><time>2026-04-12T18:12:06.999Z</time></trkpt><trkpt lat="39.31677134493304" lon="16.530556562771316"><ele>1336.5</ele><time>2026-04-12T18:12:07.999Z</time></trkpt><trkpt lat="39.316658832471525" lon="16.530909578055287"><ele>1333.0</ele><time>2026-04-12T18:12:08.999Z</time></trkpt><trkpt lat="39.31657344917662" lon="16.531280172909508"><ele>1333.0</ele><time>2026-04-12T18:12:09.998Z</time></trkpt><trkpt lat="39.316478805010725" lon="16.531643133569798"><ele>1333.0</ele><time>2026-04-12T18:12:10.998Z</time></trkpt><trkpt lat="39.31638788025706" lon="16.53200613900493"><ele>1335.5</ele><time>2026-04-12T18:12:11.998Z</time></trkpt><trkpt lat="39.316459466766545" lon="16.5324314822471"><ele>1338.0</ele><time>2026-04-12T18:12:12.998Z</time></trkpt><trkpt lat="39.31647431310897" lon="16.53281873605632"><ele>1341.5</ele><time>2026-04-12T18:12:13.998Z</time></trkpt><trkpt lat="39.31651347227523" lon="16.533207595213582"><ele>1345.0</ele><time>2026-04-12T18:12:14.998Z</time></trkpt><trkpt lat="39.31657511836513" lon="16.533589002106428"><ele>1349.5</ele><time>2026-04-12T18:12:15.998Z</time></trkpt><trkpt lat="39.31665539045014" lon="16.53396858425937"><ele>1354.0</ele><time>2026-04-12T18:12:16.998Z</time></trkpt><trkpt lat="39.316765355522286" lon="16.53433787923307"><ele>1356.5</ele><time>2026-04-12T18:12:17.998Z</time></trkpt><trkpt lat="39.31690100586276" lon="16.534689155495887"><ele>1359.0</ele><time>2026-04-12T18:12:18.998Z</time></trkpt><trkpt lat="39.317053431180234" lon="16.535025954246162"><ele>1359.0</ele><time>2026-04-12T18:12:19.998Z</time></trkpt><trkpt lat="39.31721587974709" lon="16.53535627562839"><ele>1359.0</ele><time>2026-04-12T18:12:20.998Z</time></trkpt><trkpt lat="39.31737029424069" lon="16.535688041406985"><ele>1358.5</ele><time>2026-04-12T18:12:21.998Z</time></trkpt><trkpt lat="39.317528061817534" lon="16.536016235883114"><ele>1358.0</ele><time>2026-04-12T18:12:22.998Z</time></trkpt><trkpt lat="39.31767753974443" lon="16.536357634823336"><ele>1358.0</ele><time>2026-04-12T18:12:23.998Z</time></trkpt><trkpt lat="39.317828182392795" lon="16.536695061167155"><ele>1358.0</ele><time>2026-04-12T18:12:24.998Z</time></trkpt><trkpt lat="39.317974706983044" lon="16.5370367790608"><ele>1359.0</ele><time>2026-04-12T18:12:25.998Z</time></trkpt><trkpt lat="39.318112316586394" lon="16.537381348547207"><ele>1360.0</ele><time>2026-04-12T18:12:26.998Z</time></trkpt><trkpt lat="39.31823612761774" lon="16.5377334878957"><ele>1362.5</ele><time>2026-04-12T18:12:27.998Z</time></trkpt><trkpt lat="39.31833913727068" lon="16.538096393979966"><ele>1365.0</ele><time>2026-04-12T18:12:28.998Z</time></trkpt><trkpt lat="39.31842027953491" lon="16.53846923770056"><ele>1369.5</ele><time>2026-04-12T18:12:30Z</time></trkpt><trkpt lat="39.31848191095121" lon="16.538851609648347"><ele>1374.0</ele><time>2026-04-12T18:12:31Z</time></trkpt><trkpt lat="39.3185231699168" lon="16.539234382045358"><ele>1377.5</ele><time>2026-04-12T18:12:32Z</time></trkpt><trkpt lat="39.31854324782915" lon="16.539618776981534"><ele>1381.0</ele><time>2026-04-12T18:12:33Z</time></trkpt><trkpt lat="39.318541856469245" lon="16.540005439179428"><ele>1382.5</ele><time>2026-04-12T18:12:34Z</time></trkpt><trkpt lat="39.31852524642526" lon="16.540393054925467"><ele>1384.0</ele><time>2026-04-12T18:12:35Z</time></trkpt><trkpt lat="39.31849035124714" lon="16.540775655433936"><ele>1384.0</ele><time>2026-04-12T18:12:36Z</time></trkpt><trkpt lat="39.31842940407604" lon="16.54115397600936"><ele>1384.0</ele><time>2026-04-12T18:12:37Z</time></trkpt><trkpt lat="39.31835693546974" lon="16.541530940029016"><ele>1380.0</ele><time>2026-04-12T18:12:38Z</time></trkpt><trkpt lat="39.318267854117465" lon="16.541904261327627"><ele>1376.0</ele><time>2026-04-12T18:12:39Z</time></trkpt><trkpt lat="39.31815440883589" lon="16.542265250152017"><ele>1376.5</ele><time>2026-04-12T18:12:40Z</time></trkpt><trkpt lat="39.31802451457294" lon="16.54261482991593"><ele>1377.0</ele><time>2026-04-12T18:12:41Z</time></trkpt><trkpt lat="39.31787977156698" lon="16.54296000404054"><ele>1380.0</ele><time>2026-04-12T18:12:42Z</time></trkpt><trkpt lat="39.3177346010769" lon="16.543302521593677"><ele>1383.0</ele><time>2026-04-12T18:12:43Z</time></trkpt><trkpt lat="39.31759136566245" lon="16.54364951108009"><ele>1387.0</ele><time>2026-04-12T18:12:44Z</time></trkpt><trkpt lat="39.31745234728748" lon="16.544000870977"><ele>1391.0</ele><time>2026-04-12T18:12:45Z</time></trkpt><trkpt lat="39.31731149120535" lon="16.544348961532307"><ele>1397.0</ele><time>2026-04-12T18:12:46Z</time></trkpt><trkpt lat="39.317167173451075" lon="16.54470588119759"><ele>1403.0</ele><time>2026-04-12T18:12:47Z</time></trkpt><trkpt lat="39.31702912461586" lon="16.545055371652"><ele>1403.0</ele><time>2026-04-12T18:12:48Z</time></trkpt><trkpt lat="39.316898742755654" lon="16.545369217320243"><ele>1403.0</ele><time>2026-04-12T18:12:49Z</time></trkpt><trkpt lat="39.31678852229489" lon="16.54563080707651"><ele>1404.6666666666667</ele><time>2026-04-12T18:12:50Z</time></trkpt><trkpt lat="39.31669342238383" lon="16.54586213542107"><ele>1406.3333333333333</ele><time>2026-04-12T18:12:51Z</time></trkpt><trkpt lat="39.31660485310837" lon="16.54609790749442"><ele>1408.0</ele><time>2026-04-12T18:12:52Z</time></trkpt><trkpt lat="39.31650900553988" lon="16.546356311281325"><ele>1409.5</ele><time>2026-04-12T18:12:53Z</time></trkpt><trkpt lat="39.31638799700276" lon="16.546641041000658"><ele>1411.0</ele><time>2026-04-12T18:12:54Z</time></trkpt><trkpt lat="39.31625385224721" lon="16.546951255197364"><ele>1411.0</ele><time>2026-04-12T18:12:55Z</time></trkpt><trkpt lat="39.316112238043694" lon="16.547277259774276"><ele>1411.0</ele><time>2026-04-12T18:12:56Z</time></trkpt><trkpt lat="39.3159794256403" lon="16.547622337436906"><ele>1410.0</ele><time>2026-04-12T18:12:57Z</time></trkpt><trkpt lat="39.31584157131822" lon="16.54797279293454"><ele>1409.0</ele><time>2026-04-12T18:12:58Z</time></trkpt><trkpt lat="39.315699527923655" lon="16.548332520475952"><ele>1407.5</ele><time>2026-04-12T18:12:59Z</time></trkpt><trkpt lat="39.31555291624115" lon="16.54869008376671"><ele>1406.0</ele><time>2026-04-12T18:13:00Z</time></trkpt><trkpt lat="39.31540501896804" lon="16.549050595015824"><ele>1405.5</ele><time>2026-04-12T18:13:01Z</time></trkpt><trkpt lat="39.315258026448035" lon="16.549409830776483"><ele>1405.0</ele><time>2026-04-12T18:13:02Z</time></trkpt><trkpt lat="39.31510953472707" lon="16.54977010044788"><ele>1406.0</ele><time>2026-04-12T18:13:03Z</time></trkpt><trkpt lat="39.31496091520055" lon="16.550130652902183"><ele>1407.0</ele><time>2026-04-12T18:13:04Z</time></trkpt><trkpt lat="39.31481342154327" lon="16.550494365722162"><ele>1406.5</ele><time>2026-04-12T18:13:05Z</time></trkpt><trkpt lat="39.314671354823254" lon="16.550859477996333"><ele>1406.0</ele><time>2026-04-12T18:13:06Z</time></trkpt><trkpt lat="39.31454113265207" lon="16.551230454494817"><ele>1407.0</ele><time>2026-04-12T18:13:07Z</time></trkpt><trkpt lat="39.31442746955652" lon="16.551613332674957"><ele>1408.0</ele><time>2026-04-12T18:13:08Z</time></trkpt><trkpt lat="39.3143352771413" lon="16.55200512716793"><ele>1408.0</ele><time>2026-04-12T18:13:09Z</time></trkpt><trkpt lat="39.314260179231084" lon="16.55240223285475"><ele>1408.0</ele><time>2026-04-12T18:13:10Z</time></trkpt><trkpt lat="39.31420412912231" lon="16.55280497601602"><ele>1408.0</ele><time>2026-04-12T18:13:11Z</time></trkpt><trkpt lat="39.31416640020694" lon="16.55321171165445"><ele>1408.0</ele><time>2026-04-12T18:13:12Z</time></trkpt><trkpt lat="39.31414975523633" lon="16.553622453612622"><ele>1408.0</ele><time>2026-04-12T18:13:12.999Z</time></trkpt><trkpt lat="39.314146832630165" lon="16.554031434110684"><ele>1408.0</ele><time>2026-04-12T18:13:13.999Z</time></trkpt><trkpt lat="39.314159942041755" lon="16.554437630160077"><ele>1406.5</ele><time>2026-04-12T18:13:14.999Z</time></trkpt><trkpt lat="39.31418683778257" lon="16.554843135980835"><ele>1405.0</ele><time>2026-04-12T18:13:15.999Z</time></trkpt><trkpt lat="39.31422304091227" lon="16.555248644716297"><ele>1405.0</ele><time>2026-04-12T18:13:16.999Z</time></trkpt><trkpt lat="39.314259926776394" lon="16.555651004611107"><ele>1405.0</ele><time>2026-04-12T18:13:17.999Z</time></trkpt><trkpt lat="39.314293732752304" lon="16.556051687113424"><ele>1406.5</ele><time>2026-04-12T18:13:18.999Z</time></trkpt><trkpt lat="39.31432379601923" lon="16.556449283034713"><ele>1408.0</ele><time>2026-04-12T18:13:19.999Z</time></trkpt><trkpt lat="39.314352614364665" lon="16.55685231200096"><ele>1407.5</ele><time>2026-04-12T18:13:20.999Z</time></trkpt><trkpt lat="39.314382598594804" lon="16.557251573773982"><ele>1407.0</ele><time>2026-04-12T18:13:21.999Z</time></trkpt><trkpt lat="39.31440632077161" lon="16.557646306245974"><ele>1405.5</ele><time>2026-04-12T18:13:22.999Z</time></trkpt><trkpt lat="39.314422299479055" lon="16.558052671615293"><ele>1404.0</ele><time>2026-04-12T18:13:23.999Z</time></trkpt><trkpt lat="39.31441892273634" lon="16.55845011260787"><ele>1405.5</ele><time>2026-04-12T18:13:24.999Z</time></trkpt><trkpt lat="39.314399310803495" lon="16.558849114395617"><ele>1407.0</ele><time>2026-04-12T18:13:25.999Z</time></trkpt><trkpt lat="39.31436379712977" lon="16.55924376081447"><ele>1407.0</ele><time>2026-04-12T18:13:26.999Z</time></trkpt><trkpt lat="39.31430239457383" lon="16.55962871177075"><ele>1407.0</ele><time>2026-04-12T18:13:27.999Z</time></trkpt><trkpt lat="39.31425223683942" lon="16.560026090041585"><ele>1408.5</ele><time>2026-04-12T18:13:28.999Z</time></trkpt><trkpt lat="39.31415555984904" lon="16.5603999695428"><ele>1410.0</ele><time>2026-04-12T18:13:29.999Z</time></trkpt><trkpt lat="39.31407930882494" lon="16.56078566403149"><ele>1410.0</ele><time>2026-04-12T18:13:30.999Z</time></trkpt><trkpt lat="39.313972660192434" lon="16.56115544826544"><ele>1410.0</ele><time>2026-04-12T18:13:31.999Z</time></trkpt><trkpt lat="39.3138555736403" lon="16.561514758394498"><ele>1409.0</ele><time>2026-04-12T18:13:32.999Z</time></trkpt><trkpt lat="39.31371165674521" lon="16.561854936404725"><ele>1408.0</ele><time>2026-04-12T18:13:33.999Z</time></trkpt><trkpt lat="39.31358024841746" lon="16.562205028280196"><ele>1410.5</ele><time>2026-04-12T18:13:35.014Z</time></trkpt><trkpt lat="39.31344712634884" lon="16.562552710537105"><ele>1413.0</ele><time>2026-04-12T18:13:36.022Z</time></trkpt><trkpt lat="39.31331556489544" lon="16.562896428752616"><ele>1410.0</ele><time>2026-04-12T18:13:37.017Z</time></trkpt><trkpt lat="39.31318264639176" lon="16.56324698288203"><ele>1407.0</ele><time>2026-04-12T18:13:38.02Z</time></trkpt><trkpt lat="39.31305120159987" lon="16.563595525217064"><ele>1403.0</ele><time>2026-04-12T18:13:39.023Z</time></trkpt><trkpt lat="39.31220676287945" lon="16.565825454906154"><ele>1403.0</ele><time>2026-04-12T18:13:44.999Z</time></trkpt><trkpt lat="39.312072016065926" lon="16.566164853528942"><ele>1403.0</ele><time>2026-04-12T18:13:45.999Z</time></trkpt><trkpt lat="39.31195546550917" lon="16.566473391301308"><ele>1403.5</ele><time>2026-04-12T18:13:46.999Z</time></trkpt><trkpt lat="39.311856384766635" lon="16.56677158807022"><ele>1404.0</ele><time>2026-04-12T18:13:47.999Z</time></trkpt><trkpt lat="39.31174006187938" lon="16.567061768337616"><ele>1406.0</ele><time>2026-04-12T18:13:48.999Z</time></trkpt><trkpt lat="39.31163284334606" lon="16.567367879927904"><ele>1408.0</ele><time>2026-04-12T18:13:49.999Z</time></trkpt><trkpt lat="39.31151701592698" lon="16.567672800087603"><ele>1404.5</ele><time>2026-04-12T18:13:50.999Z</time></trkpt><trkpt lat="39.31140113612051" lon="16.56797999631207"><ele>1401.0</ele><time>2026-04-12T18:13:51.999Z</time></trkpt><trkpt lat="39.311284659549926" lon="16.568277824667565"><ele>1401.0</ele><time>2026-04-12T18:13:52.999Z</time></trkpt><trkpt lat="39.3111730654046" lon="16.568568479297394"><ele>1401.0</ele><time>2026-04-12T18:13:53.999Z</time></trkpt><trkpt lat="39.31106037064742" lon="16.568869137859846"><ele>1402.5</ele><time>2026-04-12T18:13:54.999Z</time></trkpt><trkpt lat="39.31094878338667" lon="16.569169047635462"><ele>1404.0</ele><time>2026-04-12T18:13:55.999Z</time></trkpt><trkpt lat="39.310828385794316" lon="16.56947340412875"><ele>1405.5</ele><time>2026-04-12T18:13:56.999Z</time></trkpt><trkpt lat="39.310714731282054" lon="16.5697778795857"><ele>1407.0</ele><time>2026-04-12T18:13:57.999Z</time></trkpt><trkpt lat="39.310601348702065" lon="16.57008544907308"><ele>1402.5</ele><time>2026-04-12T18:13:58.999Z</time></trkpt><trkpt lat="39.31048328424035" lon="16.570404402025336"><ele>1398.0</ele><time>2026-04-12T18:13:59.999Z</time></trkpt><trkpt lat="39.310360423620736" lon="16.57073008006159"><ele>1398.0</ele><time>2026-04-12T18:14:00.999Z</time></trkpt><trkpt lat="39.310221428260604" lon="16.571052098808494"><ele>1398.0</ele><time>2026-04-12T18:14:01.999Z</time></trkpt><trkpt lat="39.31009077926454" lon="16.571395310747835"><ele>1397.5</ele><time>2026-04-12T18:14:02.999Z</time></trkpt><trkpt lat="39.30995660786189" lon="16.57174635028201"><ele>1397.0</ele><time>2026-04-12T18:14:03.999Z</time></trkpt><trkpt lat="39.30981767565111" lon="16.572105697659083"><ele>1389.5</ele><time>2026-04-12T18:14:04.999Z</time></trkpt><trkpt lat="39.30968301127072" lon="16.572460223954014"><ele>1382.0</ele><time>2026-04-12T18:14:05.999Z</time></trkpt><trkpt lat="39.30954594921717" lon="16.572821062535848"><ele>1383.5</ele><time>2026-04-12T18:14:06.999Z</time></trkpt><trkpt lat="39.30941366979548" lon="16.57316931043063"><ele>1385.0</ele><time>2026-04-12T18:14:07.998Z</time></trkpt><trkpt lat="39.30929535027223" lon="16.57351397420186"><ele>1387.0</ele><time>2026-04-12T18:14:08.998Z</time></trkpt><trkpt lat="39.30916475727194" lon="16.573843901081332"><ele>1389.0</ele><time>2026-04-12T18:14:09.998Z</time></trkpt><trkpt lat="39.30904056114288" lon="16.574162419239673"><ele>1389.0</ele><time>2026-04-12T18:14:10.998Z</time></trkpt><trkpt lat="39.30891975677827" lon="16.57448006842017"><ele>1389.0</ele><time>2026-04-12T18:14:11.998Z</time></trkpt><trkpt lat="39.30880211977523" lon="16.57479081312367"><ele>1385.0</ele><time>2026-04-12T18:14:12.998Z</time></trkpt><trkpt lat="39.30868655915082" lon="16.575099213540085"><ele>1381.0</ele><time>2026-04-12T18:14:13.998Z</time></trkpt><trkpt lat="39.308572761918285" lon="16.575406865047338"><ele>1378.5</ele><time>2026-04-12T18:14:14.998Z</time></trkpt><trkpt lat="39.308460718039434" lon="16.575717879849297"><ele>1376.0</ele><time>2026-04-12T18:14:15.998Z</time></trkpt><trkpt lat="39.308358708853234" lon="16.576040800331736"><ele>1378.5</ele><time>2026-04-12T18:14:16.998Z</time></trkpt><trkpt lat="39.308264696375616" lon="16.57636960420443"><ele>1381.0</ele><time>2026-04-12T18:14:17.998Z</time></trkpt><trkpt lat="39.30817772527088" lon="16.576703583937928"><ele>1380.5</ele><time>2026-04-12T18:14:18.998Z</time></trkpt><trkpt lat="39.30810073899991" lon="16.577043242583176"><ele>1380.0</ele><time>2026-04-12T18:14:19.998Z</time></trkpt><trkpt lat="39.30802941173229" lon="16.577385574839273"><ele>1373.5</ele><time>2026-04-12T18:14:20.998Z</time></trkpt><trkpt lat="39.30796424666589" lon="16.5777355766563"><ele>1367.0</ele><time>2026-04-12T18:14:21.998Z</time></trkpt><trkpt lat="39.3079057531592" lon="16.578100677608727"><ele>1366.0</ele><time>2026-04-12T18:14:22.998Z</time></trkpt><trkpt lat="39.30785617581127" lon="16.57847546299442"><ele>1365.0</ele><time>2026-04-12T18:14:23.998Z</time></trkpt><trkpt lat="39.30780672960058" lon="16.57885091570355"><ele>1364.5</ele><time>2026-04-12T18:14:24.998Z</time></trkpt><trkpt lat="39.30776000772744" lon="16.579213785955087"><ele>1364.0</ele><time>2026-04-12T18:14:25.998Z</time></trkpt><trkpt lat="39.30771274705457" lon="16.579561435220548"><ele>1363.0</ele><time>2026-04-12T18:14:26.998Z</time></trkpt><trkpt lat="39.307666073809585" lon="16.57989208830904"><ele>1362.0</ele><time>2026-04-12T18:14:27.998Z</time></trkpt><trkpt lat="39.30761246651903" lon="16.580212017494123"><ele>1361.5</ele><time>2026-04-12T18:14:28.998Z</time></trkpt><trkpt lat="39.30754850463659" lon="16.580522536565194"><ele>1361.0</ele><time>2026-04-12T18:14:29.998Z</time></trkpt><trkpt lat="39.3074732316213" lon="16.580831035820932"><ele>1361.0</ele><time>2026-04-12T18:14:30.998Z</time></trkpt><trkpt lat="39.307379681508806" lon="16.581128237304927"><ele>1361.0</ele><time>2026-04-12T18:14:31.998Z</time></trkpt><trkpt lat="39.30727561986977" lon="16.581420688466007"><ele>1358.0</ele><time>2026-04-12T18:14:32.998Z</time></trkpt><trkpt lat="39.30716789259067" lon="16.58169378344244"><ele>1355.0</ele><time>2026-04-12T18:14:33.998Z</time></trkpt><trkpt lat="39.30704429532162" lon="16.581974144941725"><ele>1358.5</ele><time>2026-04-12T18:14:34.998Z</time></trkpt><trkpt lat="39.30690417164274" lon="16.58226127303866"><ele>1362.0</ele><time>2026-04-12T18:14:36Z</time></trkpt><trkpt lat="39.3067360913776" lon="16.58256041788591"><ele>1367.5</ele><time>2026-04-12T18:14:37Z</time></trkpt><trkpt lat="39.30653338192306" lon="16.582883188954856"><ele>1373.0</ele><time>2026-04-12T18:14:38Z</time></trkpt><trkpt lat="39.30630741530174" lon="16.583204174586395"><ele>1364.5</ele><time>2026-04-12T18:14:39Z</time></trkpt><trkpt lat="39.306099489963486" lon="16.58352799430968"><ele>1356.0</ele><time>2026-04-12T18:14:40Z</time></trkpt><trkpt lat="39.3059166165351" lon="16.58385308418974"><ele>1356.0</ele><time>2026-04-12T18:14:41Z</time></trkpt><trkpt lat="39.30576110737251" lon="16.584198444120915"><ele>1356.0</ele><time>2026-04-12T18:14:42Z</time></trkpt><trkpt lat="39.30563712412707" lon="16.58455879019324"><ele>1364.0</ele><time>2026-04-12T18:14:43Z</time></trkpt><trkpt lat="39.30555323866196" lon="16.584929911207265"><ele>1372.0</ele><time>2026-04-12T18:14:44Z</time></trkpt><trkpt lat="39.305495212694616" lon="16.585312758183992"><ele>1370.0</ele><time>2026-04-12T18:14:45Z</time></trkpt><trkpt lat="39.30548809854224" lon="16.58571334266654"><ele>1368.0</ele><time>2026-04-12T18:14:46Z</time></trkpt><trkpt lat="39.305487617735" lon="16.586095173503725"><ele>1356.0</ele><time>2026-04-12T18:14:47Z</time></trkpt><trkpt lat="39.30548638544928" lon="16.586411534615547"><ele>1344.0</ele><time>2026-04-12T18:14:48Z</time></trkpt><trkpt lat="39.30550492328412" lon="16.586690175780035"><ele>1344.0</ele><time>2026-04-12T18:14:49Z</time></trkpt><trkpt lat="39.30551838811102" lon="16.586986915379164"><ele>1344.0</ele><time>2026-04-12T18:14:50Z</time></trkpt><trkpt lat="39.305529021079614" lon="16.587289792244828"><ele>1336.5</ele><time>2026-04-12T18:14:51Z</time></trkpt><trkpt lat="39.30554064717104" lon="16.5875911635451"><ele>1329.0</ele><time>2026-04-12T18:14:52Z</time></trkpt><trkpt lat="39.30554074957067" lon="16.58790285857666"><ele>1327.5</ele><time>2026-04-12T18:14:53Z</time></trkpt><trkpt lat="39.305546790023854" lon="16.588209570670095"><ele>1326.0</ele><time>2026-04-12T18:14:54Z</time></trkpt><trkpt lat="39.30555586607476" lon="16.58851634438057"><ele>1324.3333333333333</ele><time>2026-04-12T18:14:55Z</time></trkpt><trkpt lat="39.305565960157296" lon="16.58880097917538"><ele>1322.6666666666665</ele><time>2026-04-12T18:14:56Z</time></trkpt><trkpt lat="39.305571353470974" lon="16.5890849084873"><ele>1321.0</ele><time>2026-04-12T18:14:57Z</time></trkpt><trkpt lat="39.30557561515336" lon="16.5893637089288"><ele>1322.0</ele><time>2026-04-12T18:14:58Z</time></trkpt><trkpt lat="39.30557640692304" lon="16.589646405681776"><ele>1323.0</ele><time>2026-04-12T18:14:59Z</time></trkpt><trkpt lat="39.305595185137015" lon="16.58993983345872"><ele>1324.0</ele><time>2026-04-12T18:15:00Z</time></trkpt><trkpt lat="39.305627703301475" lon="16.590261975750593"><ele>1341.0</ele><time>2026-04-12T18:15:01Z</time></trkpt><trkpt lat="39.305625786395055" lon="16.590596169436118"><ele>1358.0</ele><time>2026-04-12T18:15:02Z</time></trkpt><trkpt lat="39.30563812178616" lon="16.590931344960232"><ele>1358.0</ele><time>2026-04-12T18:15:03Z</time></trkpt><trkpt lat="39.30564442182286" lon="16.59127093627846"><ele>1358.0</ele><time>2026-04-12T18:15:04Z</time></trkpt><trkpt lat="39.305652038921394" lon="16.59160947702099"><ele>1358.0</ele><time>2026-04-12T18:15:05.014Z</time></trkpt><trkpt lat="39.305662287635194" lon="16.59194478250016"><ele>1358.0</ele><time>2026-04-12T18:15:06.014Z</time></trkpt><trkpt lat="39.30567644968885" lon="16.592284860494036"><ele>1354.5</ele><time>2026-04-12T18:15:07.017Z</time></trkpt><trkpt lat="39.3056855638465" lon="16.59261969323811"><ele>1351.0</ele><time>2026-04-12T18:15:08.015Z</time></trkpt><trkpt lat="39.30572176821465" lon="16.593807516635017"><ele>1342.0</ele><time>2026-04-12T18:15:11Z</time></trkpt><trkpt lat="39.30573210592628" lon="16.594168806897397"><ele>1333.0</ele><time>2026-04-12T18:15:12Z</time></trkpt><trkpt lat="39.30572980091123" lon="16.594549848494253"><ele>1331.5</ele><time>2026-04-12T18:15:13Z</time></trkpt><trkpt lat="39.30572217617627" lon="16.59493553791149"><ele>1330.0</ele><time>2026-04-12T18:15:13.999Z</time></trkpt><trkpt lat="39.305733967528205" lon="16.59529608119996"><ele>1330.0</ele><time>2026-04-12T18:15:14.999Z</time></trkpt><trkpt lat="39.30575772618903" lon="16.59564431525136"><ele>1330.0</ele><time>2026-04-12T18:15:15.999Z</time></trkpt><trkpt lat="39.30577246843558" lon="16.59595909561634"><ele>1328.0</ele><time>2026-04-12T18:15:16.999Z</time></trkpt><trkpt lat="39.30578262161149" lon="16.596287869120168"><ele>1326.0</ele><time>2026-04-12T18:15:17.999Z</time></trkpt><trkpt lat="39.30577576753149" lon="16.596594834811"><ele>1326.0</ele><time>2026-04-12T18:15:18.999Z</time></trkpt><trkpt lat="39.30578488001211" lon="16.596946189069037"><ele>1326.0</ele><time>2026-04-12T18:15:19.999Z</time></trkpt><trkpt lat="39.30579614154486" lon="16.597216790626632"><ele>1324.5</ele><time>2026-04-12T18:15:20.999Z</time></trkpt><trkpt lat="39.305793218341236" lon="16.597518050291253"><ele>1323.0</ele><time>2026-04-12T18:15:21.999Z</time></trkpt><trkpt lat="39.30579566570089" lon="16.597822189645964"><ele>1323.5</ele><time>2026-04-12T18:15:22.999Z</time></trkpt><trkpt lat="39.3058095456472" lon="16.598118555164955"><ele>1324.0</ele><time>2026-04-12T18:15:23.999Z</time></trkpt><trkpt lat="39.305816756673266" lon="16.598419711617897"><ele>1321.0</ele><time>2026-04-12T18:15:24.999Z</time></trkpt><trkpt lat="39.30580558839496" lon="16.59872853207806"><ele>1318.0</ele><time>2026-04-12T18:15:25.999Z</time></trkpt><trkpt lat="39.3058117563951" lon="16.599023904886057"><ele>1318.0</ele><time>2026-04-12T18:15:26.999Z</time></trkpt><trkpt lat="39.30582395090961" lon="16.59932556772162"><ele>1318.0</ele><time>2026-04-12T18:15:27.999Z</time></trkpt><trkpt lat="39.30583683017374" lon="16.599627951812813"><ele>1313.0</ele><time>2026-04-12T18:15:28.999Z</time></trkpt><trkpt lat="39.30583898342427" lon="16.599938051922013"><ele>1308.0</ele><time>2026-04-12T18:15:29.999Z</time></trkpt><trkpt lat="39.30586758347639" lon="16.600237816884956"><ele>1304.5</ele><time>2026-04-12T18:15:30.999Z</time></trkpt><trkpt lat="39.30586349988609" lon="16.600547943226047"><ele>1301.0</ele><time>2026-04-12T18:15:31.999Z</time></trkpt><trkpt lat="39.30587324044554" lon="16.600842554194273"><ele>1301.0</ele><time>2026-04-12T18:15:32.999Z</time></trkpt><trkpt lat="39.30588172948597" lon="16.601123058344378"><ele>1301.0</ele><time>2026-04-12T18:15:33.999Z</time></trkpt><trkpt lat="39.30589248277491" lon="16.601395323962155"><ele>1301.0</ele><time>2026-04-12T18:15:34.999Z</time></trkpt><trkpt lat="39.30590021673126" lon="16.601672853919307"><ele>1300.6666666666667</ele><time>2026-04-12T18:15:35.999Z</time></trkpt><trkpt lat="39.30590008481561" lon="16.601957166330816"><ele>1300.3333333333333</ele><time>2026-04-12T18:15:36.999Z</time></trkpt><trkpt lat="39.3059068939302" lon="16.602245842099315"><ele>1300.0</ele><time>2026-04-12T18:15:37.999Z</time></trkpt><trkpt lat="39.3059103849214" lon="16.602544444894892"><ele>1300.0</ele><time>2026-04-12T18:15:38.999Z</time></trkpt><trkpt lat="39.30590627330998" lon="16.60284950829729"><ele>1300.0</ele><time>2026-04-12T18:15:39.999Z</time></trkpt><trkpt lat="39.30589028004465" lon="16.60315674718406"><ele>1300.0</ele><time>2026-04-12T18:15:40.999Z</time></trkpt><trkpt lat="39.305854413845815" lon="16.603467063720263"><ele>1300.0</ele><time>2026-04-12T18:15:41.999Z</time></trkpt><trkpt lat="39.30579948832997" lon="16.603773149334515"><ele>1301.0</ele><time>2026-04-12T18:15:42.999Z</time></trkpt><trkpt lat="39.305725048441545" lon="16.604073198402016"><ele>1302.0</ele><time>2026-04-12T18:15:43.999Z</time></trkpt><trkpt lat="39.30564623479345" lon="16.604374162157093"><ele>1301.0</ele><time>2026-04-12T18:15:44.999Z</time></trkpt><trkpt lat="39.30554886441744" lon="16.604672947078924"><ele>1300.0</ele><time>2026-04-12T18:15:45.999Z</time></trkpt><trkpt lat="39.305442839507066" lon="16.60496175821764"><ele>1300.0</ele><time>2026-04-12T18:15:46.999Z</time></trkpt><trkpt lat="39.30532483532121" lon="16.605253387247977"><ele>1300.0</ele><time>2026-04-12T18:15:47.999Z</time></trkpt><trkpt lat="39.30519901641515" lon="16.60554064024233"><ele>1301.5</ele><time>2026-04-12T18:15:48.999Z</time></trkpt><trkpt lat="39.30506731075216" lon="16.605829787899815"><ele>1303.0</ele><time>2026-04-12T18:15:49.999Z</time></trkpt><trkpt lat="39.30493465748327" lon="16.60613624490105"><ele>1302.5</ele><time>2026-04-12T18:15:50.999Z</time></trkpt><trkpt lat="39.304803536555035" lon="16.60642601132522"><ele>1302.0</ele><time>2026-04-12T18:15:51.999Z</time></trkpt><trkpt lat="39.30466954292112" lon="16.60672174831003"><ele>1304.0</ele><time>2026-04-12T18:15:52.999Z</time></trkpt><trkpt lat="39.30453482320116" lon="16.607025796881402"><ele>1306.0</ele><time>2026-04-12T18:15:53.999Z</time></trkpt><trkpt lat="39.30439866295915" lon="16.607333207342734"><ele>1306.0</ele><time>2026-04-12T18:15:54.999Z</time></trkpt><trkpt lat="39.30425382361448" lon="16.60764190002202"><ele>1306.0</ele><time>2026-04-12T18:15:55.999Z</time></trkpt><trkpt lat="39.30412167844039" lon="16.607945693031525"><ele>1305.5</ele><time>2026-04-12T18:15:56.999Z</time></trkpt><trkpt lat="39.30397637524962" lon="16.6082757770865"><ele>1305.0</ele><time>2026-04-12T18:15:57.999Z</time></trkpt><trkpt lat="39.30383326386672" lon="16.608600233904166"><ele>1303.5</ele><time>2026-04-12T18:15:58.999Z</time></trkpt><trkpt lat="39.303687976017216" lon="16.60892187170382"><ele>1302.0</ele><time>2026-04-12T18:15:59.999Z</time></trkpt><trkpt lat="39.30354443834817" lon="16.609225661355726"><ele>1303.5</ele><time>2026-04-12T18:16:00.999Z</time></trkpt><trkpt lat="39.30340998283022" lon="16.60955902338825"><ele>1305.0</ele><time>2026-04-12T18:16:01.999Z</time></trkpt><trkpt lat="39.30326894549181" lon="16.609888864360098"><ele>1305.0</ele><time>2026-04-12T18:16:02.999Z</time></trkpt><trkpt lat="39.3031327517348" lon="16.610210286486218"><ele>1305.0</ele><time>2026-04-12T18:16:03.999Z</time></trkpt><trkpt lat="39.30299316646476" lon="16.610533620833134"><ele>1303.0</ele><time>2026-04-12T18:16:04.999Z</time></trkpt><trkpt lat="39.30284957443246" lon="16.610850504688166"><ele>1301.0</ele><time>2026-04-12T18:16:05.999Z</time></trkpt><trkpt lat="39.30271331580141" lon="16.611187403109053"><ele>1301.0</ele><time>2026-04-12T18:16:06.999Z</time></trkpt><trkpt lat="39.3025648123427" lon="16.611510923057953"><ele>1301.0</ele><time>2026-04-12T18:16:07.999Z</time></trkpt><trkpt lat="39.30243483262428" lon="16.611811580089853"><ele>1304.0</ele><time>2026-04-12T18:16:08.998Z</time></trkpt><trkpt lat="39.30228991329013" lon="16.612129069139208"><ele>1307.0</ele><time>2026-04-12T18:16:09.998Z</time></trkpt><trkpt lat="39.30214386233882" lon="16.612455474003735"><ele>1304.0</ele><time>2026-04-12T18:16:10.998Z</time></trkpt><trkpt lat="39.30201244678804" lon="16.612776933325105"><ele>1301.0</ele><time>2026-04-12T18:16:11.998Z</time></trkpt><trkpt lat="39.30189107012389" lon="16.613087341964846"><ele>1301.0</ele><time>2026-04-12T18:16:12.998Z</time></trkpt><trkpt lat="39.30178928096103" lon="16.61341691616823"><ele>1301.0</ele><time>2026-04-12T18:16:13.998Z</time></trkpt><trkpt lat="39.301714845629625" lon="16.61375780719487"><ele>1306.5</ele><time>2026-04-12T18:16:14.998Z</time></trkpt><trkpt lat="39.30166947746715" lon="16.61410842070093"><ele>1312.0</ele><time>2026-04-12T18:16:15.998Z</time></trkpt><trkpt lat="39.301650109758754" lon="16.614460436880403"><ele>1315.0</ele><time>2026-04-12T18:16:16.998Z</time></trkpt><trkpt lat="39.30165311135522" lon="16.614812779880037"><ele>1318.0</ele><time>2026-04-12T18:16:17.998Z</time></trkpt><trkpt lat="39.301690509943484" lon="16.61516382170954"><ele>1311.0</ele><time>2026-04-12T18:16:18.998Z</time></trkpt><trkpt lat="39.30174462515079" lon="16.61551054396367"><ele>1304.0</ele><time>2026-04-12T18:16:19.998Z</time></trkpt><trkpt lat="39.30182406886122" lon="16.61584802709721"><ele>1297.5</ele><time>2026-04-12T18:16:20.998Z</time></trkpt><trkpt lat="39.301913916522224" lon="16.616176185679038"><ele>1291.0</ele><time>2026-04-12T18:16:21.998Z</time></trkpt><trkpt lat="39.30201569366446" lon="16.616492526161903"><ele>1291.0</ele><time>2026-04-12T18:16:22.998Z</time></trkpt><trkpt lat="39.302119513852105" lon="16.61680468672851"><ele>1291.0</ele><time>2026-04-12T18:16:23.998Z</time></trkpt><trkpt lat="39.30222323834176" lon="16.617102231445728"><ele>1289.5</ele><time>2026-04-12T18:16:24.998Z</time></trkpt><trkpt lat="39.302314889800286" lon="16.617393832115447"><ele>1288.0</ele><time>2026-04-12T18:16:25.998Z</time></trkpt><trkpt lat="39.302374623254316" lon="16.617688431820103"><ele>1286.5</ele><time>2026-04-12T18:16:26.998Z</time></trkpt><trkpt lat="39.302388037824535" lon="16.61798521101785"><ele>1285.0</ele><time>2026-04-12T18:16:27.998Z</time></trkpt><trkpt lat="39.30237386097195" lon="16.618268884413254"><ele>1285.0</ele><time>2026-04-12T18:16:28.998Z</time></trkpt><trkpt lat="39.3023128046557" lon="16.618555259261797"><ele>1285.0</ele><time>2026-04-12T18:16:29.998Z</time></trkpt><trkpt lat="39.302237851398296" lon="16.618831862317283"><ele>1282.0</ele><time>2026-04-12T18:16:30.998Z</time></trkpt><trkpt lat="39.30213235197928" lon="16.6190987767781"><ele>1279.0</ele><time>2026-04-12T18:16:31.998Z</time></trkpt><trkpt lat="39.30200765398945" lon="16.619349709611992"><ele>1278.5</ele><time>2026-04-12T18:16:32.998Z</time></trkpt><trkpt lat="39.30184644895482" lon="16.619591841355497"><ele>1278.0</ele><time>2026-04-12T18:16:33.998Z</time></trkpt><trkpt lat="39.30166489565243" lon="16.61980379327239"><ele>1278.0</ele><time>2026-04-12T18:16:34.998Z</time></trkpt><trkpt lat="39.30145385228773" lon="16.619982917950473"><ele>1278.0</ele><time>2026-04-12T18:16:35.998Z</time></trkpt><trkpt lat="39.301225745824134" lon="16.620135185444298"><ele>1278.5</ele><time>2026-04-12T18:16:36.998Z</time></trkpt><trkpt lat="39.30099595431117" lon="16.62029958659192"><ele>1279.0</ele><time>2026-04-12T18:16:37.998Z</time></trkpt><trkpt lat="39.30077997703437" lon="16.62045156506865"><ele>1275.5</ele><time>2026-04-12T18:16:38.998Z</time></trkpt><trkpt lat="39.30054890925727" lon="16.6206346821844"><ele>1272.0</ele><time>2026-04-12T18:16:39.998Z</time></trkpt><trkpt lat="39.30031981036836" lon="16.620819188761228"><ele>1272.0</ele><time>2026-04-12T18:16:40.998Z</time></trkpt><trkpt lat="39.300083271014465" lon="16.62099997160238"><ele>1272.0</ele><time>2026-04-12T18:16:42Z</time></trkpt><trkpt lat="39.29984026431192" lon="16.62117788472405"><ele>1271.0</ele><time>2026-04-12T18:16:43Z</time></trkpt><trkpt lat="39.299595540032065" lon="16.621354185253193"><ele>1270.0</ele><time>2026-04-12T18:16:44Z</time></trkpt><trkpt lat="39.299348421093086" lon="16.62153773853777"><ele>1270.0</ele><time>2026-04-12T18:16:45Z</time></trkpt><trkpt lat="39.29910241113541" lon="16.621723151200136"><ele>1270.0</ele><time>2026-04-12T18:16:46Z</time></trkpt><trkpt lat="39.29885210663307" lon="16.621910622070164"><ele>1271.5</ele><time>2026-04-12T18:16:47Z</time></trkpt><trkpt lat="39.298605296007395" lon="16.62210132767456"><ele>1273.0</ele><time>2026-04-12T18:16:48Z</time></trkpt><trkpt lat="39.298357963519386" lon="16.62228635522432"><ele>1273.0</ele><time>2026-04-12T18:16:49Z</time></trkpt><trkpt lat="39.298114494854005" lon="16.62248127038481"><ele>1273.0</ele><time>2026-04-12T18:16:50Z</time></trkpt><trkpt lat="39.297878676002675" lon="16.622688084387722"><ele>1271.5</ele><time>2026-04-12T18:16:51Z</time></trkpt><trkpt lat="39.29765266100608" lon="16.6229130831617"><ele>1270.0</ele><time>2026-04-12T18:16:52Z</time></trkpt><trkpt lat="39.297438866180826" lon="16.623154556108247"><ele>1268.5</ele><time>2026-04-12T18:16:53Z</time></trkpt><trkpt lat="39.29723433752193" lon="16.62340879362833"><ele>1267.0</ele><time>2026-04-12T18:16:54Z</time></trkpt><trkpt lat="39.29704108289241" lon="16.62367248973573"><ele>1267.0</ele><time>2026-04-12T18:16:55Z</time></trkpt><trkpt lat="39.29685254656308" lon="16.62393887969015"><ele>1267.0</ele><time>2026-04-12T18:16:56Z</time></trkpt><trkpt lat="39.29666558906988" lon="16.624199243188688"><ele>1267.0</ele><time>2026-04-12T18:16:57Z</time></trkpt><trkpt lat="39.29647659063455" lon="16.624457046559403"><ele>1267.0</ele><time>2026-04-12T18:16:58Z</time></trkpt><trkpt lat="39.296286116913805" lon="16.624707020714236"><ele>1265.5</ele><time>2026-04-12T18:16:59Z</time></trkpt><trkpt lat="39.29608787539721" lon="16.62493976794482"><ele>1264.0</ele><time>2026-04-12T18:17:00Z</time></trkpt><trkpt lat="39.295881085722584" lon="16.625153213043887"><ele>1266.5</ele><time>2026-04-12T18:17:01Z</time></trkpt><trkpt lat="39.295647610066624" lon="16.62533203361977"><ele>1269.0</ele><time>2026-04-12T18:17:02Z</time></trkpt><trkpt lat="39.29540892467331" lon="16.625494980331258"><ele>1269.0</ele><time>2026-04-12T18:17:03Z</time></trkpt><trkpt lat="39.2951564041324" lon="16.625634787538115"><ele>1269.0</ele><time>2026-04-12T18:17:04Z</time></trkpt><trkpt lat="39.2948936660687" lon="16.625761337973156"><ele>1266.0</ele><time>2026-04-12T18:17:05Z</time></trkpt><trkpt lat="39.29462726752199" lon="16.625860390711143"><ele>1263.0</ele><time>2026-04-12T18:17:06Z</time></trkpt><trkpt lat="39.294365378384924" lon="16.62597204913514"><ele>1263.0</ele><time>2026-04-12T18:17:07Z</time></trkpt><trkpt lat="39.29409984233527" lon="16.626084135213823"><ele>1263.0</ele><time>2026-04-12T18:17:08Z</time></trkpt><trkpt lat="39.29383687223681" lon="16.626201573238763"><ele>1265.5</ele><time>2026-04-12T18:17:09Z</time></trkpt><trkpt lat="39.29357856688522" lon="16.62633456727923"><ele>1268.0</ele><time>2026-04-12T18:17:10Z</time></trkpt><trkpt lat="39.29332920231384" lon="16.626486794672765"><ele>1268.0</ele><time>2026-04-12T18:17:11Z</time></trkpt><trkpt lat="39.293092067056904" lon="16.626667156204423"><ele>1268.0</ele><time>2026-04-12T18:17:12Z</time></trkpt><trkpt lat="39.29286804914818" lon="16.62687820996422"><ele>1266.5</ele><time>2026-04-12T18:17:13Z</time></trkpt><trkpt lat="39.29265976315646" lon="16.627118924846293"><ele>1265.0</ele><time>2026-04-12T18:17:14Z</time></trkpt><trkpt lat="39.29246809854914" lon="16.62738603595171"><ele>1265.0</ele><time>2026-04-12T18:17:15Z</time></trkpt><trkpt lat="39.292292713488216" lon="16.62767578302975"><ele>1265.0</ele><time>2026-04-12T18:17:16Z</time></trkpt><trkpt lat="39.29213410136608" lon="16.62798370539549"><ele>1261.0</ele><time>2026-04-12T18:17:17Z</time></trkpt><trkpt lat="39.29199795077062" lon="16.628313061124818"><ele>1257.0</ele><time>2026-04-12T18:17:18Z</time></trkpt><trkpt lat="39.29187820677001" lon="16.62865850786458"><ele>1257.0</ele><time>2026-04-12T18:17:19Z</time></trkpt><trkpt lat="39.2917657858143" lon="16.629010705578487"><ele>1257.0</ele><time>2026-04-12T18:17:20Z</time></trkpt><trkpt lat="39.2916520074014" lon="16.629364128235576"><ele>1258.5</ele><time>2026-04-12T18:17:21Z</time></trkpt><trkpt lat="39.29152709926459" lon="16.629713280965014"><ele>1260.0</ele><time>2026-04-12T18:17:22Z</time></trkpt><trkpt lat="39.29139937618762" lon="16.630065307087282"><ele>1258.0</ele><time>2026-04-12T18:17:22.999Z</time></trkpt><trkpt lat="39.29126933431975" lon="16.630425342923225"><ele>1256.0</ele><time>2026-04-12T18:17:23.999Z</time></trkpt><trkpt lat="39.29113417251191" lon="16.630781941659972"><ele>1256.5</ele><time>2026-04-12T18:17:24.999Z</time></trkpt><trkpt lat="39.29100004230919" lon="16.631143779403672"><ele>1257.0</ele><time>2026-04-12T18:17:25.999Z</time></trkpt><trkpt lat="39.29086552976251" lon="16.63150978503418"><ele>1257.0</ele><time>2026-04-12T18:17:26.999Z</time></trkpt><trkpt lat="39.29073321631432" lon="16.63188017703367"><ele>1257.0</ele><time>2026-04-12T18:17:27.999Z</time></trkpt><trkpt lat="39.29059786800639" lon="16.632255341190348"><ele>1255.0</ele><time>2026-04-12T18:17:28.999Z</time></trkpt><trkpt lat="39.29046196088712" lon="16.632631261596345"><ele>1253.0</ele><time>2026-04-12T18:17:29.999Z</time></trkpt><trkpt lat="39.29032204011606" lon="16.633008641370825"><ele>1253.0</ele><time>2026-04-12T18:17:30.999Z</time></trkpt><trkpt lat="39.29018152545822" lon="16.63338734500426"><ele>1253.0</ele><time>2026-04-12T18:17:31.999Z</time></trkpt><trkpt lat="39.290044638872864" lon="16.63376711536685"><ele>1254.5</ele><time>2026-04-12T18:17:32.999Z</time></trkpt><trkpt lat="39.28990779398139" lon="16.63414172958109"><ele>1256.0</ele><time>2026-04-12T18:17:33.999Z</time></trkpt><trkpt lat="39.28976887883706" lon="16.634519618352332"><ele>1253.5</ele><time>2026-04-12T18:17:34.999Z</time></trkpt><trkpt lat="39.28962339292126" lon="16.63489719586881"><ele>1251.0</ele><time>2026-04-12T18:17:35.999Z</time></trkpt><trkpt lat="39.289477646789116" lon="16.63526466548659"><ele>1255.0</ele><time>2026-04-12T18:17:36.999Z</time></trkpt><trkpt lat="39.28932728815677" lon="16.635623333837817"><ele>1259.0</ele><time>2026-04-12T18:17:37.999Z</time></trkpt><trkpt lat="39.28916056194784" lon="16.63596719276507"><ele>1257.5</ele><time>2026-04-12T18:17:38.999Z</time></trkpt><trkpt lat="39.28897587568843" lon="16.63628773263076"><ele>1256.0</ele><time>2026-04-12T18:17:39.999Z</time></trkpt><trkpt lat="39.28877468613132" lon="16.636589168967188"><ele>1256.0</ele><time>2026-04-12T18:17:40.999Z</time></trkpt><trkpt lat="39.28856123065722" lon="16.636873586269104"><ele>1256.0</ele><time>2026-04-12T18:17:41.999Z</time></trkpt><trkpt lat="39.28833065713558" lon="16.63713389531462"><ele>1258.5</ele><time>2026-04-12T18:17:42.999Z</time></trkpt><trkpt lat="39.288086036535546" lon="16.637369642130242"><ele>1261.0</ele><time>2026-04-12T18:17:43.999Z</time></trkpt><trkpt lat="39.28782865470635" lon="16.63758341688686"><ele>1261.0</ele><time>2026-04-12T18:17:44.999Z</time></trkpt><trkpt lat="39.287562113368125" lon="16.63776661858798"><ele>1261.0</ele><time>2026-04-12T18:17:45.999Z</time></trkpt><trkpt lat="39.287299495061625" lon="16.637948896071727"><ele>1261.0</ele><time>2026-04-12T18:17:46.999Z</time></trkpt><trkpt lat="39.287044250011256" lon="16.63812972551077"><ele>1261.0</ele><time>2026-04-12T18:17:47.999Z</time></trkpt><trkpt lat="39.28679127838643" lon="16.63831008072648"><ele>1261.0</ele><time>2026-04-12T18:17:48.999Z</time></trkpt><trkpt lat="39.28655652635171" lon="16.638472271780607"><ele>1261.0</ele><time>2026-04-12T18:17:49.999Z</time></trkpt><trkpt lat="39.286342176632424" lon="16.638618467495903"><ele>1260.6666666666665</ele><time>2026-04-12T18:17:50.999Z</time></trkpt><trkpt lat="39.28615358949891" lon="16.63876023810975"><ele>1260.3333333333333</ele><time>2026-04-12T18:17:51.999Z</time></trkpt><trkpt lat="39.28599303214455" lon="16.638910644069394"><ele>1260.0</ele><time>2026-04-12T18:17:52.999Z</time></trkpt><trkpt lat="39.28585364926126" lon="16.639077098721106"><ele>1260.0</ele><time>2026-04-12T18:17:53.999Z</time></trkpt><trkpt lat="39.28573259602934" lon="16.639249283970702"><ele>1260.0</ele><time>2026-04-12T18:17:54.999Z</time></trkpt><trkpt lat="39.285629394078484" lon="16.639420791483616"><ele>1260.0</ele><time>2026-04-12T18:17:55.999Z</time></trkpt><trkpt lat="39.285538503827595" lon="16.639597695622324"><ele>1259.0</ele><time>2026-04-12T18:17:56.999Z</time></trkpt><trkpt lat="39.285460147299005" lon="16.639783694707074"><ele>1258.0</ele><time>2026-04-12T18:17:57.999Z</time></trkpt><trkpt lat="39.285387288796024" lon="16.639979198998937"><ele>1257.0</ele><time>2026-04-12T18:17:58.999Z</time></trkpt><trkpt lat="39.28532802830966" lon="16.640215384569565"><ele>1257.3333333333333</ele><time>2026-04-12T18:17:59.999Z</time></trkpt><trkpt lat="39.28527315120725" lon="16.640456588713615"><ele>1257.6666666666665</ele><time>2026-04-12T18:18:00.999Z</time></trkpt><trkpt lat="39.28523603109608" lon="16.64072072225805"><ele>1258.0</ele><time>2026-04-12T18:18:01.999Z</time></trkpt><trkpt lat="39.28519300977463" lon="16.641000972582017"><ele>1255.5</ele><time>2026-04-12T18:18:02.999Z</time></trkpt><trkpt lat="39.28517090747579" lon="16.641313910344"><ele>1253.0</ele><time>2026-04-12T18:18:03.999Z</time></trkpt><trkpt lat="39.28515040035694" lon="16.641646311505493"><ele>1254.0</ele><time>2026-04-12T18:18:04.999Z</time></trkpt><trkpt lat="39.28512548374556" lon="16.64204226613226"><ele>1255.0</ele><time>2026-04-12T18:18:05.999Z</time></trkpt><trkpt lat="39.28511253823167" lon="16.64245742184054"><ele>1254.0</ele><time>2026-04-12T18:18:06.999Z</time></trkpt><trkpt lat="39.28507663680764" lon="16.642839932694358"><ele>1253.0</ele><time>2026-04-12T18:18:07.999Z</time></trkpt><trkpt lat="39.285035448614536" lon="16.643199595025145"><ele>1253.0</ele><time>2026-04-12T18:18:08.999Z</time></trkpt><trkpt lat="39.284960907315295" lon="16.643523643672086"><ele>1253.0</ele><time>2026-04-12T18:18:09.999Z</time></trkpt><trkpt lat="39.284891527796404" lon="16.64383443780871"><ele>1254.0</ele><time>2026-04-12T18:18:10.999Z</time></trkpt><trkpt lat="39.284783820339364" lon="16.64413076831765"><ele>1255.0</ele><time>2026-04-12T18:18:11.999Z</time></trkpt><trkpt lat="39.28466147323487" lon="16.644428851809632"><ele>1251.5</ele><time>2026-04-12T18:18:12.999Z</time></trkpt><trkpt lat="39.2845233689495" lon="16.644727215486267"><ele>1248.0</ele><time>2026-04-12T18:18:13.999Z</time></trkpt><trkpt lat="39.28437994406364" lon="16.645044002335954"><ele>1248.5</ele><time>2026-04-12T18:18:14.999Z</time></trkpt><trkpt lat="39.2842330574379" lon="16.645377968218487"><ele>1249.0</ele><time>2026-04-12T18:18:15.999Z</time></trkpt><trkpt lat="39.28408093994554" lon="16.645724816233802"><ele>1245.5</ele><time>2026-04-12T18:18:16.999Z</time></trkpt><trkpt lat="39.28392774309664" lon="16.64607979989013"><ele>1242.0</ele><time>2026-04-12T18:18:17.998Z</time></trkpt><trkpt lat="39.28377608693126" lon="16.646439260434658"><ele>1242.0</ele><time>2026-04-12T18:18:18.998Z</time></trkpt><trkpt lat="39.283618574683274" lon="16.646804375197704"><ele>1242.0</ele><time>2026-04-12T18:18:19.998Z</time></trkpt><trkpt lat="39.28346165632528" lon="16.647164924812618"><ele>1242.5</ele><time>2026-04-12T18:18:20.998Z</time></trkpt><trkpt lat="39.28330736159218" lon="16.64752736352012"><ele>1243.0</ele><time>2026-04-12T18:18:21.998Z</time></trkpt><trkpt lat="39.283152317209165" lon="16.647880604376617"><ele>1242.0</ele><time>2026-04-12T18:18:22.998Z</time></trkpt><trkpt lat="39.28299421041036" lon="16.64823641069517"><ele>1241.0</ele><time>2026-04-12T18:18:23.998Z</time></trkpt><trkpt lat="39.282841534457326" lon="16.648577972680123"><ele>1243.0</ele><time>2026-04-12T18:18:24.998Z</time></trkpt><trkpt lat="39.282695100982046" lon="16.648913927668346"><ele>1245.0</ele><time>2026-04-12T18:18:25.998Z</time></trkpt><trkpt lat="39.28255685968587" lon="16.64924103798934"><ele>1247.0</ele><time>2026-04-12T18:18:26.998Z</time></trkpt><trkpt lat="39.28242884991562" lon="16.64956054989126"><ele>1249.0</ele><time>2026-04-12T18:18:27.998Z</time></trkpt><trkpt lat="39.28231047096857" lon="16.649876455264458"><ele>1244.5</ele><time>2026-04-12T18:18:28.998Z</time></trkpt><trkpt lat="39.28220074409163" lon="16.65019324199817"><ele>1240.0</ele><time>2026-04-12T18:18:29.998Z</time></trkpt><trkpt lat="39.282101785094774" lon="16.65050910429571"><ele>1240.0</ele><time>2026-04-12T18:18:30.998Z</time></trkpt><trkpt lat="39.2820128127794" lon="16.650826505532322"><ele>1240.0</ele><time>2026-04-12T18:18:31.998Z</time></trkpt><trkpt lat="39.28193341539381" lon="16.651141388915576"><ele>1242.0</ele><time>2026-04-12T18:18:32.998Z</time></trkpt><trkpt lat="39.28186166562876" lon="16.65145191212715"><ele>1244.0</ele><time>2026-04-12T18:18:33.998Z</time></trkpt><trkpt lat="39.281789956592675" lon="16.651763783215994"><ele>1246.0</ele><time>2026-04-12T18:18:34.998Z</time></trkpt><trkpt lat="39.28172691273032" lon="16.652068704650866"><ele>1248.0</ele><time>2026-04-12T18:18:35.998Z</time></trkpt><trkpt lat="39.281664660205955" lon="16.65237290712669"><ele>1248.0</ele><time>2026-04-12T18:18:36.998Z</time></trkpt><trkpt lat="39.281602877391705" lon="16.652672771082877"><ele>1248.0</ele><time>2026-04-12T18:18:37.998Z</time></trkpt><trkpt lat="39.28153082971672" lon="16.652980365082815"><ele>1249.0</ele><time>2026-04-12T18:18:38.998Z</time></trkpt><trkpt lat="39.281462897809725" lon="16.653296363844373"><ele>1250.0</ele><time>2026-04-12T18:18:39.998Z</time></trkpt><trkpt lat="39.281394539448755" lon="16.65361229854441"><ele>1249.5</ele><time>2026-04-12T18:18:40.998Z</time></trkpt><trkpt lat="39.281325079409136" lon="16.653934235882662"><ele>1249.0</ele><time>2026-04-12T18:18:41.998Z</time></trkpt><trkpt lat="39.28125505559731" lon="16.65425942931402"><ele>1247.0</ele><time>2026-04-12T18:18:42.998Z</time></trkpt><trkpt lat="39.28118776044201" lon="16.654588379529084"><ele>1245.0</ele><time>2026-04-12T18:18:43.998Z</time></trkpt><trkpt lat="39.28111530400873" lon="16.654911655054256"><ele>1245.0</ele><time>2026-04-12T18:18:44.998Z</time></trkpt><trkpt lat="39.28104569057346" lon="16.65523469599682"><ele>1245.0</ele><time>2026-04-12T18:18:45.998Z</time></trkpt><trkpt lat="39.28096938209763" lon="16.655558471039072"><ele>1243.0</ele><time>2026-04-12T18:18:46.998Z</time></trkpt><trkpt lat="39.28089939747781" lon="16.65588920466064"><ele>1241.0</ele><time>2026-04-12T18:18:48Z</time></trkpt><trkpt lat="39.28082406370915" lon="16.656208410550782"><ele>1241.0</ele><time>2026-04-12T18:18:49Z</time></trkpt><trkpt lat="39.280752057954444" lon="16.656529633451065"><ele>1241.0</ele><time>2026-04-12T18:18:50Z</time></trkpt><trkpt lat="39.28067648007782" lon="16.65685010836935"><ele>1242.5</ele><time>2026-04-12T18:18:51Z</time></trkpt><trkpt lat="39.28060617094001" lon="16.657168012571105"><ele>1244.0</ele><time>2026-04-12T18:18:52Z</time></trkpt><trkpt lat="39.28053860775346" lon="16.657484023911866"><ele>1235.0</ele><time>2026-04-12T18:18:53Z</time></trkpt><trkpt lat="39.280472117089886" lon="16.65780197687919"><ele>1226.0</ele><time>2026-04-12T18:18:54Z</time></trkpt><trkpt lat="39.28040378569166" lon="16.65811726962784"><ele>1226.0</ele><time>2026-04-12T18:18:55Z</time></trkpt><trkpt lat="39.280332988640694" lon="16.658431574655108"><ele>1226.0</ele><time>2026-04-12T18:18:56Z</time></trkpt><trkpt lat="39.280259804126125" lon="16.658748351886373"><ele>1228.0</ele><time>2026-04-12T18:18:57Z</time></trkpt><trkpt lat="39.28018450104132" lon="16.659068046436435"><ele>1230.0</ele><time>2026-04-12T18:18:58Z</time></trkpt><trkpt lat="39.28010310351411" lon="16.659384962589396"><ele>1230.0</ele><time>2026-04-12T18:18:59Z</time></trkpt><trkpt lat="39.28001581010426" lon="16.659704774034996"><ele>1230.0</ele><time>2026-04-12T18:19:00Z</time></trkpt><trkpt lat="39.27992585186632" lon="16.66002672519227"><ele>1229.5</ele><time>2026-04-12T18:19:01Z</time></trkpt><trkpt lat="39.27984271885968" lon="16.660351758788416"><ele>1229.0</ele><time>2026-04-12T18:19:02Z</time></trkpt><trkpt lat="39.279764054304344" lon="16.66068183738534"><ele>1222.0</ele><time>2026-04-12T18:19:03Z</time></trkpt><trkpt lat="39.27968457466651" lon="16.66102142577556"><ele>1215.0</ele><time>2026-04-12T18:19:04Z</time></trkpt><trkpt lat="39.279612053626316" lon="16.661365763285115"><ele>1215.0</ele><time>2026-04-12T18:19:05Z</time></trkpt><trkpt lat="39.27953578536568" lon="16.661708462160888"><ele>1215.0</ele><time>2026-04-12T18:19:06Z</time></trkpt><trkpt lat="39.2794640172921" lon="16.662050218435255"><ele>1218.5</ele><time>2026-04-12T18:19:07Z</time></trkpt><trkpt lat="39.27940404726735" lon="16.662410531438997"><ele>1222.0</ele><time>2026-04-12T18:19:08Z</time></trkpt><trkpt lat="39.279351330582145" lon="16.66277500617955"><ele>1222.5</ele><time>2026-04-12T18:19:09Z</time></trkpt><trkpt lat="39.27929397139102" lon="16.663138577823574"><ele>1223.0</ele><time>2026-04-12T18:19:10Z</time></trkpt><trkpt lat="39.2792470787694" lon="16.663504844993096"><ele>1220.5</ele><time>2026-04-12T18:19:11Z</time></trkpt><trkpt lat="39.27919842443699" lon="16.663867553288505"><ele>1218.0</ele><time>2026-04-12T18:19:12Z</time></trkpt><trkpt lat="39.279151775348055" lon="16.664223568821722"><ele>1211.5</ele><time>2026-04-12T18:19:13Z</time></trkpt><trkpt lat="39.279104402271415" lon="16.66457335253823"><ele>1205.0</ele><time>2026-04-12T18:19:14Z</time></trkpt><trkpt lat="39.27905973546668" lon="16.66491848350699"><ele>1205.0</ele><time>2026-04-12T18:19:15Z</time></trkpt><trkpt lat="39.27901732741684" lon="16.665259464472047"><ele>1205.0</ele><time>2026-04-12T18:19:16Z</time></trkpt><trkpt lat="39.278970532152144" lon="16.66560197669995"><ele>1198.0</ele><time>2026-04-12T18:19:17Z</time></trkpt><trkpt lat="39.27893067439926" lon="16.66592550839059"><ele>1191.0</ele><time>2026-04-12T18:19:18Z</time></trkpt><trkpt lat="39.27890059488117" lon="16.666246301622873"><ele>1188.5</ele><time>2026-04-12T18:19:19Z</time></trkpt><trkpt lat="39.27886030158279" lon="16.666556844150012"><ele>1186.0</ele><time>2026-04-12T18:19:20Z</time></trkpt><trkpt lat="39.27881933584977" lon="16.666866354593825"><ele>1185.5</ele><time>2026-04-12T18:19:21Z</time></trkpt><trkpt lat="39.27878337827492" lon="16.667170968285006"><ele>1185.0</ele><time>2026-04-12T18:19:22Z</time></trkpt><trkpt lat="39.27874333186408" lon="16.667469872166073"><ele>1185.0</ele><time>2026-04-12T18:19:23Z</time></trkpt><trkpt lat="39.27870165869375" lon="16.667767784795718"><ele>1185.0</ele><time>2026-04-12T18:19:24Z</time></trkpt><trkpt lat="39.278668233773715" lon="16.66806486298036"><ele>1185.5</ele><time>2026-04-12T18:19:25Z</time></trkpt><trkpt lat="39.27863372307421" lon="16.668366802670672"><ele>1186.0</ele><time>2026-04-12T18:19:26Z</time></trkpt><trkpt lat="39.27859660942022" lon="16.668667351785153"><ele>1187.0</ele><time>2026-04-12T18:19:27Z</time></trkpt><trkpt lat="39.278558545155" lon="16.66897223957995"><ele>1188.0</ele><time>2026-04-12T18:19:27.999Z</time></trkpt><trkpt lat="39.27851634447295" lon="16.669274038170503"><ele>1187.5</ele><time>2026-04-12T18:19:28.999Z</time></trkpt><trkpt lat="39.278477689434986" lon="16.669582752144965"><ele>1187.0</ele><time>2026-04-12T18:19:29.999Z</time></trkpt><trkpt lat="39.27843560108395" lon="16.6698860442944"><ele>1187.0</ele><time>2026-04-12T18:19:30.999Z</time></trkpt><trkpt lat="39.278394213796076" lon="16.6701784691837"><ele>1187.0</ele><time>2026-04-12T18:19:31.999Z</time></trkpt><trkpt lat="39.27835535363665" lon="16.670461510368664"><ele>1187.0</ele><time>2026-04-12T18:19:32.999Z</time></trkpt><trkpt lat="39.27831940384039" lon="16.670732086076743"><ele>1187.0</ele><time>2026-04-12T18:19:33.999Z</time></trkpt><trkpt lat="39.278290390524695" lon="16.670979924691654"><ele>1187.0</ele><time>2026-04-12T18:19:34.999Z</time></trkpt><trkpt lat="39.27824801359993" lon="16.67122295773903"><ele>1187.6666666666667</ele><time>2026-04-12T18:19:35.999Z</time></trkpt><trkpt lat="39.27820525742269" lon="16.671463217122252"><ele>1188.3333333333333</ele><time>2026-04-12T18:19:36.999Z</time></trkpt><trkpt lat="39.278146592912655" lon="16.671696464782798"><ele>1189.0</ele><time>2026-04-12T18:19:37.999Z</time></trkpt><trkpt lat="39.278075950035536" lon="16.67191957061191"><ele>1183.3333333333333</ele><time>2026-04-12T18:19:38.999Z</time></trkpt><trkpt lat="39.27798894279069" lon="16.672140228989505"><ele>1177.6666666666667</ele><time>2026-04-12T18:19:39.999Z</time></trkpt><trkpt lat="39.27789781203457" lon="16.672350110268148"><ele>1172.0</ele><time>2026-04-12T18:19:40.999Z</time></trkpt><trkpt lat="39.277784084177874" lon="16.672565689143898"><ele>1172.0</ele><time>2026-04-12T18:19:41.999Z</time></trkpt><trkpt lat="39.27765590962631" lon="16.672772380413928"><ele>1172.0</ele><time>2026-04-12T18:19:42.999Z</time></trkpt><trkpt lat="39.27751263079975" lon="16.67297074760842"><ele>1172.0</ele><time>2026-04-12T18:19:43.999Z</time></trkpt><trkpt lat="39.277355623285295" lon="16.67316086861785"><ele>1174.0</ele><time>2026-04-12T18:19:44.999Z</time></trkpt><trkpt lat="39.27717911408863" lon="16.673337906939373"><ele>1176.0</ele><time>2026-04-12T18:19:45.999Z</time></trkpt><trkpt lat="39.27699493516495" lon="16.67350953872727"><ele>1172.0</ele><time>2026-04-12T18:19:46.999Z</time></trkpt><trkpt lat="39.276806810954064" lon="16.673683729197744"><ele>1168.0</ele><time>2026-04-12T18:19:47.999Z</time></trkpt><trkpt lat="39.27661995789646" lon="16.67385641093109"><ele>1168.0</ele><time>2026-04-12T18:19:48.999Z</time></trkpt><trkpt lat="39.276431638665436" lon="16.674027853855673"><ele>1168.0</ele><time>2026-04-12T18:19:49.999Z</time></trkpt><trkpt lat="39.276242643779995" lon="16.6742023197319"><ele>1168.0</ele><time>2026-04-12T18:19:50.999Z</time></trkpt><trkpt lat="39.2760629169292" lon="16.67438165015228"><ele>1168.0</ele><time>2026-04-12T18:19:51.999Z</time></trkpt><trkpt lat="39.27588655440353" lon="16.67456342790262"><ele>1168.3333333333333</ele><time>2026-04-12T18:19:52.999Z</time></trkpt><trkpt lat="39.27570468512245" lon="16.674731321151793"><ele>1168.6666666666667</ele><time>2026-04-12T18:19:53.999Z</time></trkpt><trkpt lat="39.27552816112692" lon="16.674905645884728"><ele>1169.0</ele><time>2026-04-12T18:19:54.999Z</time></trkpt><trkpt lat="39.27535906692916" lon="16.67510667526135"><ele>1161.5</ele><time>2026-04-12T18:19:55.999Z</time></trkpt><trkpt lat="39.27521642277746" lon="16.67533309758132"><ele>1154.0</ele><time>2026-04-12T18:19:56.999Z</time></trkpt><trkpt lat="39.275092523184654" lon="16.67558178030129"><ele>1154.0</ele><time>2026-04-12T18:19:57.999Z</time></trkpt><trkpt lat="39.27497973414274" lon="16.675842975786143"><ele>1154.0</ele><time>2026-04-12T18:19:58.999Z</time></trkpt><trkpt lat="39.274874561634626" lon="16.676117350931477"><ele>1156.5</ele><time>2026-04-12T18:19:59.999Z</time></trkpt><trkpt lat="39.27477790250279" lon="16.676390911712808"><ele>1159.0</ele><time>2026-04-12T18:20:00.999Z</time></trkpt><trkpt lat="39.27468091165106" lon="16.676670164370766"><ele>1157.0</ele><time>2026-04-12T18:20:01.999Z</time></trkpt><trkpt lat="39.2745757585679" lon="16.676956730904017"><ele>1155.0</ele><time>2026-04-12T18:20:02.999Z</time></trkpt><trkpt lat="39.27447055228191" lon="16.677243852212122"><ele>1155.0</ele><time>2026-04-12T18:20:03.999Z</time></trkpt><trkpt lat="39.27436664118452" lon="16.67752976879351"><ele>1155.0</ele><time>2026-04-12T18:20:04.999Z</time></trkpt><trkpt lat="39.274262960984274" lon="16.6778143644924"><ele>1147.5</ele><time>2026-04-12T18:20:05.999Z</time></trkpt><trkpt lat="39.27415830933787" lon="16.678096348507687"><ele>1140.0</ele><time>2026-04-12T18:20:06.999Z</time></trkpt><trkpt lat="39.2740553973416" lon="16.678368967212272"><ele>1140.5</ele><time>2026-04-12T18:20:07.999Z</time></trkpt><trkpt lat="39.273939778284394" lon="16.678635235438104"><ele>1141.0</ele><time>2026-04-12T18:20:08.999Z</time></trkpt><trkpt lat="39.273792113355555" lon="16.678870088005766"><ele>1141.0</ele><time>2026-04-12T18:20:09.999Z</time></trkpt><trkpt lat="39.27363549436581" lon="16.6790876105201"><ele>1141.0</ele><time>2026-04-12T18:20:10.999Z</time></trkpt><trkpt lat="39.27345411403059" lon="16.67928450050666"><ele>1136.0</ele><time>2026-04-12T18:20:11.999Z</time></trkpt><trkpt lat="39.27325742956715" lon="16.679442499845447"><ele>1131.0</ele><time>2026-04-12T18:20:12.999Z</time></trkpt><trkpt lat="39.27304274034114" lon="16.67956857999342"><ele>1129.5</ele><time>2026-04-12T18:20:13.999Z</time></trkpt><trkpt lat="39.27281912006471" lon="16.679655450969356"><ele>1128.0</ele><time>2026-04-12T18:20:14.999Z</time></trkpt><trkpt lat="39.27258474532731" lon="16.679702280606033"><ele>1128.0</ele><time>2026-04-12T18:20:15.999Z</time></trkpt><trkpt lat="39.27234726958722" lon="16.67972798327954"><ele>1128.0</ele><time>2026-04-12T18:20:16.999Z</time></trkpt><trkpt lat="39.27210472536564" lon="16.6797106979846"><ele>1120.0</ele><time>2026-04-12T18:20:17.999Z</time></trkpt><trkpt lat="39.27186848220178" lon="16.679670463025893"><ele>1112.0</ele><time>2026-04-12T18:20:18.999Z</time></trkpt><trkpt lat="39.27162761558581" lon="16.6796416560084"><ele>1105.5</ele><time>2026-04-12T18:20:19.999Z</time></trkpt><trkpt lat="39.271388318837836" lon="16.679612975450453"><ele>1099.0</ele><time>2026-04-12T18:20:20.999Z</time></trkpt><trkpt lat="39.27114889280588" lon="16.679589582383574"><ele>1099.0</ele><time>2026-04-12T18:20:21.998Z</time></trkpt><trkpt lat="39.27091747218184" lon="16.679566319148353"><ele>1099.0</ele><time>2026-04-12T18:20:22.998Z</time></trkpt><trkpt lat="39.270695442373366" lon="16.679544686243528"><ele>1097.0</ele><time>2026-04-12T18:20:23.998Z</time></trkpt><trkpt lat="39.27047796955842" lon="16.67952358103035"><ele>1095.0</ele><time>2026-04-12T18:20:24.998Z</time></trkpt><trkpt lat="39.27026350874941" lon="16.679499024030182"><ele>1093.0</ele><time>2026-04-12T18:20:25.998Z</time></trkpt><trkpt lat="39.2700559281463" lon="16.67947808188679"><ele>1093.0</ele><time>2026-04-12T18:20:26.998Z</time></trkpt><trkpt lat="39.26985521294502" lon="16.67945793947829"><ele>1093.0</ele><time>2026-04-12T18:20:27.998Z</time></trkpt><trkpt lat="39.269662823705715" lon="16.67943154075087"><ele>1093.0</ele><time>2026-04-12T18:20:28.998Z</time></trkpt><trkpt lat="39.26947958268913" lon="16.67941003238185"><ele>1094.6666666666665</ele><time>2026-04-12T18:20:29.998Z</time></trkpt><trkpt lat="39.269311989172515" lon="16.679394462168613"><ele>1096.3333333333333</ele><time>2026-04-12T18:20:30.998Z</time></trkpt><trkpt lat="39.26915625495248" lon="16.679380382904426"><ele>1098.0</ele><time>2026-04-12T18:20:31.998Z</time></trkpt><trkpt lat="39.26901048801636" lon="16.679365274343965"><ele>1096.5</ele><time>2026-04-12T18:20:32.998Z</time></trkpt><trkpt lat="39.268873274892336" lon="16.67934307470886"><ele>1095.0</ele><time>2026-04-12T18:20:33.998Z</time></trkpt><trkpt lat="39.268743077181355" lon="16.67932244896173"><ele>1093.5</ele><time>2026-04-12T18:20:34.998Z</time></trkpt><trkpt lat="39.268617455894926" lon="16.6793080761394"><ele>1092.0</ele><time>2026-04-12T18:20:35.998Z</time></trkpt><trkpt lat="39.2684995550452" lon="16.679297012646263"><ele>1092.0</ele><time>2026-04-12T18:20:36.998Z</time></trkpt><trkpt lat="39.2683962491387" lon="16.679299554698048"><ele>1092.0</ele><time>2026-04-12T18:20:37.998Z</time></trkpt><trkpt lat="39.268298430897914" lon="16.67931366265227"><ele>1092.0</ele><time>2026-04-12T18:20:38.998Z</time></trkpt><trkpt lat="39.26821079932883" lon="16.679332666204136"><ele>1092.0</ele><time>2026-04-12T18:20:39.998Z</time></trkpt><trkpt lat="39.26812795210774" lon="16.679342691994087"><ele>1092.0</ele><time>2026-04-12T18:20:40.998Z</time></trkpt><trkpt lat="39.26805417561348" lon="16.679333597548705"><ele>1092.0</ele><time>2026-04-12T18:20:41.998Z</time></trkpt><trkpt lat="39.267986781252304" lon="16.67929889511052"><ele>1091.8333333333333</ele><time>2026-04-12T18:20:42.998Z</time></trkpt><trkpt lat="39.26793636091865" lon="16.679221889993745"><ele>1091.6666666666667</ele><time>2026-04-12T18:20:43.998Z</time></trkpt><trkpt lat="39.26789513542273" lon="16.67914142186762"><ele>1091.5</ele><time>2026-04-12T18:20:44.998Z</time></trkpt><trkpt lat="39.26786135217729" lon="16.679063538574507"><ele>1091.3333333333335</ele><time>2026-04-12T18:20:45.998Z</time></trkpt><trkpt lat="39.26784183928684" lon="16.678948843589037"><ele>1091.1666666666667</ele><time>2026-04-12T18:20:47.998Z</time></trkpt><trkpt lat="39.26772597487753" lon="16.678956986434972"><ele>1091.0</ele><time>2026-04-12T18:20:48.998Z</time></trkpt><trkpt lat="39.26759813622836" lon="16.67902829962999"><ele>1091.0</ele><time>2026-04-12T18:20:50.998Z</time></trkpt><trkpt lat="39.26753467743085" lon="16.679086271488508"><ele>1091.0</ele><time>2026-04-12T18:20:51.998Z</time></trkpt><trkpt lat="39.267469194953314" lon="16.67914882308052"><ele>1091.0</ele><time>2026-04-12T18:20:52.998Z</time></trkpt><trkpt lat="39.267403049612575" lon="16.679221770711237"><ele>1091.0</ele><time>2026-04-12T18:20:54Z</time></trkpt><trkpt lat="39.26732180619842" lon="16.679278930373098"><ele>1091.0</ele><time>2026-04-12T18:20:55Z</time></trkpt><trkpt lat="39.26725701644126" lon="16.67936647815575"><ele>1091.0</ele><time>2026-04-12T18:20:56Z</time></trkpt><trkpt lat="39.26717961839646" lon="16.679438756263295"><ele>1090.8</ele><time>2026-04-12T18:20:57Z</time></trkpt><trkpt lat="39.26710119395167" lon="16.679508357124014"><ele>1090.6</ele><time>2026-04-12T18:20:58Z</time></trkpt><trkpt lat="39.267023491819096" lon="16.679578818555136"><ele>1090.4</ele><time>2026-04-12T18:20:59Z</time></trkpt><trkpt lat="39.26694675626253" lon="16.679647318995702"><ele>1090.2</ele><time>2026-04-12T18:21:00Z</time></trkpt><trkpt lat="39.26687209894107" lon="16.679712098141493"><ele>1090.0</ele><time>2026-04-12T18:21:01Z</time></trkpt><trkpt lat="39.26679176329743" lon="16.679771729030428"><ele>1090.0</ele><time>2026-04-12T18:21:02Z</time></trkpt><trkpt lat="39.266708867519654" lon="16.67982368542764"><ele>1090.0</ele><time>2026-04-12T18:21:03Z</time></trkpt><trkpt lat="39.26662483898534" lon="16.679869104154182"><ele>1090.0</ele><time>2026-04-12T18:21:04Z</time></trkpt><trkpt lat="39.26654655918871" lon="16.6799358030046"><ele>1090.0</ele><time>2026-04-12T18:21:05Z</time></trkpt><trkpt lat="39.266479338439936" lon="16.68002685774036"><ele>1090.0</ele><time>2026-04-12T18:21:06Z</time></trkpt><trkpt lat="39.26642772751966" lon="16.68013682401093"><ele>1087.0</ele><time>2026-04-12T18:21:07Z</time></trkpt><trkpt lat="39.266390961425685" lon="16.680267254880167"><ele>1084.0</ele><time>2026-04-12T18:21:08Z</time></trkpt><trkpt lat="39.26636850714509" lon="16.6804014760925"><ele>1081.0</ele><time>2026-04-12T18:21:09Z</time></trkpt><trkpt lat="39.26635487357808" lon="16.680545879972648"><ele>1078.0</ele><time>2026-04-12T18:21:10Z</time></trkpt><trkpt lat="39.26634614308216" lon="16.68069593711831"><ele>1075.0</ele><time>2026-04-12T18:21:11Z</time></trkpt><trkpt lat="39.266350978748385" lon="16.680848030234586"><ele>1075.0</ele><time>2026-04-12T18:21:12Z</time></trkpt><trkpt lat="39.26636177481047" lon="16.681004898799753"><ele>1075.0</ele><time>2026-04-12T18:21:13Z</time></trkpt><trkpt lat="39.26636598525625" lon="16.68115618323655"><ele>1075.0</ele><time>2026-04-12T18:21:14Z</time></trkpt><trkpt lat="39.26634628863942" lon="16.681306976821308"><ele>1075.0</ele><time>2026-04-12T18:21:15Z</time></trkpt><trkpt lat="39.26629064090026" lon="16.68145740610275"><ele>1076.75</ele><time>2026-04-12T18:21:16Z</time></trkpt><trkpt lat="39.26621202685088" lon="16.68159431235749"><ele>1078.5</ele><time>2026-04-12T18:21:17Z</time></trkpt><trkpt lat="39.266129934813236" lon="16.68171981395744"><ele>1080.25</ele><time>2026-04-12T18:21:18Z</time></trkpt><trkpt lat="39.26606430992229" lon="16.681846939167357"><ele>1082.0</ele><time>2026-04-12T18:21:19Z</time></trkpt><trkpt lat="39.266033067552215" lon="16.681974212361506"><ele>1083.6</ele><time>2026-04-12T18:21:20Z</time></trkpt><trkpt lat="39.26604319927224" lon="16.682099039618766"><ele>1085.2</ele><time>2026-04-12T18:21:21Z</time></trkpt><trkpt lat="39.266086896904355" lon="16.682221139052636"><ele>1086.8</ele><time>2026-04-12T18:21:22Z</time></trkpt><trkpt lat="39.26615634472027" lon="16.682338952302466"><ele>1088.4</ele><time>2026-04-12T18:21:23Z</time></trkpt><trkpt lat="39.26623067133745" lon="16.68245246878449"><ele>1090.0</ele><time>2026-04-12T18:21:24Z</time></trkpt><trkpt lat="39.26630901481639" lon="16.68256302262993"><ele>1090.0</ele><time>2026-04-12T18:21:25Z</time></trkpt><trkpt lat="39.26637570747047" lon="16.68268670496007"><ele>1090.0</ele><time>2026-04-12T18:21:26Z</time></trkpt><trkpt lat="39.26642773809217" lon="16.6828246606688"><ele>1090.0</ele><time>2026-04-12T18:21:27Z</time></trkpt><trkpt lat="39.26645802826326" lon="16.682978175340104"><ele>1090.0</ele><time>2026-04-12T18:21:28Z</time></trkpt><trkpt lat="39.266468273608446" lon="16.683137287774873"><ele>1091.25</ele><time>2026-04-12T18:21:29Z</time></trkpt><trkpt lat="39.26644632059109" lon="16.683295694128724"><ele>1092.5</ele><time>2026-04-12T18:21:30Z</time></trkpt><trkpt lat="39.266393351089974" lon="16.683446101257342"><ele>1093.75</ele><time>2026-04-12T18:21:31Z</time></trkpt><trkpt lat="39.266333029666" lon="16.683593888055483"><ele>1095.0</ele><time>2026-04-12T18:21:32Z</time></trkpt><trkpt lat="39.26629066782609" lon="16.683750353265975"><ele>1095.0</ele><time>2026-04-12T18:21:33Z</time></trkpt><trkpt lat="39.26626562060233" lon="16.683907401444223"><ele>1095.0</ele><time>2026-04-12T18:21:34Z</time></trkpt><trkpt lat="39.26624014084767" lon="16.684052765749712"><ele>1095.0</ele><time>2026-04-12T18:21:35Z</time></trkpt><trkpt lat="39.266187183152496" lon="16.684168285965065"><ele>1095.0</ele><time>2026-04-12T18:21:36Z</time></trkpt><trkpt lat="39.266103848829204" lon="16.68425505320065"><ele>1095.0</ele><time>2026-04-12T18:21:37Z</time></trkpt><trkpt lat="39.26599993313473" lon="16.68431696398229"><ele>1095.0</ele><time>2026-04-12T18:21:37.999Z</time></trkpt><trkpt lat="39.26589388292514" lon="16.684366508459636"><ele>1095.0</ele><time>2026-04-12T18:21:38.999Z</time></trkpt><trkpt lat="39.26577459459604" lon="16.684419503577267"><ele>1095.0</ele><time>2026-04-12T18:21:39.999Z</time></trkpt><trkpt lat="39.26567333975879" lon="16.684491656020576"><ele>1096.4</ele><time>2026-04-12T18:21:40.999Z</time></trkpt><trkpt lat="39.26558322288494" lon="16.684587448995863"><ele>1097.8</ele><time>2026-04-12T18:21:41.999Z</time></trkpt><trkpt lat="39.26551344231338" lon="16.68470399078253"><ele>1099.2</ele><time>2026-04-12T18:21:42.999Z</time></trkpt><trkpt lat="39.26547347162686" lon="16.684831375562837"><ele>1100.6</ele><time>2026-04-12T18:21:43.999Z</time></trkpt><trkpt lat="39.2654610564441" lon="16.684966905452455"><ele>1102.0</ele><time>2026-04-12T18:21:44.999Z</time></trkpt><trkpt lat="39.26546037498547" lon="16.68509335341182"><ele>1102.0</ele><time>2026-04-12T18:21:45.999Z</time></trkpt><trkpt lat="39.265447094376334" lon="16.68522318479735"><ele>1102.0</ele><time>2026-04-12T18:21:46.999Z</time></trkpt><trkpt lat="39.26543427522763" lon="16.685356093490395"><ele>1102.0</ele><time>2026-04-12T18:21:47.999Z</time></trkpt><trkpt lat="39.26542252498701" lon="16.68549926556414"><ele>1102.0</ele><time>2026-04-12T18:21:48.999Z</time></trkpt><trkpt lat="39.26541172880484" lon="16.685652654953255"><ele>1102.0</ele><time>2026-04-12T18:21:49.999Z</time></trkpt><trkpt lat="39.265401084484196" lon="16.6858014982227"><ele>1101.75</ele><time>2026-04-12T18:21:50.999Z</time></trkpt><trkpt lat="39.26538947440119" lon="16.685962550852373"><ele>1101.5</ele><time>2026-04-12T18:21:51.999Z</time></trkpt><trkpt lat="39.26536756800988" lon="16.686130031737484"><ele>1101.25</ele><time>2026-04-12T18:21:52.999Z</time></trkpt><trkpt lat="39.26530813774282" lon="16.686285182542544"><ele>1101.0</ele><time>2026-04-12T18:21:53.999Z</time></trkpt><trkpt lat="39.26522595095789" lon="16.686411933481715"><ele>1100.5</ele><time>2026-04-12T18:21:54.999Z</time></trkpt><trkpt lat="39.265102219554315" lon="16.68650249952139"><ele>1100.0</ele><time>2026-04-12T18:21:55.999Z</time></trkpt><trkpt lat="39.26498121082416" lon="16.686562222206497"><ele>1099.5</ele><time>2026-04-12T18:21:56.999Z</time></trkpt><trkpt lat="39.26488706204572" lon="16.68661992123932"><ele>1099.0</ele><time>2026-04-12T18:21:57.999Z</time></trkpt><trkpt lat="39.26479720449381" lon="16.686670570814538"><ele>1101.8</ele><time>2026-04-12T18:21:58.999Z</time></trkpt><trkpt lat="39.26472516671679" lon="16.6867438591916"><ele>1104.6000000000001</ele><time>2026-04-12T18:21:59.999Z</time></trkpt><trkpt lat="39.264674445904056" lon="16.686842038347848"><ele>1107.4</ele><time>2026-04-12T18:22:00.999Z</time></trkpt><trkpt lat="39.264642097736505" lon="16.686949200272483"><ele>1110.2</ele><time>2026-04-12T18:22:01.999Z</time></trkpt><trkpt lat="39.26462341181852" lon="16.687066080624625"><ele>1113.0</ele><time>2026-04-12T18:22:02.999Z</time></trkpt><trkpt lat="39.264609282775126" lon="16.68717535914567"><ele>1113.4285714285713</ele><time>2026-04-12T18:22:03.999Z</time></trkpt><trkpt lat="39.26459292980247" lon="16.687281452596004"><ele>1113.857142857143</ele><time>2026-04-12T18:22:04.999Z</time></trkpt><trkpt lat="39.264567394805574" lon="16.687385287249093"><ele>1114.2857142857142</ele><time>2026-04-12T18:22:05.999Z</time></trkpt><trkpt lat="39.26455076057691" lon="16.687478736819898"><ele>1114.7142857142858</ele><time>2026-04-12T18:22:06.999Z</time></trkpt><trkpt lat="39.26452865140806" lon="16.68756802423189"><ele>1115.142857142857</ele><time>2026-04-12T18:22:07.999Z</time></trkpt><trkpt lat="39.26452063130732" lon="16.68765071324847"><ele>1115.5714285714284</ele><time>2026-04-12T18:22:08.999Z</time></trkpt><trkpt lat="39.26449624562858" lon="16.687725945491945"><ele>1116.0</ele><time>2026-04-12T18:22:09.999Z</time></trkpt><trkpt lat="39.26447170483721" lon="16.687837119669386"><ele>1114.3999999999999</ele><time>2026-04-12T18:22:11.999Z</time></trkpt><trkpt lat="39.264448887415234" lon="16.687945690496086"><ele>1112.8</ele><time>2026-04-12T18:22:13.999Z</time></trkpt><trkpt lat="39.264429644779085" lon="16.68803884236162"><ele>1111.1999999999998</ele><time>2026-04-12T18:22:14.999Z</time></trkpt><trkpt lat="39.26440429000502" lon="16.68816158253684"><ele>1109.6</ele><time>2026-04-12T18:22:15.999Z</time></trkpt><trkpt lat="39.26437293245744" lon="16.6883117411148"><ele>1108.0</ele><time>2026-04-12T18:22:16.999Z</time></trkpt><trkpt lat="39.26434973662751" lon="16.688471377840006"><ele>1106.5</ele><time>2026-04-12T18:22:17.999Z</time></trkpt><trkpt lat="39.26430208584498" lon="16.68862697500476"><ele>1105.0</ele><time>2026-04-12T18:22:18.999Z</time></trkpt><trkpt lat="39.264256445307126" lon="16.68877609236609"><ele>1103.5</ele><time>2026-04-12T18:22:19.999Z</time></trkpt><trkpt lat="39.26420127492703" lon="16.688902736176015"><ele>1102.0</ele><time>2026-04-12T18:22:20.999Z</time></trkpt><trkpt lat="39.26414035279989" lon="16.689007243433007"><ele>1102.0</ele><time>2026-04-12T18:22:21.999Z</time></trkpt><trkpt lat="39.264074485723214" lon="16.689096270623562"><ele>1102.0</ele><time>2026-04-12T18:22:22.999Z</time></trkpt><trkpt lat="39.264000681374704" lon="16.68918159218096"><ele>1102.0</ele><time>2026-04-12T18:22:23.999Z</time></trkpt><trkpt lat="39.26394462315293" lon="16.689283185504177"><ele>1102.0</ele><time>2026-04-12T18:22:24.999Z</time></trkpt><trkpt lat="39.26391371202306" lon="16.689397733653117"><ele>1102.0</ele><time>2026-04-12T18:22:25.999Z</time></trkpt><trkpt lat="39.263916496345836" lon="16.68951721345435"><ele>1101.0</ele><time>2026-04-12T18:22:26.999Z</time></trkpt><trkpt lat="39.26394496118398" lon="16.689624426575502"><ele>1100.0</ele><time>2026-04-12T18:22:27.999Z</time></trkpt><trkpt lat="39.263989862162596" lon="16.68972112696978"><ele>1099.0</ele><time>2026-04-12T18:22:28.999Z</time></trkpt><trkpt lat="39.26402479846326" lon="16.68981622315386"><ele>1098.0</ele><time>2026-04-12T18:22:29.999Z</time></trkpt><trkpt lat="39.2640271713074" lon="16.68997948024105"><ele>1097.0</ele><time>2026-04-12T18:22:31.998Z</time></trkpt><trkpt lat="39.264015867028924" lon="16.69007025702839"><ele>1097.0</ele><time>2026-04-12T18:22:32.998Z</time></trkpt><trkpt lat="39.26399162388013" lon="16.69016483818227"><ele>1097.0</ele><time>2026-04-12T18:22:33.998Z</time></trkpt><trkpt lat="39.263954454245166" lon="16.690254266697874"><ele>1097.0</ele><time>2026-04-12T18:22:34.998Z</time></trkpt><trkpt lat="39.2638726444866" lon="16.6903095307134"><ele>1097.0</ele><time>2026-04-12T18:22:35.998Z</time></trkpt><trkpt lat="39.26378435582799" lon="16.690370651657076"><ele>1097.0</ele><time>2026-04-12T18:22:36.998Z</time></trkpt><trkpt lat="39.26369315555809" lon="16.690451615524804"><ele>1097.25</ele><time>2026-04-12T18:22:37.998Z</time></trkpt><trkpt lat="39.26359660930826" lon="16.690516233481297"><ele>1097.5</ele><time>2026-04-12T18:22:38.998Z</time></trkpt><trkpt lat="39.26350970356923" lon="16.690589708777633"><ele>1097.75</ele><time>2026-04-12T18:22:39.998Z</time></trkpt><trkpt lat="39.263408653544175" lon="16.690683500848095"><ele>1098.0</ele><time>2026-04-12T18:22:40.998Z</time></trkpt><trkpt lat="39.26332415721437" lon="16.690836311040965"><ele>1098.0</ele><time>2026-04-12T18:22:41.998Z</time></trkpt><trkpt lat="39.26329884401076" lon="16.69103277388348"><ele>1098.0</ele><time>2026-04-12T18:22:42.998Z</time></trkpt><trkpt lat="39.2632806333508" lon="16.69121529457012"><ele>1098.0</ele><time>2026-04-12T18:22:43.998Z</time></trkpt><trkpt lat="39.26326185798029" lon="16.691388368439544"><ele>1098.0</ele><time>2026-04-12T18:22:44.998Z</time></trkpt><trkpt lat="39.26322493964025" lon="16.691540644624894"><ele>1096.8</ele><time>2026-04-12T18:22:45.998Z</time></trkpt><trkpt lat="39.26315429955635" lon="16.691659239454385"><ele>1095.6</ele><time>2026-04-12T18:22:46.998Z</time></trkpt><trkpt lat="39.26305234176136" lon="16.69171827463222"><ele>1094.4</ele><time>2026-04-12T18:22:47.998Z</time></trkpt><trkpt lat="39.262968022793586" lon="16.691787116916306"><ele>1093.2</ele><time>2026-04-12T18:22:48.998Z</time></trkpt><trkpt lat="39.26285738407005" lon="16.691823761668385"><ele>1092.0</ele><time>2026-04-12T18:22:49.998Z</time></trkpt><trkpt lat="39.262761300555916" lon="16.691868984233125"><ele>1092.0</ele><time>2026-04-12T18:22:50.998Z</time></trkpt><trkpt lat="39.262682170003025" lon="16.691919621751747"><ele>1092.0</ele><time>2026-04-12T18:22:51.998Z</time></trkpt><trkpt lat="39.262613187425856" lon="16.69196506337382"><ele>1092.0</ele><time>2026-04-12T18:22:52.998Z</time></trkpt><trkpt lat="39.26255358616925" lon="16.69200697308891"><ele>1092.0</ele><time>2026-04-12T18:22:53.998Z</time></trkpt><trkpt lat="39.26248223331416" lon="16.692046652400453"><ele>1092.0</ele><time>2026-04-12T18:22:54.998Z</time></trkpt><trkpt lat="39.26240641903886" lon="16.69208355697308"><ele>1092.0</ele><time>2026-04-12T18:22:55.998Z</time></trkpt><trkpt lat="39.26233135792531" lon="16.692137687772803"><ele>1090.2</ele><time>2026-04-12T18:22:56.998Z</time></trkpt><trkpt lat="39.26224887297522" lon="16.692182793591257"><ele>1088.4</ele><time>2026-04-12T18:22:57.998Z</time></trkpt><trkpt lat="39.26216811556419" lon="16.69222873357723"><ele>1086.6</ele><time>2026-04-12T18:22:58.998Z</time></trkpt><trkpt lat="39.26208560680312" lon="16.692283511799342"><ele>1084.8</ele><time>2026-04-12T18:23:00Z</time></trkpt><trkpt lat="39.26200965697303" lon="16.69235482809767"><ele>1083.0</ele><time>2026-04-12T18:23:01Z</time></trkpt><trkpt lat="39.261955556891685" lon="16.692457974608413"><ele>1083.0</ele><time>2026-04-12T18:23:02Z</time></trkpt><trkpt lat="39.26191993239278" lon="16.692580485424248"><ele>1083.0</ele><time>2026-04-12T18:23:03Z</time></trkpt><trkpt lat="39.261895054803304" lon="16.692702746027802"><ele>1083.0</ele><time>2026-04-12T18:23:04Z</time></trkpt><trkpt lat="39.26185942117115" lon="16.6928114357644"><ele>1083.0</ele><time>2026-04-12T18:23:05Z</time></trkpt><trkpt lat="39.26178952372361" lon="16.692897971275734"><ele>1083.0</ele><time>2026-04-12T18:23:06Z</time></trkpt><trkpt lat="39.26169875218189" lon="16.692950650555243"><ele>1083.8</ele><time>2026-04-12T18:23:07Z</time></trkpt><trkpt lat="39.261602991214176" lon="16.692920168309207"><ele>1084.6</ele><time>2026-04-12T18:23:08Z</time></trkpt><trkpt lat="39.2615167244263" lon="16.69287847122756"><ele>1085.4</ele><time>2026-04-12T18:23:09Z</time></trkpt><trkpt lat="39.26142513550041" lon="16.69283662465118"><ele>1086.2</ele><time>2026-04-12T18:23:10Z</time></trkpt><trkpt lat="39.26133426010264" lon="16.692794838221662"><ele>1087.0</ele><time>2026-04-12T18:23:11Z</time></trkpt><trkpt lat="39.26126782335036" lon="16.692706353148377"><ele>1087.0</ele><time>2026-04-12T18:23:12Z</time></trkpt><trkpt lat="39.26117857473636" lon="16.692652940763345"><ele>1087.0</ele><time>2026-04-12T18:23:13Z</time></trkpt><trkpt lat="39.26110066437492" lon="16.692590514790055"><ele>1087.0</ele><time>2026-04-12T18:23:14Z</time></trkpt><trkpt lat="39.26101498951435" lon="16.69254218538515"><ele>1087.0</ele><time>2026-04-12T18:23:15Z</time></trkpt><trkpt lat="39.26093450911345" lon="16.69248819883826"><ele>1087.0</ele><time>2026-04-12T18:23:16Z</time></trkpt><trkpt lat="39.26085230267626" lon="16.69244418809774"><ele>1087.0</ele><time>2026-04-12T18:23:17Z</time></trkpt><trkpt lat="39.2607675612031" lon="16.692397966377854"><ele>1087.0</ele><time>2026-04-12T18:23:18Z</time></trkpt><trkpt lat="39.260694855112" lon="16.692330093815304"><ele>1087.0</ele><time>2026-04-12T18:23:19Z</time></trkpt><trkpt lat="39.26061260846312" lon="16.692292907055304"><ele>1087.0</ele><time>2026-04-12T18:23:20Z</time></trkpt><trkpt lat="39.260542479299495" lon="16.692243168375523"><ele>1087.0</ele><time>2026-04-12T18:23:21Z</time></trkpt><trkpt lat="39.260473894668294" lon="16.692183446032253"><ele>1087.0</ele><time>2026-04-12T18:23:22Z</time></trkpt><trkpt lat="39.26041638995803" lon="16.692102969305555"><ele>1086.2</ele><time>2026-04-12T18:23:23Z</time></trkpt><trkpt lat="39.260323003907466" lon="16.69203678342642"><ele>1085.4</ele><time>2026-04-12T18:23:24Z</time></trkpt><trkpt lat="39.26025154348904" lon="16.691940874712042"><ele>1084.6</ele><time>2026-04-12T18:23:25Z</time></trkpt><trkpt lat="39.26016601433753" lon="16.691859689088673"><ele>1083.8</ele><time>2026-04-12T18:23:26Z</time></trkpt><trkpt lat="39.26009138195577" lon="16.69177264021867"><ele>1083.0</ele><time>2026-04-12T18:23:27Z</time></trkpt><trkpt lat="39.2600213072961" lon="16.691700314589877"><ele>1083.0</ele><time>2026-04-12T18:23:28Z</time></trkpt><trkpt lat="39.25996175909047" lon="16.691635242564146"><ele>1083.0</ele><time>2026-04-12T18:23:29Z</time></trkpt><trkpt lat="39.25990581530265" lon="16.691550823188088"><ele>1083.0</ele><time>2026-04-12T18:23:30Z</time></trkpt><trkpt lat="39.25986138756144" lon="16.69144141367173"><ele>1083.0</ele><time>2026-04-12T18:23:31Z</time></trkpt><trkpt lat="39.25982488436436" lon="16.69130389684874"><ele>1083.0</ele><time>2026-04-12T18:23:32Z</time></trkpt><trkpt lat="39.25981055510129" lon="16.691154327845194"><ele>1082.4</ele><time>2026-04-12T18:23:33Z</time></trkpt><trkpt lat="39.25979120775061" lon="16.69101322818162"><ele>1081.8</ele><time>2026-04-12T18:23:34Z</time></trkpt><trkpt lat="39.259769961598174" lon="16.690887300495017"><ele>1081.2</ele><time>2026-04-12T18:23:35Z</time></trkpt><trkpt lat="39.259745784572445" lon="16.690782251029738"><ele>1080.6</ele><time>2026-04-12T18:23:35.999Z</time></trkpt><trkpt lat="39.25971630423658" lon="16.69068627068099"><ele>1080.0</ele><time>2026-04-12T18:23:36.999Z</time></trkpt><trkpt lat="39.25966700224065" lon="16.69059901365511"><ele>1080.0</ele><time>2026-04-12T18:23:37.999Z</time></trkpt><trkpt lat="39.25960073855116" lon="16.69053034007672"><ele>1080.0</ele><time>2026-04-12T18:23:38.999Z</time></trkpt><trkpt lat="39.259503341876695" lon="16.690492403382603"><ele>1080.0</ele><time>2026-04-12T18:23:39.999Z</time></trkpt><trkpt lat="39.25939543308695" lon="16.690465435043567"><ele>1080.0</ele><time>2026-04-12T18:23:40.999Z</time></trkpt><trkpt lat="39.259292523268584" lon="16.690426767894717"><ele>1080.0</ele><time>2026-04-12T18:23:41.999Z</time></trkpt><trkpt lat="39.25917881185672" lon="16.69039398040023"><ele>1080.0</ele><time>2026-04-12T18:23:42.999Z</time></trkpt><trkpt lat="39.259055720864396" lon="16.69036881131258"><ele>1080.0</ele><time>2026-04-12T18:23:43.999Z</time></trkpt><trkpt lat="39.25893752055223" lon="16.690348147144086"><ele>1080.0</ele><time>2026-04-12T18:23:44.999Z</time></trkpt><trkpt lat="39.25881157875064" lon="16.69033511775553"><ele>1080.0</ele><time>2026-04-12T18:23:45.999Z</time></trkpt><trkpt lat="39.258683764466504" lon="16.690334594959268"><ele>1079.0</ele><time>2026-04-12T18:23:46.999Z</time></trkpt><trkpt lat="39.25856116015071" lon="16.69034658879576"><ele>1078.0</ele><time>2026-04-12T18:23:47.999Z</time></trkpt><trkpt lat="39.25843725474014" lon="16.69034596671456"><ele>1077.0</ele><time>2026-04-12T18:23:48.999Z</time></trkpt><trkpt lat="39.25832474550587" lon="16.69034567520239"><ele>1076.0</ele><time>2026-04-12T18:23:49.999Z</time></trkpt><trkpt lat="39.25821400704094" lon="16.69034550575778"><ele>1072.6</ele><time>2026-04-12T18:23:50.999Z</time></trkpt><trkpt lat="39.25811269891995" lon="16.69034492457331"><ele>1069.1999999999998</ele><time>2026-04-12T18:23:51.999Z</time></trkpt><trkpt lat="39.25802427280233" lon="16.690346778942175"><ele>1065.8000000000002</ele><time>2026-04-12T18:23:52.999Z</time></trkpt><trkpt lat="39.25792226136114" lon="16.690346267977436"><ele>1062.4</ele><time>2026-04-12T18:23:53.999Z</time></trkpt><trkpt lat="39.25782698799678" lon="16.690351760379233"><ele>1059.0</ele><time>2026-04-12T18:23:54.999Z</time></trkpt><trkpt lat="39.257733379281234" lon="16.690391314908197"><ele>1059.0</ele><time>2026-04-12T18:23:55.999Z</time></trkpt><trkpt lat="39.25765509062175" lon="16.690472810735862"><ele>1059.0</ele><time>2026-04-12T18:23:56.999Z</time></trkpt><trkpt lat="39.2576026642246" lon="16.69058910921936"><ele>1059.0</ele><time>2026-04-12T18:23:57.999Z</time></trkpt><trkpt lat="39.25756608409895" lon="16.690718903268273"><ele>1059.0</ele><time>2026-04-12T18:23:58.999Z</time></trkpt><trkpt lat="39.25753568087517" lon="16.690851591630942"><ele>1059.0</ele><time>2026-04-12T18:23:59.999Z</time></trkpt><trkpt lat="39.25748411413518" lon="16.69097643392465"><ele>1060.6000000000001</ele><time>2026-04-12T18:24:00.999Z</time></trkpt><trkpt lat="39.25744358800552" lon="16.69111262241558"><ele>1062.2</ele><time>2026-04-12T18:24:01.999Z</time></trkpt><trkpt lat="39.257407929831054" lon="16.69123968215582"><ele>1063.8000000000002</ele><time>2026-04-12T18:24:02.999Z</time></trkpt><trkpt lat="39.2573755480535" lon="16.691362948528763"><ele>1065.4</ele><time>2026-04-12T18:24:03.999Z</time></trkpt><trkpt lat="39.257349306879675" lon="16.691466488573568"><ele>1067.0</ele><time>2026-04-12T18:24:04.999Z</time></trkpt><trkpt lat="39.25734290446671" lon="16.691552209671833"><ele>1067.0</ele><time>2026-04-12T18:24:05.999Z</time></trkpt><trkpt lat="39.25732136223427" lon="16.691651965221986"><ele>1067.0</ele><time>2026-04-12T18:24:07.999Z</time></trkpt><trkpt lat="39.257281478267764" lon="16.691816355933714"><ele>1067.0</ele><time>2026-04-12T18:24:09.999Z</time></trkpt><trkpt lat="39.25726380029395" lon="16.69192335580135"><ele>1067.0</ele><time>2026-04-12T18:24:10.999Z</time></trkpt><trkpt lat="39.257238853622695" lon="16.692047673043874"><ele>1067.0</ele><time>2026-04-12T18:24:11.999Z</time></trkpt><trkpt lat="39.25720902416078" lon="16.692188610520436"><ele>1064.0</ele><time>2026-04-12T18:24:12.999Z</time></trkpt><trkpt lat="39.25717578363365" lon="16.692324429276475"><ele>1061.0</ele><time>2026-04-12T18:24:13.999Z</time></trkpt><trkpt lat="39.25713663958141" lon="16.692454387205444"><ele>1058.0</ele><time>2026-04-12T18:24:14.999Z</time></trkpt><trkpt lat="39.257075331955924" lon="16.692568063718852"><ele>1055.0</ele><time>2026-04-12T18:24:15.999Z</time></trkpt><trkpt lat="39.257024717676366" lon="16.692694355444615"><ele>1052.0</ele><time>2026-04-12T18:24:16.999Z</time></trkpt><trkpt lat="39.25696052438091" lon="16.69281020678675"><ele>1052.0</ele><time>2026-04-12T18:24:17.999Z</time></trkpt><trkpt lat="39.25690172346571" lon="16.692923576562386"><ele>1052.0</ele><time>2026-04-12T18:24:18.999Z</time></trkpt><trkpt lat="39.2568542353925" lon="16.693015501797966"><ele>1052.0</ele><time>2026-04-12T18:24:19.999Z</time></trkpt><trkpt lat="39.25681422701709" lon="16.69311381502836"><ele>1052.0</ele><time>2026-04-12T18:24:20.999Z</time></trkpt><trkpt lat="39.256784695754476" lon="16.693210467475367"><ele>1052.0</ele><time>2026-04-12T18:24:21.999Z</time></trkpt><trkpt lat="39.256765403436795" lon="16.693316373785375"><ele>1052.0</ele><time>2026-04-12T18:24:22.999Z</time></trkpt><trkpt lat="39.256755967946" lon="16.69342465182236"><ele>1052.0</ele><time>2026-04-12T18:24:23.999Z</time></trkpt><trkpt lat="39.25674962475044" lon="16.69353379457966"><ele>1052.0</ele><time>2026-04-12T18:24:24.999Z</time></trkpt><trkpt lat="39.256746522128076" lon="16.693649854641137"><ele>1052.0</ele><time>2026-04-12T18:24:25.999Z</time></trkpt><trkpt lat="39.25674016137609" lon="16.693761531040224"><ele>1052.0</ele><time>2026-04-12T18:24:26.999Z</time></trkpt><trkpt lat="39.2567296484127" lon="16.693873029629902"><ele>1052.0</ele><time>2026-04-12T18:24:27.999Z</time></trkpt><trkpt lat="39.256722097517255" lon="16.693984127473517"><ele>1052.0</ele><time>2026-04-12T18:24:28.999Z</time></trkpt><trkpt lat="39.25670066102701" lon="16.69409296191997"><ele>1052.1666666666667</ele><time>2026-04-12T18:24:29.998Z</time></trkpt><trkpt lat="39.25666974084153" lon="16.694205720003158"><ele>1052.3333333333335</ele><time>2026-04-12T18:24:30.998Z</time></trkpt><trkpt lat="39.25662497022533" lon="16.694292680953794"><ele>1052.5</ele><time>2026-04-12T18:24:31.998Z</time></trkpt><trkpt lat="39.25656491280472" lon="16.694363135045855"><ele>1052.6666666666667</ele><time>2026-04-12T18:24:32.998Z</time></trkpt><trkpt lat="39.256511073139926" lon="16.694428406282267"><ele>1052.8333333333333</ele><time>2026-04-12T18:24:33.998Z</time></trkpt><trkpt lat="39.256466185896926" lon="16.694512935433643"><ele>1053.0</ele><time>2026-04-12T18:24:34.998Z</time></trkpt><trkpt lat="39.25640462242991" lon="16.694548184998098"><ele>1053.0</ele><time>2026-04-12T18:24:35.998Z</time></trkpt><trkpt lat="39.25633178967689" lon="16.694595721397295"><ele>1053.0</ele><time>2026-04-12T18:24:38.998Z</time></trkpt><trkpt lat="39.256266408888834" lon="16.694483008435682"><ele>1053.0</ele><time>2026-04-12T18:24:41.998Z</time></trkpt><trkpt lat="39.256209219231664" lon="16.694423568771608"><ele>1053.0</ele><time>2026-04-12T18:24:42.998Z</time></trkpt><trkpt lat="39.256172300141735" lon="16.6943376280099"><ele>1053.0</ele><time>2026-04-12T18:24:43.998Z</time></trkpt><trkpt lat="39.25612294381517" lon="16.69425882712968"><ele>1053.0</ele><time>2026-04-12T18:24:44.998Z</time></trkpt><trkpt lat="39.25607502342585" lon="16.69417571184842"><ele>1053.6</ele><time>2026-04-12T18:24:45.998Z</time></trkpt><trkpt lat="39.2560339815557" lon="16.694109293171948"><ele>1054.1999999999998</ele><time>2026-04-12T18:24:46.998Z</time></trkpt><trkpt lat="39.25597111303819" lon="16.694021975603373"><ele>1054.8</ele><time>2026-04-12T18:24:48.998Z</time></trkpt><trkpt lat="39.25588820664381" lon="16.693904372102654"><ele>1055.3999999999999</ele><time>2026-04-12T18:24:50.998Z</time></trkpt><trkpt lat="39.25582227113799" lon="16.69383894501244"><ele>1056.0</ele><time>2026-04-12T18:24:51.998Z</time></trkpt><trkpt lat="39.2557552811506" lon="16.693764473198193"><ele>1056.0</ele><time>2026-04-12T18:24:52.998Z</time></trkpt><trkpt lat="39.255678865108635" lon="16.693680005997308"><ele>1056.0</ele><time>2026-04-12T18:24:53.998Z</time></trkpt><trkpt lat="39.2555802294245" lon="16.69359461719756"><ele>1056.0</ele><time>2026-04-12T18:24:54.998Z</time></trkpt><trkpt lat="39.255481847722606" lon="16.693492677813243"><ele>1056.0</ele><time>2026-04-12T18:24:55.998Z</time></trkpt><trkpt lat="39.25538870883704" lon="16.693403773440206"><ele>1055.3999999999999</ele><time>2026-04-12T18:24:56.998Z</time></trkpt><trkpt lat="39.25530865324673" lon="16.693311762628543"><ele>1054.8</ele><time>2026-04-12T18:24:57.998Z</time></trkpt><trkpt lat="39.25525609175398" lon="16.693212359433435"><ele>1054.1999999999998</ele><time>2026-04-12T18:24:58.998Z</time></trkpt><trkpt lat="39.25520335921501" lon="16.693136945383326"><ele>1053.6</ele><time>2026-04-12T18:24:59.998Z</time></trkpt><trkpt lat="39.25514315439907" lon="16.693111295799525"><ele>1053.0</ele><time>2026-04-12T18:25:00.998Z</time></trkpt><trkpt lat="39.25501911783816" lon="16.693220422814743"><ele>1053.0</ele><time>2026-04-12T18:25:02.998Z</time></trkpt><trkpt lat="39.25496202709033" lon="16.693285991945903"><ele>1053.0</ele><time>2026-04-12T18:25:03.998Z</time></trkpt><trkpt lat="39.254899468619485" lon="16.693316960905424"><ele>1053.0</ele><time>2026-04-12T18:25:04.998Z</time></trkpt><trkpt lat="39.25494417595176" lon="16.693530299677033"><ele>1053.0</ele><time>2026-04-12T18:25:08Z</time></trkpt><trkpt lat="39.254981000796455" lon="16.693613947414033"><ele>1053.0</ele><time>2026-04-12T18:25:09Z</time></trkpt><trkpt lat="39.25502851977751" lon="16.693755255875196"><ele>1052.2</ele><time>2026-04-12T18:25:11Z</time></trkpt><trkpt lat="39.25504177921408" lon="16.693850058480102"><ele>1051.4</ele><time>2026-04-12T18:25:13Z</time></trkpt><trkpt lat="39.25500902726114" lon="16.69392149353621"><ele>1050.6000000000001</ele><time>2026-04-12T18:25:15Z</time></trkpt><trkpt lat="39.25492912557295" lon="16.69400400834604"><ele>1049.8</ele><time>2026-04-12T18:25:18Z</time></trkpt><trkpt lat="39.254859889410326" lon="16.694103631951936"><ele>1049.0</ele><time>2026-04-12T18:25:20Z</time></trkpt><trkpt lat="39.25478647766711" lon="16.694229681353004"><ele>1046.5</ele><time>2026-04-12T18:25:22Z</time></trkpt><trkpt lat="39.25474199774371" lon="16.69430252749928"><ele>1044.0</ele><time>2026-04-12T18:25:23Z</time></trkpt><trkpt lat="39.254678929687245" lon="16.694413080275233"><ele>1041.5</ele><time>2026-04-12T18:25:25Z</time></trkpt><trkpt lat="39.25462573709748" lon="16.694508803770443"><ele>1039.0</ele><time>2026-04-12T18:25:27Z</time></trkpt><trkpt lat="39.25456034545672" lon="16.69461572872643"><ele>1036.5</ele><time>2026-04-12T18:25:29Z</time></trkpt><trkpt lat="39.25449520049371" lon="16.694628738198357"><ele>1034.0</ele><time>2026-04-12T18:25:29.999Z</time></trkpt><trkpt lat="39.25435683469989" lon="16.694594680942487"><ele>1034.0</ele><time>2026-04-12T18:25:31.999Z</time></trkpt><trkpt lat="39.25427624338807" lon="16.69456640107602"><ele>1034.0</ele><time>2026-04-12T18:25:32.999Z</time></trkpt><trkpt lat="39.254187656852515" lon="16.69453542659695"><ele>1034.0</ele><time>2026-04-12T18:25:33.999Z</time></trkpt><trkpt lat="39.254104378704156" lon="16.69449749685914"><ele>1034.0</ele><time>2026-04-12T18:25:34.999Z</time></trkpt><trkpt lat="39.25402237084948" lon="16.69446555386718"><ele>1034.0</ele><time>2026-04-12T18:25:35.999Z</time></trkpt><trkpt lat="39.25395198927526" lon="16.69443336247202"><ele>1034.0</ele><time>2026-04-12T18:25:36.999Z</time></trkpt><trkpt lat="39.253882807103025" lon="16.694424975800626"><ele>1031.0</ele><time>2026-04-12T18:25:37.999Z</time></trkpt><trkpt lat="39.25382105031949" lon="16.69444276035442"><ele>1028.0</ele><time>2026-04-12T18:25:38.999Z</time></trkpt><trkpt lat="39.253767127351615" lon="16.694487887918314"><ele>1025.0</ele><time>2026-04-12T18:25:39.999Z</time></trkpt><trkpt lat="39.25372394204786" lon="16.694547865559933"><ele>1022.0</ele><time>2026-04-12T18:25:40.999Z</time></trkpt><trkpt lat="39.253684510329236" lon="16.694693188972842"><ele>1019.0000000000001</ele><time>2026-04-12T18:25:42.999Z</time></trkpt><trkpt lat="39.253717391728905" lon="16.69485373623166"><ele>1016.0</ele><time>2026-04-12T18:25:44.999Z</time></trkpt><trkpt lat="39.25375419879466" lon="16.694941064054163"><ele>1016.0000000000001</ele><time>2026-04-12T18:25:45.999Z</time></trkpt><trkpt lat="39.25378920276646" lon="16.695022972396796"><ele>1016.0</ele><time>2026-04-12T18:25:46.999Z</time></trkpt><trkpt lat="39.25382810028333" lon="16.69510764304163"><ele>1016.0</ele><time>2026-04-12T18:25:47.999Z</time></trkpt><trkpt lat="39.2538549110048" lon="16.695187533953856"><ele>1016.0</ele><time>2026-04-12T18:25:48.999Z</time></trkpt><trkpt lat="39.25392031377114" lon="16.69531246676884"><ele>1016.0000000000001</ele><time>2026-04-12T18:25:50.999Z</time></trkpt><trkpt lat="39.25395254896782" lon="16.695382378902952"><ele>1016.0</ele><time>2026-04-12T18:25:51.999Z</time></trkpt><trkpt lat="39.25399025309959" lon="16.69545368799996"><ele>1018.0000000000001</ele><time>2026-04-12T18:25:52.999Z</time></trkpt><trkpt lat="39.25404152792579" lon="16.695531548134785"><ele>1020.0</ele><time>2026-04-12T18:25:53.999Z</time></trkpt><trkpt lat="39.254101633985016" lon="16.6955993513426"><ele>1022.0</ele><time>2026-04-12T18:25:54.999Z</time></trkpt><trkpt lat="39.2541720928862" lon="16.695663991489663"><ele>1024.0</ele><time>2026-04-12T18:25:55.999Z</time></trkpt><trkpt lat="39.25424461221173" lon="16.69572550187329"><ele>1026.0</ele><time>2026-04-12T18:25:56.999Z</time></trkpt><trkpt lat="39.254318776866484" lon="16.69578604279248"><ele>1028.0</ele><time>2026-04-12T18:25:57.999Z</time></trkpt><trkpt lat="39.254394471048315" lon="16.695846162208237"><ele>1028.0</ele><time>2026-04-12T18:25:58.999Z</time></trkpt><trkpt lat="39.254467033488545" lon="16.695905621374056"><ele>1028.0</ele><time>2026-04-12T18:25:59.999Z</time></trkpt><trkpt lat="39.25453141092405" lon="16.695957207161605"><ele>1028.0</ele><time>2026-04-12T18:26:00.999Z</time></trkpt><trkpt lat="39.254560126957976" lon="16.696040628090795"><ele>1028.0</ele><time>2026-04-12T18:26:01.999Z</time></trkpt><trkpt lat="39.254577673440096" lon="16.696145405918827"><ele>1028.0</ele><time>2026-04-12T18:26:02.999Z</time></trkpt><trkpt lat="39.25460431089988" lon="16.696238972360028"><ele>1028.0</ele><time>2026-04-12T18:26:03.999Z</time></trkpt><trkpt lat="39.254623556659226" lon="16.696348258744983"><ele>1028.2</ele><time>2026-04-12T18:26:04.999Z</time></trkpt><trkpt lat="39.254658165900175" lon="16.696479535448212"><ele>1028.4</ele><time>2026-04-12T18:26:05.999Z</time></trkpt><trkpt lat="39.25466701709318" lon="16.696589595176626"><ele>1028.6000000000001</ele><time>2026-04-12T18:26:06.999Z</time></trkpt><trkpt lat="39.25471579940723" lon="16.696696128964344"><ele>1028.8</ele><time>2026-04-12T18:26:07.999Z</time></trkpt><trkpt lat="39.25477882911391" lon="16.696773186572166"><ele>1029.0</ele><time>2026-04-12T18:26:08.999Z</time></trkpt><trkpt lat="39.25485427930608" lon="16.69684811295383"><ele>1029.0</ele><time>2026-04-12T18:26:09.999Z</time></trkpt><trkpt lat="39.25492550023442" lon="16.696910771395366"><ele>1029.0</ele><time>2026-04-12T18:26:10.999Z</time></trkpt><trkpt lat="39.254980550183554" lon="16.69696920008401"><ele>1029.0</ele><time>2026-04-12T18:26:11.999Z</time></trkpt><trkpt lat="39.25502593131227" lon="16.697111789348742"><ele>1029.0</ele><time>2026-04-12T18:26:13.999Z</time></trkpt><trkpt lat="39.254992170682954" lon="16.697250177386742"><ele>1029.0</ele><time>2026-04-12T18:26:15.999Z</time></trkpt><trkpt lat="39.25495857824706" lon="16.69735661969557"><ele>1028.5714285714287</ele><time>2026-04-12T18:26:16.999Z</time></trkpt><trkpt lat="39.25491086129199" lon="16.69742813848432"><ele>1028.142857142857</ele><time>2026-04-12T18:26:17.999Z</time></trkpt><trkpt lat="39.2548720566837" lon="16.69750434417942"><ele>1027.7142857142858</ele><time>2026-04-12T18:26:18.999Z</time></trkpt><trkpt lat="39.254828862388734" lon="16.697585679113555"><ele>1027.2857142857142</ele><time>2026-04-12T18:26:19.999Z</time></trkpt><trkpt lat="39.25478046961242" lon="16.69763971326957"><ele>1026.857142857143</ele><time>2026-04-12T18:26:20.999Z</time></trkpt><trkpt lat="39.25476583420251" lon="16.697743127864204"><ele>1026.4285714285716</ele><time>2026-04-12T18:26:21.999Z</time></trkpt><trkpt lat="39.25475661273745" lon="16.69784447570879"><ele>1026.0</ele><time>2026-04-12T18:26:22.999Z</time></trkpt><trkpt lat="39.25475508909313" lon="16.69793905586325"><ele>1025.0</ele><time>2026-04-12T18:26:23.999Z</time></trkpt><trkpt lat="39.25475790731882" lon="16.698020697635904"><ele>1024.0</ele><time>2026-04-12T18:26:24.999Z</time></trkpt><trkpt lat="39.25477687559308" lon="16.6981041929469"><ele>1023.0</ele><time>2026-04-12T18:26:25.999Z</time></trkpt><trkpt lat="39.25479480286108" lon="16.698269102336866"><ele>1022.0</ele><time>2026-04-12T18:26:27.999Z</time></trkpt><trkpt lat="39.25483934906167" lon="16.698386044554237"><ele>1021.0</ele><time>2026-04-12T18:26:29.999Z</time></trkpt><trkpt lat="39.2548561863096" lon="16.698497637600596"><ele>1020.0</ele><time>2026-04-12T18:26:32.998Z</time></trkpt><trkpt lat="39.2549244317714" lon="16.6986358325937"><ele>1019.0</ele><time>2026-04-12T18:26:34.998Z</time></trkpt><trkpt lat="39.2549820785018" lon="16.698706285482103"><ele>1018.0</ele><time>2026-04-12T18:26:35.998Z</time></trkpt><trkpt lat="39.25504058431029" lon="16.69879014859661"><ele>1017.0</ele><time>2026-04-12T18:26:36.998Z</time></trkpt><trkpt lat="39.255108106506775" lon="16.698875724853426"><ele>1016.0</ele><time>2026-04-12T18:26:37.998Z</time></trkpt><trkpt lat="39.25517288458377" lon="16.69896217727148"><ele>1015.0</ele><time>2026-04-12T18:26:38.998Z</time></trkpt><trkpt lat="39.25523335143708" lon="16.69904321776175"><ele>1014.0</ele><time>2026-04-12T18:26:39.998Z</time></trkpt><trkpt lat="39.255287733326604" lon="16.699112666494702"><ele>1014.0</ele><time>2026-04-12T18:26:40.998Z</time></trkpt><trkpt lat="39.25535201992059" lon="16.69916780220671"><ele>1014.0</ele><time>2026-04-12T18:26:41.998Z</time></trkpt><trkpt lat="39.25539089623715" lon="16.69925928471869"><ele>1014.0</ele><time>2026-04-12T18:26:42.998Z</time></trkpt><trkpt lat="39.25539827886111" lon="16.699363054623234"><ele>1014.0</ele><time>2026-04-12T18:26:43.998Z</time></trkpt><trkpt lat="39.255400930480185" lon="16.6994472253934"><ele>1014.0</ele><time>2026-04-12T18:26:44.998Z</time></trkpt><trkpt lat="39.255375796355935" lon="16.699562794247967"><ele>1014.0</ele><time>2026-04-12T18:26:46.998Z</time></trkpt><trkpt lat="39.25533275455656" lon="16.69964549634495"><ele>1012.4000000000001</ele><time>2026-04-12T18:26:48.998Z</time></trkpt><trkpt lat="39.25530254215084" lon="16.69974587940628"><ele>1010.8000000000001</ele><time>2026-04-12T18:26:50.998Z</time></trkpt><trkpt lat="39.25519111887346" lon="16.69975673411727"><ele>1009.1999999999999</ele><time>2026-04-12T18:26:51.998Z</time></trkpt><trkpt lat="39.25521436202282" lon="16.69992752511712"><ele>1007.5999999999999</ele><time>2026-04-12T18:26:53.998Z</time></trkpt><trkpt lat="39.25522494953109" lon="16.700016688463673"><ele>1006.0</ele><time>2026-04-12T18:26:54.998Z</time></trkpt><trkpt lat="39.25525444115527" lon="16.70011049003773"><ele>1006.0</ele><time>2026-04-12T18:26:55.998Z</time></trkpt><trkpt lat="39.25531764064551" lon="16.7002426920438"><ele>1005.9999999999999</ele><time>2026-04-12T18:26:57.998Z</time></trkpt><trkpt lat="39.2553264574334" lon="16.700369200886442"><ele>1005.9999999999999</ele><time>2026-04-12T18:26:59.998Z</time></trkpt><trkpt lat="39.255320462770044" lon="16.700467183091398"><ele>1006.0</ele><time>2026-04-12T18:27:02.998Z</time></trkpt><trkpt lat="39.25520919435783" lon="16.700594196366414"><ele>1006.0</ele><time>2026-04-12T18:27:04.998Z</time></trkpt><trkpt lat="39.255147322214654" lon="16.700683233663675"><ele>1004.6666666666666</ele><time>2026-04-12T18:27:06.998Z</time></trkpt><trkpt lat="39.255109438825535" lon="16.70076663605438"><ele>1003.3333333333333</ele><time>2026-04-12T18:27:08.998Z</time></trkpt><trkpt lat="39.2550667853546" lon="16.700848803339284"><ele>1002.0</ele><time>2026-04-12T18:27:10.998Z</time></trkpt><trkpt lat="39.255010513799256" lon="16.700962227301176"><ele>1000.6666666666667</ele><time>2026-04-12T18:27:12.999Z</time></trkpt><trkpt lat="39.25500650117416" lon="16.701044180885503"><ele>999.3333333333334</ele><time>2026-04-12T18:27:14.999Z</time></trkpt><trkpt lat="39.25507051414434" lon="16.701127264748305"><ele>998.0</ele><time>2026-04-12T18:27:16.999Z</time></trkpt><trkpt lat="39.2549978809385" lon="16.701204909220433"><ele>998.0000000000001</ele><time>2026-04-12T18:27:20.999Z</time></trkpt><trkpt lat="39.255013577058165" lon="16.70109066668773"><ele>998.0</ele><time>2026-04-12T18:32:50.999Z</time></trkpt><trkpt lat="39.25500934091796" lon="16.701176623884123"><ele>998.0</ele><time>2026-04-12T18:33:12.999Z</time></trkpt><trkpt lat="39.255095291879364" lon="16.701105753313367"><ele>998.0</ele><time>2026-04-12T18:33:18.998Z</time></trkpt><trkpt lat="39.25505105326877" lon="16.70104353280289"><ele>998.0000000000001</ele><time>2026-04-12T18:33:20.998Z</time></trkpt><trkpt lat="39.25501659157393" lon="16.70096086290377"><ele>998.0</ele><time>2026-04-12T18:33:22.998Z</time></trkpt><trkpt lat="39.25509537267201" lon="16.700889843256093"><ele>998.0</ele><time>2026-04-12T18:33:24.998Z</time></trkpt><trkpt lat="39.255174576594676" lon="16.700821461490428"><ele>998.0</ele><time>2026-04-12T18:33:26.998Z</time></trkpt><trkpt lat="39.25520071878789" lon="16.700666380614717"><ele>998.0</ele><time>2026-04-12T18:33:28.998Z</time></trkpt><trkpt lat="39.25530622899575" lon="16.70049634792464"><ele>998.0</ele><time>2026-04-12T18:33:32.001Z</time></trkpt><trkpt lat="39.25539971636793" lon="16.700452194149612"><ele>998.0</ele><time>2026-04-12T18:33:34.001Z</time></trkpt><trkpt lat="39.255427471716956" lon="16.70057495877108"><ele>998.0</ele><time>2026-04-12T18:33:36Z</time></trkpt><trkpt lat="39.25541691037984" lon="16.70065536333692"><ele>998.0</ele><time>2026-04-12T18:33:37Z</time></trkpt><trkpt lat="39.2554279213352" lon="16.700757757383915"><ele>998.0</ele><time>2026-04-12T18:33:38Z</time></trkpt><trkpt lat="39.25548449646837" lon="16.70090190117725"><ele>998.0</ele><time>2026-04-12T18:33:39Z</time></trkpt><trkpt lat="39.255538798702965" lon="16.701021228763157"><ele>996.25</ele><time>2026-04-12T18:33:40Z</time></trkpt><trkpt lat="39.255536930462746" lon="16.701159239660296"><ele>994.5</ele><time>2026-04-12T18:33:41Z</time></trkpt><trkpt lat="39.25553542184251" lon="16.701309481686437"><ele>992.75</ele><time>2026-04-12T18:33:42Z</time></trkpt><trkpt lat="39.25555223936074" lon="16.701467984038572"><ele>991.0</ele><time>2026-04-12T18:33:43Z</time></trkpt><trkpt lat="39.25557752184422" lon="16.70162917653787"><ele>991.0</ele><time>2026-04-12T18:33:44Z</time></trkpt><trkpt lat="39.25560420259096" lon="16.701760268158946"><ele>990.9999999999999</ele><time>2026-04-12T18:33:45Z</time></trkpt><trkpt lat="39.2556520659504" lon="16.701853850883467"><ele>990.9999999999999</ele><time>2026-04-12T18:33:46Z</time></trkpt><trkpt lat="39.25575838722264" lon="16.701915931252206"><ele>991.0</ele><time>2026-04-12T18:33:47Z</time></trkpt><trkpt lat="39.25585087981702" lon="16.70194119106628"><ele>991.0</ele><time>2026-04-12T18:33:48Z</time></trkpt><trkpt lat="39.25595334966938" lon="16.701943526525532"><ele>986.25</ele><time>2026-04-12T18:33:49Z</time></trkpt><trkpt lat="39.25606223942664" lon="16.701936303040096"><ele>981.5</ele><time>2026-04-12T18:33:50Z</time></trkpt><trkpt lat="39.256138008936226" lon="16.70191741892567"><ele>976.75</ele><time>2026-04-12T18:33:51Z</time></trkpt><trkpt lat="39.25605050888607" lon="16.70195962738242"><ele>972.0</ele><time>2026-04-12T18:33:54Z</time></trkpt><trkpt lat="39.25597149218168" lon="16.702183060122174"><ele>972.0</ele><time>2026-04-12T18:33:55Z</time></trkpt><trkpt lat="39.25586871882531" lon="16.702327631084923"><ele>972.0</ele><time>2026-04-12T18:33:56Z</time></trkpt><trkpt lat="39.25579205592783" lon="16.702458573690524"><ele>972.0</ele><time>2026-04-12T18:33:57Z</time></trkpt><trkpt lat="39.255654558570065" lon="16.702431276897197"><ele>972.0</ele><time>2026-04-12T18:33:59Z</time></trkpt><trkpt lat="39.255566756999634" lon="16.702389080546734"><ele>971.8</ele><time>2026-04-12T18:34:00Z</time></trkpt><trkpt lat="39.25544030840243" lon="16.702376921538264"><ele>971.6</ele><time>2026-04-12T18:34:01Z</time></trkpt><trkpt lat="39.25533395906638" lon="16.702306568832608"><ele>971.3999999999999</ele><time>2026-04-12T18:34:02Z</time></trkpt><trkpt lat="39.25525923574196" lon="16.70228283926468"><ele>971.1999999999999</ele><time>2026-04-12T18:34:03Z</time></trkpt><trkpt lat="39.25515979362092" lon="16.70232732606143"><ele>971.0</ele><time>2026-04-12T18:34:04Z</time></trkpt><trkpt lat="39.2550724153757" lon="16.702383822578877"><ele>971.0</ele><time>2026-04-12T18:34:05Z</time></trkpt><trkpt lat="39.25495691662993" lon="16.702415541440804"><ele>970.9999999999999</ele><time>2026-04-12T18:34:06Z</time></trkpt><trkpt lat="39.25484711486848" lon="16.702402215815034"><ele>970.9999999999999</ele><time>2026-04-12T18:34:07Z</time></trkpt><trkpt lat="39.254763120880504" lon="16.702368178413906"><ele>971.0</ele><time>2026-04-12T18:34:08Z</time></trkpt><trkpt lat="39.25469474852373" lon="16.702308589983605"><ele>971.0</ele><time>2026-04-12T18:34:09Z</time></trkpt><trkpt lat="39.25462554577631" lon="16.70219593926291"><ele>970.0</ele><time>2026-04-12T18:34:10Z</time></trkpt><trkpt lat="39.25452322896349" lon="16.702035743032905"><ele>969.0</ele><time>2026-04-12T18:34:11Z</time></trkpt><trkpt lat="39.25443333977481" lon="16.701935821159886"><ele>968.0</ele><time>2026-04-12T18:34:12Z</time></trkpt><trkpt lat="39.25436803079847" lon="16.70183850958888"><ele>967.0</ele><time>2026-04-12T18:34:13Z</time></trkpt><trkpt lat="39.254336156619786" lon="16.70174266151254"><ele>968.9999999999999</ele><time>2026-04-12T18:34:14Z</time></trkpt><trkpt lat="39.25429162632904" lon="16.701666633613442"><ele>971.0</ele><time>2026-04-12T18:34:15Z</time></trkpt><trkpt lat="39.25424756710199" lon="16.701603492316995"><ele>973.0</ele><time>2026-04-12T18:34:15.999Z</time></trkpt><trkpt lat="39.25417485958639" lon="16.701518762986524"><ele>975.0</ele><time>2026-04-12T18:34:17.999Z</time></trkpt><trkpt lat="39.25412476097321" lon="16.701459239261837"><ele>976.9999999999999</ele><time>2026-04-12T18:34:20.999Z</time></trkpt><trkpt lat="39.25403479656038" lon="16.701350689049946"><ele>979.0</ele><time>2026-04-12T18:34:26.999Z</time></trkpt><trkpt lat="39.253981419811105" lon="16.701298944581936"><ele>978.4000000000001</ele><time>2026-04-12T18:34:27.999Z</time></trkpt><trkpt lat="39.253919462043314" lon="16.701251366262763"><ele>977.8000000000001</ele><time>2026-04-12T18:34:28.999Z</time></trkpt><trkpt lat="39.25385859990835" lon="16.70121063310014"><ele>977.1999999999999</ele><time>2026-04-12T18:34:29.999Z</time></trkpt><trkpt lat="39.253801651376754" lon="16.701173884779102"><ele>976.5999999999999</ele><time>2026-04-12T18:34:30.999Z</time></trkpt><trkpt lat="39.253717105441595" lon="16.70111932813516"><ele>976.0</ele><time>2026-04-12T18:34:32.999Z</time></trkpt><trkpt lat="39.253730744521285" lon="16.70092074857078"><ele>976.0</ele><time>2026-04-12T18:34:33.999Z</time></trkpt><trkpt lat="39.25364342940503" lon="16.700840196127665"><ele>975.9999999999999</ele><time>2026-04-12T18:34:35.999Z</time></trkpt><trkpt lat="39.253576982008056" lon="16.70085334105844"><ele>975.9999999999999</ele><time>2026-04-12T18:34:37.999Z</time></trkpt><trkpt lat="39.253622012429176" lon="16.700700086325785"><ele>976.0</ele><time>2026-04-12T18:34:38.999Z</time></trkpt><trkpt lat="39.25358023052062" lon="16.700581980321463"><ele>976.0</ele><time>2026-04-12T18:34:39.999Z</time></trkpt><trkpt lat="39.25360342967065" lon="16.70047607885441"><ele>975.9999999999999</ele><time>2026-04-12T18:34:40.999Z</time></trkpt><trkpt lat="39.25356215187187" lon="16.700388568702735"><ele>976.0</ele><time>2026-04-12T18:34:42.999Z</time></trkpt><trkpt lat="39.25349670259526" lon="16.7003531722863"><ele>976.0</ele><time>2026-04-12T18:34:43.999Z</time></trkpt><trkpt lat="39.25340816635077" lon="16.700299178734078"><ele>976.0</ele><time>2026-04-12T18:34:44.999Z</time></trkpt><trkpt lat="39.25333427471325" lon="16.700232304868926"><ele>975.9999999999999</ele><time>2026-04-12T18:34:45.999Z</time></trkpt><trkpt lat="39.253252097612986" lon="16.700143408728593"><ele>976.0</ele><time>2026-04-12T18:34:46.999Z</time></trkpt><trkpt lat="39.25317238075259" lon="16.70004169755218"><ele>976.0</ele><time>2026-04-12T18:34:47.999Z</time></trkpt><trkpt lat="39.25314836058871" lon="16.699874503730033"><ele>976.0</ele><time>2026-04-12T18:34:48.999Z</time></trkpt><trkpt lat="39.2531236053193" lon="16.69972634556079"><ele>976.0</ele><time>2026-04-12T18:34:49.999Z</time></trkpt><trkpt lat="39.253085350951565" lon="16.699503668402308"><ele>976.0</ele><time>2026-04-12T18:34:50.999Z</time></trkpt><trkpt lat="39.253086789514036" lon="16.699365773555364"><ele>975.9999999999999</ele><time>2026-04-12T18:34:51.999Z</time></trkpt><trkpt lat="39.25310518388684" lon="16.699239359191452"><ele>976.0</ele><time>2026-04-12T18:34:52.999Z</time></trkpt><trkpt lat="39.25312914307373" lon="16.69914373026214"><ele>976.0</ele><time>2026-04-12T18:34:53.999Z</time></trkpt><trkpt lat="39.25314068717583" lon="16.69905840350056"><ele>976.0</ele><time>2026-04-12T18:34:54.999Z</time></trkpt><trkpt lat="39.25314560778791" lon="16.698956412454347"><ele>975.9999999999999</ele><time>2026-04-12T18:34:55.999Z</time></trkpt><trkpt lat="39.25309241622895" lon="16.69884199004645"><ele>976.0</ele><time>2026-04-12T18:34:57.999Z</time></trkpt><trkpt lat="39.252985803356566" lon="16.698776358663643"><ele>976.0</ele><time>2026-04-12T18:34:58.999Z</time></trkpt><trkpt lat="39.252844480142" lon="16.698660236907788"><ele>976.0</ele><time>2026-04-12T18:34:59.999Z</time></trkpt><trkpt lat="39.25273503208012" lon="16.69860612018192"><ele>976.0</ele><time>2026-04-12T18:35:00.999Z</time></trkpt><trkpt lat="39.25266733395696" lon="16.698584038717314"><ele>976.0</ele><time>2026-04-12T18:35:01.999Z</time></trkpt><trkpt lat="39.25257079100459" lon="16.698712915538362"><ele>976.0</ele><time>2026-04-12T18:35:03.999Z</time></trkpt><trkpt lat="39.252532691278226" lon="16.698885044464433"><ele>976.0</ele><time>2026-04-12T18:35:04.999Z</time></trkpt><trkpt lat="39.25247856948631" lon="16.699068204240913"><ele>976.0</ele><time>2026-04-12T18:35:05.998Z</time></trkpt><trkpt lat="39.2524076830703" lon="16.69921225653041"><ele>976.0</ele><time>2026-04-12T18:35:06.998Z</time></trkpt><trkpt lat="39.25232871273505" lon="16.699324060570394"><ele>973.75</ele><time>2026-04-12T18:35:07.998Z</time></trkpt><trkpt lat="39.25224814401218" lon="16.69942102007898"><ele>971.5</ele><time>2026-04-12T18:35:08.998Z</time></trkpt><trkpt lat="39.25215158090358" lon="16.699510275510313"><ele>969.25</ele><time>2026-04-12T18:35:09.998Z</time></trkpt><trkpt lat="39.25203215680641" lon="16.699551111532568"><ele>967.0</ele><time>2026-04-12T18:35:10.998Z</time></trkpt><trkpt lat="39.25192573416069" lon="16.699561584862636"><ele>967.0</ele><time>2026-04-12T18:35:11.998Z</time></trkpt><trkpt lat="39.25185868435791" lon="16.699456062001243"><ele>967.0</ele><time>2026-04-12T18:35:12.998Z</time></trkpt><trkpt lat="39.25180693556875" lon="16.699360031818795"><ele>967.0</ele><time>2026-04-12T18:35:13.998Z</time></trkpt><trkpt lat="39.25178330265255" lon="16.699227628056292"><ele>967.0</ele><time>2026-04-12T18:35:14.998Z</time></trkpt><trkpt lat="39.25176407512954" lon="16.699043940526682"><ele>967.0</ele><time>2026-04-12T18:35:15.998Z</time></trkpt><trkpt lat="39.25172237105293" lon="16.698793046964656"><ele>972.0</ele><time>2026-04-12T18:35:16.998Z</time></trkpt><trkpt lat="39.25171379018656" lon="16.69849406112007"><ele>977.0</ele><time>2026-04-12T18:35:17.998Z</time></trkpt><trkpt lat="39.251708004080605" lon="16.698300713052355"><ele>982.0</ele><time>2026-04-12T18:35:18.998Z</time></trkpt><trkpt lat="39.25167569963408" lon="16.6981600397717"><ele>982.0</ele><time>2026-04-12T18:35:19.998Z</time></trkpt><trkpt lat="39.25156905337955" lon="16.69806869528798"><ele>982.0</ele><time>2026-04-12T18:35:20.998Z</time></trkpt><trkpt lat="39.2514387884317" lon="16.697966260955702"><ele>982.0</ele><time>2026-04-12T18:35:21.998Z</time></trkpt><trkpt lat="39.25134994486794" lon="16.697850965257775"><ele>982.0</ele><time>2026-04-12T18:35:22.998Z</time></trkpt><trkpt lat="39.25129250558767" lon="16.697716713680425"><ele>979.75</ele><time>2026-04-12T18:35:23.998Z</time></trkpt><trkpt lat="39.251283086865975" lon="16.69757998219306"><ele>977.5</ele><time>2026-04-12T18:35:24.998Z</time></trkpt><trkpt lat="39.25131672576036" lon="16.69744259664731"><ele>975.25</ele><time>2026-04-12T18:35:25.998Z</time></trkpt><trkpt lat="39.25137257732364" lon="16.697309731052133"><ele>973.0</ele><time>2026-04-12T18:35:26.998Z</time></trkpt><trkpt lat="39.25144962937783" lon="16.697197436426144"><ele>975.2</ele><time>2026-04-12T18:35:27.998Z</time></trkpt><trkpt lat="39.25153877441799" lon="16.697136920374135"><ele>977.4</ele><time>2026-04-12T18:35:28.998Z</time></trkpt><trkpt lat="39.25161914093902" lon="16.69713881009937"><ele>979.6000000000001</ele><time>2026-04-12T18:35:29.998Z</time></trkpt><trkpt lat="39.25171248173781" lon="16.697201312340837"><ele>981.8000000000001</ele><time>2026-04-12T18:35:30.998Z</time></trkpt><trkpt lat="39.25181197586493" lon="16.697214811181663"><ele>984.0</ele><time>2026-04-12T18:35:31.998Z</time></trkpt><trkpt lat="39.251879062072376" lon="16.697245338856145"><ele>984.0</ele><time>2026-04-12T18:35:32.998Z</time></trkpt><trkpt lat="39.25192435280525" lon="16.697186677450457"><ele>984.0</ele><time>2026-04-12T18:35:34.998Z</time></trkpt><trkpt lat="39.25188949983734" lon="16.696982021000274"><ele>984.0</ele><time>2026-04-12T18:35:35.999Z</time></trkpt><trkpt lat="39.25184385991678" lon="16.696798186186093"><ele>984.0</ele><time>2026-04-12T18:35:36.999Z</time></trkpt><trkpt lat="39.25178587941035" lon="16.69664726174382"><ele>983.5</ele><time>2026-04-12T18:35:37.999Z</time></trkpt><trkpt lat="39.251702293270604" lon="16.696596941144414"><ele>983.0</ele><time>2026-04-12T18:35:38.999Z</time></trkpt><trkpt lat="39.25157858085107" lon="16.696599650109388"><ele>982.5</ele><time>2026-04-12T18:35:39.999Z</time></trkpt><trkpt lat="39.2514589000285" lon="16.696593190351553"><ele>982.0</ele><time>2026-04-12T18:35:40.999Z</time></trkpt><trkpt lat="39.251289515320266" lon="16.69669753529892"><ele>979.75</ele><time>2026-04-12T18:35:41.999Z</time></trkpt><trkpt lat="39.25114361988958" lon="16.6967373197651"><ele>977.5</ele><time>2026-04-12T18:35:42.999Z</time></trkpt><trkpt lat="39.2510088054854" lon="16.69676683792911"><ele>975.25</ele><time>2026-04-12T18:35:43.999Z</time></trkpt><trkpt lat="39.25091184900181" lon="16.696679265526303"><ele>973.0</ele><time>2026-04-12T18:35:44.999Z</time></trkpt><trkpt lat="39.250775093438065" lon="16.696547822956006"><ele>970.0</ele><time>2026-04-12T18:35:45.999Z</time></trkpt><trkpt lat="39.250587590045164" lon="16.696394778469095"><ele>967.0</ele><time>2026-04-12T18:35:46.999Z</time></trkpt><trkpt lat="39.2504218670246" lon="16.696292331517554"><ele>964.0</ele><time>2026-04-12T18:35:47.999Z</time></trkpt><trkpt lat="39.250275219541415" lon="16.696218346964113"><ele>964.0</ele><time>2026-04-12T18:35:48.999Z</time></trkpt><trkpt lat="39.25012058509715" lon="16.696182762289826"><ele>964.0</ele><time>2026-04-12T18:35:49.999Z</time></trkpt><trkpt lat="39.249960419670465" lon="16.69616252340229"><ele>964.0</ele><time>2026-04-12T18:35:50.999Z</time></trkpt><trkpt lat="39.24981213267883" lon="16.6961267404004"><ele>961.4000000000001</ele><time>2026-04-12T18:35:51.999Z</time></trkpt><trkpt lat="39.24969116573506" lon="16.696046031179247"><ele>958.8000000000001</ele><time>2026-04-12T18:35:52.999Z</time></trkpt><trkpt lat="39.24964069393189" lon="16.695941602075834"><ele>956.1999999999999</ele><time>2026-04-12T18:35:53.999Z</time></trkpt><trkpt lat="39.24958249004293" lon="16.695807572995488"><ele>953.5999999999999</ele><time>2026-04-12T18:35:54.999Z</time></trkpt><trkpt lat="39.249587273556905" lon="16.69572131319037"><ele>951.0</ele><time>2026-04-12T18:35:55.999Z</time></trkpt><trkpt lat="39.24963193298462" lon="16.69557836463646"><ele>951.0</ele><time>2026-04-12T18:35:56.999Z</time></trkpt><trkpt lat="39.249654950039336" lon="16.695481238584684"><ele>951.0</ele><time>2026-04-12T18:35:57.999Z</time></trkpt><trkpt lat="39.2497148471342" lon="16.695518521361674"><ele>951.0</ele><time>2026-04-12T18:35:59.999Z</time></trkpt><trkpt lat="39.249795933744295" lon="16.69559036142004"><ele>951.0</ele><time>2026-04-12T18:40:39Z</time></trkpt><trkpt lat="39.249871597927466" lon="16.695634570565517"><ele>951.0</ele><time>2026-04-12T18:40:45.999Z</time></trkpt><trkpt lat="39.24993186051453" lon="16.69569406417114"><ele>951.0</ele><time>2026-04-12T18:40:48.024Z</time></trkpt><trkpt lat="39.24992394171603" lon="16.69558896684711"><ele>951.0</ele><time>2026-04-12T18:41:03.999Z</time></trkpt><trkpt lat="39.24968748822756" lon="16.69549743646448"><ele>951.0</ele><time>2026-04-12T18:41:04.999Z</time></trkpt><trkpt lat="39.24974296990193" lon="16.695414923940934"><ele>951.0</ele><time>2026-04-12T18:41:05.999Z</time></trkpt><trkpt lat="39.249765433401" lon="16.695328255039115"><ele>951.0</ele><time>2026-04-12T18:41:07.999Z</time></trkpt><trkpt lat="39.24970248303259" lon="16.695290169202604"><ele>951.0</ele><time>2026-04-12T18:41:09.999Z</time></trkpt><trkpt lat="39.24986730052079" lon="16.695501144726187"><ele>967.0</ele><time>2026-04-12T18:41:23.999Z</time></trkpt><trkpt lat="39.24986730052079" lon="16.695501144726187"><ele>967.0</ele><time>2026-04-12T18:41:23.999Z</time></trkpt><trkpt lat="39.24986730052079" lon="16.695501144726187"><ele>967.0</ele><time>2026-04-12T18:41:23.999Z</time></trkpt><trkpt lat="39.24986730052079" lon="16.695501144726187"><ele>967.0</ele><time>2026-04-12T18:41:23.999Z</time></trkpt></trkseg></trk></gpx>